<?xml version="1.0" encoding="UTF-8" standalone="no" ?>
<gpx xmlns="http://www.topografix.com/GPX/1/1" xmlns:xsi="http://www.w3.org/2001/XMLSchema-instance" xsi:schemaLocation="http://www.topografix.com/GPX/1/1 http://www.topografix.com/GPX/1/1/gpx.xsd" version="1.1" creator="VisuGPX - https://www.visugpx.com">
  <metadata>
    <name>Rando Sylvie </name>
    <desc><![CDATA[Itinéraire Equestre rando du 14 mai 2017]]></desc>
  </metadata>
  <trk>
    <name><![CDATA[Rando Sylvie _1]]></name>
    <trkseg>
      <trkpt lat="45.76382" lon="4.33263">
        <ele>467</ele>
        <time>2017-04-13T06:58:57.1Z</time>
      </trkpt>
      <trkpt lat="45.76383" lon="4.33264">
        <ele>466</ele>
        <time>2017-04-13T06:58:59.1Z</time>
      </trkpt>
      <trkpt lat="45.76383" lon="4.33266">
        <ele>466</ele>
        <time>2017-04-13T06:59:02.1Z</time>
      </trkpt>
      <trkpt lat="45.76383" lon="4.33267">
        <ele>465</ele>
        <time>2017-04-13T06:59:05.1Z</time>
      </trkpt>
      <trkpt lat="45.76384" lon="4.33267">
        <ele>465</ele>
        <time>2017-04-13T06:59:07.1Z</time>
      </trkpt>
      <trkpt lat="45.76384" lon="4.33268">
        <ele>466</ele>
        <time>2017-04-13T06:59:09.1Z</time>
      </trkpt>
      <trkpt lat="45.76383" lon="4.33268">
        <ele>468</ele>
        <time>2017-04-13T06:59:13.1Z</time>
      </trkpt>
      <trkpt lat="45.76383" lon="4.33268">
        <ele>467</ele>
        <time>2017-04-13T06:59:15.1Z</time>
      </trkpt>
      <trkpt lat="45.76382" lon="4.33266">
        <ele>467</ele>
        <time>2017-04-13T06:59:17.1Z</time>
      </trkpt>
      <trkpt lat="45.76381" lon="4.33265">
        <ele>467</ele>
        <time>2017-04-13T06:59:20.1Z</time>
      </trkpt>
      <trkpt lat="45.76381" lon="4.33264">
        <ele>467</ele>
        <time>2017-04-13T06:59:22.1Z</time>
      </trkpt>
      <trkpt lat="45.76381" lon="4.33265">
        <ele>468</ele>
        <time>2017-04-13T06:59:24.1Z</time>
      </trkpt>
      <trkpt lat="45.76381" lon="4.33265">
        <ele>468</ele>
        <time>2017-04-13T06:59:26.1Z</time>
      </trkpt>
      <trkpt lat="45.7638" lon="4.33265">
        <ele>468</ele>
        <time>2017-04-13T06:59:31.1Z</time>
      </trkpt>
      <trkpt lat="45.7638" lon="4.33264">
        <ele>467</ele>
        <time>2017-04-13T06:59:34.1Z</time>
      </trkpt>
      <trkpt lat="45.76381" lon="4.33263">
        <ele>467</ele>
        <time>2017-04-13T06:59:36.1Z</time>
      </trkpt>
      <trkpt lat="45.76381" lon="4.33262">
        <ele>468</ele>
        <time>2017-04-13T06:59:38.1Z</time>
      </trkpt>
      <trkpt lat="45.76381" lon="4.33261">
        <ele>468</ele>
        <time>2017-04-13T06:59:41.1Z</time>
      </trkpt>
      <trkpt lat="45.76381" lon="4.3326">
        <ele>467</ele>
        <time>2017-04-13T06:59:43.1Z</time>
      </trkpt>
      <trkpt lat="45.76381" lon="4.33259">
        <ele>467</ele>
        <time>2017-04-13T06:59:45.1Z</time>
      </trkpt>
      <trkpt lat="45.76382" lon="4.33258">
        <ele>467</ele>
        <time>2017-04-13T06:59:47.1Z</time>
      </trkpt>
      <trkpt lat="45.76382" lon="4.33257">
        <ele>467</ele>
        <time>2017-04-13T06:59:49.1Z</time>
      </trkpt>
      <trkpt lat="45.76383" lon="4.33257">
        <ele>467</ele>
        <time>2017-04-13T06:59:51.1Z</time>
      </trkpt>
      <trkpt lat="45.76384" lon="4.33258">
        <ele>467</ele>
        <time>2017-04-13T06:59:53.1Z</time>
      </trkpt>
      <trkpt lat="45.76384" lon="4.33258">
        <ele>467</ele>
        <time>2017-04-13T06:59:55.1Z</time>
      </trkpt>
      <trkpt lat="45.76384" lon="4.33258">
        <ele>467</ele>
        <time>2017-04-13T06:59:58.1Z</time>
      </trkpt>
      <trkpt lat="45.76384" lon="4.33259">
        <ele>467</ele>
        <time>2017-04-13T07:00:00.1Z</time>
      </trkpt>
      <trkpt lat="45.76384" lon="4.33259">
        <ele>468</ele>
        <time>2017-04-13T07:00:03.1Z</time>
      </trkpt>
      <trkpt lat="45.76385" lon="4.33259">
        <ele>468</ele>
        <time>2017-04-13T07:00:05.1Z</time>
      </trkpt>
      <trkpt lat="45.76385" lon="4.33259">
        <ele>468</ele>
        <time>2017-04-13T07:00:07.1Z</time>
      </trkpt>
      <trkpt lat="45.76385" lon="4.33259">
        <ele>467</ele>
        <time>2017-04-13T07:00:10.1Z</time>
      </trkpt>
      <trkpt lat="45.76385" lon="4.33259">
        <ele>467</ele>
        <time>2017-04-13T07:00:12.1Z</time>
      </trkpt>
      <trkpt lat="45.76386" lon="4.3326">
        <ele>467</ele>
        <time>2017-04-13T07:00:14.1Z</time>
      </trkpt>
      <trkpt lat="45.76387" lon="4.33261">
        <ele>468</ele>
        <time>2017-04-13T07:00:16.1Z</time>
      </trkpt>
      <trkpt lat="45.76389" lon="4.3326">
        <ele>468</ele>
        <time>2017-04-13T07:00:18.1Z</time>
      </trkpt>
      <trkpt lat="45.76391" lon="4.33259">
        <ele>469</ele>
        <time>2017-04-13T07:00:20.1Z</time>
      </trkpt>
      <trkpt lat="45.76393" lon="4.3326">
        <ele>469</ele>
        <time>2017-04-13T07:00:23.1Z</time>
      </trkpt>
      <trkpt lat="45.76393" lon="4.33261">
        <ele>469</ele>
        <time>2017-04-13T07:00:25.1Z</time>
      </trkpt>
      <trkpt lat="45.76391" lon="4.33262">
        <ele>469</ele>
        <time>2017-04-13T07:00:27.1Z</time>
      </trkpt>
      <trkpt lat="45.7639" lon="4.33261">
        <ele>469</ele>
        <time>2017-04-13T07:00:29.1Z</time>
      </trkpt>
      <trkpt lat="45.76389" lon="4.33261">
        <ele>469</ele>
        <time>2017-04-13T07:00:31.1Z</time>
      </trkpt>
      <trkpt lat="45.76386" lon="4.3326">
        <ele>468</ele>
        <time>2017-04-13T07:00:34.1Z</time>
      </trkpt>
      <trkpt lat="45.76384" lon="4.33259">
        <ele>469</ele>
        <time>2017-04-13T07:00:36.1Z</time>
      </trkpt>
      <trkpt lat="45.76384" lon="4.33257">
        <ele>469</ele>
        <time>2017-04-13T07:00:38.1Z</time>
      </trkpt>
      <trkpt lat="45.76383" lon="4.33256">
        <ele>468</ele>
        <time>2017-04-13T07:00:40.1Z</time>
      </trkpt>
      <trkpt lat="45.76384" lon="4.33255">
        <ele>469</ele>
        <time>2017-04-13T07:00:43.1Z</time>
      </trkpt>
      <trkpt lat="45.76384" lon="4.33255">
        <ele>469</ele>
        <time>2017-04-13T07:00:45.1Z</time>
      </trkpt>
      <trkpt lat="45.76384" lon="4.33254">
        <ele>468</ele>
        <time>2017-04-13T07:00:47.1Z</time>
      </trkpt>
      <trkpt lat="45.76385" lon="4.33254">
        <ele>468</ele>
        <time>2017-04-13T07:00:49.1Z</time>
      </trkpt>
      <trkpt lat="45.76385" lon="4.33254">
        <ele>468</ele>
        <time>2017-04-13T07:00:52.1Z</time>
      </trkpt>
      <trkpt lat="45.76386" lon="4.33254">
        <ele>468</ele>
        <time>2017-04-13T07:00:54.1Z</time>
      </trkpt>
      <trkpt lat="45.76387" lon="4.33254">
        <ele>468</ele>
        <time>2017-04-13T07:00:56.1Z</time>
      </trkpt>
      <trkpt lat="45.76387" lon="4.33254">
        <ele>468</ele>
        <time>2017-04-13T07:00:58.1Z</time>
      </trkpt>
      <trkpt lat="45.76389" lon="4.33254">
        <ele>468</ele>
        <time>2017-04-13T07:01:01.1Z</time>
      </trkpt>
      <trkpt lat="45.76391" lon="4.33254">
        <ele>468</ele>
        <time>2017-04-13T07:01:04.1Z</time>
      </trkpt>
      <trkpt lat="45.76393" lon="4.33257">
        <ele>468</ele>
        <time>2017-04-13T07:01:06.1Z</time>
      </trkpt>
      <trkpt lat="45.76395" lon="4.33261">
        <ele>468</ele>
        <time>2017-04-13T07:01:08.1Z</time>
      </trkpt>
      <trkpt lat="45.76397" lon="4.33263">
        <ele>468</ele>
        <time>2017-04-13T07:01:10.1Z</time>
      </trkpt>
      <trkpt lat="45.76399" lon="4.33268">
        <ele>468</ele>
        <time>2017-04-13T07:01:13.1Z</time>
      </trkpt>
      <trkpt lat="45.764" lon="4.33272">
        <ele>468</ele>
        <time>2017-04-13T07:01:15.1Z</time>
      </trkpt>
      <trkpt lat="45.764" lon="4.33277">
        <ele>468</ele>
        <time>2017-04-13T07:01:17.1Z</time>
      </trkpt>
      <trkpt lat="45.76401" lon="4.3328">
        <ele>469</ele>
        <time>2017-04-13T07:01:19.1Z</time>
      </trkpt>
      <trkpt lat="45.76402" lon="4.33283">
        <ele>469</ele>
        <time>2017-04-13T07:01:21.1Z</time>
      </trkpt>
      <trkpt lat="45.76402" lon="4.33289">
        <ele>469</ele>
        <time>2017-04-13T07:01:24.1Z</time>
      </trkpt>
      <trkpt lat="45.76402" lon="4.33293">
        <ele>469</ele>
        <time>2017-04-13T07:01:26.1Z</time>
      </trkpt>
      <trkpt lat="45.76402" lon="4.33298">
        <ele>470</ele>
        <time>2017-04-13T07:01:28.1Z</time>
      </trkpt>
      <trkpt lat="45.76402" lon="4.33302">
        <ele>470</ele>
        <time>2017-04-13T07:01:30.1Z</time>
      </trkpt>
      <trkpt lat="45.76403" lon="4.33309">
        <ele>470</ele>
        <time>2017-04-13T07:01:33.1Z</time>
      </trkpt>
      <trkpt lat="45.76403" lon="4.33312">
        <ele>470</ele>
        <time>2017-04-13T07:01:35.1Z</time>
      </trkpt>
      <trkpt lat="45.76403" lon="4.33316">
        <ele>471</ele>
        <time>2017-04-13T07:01:37.1Z</time>
      </trkpt>
      <trkpt lat="45.76403" lon="4.33322">
        <ele>471</ele>
        <time>2017-04-13T07:01:40.1Z</time>
      </trkpt>
      <trkpt lat="45.76402" lon="4.33327">
        <ele>471</ele>
        <time>2017-04-13T07:01:42.1Z</time>
      </trkpt>
      <trkpt lat="45.764" lon="4.33332">
        <ele>471</ele>
        <time>2017-04-13T07:01:44.1Z</time>
      </trkpt>
      <trkpt lat="45.76399" lon="4.33337">
        <ele>472</ele>
        <time>2017-04-13T07:01:46.1Z</time>
      </trkpt>
      <trkpt lat="45.76398" lon="4.33343">
        <ele>473</ele>
        <time>2017-04-13T07:01:49.1Z</time>
      </trkpt>
      <trkpt lat="45.76397" lon="4.33347">
        <ele>473</ele>
        <time>2017-04-13T07:01:51.1Z</time>
      </trkpt>
      <trkpt lat="45.76395" lon="4.3335">
        <ele>473</ele>
        <time>2017-04-13T07:01:53.1Z</time>
      </trkpt>
      <trkpt lat="45.76394" lon="4.33353">
        <ele>474</ele>
        <time>2017-04-13T07:01:55.1Z</time>
      </trkpt>
      <trkpt lat="45.76391" lon="4.33357">
        <ele>474</ele>
        <time>2017-04-13T07:01:58.1Z</time>
      </trkpt>
      <trkpt lat="45.76389" lon="4.3336">
        <ele>475</ele>
        <time>2017-04-13T07:02:00.1Z</time>
      </trkpt>
      <trkpt lat="45.76385" lon="4.33363">
        <ele>475</ele>
        <time>2017-04-13T07:02:03.1Z</time>
      </trkpt>
      <trkpt lat="45.76384" lon="4.33365">
        <ele>476</ele>
        <time>2017-04-13T07:02:05.1Z</time>
      </trkpt>
      <trkpt lat="45.76381" lon="4.33366">
        <ele>476</ele>
        <time>2017-04-13T07:02:07.1Z</time>
      </trkpt>
      <trkpt lat="45.76378" lon="4.33368">
        <ele>477</ele>
        <time>2017-04-13T07:02:10.1Z</time>
      </trkpt>
      <trkpt lat="45.76375" lon="4.33369">
        <ele>478</ele>
        <time>2017-04-13T07:02:13.1Z</time>
      </trkpt>
      <trkpt lat="45.76372" lon="4.33369">
        <ele>478</ele>
        <time>2017-04-13T07:02:15.1Z</time>
      </trkpt>
      <trkpt lat="45.7637" lon="4.3337">
        <ele>478</ele>
        <time>2017-04-13T07:02:17.1Z</time>
      </trkpt>
      <trkpt lat="45.76366" lon="4.33373">
        <ele>479</ele>
        <time>2017-04-13T07:02:20.1Z</time>
      </trkpt>
      <trkpt lat="45.76364" lon="4.33375">
        <ele>479</ele>
        <time>2017-04-13T07:02:22.1Z</time>
      </trkpt>
      <trkpt lat="45.76361" lon="4.33378">
        <ele>480</ele>
        <time>2017-04-13T07:02:25.1Z</time>
      </trkpt>
      <trkpt lat="45.76359" lon="4.3338">
        <ele>481</ele>
        <time>2017-04-13T07:02:27.1Z</time>
      </trkpt>
      <trkpt lat="45.76356" lon="4.33382">
        <ele>481</ele>
        <time>2017-04-13T07:02:29.1Z</time>
      </trkpt>
      <trkpt lat="45.76353" lon="4.33384">
        <ele>482</ele>
        <time>2017-04-13T07:02:32.1Z</time>
      </trkpt>
      <trkpt lat="45.7635" lon="4.33387">
        <ele>482</ele>
        <time>2017-04-13T07:02:35.1Z</time>
      </trkpt>
      <trkpt lat="45.76347" lon="4.3339">
        <ele>483</ele>
        <time>2017-04-13T07:02:38.1Z</time>
      </trkpt>
      <trkpt lat="45.76345" lon="4.33391">
        <ele>483</ele>
        <time>2017-04-13T07:02:40.1Z</time>
      </trkpt>
      <trkpt lat="45.76343" lon="4.33392">
        <ele>484</ele>
        <time>2017-04-13T07:02:42.1Z</time>
      </trkpt>
      <trkpt lat="45.76343" lon="4.33392">
        <ele>484</ele>
        <time>2017-04-13T07:02:44.1Z</time>
      </trkpt>
      <trkpt lat="45.76343" lon="4.33392">
        <ele>485</ele>
        <time>2017-04-13T07:02:47.1Z</time>
      </trkpt>
      <trkpt lat="45.76343" lon="4.33391">
        <ele>485</ele>
        <time>2017-04-13T07:02:50.1Z</time>
      </trkpt>
      <trkpt lat="45.76344" lon="4.33391">
        <ele>485</ele>
        <time>2017-04-13T07:02:53.1Z</time>
      </trkpt>
      <trkpt lat="45.76344" lon="4.33391">
        <ele>485</ele>
        <time>2017-04-13T07:02:55.1Z</time>
      </trkpt>
      <trkpt lat="45.76344" lon="4.3339">
        <ele>485</ele>
        <time>2017-04-13T07:02:58.1Z</time>
      </trkpt>
      <trkpt lat="45.76344" lon="4.33389">
        <ele>485</ele>
        <time>2017-04-13T07:03:00.1Z</time>
      </trkpt>
      <trkpt lat="45.76342" lon="4.33387">
        <ele>485</ele>
        <time>2017-04-13T07:03:02.1Z</time>
      </trkpt>
      <trkpt lat="45.7634" lon="4.33384">
        <ele>485</ele>
        <time>2017-04-13T07:03:05.1Z</time>
      </trkpt>
      <trkpt lat="45.76339" lon="4.3338">
        <ele>486</ele>
        <time>2017-04-13T07:03:08.1Z</time>
      </trkpt>
      <trkpt lat="45.76337" lon="4.33377">
        <ele>486</ele>
        <time>2017-04-13T07:03:11.1Z</time>
      </trkpt>
      <trkpt lat="45.76337" lon="4.33374">
        <ele>486</ele>
        <time>2017-04-13T07:03:13.1Z</time>
      </trkpt>
      <trkpt lat="45.76336" lon="4.33371">
        <ele>486</ele>
        <time>2017-04-13T07:03:15.1Z</time>
      </trkpt>
      <trkpt lat="45.76334" lon="4.33367">
        <ele>486</ele>
        <time>2017-04-13T07:03:18.1Z</time>
      </trkpt>
      <trkpt lat="45.76332" lon="4.33364">
        <ele>486</ele>
        <time>2017-04-13T07:03:20.1Z</time>
      </trkpt>
      <trkpt lat="45.7633" lon="4.33359">
        <ele>487</ele>
        <time>2017-04-13T07:03:23.1Z</time>
      </trkpt>
      <trkpt lat="45.76329" lon="4.33357">
        <ele>487</ele>
        <time>2017-04-13T07:03:25.1Z</time>
      </trkpt>
      <trkpt lat="45.76327" lon="4.33353">
        <ele>488</ele>
        <time>2017-04-13T07:03:28.1Z</time>
      </trkpt>
      <trkpt lat="45.76325" lon="4.33351">
        <ele>488</ele>
        <time>2017-04-13T07:03:30.1Z</time>
      </trkpt>
      <trkpt lat="45.76323" lon="4.33349">
        <ele>488</ele>
        <time>2017-04-13T07:03:32.1Z</time>
      </trkpt>
      <trkpt lat="45.76321" lon="4.33345">
        <ele>488</ele>
        <time>2017-04-13T07:03:35.1Z</time>
      </trkpt>
      <trkpt lat="45.76319" lon="4.33343">
        <ele>489</ele>
        <time>2017-04-13T07:03:37.1Z</time>
      </trkpt>
      <trkpt lat="45.76318" lon="4.3334">
        <ele>489</ele>
        <time>2017-04-13T07:03:39.1Z</time>
      </trkpt>
      <trkpt lat="45.76316" lon="4.33336">
        <ele>489</ele>
        <time>2017-04-13T07:03:42.1Z</time>
      </trkpt>
      <trkpt lat="45.76314" lon="4.33334">
        <ele>489</ele>
        <time>2017-04-13T07:03:44.1Z</time>
      </trkpt>
      <trkpt lat="45.76313" lon="4.33332">
        <ele>489</ele>
        <time>2017-04-13T07:03:46.1Z</time>
      </trkpt>
      <trkpt lat="45.7631" lon="4.33329">
        <ele>489</ele>
        <time>2017-04-13T07:03:49.1Z</time>
      </trkpt>
      <trkpt lat="45.76308" lon="4.33326">
        <ele>489</ele>
        <time>2017-04-13T07:03:51.1Z</time>
      </trkpt>
      <trkpt lat="45.76305" lon="4.33323">
        <ele>489</ele>
        <time>2017-04-13T07:03:54.1Z</time>
      </trkpt>
      <trkpt lat="45.76303" lon="4.33321">
        <ele>489</ele>
        <time>2017-04-13T07:03:56.1Z</time>
      </trkpt>
      <trkpt lat="45.76302" lon="4.33319">
        <ele>490</ele>
        <time>2017-04-13T07:03:58.1Z</time>
      </trkpt>
      <trkpt lat="45.76299" lon="4.33315">
        <ele>490</ele>
        <time>2017-04-13T07:04:01.1Z</time>
      </trkpt>
      <trkpt lat="45.76297" lon="4.33313">
        <ele>490</ele>
        <time>2017-04-13T07:04:03.1Z</time>
      </trkpt>
      <trkpt lat="45.76294" lon="4.3331">
        <ele>490</ele>
        <time>2017-04-13T07:04:06.1Z</time>
      </trkpt>
      <trkpt lat="45.76292" lon="4.33308">
        <ele>490</ele>
        <time>2017-04-13T07:04:08.1Z</time>
      </trkpt>
      <trkpt lat="45.76289" lon="4.33305">
        <ele>490</ele>
        <time>2017-04-13T07:04:11.1Z</time>
      </trkpt>
      <trkpt lat="45.76286" lon="4.33301">
        <ele>490</ele>
        <time>2017-04-13T07:04:14.1Z</time>
      </trkpt>
      <trkpt lat="45.76284" lon="4.33298">
        <ele>490</ele>
        <time>2017-04-13T07:04:16.1Z</time>
      </trkpt>
      <trkpt lat="45.76282" lon="4.33296">
        <ele>490</ele>
        <time>2017-04-13T07:04:18.1Z</time>
      </trkpt>
      <trkpt lat="45.76279" lon="4.33293">
        <ele>490</ele>
        <time>2017-04-13T07:04:21.1Z</time>
      </trkpt>
      <trkpt lat="45.76276" lon="4.3329">
        <ele>490</ele>
        <time>2017-04-13T07:04:23.1Z</time>
      </trkpt>
      <trkpt lat="45.76273" lon="4.33285">
        <ele>490</ele>
        <time>2017-04-13T07:04:26.1Z</time>
      </trkpt>
      <trkpt lat="45.7627" lon="4.33282">
        <ele>490</ele>
        <time>2017-04-13T07:04:28.1Z</time>
      </trkpt>
      <trkpt lat="45.76268" lon="4.33279">
        <ele>490</ele>
        <time>2017-04-13T07:04:30.1Z</time>
      </trkpt>
      <trkpt lat="45.76264" lon="4.33276">
        <ele>490</ele>
        <time>2017-04-13T07:04:33.1Z</time>
      </trkpt>
      <trkpt lat="45.76262" lon="4.33274">
        <ele>490</ele>
        <time>2017-04-13T07:04:35.1Z</time>
      </trkpt>
      <trkpt lat="45.76258" lon="4.3327">
        <ele>490</ele>
        <time>2017-04-13T07:04:38.1Z</time>
      </trkpt>
      <trkpt lat="45.76256" lon="4.33267">
        <ele>490</ele>
        <time>2017-04-13T07:04:40.1Z</time>
      </trkpt>
      <trkpt lat="45.76253" lon="4.33264">
        <ele>491</ele>
        <time>2017-04-13T07:04:42.1Z</time>
      </trkpt>
      <trkpt lat="45.76249" lon="4.33259">
        <ele>490</ele>
        <time>2017-04-13T07:04:45.1Z</time>
      </trkpt>
      <trkpt lat="45.76245" lon="4.33255">
        <ele>490</ele>
        <time>2017-04-13T07:04:48.1Z</time>
      </trkpt>
      <trkpt lat="45.76243" lon="4.33252">
        <ele>490</ele>
        <time>2017-04-13T07:04:50.1Z</time>
      </trkpt>
      <trkpt lat="45.76239" lon="4.33247">
        <ele>490</ele>
        <time>2017-04-13T07:04:53.1Z</time>
      </trkpt>
      <trkpt lat="45.76237" lon="4.33244">
        <ele>490</ele>
        <time>2017-04-13T07:04:55.1Z</time>
      </trkpt>
      <trkpt lat="45.76234" lon="4.33239">
        <ele>490</ele>
        <time>2017-04-13T07:04:58.1Z</time>
      </trkpt>
      <trkpt lat="45.76232" lon="4.33237">
        <ele>490</ele>
        <time>2017-04-13T07:05:00.1Z</time>
      </trkpt>
      <trkpt lat="45.76229" lon="4.33234">
        <ele>490</ele>
        <time>2017-04-13T07:05:02.1Z</time>
      </trkpt>
      <trkpt lat="45.76226" lon="4.33229">
        <ele>490</ele>
        <time>2017-04-13T07:05:05.1Z</time>
      </trkpt>
      <trkpt lat="45.76223" lon="4.33225">
        <ele>490</ele>
        <time>2017-04-13T07:05:07.1Z</time>
      </trkpt>
      <trkpt lat="45.76219" lon="4.33221">
        <ele>490</ele>
        <time>2017-04-13T07:05:10.1Z</time>
      </trkpt>
      <trkpt lat="45.76216" lon="4.33217">
        <ele>490</ele>
        <time>2017-04-13T07:05:12.1Z</time>
      </trkpt>
      <trkpt lat="45.76212" lon="4.33213">
        <ele>490</ele>
        <time>2017-04-13T07:05:15.1Z</time>
      </trkpt>
      <trkpt lat="45.7621" lon="4.33211">
        <ele>490</ele>
        <time>2017-04-13T07:05:17.1Z</time>
      </trkpt>
      <trkpt lat="45.76207" lon="4.33208">
        <ele>489</ele>
        <time>2017-04-13T07:05:20.1Z</time>
      </trkpt>
      <trkpt lat="45.76205" lon="4.33205">
        <ele>490</ele>
        <time>2017-04-13T07:05:22.1Z</time>
      </trkpt>
      <trkpt lat="45.76202" lon="4.33201">
        <ele>489</ele>
        <time>2017-04-13T07:05:25.1Z</time>
      </trkpt>
      <trkpt lat="45.76198" lon="4.33196">
        <ele>490</ele>
        <time>2017-04-13T07:05:28.1Z</time>
      </trkpt>
      <trkpt lat="45.76196" lon="4.33193">
        <ele>490</ele>
        <time>2017-04-13T07:05:30.1Z</time>
      </trkpt>
      <trkpt lat="45.76194" lon="4.33187">
        <ele>490</ele>
        <time>2017-04-13T07:05:33.1Z</time>
      </trkpt>
      <trkpt lat="45.76191" lon="4.33184">
        <ele>490</ele>
        <time>2017-04-13T07:05:35.1Z</time>
      </trkpt>
      <trkpt lat="45.76189" lon="4.33179">
        <ele>490</ele>
        <time>2017-04-13T07:05:38.1Z</time>
      </trkpt>
      <trkpt lat="45.76187" lon="4.33175">
        <ele>490</ele>
        <time>2017-04-13T07:05:40.1Z</time>
      </trkpt>
      <trkpt lat="45.76184" lon="4.33171">
        <ele>490</ele>
        <time>2017-04-13T07:05:43.1Z</time>
      </trkpt>
      <trkpt lat="45.76182" lon="4.33167">
        <ele>490</ele>
        <time>2017-04-13T07:05:45.1Z</time>
      </trkpt>
      <trkpt lat="45.76179" lon="4.33162">
        <ele>490</ele>
        <time>2017-04-13T07:05:48.1Z</time>
      </trkpt>
      <trkpt lat="45.76177" lon="4.33159">
        <ele>490</ele>
        <time>2017-04-13T07:05:50.1Z</time>
      </trkpt>
      <trkpt lat="45.76175" lon="4.33156">
        <ele>490</ele>
        <time>2017-04-13T07:05:52.1Z</time>
      </trkpt>
      <trkpt lat="45.76172" lon="4.33152">
        <ele>490</ele>
        <time>2017-04-13T07:05:55.1Z</time>
      </trkpt>
      <trkpt lat="45.7617" lon="4.33149">
        <ele>490</ele>
        <time>2017-04-13T07:05:57.1Z</time>
      </trkpt>
      <trkpt lat="45.76168" lon="4.33144">
        <ele>490</ele>
        <time>2017-04-13T07:06:00.1Z</time>
      </trkpt>
      <trkpt lat="45.76167" lon="4.33141">
        <ele>490</ele>
        <time>2017-04-13T07:06:02.1Z</time>
      </trkpt>
      <trkpt lat="45.76165" lon="4.33138">
        <ele>490</ele>
        <time>2017-04-13T07:06:04.1Z</time>
      </trkpt>
      <trkpt lat="45.76162" lon="4.33136">
        <ele>490</ele>
        <time>2017-04-13T07:06:07.1Z</time>
      </trkpt>
      <trkpt lat="45.7616" lon="4.33136">
        <ele>490</ele>
        <time>2017-04-13T07:06:09.1Z</time>
      </trkpt>
      <trkpt lat="45.76156" lon="4.33137">
        <ele>490</ele>
        <time>2017-04-13T07:06:12.1Z</time>
      </trkpt>
      <trkpt lat="45.76152" lon="4.33139">
        <ele>491</ele>
        <time>2017-04-13T07:06:15.1Z</time>
      </trkpt>
      <trkpt lat="45.76149" lon="4.3314">
        <ele>492</ele>
        <time>2017-04-13T07:06:17.1Z</time>
      </trkpt>
      <trkpt lat="45.76147" lon="4.33142">
        <ele>492</ele>
        <time>2017-04-13T07:06:19.1Z</time>
      </trkpt>
      <trkpt lat="45.76144" lon="4.33145">
        <ele>493</ele>
        <time>2017-04-13T07:06:22.1Z</time>
      </trkpt>
      <trkpt lat="45.76139" lon="4.33147">
        <ele>493</ele>
        <time>2017-04-13T07:06:25.1Z</time>
      </trkpt>
      <trkpt lat="45.76137" lon="4.33149">
        <ele>493</ele>
        <time>2017-04-13T07:06:27.1Z</time>
      </trkpt>
      <trkpt lat="45.76133" lon="4.33152">
        <ele>494</ele>
        <time>2017-04-13T07:06:30.1Z</time>
      </trkpt>
      <trkpt lat="45.76131" lon="4.33154">
        <ele>494</ele>
        <time>2017-04-13T07:06:32.1Z</time>
      </trkpt>
      <trkpt lat="45.76128" lon="4.33156">
        <ele>494</ele>
        <time>2017-04-13T07:06:34.1Z</time>
      </trkpt>
      <trkpt lat="45.76126" lon="4.33157">
        <ele>494</ele>
        <time>2017-04-13T07:06:36.1Z</time>
      </trkpt>
      <trkpt lat="45.76123" lon="4.3316">
        <ele>495</ele>
        <time>2017-04-13T07:06:39.1Z</time>
      </trkpt>
      <trkpt lat="45.7612" lon="4.33163">
        <ele>495</ele>
        <time>2017-04-13T07:06:41.1Z</time>
      </trkpt>
      <trkpt lat="45.76116" lon="4.33166">
        <ele>495</ele>
        <time>2017-04-13T07:06:44.1Z</time>
      </trkpt>
      <trkpt lat="45.76113" lon="4.33167">
        <ele>495</ele>
        <time>2017-04-13T07:06:46.1Z</time>
      </trkpt>
      <trkpt lat="45.7611" lon="4.33169">
        <ele>496</ele>
        <time>2017-04-13T07:06:48.1Z</time>
      </trkpt>
      <trkpt lat="45.76108" lon="4.33171">
        <ele>496</ele>
        <time>2017-04-13T07:06:50.1Z</time>
      </trkpt>
      <trkpt lat="45.76104" lon="4.33176">
        <ele>496</ele>
        <time>2017-04-13T07:06:53.1Z</time>
      </trkpt>
      <trkpt lat="45.76102" lon="4.33178">
        <ele>496</ele>
        <time>2017-04-13T07:06:55.1Z</time>
      </trkpt>
      <trkpt lat="45.76099" lon="4.33181">
        <ele>496</ele>
        <time>2017-04-13T07:06:57.1Z</time>
      </trkpt>
      <trkpt lat="45.76096" lon="4.33185">
        <ele>496</ele>
        <time>2017-04-13T07:07:00.1Z</time>
      </trkpt>
      <trkpt lat="45.76094" lon="4.33188">
        <ele>496</ele>
        <time>2017-04-13T07:07:02.1Z</time>
      </trkpt>
      <trkpt lat="45.76092" lon="4.3319">
        <ele>496</ele>
        <time>2017-04-13T07:07:04.1Z</time>
      </trkpt>
      <trkpt lat="45.76088" lon="4.33194">
        <ele>496</ele>
        <time>2017-04-13T07:07:07.1Z</time>
      </trkpt>
      <trkpt lat="45.76086" lon="4.33197">
        <ele>496</ele>
        <time>2017-04-13T07:07:09.1Z</time>
      </trkpt>
      <trkpt lat="45.76081" lon="4.33199">
        <ele>496</ele>
        <time>2017-04-13T07:07:12.1Z</time>
      </trkpt>
      <trkpt lat="45.76078" lon="4.33199">
        <ele>497</ele>
        <time>2017-04-13T07:07:14.1Z</time>
      </trkpt>
      <trkpt lat="45.76074" lon="4.33197">
        <ele>497</ele>
        <time>2017-04-13T07:07:17.1Z</time>
      </trkpt>
      <trkpt lat="45.7607" lon="4.33194">
        <ele>497</ele>
        <time>2017-04-13T07:07:20.1Z</time>
      </trkpt>
      <trkpt lat="45.76067" lon="4.33192">
        <ele>497</ele>
        <time>2017-04-13T07:07:22.1Z</time>
      </trkpt>
      <trkpt lat="45.76063" lon="4.33189">
        <ele>496</ele>
        <time>2017-04-13T07:07:25.1Z</time>
      </trkpt>
      <trkpt lat="45.76059" lon="4.33187">
        <ele>496</ele>
        <time>2017-04-13T07:07:28.1Z</time>
      </trkpt>
      <trkpt lat="45.76054" lon="4.33184">
        <ele>496</ele>
        <time>2017-04-13T07:07:31.1Z</time>
      </trkpt>
      <trkpt lat="45.76051" lon="4.33182">
        <ele>495</ele>
        <time>2017-04-13T07:07:33.1Z</time>
      </trkpt>
      <trkpt lat="45.76049" lon="4.3318">
        <ele>495</ele>
        <time>2017-04-13T07:07:35.1Z</time>
      </trkpt>
      <trkpt lat="45.76044" lon="4.33177">
        <ele>495</ele>
        <time>2017-04-13T07:07:38.1Z</time>
      </trkpt>
      <trkpt lat="45.76041" lon="4.33176">
        <ele>495</ele>
        <time>2017-04-13T07:07:40.1Z</time>
      </trkpt>
      <trkpt lat="45.76037" lon="4.33174">
        <ele>495</ele>
        <time>2017-04-13T07:07:43.1Z</time>
      </trkpt>
      <trkpt lat="45.76033" lon="4.33172">
        <ele>494</ele>
        <time>2017-04-13T07:07:46.1Z</time>
      </trkpt>
      <trkpt lat="45.76029" lon="4.3317">
        <ele>494</ele>
        <time>2017-04-13T07:07:49.1Z</time>
      </trkpt>
      <trkpt lat="45.76026" lon="4.33169">
        <ele>494</ele>
        <time>2017-04-13T07:07:51.1Z</time>
      </trkpt>
      <trkpt lat="45.76022" lon="4.33167">
        <ele>494</ele>
        <time>2017-04-13T07:07:54.1Z</time>
      </trkpt>
      <trkpt lat="45.76019" lon="4.33166">
        <ele>494</ele>
        <time>2017-04-13T07:07:56.1Z</time>
      </trkpt>
      <trkpt lat="45.76016" lon="4.33165">
        <ele>494</ele>
        <time>2017-04-13T07:07:58.1Z</time>
      </trkpt>
      <trkpt lat="45.76012" lon="4.33164">
        <ele>493</ele>
        <time>2017-04-13T07:08:01.1Z</time>
      </trkpt>
      <trkpt lat="45.76009" lon="4.33163">
        <ele>493</ele>
        <time>2017-04-13T07:08:03.1Z</time>
      </trkpt>
      <trkpt lat="45.76006" lon="4.33163">
        <ele>493</ele>
        <time>2017-04-13T07:08:05.1Z</time>
      </trkpt>
      <trkpt lat="45.76001" lon="4.33161">
        <ele>493</ele>
        <time>2017-04-13T07:08:08.1Z</time>
      </trkpt>
      <trkpt lat="45.75997" lon="4.3316">
        <ele>493</ele>
        <time>2017-04-13T07:08:11.1Z</time>
      </trkpt>
      <trkpt lat="45.75994" lon="4.33159">
        <ele>492</ele>
        <time>2017-04-13T07:08:13.1Z</time>
      </trkpt>
      <trkpt lat="45.7599" lon="4.33158">
        <ele>492</ele>
        <time>2017-04-13T07:08:16.1Z</time>
      </trkpt>
      <trkpt lat="45.75986" lon="4.33157">
        <ele>491</ele>
        <time>2017-04-13T07:08:19.1Z</time>
      </trkpt>
      <trkpt lat="45.75983" lon="4.33156">
        <ele>491</ele>
        <time>2017-04-13T07:08:21.1Z</time>
      </trkpt>
      <trkpt lat="45.7598" lon="4.33156">
        <ele>491</ele>
        <time>2017-04-13T07:08:23.1Z</time>
      </trkpt>
      <trkpt lat="45.75976" lon="4.33155">
        <ele>491</ele>
        <time>2017-04-13T07:08:26.1Z</time>
      </trkpt>
      <trkpt lat="45.75973" lon="4.33154">
        <ele>491</ele>
        <time>2017-04-13T07:08:28.1Z</time>
      </trkpt>
      <trkpt lat="45.75969" lon="4.33153">
        <ele>490</ele>
        <time>2017-04-13T07:08:31.1Z</time>
      </trkpt>
      <trkpt lat="45.75964" lon="4.33153">
        <ele>489</ele>
        <time>2017-04-13T07:08:34.1Z</time>
      </trkpt>
      <trkpt lat="45.75961" lon="4.33152">
        <ele>490</ele>
        <time>2017-04-13T07:08:36.1Z</time>
      </trkpt>
      <trkpt lat="45.75957" lon="4.33151">
        <ele>490</ele>
        <time>2017-04-13T07:08:39.1Z</time>
      </trkpt>
      <trkpt lat="45.75953" lon="4.3315">
        <ele>489</ele>
        <time>2017-04-13T07:08:42.1Z</time>
      </trkpt>
      <trkpt lat="45.7595" lon="4.33149">
        <ele>489</ele>
        <time>2017-04-13T07:08:44.1Z</time>
      </trkpt>
      <trkpt lat="45.75946" lon="4.33148">
        <ele>488</ele>
        <time>2017-04-13T07:08:47.1Z</time>
      </trkpt>
      <trkpt lat="45.75943" lon="4.33147">
        <ele>488</ele>
        <time>2017-04-13T07:08:49.1Z</time>
      </trkpt>
      <trkpt lat="45.75939" lon="4.33146">
        <ele>488</ele>
        <time>2017-04-13T07:08:52.1Z</time>
      </trkpt>
      <trkpt lat="45.75936" lon="4.33145">
        <ele>487</ele>
        <time>2017-04-13T07:08:54.1Z</time>
      </trkpt>
      <trkpt lat="45.75933" lon="4.33145">
        <ele>487</ele>
        <time>2017-04-13T07:08:56.1Z</time>
      </trkpt>
      <trkpt lat="45.75931" lon="4.33144">
        <ele>487</ele>
        <time>2017-04-13T07:08:58.1Z</time>
      </trkpt>
      <trkpt lat="45.75928" lon="4.33143">
        <ele>487</ele>
        <time>2017-04-13T07:09:00.1Z</time>
      </trkpt>
      <trkpt lat="45.75925" lon="4.33142">
        <ele>486</ele>
        <time>2017-04-13T07:09:02.1Z</time>
      </trkpt>
      <trkpt lat="45.75921" lon="4.33141">
        <ele>486</ele>
        <time>2017-04-13T07:09:05.1Z</time>
      </trkpt>
      <trkpt lat="45.75918" lon="4.3314">
        <ele>486</ele>
        <time>2017-04-13T07:09:07.1Z</time>
      </trkpt>
      <trkpt lat="45.75914" lon="4.33138">
        <ele>486</ele>
        <time>2017-04-13T07:09:10.1Z</time>
      </trkpt>
      <trkpt lat="45.75912" lon="4.33138">
        <ele>485</ele>
        <time>2017-04-13T07:09:12.1Z</time>
      </trkpt>
      <trkpt lat="45.75908" lon="4.33137">
        <ele>485</ele>
        <time>2017-04-13T07:09:15.1Z</time>
      </trkpt>
      <trkpt lat="45.75905" lon="4.33135">
        <ele>485</ele>
        <time>2017-04-13T07:09:18.1Z</time>
      </trkpt>
      <trkpt lat="45.75902" lon="4.33133">
        <ele>485</ele>
        <time>2017-04-13T07:09:20.1Z</time>
      </trkpt>
      <trkpt lat="45.759" lon="4.33133">
        <ele>484</ele>
        <time>2017-04-13T07:09:22.1Z</time>
      </trkpt>
      <trkpt lat="45.75897" lon="4.33133">
        <ele>484</ele>
        <time>2017-04-13T07:09:25.1Z</time>
      </trkpt>
      <trkpt lat="45.75894" lon="4.33132">
        <ele>484</ele>
        <time>2017-04-13T07:09:27.1Z</time>
      </trkpt>
      <trkpt lat="45.7589" lon="4.33132">
        <ele>483</ele>
        <time>2017-04-13T07:09:30.1Z</time>
      </trkpt>
      <trkpt lat="45.75888" lon="4.33132">
        <ele>483</ele>
        <time>2017-04-13T07:09:32.1Z</time>
      </trkpt>
      <trkpt lat="45.75883" lon="4.33131">
        <ele>483</ele>
        <time>2017-04-13T07:09:35.1Z</time>
      </trkpt>
      <trkpt lat="45.7588" lon="4.33131">
        <ele>482</ele>
        <time>2017-04-13T07:09:37.1Z</time>
      </trkpt>
      <trkpt lat="45.75878" lon="4.3313">
        <ele>482</ele>
        <time>2017-04-13T07:09:39.1Z</time>
      </trkpt>
      <trkpt lat="45.75874" lon="4.3313">
        <ele>482</ele>
        <time>2017-04-13T07:09:42.1Z</time>
      </trkpt>
      <trkpt lat="45.75871" lon="4.33129">
        <ele>482</ele>
        <time>2017-04-13T07:09:44.1Z</time>
      </trkpt>
      <trkpt lat="45.75867" lon="4.33128">
        <ele>481</ele>
        <time>2017-04-13T07:09:47.1Z</time>
      </trkpt>
      <trkpt lat="45.75864" lon="4.33127">
        <ele>481</ele>
        <time>2017-04-13T07:09:49.1Z</time>
      </trkpt>
      <trkpt lat="45.7586" lon="4.33125">
        <ele>481</ele>
        <time>2017-04-13T07:09:52.1Z</time>
      </trkpt>
      <trkpt lat="45.75856" lon="4.33125">
        <ele>480</ele>
        <time>2017-04-13T07:09:55.1Z</time>
      </trkpt>
      <trkpt lat="45.75854" lon="4.33124">
        <ele>480</ele>
        <time>2017-04-13T07:09:57.1Z</time>
      </trkpt>
      <trkpt lat="45.75851" lon="4.33124">
        <ele>480</ele>
        <time>2017-04-13T07:09:59.1Z</time>
      </trkpt>
      <trkpt lat="45.75848" lon="4.33123">
        <ele>480</ele>
        <time>2017-04-13T07:10:01.1Z</time>
      </trkpt>
      <trkpt lat="45.75846" lon="4.33122">
        <ele>479</ele>
        <time>2017-04-13T07:10:03.1Z</time>
      </trkpt>
      <trkpt lat="45.75843" lon="4.33122">
        <ele>479</ele>
        <time>2017-04-13T07:10:05.1Z</time>
      </trkpt>
      <trkpt lat="45.7584" lon="4.33121">
        <ele>479</ele>
        <time>2017-04-13T07:10:08.1Z</time>
      </trkpt>
      <trkpt lat="45.75837" lon="4.33121">
        <ele>479</ele>
        <time>2017-04-13T07:10:10.1Z</time>
      </trkpt>
      <trkpt lat="45.75833" lon="4.3312">
        <ele>478</ele>
        <time>2017-04-13T07:10:13.1Z</time>
      </trkpt>
      <trkpt lat="45.75831" lon="4.3312">
        <ele>478</ele>
        <time>2017-04-13T07:10:15.1Z</time>
      </trkpt>
      <trkpt lat="45.75827" lon="4.33119">
        <ele>477</ele>
        <time>2017-04-13T07:10:18.1Z</time>
      </trkpt>
      <trkpt lat="45.75824" lon="4.33119">
        <ele>477</ele>
        <time>2017-04-13T07:10:20.1Z</time>
      </trkpt>
      <trkpt lat="45.75821" lon="4.33118">
        <ele>476</ele>
        <time>2017-04-13T07:10:23.1Z</time>
      </trkpt>
      <trkpt lat="45.75817" lon="4.33117">
        <ele>476</ele>
        <time>2017-04-13T07:10:26.1Z</time>
      </trkpt>
      <trkpt lat="45.75814" lon="4.33116">
        <ele>476</ele>
        <time>2017-04-13T07:10:28.1Z</time>
      </trkpt>
      <trkpt lat="45.75811" lon="4.33116">
        <ele>475</ele>
        <time>2017-04-13T07:10:31.1Z</time>
      </trkpt>
      <trkpt lat="45.75807" lon="4.33116">
        <ele>475</ele>
        <time>2017-04-13T07:10:34.1Z</time>
      </trkpt>
      <trkpt lat="45.75805" lon="4.33115">
        <ele>475</ele>
        <time>2017-04-13T07:10:36.1Z</time>
      </trkpt>
      <trkpt lat="45.75801" lon="4.33115">
        <ele>474</ele>
        <time>2017-04-13T07:10:39.1Z</time>
      </trkpt>
      <trkpt lat="45.75798" lon="4.33115">
        <ele>474</ele>
        <time>2017-04-13T07:10:41.1Z</time>
      </trkpt>
      <trkpt lat="45.75794" lon="4.33114">
        <ele>473</ele>
        <time>2017-04-13T07:10:44.1Z</time>
      </trkpt>
      <trkpt lat="45.75792" lon="4.33114">
        <ele>473</ele>
        <time>2017-04-13T07:10:46.1Z</time>
      </trkpt>
      <trkpt lat="45.75788" lon="4.33113">
        <ele>472</ele>
        <time>2017-04-13T07:10:49.1Z</time>
      </trkpt>
      <trkpt lat="45.75784" lon="4.33112">
        <ele>472</ele>
        <time>2017-04-13T07:10:52.1Z</time>
      </trkpt>
      <trkpt lat="45.75781" lon="4.33112">
        <ele>472</ele>
        <time>2017-04-13T07:10:54.1Z</time>
      </trkpt>
      <trkpt lat="45.75777" lon="4.33111">
        <ele>471</ele>
        <time>2017-04-13T07:10:57.1Z</time>
      </trkpt>
      <trkpt lat="45.75774" lon="4.3311">
        <ele>471</ele>
        <time>2017-04-13T07:10:59.1Z</time>
      </trkpt>
      <trkpt lat="45.75772" lon="4.3311">
        <ele>470</ele>
        <time>2017-04-13T07:11:01.1Z</time>
      </trkpt>
      <trkpt lat="45.75769" lon="4.33109">
        <ele>470</ele>
        <time>2017-04-13T07:11:03.1Z</time>
      </trkpt>
      <trkpt lat="45.75767" lon="4.33109">
        <ele>470</ele>
        <time>2017-04-13T07:11:05.1Z</time>
      </trkpt>
      <trkpt lat="45.75764" lon="4.33108">
        <ele>470</ele>
        <time>2017-04-13T07:11:07.1Z</time>
      </trkpt>
      <trkpt lat="45.75761" lon="4.33108">
        <ele>469</ele>
        <time>2017-04-13T07:11:10.1Z</time>
      </trkpt>
      <trkpt lat="45.75759" lon="4.33107">
        <ele>469</ele>
        <time>2017-04-13T07:11:12.1Z</time>
      </trkpt>
      <trkpt lat="45.75755" lon="4.33106">
        <ele>468</ele>
        <time>2017-04-13T07:11:15.1Z</time>
      </trkpt>
      <trkpt lat="45.75751" lon="4.33105">
        <ele>468</ele>
        <time>2017-04-13T07:11:18.1Z</time>
      </trkpt>
      <trkpt lat="45.75749" lon="4.33104">
        <ele>467</ele>
        <time>2017-04-13T07:11:20.1Z</time>
      </trkpt>
      <trkpt lat="45.75745" lon="4.33103">
        <ele>467</ele>
        <time>2017-04-13T07:11:23.1Z</time>
      </trkpt>
      <trkpt lat="45.75741" lon="4.33102">
        <ele>466</ele>
        <time>2017-04-13T07:11:26.1Z</time>
      </trkpt>
      <trkpt lat="45.75739" lon="4.33101">
        <ele>466</ele>
        <time>2017-04-13T07:11:28.1Z</time>
      </trkpt>
      <trkpt lat="45.75734" lon="4.33098">
        <ele>465</ele>
        <time>2017-04-13T07:11:31.1Z</time>
      </trkpt>
      <trkpt lat="45.75732" lon="4.33097">
        <ele>465</ele>
        <time>2017-04-13T07:11:33.1Z</time>
      </trkpt>
      <trkpt lat="45.75728" lon="4.33094">
        <ele>464</ele>
        <time>2017-04-13T07:11:36.1Z</time>
      </trkpt>
      <trkpt lat="45.75724" lon="4.33091">
        <ele>464</ele>
        <time>2017-04-13T07:11:39.1Z</time>
      </trkpt>
      <trkpt lat="45.75722" lon="4.33089">
        <ele>464</ele>
        <time>2017-04-13T07:11:41.1Z</time>
      </trkpt>
      <trkpt lat="45.75719" lon="4.33086">
        <ele>464</ele>
        <time>2017-04-13T07:11:44.1Z</time>
      </trkpt>
      <trkpt lat="45.75716" lon="4.33084">
        <ele>464</ele>
        <time>2017-04-13T07:11:46.1Z</time>
      </trkpt>
      <trkpt lat="45.75713" lon="4.3308">
        <ele>464</ele>
        <time>2017-04-13T07:11:49.1Z</time>
      </trkpt>
      <trkpt lat="45.75711" lon="4.33077">
        <ele>464</ele>
        <time>2017-04-13T07:11:51.1Z</time>
      </trkpt>
      <trkpt lat="45.75708" lon="4.33073">
        <ele>463</ele>
        <time>2017-04-13T07:11:54.1Z</time>
      </trkpt>
      <trkpt lat="45.75705" lon="4.33069">
        <ele>463</ele>
        <time>2017-04-13T07:11:57.1Z</time>
      </trkpt>
      <trkpt lat="45.75703" lon="4.33065">
        <ele>463</ele>
        <time>2017-04-13T07:11:59.1Z</time>
      </trkpt>
      <trkpt lat="45.75702" lon="4.3306">
        <ele>462</ele>
        <time>2017-04-13T07:12:02.1Z</time>
      </trkpt>
      <trkpt lat="45.75701" lon="4.33056">
        <ele>462</ele>
        <time>2017-04-13T07:12:04.1Z</time>
      </trkpt>
      <trkpt lat="45.75701" lon="4.3305">
        <ele>462</ele>
        <time>2017-04-13T07:12:07.1Z</time>
      </trkpt>
      <trkpt lat="45.757" lon="4.33045">
        <ele>462</ele>
        <time>2017-04-13T07:12:10.1Z</time>
      </trkpt>
      <trkpt lat="45.757" lon="4.33041">
        <ele>462</ele>
        <time>2017-04-13T07:12:12.1Z</time>
      </trkpt>
      <trkpt lat="45.757" lon="4.33035">
        <ele>462</ele>
        <time>2017-04-13T07:12:15.1Z</time>
      </trkpt>
      <trkpt lat="45.75701" lon="4.3303">
        <ele>461</ele>
        <time>2017-04-13T07:12:18.1Z</time>
      </trkpt>
      <trkpt lat="45.75701" lon="4.33026">
        <ele>461</ele>
        <time>2017-04-13T07:12:20.1Z</time>
      </trkpt>
      <trkpt lat="45.75701" lon="4.3302">
        <ele>461</ele>
        <time>2017-04-13T07:12:23.1Z</time>
      </trkpt>
      <trkpt lat="45.75702" lon="4.33014">
        <ele>461</ele>
        <time>2017-04-13T07:12:26.1Z</time>
      </trkpt>
      <trkpt lat="45.75702" lon="4.33011">
        <ele>461</ele>
        <time>2017-04-13T07:12:28.1Z</time>
      </trkpt>
      <trkpt lat="45.75702" lon="4.33006">
        <ele>461</ele>
        <time>2017-04-13T07:12:31.1Z</time>
      </trkpt>
      <trkpt lat="45.75702" lon="4.33002">
        <ele>460</ele>
        <time>2017-04-13T07:12:33.1Z</time>
      </trkpt>
      <trkpt lat="45.75702" lon="4.32998">
        <ele>460</ele>
        <time>2017-04-13T07:12:35.1Z</time>
      </trkpt>
      <trkpt lat="45.75702" lon="4.32993">
        <ele>460</ele>
        <time>2017-04-13T07:12:38.1Z</time>
      </trkpt>
      <trkpt lat="45.75702" lon="4.32987">
        <ele>460</ele>
        <time>2017-04-13T07:12:41.1Z</time>
      </trkpt>
      <trkpt lat="45.75701" lon="4.32982">
        <ele>459</ele>
        <time>2017-04-13T07:12:44.1Z</time>
      </trkpt>
      <trkpt lat="45.75701" lon="4.32978">
        <ele>459</ele>
        <time>2017-04-13T07:12:46.1Z</time>
      </trkpt>
      <trkpt lat="45.75701" lon="4.32971">
        <ele>458</ele>
        <time>2017-04-13T07:12:49.1Z</time>
      </trkpt>
      <trkpt lat="45.75701" lon="4.32965">
        <ele>458</ele>
        <time>2017-04-13T07:12:52.1Z</time>
      </trkpt>
      <trkpt lat="45.75701" lon="4.32961">
        <ele>458</ele>
        <time>2017-04-13T07:12:54.1Z</time>
      </trkpt>
      <trkpt lat="45.75701" lon="4.32958">
        <ele>458</ele>
        <time>2017-04-13T07:12:56.1Z</time>
      </trkpt>
      <trkpt lat="45.757" lon="4.32954">
        <ele>457</ele>
        <time>2017-04-13T07:12:58.1Z</time>
      </trkpt>
      <trkpt lat="45.757" lon="4.3295">
        <ele>457</ele>
        <time>2017-04-13T07:13:01.1Z</time>
      </trkpt>
      <trkpt lat="45.75699" lon="4.32947">
        <ele>456</ele>
        <time>2017-04-13T07:13:03.1Z</time>
      </trkpt>
      <trkpt lat="45.75697" lon="4.32942">
        <ele>456</ele>
        <time>2017-04-13T07:13:06.1Z</time>
      </trkpt>
      <trkpt lat="45.75697" lon="4.32938">
        <ele>456</ele>
        <time>2017-04-13T07:13:09.1Z</time>
      </trkpt>
      <trkpt lat="45.75696" lon="4.32935">
        <ele>455</ele>
        <time>2017-04-13T07:13:11.1Z</time>
      </trkpt>
      <trkpt lat="45.75694" lon="4.3293">
        <ele>455</ele>
        <time>2017-04-13T07:13:14.1Z</time>
      </trkpt>
      <trkpt lat="45.75692" lon="4.32926">
        <ele>454</ele>
        <time>2017-04-13T07:13:17.1Z</time>
      </trkpt>
      <trkpt lat="45.75689" lon="4.32922">
        <ele>453</ele>
        <time>2017-04-13T07:13:20.1Z</time>
      </trkpt>
      <trkpt lat="45.75687" lon="4.3292">
        <ele>453</ele>
        <time>2017-04-13T07:13:22.1Z</time>
      </trkpt>
      <trkpt lat="45.75684" lon="4.32917">
        <ele>452</ele>
        <time>2017-04-13T07:13:25.1Z</time>
      </trkpt>
      <trkpt lat="45.75681" lon="4.32914">
        <ele>452</ele>
        <time>2017-04-13T07:13:28.1Z</time>
      </trkpt>
      <trkpt lat="45.75679" lon="4.32913">
        <ele>452</ele>
        <time>2017-04-13T07:13:30.1Z</time>
      </trkpt>
      <trkpt lat="45.75676" lon="4.32911">
        <ele>451</ele>
        <time>2017-04-13T07:13:33.1Z</time>
      </trkpt>
      <trkpt lat="45.75674" lon="4.32909">
        <ele>451</ele>
        <time>2017-04-13T07:13:35.1Z</time>
      </trkpt>
      <trkpt lat="45.75671" lon="4.32905">
        <ele>450</ele>
        <time>2017-04-13T07:13:38.1Z</time>
      </trkpt>
      <trkpt lat="45.7567" lon="4.32903">
        <ele>450</ele>
        <time>2017-04-13T07:13:40.1Z</time>
      </trkpt>
      <trkpt lat="45.75668" lon="4.329">
        <ele>450</ele>
        <time>2017-04-13T07:13:42.1Z</time>
      </trkpt>
      <trkpt lat="45.75666" lon="4.32897">
        <ele>449</ele>
        <time>2017-04-13T07:13:44.1Z</time>
      </trkpt>
      <trkpt lat="45.75664" lon="4.32893">
        <ele>449</ele>
        <time>2017-04-13T07:13:46.1Z</time>
      </trkpt>
      <trkpt lat="45.75661" lon="4.32889">
        <ele>449</ele>
        <time>2017-04-13T07:13:49.1Z</time>
      </trkpt>
      <trkpt lat="45.75658" lon="4.32886">
        <ele>448</ele>
        <time>2017-04-13T07:13:52.1Z</time>
      </trkpt>
      <trkpt lat="45.75654" lon="4.32885">
        <ele>448</ele>
        <time>2017-04-13T07:13:55.1Z</time>
      </trkpt>
      <trkpt lat="45.7565" lon="4.32884">
        <ele>448</ele>
        <time>2017-04-13T07:13:58.1Z</time>
      </trkpt>
      <trkpt lat="45.75648" lon="4.32884">
        <ele>448</ele>
        <time>2017-04-13T07:14:00.1Z</time>
      </trkpt>
      <trkpt lat="45.75645" lon="4.32883">
        <ele>448</ele>
        <time>2017-04-13T07:14:03.1Z</time>
      </trkpt>
      <trkpt lat="45.75642" lon="4.32883">
        <ele>448</ele>
        <time>2017-04-13T07:14:06.1Z</time>
      </trkpt>
      <trkpt lat="45.75639" lon="4.32883">
        <ele>447</ele>
        <time>2017-04-13T07:14:09.1Z</time>
      </trkpt>
      <trkpt lat="45.75636" lon="4.32883">
        <ele>447</ele>
        <time>2017-04-13T07:14:12.1Z</time>
      </trkpt>
      <trkpt lat="45.75632" lon="4.32884">
        <ele>447</ele>
        <time>2017-04-13T07:14:15.1Z</time>
      </trkpt>
      <trkpt lat="45.75629" lon="4.32885">
        <ele>447</ele>
        <time>2017-04-13T07:14:18.1Z</time>
      </trkpt>
      <trkpt lat="45.75625" lon="4.32887">
        <ele>447</ele>
        <time>2017-04-13T07:14:21.1Z</time>
      </trkpt>
      <trkpt lat="45.75622" lon="4.32888">
        <ele>446</ele>
        <time>2017-04-13T07:14:24.1Z</time>
      </trkpt>
      <trkpt lat="45.7562" lon="4.32889">
        <ele>446</ele>
        <time>2017-04-13T07:14:26.1Z</time>
      </trkpt>
      <trkpt lat="45.75618" lon="4.3289">
        <ele>446</ele>
        <time>2017-04-13T07:14:28.1Z</time>
      </trkpt>
      <trkpt lat="45.75616" lon="4.32892">
        <ele>446</ele>
        <time>2017-04-13T07:14:30.1Z</time>
      </trkpt>
      <trkpt lat="45.75613" lon="4.32895">
        <ele>446</ele>
        <time>2017-04-13T07:14:33.1Z</time>
      </trkpt>
      <trkpt lat="45.7561" lon="4.32899">
        <ele>446</ele>
        <time>2017-04-13T07:14:36.1Z</time>
      </trkpt>
      <trkpt lat="45.75608" lon="4.32903">
        <ele>446</ele>
        <time>2017-04-13T07:14:39.1Z</time>
      </trkpt>
      <trkpt lat="45.75606" lon="4.32907">
        <ele>446</ele>
        <time>2017-04-13T07:14:42.1Z</time>
      </trkpt>
      <trkpt lat="45.75604" lon="4.32912">
        <ele>445</ele>
        <time>2017-04-13T07:14:45.1Z</time>
      </trkpt>
      <trkpt lat="45.75602" lon="4.32917">
        <ele>445</ele>
        <time>2017-04-13T07:14:48.1Z</time>
      </trkpt>
      <trkpt lat="45.756" lon="4.32923">
        <ele>445</ele>
        <time>2017-04-13T07:14:51.1Z</time>
      </trkpt>
      <trkpt lat="45.75598" lon="4.32928">
        <ele>445</ele>
        <time>2017-04-13T07:14:54.1Z</time>
      </trkpt>
      <trkpt lat="45.75596" lon="4.32933">
        <ele>445</ele>
        <time>2017-04-13T07:14:57.1Z</time>
      </trkpt>
      <trkpt lat="45.75594" lon="4.32938">
        <ele>445</ele>
        <time>2017-04-13T07:15:00.1Z</time>
      </trkpt>
      <trkpt lat="45.75592" lon="4.32943">
        <ele>444</ele>
        <time>2017-04-13T07:15:03.1Z</time>
      </trkpt>
      <trkpt lat="45.75591" lon="4.32948">
        <ele>444</ele>
        <time>2017-04-13T07:15:06.1Z</time>
      </trkpt>
      <trkpt lat="45.7559" lon="4.32953">
        <ele>444</ele>
        <time>2017-04-13T07:15:09.1Z</time>
      </trkpt>
      <trkpt lat="45.75589" lon="4.32957">
        <ele>444</ele>
        <time>2017-04-13T07:15:11.1Z</time>
      </trkpt>
      <trkpt lat="45.75588" lon="4.3296">
        <ele>444</ele>
        <time>2017-04-13T07:15:13.1Z</time>
      </trkpt>
      <trkpt lat="45.75587" lon="4.32964">
        <ele>444</ele>
        <time>2017-04-13T07:15:15.1Z</time>
      </trkpt>
      <trkpt lat="45.75586" lon="4.32969">
        <ele>444</ele>
        <time>2017-04-13T07:15:18.1Z</time>
      </trkpt>
      <trkpt lat="45.75585" lon="4.32974">
        <ele>443</ele>
        <time>2017-04-13T07:15:21.1Z</time>
      </trkpt>
      <trkpt lat="45.75584" lon="4.32979">
        <ele>443</ele>
        <time>2017-04-13T07:15:24.1Z</time>
      </trkpt>
      <trkpt lat="45.75584" lon="4.32983">
        <ele>443</ele>
        <time>2017-04-13T07:15:26.1Z</time>
      </trkpt>
      <trkpt lat="45.75583" lon="4.32989">
        <ele>442</ele>
        <time>2017-04-13T07:15:29.1Z</time>
      </trkpt>
      <trkpt lat="45.75583" lon="4.32994">
        <ele>442</ele>
        <time>2017-04-13T07:15:32.1Z</time>
      </trkpt>
      <trkpt lat="45.75582" lon="4.32998">
        <ele>442</ele>
        <time>2017-04-13T07:15:35.1Z</time>
      </trkpt>
      <trkpt lat="45.75581" lon="4.33001">
        <ele>442</ele>
        <time>2017-04-13T07:15:37.1Z</time>
      </trkpt>
      <trkpt lat="45.75578" lon="4.33003">
        <ele>441</ele>
        <time>2017-04-13T07:15:40.1Z</time>
      </trkpt>
      <trkpt lat="45.75574" lon="4.33002">
        <ele>441</ele>
        <time>2017-04-13T07:15:43.1Z</time>
      </trkpt>
      <trkpt lat="45.75573" lon="4.33">
        <ele>440</ele>
        <time>2017-04-13T07:15:45.1Z</time>
      </trkpt>
      <trkpt lat="45.7557" lon="4.32998">
        <ele>440</ele>
        <time>2017-04-13T07:15:47.1Z</time>
      </trkpt>
      <trkpt lat="45.75568" lon="4.32997">
        <ele>439</ele>
        <time>2017-04-13T07:15:49.1Z</time>
      </trkpt>
      <trkpt lat="45.75566" lon="4.32996">
        <ele>439</ele>
        <time>2017-04-13T07:15:51.1Z</time>
      </trkpt>
      <trkpt lat="45.75564" lon="4.32995">
        <ele>438</ele>
        <time>2017-04-13T07:15:53.1Z</time>
      </trkpt>
      <trkpt lat="45.7556" lon="4.32993">
        <ele>438</ele>
        <time>2017-04-13T07:15:56.1Z</time>
      </trkpt>
      <trkpt lat="45.75557" lon="4.32991">
        <ele>438</ele>
        <time>2017-04-13T07:15:59.1Z</time>
      </trkpt>
      <trkpt lat="45.75554" lon="4.3299">
        <ele>437</ele>
        <time>2017-04-13T07:16:02.1Z</time>
      </trkpt>
      <trkpt lat="45.75553" lon="4.32989">
        <ele>437</ele>
        <time>2017-04-13T07:16:04.1Z</time>
      </trkpt>
      <trkpt lat="45.7555" lon="4.32989">
        <ele>436</ele>
        <time>2017-04-13T07:16:06.1Z</time>
      </trkpt>
      <trkpt lat="45.75547" lon="4.32987">
        <ele>435</ele>
        <time>2017-04-13T07:16:09.1Z</time>
      </trkpt>
      <trkpt lat="45.75544" lon="4.32985">
        <ele>435</ele>
        <time>2017-04-13T07:16:12.1Z</time>
      </trkpt>
      <trkpt lat="45.75541" lon="4.32984">
        <ele>434</ele>
        <time>2017-04-13T07:16:15.1Z</time>
      </trkpt>
      <trkpt lat="45.75537" lon="4.32982">
        <ele>433</ele>
        <time>2017-04-13T07:16:18.1Z</time>
      </trkpt>
      <trkpt lat="45.75533" lon="4.3298">
        <ele>433</ele>
        <time>2017-04-13T07:16:21.1Z</time>
      </trkpt>
      <trkpt lat="45.7553" lon="4.32979">
        <ele>432</ele>
        <time>2017-04-13T07:16:24.1Z</time>
      </trkpt>
      <trkpt lat="45.75528" lon="4.32978">
        <ele>432</ele>
        <time>2017-04-13T07:16:26.1Z</time>
      </trkpt>
      <trkpt lat="45.75526" lon="4.32977">
        <ele>431</ele>
        <time>2017-04-13T07:16:28.1Z</time>
      </trkpt>
      <trkpt lat="45.75524" lon="4.32976">
        <ele>431</ele>
        <time>2017-04-13T07:16:30.1Z</time>
      </trkpt>
      <trkpt lat="45.75521" lon="4.32974">
        <ele>431</ele>
        <time>2017-04-13T07:16:33.1Z</time>
      </trkpt>
      <trkpt lat="45.75518" lon="4.32972">
        <ele>430</ele>
        <time>2017-04-13T07:16:36.1Z</time>
      </trkpt>
      <trkpt lat="45.75516" lon="4.32971">
        <ele>430</ele>
        <time>2017-04-13T07:16:39.1Z</time>
      </trkpt>
      <trkpt lat="45.75513" lon="4.32969">
        <ele>429</ele>
        <time>2017-04-13T07:16:42.1Z</time>
      </trkpt>
      <trkpt lat="45.75511" lon="4.32967">
        <ele>429</ele>
        <time>2017-04-13T07:16:44.1Z</time>
      </trkpt>
      <trkpt lat="45.75508" lon="4.32964">
        <ele>428</ele>
        <time>2017-04-13T07:16:47.1Z</time>
      </trkpt>
      <trkpt lat="45.75505" lon="4.32964">
        <ele>428</ele>
        <time>2017-04-13T07:16:50.1Z</time>
      </trkpt>
      <trkpt lat="45.75503" lon="4.32963">
        <ele>427</ele>
        <time>2017-04-13T07:16:53.1Z</time>
      </trkpt>
      <trkpt lat="45.75501" lon="4.32962">
        <ele>426</ele>
        <time>2017-04-13T07:16:55.1Z</time>
      </trkpt>
      <trkpt lat="45.75499" lon="4.32959">
        <ele>426</ele>
        <time>2017-04-13T07:16:58.1Z</time>
      </trkpt>
      <trkpt lat="45.75497" lon="4.32957">
        <ele>426</ele>
        <time>2017-04-13T07:17:01.1Z</time>
      </trkpt>
      <trkpt lat="45.75496" lon="4.32956">
        <ele>425</ele>
        <time>2017-04-13T07:17:04.1Z</time>
      </trkpt>
      <trkpt lat="45.75494" lon="4.32953">
        <ele>424</ele>
        <time>2017-04-13T07:17:07.1Z</time>
      </trkpt>
      <trkpt lat="45.75492" lon="4.32951">
        <ele>424</ele>
        <time>2017-04-13T07:17:09.1Z</time>
      </trkpt>
      <trkpt lat="45.7549" lon="4.3295">
        <ele>423</ele>
        <time>2017-04-13T07:17:11.1Z</time>
      </trkpt>
      <trkpt lat="45.75487" lon="4.32948">
        <ele>423</ele>
        <time>2017-04-13T07:17:14.1Z</time>
      </trkpt>
      <trkpt lat="45.75485" lon="4.32946">
        <ele>423</ele>
        <time>2017-04-13T07:17:16.1Z</time>
      </trkpt>
      <trkpt lat="45.75482" lon="4.32944">
        <ele>422</ele>
        <time>2017-04-13T07:17:19.1Z</time>
      </trkpt>
      <trkpt lat="45.7548" lon="4.3294">
        <ele>422</ele>
        <time>2017-04-13T07:17:22.1Z</time>
      </trkpt>
      <trkpt lat="45.75478" lon="4.32937">
        <ele>421</ele>
        <time>2017-04-13T07:17:24.1Z</time>
      </trkpt>
      <trkpt lat="45.75474" lon="4.32933">
        <ele>421</ele>
        <time>2017-04-13T07:17:27.1Z</time>
      </trkpt>
      <trkpt lat="45.75471" lon="4.32929">
        <ele>421</ele>
        <time>2017-04-13T07:17:30.1Z</time>
      </trkpt>
      <trkpt lat="45.75468" lon="4.32926">
        <ele>420</ele>
        <time>2017-04-13T07:17:33.1Z</time>
      </trkpt>
      <trkpt lat="45.75464" lon="4.32923">
        <ele>420</ele>
        <time>2017-04-13T07:17:36.1Z</time>
      </trkpt>
      <trkpt lat="45.75461" lon="4.32918">
        <ele>419</ele>
        <time>2017-04-13T07:17:39.1Z</time>
      </trkpt>
      <trkpt lat="45.75458" lon="4.32915">
        <ele>419</ele>
        <time>2017-04-13T07:17:41.1Z</time>
      </trkpt>
      <trkpt lat="45.75456" lon="4.32912">
        <ele>419</ele>
        <time>2017-04-13T07:17:43.1Z</time>
      </trkpt>
      <trkpt lat="45.75453" lon="4.3291">
        <ele>418</ele>
        <time>2017-04-13T07:17:45.1Z</time>
      </trkpt>
      <trkpt lat="45.75451" lon="4.32907">
        <ele>418</ele>
        <time>2017-04-13T07:17:47.1Z</time>
      </trkpt>
      <trkpt lat="45.75447" lon="4.32903">
        <ele>418</ele>
        <time>2017-04-13T07:17:50.1Z</time>
      </trkpt>
      <trkpt lat="45.75446" lon="4.329">
        <ele>418</ele>
        <time>2017-04-13T07:17:52.1Z</time>
      </trkpt>
      <trkpt lat="45.75443" lon="4.32897">
        <ele>418</ele>
        <time>2017-04-13T07:17:55.1Z</time>
      </trkpt>
      <trkpt lat="45.75439" lon="4.32895">
        <ele>417</ele>
        <time>2017-04-13T07:17:58.1Z</time>
      </trkpt>
      <trkpt lat="45.75438" lon="4.32893">
        <ele>417</ele>
        <time>2017-04-13T07:18:00.1Z</time>
      </trkpt>
      <trkpt lat="45.75434" lon="4.3289">
        <ele>417</ele>
        <time>2017-04-13T07:18:03.1Z</time>
      </trkpt>
      <trkpt lat="45.75431" lon="4.3289">
        <ele>416</ele>
        <time>2017-04-13T07:18:06.1Z</time>
      </trkpt>
      <trkpt lat="45.75429" lon="4.3289">
        <ele>416</ele>
        <time>2017-04-13T07:18:08.1Z</time>
      </trkpt>
      <trkpt lat="45.75425" lon="4.32889">
        <ele>416</ele>
        <time>2017-04-13T07:18:11.1Z</time>
      </trkpt>
      <trkpt lat="45.75422" lon="4.32888">
        <ele>415</ele>
        <time>2017-04-13T07:18:14.1Z</time>
      </trkpt>
      <trkpt lat="45.7542" lon="4.32885">
        <ele>415</ele>
        <time>2017-04-13T07:18:16.1Z</time>
      </trkpt>
      <trkpt lat="45.75419" lon="4.32882">
        <ele>414</ele>
        <time>2017-04-13T07:18:18.1Z</time>
      </trkpt>
      <trkpt lat="45.75418" lon="4.32878">
        <ele>414</ele>
        <time>2017-04-13T07:18:20.1Z</time>
      </trkpt>
      <trkpt lat="45.75418" lon="4.32874">
        <ele>414</ele>
        <time>2017-04-13T07:18:22.1Z</time>
      </trkpt>
      <trkpt lat="45.75418" lon="4.32868">
        <ele>415</ele>
        <time>2017-04-13T07:18:25.1Z</time>
      </trkpt>
      <trkpt lat="45.75418" lon="4.32863">
        <ele>415</ele>
        <time>2017-04-13T07:18:28.1Z</time>
      </trkpt>
      <trkpt lat="45.75418" lon="4.32857">
        <ele>415</ele>
        <time>2017-04-13T07:18:31.1Z</time>
      </trkpt>
      <trkpt lat="45.75418" lon="4.32851">
        <ele>416</ele>
        <time>2017-04-13T07:18:34.1Z</time>
      </trkpt>
      <trkpt lat="45.75418" lon="4.32845">
        <ele>416</ele>
        <time>2017-04-13T07:18:37.1Z</time>
      </trkpt>
      <trkpt lat="45.75417" lon="4.32842">
        <ele>416</ele>
        <time>2017-04-13T07:18:39.1Z</time>
      </trkpt>
      <trkpt lat="45.75417" lon="4.32836">
        <ele>416</ele>
        <time>2017-04-13T07:18:42.1Z</time>
      </trkpt>
      <trkpt lat="45.75416" lon="4.3283">
        <ele>416</ele>
        <time>2017-04-13T07:18:45.1Z</time>
      </trkpt>
      <trkpt lat="45.75415" lon="4.32825">
        <ele>416</ele>
        <time>2017-04-13T07:18:48.1Z</time>
      </trkpt>
      <trkpt lat="45.75415" lon="4.32821">
        <ele>416</ele>
        <time>2017-04-13T07:18:50.1Z</time>
      </trkpt>
      <trkpt lat="45.75415" lon="4.32815">
        <ele>417</ele>
        <time>2017-04-13T07:18:53.1Z</time>
      </trkpt>
      <trkpt lat="45.75414" lon="4.32811">
        <ele>417</ele>
        <time>2017-04-13T07:18:55.1Z</time>
      </trkpt>
      <trkpt lat="45.75413" lon="4.32807">
        <ele>417</ele>
        <time>2017-04-13T07:18:57.1Z</time>
      </trkpt>
      <trkpt lat="45.75412" lon="4.32802">
        <ele>417</ele>
        <time>2017-04-13T07:19:00.1Z</time>
      </trkpt>
      <trkpt lat="45.75411" lon="4.32796">
        <ele>417</ele>
        <time>2017-04-13T07:19:03.1Z</time>
      </trkpt>
      <trkpt lat="45.7541" lon="4.32793">
        <ele>417</ele>
        <time>2017-04-13T07:19:05.1Z</time>
      </trkpt>
      <trkpt lat="45.75409" lon="4.32789">
        <ele>417</ele>
        <time>2017-04-13T07:19:08.1Z</time>
      </trkpt>
      <trkpt lat="45.75409" lon="4.32788">
        <ele>417</ele>
        <time>2017-04-13T07:19:11.1Z</time>
      </trkpt>
      <trkpt lat="45.75407" lon="4.32786">
        <ele>417</ele>
        <time>2017-04-13T07:19:14.1Z</time>
      </trkpt>
      <trkpt lat="45.75405" lon="4.32784">
        <ele>417</ele>
        <time>2017-04-13T07:19:16.1Z</time>
      </trkpt>
      <trkpt lat="45.75403" lon="4.32781">
        <ele>417</ele>
        <time>2017-04-13T07:19:19.1Z</time>
      </trkpt>
      <trkpt lat="45.75402" lon="4.32779">
        <ele>416</ele>
        <time>2017-04-13T07:19:22.1Z</time>
      </trkpt>
      <trkpt lat="45.75401" lon="4.32777">
        <ele>416</ele>
        <time>2017-04-13T07:19:25.1Z</time>
      </trkpt>
      <trkpt lat="45.75399" lon="4.32774">
        <ele>415</ele>
        <time>2017-04-13T07:19:28.1Z</time>
      </trkpt>
      <trkpt lat="45.75398" lon="4.32771">
        <ele>415</ele>
        <time>2017-04-13T07:19:31.1Z</time>
      </trkpt>
      <trkpt lat="45.75397" lon="4.32769">
        <ele>415</ele>
        <time>2017-04-13T07:19:33.1Z</time>
      </trkpt>
      <trkpt lat="45.75396" lon="4.32767">
        <ele>414</ele>
        <time>2017-04-13T07:19:35.1Z</time>
      </trkpt>
      <trkpt lat="45.75394" lon="4.32764">
        <ele>414</ele>
        <time>2017-04-13T07:19:38.1Z</time>
      </trkpt>
      <trkpt lat="45.75393" lon="4.32762">
        <ele>414</ele>
        <time>2017-04-13T07:19:40.1Z</time>
      </trkpt>
      <trkpt lat="45.75393" lon="4.3276">
        <ele>413</ele>
        <time>2017-04-13T07:19:42.1Z</time>
      </trkpt>
      <trkpt lat="45.75392" lon="4.32757">
        <ele>413</ele>
        <time>2017-04-13T07:19:45.1Z</time>
      </trkpt>
      <trkpt lat="45.75391" lon="4.32753">
        <ele>412</ele>
        <time>2017-04-13T07:19:48.1Z</time>
      </trkpt>
      <trkpt lat="45.7539" lon="4.32748">
        <ele>411</ele>
        <time>2017-04-13T07:19:51.1Z</time>
      </trkpt>
      <trkpt lat="45.75389" lon="4.32745">
        <ele>411</ele>
        <time>2017-04-13T07:19:53.1Z</time>
      </trkpt>
      <trkpt lat="45.75387" lon="4.32741">
        <ele>410</ele>
        <time>2017-04-13T07:19:56.1Z</time>
      </trkpt>
      <trkpt lat="45.75384" lon="4.32742">
        <ele>410</ele>
        <time>2017-04-13T07:19:58.1Z</time>
      </trkpt>
      <trkpt lat="45.75381" lon="4.32745">
        <ele>409</ele>
        <time>2017-04-13T07:20:01.1Z</time>
      </trkpt>
      <trkpt lat="45.7538" lon="4.32747">
        <ele>409</ele>
        <time>2017-04-13T07:20:03.1Z</time>
      </trkpt>
      <trkpt lat="45.7538" lon="4.3275">
        <ele>409</ele>
        <time>2017-04-13T07:20:05.1Z</time>
      </trkpt>
      <trkpt lat="45.75379" lon="4.32753">
        <ele>409</ele>
        <time>2017-04-13T07:20:07.1Z</time>
      </trkpt>
      <trkpt lat="45.75379" lon="4.32757">
        <ele>409</ele>
        <time>2017-04-13T07:20:10.1Z</time>
      </trkpt>
      <trkpt lat="45.75378" lon="4.3276">
        <ele>409</ele>
        <time>2017-04-13T07:20:12.1Z</time>
      </trkpt>
      <trkpt lat="45.75378" lon="4.32765">
        <ele>408</ele>
        <time>2017-04-13T07:20:15.1Z</time>
      </trkpt>
      <trkpt lat="45.75378" lon="4.3277">
        <ele>408</ele>
        <time>2017-04-13T07:20:18.1Z</time>
      </trkpt>
      <trkpt lat="45.75377" lon="4.32773">
        <ele>408</ele>
        <time>2017-04-13T07:20:21.1Z</time>
      </trkpt>
      <trkpt lat="45.75376" lon="4.32775">
        <ele>408</ele>
        <time>2017-04-13T07:20:24.1Z</time>
      </trkpt>
      <trkpt lat="45.75374" lon="4.32777">
        <ele>407</ele>
        <time>2017-04-13T07:20:27.1Z</time>
      </trkpt>
      <trkpt lat="45.75372" lon="4.3278">
        <ele>407</ele>
        <time>2017-04-13T07:20:30.1Z</time>
      </trkpt>
      <trkpt lat="45.7537" lon="4.32783">
        <ele>406</ele>
        <time>2017-04-13T07:20:33.1Z</time>
      </trkpt>
      <trkpt lat="45.75369" lon="4.32786">
        <ele>406</ele>
        <time>2017-04-13T07:20:35.1Z</time>
      </trkpt>
      <trkpt lat="45.75367" lon="4.3279">
        <ele>405</ele>
        <time>2017-04-13T07:20:38.1Z</time>
      </trkpt>
      <trkpt lat="45.75364" lon="4.32792">
        <ele>404</ele>
        <time>2017-04-13T07:20:40.1Z</time>
      </trkpt>
      <trkpt lat="45.7536" lon="4.32794">
        <ele>404</ele>
        <time>2017-04-13T07:20:43.1Z</time>
      </trkpt>
      <trkpt lat="45.75355" lon="4.32794">
        <ele>403</ele>
        <time>2017-04-13T07:20:46.1Z</time>
      </trkpt>
      <trkpt lat="45.75352" lon="4.32794">
        <ele>403</ele>
        <time>2017-04-13T07:20:48.1Z</time>
      </trkpt>
      <trkpt lat="45.75346" lon="4.32793">
        <ele>403</ele>
        <time>2017-04-13T07:20:51.1Z</time>
      </trkpt>
      <trkpt lat="45.75343" lon="4.32792">
        <ele>403</ele>
        <time>2017-04-13T07:20:53.1Z</time>
      </trkpt>
      <trkpt lat="45.7534" lon="4.32792">
        <ele>403</ele>
        <time>2017-04-13T07:20:55.1Z</time>
      </trkpt>
      <trkpt lat="45.75337" lon="4.32792">
        <ele>402</ele>
        <time>2017-04-13T07:20:57.1Z</time>
      </trkpt>
      <trkpt lat="45.75332" lon="4.32791">
        <ele>402</ele>
        <time>2017-04-13T07:21:00.1Z</time>
      </trkpt>
      <trkpt lat="45.75327" lon="4.32791">
        <ele>402</ele>
        <time>2017-04-13T07:21:03.1Z</time>
      </trkpt>
      <trkpt lat="45.75324" lon="4.32791">
        <ele>402</ele>
        <time>2017-04-13T07:21:05.1Z</time>
      </trkpt>
      <trkpt lat="45.75321" lon="4.3279">
        <ele>402</ele>
        <time>2017-04-13T07:21:07.1Z</time>
      </trkpt>
      <trkpt lat="45.75318" lon="4.3279">
        <ele>401</ele>
        <time>2017-04-13T07:21:09.1Z</time>
      </trkpt>
      <trkpt lat="45.75313" lon="4.32789">
        <ele>401</ele>
        <time>2017-04-13T07:21:12.1Z</time>
      </trkpt>
      <trkpt lat="45.7531" lon="4.32789">
        <ele>401</ele>
        <time>2017-04-13T07:21:14.1Z</time>
      </trkpt>
      <trkpt lat="45.75306" lon="4.32788">
        <ele>401</ele>
        <time>2017-04-13T07:21:16.1Z</time>
      </trkpt>
      <trkpt lat="45.75302" lon="4.32787">
        <ele>401</ele>
        <time>2017-04-13T07:21:19.1Z</time>
      </trkpt>
      <trkpt lat="45.75299" lon="4.32787">
        <ele>401</ele>
        <time>2017-04-13T07:21:21.1Z</time>
      </trkpt>
      <trkpt lat="45.75296" lon="4.32785">
        <ele>401</ele>
        <time>2017-04-13T07:21:23.1Z</time>
      </trkpt>
      <trkpt lat="45.75293" lon="4.32784">
        <ele>401</ele>
        <time>2017-04-13T07:21:26.1Z</time>
      </trkpt>
      <trkpt lat="45.7529" lon="4.32782">
        <ele>401</ele>
        <time>2017-04-13T07:21:28.1Z</time>
      </trkpt>
      <trkpt lat="45.75287" lon="4.32781">
        <ele>401</ele>
        <time>2017-04-13T07:21:30.1Z</time>
      </trkpt>
      <trkpt lat="45.75285" lon="4.32779">
        <ele>401</ele>
        <time>2017-04-13T07:21:32.1Z</time>
      </trkpt>
      <trkpt lat="45.75283" lon="4.32777">
        <ele>401</ele>
        <time>2017-04-13T07:21:34.1Z</time>
      </trkpt>
      <trkpt lat="45.7528" lon="4.32774">
        <ele>401</ele>
        <time>2017-04-13T07:21:36.1Z</time>
      </trkpt>
      <trkpt lat="45.75277" lon="4.32771">
        <ele>402</ele>
        <time>2017-04-13T07:21:38.1Z</time>
      </trkpt>
      <trkpt lat="45.75274" lon="4.32766">
        <ele>402</ele>
        <time>2017-04-13T07:21:41.1Z</time>
      </trkpt>
      <trkpt lat="45.75271" lon="4.32763">
        <ele>402</ele>
        <time>2017-04-13T07:21:43.1Z</time>
      </trkpt>
      <trkpt lat="45.75267" lon="4.32759">
        <ele>401</ele>
        <time>2017-04-13T07:21:46.1Z</time>
      </trkpt>
      <trkpt lat="45.75264" lon="4.32756">
        <ele>401</ele>
        <time>2017-04-13T07:21:48.1Z</time>
      </trkpt>
      <trkpt lat="45.75261" lon="4.32751">
        <ele>401</ele>
        <time>2017-04-13T07:21:51.1Z</time>
      </trkpt>
      <trkpt lat="45.75259" lon="4.32748">
        <ele>402</ele>
        <time>2017-04-13T07:21:53.1Z</time>
      </trkpt>
      <trkpt lat="45.75257" lon="4.32745">
        <ele>402</ele>
        <time>2017-04-13T07:21:55.1Z</time>
      </trkpt>
      <trkpt lat="45.75255" lon="4.32742">
        <ele>402</ele>
        <time>2017-04-13T07:21:57.1Z</time>
      </trkpt>
      <trkpt lat="45.75253" lon="4.32738">
        <ele>402</ele>
        <time>2017-04-13T07:21:59.1Z</time>
      </trkpt>
      <trkpt lat="45.75251" lon="4.32735">
        <ele>402</ele>
        <time>2017-04-13T07:22:01.1Z</time>
      </trkpt>
      <trkpt lat="45.75249" lon="4.32732">
        <ele>402</ele>
        <time>2017-04-13T07:22:03.1Z</time>
      </trkpt>
      <trkpt lat="45.75248" lon="4.32729">
        <ele>402</ele>
        <time>2017-04-13T07:22:05.1Z</time>
      </trkpt>
      <trkpt lat="45.75246" lon="4.32726">
        <ele>402</ele>
        <time>2017-04-13T07:22:07.1Z</time>
      </trkpt>
      <trkpt lat="45.75244" lon="4.3272">
        <ele>403</ele>
        <time>2017-04-13T07:22:10.1Z</time>
      </trkpt>
      <trkpt lat="45.75242" lon="4.32717">
        <ele>403</ele>
        <time>2017-04-13T07:22:12.1Z</time>
      </trkpt>
      <trkpt lat="45.7524" lon="4.32711">
        <ele>403</ele>
        <time>2017-04-13T07:22:15.1Z</time>
      </trkpt>
      <trkpt lat="45.75238" lon="4.32707">
        <ele>404</ele>
        <time>2017-04-13T07:22:17.1Z</time>
      </trkpt>
      <trkpt lat="45.75238" lon="4.32703">
        <ele>404</ele>
        <time>2017-04-13T07:22:19.1Z</time>
      </trkpt>
      <trkpt lat="45.75237" lon="4.32696">
        <ele>404</ele>
        <time>2017-04-13T07:22:22.1Z</time>
      </trkpt>
      <trkpt lat="45.75238" lon="4.32693">
        <ele>404</ele>
        <time>2017-04-13T07:22:24.1Z</time>
      </trkpt>
      <trkpt lat="45.75238" lon="4.32688">
        <ele>405</ele>
        <time>2017-04-13T07:22:27.1Z</time>
      </trkpt>
      <trkpt lat="45.7524" lon="4.32682">
        <ele>405</ele>
        <time>2017-04-13T07:22:30.1Z</time>
      </trkpt>
      <trkpt lat="45.75241" lon="4.32678">
        <ele>406</ele>
        <time>2017-04-13T07:22:32.1Z</time>
      </trkpt>
      <trkpt lat="45.75244" lon="4.32673">
        <ele>406</ele>
        <time>2017-04-13T07:22:35.1Z</time>
      </trkpt>
      <trkpt lat="45.75245" lon="4.32669">
        <ele>406</ele>
        <time>2017-04-13T07:22:37.1Z</time>
      </trkpt>
      <trkpt lat="45.75247" lon="4.32665">
        <ele>406</ele>
        <time>2017-04-13T07:22:39.1Z</time>
      </trkpt>
      <trkpt lat="45.7525" lon="4.3266">
        <ele>406</ele>
        <time>2017-04-13T07:22:42.1Z</time>
      </trkpt>
      <trkpt lat="45.75251" lon="4.32656">
        <ele>407</ele>
        <time>2017-04-13T07:22:44.1Z</time>
      </trkpt>
      <trkpt lat="45.75253" lon="4.32653">
        <ele>407</ele>
        <time>2017-04-13T07:22:46.1Z</time>
      </trkpt>
      <trkpt lat="45.75255" lon="4.32649">
        <ele>407</ele>
        <time>2017-04-13T07:22:48.1Z</time>
      </trkpt>
      <trkpt lat="45.75257" lon="4.32645">
        <ele>407</ele>
        <time>2017-04-13T07:22:50.1Z</time>
      </trkpt>
      <trkpt lat="45.75258" lon="4.32642">
        <ele>407</ele>
        <time>2017-04-13T07:22:52.1Z</time>
      </trkpt>
      <trkpt lat="45.75259" lon="4.32639">
        <ele>407</ele>
        <time>2017-04-13T07:22:54.1Z</time>
      </trkpt>
      <trkpt lat="45.75261" lon="4.32635">
        <ele>407</ele>
        <time>2017-04-13T07:22:56.1Z</time>
      </trkpt>
      <trkpt lat="45.75262" lon="4.32632">
        <ele>407</ele>
        <time>2017-04-13T07:22:58.1Z</time>
      </trkpt>
      <trkpt lat="45.75264" lon="4.32627">
        <ele>407</ele>
        <time>2017-04-13T07:23:01.1Z</time>
      </trkpt>
      <trkpt lat="45.75265" lon="4.32623">
        <ele>407</ele>
        <time>2017-04-13T07:23:03.1Z</time>
      </trkpt>
      <trkpt lat="45.75266" lon="4.32619">
        <ele>407</ele>
        <time>2017-04-13T07:23:05.1Z</time>
      </trkpt>
      <trkpt lat="45.75268" lon="4.32614">
        <ele>407</ele>
        <time>2017-04-13T07:23:08.1Z</time>
      </trkpt>
      <trkpt lat="45.75269" lon="4.3261">
        <ele>408</ele>
        <time>2017-04-13T07:23:10.1Z</time>
      </trkpt>
      <trkpt lat="45.7527" lon="4.32606">
        <ele>408</ele>
        <time>2017-04-13T07:23:12.1Z</time>
      </trkpt>
      <trkpt lat="45.75272" lon="4.32602">
        <ele>408</ele>
        <time>2017-04-13T07:23:14.1Z</time>
      </trkpt>
      <trkpt lat="45.75273" lon="4.32598">
        <ele>408</ele>
        <time>2017-04-13T07:23:16.1Z</time>
      </trkpt>
      <trkpt lat="45.75275" lon="4.32591">
        <ele>409</ele>
        <time>2017-04-13T07:23:19.1Z</time>
      </trkpt>
      <trkpt lat="45.75276" lon="4.32587">
        <ele>409</ele>
        <time>2017-04-13T07:23:21.1Z</time>
      </trkpt>
      <trkpt lat="45.75278" lon="4.32583">
        <ele>409</ele>
        <time>2017-04-13T07:23:23.1Z</time>
      </trkpt>
      <trkpt lat="45.75279" lon="4.32579">
        <ele>409</ele>
        <time>2017-04-13T07:23:25.1Z</time>
      </trkpt>
      <trkpt lat="45.75281" lon="4.32573">
        <ele>409</ele>
        <time>2017-04-13T07:23:28.1Z</time>
      </trkpt>
      <trkpt lat="45.75282" lon="4.32568">
        <ele>409</ele>
        <time>2017-04-13T07:23:30.1Z</time>
      </trkpt>
      <trkpt lat="45.75283" lon="4.32563">
        <ele>409</ele>
        <time>2017-04-13T07:23:32.1Z</time>
      </trkpt>
      <trkpt lat="45.75284" lon="4.32556">
        <ele>409</ele>
        <time>2017-04-13T07:23:35.1Z</time>
      </trkpt>
      <trkpt lat="45.75285" lon="4.32552">
        <ele>409</ele>
        <time>2017-04-13T07:23:37.1Z</time>
      </trkpt>
      <trkpt lat="45.75284" lon="4.32548">
        <ele>409</ele>
        <time>2017-04-13T07:23:39.1Z</time>
      </trkpt>
      <trkpt lat="45.75284" lon="4.32544">
        <ele>410</ele>
        <time>2017-04-13T07:23:41.1Z</time>
      </trkpt>
      <trkpt lat="45.75284" lon="4.32541">
        <ele>410</ele>
        <time>2017-04-13T07:23:43.1Z</time>
      </trkpt>
      <trkpt lat="45.75284" lon="4.32537">
        <ele>410</ele>
        <time>2017-04-13T07:23:45.1Z</time>
      </trkpt>
      <trkpt lat="45.75284" lon="4.32534">
        <ele>410</ele>
        <time>2017-04-13T07:23:47.1Z</time>
      </trkpt>
      <trkpt lat="45.75284" lon="4.3253">
        <ele>410</ele>
        <time>2017-04-13T07:23:49.1Z</time>
      </trkpt>
      <trkpt lat="45.75284" lon="4.32526">
        <ele>410</ele>
        <time>2017-04-13T07:23:51.1Z</time>
      </trkpt>
      <trkpt lat="45.75283" lon="4.32521">
        <ele>410</ele>
        <time>2017-04-13T07:23:53.1Z</time>
      </trkpt>
      <trkpt lat="45.75283" lon="4.32517">
        <ele>410</ele>
        <time>2017-04-13T07:23:55.1Z</time>
      </trkpt>
      <trkpt lat="45.75283" lon="4.32513">
        <ele>410</ele>
        <time>2017-04-13T07:23:57.1Z</time>
      </trkpt>
      <trkpt lat="45.75284" lon="4.32508">
        <ele>409</ele>
        <time>2017-04-13T07:24:00.1Z</time>
      </trkpt>
      <trkpt lat="45.75285" lon="4.32504">
        <ele>409</ele>
        <time>2017-04-13T07:24:02.1Z</time>
      </trkpt>
      <trkpt lat="45.75285" lon="4.325">
        <ele>408</ele>
        <time>2017-04-13T07:24:04.1Z</time>
      </trkpt>
      <trkpt lat="45.75285" lon="4.32496">
        <ele>408</ele>
        <time>2017-04-13T07:24:06.1Z</time>
      </trkpt>
      <trkpt lat="45.75285" lon="4.32493">
        <ele>408</ele>
        <time>2017-04-13T07:24:08.1Z</time>
      </trkpt>
      <trkpt lat="45.75285" lon="4.32489">
        <ele>408</ele>
        <time>2017-04-13T07:24:10.1Z</time>
      </trkpt>
      <trkpt lat="45.75285" lon="4.32485">
        <ele>408</ele>
        <time>2017-04-13T07:24:12.1Z</time>
      </trkpt>
      <trkpt lat="45.75286" lon="4.3248">
        <ele>407</ele>
        <time>2017-04-13T07:24:15.1Z</time>
      </trkpt>
      <trkpt lat="45.75287" lon="4.32476">
        <ele>407</ele>
        <time>2017-04-13T07:24:17.1Z</time>
      </trkpt>
      <trkpt lat="45.75288" lon="4.32473">
        <ele>407</ele>
        <time>2017-04-13T07:24:19.1Z</time>
      </trkpt>
      <trkpt lat="45.75289" lon="4.32469">
        <ele>407</ele>
        <time>2017-04-13T07:24:21.1Z</time>
      </trkpt>
      <trkpt lat="45.75291" lon="4.32464">
        <ele>407</ele>
        <time>2017-04-13T07:24:23.1Z</time>
      </trkpt>
      <trkpt lat="45.75292" lon="4.32457">
        <ele>407</ele>
        <time>2017-04-13T07:24:26.1Z</time>
      </trkpt>
      <trkpt lat="45.75293" lon="4.32452">
        <ele>407</ele>
        <time>2017-04-13T07:24:28.1Z</time>
      </trkpt>
      <trkpt lat="45.75294" lon="4.32445">
        <ele>406</ele>
        <time>2017-04-13T07:24:31.1Z</time>
      </trkpt>
      <trkpt lat="45.75295" lon="4.32441">
        <ele>407</ele>
        <time>2017-04-13T07:24:33.1Z</time>
      </trkpt>
      <trkpt lat="45.75296" lon="4.32437">
        <ele>407</ele>
        <time>2017-04-13T07:24:35.1Z</time>
      </trkpt>
      <trkpt lat="45.75297" lon="4.32432">
        <ele>407</ele>
        <time>2017-04-13T07:24:37.1Z</time>
      </trkpt>
      <trkpt lat="45.75297" lon="4.32427">
        <ele>407</ele>
        <time>2017-04-13T07:24:39.1Z</time>
      </trkpt>
      <trkpt lat="45.75297" lon="4.32423">
        <ele>406</ele>
        <time>2017-04-13T07:24:41.1Z</time>
      </trkpt>
      <trkpt lat="45.75297" lon="4.32418">
        <ele>406</ele>
        <time>2017-04-13T07:24:43.1Z</time>
      </trkpt>
      <trkpt lat="45.75298" lon="4.32413">
        <ele>406</ele>
        <time>2017-04-13T07:24:45.1Z</time>
      </trkpt>
      <trkpt lat="45.75297" lon="4.32407">
        <ele>406</ele>
        <time>2017-04-13T07:24:47.1Z</time>
      </trkpt>
      <trkpt lat="45.75298" lon="4.32403">
        <ele>406</ele>
        <time>2017-04-13T07:24:49.1Z</time>
      </trkpt>
      <trkpt lat="45.75299" lon="4.32396">
        <ele>406</ele>
        <time>2017-04-13T07:24:52.1Z</time>
      </trkpt>
      <trkpt lat="45.75299" lon="4.32388">
        <ele>406</ele>
        <time>2017-04-13T07:24:55.1Z</time>
      </trkpt>
      <trkpt lat="45.75299" lon="4.32384">
        <ele>406</ele>
        <time>2017-04-13T07:24:57.1Z</time>
      </trkpt>
      <trkpt lat="45.753" lon="4.3238">
        <ele>406</ele>
        <time>2017-04-13T07:24:59.1Z</time>
      </trkpt>
      <trkpt lat="45.75301" lon="4.32376">
        <ele>406</ele>
        <time>2017-04-13T07:25:01.1Z</time>
      </trkpt>
      <trkpt lat="45.75303" lon="4.32373">
        <ele>406</ele>
        <time>2017-04-13T07:25:03.1Z</time>
      </trkpt>
      <trkpt lat="45.75303" lon="4.32369">
        <ele>406</ele>
        <time>2017-04-13T07:25:05.1Z</time>
      </trkpt>
      <trkpt lat="45.75304" lon="4.32366">
        <ele>407</ele>
        <time>2017-04-13T07:25:07.1Z</time>
      </trkpt>
      <trkpt lat="45.75305" lon="4.32362">
        <ele>407</ele>
        <time>2017-04-13T07:25:09.1Z</time>
      </trkpt>
      <trkpt lat="45.75306" lon="4.32358">
        <ele>407</ele>
        <time>2017-04-13T07:25:11.1Z</time>
      </trkpt>
      <trkpt lat="45.75308" lon="4.32354">
        <ele>406</ele>
        <time>2017-04-13T07:25:13.1Z</time>
      </trkpt>
      <trkpt lat="45.75309" lon="4.3235">
        <ele>406</ele>
        <time>2017-04-13T07:25:15.1Z</time>
      </trkpt>
      <trkpt lat="45.75312" lon="4.32347">
        <ele>406</ele>
        <time>2017-04-13T07:25:17.1Z</time>
      </trkpt>
      <trkpt lat="45.75315" lon="4.32341">
        <ele>406</ele>
        <time>2017-04-13T07:25:20.1Z</time>
      </trkpt>
      <trkpt lat="45.75317" lon="4.32337">
        <ele>406</ele>
        <time>2017-04-13T07:25:22.1Z</time>
      </trkpt>
      <trkpt lat="45.7532" lon="4.32332">
        <ele>407</ele>
        <time>2017-04-13T07:25:25.1Z</time>
      </trkpt>
      <trkpt lat="45.75321" lon="4.32329">
        <ele>407</ele>
        <time>2017-04-13T07:25:27.1Z</time>
      </trkpt>
      <trkpt lat="45.75322" lon="4.32325">
        <ele>407</ele>
        <time>2017-04-13T07:25:29.1Z</time>
      </trkpt>
      <trkpt lat="45.75324" lon="4.32323">
        <ele>407</ele>
        <time>2017-04-13T07:25:31.1Z</time>
      </trkpt>
      <trkpt lat="45.75325" lon="4.32317">
        <ele>408</ele>
        <time>2017-04-13T07:25:34.1Z</time>
      </trkpt>
      <trkpt lat="45.75326" lon="4.32313">
        <ele>408</ele>
        <time>2017-04-13T07:25:36.1Z</time>
      </trkpt>
      <trkpt lat="45.75327" lon="4.32309">
        <ele>408</ele>
        <time>2017-04-13T07:25:38.1Z</time>
      </trkpt>
      <trkpt lat="45.75328" lon="4.32304">
        <ele>408</ele>
        <time>2017-04-13T07:25:40.1Z</time>
      </trkpt>
      <trkpt lat="45.75328" lon="4.32298">
        <ele>409</ele>
        <time>2017-04-13T07:25:43.1Z</time>
      </trkpt>
      <trkpt lat="45.75329" lon="4.32293">
        <ele>409</ele>
        <time>2017-04-13T07:25:45.1Z</time>
      </trkpt>
      <trkpt lat="45.75329" lon="4.32286">
        <ele>409</ele>
        <time>2017-04-13T07:25:48.1Z</time>
      </trkpt>
      <trkpt lat="45.7533" lon="4.32281">
        <ele>409</ele>
        <time>2017-04-13T07:25:50.1Z</time>
      </trkpt>
      <trkpt lat="45.7533" lon="4.32277">
        <ele>409</ele>
        <time>2017-04-13T07:25:52.1Z</time>
      </trkpt>
      <trkpt lat="45.7533" lon="4.3227">
        <ele>410</ele>
        <time>2017-04-13T07:25:55.1Z</time>
      </trkpt>
      <trkpt lat="45.75329" lon="4.32264">
        <ele>410</ele>
        <time>2017-04-13T07:25:58.1Z</time>
      </trkpt>
      <trkpt lat="45.75328" lon="4.3226">
        <ele>410</ele>
        <time>2017-04-13T07:26:00.1Z</time>
      </trkpt>
      <trkpt lat="45.75327" lon="4.32253">
        <ele>411</ele>
        <time>2017-04-13T07:26:03.1Z</time>
      </trkpt>
      <trkpt lat="45.75326" lon="4.32248">
        <ele>411</ele>
        <time>2017-04-13T07:26:05.1Z</time>
      </trkpt>
      <trkpt lat="45.75325" lon="4.32244">
        <ele>411</ele>
        <time>2017-04-13T07:26:07.1Z</time>
      </trkpt>
      <trkpt lat="45.75324" lon="4.3224">
        <ele>410</ele>
        <time>2017-04-13T07:26:09.1Z</time>
      </trkpt>
      <trkpt lat="45.75322" lon="4.32235">
        <ele>411</ele>
        <time>2017-04-13T07:26:12.1Z</time>
      </trkpt>
      <trkpt lat="45.7532" lon="4.32231">
        <ele>411</ele>
        <time>2017-04-13T07:26:14.1Z</time>
      </trkpt>
      <trkpt lat="45.75319" lon="4.32228">
        <ele>411</ele>
        <time>2017-04-13T07:26:16.1Z</time>
      </trkpt>
      <trkpt lat="45.75317" lon="4.32222">
        <ele>411</ele>
        <time>2017-04-13T07:26:19.1Z</time>
      </trkpt>
      <trkpt lat="45.75316" lon="4.32218">
        <ele>411</ele>
        <time>2017-04-13T07:26:21.1Z</time>
      </trkpt>
      <trkpt lat="45.75315" lon="4.32212">
        <ele>412</ele>
        <time>2017-04-13T07:26:24.1Z</time>
      </trkpt>
      <trkpt lat="45.75314" lon="4.32208">
        <ele>412</ele>
        <time>2017-04-13T07:26:26.1Z</time>
      </trkpt>
      <trkpt lat="45.75313" lon="4.32204">
        <ele>412</ele>
        <time>2017-04-13T07:26:28.1Z</time>
      </trkpt>
      <trkpt lat="45.75313" lon="4.32199">
        <ele>412</ele>
        <time>2017-04-13T07:26:30.1Z</time>
      </trkpt>
      <trkpt lat="45.75313" lon="4.32195">
        <ele>412</ele>
        <time>2017-04-13T07:26:32.1Z</time>
      </trkpt>
      <trkpt lat="45.75312" lon="4.3219">
        <ele>412</ele>
        <time>2017-04-13T07:26:35.1Z</time>
      </trkpt>
      <trkpt lat="45.75312" lon="4.32183">
        <ele>412</ele>
        <time>2017-04-13T07:26:38.1Z</time>
      </trkpt>
      <trkpt lat="45.75312" lon="4.32179">
        <ele>411</ele>
        <time>2017-04-13T07:26:40.1Z</time>
      </trkpt>
      <trkpt lat="45.75312" lon="4.32173">
        <ele>411</ele>
        <time>2017-04-13T07:26:43.1Z</time>
      </trkpt>
      <trkpt lat="45.75312" lon="4.32169">
        <ele>411</ele>
        <time>2017-04-13T07:26:45.1Z</time>
      </trkpt>
      <trkpt lat="45.75312" lon="4.32166">
        <ele>411</ele>
        <time>2017-04-13T07:26:47.1Z</time>
      </trkpt>
      <trkpt lat="45.75312" lon="4.32161">
        <ele>411</ele>
        <time>2017-04-13T07:26:50.1Z</time>
      </trkpt>
      <trkpt lat="45.75312" lon="4.32157">
        <ele>411</ele>
        <time>2017-04-13T07:26:52.1Z</time>
      </trkpt>
      <trkpt lat="45.75312" lon="4.32154">
        <ele>411</ele>
        <time>2017-04-13T07:26:54.1Z</time>
      </trkpt>
      <trkpt lat="45.75312" lon="4.32149">
        <ele>411</ele>
        <time>2017-04-13T07:26:57.1Z</time>
      </trkpt>
      <trkpt lat="45.75312" lon="4.32144">
        <ele>411</ele>
        <time>2017-04-13T07:26:59.1Z</time>
      </trkpt>
      <trkpt lat="45.75312" lon="4.3214">
        <ele>411</ele>
        <time>2017-04-13T07:27:01.1Z</time>
      </trkpt>
      <trkpt lat="45.75312" lon="4.32133">
        <ele>411</ele>
        <time>2017-04-13T07:27:04.1Z</time>
      </trkpt>
      <trkpt lat="45.75312" lon="4.32126">
        <ele>411</ele>
        <time>2017-04-13T07:27:07.1Z</time>
      </trkpt>
      <trkpt lat="45.75312" lon="4.32121">
        <ele>411</ele>
        <time>2017-04-13T07:27:09.1Z</time>
      </trkpt>
      <trkpt lat="45.75312" lon="4.32116">
        <ele>411</ele>
        <time>2017-04-13T07:27:11.1Z</time>
      </trkpt>
      <trkpt lat="45.75311" lon="4.32111">
        <ele>411</ele>
        <time>2017-04-13T07:27:13.1Z</time>
      </trkpt>
      <trkpt lat="45.75311" lon="4.32106">
        <ele>411</ele>
        <time>2017-04-13T07:27:15.1Z</time>
      </trkpt>
      <trkpt lat="45.7531" lon="4.32099">
        <ele>410</ele>
        <time>2017-04-13T07:27:18.1Z</time>
      </trkpt>
      <trkpt lat="45.75309" lon="4.32095">
        <ele>410</ele>
        <time>2017-04-13T07:27:20.1Z</time>
      </trkpt>
      <trkpt lat="45.75309" lon="4.32091">
        <ele>410</ele>
        <time>2017-04-13T07:27:22.1Z</time>
      </trkpt>
      <trkpt lat="45.75309" lon="4.32087">
        <ele>411</ele>
        <time>2017-04-13T07:27:24.1Z</time>
      </trkpt>
      <trkpt lat="45.75308" lon="4.32082">
        <ele>411</ele>
        <time>2017-04-13T07:27:26.1Z</time>
      </trkpt>
      <trkpt lat="45.75307" lon="4.32079">
        <ele>411</ele>
        <time>2017-04-13T07:27:28.1Z</time>
      </trkpt>
      <trkpt lat="45.75307" lon="4.32073">
        <ele>410</ele>
        <time>2017-04-13T07:27:31.1Z</time>
      </trkpt>
      <trkpt lat="45.75306" lon="4.32069">
        <ele>410</ele>
        <time>2017-04-13T07:27:33.1Z</time>
      </trkpt>
      <trkpt lat="45.75306" lon="4.32066">
        <ele>410</ele>
        <time>2017-04-13T07:27:35.1Z</time>
      </trkpt>
      <trkpt lat="45.75305" lon="4.32063">
        <ele>410</ele>
        <time>2017-04-13T07:27:38.1Z</time>
      </trkpt>
      <trkpt lat="45.75304" lon="4.3206">
        <ele>410</ele>
        <time>2017-04-13T07:27:40.1Z</time>
      </trkpt>
      <trkpt lat="45.75304" lon="4.32058">
        <ele>410</ele>
        <time>2017-04-13T07:27:42.1Z</time>
      </trkpt>
      <trkpt lat="45.75304" lon="4.32055">
        <ele>409</ele>
        <time>2017-04-13T07:27:44.1Z</time>
      </trkpt>
      <trkpt lat="45.75304" lon="4.32052">
        <ele>409</ele>
        <time>2017-04-13T07:27:46.1Z</time>
      </trkpt>
      <trkpt lat="45.75303" lon="4.32048">
        <ele>408</ele>
        <time>2017-04-13T07:27:49.1Z</time>
      </trkpt>
      <trkpt lat="45.75303" lon="4.32044">
        <ele>408</ele>
        <time>2017-04-13T07:27:51.1Z</time>
      </trkpt>
      <trkpt lat="45.75303" lon="4.3204">
        <ele>408</ele>
        <time>2017-04-13T07:27:53.1Z</time>
      </trkpt>
      <trkpt lat="45.75303" lon="4.32036">
        <ele>407</ele>
        <time>2017-04-13T07:27:55.1Z</time>
      </trkpt>
      <trkpt lat="45.75303" lon="4.32033">
        <ele>408</ele>
        <time>2017-04-13T07:27:57.1Z</time>
      </trkpt>
      <trkpt lat="45.75303" lon="4.32027">
        <ele>407</ele>
        <time>2017-04-13T07:28:00.1Z</time>
      </trkpt>
      <trkpt lat="45.75303" lon="4.32023">
        <ele>407</ele>
        <time>2017-04-13T07:28:02.1Z</time>
      </trkpt>
      <trkpt lat="45.75302" lon="4.3202">
        <ele>406</ele>
        <time>2017-04-13T07:28:04.1Z</time>
      </trkpt>
      <trkpt lat="45.75302" lon="4.32016">
        <ele>406</ele>
        <time>2017-04-13T07:28:06.1Z</time>
      </trkpt>
      <trkpt lat="45.75301" lon="4.32012">
        <ele>405</ele>
        <time>2017-04-13T07:28:08.1Z</time>
      </trkpt>
      <trkpt lat="45.75301" lon="4.32007">
        <ele>405</ele>
        <time>2017-04-13T07:28:11.1Z</time>
      </trkpt>
      <trkpt lat="45.75301" lon="4.32003">
        <ele>404</ele>
        <time>2017-04-13T07:28:13.1Z</time>
      </trkpt>
      <trkpt lat="45.75301" lon="4.31999">
        <ele>403</ele>
        <time>2017-04-13T07:28:16.1Z</time>
      </trkpt>
      <trkpt lat="45.75301" lon="4.31995">
        <ele>403</ele>
        <time>2017-04-13T07:28:18.1Z</time>
      </trkpt>
      <trkpt lat="45.75301" lon="4.31992">
        <ele>402</ele>
        <time>2017-04-13T07:28:20.1Z</time>
      </trkpt>
      <trkpt lat="45.75301" lon="4.31985">
        <ele>402</ele>
        <time>2017-04-13T07:28:23.1Z</time>
      </trkpt>
      <trkpt lat="45.75301" lon="4.3198">
        <ele>402</ele>
        <time>2017-04-13T07:28:25.1Z</time>
      </trkpt>
      <trkpt lat="45.753" lon="4.31975">
        <ele>402</ele>
        <time>2017-04-13T07:28:27.1Z</time>
      </trkpt>
      <trkpt lat="45.753" lon="4.31972">
        <ele>402</ele>
        <time>2017-04-13T07:28:29.1Z</time>
      </trkpt>
      <trkpt lat="45.75299" lon="4.31967">
        <ele>401</ele>
        <time>2017-04-13T07:28:32.1Z</time>
      </trkpt>
      <trkpt lat="45.75298" lon="4.31964">
        <ele>401</ele>
        <time>2017-04-13T07:28:34.1Z</time>
      </trkpt>
      <trkpt lat="45.75298" lon="4.31961">
        <ele>401</ele>
        <time>2017-04-13T07:28:36.1Z</time>
      </trkpt>
      <trkpt lat="45.75298" lon="4.31957">
        <ele>401</ele>
        <time>2017-04-13T07:28:38.1Z</time>
      </trkpt>
      <trkpt lat="45.75297" lon="4.31953">
        <ele>401</ele>
        <time>2017-04-13T07:28:40.1Z</time>
      </trkpt>
      <trkpt lat="45.75297" lon="4.31949">
        <ele>401</ele>
        <time>2017-04-13T07:28:42.1Z</time>
      </trkpt>
      <trkpt lat="45.75297" lon="4.31946">
        <ele>401</ele>
        <time>2017-04-13T07:28:44.1Z</time>
      </trkpt>
      <trkpt lat="45.75298" lon="4.31941">
        <ele>401</ele>
        <time>2017-04-13T07:28:46.1Z</time>
      </trkpt>
      <trkpt lat="45.75298" lon="4.31936">
        <ele>401</ele>
        <time>2017-04-13T07:28:48.1Z</time>
      </trkpt>
      <trkpt lat="45.75297" lon="4.31929">
        <ele>400</ele>
        <time>2017-04-13T07:28:51.1Z</time>
      </trkpt>
      <trkpt lat="45.75298" lon="4.31925">
        <ele>400</ele>
        <time>2017-04-13T07:28:53.1Z</time>
      </trkpt>
      <trkpt lat="45.75298" lon="4.31922">
        <ele>400</ele>
        <time>2017-04-13T07:28:55.1Z</time>
      </trkpt>
      <trkpt lat="45.75298" lon="4.31918">
        <ele>400</ele>
        <time>2017-04-13T07:28:58.1Z</time>
      </trkpt>
      <trkpt lat="45.75298" lon="4.31914">
        <ele>400</ele>
        <time>2017-04-13T07:29:00.1Z</time>
      </trkpt>
      <trkpt lat="45.75298" lon="4.31911">
        <ele>400</ele>
        <time>2017-04-13T07:29:02.1Z</time>
      </trkpt>
      <trkpt lat="45.75299" lon="4.31907">
        <ele>400</ele>
        <time>2017-04-13T07:29:04.1Z</time>
      </trkpt>
      <trkpt lat="45.75299" lon="4.31903">
        <ele>399</ele>
        <time>2017-04-13T07:29:06.1Z</time>
      </trkpt>
      <trkpt lat="45.75298" lon="4.319">
        <ele>399</ele>
        <time>2017-04-13T07:29:08.1Z</time>
      </trkpt>
      <trkpt lat="45.75299" lon="4.31896">
        <ele>400</ele>
        <time>2017-04-13T07:29:10.1Z</time>
      </trkpt>
      <trkpt lat="45.75298" lon="4.3189">
        <ele>399</ele>
        <time>2017-04-13T07:29:13.1Z</time>
      </trkpt>
      <trkpt lat="45.75298" lon="4.31885">
        <ele>399</ele>
        <time>2017-04-13T07:29:15.1Z</time>
      </trkpt>
      <trkpt lat="45.75297" lon="4.31881">
        <ele>400</ele>
        <time>2017-04-13T07:29:17.1Z</time>
      </trkpt>
      <trkpt lat="45.75297" lon="4.31874">
        <ele>400</ele>
        <time>2017-04-13T07:29:20.1Z</time>
      </trkpt>
      <trkpt lat="45.75297" lon="4.3187">
        <ele>400</ele>
        <time>2017-04-13T07:29:22.1Z</time>
      </trkpt>
      <trkpt lat="45.75296" lon="4.31865">
        <ele>400</ele>
        <time>2017-04-13T07:29:24.1Z</time>
      </trkpt>
      <trkpt lat="45.75297" lon="4.31859">
        <ele>400</ele>
        <time>2017-04-13T07:29:27.1Z</time>
      </trkpt>
      <trkpt lat="45.75297" lon="4.31852">
        <ele>400</ele>
        <time>2017-04-13T07:29:30.1Z</time>
      </trkpt>
      <trkpt lat="45.75298" lon="4.31848">
        <ele>399</ele>
        <time>2017-04-13T07:29:32.1Z</time>
      </trkpt>
      <trkpt lat="45.75298" lon="4.31842">
        <ele>399</ele>
        <time>2017-04-13T07:29:34.1Z</time>
      </trkpt>
      <trkpt lat="45.75299" lon="4.31837">
        <ele>399</ele>
        <time>2017-04-13T07:29:36.1Z</time>
      </trkpt>
      <trkpt lat="45.75299" lon="4.31833">
        <ele>398</ele>
        <time>2017-04-13T07:29:38.1Z</time>
      </trkpt>
      <trkpt lat="45.753" lon="4.31828">
        <ele>398</ele>
        <time>2017-04-13T07:29:40.1Z</time>
      </trkpt>
      <trkpt lat="45.753" lon="4.31824">
        <ele>398</ele>
        <time>2017-04-13T07:29:42.1Z</time>
      </trkpt>
      <trkpt lat="45.75301" lon="4.31817">
        <ele>398</ele>
        <time>2017-04-13T07:29:45.1Z</time>
      </trkpt>
      <trkpt lat="45.75304" lon="4.31811">
        <ele>398</ele>
        <time>2017-04-13T07:29:48.1Z</time>
      </trkpt>
      <trkpt lat="45.75305" lon="4.31807">
        <ele>398</ele>
        <time>2017-04-13T07:29:50.1Z</time>
      </trkpt>
      <trkpt lat="45.75306" lon="4.31804">
        <ele>398</ele>
        <time>2017-04-13T07:29:52.1Z</time>
      </trkpt>
      <trkpt lat="45.75308" lon="4.31798">
        <ele>397</ele>
        <time>2017-04-13T07:29:55.1Z</time>
      </trkpt>
      <trkpt lat="45.75309" lon="4.31795">
        <ele>397</ele>
        <time>2017-04-13T07:29:57.1Z</time>
      </trkpt>
      <trkpt lat="45.75311" lon="4.31789">
        <ele>397</ele>
        <time>2017-04-13T07:30:00.1Z</time>
      </trkpt>
      <trkpt lat="45.75313" lon="4.31785">
        <ele>396</ele>
        <time>2017-04-13T07:30:02.1Z</time>
      </trkpt>
      <trkpt lat="45.75315" lon="4.3178">
        <ele>396</ele>
        <time>2017-04-13T07:30:04.1Z</time>
      </trkpt>
      <trkpt lat="45.75317" lon="4.31775">
        <ele>396</ele>
        <time>2017-04-13T07:30:07.1Z</time>
      </trkpt>
      <trkpt lat="45.75318" lon="4.31771">
        <ele>395</ele>
        <time>2017-04-13T07:30:09.1Z</time>
      </trkpt>
      <trkpt lat="45.7532" lon="4.31766">
        <ele>395</ele>
        <time>2017-04-13T07:30:11.1Z</time>
      </trkpt>
      <trkpt lat="45.75322" lon="4.31763">
        <ele>395</ele>
        <time>2017-04-13T07:30:13.1Z</time>
      </trkpt>
      <trkpt lat="45.75324" lon="4.31759">
        <ele>395</ele>
        <time>2017-04-13T07:30:15.1Z</time>
      </trkpt>
      <trkpt lat="45.75328" lon="4.31753">
        <ele>395</ele>
        <time>2017-04-13T07:30:18.1Z</time>
      </trkpt>
      <trkpt lat="45.75331" lon="4.31747">
        <ele>395</ele>
        <time>2017-04-13T07:30:21.1Z</time>
      </trkpt>
      <trkpt lat="45.75333" lon="4.31745">
        <ele>395</ele>
        <time>2017-04-13T07:30:23.1Z</time>
      </trkpt>
      <trkpt lat="45.75334" lon="4.31742">
        <ele>396</ele>
        <time>2017-04-13T07:30:25.1Z</time>
      </trkpt>
      <trkpt lat="45.75337" lon="4.31739">
        <ele>396</ele>
        <time>2017-04-13T07:30:27.1Z</time>
      </trkpt>
      <trkpt lat="45.75338" lon="4.31735">
        <ele>397</ele>
        <time>2017-04-13T07:30:29.1Z</time>
      </trkpt>
      <trkpt lat="45.7534" lon="4.31731">
        <ele>397</ele>
        <time>2017-04-13T07:30:32.1Z</time>
      </trkpt>
      <trkpt lat="45.75343" lon="4.31727">
        <ele>397</ele>
        <time>2017-04-13T07:30:34.1Z</time>
      </trkpt>
      <trkpt lat="45.75345" lon="4.31724">
        <ele>397</ele>
        <time>2017-04-13T07:30:36.1Z</time>
      </trkpt>
      <trkpt lat="45.75347" lon="4.31717">
        <ele>396</ele>
        <time>2017-04-13T07:30:39.1Z</time>
      </trkpt>
      <trkpt lat="45.75347" lon="4.31712">
        <ele>396</ele>
        <time>2017-04-13T07:30:41.1Z</time>
      </trkpt>
      <trkpt lat="45.75348" lon="4.31707">
        <ele>396</ele>
        <time>2017-04-13T07:30:43.1Z</time>
      </trkpt>
      <trkpt lat="45.75348" lon="4.31702">
        <ele>396</ele>
        <time>2017-04-13T07:30:45.1Z</time>
      </trkpt>
      <trkpt lat="45.75348" lon="4.31697">
        <ele>396</ele>
        <time>2017-04-13T07:30:47.1Z</time>
      </trkpt>
      <trkpt lat="45.75348" lon="4.31691">
        <ele>396</ele>
        <time>2017-04-13T07:30:50.1Z</time>
      </trkpt>
      <trkpt lat="45.75349" lon="4.31686">
        <ele>396</ele>
        <time>2017-04-13T07:30:52.1Z</time>
      </trkpt>
      <trkpt lat="45.75349" lon="4.3168">
        <ele>396</ele>
        <time>2017-04-13T07:30:55.1Z</time>
      </trkpt>
      <trkpt lat="45.75349" lon="4.31675">
        <ele>396</ele>
        <time>2017-04-13T07:30:58.1Z</time>
      </trkpt>
      <trkpt lat="45.75349" lon="4.3167">
        <ele>396</ele>
        <time>2017-04-13T07:31:01.1Z</time>
      </trkpt>
      <trkpt lat="45.75348" lon="4.31666">
        <ele>396</ele>
        <time>2017-04-13T07:31:03.1Z</time>
      </trkpt>
      <trkpt lat="45.75347" lon="4.3166">
        <ele>396</ele>
        <time>2017-04-13T07:31:06.1Z</time>
      </trkpt>
      <trkpt lat="45.75346" lon="4.31657">
        <ele>396</ele>
        <time>2017-04-13T07:31:08.1Z</time>
      </trkpt>
      <trkpt lat="45.75344" lon="4.31654">
        <ele>396</ele>
        <time>2017-04-13T07:31:10.1Z</time>
      </trkpt>
      <trkpt lat="45.75342" lon="4.31648">
        <ele>396</ele>
        <time>2017-04-13T07:31:13.1Z</time>
      </trkpt>
      <trkpt lat="45.75341" lon="4.31644">
        <ele>396</ele>
        <time>2017-04-13T07:31:15.1Z</time>
      </trkpt>
      <trkpt lat="45.7534" lon="4.3164">
        <ele>396</ele>
        <time>2017-04-13T07:31:17.1Z</time>
      </trkpt>
      <trkpt lat="45.75338" lon="4.31633">
        <ele>396</ele>
        <time>2017-04-13T07:31:20.1Z</time>
      </trkpt>
      <trkpt lat="45.75337" lon="4.3163">
        <ele>396</ele>
        <time>2017-04-13T07:31:22.1Z</time>
      </trkpt>
      <trkpt lat="45.75336" lon="4.31625">
        <ele>396</ele>
        <time>2017-04-13T07:31:25.1Z</time>
      </trkpt>
      <trkpt lat="45.75336" lon="4.3162">
        <ele>396</ele>
        <time>2017-04-13T07:31:28.1Z</time>
      </trkpt>
      <trkpt lat="45.75336" lon="4.31617">
        <ele>396</ele>
        <time>2017-04-13T07:31:30.1Z</time>
      </trkpt>
      <trkpt lat="45.75335" lon="4.31614">
        <ele>396</ele>
        <time>2017-04-13T07:31:32.1Z</time>
      </trkpt>
      <trkpt lat="45.75334" lon="4.31608">
        <ele>395</ele>
        <time>2017-04-13T07:31:35.1Z</time>
      </trkpt>
      <trkpt lat="45.75333" lon="4.31605">
        <ele>395</ele>
        <time>2017-04-13T07:31:37.1Z</time>
      </trkpt>
      <trkpt lat="45.75332" lon="4.316">
        <ele>395</ele>
        <time>2017-04-13T07:31:40.1Z</time>
      </trkpt>
      <trkpt lat="45.75331" lon="4.31596">
        <ele>395</ele>
        <time>2017-04-13T07:31:42.1Z</time>
      </trkpt>
      <trkpt lat="45.75329" lon="4.31592">
        <ele>395</ele>
        <time>2017-04-13T07:31:44.1Z</time>
      </trkpt>
      <trkpt lat="45.75327" lon="4.31585">
        <ele>395</ele>
        <time>2017-04-13T07:31:47.1Z</time>
      </trkpt>
      <trkpt lat="45.75324" lon="4.31578">
        <ele>395</ele>
        <time>2017-04-13T07:31:50.1Z</time>
      </trkpt>
      <trkpt lat="45.75323" lon="4.31573">
        <ele>395</ele>
        <time>2017-04-13T07:31:52.1Z</time>
      </trkpt>
      <trkpt lat="45.75322" lon="4.31568">
        <ele>395</ele>
        <time>2017-04-13T07:31:54.1Z</time>
      </trkpt>
      <trkpt lat="45.7532" lon="4.31561">
        <ele>395</ele>
        <time>2017-04-13T07:31:57.1Z</time>
      </trkpt>
      <trkpt lat="45.75319" lon="4.31557">
        <ele>395</ele>
        <time>2017-04-13T07:31:59.1Z</time>
      </trkpt>
      <trkpt lat="45.75319" lon="4.31553">
        <ele>395</ele>
        <time>2017-04-13T07:32:01.1Z</time>
      </trkpt>
      <trkpt lat="45.75319" lon="4.31549">
        <ele>395</ele>
        <time>2017-04-13T07:32:03.1Z</time>
      </trkpt>
      <trkpt lat="45.75319" lon="4.31544">
        <ele>395</ele>
        <time>2017-04-13T07:32:05.1Z</time>
      </trkpt>
      <trkpt lat="45.75318" lon="4.31539">
        <ele>395</ele>
        <time>2017-04-13T07:32:07.1Z</time>
      </trkpt>
      <trkpt lat="45.75317" lon="4.31535">
        <ele>395</ele>
        <time>2017-04-13T07:32:09.1Z</time>
      </trkpt>
      <trkpt lat="45.75315" lon="4.31529">
        <ele>395</ele>
        <time>2017-04-13T07:32:12.1Z</time>
      </trkpt>
      <trkpt lat="45.75312" lon="4.31525">
        <ele>395</ele>
        <time>2017-04-13T07:32:14.1Z</time>
      </trkpt>
      <trkpt lat="45.75309" lon="4.31521">
        <ele>396</ele>
        <time>2017-04-13T07:32:16.1Z</time>
      </trkpt>
      <trkpt lat="45.75306" lon="4.31518">
        <ele>396</ele>
        <time>2017-04-13T07:32:18.1Z</time>
      </trkpt>
      <trkpt lat="45.75301" lon="4.31513">
        <ele>396</ele>
        <time>2017-04-13T07:32:21.1Z</time>
      </trkpt>
      <trkpt lat="45.75299" lon="4.31511">
        <ele>396</ele>
        <time>2017-04-13T07:32:23.1Z</time>
      </trkpt>
      <trkpt lat="45.75296" lon="4.31506">
        <ele>396</ele>
        <time>2017-04-13T07:32:26.1Z</time>
      </trkpt>
      <trkpt lat="45.75295" lon="4.31504">
        <ele>396</ele>
        <time>2017-04-13T07:32:28.1Z</time>
      </trkpt>
      <trkpt lat="45.75293" lon="4.31501">
        <ele>397</ele>
        <time>2017-04-13T07:32:30.1Z</time>
      </trkpt>
      <trkpt lat="45.75291" lon="4.31498">
        <ele>397</ele>
        <time>2017-04-13T07:32:32.1Z</time>
      </trkpt>
      <trkpt lat="45.75287" lon="4.31495">
        <ele>397</ele>
        <time>2017-04-13T07:32:35.1Z</time>
      </trkpt>
      <trkpt lat="45.75283" lon="4.31491">
        <ele>397</ele>
        <time>2017-04-13T07:32:38.1Z</time>
      </trkpt>
      <trkpt lat="45.7528" lon="4.31487">
        <ele>397</ele>
        <time>2017-04-13T07:32:41.1Z</time>
      </trkpt>
      <trkpt lat="45.75278" lon="4.31485">
        <ele>397</ele>
        <time>2017-04-13T07:32:43.1Z</time>
      </trkpt>
      <trkpt lat="45.75276" lon="4.31483">
        <ele>397</ele>
        <time>2017-04-13T07:32:45.1Z</time>
      </trkpt>
      <trkpt lat="45.75273" lon="4.31482">
        <ele>397</ele>
        <time>2017-04-13T07:32:47.1Z</time>
      </trkpt>
      <trkpt lat="45.75269" lon="4.31479">
        <ele>397</ele>
        <time>2017-04-13T07:32:50.1Z</time>
      </trkpt>
      <trkpt lat="45.75268" lon="4.31478">
        <ele>397</ele>
        <time>2017-04-13T07:32:52.1Z</time>
      </trkpt>
      <trkpt lat="45.75267" lon="4.31475">
        <ele>397</ele>
        <time>2017-04-13T07:32:54.1Z</time>
      </trkpt>
      <trkpt lat="45.75266" lon="4.31474">
        <ele>397</ele>
        <time>2017-04-13T07:32:56.1Z</time>
      </trkpt>
      <trkpt lat="45.75264" lon="4.31472">
        <ele>397</ele>
        <time>2017-04-13T07:32:59.1Z</time>
      </trkpt>
      <trkpt lat="45.75262" lon="4.3147">
        <ele>398</ele>
        <time>2017-04-13T07:33:01.1Z</time>
      </trkpt>
      <trkpt lat="45.75259" lon="4.31468">
        <ele>398</ele>
        <time>2017-04-13T07:33:03.1Z</time>
      </trkpt>
      <trkpt lat="45.75257" lon="4.31466">
        <ele>398</ele>
        <time>2017-04-13T07:33:05.1Z</time>
      </trkpt>
      <trkpt lat="45.75255" lon="4.31465">
        <ele>398</ele>
        <time>2017-04-13T07:33:07.1Z</time>
      </trkpt>
      <trkpt lat="45.75253" lon="4.31463">
        <ele>398</ele>
        <time>2017-04-13T07:33:09.1Z</time>
      </trkpt>
      <trkpt lat="45.7525" lon="4.31462">
        <ele>398</ele>
        <time>2017-04-13T07:33:11.1Z</time>
      </trkpt>
      <trkpt lat="45.75246" lon="4.31459">
        <ele>399</ele>
        <time>2017-04-13T07:33:14.1Z</time>
      </trkpt>
      <trkpt lat="45.75244" lon="4.31458">
        <ele>399</ele>
        <time>2017-04-13T07:33:16.1Z</time>
      </trkpt>
      <trkpt lat="45.75242" lon="4.31455">
        <ele>399</ele>
        <time>2017-04-13T07:33:18.1Z</time>
      </trkpt>
      <trkpt lat="45.75239" lon="4.31453">
        <ele>399</ele>
        <time>2017-04-13T07:33:20.1Z</time>
      </trkpt>
      <trkpt lat="45.75237" lon="4.3145">
        <ele>400</ele>
        <time>2017-04-13T07:33:22.1Z</time>
      </trkpt>
      <trkpt lat="45.75235" lon="4.31446">
        <ele>400</ele>
        <time>2017-04-13T07:33:25.1Z</time>
      </trkpt>
      <trkpt lat="45.75232" lon="4.31444">
        <ele>400</ele>
        <time>2017-04-13T07:33:27.1Z</time>
      </trkpt>
      <trkpt lat="45.7523" lon="4.3144">
        <ele>400</ele>
        <time>2017-04-13T07:33:30.1Z</time>
      </trkpt>
      <trkpt lat="45.75227" lon="4.31438">
        <ele>400</ele>
        <time>2017-04-13T07:33:32.1Z</time>
      </trkpt>
      <trkpt lat="45.75225" lon="4.31436">
        <ele>400</ele>
        <time>2017-04-13T07:33:34.1Z</time>
      </trkpt>
      <trkpt lat="45.75223" lon="4.31434">
        <ele>400</ele>
        <time>2017-04-13T07:33:36.1Z</time>
      </trkpt>
      <trkpt lat="45.7522" lon="4.31432">
        <ele>401</ele>
        <time>2017-04-13T07:33:38.1Z</time>
      </trkpt>
      <trkpt lat="45.75218" lon="4.3143">
        <ele>401</ele>
        <time>2017-04-13T07:33:40.1Z</time>
      </trkpt>
      <trkpt lat="45.75215" lon="4.31428">
        <ele>401</ele>
        <time>2017-04-13T07:33:42.1Z</time>
      </trkpt>
      <trkpt lat="45.75213" lon="4.31425">
        <ele>401</ele>
        <time>2017-04-13T07:33:44.1Z</time>
      </trkpt>
      <trkpt lat="45.75209" lon="4.31421">
        <ele>401</ele>
        <time>2017-04-13T07:33:47.1Z</time>
      </trkpt>
      <trkpt lat="45.75206" lon="4.31419">
        <ele>401</ele>
        <time>2017-04-13T07:33:49.1Z</time>
      </trkpt>
      <trkpt lat="45.75203" lon="4.31416">
        <ele>401</ele>
        <time>2017-04-13T07:33:51.1Z</time>
      </trkpt>
      <trkpt lat="45.75198" lon="4.31414">
        <ele>401</ele>
        <time>2017-04-13T07:33:54.1Z</time>
      </trkpt>
      <trkpt lat="45.75195" lon="4.31412">
        <ele>401</ele>
        <time>2017-04-13T07:33:56.1Z</time>
      </trkpt>
      <trkpt lat="45.75193" lon="4.31409">
        <ele>401</ele>
        <time>2017-04-13T07:33:58.1Z</time>
      </trkpt>
      <trkpt lat="45.75188" lon="4.31405">
        <ele>401</ele>
        <time>2017-04-13T07:34:01.1Z</time>
      </trkpt>
      <trkpt lat="45.75186" lon="4.31403">
        <ele>401</ele>
        <time>2017-04-13T07:34:03.1Z</time>
      </trkpt>
      <trkpt lat="45.75183" lon="4.31402">
        <ele>401</ele>
        <time>2017-04-13T07:34:06.1Z</time>
      </trkpt>
      <trkpt lat="45.75181" lon="4.314">
        <ele>400</ele>
        <time>2017-04-13T07:34:08.1Z</time>
      </trkpt>
      <trkpt lat="45.75178" lon="4.31399">
        <ele>400</ele>
        <time>2017-04-13T07:34:10.1Z</time>
      </trkpt>
      <trkpt lat="45.75177" lon="4.31398">
        <ele>400</ele>
        <time>2017-04-13T07:34:12.1Z</time>
      </trkpt>
      <trkpt lat="45.75177" lon="4.31396">
        <ele>400</ele>
        <time>2017-04-13T07:34:15.1Z</time>
      </trkpt>
      <trkpt lat="45.75178" lon="4.31393">
        <ele>400</ele>
        <time>2017-04-13T07:34:17.1Z</time>
      </trkpt>
      <trkpt lat="45.75177" lon="4.31388">
        <ele>400</ele>
        <time>2017-04-13T07:34:20.1Z</time>
      </trkpt>
      <trkpt lat="45.75177" lon="4.31385">
        <ele>400</ele>
        <time>2017-04-13T07:34:22.1Z</time>
      </trkpt>
      <trkpt lat="45.75177" lon="4.3138">
        <ele>399</ele>
        <time>2017-04-13T07:34:25.1Z</time>
      </trkpt>
      <trkpt lat="45.75177" lon="4.31378">
        <ele>398</ele>
        <time>2017-04-13T07:34:27.1Z</time>
      </trkpt>
      <trkpt lat="45.75177" lon="4.31374">
        <ele>398</ele>
        <time>2017-04-13T07:34:30.1Z</time>
      </trkpt>
      <trkpt lat="45.75176" lon="4.31372">
        <ele>397</ele>
        <time>2017-04-13T07:34:32.1Z</time>
      </trkpt>
      <trkpt lat="45.75176" lon="4.31369">
        <ele>397</ele>
        <time>2017-04-13T07:34:34.1Z</time>
      </trkpt>
      <trkpt lat="45.75174" lon="4.31364">
        <ele>397</ele>
        <time>2017-04-13T07:34:37.1Z</time>
      </trkpt>
      <trkpt lat="45.75172" lon="4.31359">
        <ele>396</ele>
        <time>2017-04-13T07:34:40.1Z</time>
      </trkpt>
      <trkpt lat="45.75169" lon="4.31355">
        <ele>396</ele>
        <time>2017-04-13T07:34:43.1Z</time>
      </trkpt>
      <trkpt lat="45.75166" lon="4.31353">
        <ele>395</ele>
        <time>2017-04-13T07:34:46.1Z</time>
      </trkpt>
      <trkpt lat="45.75163" lon="4.31352">
        <ele>395</ele>
        <time>2017-04-13T07:34:48.1Z</time>
      </trkpt>
      <trkpt lat="45.7516" lon="4.31352">
        <ele>396</ele>
        <time>2017-04-13T07:34:50.1Z</time>
      </trkpt>
      <trkpt lat="45.75156" lon="4.31352">
        <ele>396</ele>
        <time>2017-04-13T07:34:53.1Z</time>
      </trkpt>
      <trkpt lat="45.75153" lon="4.31351">
        <ele>396</ele>
        <time>2017-04-13T07:34:55.1Z</time>
      </trkpt>
      <trkpt lat="45.7515" lon="4.31351">
        <ele>396</ele>
        <time>2017-04-13T07:34:57.1Z</time>
      </trkpt>
      <trkpt lat="45.75145" lon="4.31351">
        <ele>396</ele>
        <time>2017-04-13T07:35:00.1Z</time>
      </trkpt>
      <trkpt lat="45.75141" lon="4.31351">
        <ele>396</ele>
        <time>2017-04-13T07:35:03.1Z</time>
      </trkpt>
      <trkpt lat="45.75137" lon="4.31351">
        <ele>396</ele>
        <time>2017-04-13T07:35:05.1Z</time>
      </trkpt>
      <trkpt lat="45.75135" lon="4.31352">
        <ele>396</ele>
        <time>2017-04-13T07:35:07.1Z</time>
      </trkpt>
      <trkpt lat="45.75132" lon="4.31352">
        <ele>397</ele>
        <time>2017-04-13T07:35:09.1Z</time>
      </trkpt>
      <trkpt lat="45.75129" lon="4.31352">
        <ele>397</ele>
        <time>2017-04-13T07:35:12.1Z</time>
      </trkpt>
      <trkpt lat="45.75127" lon="4.31351">
        <ele>397</ele>
        <time>2017-04-13T07:35:14.1Z</time>
      </trkpt>
      <trkpt lat="45.75125" lon="4.31348">
        <ele>397</ele>
        <time>2017-04-13T07:35:16.1Z</time>
      </trkpt>
      <trkpt lat="45.75123" lon="4.31346">
        <ele>397</ele>
        <time>2017-04-13T07:35:18.1Z</time>
      </trkpt>
      <trkpt lat="45.75119" lon="4.31344">
        <ele>397</ele>
        <time>2017-04-13T07:35:21.1Z</time>
      </trkpt>
      <trkpt lat="45.75117" lon="4.31344">
        <ele>397</ele>
        <time>2017-04-13T07:35:23.1Z</time>
      </trkpt>
      <trkpt lat="45.75116" lon="4.31343">
        <ele>397</ele>
        <time>2017-04-13T07:35:25.1Z</time>
      </trkpt>
      <trkpt lat="45.75116" lon="4.31342">
        <ele>396</ele>
        <time>2017-04-13T07:35:28.1Z</time>
      </trkpt>
      <trkpt lat="45.75115" lon="4.31341">
        <ele>397</ele>
        <time>2017-04-13T07:35:30.1Z</time>
      </trkpt>
      <trkpt lat="45.75113" lon="4.31338">
        <ele>397</ele>
        <time>2017-04-13T07:35:32.1Z</time>
      </trkpt>
      <trkpt lat="45.75111" lon="4.31336">
        <ele>397</ele>
        <time>2017-04-13T07:35:34.1Z</time>
      </trkpt>
      <trkpt lat="45.75107" lon="4.31333">
        <ele>397</ele>
        <time>2017-04-13T07:35:37.1Z</time>
      </trkpt>
      <trkpt lat="45.75105" lon="4.3133">
        <ele>397</ele>
        <time>2017-04-13T07:35:39.1Z</time>
      </trkpt>
      <trkpt lat="45.75104" lon="4.31329">
        <ele>397</ele>
        <time>2017-04-13T07:35:41.1Z</time>
      </trkpt>
      <trkpt lat="45.75101" lon="4.31325">
        <ele>396</ele>
        <time>2017-04-13T07:35:44.1Z</time>
      </trkpt>
      <trkpt lat="45.75098" lon="4.31322">
        <ele>396</ele>
        <time>2017-04-13T07:35:47.1Z</time>
      </trkpt>
      <trkpt lat="45.75094" lon="4.31318">
        <ele>397</ele>
        <time>2017-04-13T07:35:50.1Z</time>
      </trkpt>
      <trkpt lat="45.75092" lon="4.31316">
        <ele>397</ele>
        <time>2017-04-13T07:35:52.1Z</time>
      </trkpt>
      <trkpt lat="45.75089" lon="4.31314">
        <ele>397</ele>
        <time>2017-04-13T07:35:54.1Z</time>
      </trkpt>
      <trkpt lat="45.75086" lon="4.31311">
        <ele>397</ele>
        <time>2017-04-13T07:35:56.1Z</time>
      </trkpt>
      <trkpt lat="45.75084" lon="4.31308">
        <ele>397</ele>
        <time>2017-04-13T07:35:58.1Z</time>
      </trkpt>
      <trkpt lat="45.75082" lon="4.31305">
        <ele>397</ele>
        <time>2017-04-13T07:36:00.1Z</time>
      </trkpt>
      <trkpt lat="45.7508" lon="4.31302">
        <ele>397</ele>
        <time>2017-04-13T07:36:02.1Z</time>
      </trkpt>
      <trkpt lat="45.75079" lon="4.31299">
        <ele>397</ele>
        <time>2017-04-13T07:36:04.1Z</time>
      </trkpt>
      <trkpt lat="45.75077" lon="4.31297">
        <ele>397</ele>
        <time>2017-04-13T07:36:06.1Z</time>
      </trkpt>
      <trkpt lat="45.75074" lon="4.31293">
        <ele>397</ele>
        <time>2017-04-13T07:36:09.1Z</time>
      </trkpt>
      <trkpt lat="45.7507" lon="4.3129">
        <ele>397</ele>
        <time>2017-04-13T07:36:12.1Z</time>
      </trkpt>
      <trkpt lat="45.75068" lon="4.31288">
        <ele>397</ele>
        <time>2017-04-13T07:36:14.1Z</time>
      </trkpt>
      <trkpt lat="45.75064" lon="4.31284">
        <ele>397</ele>
        <time>2017-04-13T07:36:17.1Z</time>
      </trkpt>
      <trkpt lat="45.75062" lon="4.31282">
        <ele>397</ele>
        <time>2017-04-13T07:36:19.1Z</time>
      </trkpt>
      <trkpt lat="45.7506" lon="4.31281">
        <ele>397</ele>
        <time>2017-04-13T07:36:21.1Z</time>
      </trkpt>
      <trkpt lat="45.75055" lon="4.31279">
        <ele>396</ele>
        <time>2017-04-13T07:36:24.1Z</time>
      </trkpt>
      <trkpt lat="45.75051" lon="4.31276">
        <ele>396</ele>
        <time>2017-04-13T07:36:27.1Z</time>
      </trkpt>
      <trkpt lat="45.75049" lon="4.31274">
        <ele>396</ele>
        <time>2017-04-13T07:36:29.1Z</time>
      </trkpt>
      <trkpt lat="45.75046" lon="4.3127">
        <ele>396</ele>
        <time>2017-04-13T07:36:31.1Z</time>
      </trkpt>
      <trkpt lat="45.75042" lon="4.31266">
        <ele>397</ele>
        <time>2017-04-13T07:36:34.1Z</time>
      </trkpt>
      <trkpt lat="45.75038" lon="4.31262">
        <ele>397</ele>
        <time>2017-04-13T07:36:37.1Z</time>
      </trkpt>
      <trkpt lat="45.75035" lon="4.31259">
        <ele>397</ele>
        <time>2017-04-13T07:36:39.1Z</time>
      </trkpt>
      <trkpt lat="45.75031" lon="4.31255">
        <ele>397</ele>
        <time>2017-04-13T07:36:42.1Z</time>
      </trkpt>
      <trkpt lat="45.75028" lon="4.31253">
        <ele>398</ele>
        <time>2017-04-13T07:36:44.1Z</time>
      </trkpt>
      <trkpt lat="45.75025" lon="4.31252">
        <ele>398</ele>
        <time>2017-04-13T07:36:46.1Z</time>
      </trkpt>
      <trkpt lat="45.75022" lon="4.3125">
        <ele>398</ele>
        <time>2017-04-13T07:36:48.1Z</time>
      </trkpt>
      <trkpt lat="45.75018" lon="4.31248">
        <ele>399</ele>
        <time>2017-04-13T07:36:51.1Z</time>
      </trkpt>
      <trkpt lat="45.75016" lon="4.31246">
        <ele>399</ele>
        <time>2017-04-13T07:36:53.1Z</time>
      </trkpt>
      <trkpt lat="45.75012" lon="4.31243">
        <ele>400</ele>
        <time>2017-04-13T07:36:56.1Z</time>
      </trkpt>
      <trkpt lat="45.7501" lon="4.31241">
        <ele>400</ele>
        <time>2017-04-13T07:36:58.1Z</time>
      </trkpt>
      <trkpt lat="45.75008" lon="4.3124">
        <ele>400</ele>
        <time>2017-04-13T07:37:00.1Z</time>
      </trkpt>
      <trkpt lat="45.75005" lon="4.31239">
        <ele>401</ele>
        <time>2017-04-13T07:37:02.1Z</time>
      </trkpt>
      <trkpt lat="45.75002" lon="4.31238">
        <ele>401</ele>
        <time>2017-04-13T07:37:04.1Z</time>
      </trkpt>
      <trkpt lat="45.74998" lon="4.31235">
        <ele>402</ele>
        <time>2017-04-13T07:37:07.1Z</time>
      </trkpt>
      <trkpt lat="45.74996" lon="4.31234">
        <ele>402</ele>
        <time>2017-04-13T07:37:09.1Z</time>
      </trkpt>
      <trkpt lat="45.74993" lon="4.31235">
        <ele>403</ele>
        <time>2017-04-13T07:37:12.1Z</time>
      </trkpt>
      <trkpt lat="45.74991" lon="4.31237">
        <ele>403</ele>
        <time>2017-04-13T07:37:14.1Z</time>
      </trkpt>
      <trkpt lat="45.7499" lon="4.31239">
        <ele>404</ele>
        <time>2017-04-13T07:37:16.1Z</time>
      </trkpt>
      <trkpt lat="45.74989" lon="4.31242">
        <ele>404</ele>
        <time>2017-04-13T07:37:18.1Z</time>
      </trkpt>
      <trkpt lat="45.74989" lon="4.31245">
        <ele>405</ele>
        <time>2017-04-13T07:37:21.1Z</time>
      </trkpt>
      <trkpt lat="45.74988" lon="4.31247">
        <ele>405</ele>
        <time>2017-04-13T07:37:23.1Z</time>
      </trkpt>
      <trkpt lat="45.74987" lon="4.3125">
        <ele>406</ele>
        <time>2017-04-13T07:37:25.1Z</time>
      </trkpt>
      <trkpt lat="45.74986" lon="4.31253">
        <ele>406</ele>
        <time>2017-04-13T07:37:28.1Z</time>
      </trkpt>
      <trkpt lat="45.74984" lon="4.31256">
        <ele>406</ele>
        <time>2017-04-13T07:37:30.1Z</time>
      </trkpt>
      <trkpt lat="45.74983" lon="4.31258">
        <ele>406</ele>
        <time>2017-04-13T07:37:32.1Z</time>
      </trkpt>
      <trkpt lat="45.74982" lon="4.3126">
        <ele>407</ele>
        <time>2017-04-13T07:37:34.1Z</time>
      </trkpt>
      <trkpt lat="45.7498" lon="4.31263">
        <ele>407</ele>
        <time>2017-04-13T07:37:37.1Z</time>
      </trkpt>
      <trkpt lat="45.74977" lon="4.31266">
        <ele>407</ele>
        <time>2017-04-13T07:37:40.1Z</time>
      </trkpt>
      <trkpt lat="45.74975" lon="4.31268">
        <ele>407</ele>
        <time>2017-04-13T07:37:42.1Z</time>
      </trkpt>
      <trkpt lat="45.74973" lon="4.3127">
        <ele>407</ele>
        <time>2017-04-13T07:37:44.1Z</time>
      </trkpt>
      <trkpt lat="45.7497" lon="4.31273">
        <ele>408</ele>
        <time>2017-04-13T07:37:46.1Z</time>
      </trkpt>
      <trkpt lat="45.74968" lon="4.31274">
        <ele>408</ele>
        <time>2017-04-13T07:37:48.1Z</time>
      </trkpt>
      <trkpt lat="45.74965" lon="4.31276">
        <ele>409</ele>
        <time>2017-04-13T07:37:50.1Z</time>
      </trkpt>
      <trkpt lat="45.74961" lon="4.31279">
        <ele>409</ele>
        <time>2017-04-13T07:37:53.1Z</time>
      </trkpt>
      <trkpt lat="45.74958" lon="4.31281">
        <ele>410</ele>
        <time>2017-04-13T07:37:56.1Z</time>
      </trkpt>
      <trkpt lat="45.74953" lon="4.31283">
        <ele>411</ele>
        <time>2017-04-13T07:37:59.1Z</time>
      </trkpt>
      <trkpt lat="45.74951" lon="4.31284">
        <ele>411</ele>
        <time>2017-04-13T07:38:01.1Z</time>
      </trkpt>
      <trkpt lat="45.74947" lon="4.31287">
        <ele>411</ele>
        <time>2017-04-13T07:38:04.1Z</time>
      </trkpt>
      <trkpt lat="45.74944" lon="4.31288">
        <ele>411</ele>
        <time>2017-04-13T07:38:06.1Z</time>
      </trkpt>
      <trkpt lat="45.7494" lon="4.3129">
        <ele>412</ele>
        <time>2017-04-13T07:38:09.1Z</time>
      </trkpt>
      <trkpt lat="45.74937" lon="4.31291">
        <ele>412</ele>
        <time>2017-04-13T07:38:11.1Z</time>
      </trkpt>
      <trkpt lat="45.74935" lon="4.31293">
        <ele>412</ele>
        <time>2017-04-13T07:38:13.1Z</time>
      </trkpt>
      <trkpt lat="45.74931" lon="4.31295">
        <ele>412</ele>
        <time>2017-04-13T07:38:16.1Z</time>
      </trkpt>
      <trkpt lat="45.74928" lon="4.31298">
        <ele>413</ele>
        <time>2017-04-13T07:38:18.1Z</time>
      </trkpt>
      <trkpt lat="45.74925" lon="4.313">
        <ele>413</ele>
        <time>2017-04-13T07:38:21.1Z</time>
      </trkpt>
      <trkpt lat="45.74921" lon="4.31302">
        <ele>414</ele>
        <time>2017-04-13T07:38:24.1Z</time>
      </trkpt>
      <trkpt lat="45.74919" lon="4.31303">
        <ele>414</ele>
        <time>2017-04-13T07:38:26.1Z</time>
      </trkpt>
      <trkpt lat="45.74916" lon="4.31305">
        <ele>415</ele>
        <time>2017-04-13T07:38:28.1Z</time>
      </trkpt>
      <trkpt lat="45.74914" lon="4.31306">
        <ele>416</ele>
        <time>2017-04-13T07:38:30.1Z</time>
      </trkpt>
      <trkpt lat="45.74912" lon="4.31307">
        <ele>416</ele>
        <time>2017-04-13T07:38:32.1Z</time>
      </trkpt>
      <trkpt lat="45.74909" lon="4.31309">
        <ele>416</ele>
        <time>2017-04-13T07:38:34.1Z</time>
      </trkpt>
      <trkpt lat="45.74907" lon="4.31311">
        <ele>416</ele>
        <time>2017-04-13T07:38:36.1Z</time>
      </trkpt>
      <trkpt lat="45.74905" lon="4.31312">
        <ele>416</ele>
        <time>2017-04-13T07:38:38.1Z</time>
      </trkpt>
      <trkpt lat="45.74902" lon="4.31313">
        <ele>417</ele>
        <time>2017-04-13T07:38:40.1Z</time>
      </trkpt>
      <trkpt lat="45.74898" lon="4.31316">
        <ele>417</ele>
        <time>2017-04-13T07:38:43.1Z</time>
      </trkpt>
      <trkpt lat="45.74896" lon="4.31317">
        <ele>417</ele>
        <time>2017-04-13T07:38:45.1Z</time>
      </trkpt>
      <trkpt lat="45.74894" lon="4.31318">
        <ele>417</ele>
        <time>2017-04-13T07:38:47.1Z</time>
      </trkpt>
      <trkpt lat="45.7489" lon="4.3132">
        <ele>418</ele>
        <time>2017-04-13T07:38:50.1Z</time>
      </trkpt>
      <trkpt lat="45.74888" lon="4.31321">
        <ele>418</ele>
        <time>2017-04-13T07:38:52.1Z</time>
      </trkpt>
      <trkpt lat="45.74885" lon="4.31324">
        <ele>418</ele>
        <time>2017-04-13T07:38:55.1Z</time>
      </trkpt>
      <trkpt lat="45.74883" lon="4.31326">
        <ele>419</ele>
        <time>2017-04-13T07:38:57.1Z</time>
      </trkpt>
      <trkpt lat="45.74881" lon="4.31327">
        <ele>419</ele>
        <time>2017-04-13T07:38:59.1Z</time>
      </trkpt>
      <trkpt lat="45.74879" lon="4.31329">
        <ele>419</ele>
        <time>2017-04-13T07:39:01.1Z</time>
      </trkpt>
      <trkpt lat="45.74877" lon="4.3133">
        <ele>420</ele>
        <time>2017-04-13T07:39:03.1Z</time>
      </trkpt>
      <trkpt lat="45.74875" lon="4.31331">
        <ele>420</ele>
        <time>2017-04-13T07:39:05.1Z</time>
      </trkpt>
      <trkpt lat="45.74873" lon="4.31332">
        <ele>420</ele>
        <time>2017-04-13T07:39:07.1Z</time>
      </trkpt>
      <trkpt lat="45.74871" lon="4.31334">
        <ele>420</ele>
        <time>2017-04-13T07:39:09.1Z</time>
      </trkpt>
      <trkpt lat="45.74869" lon="4.31336">
        <ele>421</ele>
        <time>2017-04-13T07:39:12.1Z</time>
      </trkpt>
      <trkpt lat="45.74867" lon="4.31337">
        <ele>421</ele>
        <time>2017-04-13T07:39:14.1Z</time>
      </trkpt>
      <trkpt lat="45.74865" lon="4.31338">
        <ele>421</ele>
        <time>2017-04-13T07:39:16.1Z</time>
      </trkpt>
      <trkpt lat="45.74863" lon="4.31339">
        <ele>421</ele>
        <time>2017-04-13T07:39:18.1Z</time>
      </trkpt>
      <trkpt lat="45.74861" lon="4.3134">
        <ele>422</ele>
        <time>2017-04-13T07:39:20.1Z</time>
      </trkpt>
      <trkpt lat="45.74859" lon="4.31341">
        <ele>422</ele>
        <time>2017-04-13T07:39:22.1Z</time>
      </trkpt>
      <trkpt lat="45.74856" lon="4.31342">
        <ele>422</ele>
        <time>2017-04-13T07:39:24.1Z</time>
      </trkpt>
      <trkpt lat="45.74853" lon="4.31343">
        <ele>422</ele>
        <time>2017-04-13T07:39:26.1Z</time>
      </trkpt>
      <trkpt lat="45.74851" lon="4.31344">
        <ele>423</ele>
        <time>2017-04-13T07:39:28.1Z</time>
      </trkpt>
      <trkpt lat="45.74849" lon="4.31345">
        <ele>423</ele>
        <time>2017-04-13T07:39:30.1Z</time>
      </trkpt>
      <trkpt lat="45.74846" lon="4.31346">
        <ele>424</ele>
        <time>2017-04-13T07:39:32.1Z</time>
      </trkpt>
      <trkpt lat="45.74844" lon="4.31346">
        <ele>424</ele>
        <time>2017-04-13T07:39:34.1Z</time>
      </trkpt>
      <trkpt lat="45.7484" lon="4.31347">
        <ele>424</ele>
        <time>2017-04-13T07:39:37.1Z</time>
      </trkpt>
      <trkpt lat="45.74836" lon="4.31347">
        <ele>425</ele>
        <time>2017-04-13T07:39:40.1Z</time>
      </trkpt>
      <trkpt lat="45.74833" lon="4.31349">
        <ele>425</ele>
        <time>2017-04-13T07:39:43.1Z</time>
      </trkpt>
      <trkpt lat="45.74831" lon="4.31351">
        <ele>425</ele>
        <time>2017-04-13T07:39:45.1Z</time>
      </trkpt>
      <trkpt lat="45.74827" lon="4.31352">
        <ele>425</ele>
        <time>2017-04-13T07:39:48.1Z</time>
      </trkpt>
      <trkpt lat="45.74825" lon="4.31353">
        <ele>426</ele>
        <time>2017-04-13T07:39:50.1Z</time>
      </trkpt>
      <trkpt lat="45.74823" lon="4.31353">
        <ele>426</ele>
        <time>2017-04-13T07:39:52.1Z</time>
      </trkpt>
      <trkpt lat="45.74819" lon="4.31354">
        <ele>427</ele>
        <time>2017-04-13T07:39:55.1Z</time>
      </trkpt>
      <trkpt lat="45.74816" lon="4.31355">
        <ele>428</ele>
        <time>2017-04-13T07:39:57.1Z</time>
      </trkpt>
      <trkpt lat="45.74814" lon="4.31356">
        <ele>428</ele>
        <time>2017-04-13T07:39:59.1Z</time>
      </trkpt>
      <trkpt lat="45.7481" lon="4.31357">
        <ele>428</ele>
        <time>2017-04-13T07:40:02.1Z</time>
      </trkpt>
      <trkpt lat="45.74807" lon="4.31357">
        <ele>428</ele>
        <time>2017-04-13T07:40:04.1Z</time>
      </trkpt>
      <trkpt lat="45.74804" lon="4.31357">
        <ele>429</ele>
        <time>2017-04-13T07:40:06.1Z</time>
      </trkpt>
      <trkpt lat="45.74802" lon="4.31358">
        <ele>429</ele>
        <time>2017-04-13T07:40:08.1Z</time>
      </trkpt>
      <trkpt lat="45.74799" lon="4.31357">
        <ele>429</ele>
        <time>2017-04-13T07:40:10.1Z</time>
      </trkpt>
      <trkpt lat="45.74794" lon="4.31357">
        <ele>430</ele>
        <time>2017-04-13T07:40:13.1Z</time>
      </trkpt>
      <trkpt lat="45.74791" lon="4.31356">
        <ele>430</ele>
        <time>2017-04-13T07:40:15.1Z</time>
      </trkpt>
      <trkpt lat="45.74789" lon="4.31356">
        <ele>430</ele>
        <time>2017-04-13T07:40:17.1Z</time>
      </trkpt>
      <trkpt lat="45.74786" lon="4.31356">
        <ele>431</ele>
        <time>2017-04-13T07:40:19.1Z</time>
      </trkpt>
      <trkpt lat="45.74783" lon="4.31357">
        <ele>431</ele>
        <time>2017-04-13T07:40:21.1Z</time>
      </trkpt>
      <trkpt lat="45.74782" lon="4.31357">
        <ele>432</ele>
        <time>2017-04-13T07:40:23.1Z</time>
      </trkpt>
      <trkpt lat="45.74781" lon="4.31357">
        <ele>432</ele>
        <time>2017-04-13T07:40:25.1Z</time>
      </trkpt>
      <trkpt lat="45.74779" lon="4.31357">
        <ele>432</ele>
        <time>2017-04-13T07:40:27.1Z</time>
      </trkpt>
      <trkpt lat="45.74776" lon="4.31358">
        <ele>432</ele>
        <time>2017-04-13T07:40:30.1Z</time>
      </trkpt>
      <trkpt lat="45.74773" lon="4.31359">
        <ele>432</ele>
        <time>2017-04-13T07:40:33.1Z</time>
      </trkpt>
      <trkpt lat="45.7477" lon="4.31361">
        <ele>433</ele>
        <time>2017-04-13T07:40:35.1Z</time>
      </trkpt>
      <trkpt lat="45.74768" lon="4.31362">
        <ele>433</ele>
        <time>2017-04-13T07:40:37.1Z</time>
      </trkpt>
      <trkpt lat="45.74765" lon="4.31363">
        <ele>433</ele>
        <time>2017-04-13T07:40:39.1Z</time>
      </trkpt>
      <trkpt lat="45.74762" lon="4.31363">
        <ele>434</ele>
        <time>2017-04-13T07:40:42.1Z</time>
      </trkpt>
      <trkpt lat="45.7476" lon="4.31364">
        <ele>434</ele>
        <time>2017-04-13T07:40:44.1Z</time>
      </trkpt>
      <trkpt lat="45.74756" lon="4.31365">
        <ele>435</ele>
        <time>2017-04-13T07:40:47.1Z</time>
      </trkpt>
      <trkpt lat="45.74754" lon="4.31364">
        <ele>435</ele>
        <time>2017-04-13T07:40:49.1Z</time>
      </trkpt>
      <trkpt lat="45.74752" lon="4.31365">
        <ele>435</ele>
        <time>2017-04-13T07:40:51.1Z</time>
      </trkpt>
      <trkpt lat="45.74748" lon="4.31364">
        <ele>435</ele>
        <time>2017-04-13T07:40:54.1Z</time>
      </trkpt>
      <trkpt lat="45.74746" lon="4.31363">
        <ele>435</ele>
        <time>2017-04-13T07:40:56.1Z</time>
      </trkpt>
      <trkpt lat="45.74744" lon="4.31363">
        <ele>436</ele>
        <time>2017-04-13T07:40:58.1Z</time>
      </trkpt>
      <trkpt lat="45.74742" lon="4.31363">
        <ele>436</ele>
        <time>2017-04-13T07:41:00.1Z</time>
      </trkpt>
      <trkpt lat="45.7474" lon="4.31362">
        <ele>436</ele>
        <time>2017-04-13T07:41:02.1Z</time>
      </trkpt>
      <trkpt lat="45.74738" lon="4.31361">
        <ele>437</ele>
        <time>2017-04-13T07:41:04.1Z</time>
      </trkpt>
      <trkpt lat="45.74736" lon="4.3136">
        <ele>437</ele>
        <time>2017-04-13T07:41:06.1Z</time>
      </trkpt>
      <trkpt lat="45.74733" lon="4.31357">
        <ele>437</ele>
        <time>2017-04-13T07:41:09.1Z</time>
      </trkpt>
      <trkpt lat="45.74731" lon="4.31356">
        <ele>438</ele>
        <time>2017-04-13T07:41:11.1Z</time>
      </trkpt>
      <trkpt lat="45.74729" lon="4.31354">
        <ele>438</ele>
        <time>2017-04-13T07:41:13.1Z</time>
      </trkpt>
      <trkpt lat="45.74728" lon="4.31352">
        <ele>439</ele>
        <time>2017-04-13T07:41:15.1Z</time>
      </trkpt>
      <trkpt lat="45.74725" lon="4.31349">
        <ele>439</ele>
        <time>2017-04-13T07:41:18.1Z</time>
      </trkpt>
      <trkpt lat="45.74723" lon="4.31348">
        <ele>440</ele>
        <time>2017-04-13T07:41:20.1Z</time>
      </trkpt>
      <trkpt lat="45.74721" lon="4.31345">
        <ele>440</ele>
        <time>2017-04-13T07:41:22.1Z</time>
      </trkpt>
      <trkpt lat="45.74718" lon="4.31342">
        <ele>441</ele>
        <time>2017-04-13T07:41:25.1Z</time>
      </trkpt>
      <trkpt lat="45.74716" lon="4.3134">
        <ele>441</ele>
        <time>2017-04-13T07:41:27.1Z</time>
      </trkpt>
      <trkpt lat="45.74714" lon="4.31338">
        <ele>441</ele>
        <time>2017-04-13T07:41:29.1Z</time>
      </trkpt>
      <trkpt lat="45.74712" lon="4.31336">
        <ele>442</ele>
        <time>2017-04-13T07:41:31.1Z</time>
      </trkpt>
      <trkpt lat="45.7471" lon="4.31334">
        <ele>442</ele>
        <time>2017-04-13T07:41:33.1Z</time>
      </trkpt>
      <trkpt lat="45.74709" lon="4.31332">
        <ele>443</ele>
        <time>2017-04-13T07:41:35.1Z</time>
      </trkpt>
      <trkpt lat="45.74706" lon="4.3133">
        <ele>443</ele>
        <time>2017-04-13T07:41:37.1Z</time>
      </trkpt>
      <trkpt lat="45.74704" lon="4.31328">
        <ele>443</ele>
        <time>2017-04-13T07:41:39.1Z</time>
      </trkpt>
      <trkpt lat="45.74702" lon="4.31326">
        <ele>444</ele>
        <time>2017-04-13T07:41:41.1Z</time>
      </trkpt>
      <trkpt lat="45.74698" lon="4.31324">
        <ele>444</ele>
        <time>2017-04-13T07:41:44.1Z</time>
      </trkpt>
      <trkpt lat="45.74696" lon="4.31323">
        <ele>444</ele>
        <time>2017-04-13T07:41:46.1Z</time>
      </trkpt>
      <trkpt lat="45.74694" lon="4.31322">
        <ele>445</ele>
        <time>2017-04-13T07:41:48.1Z</time>
      </trkpt>
      <trkpt lat="45.74691" lon="4.31321">
        <ele>445</ele>
        <time>2017-04-13T07:41:50.1Z</time>
      </trkpt>
      <trkpt lat="45.74688" lon="4.31319">
        <ele>445</ele>
        <time>2017-04-13T07:41:53.1Z</time>
      </trkpt>
      <trkpt lat="45.74686" lon="4.31318">
        <ele>446</ele>
        <time>2017-04-13T07:41:55.1Z</time>
      </trkpt>
      <trkpt lat="45.74683" lon="4.31316">
        <ele>446</ele>
        <time>2017-04-13T07:41:58.1Z</time>
      </trkpt>
      <trkpt lat="45.74681" lon="4.31315">
        <ele>446</ele>
        <time>2017-04-13T07:42:00.1Z</time>
      </trkpt>
      <trkpt lat="45.74677" lon="4.31313">
        <ele>446</ele>
        <time>2017-04-13T07:42:03.1Z</time>
      </trkpt>
      <trkpt lat="45.74675" lon="4.31311">
        <ele>447</ele>
        <time>2017-04-13T07:42:05.1Z</time>
      </trkpt>
      <trkpt lat="45.74671" lon="4.31309">
        <ele>447</ele>
        <time>2017-04-13T07:42:08.1Z</time>
      </trkpt>
      <trkpt lat="45.74669" lon="4.31308">
        <ele>447</ele>
        <time>2017-04-13T07:42:10.1Z</time>
      </trkpt>
      <trkpt lat="45.74665" lon="4.31307">
        <ele>447</ele>
        <time>2017-04-13T07:42:13.1Z</time>
      </trkpt>
      <trkpt lat="45.74661" lon="4.31305">
        <ele>448</ele>
        <time>2017-04-13T07:42:16.1Z</time>
      </trkpt>
      <trkpt lat="45.74658" lon="4.31303">
        <ele>448</ele>
        <time>2017-04-13T07:42:18.1Z</time>
      </trkpt>
      <trkpt lat="45.74655" lon="4.31302">
        <ele>448</ele>
        <time>2017-04-13T07:42:21.1Z</time>
      </trkpt>
      <trkpt lat="45.74651" lon="4.313">
        <ele>449</ele>
        <time>2017-04-13T07:42:24.1Z</time>
      </trkpt>
      <trkpt lat="45.74647" lon="4.31298">
        <ele>449</ele>
        <time>2017-04-13T07:42:27.1Z</time>
      </trkpt>
      <trkpt lat="45.74645" lon="4.31297">
        <ele>449</ele>
        <time>2017-04-13T07:42:29.1Z</time>
      </trkpt>
      <trkpt lat="45.74643" lon="4.31296">
        <ele>449</ele>
        <time>2017-04-13T07:42:31.1Z</time>
      </trkpt>
      <trkpt lat="45.7464" lon="4.31294">
        <ele>449</ele>
        <time>2017-04-13T07:42:33.1Z</time>
      </trkpt>
      <trkpt lat="45.74638" lon="4.31294">
        <ele>449</ele>
        <time>2017-04-13T07:42:36.1Z</time>
      </trkpt>
      <trkpt lat="45.74635" lon="4.31294">
        <ele>449</ele>
        <time>2017-04-13T07:42:38.1Z</time>
      </trkpt>
      <trkpt lat="45.74633" lon="4.31293">
        <ele>450</ele>
        <time>2017-04-13T07:42:40.1Z</time>
      </trkpt>
      <trkpt lat="45.74631" lon="4.31293">
        <ele>450</ele>
        <time>2017-04-13T07:42:42.1Z</time>
      </trkpt>
      <trkpt lat="45.74629" lon="4.31292">
        <ele>450</ele>
        <time>2017-04-13T07:42:44.1Z</time>
      </trkpt>
      <trkpt lat="45.74627" lon="4.31293">
        <ele>450</ele>
        <time>2017-04-13T07:42:46.1Z</time>
      </trkpt>
      <trkpt lat="45.74625" lon="4.31292">
        <ele>450</ele>
        <time>2017-04-13T07:42:49.1Z</time>
      </trkpt>
      <trkpt lat="45.74625" lon="4.31291">
        <ele>450</ele>
        <time>2017-04-13T07:42:51.1Z</time>
      </trkpt>
      <trkpt lat="45.74624" lon="4.31291">
        <ele>451</ele>
        <time>2017-04-13T07:42:53.1Z</time>
      </trkpt>
      <trkpt lat="45.74623" lon="4.3129">
        <ele>451</ele>
        <time>2017-04-13T07:42:55.1Z</time>
      </trkpt>
      <trkpt lat="45.74622" lon="4.3129">
        <ele>451</ele>
        <time>2017-04-13T07:42:57.1Z</time>
      </trkpt>
      <trkpt lat="45.74621" lon="4.31289">
        <ele>451</ele>
        <time>2017-04-13T07:43:00.1Z</time>
      </trkpt>
      <trkpt lat="45.7462" lon="4.31289">
        <ele>451</ele>
        <time>2017-04-13T07:43:02.1Z</time>
      </trkpt>
      <trkpt lat="45.74618" lon="4.31288">
        <ele>451</ele>
        <time>2017-04-13T07:43:04.1Z</time>
      </trkpt>
      <trkpt lat="45.74617" lon="4.31288">
        <ele>452</ele>
        <time>2017-04-13T07:43:06.1Z</time>
      </trkpt>
      <trkpt lat="45.74615" lon="4.31287">
        <ele>452</ele>
        <time>2017-04-13T07:43:08.1Z</time>
      </trkpt>
      <trkpt lat="45.74614" lon="4.31286">
        <ele>452</ele>
        <time>2017-04-13T07:43:10.1Z</time>
      </trkpt>
      <trkpt lat="45.74612" lon="4.31286">
        <ele>452</ele>
        <time>2017-04-13T07:43:12.1Z</time>
      </trkpt>
      <trkpt lat="45.74609" lon="4.31284">
        <ele>452</ele>
        <time>2017-04-13T07:43:15.1Z</time>
      </trkpt>
      <trkpt lat="45.74606" lon="4.31283">
        <ele>452</ele>
        <time>2017-04-13T07:43:17.1Z</time>
      </trkpt>
      <trkpt lat="45.74603" lon="4.31281">
        <ele>453</ele>
        <time>2017-04-13T07:43:19.1Z</time>
      </trkpt>
      <trkpt lat="45.74598" lon="4.3128">
        <ele>453</ele>
        <time>2017-04-13T07:43:22.1Z</time>
      </trkpt>
      <trkpt lat="45.74595" lon="4.31279">
        <ele>453</ele>
        <time>2017-04-13T07:43:24.1Z</time>
      </trkpt>
      <trkpt lat="45.74592" lon="4.31278">
        <ele>453</ele>
        <time>2017-04-13T07:43:26.1Z</time>
      </trkpt>
      <trkpt lat="45.74587" lon="4.31278">
        <ele>453</ele>
        <time>2017-04-13T07:43:28.1Z</time>
      </trkpt>
      <trkpt lat="45.74582" lon="4.31277">
        <ele>453</ele>
        <time>2017-04-13T07:43:32.1Z</time>
      </trkpt>
      <trkpt lat="45.74578" lon="4.31276">
        <ele>454</ele>
        <time>2017-04-13T07:43:35.1Z</time>
      </trkpt>
      <trkpt lat="45.74575" lon="4.31274">
        <ele>454</ele>
        <time>2017-04-13T07:43:37.1Z</time>
      </trkpt>
      <trkpt lat="45.74571" lon="4.31273">
        <ele>454</ele>
        <time>2017-04-13T07:43:39.1Z</time>
      </trkpt>
      <trkpt lat="45.74569" lon="4.31272">
        <ele>454</ele>
        <time>2017-04-13T07:43:42.1Z</time>
      </trkpt>
      <trkpt lat="45.74566" lon="4.3127">
        <ele>454</ele>
        <time>2017-04-13T07:43:45.1Z</time>
      </trkpt>
      <trkpt lat="45.74564" lon="4.3127">
        <ele>454</ele>
        <time>2017-04-13T07:43:47.1Z</time>
      </trkpt>
      <trkpt lat="45.74561" lon="4.31268">
        <ele>454</ele>
        <time>2017-04-13T07:43:49.1Z</time>
      </trkpt>
      <trkpt lat="45.74559" lon="4.31267">
        <ele>454</ele>
        <time>2017-04-13T07:43:51.1Z</time>
      </trkpt>
      <trkpt lat="45.74556" lon="4.31265">
        <ele>454</ele>
        <time>2017-04-13T07:43:54.1Z</time>
      </trkpt>
      <trkpt lat="45.74554" lon="4.31264">
        <ele>454</ele>
        <time>2017-04-13T07:43:56.1Z</time>
      </trkpt>
      <trkpt lat="45.7455" lon="4.31261">
        <ele>454</ele>
        <time>2017-04-13T07:43:58.1Z</time>
      </trkpt>
      <trkpt lat="45.74547" lon="4.3126">
        <ele>454</ele>
        <time>2017-04-13T07:44:00.1Z</time>
      </trkpt>
      <trkpt lat="45.74544" lon="4.31259">
        <ele>454</ele>
        <time>2017-04-13T07:44:03.1Z</time>
      </trkpt>
      <trkpt lat="45.74541" lon="4.31258">
        <ele>454</ele>
        <time>2017-04-13T07:44:05.1Z</time>
      </trkpt>
      <trkpt lat="45.74539" lon="4.31257">
        <ele>454</ele>
        <time>2017-04-13T07:44:07.1Z</time>
      </trkpt>
      <trkpt lat="45.74535" lon="4.31257">
        <ele>454</ele>
        <time>2017-04-13T07:44:09.1Z</time>
      </trkpt>
      <trkpt lat="45.74532" lon="4.31258">
        <ele>454</ele>
        <time>2017-04-13T07:44:11.1Z</time>
      </trkpt>
      <trkpt lat="45.74529" lon="4.3126">
        <ele>455</ele>
        <time>2017-04-13T07:44:14.1Z</time>
      </trkpt>
      <trkpt lat="45.74526" lon="4.31262">
        <ele>455</ele>
        <time>2017-04-13T07:44:16.1Z</time>
      </trkpt>
      <trkpt lat="45.74523" lon="4.31267">
        <ele>455</ele>
        <time>2017-04-13T07:44:18.1Z</time>
      </trkpt>
      <trkpt lat="45.7452" lon="4.31271">
        <ele>455</ele>
        <time>2017-04-13T07:44:22.1Z</time>
      </trkpt>
      <trkpt lat="45.74519" lon="4.31272">
        <ele>455</ele>
        <time>2017-04-13T07:44:24.1Z</time>
      </trkpt>
      <trkpt lat="45.74519" lon="4.31273">
        <ele>455</ele>
        <time>2017-04-13T07:44:26.1Z</time>
      </trkpt>
      <trkpt lat="45.74517" lon="4.31276">
        <ele>455</ele>
        <time>2017-04-13T07:44:28.1Z</time>
      </trkpt>
      <trkpt lat="45.74515" lon="4.31281">
        <ele>455</ele>
        <time>2017-04-13T07:44:30.1Z</time>
      </trkpt>
      <trkpt lat="45.74514" lon="4.31286">
        <ele>456</ele>
        <time>2017-04-13T07:44:34.1Z</time>
      </trkpt>
      <trkpt lat="45.74513" lon="4.3129">
        <ele>456</ele>
        <time>2017-04-13T07:44:36.1Z</time>
      </trkpt>
      <trkpt lat="45.74512" lon="4.31293">
        <ele>457</ele>
        <time>2017-04-13T07:44:38.1Z</time>
      </trkpt>
      <trkpt lat="45.74511" lon="4.31297">
        <ele>457</ele>
        <time>2017-04-13T07:44:40.1Z</time>
      </trkpt>
      <trkpt lat="45.74511" lon="4.31302">
        <ele>457</ele>
        <time>2017-04-13T07:44:42.1Z</time>
      </trkpt>
      <trkpt lat="45.74511" lon="4.31306">
        <ele>458</ele>
        <time>2017-04-13T07:44:44.1Z</time>
      </trkpt>
      <trkpt lat="45.74512" lon="4.31309">
        <ele>458</ele>
        <time>2017-04-13T07:44:46.1Z</time>
      </trkpt>
      <trkpt lat="45.74512" lon="4.31313">
        <ele>458</ele>
        <time>2017-04-13T07:44:48.1Z</time>
      </trkpt>
      <trkpt lat="45.74512" lon="4.31317">
        <ele>459</ele>
        <time>2017-04-13T07:44:50.1Z</time>
      </trkpt>
      <trkpt lat="45.74512" lon="4.3132">
        <ele>459</ele>
        <time>2017-04-13T07:44:52.1Z</time>
      </trkpt>
      <trkpt lat="45.74512" lon="4.31325">
        <ele>459</ele>
        <time>2017-04-13T07:44:54.1Z</time>
      </trkpt>
      <trkpt lat="45.74512" lon="4.31329">
        <ele>460</ele>
        <time>2017-04-13T07:44:56.1Z</time>
      </trkpt>
      <trkpt lat="45.74512" lon="4.31333">
        <ele>460</ele>
        <time>2017-04-13T07:44:58.1Z</time>
      </trkpt>
      <trkpt lat="45.74512" lon="4.31337">
        <ele>460</ele>
        <time>2017-04-13T07:45:00.1Z</time>
      </trkpt>
      <trkpt lat="45.74512" lon="4.31341">
        <ele>460</ele>
        <time>2017-04-13T07:45:03.1Z</time>
      </trkpt>
      <trkpt lat="45.74511" lon="4.31346">
        <ele>461</ele>
        <time>2017-04-13T07:45:05.1Z</time>
      </trkpt>
      <trkpt lat="45.74512" lon="4.31349">
        <ele>461</ele>
        <time>2017-04-13T07:45:07.1Z</time>
      </trkpt>
      <trkpt lat="45.74512" lon="4.31352">
        <ele>461</ele>
        <time>2017-04-13T07:45:09.1Z</time>
      </trkpt>
      <trkpt lat="45.74512" lon="4.31357">
        <ele>461</ele>
        <time>2017-04-13T07:45:13.1Z</time>
      </trkpt>
      <trkpt lat="45.74512" lon="4.31362">
        <ele>462</ele>
        <time>2017-04-13T07:45:16.1Z</time>
      </trkpt>
      <trkpt lat="45.74512" lon="4.31367">
        <ele>462</ele>
        <time>2017-04-13T07:45:19.1Z</time>
      </trkpt>
      <trkpt lat="45.74511" lon="4.31372">
        <ele>462</ele>
        <time>2017-04-13T07:45:21.1Z</time>
      </trkpt>
      <trkpt lat="45.7451" lon="4.31376">
        <ele>462</ele>
        <time>2017-04-13T07:45:24.1Z</time>
      </trkpt>
      <trkpt lat="45.74509" lon="4.31379">
        <ele>463</ele>
        <time>2017-04-13T07:45:26.1Z</time>
      </trkpt>
      <trkpt lat="45.74506" lon="4.31382">
        <ele>463</ele>
        <time>2017-04-13T07:45:29.1Z</time>
      </trkpt>
      <trkpt lat="45.74505" lon="4.31384">
        <ele>463</ele>
        <time>2017-04-13T07:45:31.1Z</time>
      </trkpt>
      <trkpt lat="45.74503" lon="4.31388">
        <ele>463</ele>
        <time>2017-04-13T07:45:33.1Z</time>
      </trkpt>
      <trkpt lat="45.74501" lon="4.31391">
        <ele>463</ele>
        <time>2017-04-13T07:45:35.1Z</time>
      </trkpt>
      <trkpt lat="45.74499" lon="4.31394">
        <ele>464</ele>
        <time>2017-04-13T07:45:37.1Z</time>
      </trkpt>
      <trkpt lat="45.74497" lon="4.31397">
        <ele>464</ele>
        <time>2017-04-13T07:45:41.1Z</time>
      </trkpt>
      <trkpt lat="45.74494" lon="4.31401">
        <ele>464</ele>
        <time>2017-04-13T07:45:43.1Z</time>
      </trkpt>
      <trkpt lat="45.74492" lon="4.31403">
        <ele>464</ele>
        <time>2017-04-13T07:45:46.1Z</time>
      </trkpt>
      <trkpt lat="45.74489" lon="4.31407">
        <ele>464</ele>
        <time>2017-04-13T07:45:49.1Z</time>
      </trkpt>
      <trkpt lat="45.74487" lon="4.3141">
        <ele>464</ele>
        <time>2017-04-13T07:45:51.1Z</time>
      </trkpt>
      <trkpt lat="45.74484" lon="4.31414">
        <ele>464</ele>
        <time>2017-04-13T07:45:53.1Z</time>
      </trkpt>
      <trkpt lat="45.74482" lon="4.31417">
        <ele>465</ele>
        <time>2017-04-13T07:45:57.1Z</time>
      </trkpt>
      <trkpt lat="45.7448" lon="4.3142">
        <ele>465</ele>
        <time>2017-04-13T07:45:59.1Z</time>
      </trkpt>
      <trkpt lat="45.74478" lon="4.31424">
        <ele>465</ele>
        <time>2017-04-13T07:46:01.1Z</time>
      </trkpt>
      <trkpt lat="45.74476" lon="4.31427">
        <ele>465</ele>
        <time>2017-04-13T07:46:03.1Z</time>
      </trkpt>
      <trkpt lat="45.74474" lon="4.3143">
        <ele>465</ele>
        <time>2017-04-13T07:46:05.1Z</time>
      </trkpt>
      <trkpt lat="45.74473" lon="4.31432">
        <ele>465</ele>
        <time>2017-04-13T07:46:08.1Z</time>
      </trkpt>
      <trkpt lat="45.74471" lon="4.31435">
        <ele>465</ele>
        <time>2017-04-13T07:46:10.1Z</time>
      </trkpt>
      <trkpt lat="45.7447" lon="4.31438">
        <ele>465</ele>
        <time>2017-04-13T07:46:12.1Z</time>
      </trkpt>
      <trkpt lat="45.74469" lon="4.31442">
        <ele>465</ele>
        <time>2017-04-13T07:46:14.1Z</time>
      </trkpt>
      <trkpt lat="45.74469" lon="4.31446">
        <ele>464</ele>
        <time>2017-04-13T07:46:16.1Z</time>
      </trkpt>
      <trkpt lat="45.74467" lon="4.31451">
        <ele>464</ele>
        <time>2017-04-13T07:46:18.1Z</time>
      </trkpt>
      <trkpt lat="45.74466" lon="4.31454">
        <ele>464</ele>
        <time>2017-04-13T07:46:21.1Z</time>
      </trkpt>
      <trkpt lat="45.74464" lon="4.31459">
        <ele>464</ele>
        <time>2017-04-13T07:46:23.1Z</time>
      </trkpt>
      <trkpt lat="45.74462" lon="4.31464">
        <ele>463</ele>
        <time>2017-04-13T07:46:27.1Z</time>
      </trkpt>
      <trkpt lat="45.7446" lon="4.31469">
        <ele>463</ele>
        <time>2017-04-13T07:46:29.1Z</time>
      </trkpt>
      <trkpt lat="45.74458" lon="4.31472">
        <ele>463</ele>
        <time>2017-04-13T07:46:31.1Z</time>
      </trkpt>
      <trkpt lat="45.74456" lon="4.31477">
        <ele>463</ele>
        <time>2017-04-13T07:46:35.1Z</time>
      </trkpt>
      <trkpt lat="45.74456" lon="4.31481">
        <ele>463</ele>
        <time>2017-04-13T07:46:37.1Z</time>
      </trkpt>
      <trkpt lat="45.74453" lon="4.31486">
        <ele>462</ele>
        <time>2017-04-13T07:46:39.1Z</time>
      </trkpt>
      <trkpt lat="45.74452" lon="4.31489">
        <ele>462</ele>
        <time>2017-04-13T07:46:42.1Z</time>
      </trkpt>
      <trkpt lat="45.74451" lon="4.31494">
        <ele>462</ele>
        <time>2017-04-13T07:46:44.1Z</time>
      </trkpt>
      <trkpt lat="45.74449" lon="4.31497">
        <ele>461</ele>
        <time>2017-04-13T07:46:47.1Z</time>
      </trkpt>
      <trkpt lat="45.74446" lon="4.31501">
        <ele>461</ele>
        <time>2017-04-13T07:46:49.1Z</time>
      </trkpt>
      <trkpt lat="45.74444" lon="4.31504">
        <ele>461</ele>
        <time>2017-04-13T07:46:52.1Z</time>
      </trkpt>
      <trkpt lat="45.74442" lon="4.31506">
        <ele>460</ele>
        <time>2017-04-13T07:46:54.1Z</time>
      </trkpt>
      <trkpt lat="45.74438" lon="4.31509">
        <ele>460</ele>
        <time>2017-04-13T07:46:56.1Z</time>
      </trkpt>
      <trkpt lat="45.74436" lon="4.31511">
        <ele>460</ele>
        <time>2017-04-13T07:46:58.1Z</time>
      </trkpt>
      <trkpt lat="45.74434" lon="4.31513">
        <ele>460</ele>
        <time>2017-04-13T07:47:00.1Z</time>
      </trkpt>
      <trkpt lat="45.7443" lon="4.31516">
        <ele>459</ele>
        <time>2017-04-13T07:47:03.1Z</time>
      </trkpt>
      <trkpt lat="45.74428" lon="4.31518">
        <ele>459</ele>
        <time>2017-04-13T07:47:06.1Z</time>
      </trkpt>
      <trkpt lat="45.74426" lon="4.31519">
        <ele>459</ele>
        <time>2017-04-13T07:47:08.1Z</time>
      </trkpt>
      <trkpt lat="45.74422" lon="4.31521">
        <ele>458</ele>
        <time>2017-04-13T07:47:10.1Z</time>
      </trkpt>
      <trkpt lat="45.74419" lon="4.31523">
        <ele>458</ele>
        <time>2017-04-13T07:47:13.1Z</time>
      </trkpt>
      <trkpt lat="45.74417" lon="4.31525">
        <ele>457</ele>
        <time>2017-04-13T07:47:16.1Z</time>
      </trkpt>
      <trkpt lat="45.74414" lon="4.31527">
        <ele>457</ele>
        <time>2017-04-13T07:47:20.1Z</time>
      </trkpt>
      <trkpt lat="45.74411" lon="4.31529">
        <ele>457</ele>
        <time>2017-04-13T07:47:22.1Z</time>
      </trkpt>
      <trkpt lat="45.74409" lon="4.3153">
        <ele>456</ele>
        <time>2017-04-13T07:47:24.1Z</time>
      </trkpt>
      <trkpt lat="45.74408" lon="4.3153">
        <ele>456</ele>
        <time>2017-04-13T07:47:27.1Z</time>
      </trkpt>
      <trkpt lat="45.74405" lon="4.31531">
        <ele>455</ele>
        <time>2017-04-13T07:47:29.1Z</time>
      </trkpt>
      <trkpt lat="45.74403" lon="4.31531">
        <ele>455</ele>
        <time>2017-04-13T07:47:31.1Z</time>
      </trkpt>
      <trkpt lat="45.744" lon="4.31533">
        <ele>455</ele>
        <time>2017-04-13T07:47:33.1Z</time>
      </trkpt>
      <trkpt lat="45.74398" lon="4.31534">
        <ele>454</ele>
        <time>2017-04-13T07:47:35.1Z</time>
      </trkpt>
      <trkpt lat="45.74396" lon="4.31536">
        <ele>454</ele>
        <time>2017-04-13T07:47:37.1Z</time>
      </trkpt>
      <trkpt lat="45.74394" lon="4.31536">
        <ele>454</ele>
        <time>2017-04-13T07:47:40.1Z</time>
      </trkpt>
      <trkpt lat="45.74393" lon="4.31536">
        <ele>453</ele>
        <time>2017-04-13T07:47:43.1Z</time>
      </trkpt>
      <trkpt lat="45.74391" lon="4.31537">
        <ele>453</ele>
        <time>2017-04-13T07:47:46.1Z</time>
      </trkpt>
      <trkpt lat="45.74388" lon="4.31537">
        <ele>452</ele>
        <time>2017-04-13T07:47:48.1Z</time>
      </trkpt>
      <trkpt lat="45.74384" lon="4.31537">
        <ele>452</ele>
        <time>2017-04-13T07:47:52.1Z</time>
      </trkpt>
      <trkpt lat="45.74381" lon="4.31535">
        <ele>451</ele>
        <time>2017-04-13T07:47:55.1Z</time>
      </trkpt>
      <trkpt lat="45.74378" lon="4.31532">
        <ele>451</ele>
        <time>2017-04-13T07:47:57.1Z</time>
      </trkpt>
      <trkpt lat="45.74375" lon="4.3153">
        <ele>450</ele>
        <time>2017-04-13T07:47:59.1Z</time>
      </trkpt>
      <trkpt lat="45.74371" lon="4.31529">
        <ele>449</ele>
        <time>2017-04-13T07:48:02.1Z</time>
      </trkpt>
      <trkpt lat="45.74368" lon="4.31531">
        <ele>449</ele>
        <time>2017-04-13T07:48:05.1Z</time>
      </trkpt>
      <trkpt lat="45.74366" lon="4.31533">
        <ele>449</ele>
        <time>2017-04-13T07:48:07.1Z</time>
      </trkpt>
      <trkpt lat="45.74365" lon="4.31536">
        <ele>448</ele>
        <time>2017-04-13T07:48:10.1Z</time>
      </trkpt>
      <trkpt lat="45.74364" lon="4.3154">
        <ele>448</ele>
        <time>2017-04-13T07:48:12.1Z</time>
      </trkpt>
      <trkpt lat="45.74363" lon="4.31543">
        <ele>447</ele>
        <time>2017-04-13T07:48:14.1Z</time>
      </trkpt>
      <trkpt lat="45.74361" lon="4.31549">
        <ele>447</ele>
        <time>2017-04-13T07:48:16.1Z</time>
      </trkpt>
      <trkpt lat="45.74359" lon="4.31552">
        <ele>447</ele>
        <time>2017-04-13T07:48:18.1Z</time>
      </trkpt>
      <trkpt lat="45.74358" lon="4.31555">
        <ele>447</ele>
        <time>2017-04-13T07:48:20.1Z</time>
      </trkpt>
      <trkpt lat="45.74357" lon="4.31559">
        <ele>446</ele>
        <time>2017-04-13T07:48:22.1Z</time>
      </trkpt>
      <trkpt lat="45.74355" lon="4.31562">
        <ele>446</ele>
        <time>2017-04-13T07:48:24.1Z</time>
      </trkpt>
      <trkpt lat="45.74354" lon="4.31566">
        <ele>446</ele>
        <time>2017-04-13T07:48:26.1Z</time>
      </trkpt>
      <trkpt lat="45.74352" lon="4.31569">
        <ele>446</ele>
        <time>2017-04-13T07:48:28.1Z</time>
      </trkpt>
      <trkpt lat="45.74351" lon="4.31572">
        <ele>447</ele>
        <time>2017-04-13T07:48:30.1Z</time>
      </trkpt>
      <trkpt lat="45.74349" lon="4.31576">
        <ele>447</ele>
        <time>2017-04-13T07:48:32.1Z</time>
      </trkpt>
      <trkpt lat="45.74348" lon="4.3158">
        <ele>447</ele>
        <time>2017-04-13T07:48:35.1Z</time>
      </trkpt>
      <trkpt lat="45.74345" lon="4.31585">
        <ele>447</ele>
        <time>2017-04-13T07:48:37.1Z</time>
      </trkpt>
      <trkpt lat="45.74343" lon="4.31588">
        <ele>447</ele>
        <time>2017-04-13T07:48:39.1Z</time>
      </trkpt>
      <trkpt lat="45.74342" lon="4.31592">
        <ele>447</ele>
        <time>2017-04-13T07:48:42.1Z</time>
      </trkpt>
      <trkpt lat="45.7434" lon="4.31595">
        <ele>448</ele>
        <time>2017-04-13T07:48:44.1Z</time>
      </trkpt>
      <trkpt lat="45.74336" lon="4.316">
        <ele>448</ele>
        <time>2017-04-13T07:48:46.1Z</time>
      </trkpt>
      <trkpt lat="45.74334" lon="4.31603">
        <ele>448</ele>
        <time>2017-04-13T07:48:48.1Z</time>
      </trkpt>
      <trkpt lat="45.74331" lon="4.31607">
        <ele>448</ele>
        <time>2017-04-13T07:48:51.1Z</time>
      </trkpt>
      <trkpt lat="45.74329" lon="4.3161">
        <ele>449</ele>
        <time>2017-04-13T07:48:53.1Z</time>
      </trkpt>
      <trkpt lat="45.74326" lon="4.31614">
        <ele>449</ele>
        <time>2017-04-13T07:48:56.1Z</time>
      </trkpt>
      <trkpt lat="45.74324" lon="4.31617">
        <ele>449</ele>
        <time>2017-04-13T07:48:59.1Z</time>
      </trkpt>
      <trkpt lat="45.74322" lon="4.3162">
        <ele>450</ele>
        <time>2017-04-13T07:49:01.1Z</time>
      </trkpt>
      <trkpt lat="45.74319" lon="4.31623">
        <ele>450</ele>
        <time>2017-04-13T07:49:03.1Z</time>
      </trkpt>
      <trkpt lat="45.74317" lon="4.31627">
        <ele>451</ele>
        <time>2017-04-13T07:49:06.1Z</time>
      </trkpt>
      <trkpt lat="45.74314" lon="4.31631">
        <ele>451</ele>
        <time>2017-04-13T07:49:09.1Z</time>
      </trkpt>
      <trkpt lat="45.74312" lon="4.31635">
        <ele>451</ele>
        <time>2017-04-13T07:49:12.1Z</time>
      </trkpt>
      <trkpt lat="45.74309" lon="4.31638">
        <ele>452</ele>
        <time>2017-04-13T07:49:15.1Z</time>
      </trkpt>
      <trkpt lat="45.74308" lon="4.31641">
        <ele>452</ele>
        <time>2017-04-13T07:49:17.1Z</time>
      </trkpt>
      <trkpt lat="45.74306" lon="4.31644">
        <ele>452</ele>
        <time>2017-04-13T07:49:19.1Z</time>
      </trkpt>
      <trkpt lat="45.74305" lon="4.31646">
        <ele>453</ele>
        <time>2017-04-13T07:49:22.1Z</time>
      </trkpt>
      <trkpt lat="45.74303" lon="4.31649">
        <ele>453</ele>
        <time>2017-04-13T07:49:24.1Z</time>
      </trkpt>
      <trkpt lat="45.743" lon="4.31653">
        <ele>454</ele>
        <time>2017-04-13T07:49:26.1Z</time>
      </trkpt>
      <trkpt lat="45.74298" lon="4.31655">
        <ele>454</ele>
        <time>2017-04-13T07:49:29.1Z</time>
      </trkpt>
      <trkpt lat="45.74296" lon="4.31659">
        <ele>454</ele>
        <time>2017-04-13T07:49:31.1Z</time>
      </trkpt>
      <trkpt lat="45.74295" lon="4.31662">
        <ele>454</ele>
        <time>2017-04-13T07:49:33.1Z</time>
      </trkpt>
      <trkpt lat="45.74293" lon="4.31664">
        <ele>455</ele>
        <time>2017-04-13T07:49:35.1Z</time>
      </trkpt>
      <trkpt lat="45.74291" lon="4.31667">
        <ele>455</ele>
        <time>2017-04-13T07:49:38.1Z</time>
      </trkpt>
      <trkpt lat="45.74288" lon="4.31671">
        <ele>455</ele>
        <time>2017-04-13T07:49:40.1Z</time>
      </trkpt>
      <trkpt lat="45.74287" lon="4.31673">
        <ele>455</ele>
        <time>2017-04-13T07:49:42.1Z</time>
      </trkpt>
      <trkpt lat="45.74284" lon="4.31677">
        <ele>456</ele>
        <time>2017-04-13T07:49:45.1Z</time>
      </trkpt>
      <trkpt lat="45.74282" lon="4.3168">
        <ele>456</ele>
        <time>2017-04-13T07:49:48.1Z</time>
      </trkpt>
      <trkpt lat="45.74281" lon="4.31682">
        <ele>456</ele>
        <time>2017-04-13T07:49:50.1Z</time>
      </trkpt>
      <trkpt lat="45.74278" lon="4.31686">
        <ele>456</ele>
        <time>2017-04-13T07:49:52.1Z</time>
      </trkpt>
      <trkpt lat="45.74276" lon="4.31688">
        <ele>457</ele>
        <time>2017-04-13T07:49:54.1Z</time>
      </trkpt>
      <trkpt lat="45.74275" lon="4.31691">
        <ele>457</ele>
        <time>2017-04-13T07:49:56.1Z</time>
      </trkpt>
      <trkpt lat="45.74273" lon="4.31693">
        <ele>457</ele>
        <time>2017-04-13T07:49:58.1Z</time>
      </trkpt>
      <trkpt lat="45.74271" lon="4.31697">
        <ele>458</ele>
        <time>2017-04-13T07:50:01.1Z</time>
      </trkpt>
      <trkpt lat="45.74269" lon="4.31699">
        <ele>458</ele>
        <time>2017-04-13T07:50:03.1Z</time>
      </trkpt>
      <trkpt lat="45.74267" lon="4.31702">
        <ele>459</ele>
        <time>2017-04-13T07:50:05.1Z</time>
      </trkpt>
      <trkpt lat="45.74265" lon="4.31706">
        <ele>459</ele>
        <time>2017-04-13T07:50:08.1Z</time>
      </trkpt>
      <trkpt lat="45.74263" lon="4.31708">
        <ele>459</ele>
        <time>2017-04-13T07:50:11.1Z</time>
      </trkpt>
      <trkpt lat="45.74261" lon="4.3171">
        <ele>459</ele>
        <time>2017-04-13T07:50:13.1Z</time>
      </trkpt>
      <trkpt lat="45.74258" lon="4.31714">
        <ele>459</ele>
        <time>2017-04-13T07:50:15.1Z</time>
      </trkpt>
      <trkpt lat="45.74257" lon="4.31717">
        <ele>460</ele>
        <time>2017-04-13T07:50:17.1Z</time>
      </trkpt>
      <trkpt lat="45.74255" lon="4.31719">
        <ele>460</ele>
        <time>2017-04-13T07:50:20.1Z</time>
      </trkpt>
      <trkpt lat="45.74252" lon="4.31722">
        <ele>460</ele>
        <time>2017-04-13T07:50:22.1Z</time>
      </trkpt>
      <trkpt lat="45.7425" lon="4.31724">
        <ele>460</ele>
        <time>2017-04-13T07:50:24.1Z</time>
      </trkpt>
      <trkpt lat="45.74249" lon="4.31726">
        <ele>460</ele>
        <time>2017-04-13T07:50:27.1Z</time>
      </trkpt>
      <trkpt lat="45.74245" lon="4.31729">
        <ele>461</ele>
        <time>2017-04-13T07:50:29.1Z</time>
      </trkpt>
      <trkpt lat="45.74243" lon="4.31731">
        <ele>461</ele>
        <time>2017-04-13T07:50:32.1Z</time>
      </trkpt>
      <trkpt lat="45.7424" lon="4.31733">
        <ele>461</ele>
        <time>2017-04-13T07:50:34.1Z</time>
      </trkpt>
      <trkpt lat="45.74239" lon="4.31735">
        <ele>461</ele>
        <time>2017-04-13T07:50:36.1Z</time>
      </trkpt>
      <trkpt lat="45.74237" lon="4.31737">
        <ele>461</ele>
        <time>2017-04-13T07:50:38.1Z</time>
      </trkpt>
      <trkpt lat="45.74233" lon="4.3174">
        <ele>461</ele>
        <time>2017-04-13T07:50:40.1Z</time>
      </trkpt>
      <trkpt lat="45.74231" lon="4.31742">
        <ele>461</ele>
        <time>2017-04-13T07:50:42.1Z</time>
      </trkpt>
      <trkpt lat="45.74228" lon="4.31746">
        <ele>461</ele>
        <time>2017-04-13T07:50:45.1Z</time>
      </trkpt>
      <trkpt lat="45.74225" lon="4.31749">
        <ele>461</ele>
        <time>2017-04-13T07:50:48.1Z</time>
      </trkpt>
      <trkpt lat="45.74223" lon="4.31751">
        <ele>461</ele>
        <time>2017-04-13T07:50:51.1Z</time>
      </trkpt>
      <trkpt lat="45.7422" lon="4.31754">
        <ele>461</ele>
        <time>2017-04-13T07:50:53.1Z</time>
      </trkpt>
      <trkpt lat="45.74217" lon="4.31757">
        <ele>461</ele>
        <time>2017-04-13T07:50:56.1Z</time>
      </trkpt>
      <trkpt lat="45.74215" lon="4.31759">
        <ele>461</ele>
        <time>2017-04-13T07:50:58.1Z</time>
      </trkpt>
      <trkpt lat="45.74212" lon="4.31763">
        <ele>461</ele>
        <time>2017-04-13T07:51:00.1Z</time>
      </trkpt>
      <trkpt lat="45.74209" lon="4.31765">
        <ele>461</ele>
        <time>2017-04-13T07:51:02.1Z</time>
      </trkpt>
      <trkpt lat="45.74207" lon="4.31767">
        <ele>461</ele>
        <time>2017-04-13T07:51:05.1Z</time>
      </trkpt>
      <trkpt lat="45.74204" lon="4.3177">
        <ele>461</ele>
        <time>2017-04-13T07:51:07.1Z</time>
      </trkpt>
      <trkpt lat="45.74201" lon="4.31774">
        <ele>461</ele>
        <time>2017-04-13T07:51:10.1Z</time>
      </trkpt>
      <trkpt lat="45.74199" lon="4.31776">
        <ele>461</ele>
        <time>2017-04-13T07:51:12.1Z</time>
      </trkpt>
      <trkpt lat="45.74196" lon="4.31779">
        <ele>461</ele>
        <time>2017-04-13T07:51:15.1Z</time>
      </trkpt>
      <trkpt lat="45.74194" lon="4.31781">
        <ele>460</ele>
        <time>2017-04-13T07:51:18.1Z</time>
      </trkpt>
      <trkpt lat="45.74193" lon="4.31783">
        <ele>460</ele>
        <time>2017-04-13T07:51:21.1Z</time>
      </trkpt>
      <trkpt lat="45.74191" lon="4.31784">
        <ele>460</ele>
        <time>2017-04-13T07:51:23.1Z</time>
      </trkpt>
      <trkpt lat="45.74189" lon="4.31787">
        <ele>460</ele>
        <time>2017-04-13T07:51:25.1Z</time>
      </trkpt>
      <trkpt lat="45.74188" lon="4.3179">
        <ele>460</ele>
        <time>2017-04-13T07:51:27.1Z</time>
      </trkpt>
      <trkpt lat="45.74188" lon="4.31791">
        <ele>460</ele>
        <time>2017-04-13T07:51:30.1Z</time>
      </trkpt>
      <trkpt lat="45.74188" lon="4.31791">
        <ele>460</ele>
        <time>2017-04-13T07:51:33.1Z</time>
      </trkpt>
      <trkpt lat="45.74188" lon="4.31791">
        <ele>459</ele>
        <time>2017-04-13T07:51:35.1Z</time>
      </trkpt>
      <trkpt lat="45.74189" lon="4.31793">
        <ele>459</ele>
        <time>2017-04-13T07:51:37.1Z</time>
      </trkpt>
      <trkpt lat="45.74189" lon="4.31793">
        <ele>459</ele>
        <time>2017-04-13T07:51:42.1Z</time>
      </trkpt>
      <trkpt lat="45.74189" lon="4.31793">
        <ele>459</ele>
        <time>2017-04-13T07:51:44.1Z</time>
      </trkpt>
      <trkpt lat="45.74189" lon="4.31793">
        <ele>459</ele>
        <time>2017-04-13T07:51:47.1Z</time>
      </trkpt>
      <trkpt lat="45.74189" lon="4.31794">
        <ele>459</ele>
        <time>2017-04-13T07:51:49.1Z</time>
      </trkpt>
      <trkpt lat="45.74189" lon="4.31794">
        <ele>458</ele>
        <time>2017-04-13T07:51:51.1Z</time>
      </trkpt>
      <trkpt lat="45.74189" lon="4.31794">
        <ele>458</ele>
        <time>2017-04-13T07:51:54.1Z</time>
      </trkpt>
      <trkpt lat="45.74189" lon="4.31794">
        <ele>459</ele>
        <time>2017-04-13T07:51:58.1Z</time>
      </trkpt>
      <trkpt lat="45.74189" lon="4.31794">
        <ele>459</ele>
        <time>2017-04-13T07:52:00.1Z</time>
      </trkpt>
      <trkpt lat="45.74188" lon="4.31794">
        <ele>459</ele>
        <time>2017-04-13T07:52:03.1Z</time>
      </trkpt>
      <trkpt lat="45.74188" lon="4.31794">
        <ele>459</ele>
        <time>2017-04-13T07:52:05.1Z</time>
      </trkpt>
      <trkpt lat="45.74188" lon="4.31794">
        <ele>460</ele>
        <time>2017-04-13T07:52:07.1Z</time>
      </trkpt>
      <trkpt lat="45.74188" lon="4.31795">
        <ele>460</ele>
        <time>2017-04-13T07:52:09.1Z</time>
      </trkpt>
      <trkpt lat="45.74187" lon="4.31796">
        <ele>460</ele>
        <time>2017-04-13T07:52:11.1Z</time>
      </trkpt>
      <trkpt lat="45.74187" lon="4.31798">
        <ele>460</ele>
        <time>2017-04-13T07:52:14.1Z</time>
      </trkpt>
      <trkpt lat="45.74188" lon="4.31801">
        <ele>459</ele>
        <time>2017-04-13T07:52:16.1Z</time>
      </trkpt>
      <trkpt lat="45.74187" lon="4.31804">
        <ele>459</ele>
        <time>2017-04-13T07:52:18.1Z</time>
      </trkpt>
      <trkpt lat="45.74187" lon="4.31807">
        <ele>459</ele>
        <time>2017-04-13T07:52:21.1Z</time>
      </trkpt>
      <trkpt lat="45.74187" lon="4.31811">
        <ele>459</ele>
        <time>2017-04-13T07:52:23.1Z</time>
      </trkpt>
      <trkpt lat="45.74188" lon="4.31814">
        <ele>458</ele>
        <time>2017-04-13T07:52:25.1Z</time>
      </trkpt>
      <trkpt lat="45.74189" lon="4.31818">
        <ele>458</ele>
        <time>2017-04-13T07:52:27.1Z</time>
      </trkpt>
      <trkpt lat="45.74189" lon="4.31821">
        <ele>458</ele>
        <time>2017-04-13T07:52:29.1Z</time>
      </trkpt>
      <trkpt lat="45.7419" lon="4.31823">
        <ele>457</ele>
        <time>2017-04-13T07:52:32.1Z</time>
      </trkpt>
      <trkpt lat="45.74191" lon="4.31827">
        <ele>457</ele>
        <time>2017-04-13T07:52:34.1Z</time>
      </trkpt>
      <trkpt lat="45.74191" lon="4.3183">
        <ele>456</ele>
        <time>2017-04-13T07:52:37.1Z</time>
      </trkpt>
      <trkpt lat="45.74191" lon="4.31833">
        <ele>456</ele>
        <time>2017-04-13T07:52:39.1Z</time>
      </trkpt>
      <trkpt lat="45.74193" lon="4.31837">
        <ele>456</ele>
        <time>2017-04-13T07:52:42.1Z</time>
      </trkpt>
      <trkpt lat="45.74194" lon="4.31839">
        <ele>456</ele>
        <time>2017-04-13T07:52:45.1Z</time>
      </trkpt>
      <trkpt lat="45.74196" lon="4.31844">
        <ele>456</ele>
        <time>2017-04-13T07:52:47.1Z</time>
      </trkpt>
      <trkpt lat="45.74197" lon="4.31847">
        <ele>456</ele>
        <time>2017-04-13T07:52:49.1Z</time>
      </trkpt>
      <trkpt lat="45.74198" lon="4.3185">
        <ele>455</ele>
        <time>2017-04-13T07:52:51.1Z</time>
      </trkpt>
      <trkpt lat="45.74199" lon="4.31853">
        <ele>455</ele>
        <time>2017-04-13T07:52:53.1Z</time>
      </trkpt>
      <trkpt lat="45.74201" lon="4.31855">
        <ele>454</ele>
        <time>2017-04-13T07:52:57.1Z</time>
      </trkpt>
      <trkpt lat="45.74204" lon="4.31858">
        <ele>453</ele>
        <time>2017-04-13T07:52:59.1Z</time>
      </trkpt>
      <trkpt lat="45.74206" lon="4.3186">
        <ele>453</ele>
        <time>2017-04-13T07:53:01.1Z</time>
      </trkpt>
      <trkpt lat="45.74209" lon="4.31863">
        <ele>452</ele>
        <time>2017-04-13T07:53:05.1Z</time>
      </trkpt>
      <trkpt lat="45.74211" lon="4.31865">
        <ele>451</ele>
        <time>2017-04-13T07:53:07.1Z</time>
      </trkpt>
      <trkpt lat="45.74213" lon="4.31867">
        <ele>451</ele>
        <time>2017-04-13T07:53:09.1Z</time>
      </trkpt>
      <trkpt lat="45.74216" lon="4.31869">
        <ele>450</ele>
        <time>2017-04-13T07:53:11.1Z</time>
      </trkpt>
      <trkpt lat="45.74218" lon="4.31872">
        <ele>450</ele>
        <time>2017-04-13T07:53:14.1Z</time>
      </trkpt>
      <trkpt lat="45.74221" lon="4.31876">
        <ele>450</ele>
        <time>2017-04-13T07:53:17.1Z</time>
      </trkpt>
      <trkpt lat="45.74224" lon="4.3188">
        <ele>449</ele>
        <time>2017-04-13T07:53:20.1Z</time>
      </trkpt>
      <trkpt lat="45.74226" lon="4.31883">
        <ele>449</ele>
        <time>2017-04-13T07:53:22.1Z</time>
      </trkpt>
      <trkpt lat="45.74228" lon="4.31885">
        <ele>449</ele>
        <time>2017-04-13T07:53:24.1Z</time>
      </trkpt>
      <trkpt lat="45.7423" lon="4.31887">
        <ele>449</ele>
        <time>2017-04-13T07:53:26.1Z</time>
      </trkpt>
      <trkpt lat="45.74232" lon="4.31889">
        <ele>448</ele>
        <time>2017-04-13T07:53:28.1Z</time>
      </trkpt>
      <trkpt lat="45.74233" lon="4.31892">
        <ele>448</ele>
        <time>2017-04-13T07:53:31.1Z</time>
      </trkpt>
      <trkpt lat="45.74235" lon="4.31896">
        <ele>447</ele>
        <time>2017-04-13T07:53:33.1Z</time>
      </trkpt>
      <trkpt lat="45.74236" lon="4.31899">
        <ele>447</ele>
        <time>2017-04-13T07:53:35.1Z</time>
      </trkpt>
      <trkpt lat="45.74237" lon="4.31903">
        <ele>446</ele>
        <time>2017-04-13T07:53:37.1Z</time>
      </trkpt>
      <trkpt lat="45.74237" lon="4.31908">
        <ele>446</ele>
        <time>2017-04-13T07:53:40.1Z</time>
      </trkpt>
      <trkpt lat="45.74236" lon="4.31912">
        <ele>445</ele>
        <time>2017-04-13T07:53:43.1Z</time>
      </trkpt>
      <trkpt lat="45.74236" lon="4.31918">
        <ele>445</ele>
        <time>2017-04-13T07:53:45.1Z</time>
      </trkpt>
      <trkpt lat="45.74236" lon="4.31922">
        <ele>444</ele>
        <time>2017-04-13T07:53:47.1Z</time>
      </trkpt>
      <trkpt lat="45.74234" lon="4.31927">
        <ele>443</ele>
        <time>2017-04-13T07:53:50.1Z</time>
      </trkpt>
      <trkpt lat="45.74234" lon="4.31931">
        <ele>443</ele>
        <time>2017-04-13T07:53:53.1Z</time>
      </trkpt>
      <trkpt lat="45.74232" lon="4.31937">
        <ele>442</ele>
        <time>2017-04-13T07:53:55.1Z</time>
      </trkpt>
      <trkpt lat="45.74231" lon="4.3194">
        <ele>442</ele>
        <time>2017-04-13T07:53:57.1Z</time>
      </trkpt>
      <trkpt lat="45.7423" lon="4.31945">
        <ele>441</ele>
        <time>2017-04-13T07:54:00.1Z</time>
      </trkpt>
      <trkpt lat="45.74228" lon="4.31949">
        <ele>441</ele>
        <time>2017-04-13T07:54:04.1Z</time>
      </trkpt>
      <trkpt lat="45.74226" lon="4.31953">
        <ele>440</ele>
        <time>2017-04-13T07:54:06.1Z</time>
      </trkpt>
      <trkpt lat="45.74224" lon="4.31956">
        <ele>440</ele>
        <time>2017-04-13T07:54:08.1Z</time>
      </trkpt>
      <trkpt lat="45.74223" lon="4.3196">
        <ele>440</ele>
        <time>2017-04-13T07:54:11.1Z</time>
      </trkpt>
      <trkpt lat="45.7422" lon="4.31964">
        <ele>439</ele>
        <time>2017-04-13T07:54:13.1Z</time>
      </trkpt>
      <trkpt lat="45.74218" lon="4.31966">
        <ele>439</ele>
        <time>2017-04-13T07:54:15.1Z</time>
      </trkpt>
      <trkpt lat="45.74216" lon="4.31969">
        <ele>439</ele>
        <time>2017-04-13T07:54:17.1Z</time>
      </trkpt>
      <trkpt lat="45.74214" lon="4.31972">
        <ele>439</ele>
        <time>2017-04-13T07:54:19.1Z</time>
      </trkpt>
      <trkpt lat="45.74212" lon="4.31974">
        <ele>439</ele>
        <time>2017-04-13T07:54:21.1Z</time>
      </trkpt>
      <trkpt lat="45.7421" lon="4.31977">
        <ele>439</ele>
        <time>2017-04-13T07:54:23.1Z</time>
      </trkpt>
      <trkpt lat="45.74208" lon="4.3198">
        <ele>439</ele>
        <time>2017-04-13T07:54:25.1Z</time>
      </trkpt>
      <trkpt lat="45.74207" lon="4.31983">
        <ele>439</ele>
        <time>2017-04-13T07:54:28.1Z</time>
      </trkpt>
      <trkpt lat="45.74204" lon="4.31987">
        <ele>439</ele>
        <time>2017-04-13T07:54:30.1Z</time>
      </trkpt>
      <trkpt lat="45.74202" lon="4.31989">
        <ele>440</ele>
        <time>2017-04-13T07:54:32.1Z</time>
      </trkpt>
      <trkpt lat="45.74201" lon="4.31992">
        <ele>440</ele>
        <time>2017-04-13T07:54:34.1Z</time>
      </trkpt>
      <trkpt lat="45.74198" lon="4.31996">
        <ele>441</ele>
        <time>2017-04-13T07:54:37.1Z</time>
      </trkpt>
      <trkpt lat="45.74195" lon="4.31999">
        <ele>441</ele>
        <time>2017-04-13T07:54:40.1Z</time>
      </trkpt>
      <trkpt lat="45.74193" lon="4.32001">
        <ele>442</ele>
        <time>2017-04-13T07:54:42.1Z</time>
      </trkpt>
      <trkpt lat="45.74191" lon="4.32003">
        <ele>442</ele>
        <time>2017-04-13T07:54:45.1Z</time>
      </trkpt>
      <trkpt lat="45.74187" lon="4.32006">
        <ele>443</ele>
        <time>2017-04-13T07:54:47.1Z</time>
      </trkpt>
      <trkpt lat="45.74185" lon="4.32007">
        <ele>443</ele>
        <time>2017-04-13T07:54:49.1Z</time>
      </trkpt>
      <trkpt lat="45.74183" lon="4.32009">
        <ele>444</ele>
        <time>2017-04-13T07:54:51.1Z</time>
      </trkpt>
      <trkpt lat="45.7418" lon="4.32011">
        <ele>444</ele>
        <time>2017-04-13T07:54:55.1Z</time>
      </trkpt>
      <trkpt lat="45.74177" lon="4.32013">
        <ele>445</ele>
        <time>2017-04-13T07:54:58.1Z</time>
      </trkpt>
      <trkpt lat="45.74175" lon="4.32013">
        <ele>445</ele>
        <time>2017-04-13T07:55:00.1Z</time>
      </trkpt>
      <trkpt lat="45.74173" lon="4.32014">
        <ele>445</ele>
        <time>2017-04-13T07:55:02.1Z</time>
      </trkpt>
      <trkpt lat="45.74169" lon="4.32015">
        <ele>445</ele>
        <time>2017-04-13T07:55:04.1Z</time>
      </trkpt>
      <trkpt lat="45.74166" lon="4.32016">
        <ele>445</ele>
        <time>2017-04-13T07:55:06.1Z</time>
      </trkpt>
      <trkpt lat="45.74163" lon="4.32016">
        <ele>445</ele>
        <time>2017-04-13T07:55:09.1Z</time>
      </trkpt>
      <trkpt lat="45.74161" lon="4.32016">
        <ele>444</ele>
        <time>2017-04-13T07:55:11.1Z</time>
      </trkpt>
      <trkpt lat="45.74159" lon="4.32017">
        <ele>444</ele>
        <time>2017-04-13T07:55:13.1Z</time>
      </trkpt>
      <trkpt lat="45.74157" lon="4.32017">
        <ele>443</ele>
        <time>2017-04-13T07:55:15.1Z</time>
      </trkpt>
      <trkpt lat="45.74153" lon="4.32017">
        <ele>443</ele>
        <time>2017-04-13T07:55:18.1Z</time>
      </trkpt>
      <trkpt lat="45.7415" lon="4.32016">
        <ele>443</ele>
        <time>2017-04-13T07:55:20.1Z</time>
      </trkpt>
      <trkpt lat="45.74147" lon="4.32015">
        <ele>443</ele>
        <time>2017-04-13T07:55:23.1Z</time>
      </trkpt>
      <trkpt lat="45.74144" lon="4.32015">
        <ele>443</ele>
        <time>2017-04-13T07:55:25.1Z</time>
      </trkpt>
      <trkpt lat="45.74141" lon="4.32015">
        <ele>442</ele>
        <time>2017-04-13T07:55:28.1Z</time>
      </trkpt>
      <trkpt lat="45.74136" lon="4.32015">
        <ele>442</ele>
        <time>2017-04-13T07:55:30.1Z</time>
      </trkpt>
      <trkpt lat="45.74133" lon="4.32015">
        <ele>441</ele>
        <time>2017-04-13T07:55:32.1Z</time>
      </trkpt>
      <trkpt lat="45.7413" lon="4.32015">
        <ele>441</ele>
        <time>2017-04-13T07:55:34.1Z</time>
      </trkpt>
      <trkpt lat="45.74128" lon="4.32015">
        <ele>441</ele>
        <time>2017-04-13T07:55:36.1Z</time>
      </trkpt>
      <trkpt lat="45.74125" lon="4.32015">
        <ele>441</ele>
        <time>2017-04-13T07:55:39.1Z</time>
      </trkpt>
      <trkpt lat="45.74122" lon="4.32015">
        <ele>440</ele>
        <time>2017-04-13T07:55:41.1Z</time>
      </trkpt>
      <trkpt lat="45.74118" lon="4.32013">
        <ele>440</ele>
        <time>2017-04-13T07:55:44.1Z</time>
      </trkpt>
      <trkpt lat="45.74116" lon="4.32012">
        <ele>439</ele>
        <time>2017-04-13T07:55:46.1Z</time>
      </trkpt>
      <trkpt lat="45.74113" lon="4.32012">
        <ele>439</ele>
        <time>2017-04-13T07:55:48.1Z</time>
      </trkpt>
      <trkpt lat="45.7411" lon="4.32011">
        <ele>439</ele>
        <time>2017-04-13T07:55:50.1Z</time>
      </trkpt>
      <trkpt lat="45.74105" lon="4.32011">
        <ele>439</ele>
        <time>2017-04-13T07:55:54.1Z</time>
      </trkpt>
      <trkpt lat="45.74102" lon="4.3201">
        <ele>438</ele>
        <time>2017-04-13T07:55:56.1Z</time>
      </trkpt>
      <trkpt lat="45.74098" lon="4.3201">
        <ele>439</ele>
        <time>2017-04-13T07:55:58.1Z</time>
      </trkpt>
      <trkpt lat="45.74095" lon="4.3201">
        <ele>438</ele>
        <time>2017-04-13T07:56:00.1Z</time>
      </trkpt>
      <trkpt lat="45.74092" lon="4.3201">
        <ele>438</ele>
        <time>2017-04-13T07:56:02.1Z</time>
      </trkpt>
      <trkpt lat="45.74089" lon="4.3201">
        <ele>438</ele>
        <time>2017-04-13T07:56:04.1Z</time>
      </trkpt>
      <trkpt lat="45.74085" lon="4.32008">
        <ele>438</ele>
        <time>2017-04-13T07:56:07.1Z</time>
      </trkpt>
      <trkpt lat="45.74082" lon="4.32008">
        <ele>438</ele>
        <time>2017-04-13T07:56:09.1Z</time>
      </trkpt>
      <trkpt lat="45.74078" lon="4.32008">
        <ele>437</ele>
        <time>2017-04-13T07:56:12.1Z</time>
      </trkpt>
      <trkpt lat="45.74075" lon="4.32007">
        <ele>437</ele>
        <time>2017-04-13T07:56:14.1Z</time>
      </trkpt>
      <trkpt lat="45.74072" lon="4.32006">
        <ele>436</ele>
        <time>2017-04-13T07:56:16.1Z</time>
      </trkpt>
      <trkpt lat="45.74068" lon="4.32005">
        <ele>436</ele>
        <time>2017-04-13T07:56:19.1Z</time>
      </trkpt>
      <trkpt lat="45.74065" lon="4.32005">
        <ele>436</ele>
        <time>2017-04-13T07:56:21.1Z</time>
      </trkpt>
      <trkpt lat="45.74062" lon="4.32004">
        <ele>436</ele>
        <time>2017-04-13T07:56:24.1Z</time>
      </trkpt>
      <trkpt lat="45.74058" lon="4.32004">
        <ele>435</ele>
        <time>2017-04-13T07:56:26.1Z</time>
      </trkpt>
      <trkpt lat="45.74054" lon="4.32003">
        <ele>435</ele>
        <time>2017-04-13T07:56:29.1Z</time>
      </trkpt>
      <trkpt lat="45.74051" lon="4.32003">
        <ele>435</ele>
        <time>2017-04-13T07:56:31.1Z</time>
      </trkpt>
      <trkpt lat="45.74047" lon="4.32003">
        <ele>434</ele>
        <time>2017-04-13T07:56:33.1Z</time>
      </trkpt>
      <trkpt lat="45.74044" lon="4.32003">
        <ele>434</ele>
        <time>2017-04-13T07:56:35.1Z</time>
      </trkpt>
      <trkpt lat="45.74041" lon="4.32003">
        <ele>433</ele>
        <time>2017-04-13T07:56:37.1Z</time>
      </trkpt>
      <trkpt lat="45.74039" lon="4.32003">
        <ele>433</ele>
        <time>2017-04-13T07:56:39.1Z</time>
      </trkpt>
      <trkpt lat="45.74035" lon="4.32004">
        <ele>433</ele>
        <time>2017-04-13T07:56:42.1Z</time>
      </trkpt>
      <trkpt lat="45.74032" lon="4.32005">
        <ele>433</ele>
        <time>2017-04-13T07:56:44.1Z</time>
      </trkpt>
      <trkpt lat="45.74029" lon="4.32006">
        <ele>433</ele>
        <time>2017-04-13T07:56:46.1Z</time>
      </trkpt>
      <trkpt lat="45.74026" lon="4.32007">
        <ele>432</ele>
        <time>2017-04-13T07:56:49.1Z</time>
      </trkpt>
      <trkpt lat="45.74022" lon="4.32007">
        <ele>432</ele>
        <time>2017-04-13T07:56:51.1Z</time>
      </trkpt>
      <trkpt lat="45.74018" lon="4.32008">
        <ele>432</ele>
        <time>2017-04-13T07:56:54.1Z</time>
      </trkpt>
      <trkpt lat="45.74015" lon="4.32009">
        <ele>431</ele>
        <time>2017-04-13T07:56:56.1Z</time>
      </trkpt>
      <trkpt lat="45.74012" lon="4.3201">
        <ele>431</ele>
        <time>2017-04-13T07:56:58.1Z</time>
      </trkpt>
      <trkpt lat="45.74008" lon="4.3201">
        <ele>431</ele>
        <time>2017-04-13T07:57:01.1Z</time>
      </trkpt>
      <trkpt lat="45.74004" lon="4.32011">
        <ele>430</ele>
        <time>2017-04-13T07:57:04.1Z</time>
      </trkpt>
      <trkpt lat="45.74001" lon="4.32011">
        <ele>430</ele>
        <time>2017-04-13T07:57:06.1Z</time>
      </trkpt>
      <trkpt lat="45.73997" lon="4.32012">
        <ele>430</ele>
        <time>2017-04-13T07:57:09.1Z</time>
      </trkpt>
      <trkpt lat="45.73994" lon="4.32013">
        <ele>430</ele>
        <time>2017-04-13T07:57:11.1Z</time>
      </trkpt>
      <trkpt lat="45.73991" lon="4.32014">
        <ele>430</ele>
        <time>2017-04-13T07:57:14.1Z</time>
      </trkpt>
      <trkpt lat="45.73989" lon="4.32016">
        <ele>429</ele>
        <time>2017-04-13T07:57:16.1Z</time>
      </trkpt>
      <trkpt lat="45.73988" lon="4.32018">
        <ele>429</ele>
        <time>2017-04-13T07:57:18.1Z</time>
      </trkpt>
      <trkpt lat="45.73986" lon="4.3202">
        <ele>429</ele>
        <time>2017-04-13T07:57:20.1Z</time>
      </trkpt>
      <trkpt lat="45.73984" lon="4.32023">
        <ele>429</ele>
        <time>2017-04-13T07:57:22.1Z</time>
      </trkpt>
      <trkpt lat="45.73982" lon="4.32025">
        <ele>429</ele>
        <time>2017-04-13T07:57:24.1Z</time>
      </trkpt>
      <trkpt lat="45.7398" lon="4.3203">
        <ele>429</ele>
        <time>2017-04-13T07:57:27.1Z</time>
      </trkpt>
      <trkpt lat="45.73979" lon="4.32033">
        <ele>429</ele>
        <time>2017-04-13T07:57:29.1Z</time>
      </trkpt>
      <trkpt lat="45.73978" lon="4.32036">
        <ele>429</ele>
        <time>2017-04-13T07:57:31.1Z</time>
      </trkpt>
      <trkpt lat="45.73977" lon="4.32039">
        <ele>428</ele>
        <time>2017-04-13T07:57:33.1Z</time>
      </trkpt>
      <trkpt lat="45.73975" lon="4.32043">
        <ele>428</ele>
        <time>2017-04-13T07:57:36.1Z</time>
      </trkpt>
      <trkpt lat="45.73973" lon="4.32048">
        <ele>428</ele>
        <time>2017-04-13T07:57:38.1Z</time>
      </trkpt>
      <trkpt lat="45.73972" lon="4.3205">
        <ele>428</ele>
        <time>2017-04-13T07:57:40.1Z</time>
      </trkpt>
      <trkpt lat="45.7397" lon="4.32055">
        <ele>428</ele>
        <time>2017-04-13T07:57:43.1Z</time>
      </trkpt>
      <trkpt lat="45.7397" lon="4.32058">
        <ele>428</ele>
        <time>2017-04-13T07:57:45.1Z</time>
      </trkpt>
      <trkpt lat="45.7397" lon="4.32061">
        <ele>427</ele>
        <time>2017-04-13T07:57:47.1Z</time>
      </trkpt>
      <trkpt lat="45.7397" lon="4.32063">
        <ele>427</ele>
        <time>2017-04-13T07:57:49.1Z</time>
      </trkpt>
      <trkpt lat="45.73969" lon="4.32068">
        <ele>427</ele>
        <time>2017-04-13T07:57:52.1Z</time>
      </trkpt>
      <trkpt lat="45.73969" lon="4.3207">
        <ele>426</ele>
        <time>2017-04-13T07:57:54.1Z</time>
      </trkpt>
      <trkpt lat="45.73968" lon="4.32073">
        <ele>426</ele>
        <time>2017-04-13T07:57:57.1Z</time>
      </trkpt>
      <trkpt lat="45.73969" lon="4.32079">
        <ele>426</ele>
        <time>2017-04-13T07:57:59.1Z</time>
      </trkpt>
      <trkpt lat="45.73969" lon="4.32082">
        <ele>425</ele>
        <time>2017-04-13T07:58:01.1Z</time>
      </trkpt>
      <trkpt lat="45.73968" lon="4.32085">
        <ele>425</ele>
        <time>2017-04-13T07:58:03.1Z</time>
      </trkpt>
      <trkpt lat="45.73968" lon="4.32089">
        <ele>424</ele>
        <time>2017-04-13T07:58:06.1Z</time>
      </trkpt>
      <trkpt lat="45.73968" lon="4.32093">
        <ele>423</ele>
        <time>2017-04-13T07:58:09.1Z</time>
      </trkpt>
      <trkpt lat="45.73968" lon="4.32096">
        <ele>423</ele>
        <time>2017-04-13T07:58:11.1Z</time>
      </trkpt>
      <trkpt lat="45.73968" lon="4.32098">
        <ele>422</ele>
        <time>2017-04-13T07:58:13.1Z</time>
      </trkpt>
      <trkpt lat="45.73968" lon="4.32101">
        <ele>422</ele>
        <time>2017-04-13T07:58:16.1Z</time>
      </trkpt>
      <trkpt lat="45.73968" lon="4.32106">
        <ele>422</ele>
        <time>2017-04-13T07:58:18.1Z</time>
      </trkpt>
      <trkpt lat="45.73968" lon="4.3211">
        <ele>421</ele>
        <time>2017-04-13T07:58:20.1Z</time>
      </trkpt>
      <trkpt lat="45.73968" lon="4.32115">
        <ele>421</ele>
        <time>2017-04-13T07:58:23.1Z</time>
      </trkpt>
      <trkpt lat="45.73968" lon="4.32118">
        <ele>420</ele>
        <time>2017-04-13T07:58:25.1Z</time>
      </trkpt>
      <trkpt lat="45.73968" lon="4.32124">
        <ele>419</ele>
        <time>2017-04-13T07:58:28.1Z</time>
      </trkpt>
      <trkpt lat="45.73968" lon="4.32128">
        <ele>419</ele>
        <time>2017-04-13T07:58:31.1Z</time>
      </trkpt>
      <trkpt lat="45.73968" lon="4.32131">
        <ele>418</ele>
        <time>2017-04-13T07:58:33.1Z</time>
      </trkpt>
      <trkpt lat="45.73968" lon="4.32135">
        <ele>418</ele>
        <time>2017-04-13T07:58:36.1Z</time>
      </trkpt>
      <trkpt lat="45.73968" lon="4.32138">
        <ele>417</ele>
        <time>2017-04-13T07:58:39.1Z</time>
      </trkpt>
      <trkpt lat="45.73968" lon="4.3214">
        <ele>417</ele>
        <time>2017-04-13T07:58:41.1Z</time>
      </trkpt>
      <trkpt lat="45.73967" lon="4.32146">
        <ele>416</ele>
        <time>2017-04-13T07:58:43.1Z</time>
      </trkpt>
      <trkpt lat="45.73966" lon="4.32149">
        <ele>415</ele>
        <time>2017-04-13T07:58:45.1Z</time>
      </trkpt>
      <trkpt lat="45.73965" lon="4.32152">
        <ele>415</ele>
        <time>2017-04-13T07:58:47.1Z</time>
      </trkpt>
      <trkpt lat="45.73964" lon="4.32156">
        <ele>414</ele>
        <time>2017-04-13T07:58:50.1Z</time>
      </trkpt>
      <trkpt lat="45.73963" lon="4.32162">
        <ele>414</ele>
        <time>2017-04-13T07:58:53.1Z</time>
      </trkpt>
      <trkpt lat="45.73962" lon="4.32165">
        <ele>413</ele>
        <time>2017-04-13T07:58:55.1Z</time>
      </trkpt>
      <trkpt lat="45.73961" lon="4.32167">
        <ele>413</ele>
        <time>2017-04-13T07:58:57.1Z</time>
      </trkpt>
      <trkpt lat="45.7396" lon="4.3217">
        <ele>412</ele>
        <time>2017-04-13T07:58:59.1Z</time>
      </trkpt>
      <trkpt lat="45.7396" lon="4.32173">
        <ele>412</ele>
        <time>2017-04-13T07:59:01.1Z</time>
      </trkpt>
      <trkpt lat="45.73959" lon="4.32176">
        <ele>411</ele>
        <time>2017-04-13T07:59:04.1Z</time>
      </trkpt>
      <trkpt lat="45.73957" lon="4.3218">
        <ele>411</ele>
        <time>2017-04-13T07:59:06.1Z</time>
      </trkpt>
      <trkpt lat="45.73957" lon="4.32183">
        <ele>410</ele>
        <time>2017-04-13T07:59:08.1Z</time>
      </trkpt>
      <trkpt lat="45.73956" lon="4.32185">
        <ele>409</ele>
        <time>2017-04-13T07:59:11.1Z</time>
      </trkpt>
      <trkpt lat="45.73955" lon="4.32188">
        <ele>409</ele>
        <time>2017-04-13T07:59:14.1Z</time>
      </trkpt>
      <trkpt lat="45.73954" lon="4.3219">
        <ele>408</ele>
        <time>2017-04-13T07:59:16.1Z</time>
      </trkpt>
      <trkpt lat="45.73952" lon="4.32191">
        <ele>408</ele>
        <time>2017-04-13T07:59:19.1Z</time>
      </trkpt>
      <trkpt lat="45.73951" lon="4.32192">
        <ele>407</ele>
        <time>2017-04-13T07:59:21.1Z</time>
      </trkpt>
      <trkpt lat="45.7395" lon="4.32195">
        <ele>407</ele>
        <time>2017-04-13T07:59:24.1Z</time>
      </trkpt>
      <trkpt lat="45.7395" lon="4.32196">
        <ele>406</ele>
        <time>2017-04-13T07:59:26.1Z</time>
      </trkpt>
      <trkpt lat="45.7395" lon="4.32198">
        <ele>406</ele>
        <time>2017-04-13T07:59:29.1Z</time>
      </trkpt>
      <trkpt lat="45.73949" lon="4.322">
        <ele>405</ele>
        <time>2017-04-13T07:59:31.1Z</time>
      </trkpt>
      <trkpt lat="45.73948" lon="4.32202">
        <ele>405</ele>
        <time>2017-04-13T07:59:33.1Z</time>
      </trkpt>
      <trkpt lat="45.73947" lon="4.32204">
        <ele>405</ele>
        <time>2017-04-13T07:59:35.1Z</time>
      </trkpt>
      <trkpt lat="45.73945" lon="4.32209">
        <ele>405</ele>
        <time>2017-04-13T07:59:37.1Z</time>
      </trkpt>
      <trkpt lat="45.73943" lon="4.32214">
        <ele>405</ele>
        <time>2017-04-13T07:59:40.1Z</time>
      </trkpt>
      <trkpt lat="45.73941" lon="4.3222">
        <ele>406</ele>
        <time>2017-04-13T07:59:43.1Z</time>
      </trkpt>
      <trkpt lat="45.73939" lon="4.32223">
        <ele>406</ele>
        <time>2017-04-13T07:59:45.1Z</time>
      </trkpt>
      <trkpt lat="45.73938" lon="4.32228">
        <ele>406</ele>
        <time>2017-04-13T07:59:48.1Z</time>
      </trkpt>
      <trkpt lat="45.73936" lon="4.32233">
        <ele>407</ele>
        <time>2017-04-13T07:59:51.1Z</time>
      </trkpt>
      <trkpt lat="45.73936" lon="4.32237">
        <ele>407</ele>
        <time>2017-04-13T07:59:54.1Z</time>
      </trkpt>
      <trkpt lat="45.73936" lon="4.32239">
        <ele>408</ele>
        <time>2017-04-13T07:59:56.1Z</time>
      </trkpt>
      <trkpt lat="45.73935" lon="4.32242">
        <ele>407</ele>
        <time>2017-04-13T07:59:59.1Z</time>
      </trkpt>
      <trkpt lat="45.73935" lon="4.32247">
        <ele>408</ele>
        <time>2017-04-13T08:00:01.1Z</time>
      </trkpt>
      <trkpt lat="45.73934" lon="4.32251">
        <ele>408</ele>
        <time>2017-04-13T08:00:03.1Z</time>
      </trkpt>
      <trkpt lat="45.73933" lon="4.32255">
        <ele>409</ele>
        <time>2017-04-13T08:00:05.1Z</time>
      </trkpt>
      <trkpt lat="45.73933" lon="4.32258">
        <ele>409</ele>
        <time>2017-04-13T08:00:07.1Z</time>
      </trkpt>
      <trkpt lat="45.73932" lon="4.32261">
        <ele>410</ele>
        <time>2017-04-13T08:00:09.1Z</time>
      </trkpt>
      <trkpt lat="45.73932" lon="4.32268">
        <ele>410</ele>
        <time>2017-04-13T08:00:12.1Z</time>
      </trkpt>
      <trkpt lat="45.73932" lon="4.32271">
        <ele>410</ele>
        <time>2017-04-13T08:00:14.1Z</time>
      </trkpt>
      <trkpt lat="45.73931" lon="4.32275">
        <ele>410</ele>
        <time>2017-04-13T08:00:16.1Z</time>
      </trkpt>
      <trkpt lat="45.73931" lon="4.32278">
        <ele>411</ele>
        <time>2017-04-13T08:00:18.1Z</time>
      </trkpt>
      <trkpt lat="45.73931" lon="4.3228">
        <ele>411</ele>
        <time>2017-04-13T08:00:21.1Z</time>
      </trkpt>
      <trkpt lat="45.7393" lon="4.32283">
        <ele>412</ele>
        <time>2017-04-13T08:00:23.1Z</time>
      </trkpt>
      <trkpt lat="45.7393" lon="4.32284">
        <ele>412</ele>
        <time>2017-04-13T08:00:26.1Z</time>
      </trkpt>
      <trkpt lat="45.7393" lon="4.32287">
        <ele>412</ele>
        <time>2017-04-13T08:00:28.1Z</time>
      </trkpt>
      <trkpt lat="45.73929" lon="4.32291">
        <ele>412</ele>
        <time>2017-04-13T08:00:30.1Z</time>
      </trkpt>
      <trkpt lat="45.7393" lon="4.32294">
        <ele>412</ele>
        <time>2017-04-13T08:00:32.1Z</time>
      </trkpt>
      <trkpt lat="45.73929" lon="4.32297">
        <ele>413</ele>
        <time>2017-04-13T08:00:34.1Z</time>
      </trkpt>
      <trkpt lat="45.7393" lon="4.32302">
        <ele>413</ele>
        <time>2017-04-13T08:00:37.1Z</time>
      </trkpt>
      <trkpt lat="45.73928" lon="4.32306">
        <ele>414</ele>
        <time>2017-04-13T08:00:39.1Z</time>
      </trkpt>
      <trkpt lat="45.73928" lon="4.3231">
        <ele>414</ele>
        <time>2017-04-13T08:00:41.1Z</time>
      </trkpt>
      <trkpt lat="45.73928" lon="4.32313">
        <ele>414</ele>
        <time>2017-04-13T08:00:43.1Z</time>
      </trkpt>
      <trkpt lat="45.73928" lon="4.32316">
        <ele>415</ele>
        <time>2017-04-13T08:00:45.1Z</time>
      </trkpt>
      <trkpt lat="45.73927" lon="4.32319">
        <ele>415</ele>
        <time>2017-04-13T08:00:47.1Z</time>
      </trkpt>
      <trkpt lat="45.73926" lon="4.32324">
        <ele>416</ele>
        <time>2017-04-13T08:00:50.1Z</time>
      </trkpt>
      <trkpt lat="45.73925" lon="4.3233">
        <ele>416</ele>
        <time>2017-04-13T08:00:53.1Z</time>
      </trkpt>
      <trkpt lat="45.73924" lon="4.32333">
        <ele>417</ele>
        <time>2017-04-13T08:00:55.1Z</time>
      </trkpt>
      <trkpt lat="45.73924" lon="4.32338">
        <ele>417</ele>
        <time>2017-04-13T08:00:58.1Z</time>
      </trkpt>
      <trkpt lat="45.73923" lon="4.32343">
        <ele>418</ele>
        <time>2017-04-13T08:01:01.1Z</time>
      </trkpt>
      <trkpt lat="45.73922" lon="4.32346">
        <ele>418</ele>
        <time>2017-04-13T08:01:03.1Z</time>
      </trkpt>
      <trkpt lat="45.73922" lon="4.32349">
        <ele>419</ele>
        <time>2017-04-13T08:01:06.1Z</time>
      </trkpt>
      <trkpt lat="45.73921" lon="4.3235">
        <ele>419</ele>
        <time>2017-04-13T08:01:08.1Z</time>
      </trkpt>
      <trkpt lat="45.73921" lon="4.32353">
        <ele>419</ele>
        <time>2017-04-13T08:01:10.1Z</time>
      </trkpt>
      <trkpt lat="45.7392" lon="4.32356">
        <ele>419</ele>
        <time>2017-04-13T08:01:12.1Z</time>
      </trkpt>
      <trkpt lat="45.7392" lon="4.32361">
        <ele>420</ele>
        <time>2017-04-13T08:01:14.1Z</time>
      </trkpt>
      <trkpt lat="45.73918" lon="4.32366">
        <ele>420</ele>
        <time>2017-04-13T08:01:17.1Z</time>
      </trkpt>
      <trkpt lat="45.73916" lon="4.32371">
        <ele>420</ele>
        <time>2017-04-13T08:01:20.1Z</time>
      </trkpt>
      <trkpt lat="45.73915" lon="4.32375">
        <ele>421</ele>
        <time>2017-04-13T08:01:22.1Z</time>
      </trkpt>
      <trkpt lat="45.73914" lon="4.32383">
        <ele>422</ele>
        <time>2017-04-13T08:01:25.1Z</time>
      </trkpt>
      <trkpt lat="45.73914" lon="4.32387">
        <ele>423</ele>
        <time>2017-04-13T08:01:27.1Z</time>
      </trkpt>
      <trkpt lat="45.73912" lon="4.32393">
        <ele>423</ele>
        <time>2017-04-13T08:01:30.1Z</time>
      </trkpt>
      <trkpt lat="45.73912" lon="4.32397">
        <ele>424</ele>
        <time>2017-04-13T08:01:32.1Z</time>
      </trkpt>
      <trkpt lat="45.73911" lon="4.32402">
        <ele>424</ele>
        <time>2017-04-13T08:01:34.1Z</time>
      </trkpt>
      <trkpt lat="45.7391" lon="4.32406">
        <ele>425</ele>
        <time>2017-04-13T08:01:36.1Z</time>
      </trkpt>
      <trkpt lat="45.73909" lon="4.32412">
        <ele>425</ele>
        <time>2017-04-13T08:01:39.1Z</time>
      </trkpt>
      <trkpt lat="45.73908" lon="4.32415">
        <ele>425</ele>
        <time>2017-04-13T08:01:41.1Z</time>
      </trkpt>
      <trkpt lat="45.73908" lon="4.32419">
        <ele>426</ele>
        <time>2017-04-13T08:01:44.1Z</time>
      </trkpt>
      <trkpt lat="45.73908" lon="4.3242">
        <ele>426</ele>
        <time>2017-04-13T08:01:46.1Z</time>
      </trkpt>
      <trkpt lat="45.73908" lon="4.3242">
        <ele>426</ele>
        <time>2017-04-13T08:01:48.1Z</time>
      </trkpt>
      <trkpt lat="45.73907" lon="4.32423">
        <ele>426</ele>
        <time>2017-04-13T08:01:51.1Z</time>
      </trkpt>
      <trkpt lat="45.73906" lon="4.32428">
        <ele>426</ele>
        <time>2017-04-13T08:01:53.1Z</time>
      </trkpt>
      <trkpt lat="45.73905" lon="4.32431">
        <ele>427</ele>
        <time>2017-04-13T08:01:55.1Z</time>
      </trkpt>
      <trkpt lat="45.73903" lon="4.32437">
        <ele>428</ele>
        <time>2017-04-13T08:01:58.1Z</time>
      </trkpt>
      <trkpt lat="45.73901" lon="4.32443">
        <ele>428</ele>
        <time>2017-04-13T08:02:01.1Z</time>
      </trkpt>
      <trkpt lat="45.739" lon="4.32449">
        <ele>429</ele>
        <time>2017-04-13T08:02:04.1Z</time>
      </trkpt>
      <trkpt lat="45.73899" lon="4.32453">
        <ele>430</ele>
        <time>2017-04-13T08:02:06.1Z</time>
      </trkpt>
      <trkpt lat="45.73898" lon="4.32456">
        <ele>430</ele>
        <time>2017-04-13T08:02:08.1Z</time>
      </trkpt>
      <trkpt lat="45.73896" lon="4.3246">
        <ele>431</ele>
        <time>2017-04-13T08:02:10.1Z</time>
      </trkpt>
      <trkpt lat="45.73894" lon="4.32465">
        <ele>431</ele>
        <time>2017-04-13T08:02:13.1Z</time>
      </trkpt>
      <trkpt lat="45.73893" lon="4.32469">
        <ele>431</ele>
        <time>2017-04-13T08:02:15.1Z</time>
      </trkpt>
      <trkpt lat="45.73892" lon="4.32474">
        <ele>432</ele>
        <time>2017-04-13T08:02:18.1Z</time>
      </trkpt>
      <trkpt lat="45.73891" lon="4.32476">
        <ele>433</ele>
        <time>2017-04-13T08:02:21.1Z</time>
      </trkpt>
      <trkpt lat="45.73891" lon="4.32476">
        <ele>433</ele>
        <time>2017-04-13T08:02:24.1Z</time>
      </trkpt>
      <trkpt lat="45.73891" lon="4.32477">
        <ele>433</ele>
        <time>2017-04-13T08:02:26.1Z</time>
      </trkpt>
      <trkpt lat="45.7389" lon="4.32479">
        <ele>433</ele>
        <time>2017-04-13T08:02:28.1Z</time>
      </trkpt>
      <trkpt lat="45.73889" lon="4.32483">
        <ele>434</ele>
        <time>2017-04-13T08:02:30.1Z</time>
      </trkpt>
      <trkpt lat="45.73887" lon="4.32488">
        <ele>434</ele>
        <time>2017-04-13T08:02:33.1Z</time>
      </trkpt>
      <trkpt lat="45.73886" lon="4.32491">
        <ele>435</ele>
        <time>2017-04-13T08:02:35.1Z</time>
      </trkpt>
      <trkpt lat="45.73885" lon="4.32496">
        <ele>436</ele>
        <time>2017-04-13T08:02:38.1Z</time>
      </trkpt>
      <trkpt lat="45.73883" lon="4.325">
        <ele>436</ele>
        <time>2017-04-13T08:02:40.1Z</time>
      </trkpt>
      <trkpt lat="45.73882" lon="4.32504">
        <ele>437</ele>
        <time>2017-04-13T08:02:42.1Z</time>
      </trkpt>
      <trkpt lat="45.73881" lon="4.32507">
        <ele>437</ele>
        <time>2017-04-13T08:02:44.1Z</time>
      </trkpt>
      <trkpt lat="45.73879" lon="4.32512">
        <ele>438</ele>
        <time>2017-04-13T08:02:47.1Z</time>
      </trkpt>
      <trkpt lat="45.73876" lon="4.32517">
        <ele>439</ele>
        <time>2017-04-13T08:02:50.1Z</time>
      </trkpt>
      <trkpt lat="45.73875" lon="4.32521">
        <ele>439</ele>
        <time>2017-04-13T08:02:52.1Z</time>
      </trkpt>
      <trkpt lat="45.73873" lon="4.32524">
        <ele>440</ele>
        <time>2017-04-13T08:02:54.1Z</time>
      </trkpt>
      <trkpt lat="45.73872" lon="4.32527">
        <ele>440</ele>
        <time>2017-04-13T08:02:56.1Z</time>
      </trkpt>
      <trkpt lat="45.7387" lon="4.3253">
        <ele>440</ele>
        <time>2017-04-13T08:02:58.1Z</time>
      </trkpt>
      <trkpt lat="45.73867" lon="4.32534">
        <ele>441</ele>
        <time>2017-04-13T08:03:01.1Z</time>
      </trkpt>
      <trkpt lat="45.73865" lon="4.32537">
        <ele>441</ele>
        <time>2017-04-13T08:03:04.1Z</time>
      </trkpt>
      <trkpt lat="45.73862" lon="4.32538">
        <ele>441</ele>
        <time>2017-04-13T08:03:07.1Z</time>
      </trkpt>
      <trkpt lat="45.7386" lon="4.3254">
        <ele>441</ele>
        <time>2017-04-13T08:03:09.1Z</time>
      </trkpt>
      <trkpt lat="45.73859" lon="4.32541">
        <ele>441</ele>
        <time>2017-04-13T08:03:11.1Z</time>
      </trkpt>
      <trkpt lat="45.73857" lon="4.32538">
        <ele>441</ele>
        <time>2017-04-13T08:03:14.1Z</time>
      </trkpt>
      <trkpt lat="45.73857" lon="4.32533">
        <ele>442</ele>
        <time>2017-04-13T08:03:17.1Z</time>
      </trkpt>
      <trkpt lat="45.73857" lon="4.32529">
        <ele>442</ele>
        <time>2017-04-13T08:03:19.1Z</time>
      </trkpt>
      <trkpt lat="45.73857" lon="4.32525">
        <ele>442</ele>
        <time>2017-04-13T08:03:21.1Z</time>
      </trkpt>
      <trkpt lat="45.73858" lon="4.32522">
        <ele>442</ele>
        <time>2017-04-13T08:03:23.1Z</time>
      </trkpt>
      <trkpt lat="45.73859" lon="4.32516">
        <ele>442</ele>
        <time>2017-04-13T08:03:26.1Z</time>
      </trkpt>
      <trkpt lat="45.73859" lon="4.32513">
        <ele>442</ele>
        <time>2017-04-13T08:03:28.1Z</time>
      </trkpt>
      <trkpt lat="45.7386" lon="4.32509">
        <ele>442</ele>
        <time>2017-04-13T08:03:30.1Z</time>
      </trkpt>
      <trkpt lat="45.7386" lon="4.32505">
        <ele>442</ele>
        <time>2017-04-13T08:03:32.1Z</time>
      </trkpt>
      <trkpt lat="45.7386" lon="4.32502">
        <ele>442</ele>
        <time>2017-04-13T08:03:34.1Z</time>
      </trkpt>
      <trkpt lat="45.73861" lon="4.32498">
        <ele>442</ele>
        <time>2017-04-13T08:03:36.1Z</time>
      </trkpt>
      <trkpt lat="45.73862" lon="4.32493">
        <ele>442</ele>
        <time>2017-04-13T08:03:39.1Z</time>
      </trkpt>
      <trkpt lat="45.73862" lon="4.3249">
        <ele>442</ele>
        <time>2017-04-13T08:03:41.1Z</time>
      </trkpt>
      <trkpt lat="45.73863" lon="4.32484">
        <ele>442</ele>
        <time>2017-04-13T08:03:44.1Z</time>
      </trkpt>
      <trkpt lat="45.73863" lon="4.32481">
        <ele>442</ele>
        <time>2017-04-13T08:03:46.1Z</time>
      </trkpt>
      <trkpt lat="45.73864" lon="4.32476">
        <ele>443</ele>
        <time>2017-04-13T08:03:49.1Z</time>
      </trkpt>
      <trkpt lat="45.73864" lon="4.32473">
        <ele>442</ele>
        <time>2017-04-13T08:03:51.1Z</time>
      </trkpt>
      <trkpt lat="45.73864" lon="4.32469">
        <ele>442</ele>
        <time>2017-04-13T08:03:53.1Z</time>
      </trkpt>
      <trkpt lat="45.73866" lon="4.32466">
        <ele>442</ele>
        <time>2017-04-13T08:03:55.1Z</time>
      </trkpt>
      <trkpt lat="45.73866" lon="4.32462">
        <ele>442</ele>
        <time>2017-04-13T08:03:57.1Z</time>
      </trkpt>
      <trkpt lat="45.73866" lon="4.32456">
        <ele>442</ele>
        <time>2017-04-13T08:04:00.1Z</time>
      </trkpt>
      <trkpt lat="45.73867" lon="4.32452">
        <ele>442</ele>
        <time>2017-04-13T08:04:02.1Z</time>
      </trkpt>
      <trkpt lat="45.73867" lon="4.32449">
        <ele>442</ele>
        <time>2017-04-13T08:04:04.1Z</time>
      </trkpt>
      <trkpt lat="45.73867" lon="4.32444">
        <ele>441</ele>
        <time>2017-04-13T08:04:07.1Z</time>
      </trkpt>
      <trkpt lat="45.73867" lon="4.3244">
        <ele>441</ele>
        <time>2017-04-13T08:04:09.1Z</time>
      </trkpt>
      <trkpt lat="45.73867" lon="4.32436">
        <ele>440</ele>
        <time>2017-04-13T08:04:11.1Z</time>
      </trkpt>
      <trkpt lat="45.73868" lon="4.3243">
        <ele>440</ele>
        <time>2017-04-13T08:04:14.1Z</time>
      </trkpt>
      <trkpt lat="45.73867" lon="4.32426">
        <ele>440</ele>
        <time>2017-04-13T08:04:16.1Z</time>
      </trkpt>
      <trkpt lat="45.73868" lon="4.32421">
        <ele>440</ele>
        <time>2017-04-13T08:04:19.1Z</time>
      </trkpt>
      <trkpt lat="45.73867" lon="4.32417">
        <ele>440</ele>
        <time>2017-04-13T08:04:21.1Z</time>
      </trkpt>
      <trkpt lat="45.73867" lon="4.32414">
        <ele>440</ele>
        <time>2017-04-13T08:04:23.1Z</time>
      </trkpt>
      <trkpt lat="45.73866" lon="4.32409">
        <ele>440</ele>
        <time>2017-04-13T08:04:26.1Z</time>
      </trkpt>
      <trkpt lat="45.73866" lon="4.32406">
        <ele>440</ele>
        <time>2017-04-13T08:04:28.1Z</time>
      </trkpt>
      <trkpt lat="45.73866" lon="4.32403">
        <ele>440</ele>
        <time>2017-04-13T08:04:30.1Z</time>
      </trkpt>
      <trkpt lat="45.73866" lon="4.32398">
        <ele>439</ele>
        <time>2017-04-13T08:04:33.1Z</time>
      </trkpt>
      <trkpt lat="45.73865" lon="4.32394">
        <ele>439</ele>
        <time>2017-04-13T08:04:35.1Z</time>
      </trkpt>
      <trkpt lat="45.73865" lon="4.3239">
        <ele>439</ele>
        <time>2017-04-13T08:04:37.1Z</time>
      </trkpt>
      <trkpt lat="45.73865" lon="4.32386">
        <ele>439</ele>
        <time>2017-04-13T08:04:39.1Z</time>
      </trkpt>
      <trkpt lat="45.73865" lon="4.32383">
        <ele>439</ele>
        <time>2017-04-13T08:04:41.1Z</time>
      </trkpt>
      <trkpt lat="45.73866" lon="4.32376">
        <ele>439</ele>
        <time>2017-04-13T08:04:44.1Z</time>
      </trkpt>
      <trkpt lat="45.73866" lon="4.32372">
        <ele>439</ele>
        <time>2017-04-13T08:04:46.1Z</time>
      </trkpt>
      <trkpt lat="45.73866" lon="4.32368">
        <ele>439</ele>
        <time>2017-04-13T08:04:48.1Z</time>
      </trkpt>
      <trkpt lat="45.73865" lon="4.32365">
        <ele>439</ele>
        <time>2017-04-13T08:04:50.1Z</time>
      </trkpt>
      <trkpt lat="45.73865" lon="4.32362">
        <ele>439</ele>
        <time>2017-04-13T08:04:52.1Z</time>
      </trkpt>
      <trkpt lat="45.73865" lon="4.32359">
        <ele>438</ele>
        <time>2017-04-13T08:04:54.1Z</time>
      </trkpt>
      <trkpt lat="45.73864" lon="4.32354">
        <ele>438</ele>
        <time>2017-04-13T08:04:57.1Z</time>
      </trkpt>
      <trkpt lat="45.73864" lon="4.32349">
        <ele>438</ele>
        <time>2017-04-13T08:04:59.1Z</time>
      </trkpt>
      <trkpt lat="45.73863" lon="4.32346">
        <ele>437</ele>
        <time>2017-04-13T08:05:01.1Z</time>
      </trkpt>
      <trkpt lat="45.73862" lon="4.32342">
        <ele>437</ele>
        <time>2017-04-13T08:05:03.1Z</time>
      </trkpt>
      <trkpt lat="45.73861" lon="4.3234">
        <ele>437</ele>
        <time>2017-04-13T08:05:05.1Z</time>
      </trkpt>
      <trkpt lat="45.7386" lon="4.32335">
        <ele>437</ele>
        <time>2017-04-13T08:05:08.1Z</time>
      </trkpt>
      <trkpt lat="45.7386" lon="4.32332">
        <ele>437</ele>
        <time>2017-04-13T08:05:10.1Z</time>
      </trkpt>
      <trkpt lat="45.73859" lon="4.32329">
        <ele>437</ele>
        <time>2017-04-13T08:05:12.1Z</time>
      </trkpt>
      <trkpt lat="45.73858" lon="4.32325">
        <ele>437</ele>
        <time>2017-04-13T08:05:14.1Z</time>
      </trkpt>
      <trkpt lat="45.73856" lon="4.32319">
        <ele>436</ele>
        <time>2017-04-13T08:05:17.1Z</time>
      </trkpt>
      <trkpt lat="45.73856" lon="4.32315">
        <ele>436</ele>
        <time>2017-04-13T08:05:19.1Z</time>
      </trkpt>
      <trkpt lat="45.73855" lon="4.32314">
        <ele>436</ele>
        <time>2017-04-13T08:05:21.1Z</time>
      </trkpt>
      <trkpt lat="45.73855" lon="4.32312">
        <ele>436</ele>
        <time>2017-04-13T08:05:23.1Z</time>
      </trkpt>
      <trkpt lat="45.73855" lon="4.32311">
        <ele>436</ele>
        <time>2017-04-13T08:05:25.1Z</time>
      </trkpt>
      <trkpt lat="45.73854" lon="4.3231">
        <ele>436</ele>
        <time>2017-04-13T08:05:28.1Z</time>
      </trkpt>
      <trkpt lat="45.73854" lon="4.32308">
        <ele>436</ele>
        <time>2017-04-13T08:05:31.1Z</time>
      </trkpt>
      <trkpt lat="45.73853" lon="4.32307">
        <ele>436</ele>
        <time>2017-04-13T08:05:34.1Z</time>
      </trkpt>
      <trkpt lat="45.73854" lon="4.32307">
        <ele>436</ele>
        <time>2017-04-13T08:05:36.1Z</time>
      </trkpt>
      <trkpt lat="45.73854" lon="4.32306">
        <ele>436</ele>
        <time>2017-04-13T08:05:38.1Z</time>
      </trkpt>
      <trkpt lat="45.73853" lon="4.32306">
        <ele>436</ele>
        <time>2017-04-13T08:05:41.1Z</time>
      </trkpt>
      <trkpt lat="45.73852" lon="4.32305">
        <ele>436</ele>
        <time>2017-04-13T08:05:43.1Z</time>
      </trkpt>
      <trkpt lat="45.73852" lon="4.32305">
        <ele>435</ele>
        <time>2017-04-13T08:05:46.1Z</time>
      </trkpt>
      <trkpt lat="45.73851" lon="4.32305">
        <ele>435</ele>
        <time>2017-04-13T08:05:48.1Z</time>
      </trkpt>
      <trkpt lat="45.7385" lon="4.32304">
        <ele>435</ele>
        <time>2017-04-13T08:05:51.1Z</time>
      </trkpt>
      <trkpt lat="45.7385" lon="4.32304">
        <ele>435</ele>
        <time>2017-04-13T08:05:53.1Z</time>
      </trkpt>
      <trkpt lat="45.7385" lon="4.32303">
        <ele>435</ele>
        <time>2017-04-13T08:05:56.1Z</time>
      </trkpt>
      <trkpt lat="45.7385" lon="4.32303">
        <ele>436</ele>
        <time>2017-04-13T08:05:58.1Z</time>
      </trkpt>
      <trkpt lat="45.7385" lon="4.32303">
        <ele>436</ele>
        <time>2017-04-13T08:06:00.1Z</time>
      </trkpt>
      <trkpt lat="45.73849" lon="4.32303">
        <ele>436</ele>
        <time>2017-04-13T08:06:03.1Z</time>
      </trkpt>
      <trkpt lat="45.73848" lon="4.32303">
        <ele>435</ele>
        <time>2017-04-13T08:06:06.1Z</time>
      </trkpt>
      <trkpt lat="45.73848" lon="4.32303">
        <ele>436</ele>
        <time>2017-04-13T08:06:08.1Z</time>
      </trkpt>
      <trkpt lat="45.73848" lon="4.32303">
        <ele>435</ele>
        <time>2017-04-13T08:06:10.1Z</time>
      </trkpt>
      <trkpt lat="45.73847" lon="4.32303">
        <ele>436</ele>
        <time>2017-04-13T08:06:13.1Z</time>
      </trkpt>
      <trkpt lat="45.73847" lon="4.32303">
        <ele>436</ele>
        <time>2017-04-13T08:06:15.1Z</time>
      </trkpt>
      <trkpt lat="45.73846" lon="4.32303">
        <ele>436</ele>
        <time>2017-04-13T08:06:17.1Z</time>
      </trkpt>
      <trkpt lat="45.73846" lon="4.32303">
        <ele>436</ele>
        <time>2017-04-13T08:06:19.1Z</time>
      </trkpt>
      <trkpt lat="45.73846" lon="4.32303">
        <ele>436</ele>
        <time>2017-04-13T08:06:22.1Z</time>
      </trkpt>
      <trkpt lat="45.73845" lon="4.32303">
        <ele>436</ele>
        <time>2017-04-13T08:06:25.1Z</time>
      </trkpt>
      <trkpt lat="45.73844" lon="4.32303">
        <ele>436</ele>
        <time>2017-04-13T08:06:27.1Z</time>
      </trkpt>
      <trkpt lat="45.73844" lon="4.32303">
        <ele>436</ele>
        <time>2017-04-13T08:06:29.1Z</time>
      </trkpt>
      <trkpt lat="45.73844" lon="4.32303">
        <ele>436</ele>
        <time>2017-04-13T08:06:32.1Z</time>
      </trkpt>
      <trkpt lat="45.73843" lon="4.32303">
        <ele>436</ele>
        <time>2017-04-13T08:06:34.1Z</time>
      </trkpt>
      <trkpt lat="45.73843" lon="4.32303">
        <ele>436</ele>
        <time>2017-04-13T08:06:38.1Z</time>
      </trkpt>
      <trkpt lat="45.73843" lon="4.32303">
        <ele>436</ele>
        <time>2017-04-13T08:06:40.1Z</time>
      </trkpt>
      <trkpt lat="45.73843" lon="4.32302">
        <ele>436</ele>
        <time>2017-04-13T08:06:43.1Z</time>
      </trkpt>
      <trkpt lat="45.73843" lon="4.32301">
        <ele>436</ele>
        <time>2017-04-13T08:06:46.1Z</time>
      </trkpt>
      <trkpt lat="45.73844" lon="4.323">
        <ele>436</ele>
        <time>2017-04-13T08:06:49.1Z</time>
      </trkpt>
      <trkpt lat="45.73844" lon="4.32299">
        <ele>436</ele>
        <time>2017-04-13T08:06:51.1Z</time>
      </trkpt>
      <trkpt lat="45.73844" lon="4.32298">
        <ele>435</ele>
        <time>2017-04-13T08:06:54.1Z</time>
      </trkpt>
      <trkpt lat="45.73844" lon="4.32298">
        <ele>435</ele>
        <time>2017-04-13T08:06:56.1Z</time>
      </trkpt>
      <trkpt lat="45.73845" lon="4.32298">
        <ele>435</ele>
        <time>2017-04-13T08:06:58.1Z</time>
      </trkpt>
      <trkpt lat="45.73845" lon="4.32297">
        <ele>435</ele>
        <time>2017-04-13T08:07:00.1Z</time>
      </trkpt>
      <trkpt lat="45.73845" lon="4.32297">
        <ele>435</ele>
        <time>2017-04-13T08:07:03.1Z</time>
      </trkpt>
      <trkpt lat="45.73845" lon="4.32297">
        <ele>436</ele>
        <time>2017-04-13T08:07:05.1Z</time>
      </trkpt>
      <trkpt lat="45.73845" lon="4.32296">
        <ele>436</ele>
        <time>2017-04-13T08:07:07.1Z</time>
      </trkpt>
      <trkpt lat="45.73845" lon="4.32295">
        <ele>436</ele>
        <time>2017-04-13T08:07:10.1Z</time>
      </trkpt>
      <trkpt lat="45.73843" lon="4.32296">
        <ele>436</ele>
        <time>2017-04-13T08:07:13.1Z</time>
      </trkpt>
      <trkpt lat="45.73843" lon="4.32295">
        <ele>436</ele>
        <time>2017-04-13T08:07:15.1Z</time>
      </trkpt>
      <trkpt lat="45.73843" lon="4.32295">
        <ele>436</ele>
        <time>2017-04-13T08:07:18.1Z</time>
      </trkpt>
      <trkpt lat="45.73843" lon="4.32294">
        <ele>436</ele>
        <time>2017-04-13T08:07:21.1Z</time>
      </trkpt>
      <trkpt lat="45.73843" lon="4.32294">
        <ele>436</ele>
        <time>2017-04-13T08:07:27.1Z</time>
      </trkpt>
      <trkpt lat="45.73843" lon="4.32294">
        <ele>436</ele>
        <time>2017-04-13T08:07:29.1Z</time>
      </trkpt>
      <trkpt lat="45.73843" lon="4.32294">
        <ele>436</ele>
        <time>2017-04-13T08:07:32.1Z</time>
      </trkpt>
      <trkpt lat="45.73843" lon="4.32295">
        <ele>436</ele>
        <time>2017-04-13T08:07:34.1Z</time>
      </trkpt>
      <trkpt lat="45.73843" lon="4.32295">
        <ele>436</ele>
        <time>2017-04-13T08:07:39.1Z</time>
      </trkpt>
      <trkpt lat="45.73843" lon="4.32293">
        <ele>435</ele>
        <time>2017-04-13T08:07:41.1Z</time>
      </trkpt>
      <trkpt lat="45.73842" lon="4.3229">
        <ele>435</ele>
        <time>2017-04-13T08:07:44.1Z</time>
      </trkpt>
      <trkpt lat="45.73841" lon="4.32288">
        <ele>435</ele>
        <time>2017-04-13T08:07:46.1Z</time>
      </trkpt>
      <trkpt lat="45.73841" lon="4.32285">
        <ele>434</ele>
        <time>2017-04-13T08:07:49.1Z</time>
      </trkpt>
      <trkpt lat="45.73842" lon="4.32283">
        <ele>434</ele>
        <time>2017-04-13T08:07:51.1Z</time>
      </trkpt>
      <trkpt lat="45.73841" lon="4.3228">
        <ele>434</ele>
        <time>2017-04-13T08:07:54.1Z</time>
      </trkpt>
      <trkpt lat="45.7384" lon="4.32278">
        <ele>434</ele>
        <time>2017-04-13T08:07:56.1Z</time>
      </trkpt>
      <trkpt lat="45.7384" lon="4.32276">
        <ele>434</ele>
        <time>2017-04-13T08:07:58.1Z</time>
      </trkpt>
      <trkpt lat="45.7384" lon="4.32271">
        <ele>434</ele>
        <time>2017-04-13T08:08:01.1Z</time>
      </trkpt>
      <trkpt lat="45.73839" lon="4.3227">
        <ele>433</ele>
        <time>2017-04-13T08:08:03.1Z</time>
      </trkpt>
      <trkpt lat="45.73839" lon="4.32268">
        <ele>433</ele>
        <time>2017-04-13T08:08:05.1Z</time>
      </trkpt>
      <trkpt lat="45.73838" lon="4.32264">
        <ele>432</ele>
        <time>2017-04-13T08:08:08.1Z</time>
      </trkpt>
      <trkpt lat="45.73837" lon="4.3226">
        <ele>432</ele>
        <time>2017-04-13T08:08:11.1Z</time>
      </trkpt>
      <trkpt lat="45.73836" lon="4.32258">
        <ele>432</ele>
        <time>2017-04-13T08:08:13.1Z</time>
      </trkpt>
      <trkpt lat="45.73835" lon="4.32255">
        <ele>431</ele>
        <time>2017-04-13T08:08:15.1Z</time>
      </trkpt>
      <trkpt lat="45.73834" lon="4.32252">
        <ele>431</ele>
        <time>2017-04-13T08:08:17.1Z</time>
      </trkpt>
      <trkpt lat="45.73833" lon="4.32247">
        <ele>430</ele>
        <time>2017-04-13T08:08:20.1Z</time>
      </trkpt>
      <trkpt lat="45.73832" lon="4.32242">
        <ele>430</ele>
        <time>2017-04-13T08:08:23.1Z</time>
      </trkpt>
      <trkpt lat="45.73831" lon="4.32239">
        <ele>429</ele>
        <time>2017-04-13T08:08:25.1Z</time>
      </trkpt>
      <trkpt lat="45.73829" lon="4.32236">
        <ele>429</ele>
        <time>2017-04-13T08:08:27.1Z</time>
      </trkpt>
      <trkpt lat="45.73826" lon="4.32231">
        <ele>428</ele>
        <time>2017-04-13T08:08:30.1Z</time>
      </trkpt>
      <trkpt lat="45.73824" lon="4.32228">
        <ele>428</ele>
        <time>2017-04-13T08:08:32.1Z</time>
      </trkpt>
      <trkpt lat="45.73822" lon="4.32224">
        <ele>428</ele>
        <time>2017-04-13T08:08:34.1Z</time>
      </trkpt>
      <trkpt lat="45.73819" lon="4.32219">
        <ele>428</ele>
        <time>2017-04-13T08:08:37.1Z</time>
      </trkpt>
      <trkpt lat="45.73817" lon="4.32216">
        <ele>427</ele>
        <time>2017-04-13T08:08:39.1Z</time>
      </trkpt>
      <trkpt lat="45.73815" lon="4.32212">
        <ele>427</ele>
        <time>2017-04-13T08:08:41.1Z</time>
      </trkpt>
      <trkpt lat="45.73811" lon="4.32207">
        <ele>427</ele>
        <time>2017-04-13T08:08:44.1Z</time>
      </trkpt>
      <trkpt lat="45.73809" lon="4.32203">
        <ele>427</ele>
        <time>2017-04-13T08:08:46.1Z</time>
      </trkpt>
      <trkpt lat="45.73807" lon="4.322">
        <ele>427</ele>
        <time>2017-04-13T08:08:48.1Z</time>
      </trkpt>
      <trkpt lat="45.73805" lon="4.32198">
        <ele>426</ele>
        <time>2017-04-13T08:08:50.1Z</time>
      </trkpt>
      <trkpt lat="45.73801" lon="4.32193">
        <ele>426</ele>
        <time>2017-04-13T08:08:53.1Z</time>
      </trkpt>
      <trkpt lat="45.73799" lon="4.3219">
        <ele>426</ele>
        <time>2017-04-13T08:08:55.1Z</time>
      </trkpt>
      <trkpt lat="45.73796" lon="4.32187">
        <ele>426</ele>
        <time>2017-04-13T08:08:58.1Z</time>
      </trkpt>
      <trkpt lat="45.73794" lon="4.32184">
        <ele>426</ele>
        <time>2017-04-13T08:09:00.1Z</time>
      </trkpt>
      <trkpt lat="45.7379" lon="4.3218">
        <ele>426</ele>
        <time>2017-04-13T08:09:03.1Z</time>
      </trkpt>
      <trkpt lat="45.73788" lon="4.32177">
        <ele>426</ele>
        <time>2017-04-13T08:09:05.1Z</time>
      </trkpt>
      <trkpt lat="45.73787" lon="4.32174">
        <ele>426</ele>
        <time>2017-04-13T08:09:07.1Z</time>
      </trkpt>
      <trkpt lat="45.73784" lon="4.3217">
        <ele>426</ele>
        <time>2017-04-13T08:09:10.1Z</time>
      </trkpt>
      <trkpt lat="45.73782" lon="4.32166">
        <ele>426</ele>
        <time>2017-04-13T08:09:12.1Z</time>
      </trkpt>
      <trkpt lat="45.7378" lon="4.32163">
        <ele>426</ele>
        <time>2017-04-13T08:09:14.1Z</time>
      </trkpt>
      <trkpt lat="45.73777" lon="4.32159">
        <ele>426</ele>
        <time>2017-04-13T08:09:17.1Z</time>
      </trkpt>
      <trkpt lat="45.73775" lon="4.32155">
        <ele>426</ele>
        <time>2017-04-13T08:09:19.1Z</time>
      </trkpt>
      <trkpt lat="45.73773" lon="4.32153">
        <ele>425</ele>
        <time>2017-04-13T08:09:21.1Z</time>
      </trkpt>
      <trkpt lat="45.7377" lon="4.32149">
        <ele>425</ele>
        <time>2017-04-13T08:09:24.1Z</time>
      </trkpt>
      <trkpt lat="45.73767" lon="4.32145">
        <ele>425</ele>
        <time>2017-04-13T08:09:27.1Z</time>
      </trkpt>
      <trkpt lat="45.73765" lon="4.32142">
        <ele>425</ele>
        <time>2017-04-13T08:09:29.1Z</time>
      </trkpt>
      <trkpt lat="45.73762" lon="4.32138">
        <ele>425</ele>
        <time>2017-04-13T08:09:32.1Z</time>
      </trkpt>
      <trkpt lat="45.7376" lon="4.32135">
        <ele>425</ele>
        <time>2017-04-13T08:09:34.1Z</time>
      </trkpt>
      <trkpt lat="45.73757" lon="4.32131">
        <ele>425</ele>
        <time>2017-04-13T08:09:37.1Z</time>
      </trkpt>
      <trkpt lat="45.73755" lon="4.32128">
        <ele>424</ele>
        <time>2017-04-13T08:09:39.1Z</time>
      </trkpt>
      <trkpt lat="45.73753" lon="4.32125">
        <ele>424</ele>
        <time>2017-04-13T08:09:41.1Z</time>
      </trkpt>
      <trkpt lat="45.7375" lon="4.32122">
        <ele>424</ele>
        <time>2017-04-13T08:09:44.1Z</time>
      </trkpt>
      <trkpt lat="45.73748" lon="4.32118">
        <ele>424</ele>
        <time>2017-04-13T08:09:46.1Z</time>
      </trkpt>
      <trkpt lat="45.73745" lon="4.32115">
        <ele>424</ele>
        <time>2017-04-13T08:09:48.1Z</time>
      </trkpt>
      <trkpt lat="45.73743" lon="4.32113">
        <ele>424</ele>
        <time>2017-04-13T08:09:50.1Z</time>
      </trkpt>
      <trkpt lat="45.7374" lon="4.3211">
        <ele>424</ele>
        <time>2017-04-13T08:09:52.1Z</time>
      </trkpt>
      <trkpt lat="45.73737" lon="4.32106">
        <ele>424</ele>
        <time>2017-04-13T08:09:55.1Z</time>
      </trkpt>
      <trkpt lat="45.73735" lon="4.32103">
        <ele>423</ele>
        <time>2017-04-13T08:09:57.1Z</time>
      </trkpt>
      <trkpt lat="45.73733" lon="4.32101">
        <ele>423</ele>
        <time>2017-04-13T08:09:59.1Z</time>
      </trkpt>
      <trkpt lat="45.73731" lon="4.32098">
        <ele>423</ele>
        <time>2017-04-13T08:10:01.1Z</time>
      </trkpt>
      <trkpt lat="45.73729" lon="4.32095">
        <ele>423</ele>
        <time>2017-04-13T08:10:03.1Z</time>
      </trkpt>
      <trkpt lat="45.73727" lon="4.32091">
        <ele>423</ele>
        <time>2017-04-13T08:10:06.1Z</time>
      </trkpt>
      <trkpt lat="45.73725" lon="4.32088">
        <ele>422</ele>
        <time>2017-04-13T08:10:08.1Z</time>
      </trkpt>
      <trkpt lat="45.73722" lon="4.32085">
        <ele>422</ele>
        <time>2017-04-13T08:10:10.1Z</time>
      </trkpt>
      <trkpt lat="45.7372" lon="4.32081">
        <ele>422</ele>
        <time>2017-04-13T08:10:13.1Z</time>
      </trkpt>
      <trkpt lat="45.73717" lon="4.32077">
        <ele>422</ele>
        <time>2017-04-13T08:10:16.1Z</time>
      </trkpt>
      <trkpt lat="45.73715" lon="4.32074">
        <ele>422</ele>
        <time>2017-04-13T08:10:18.1Z</time>
      </trkpt>
      <trkpt lat="45.73714" lon="4.32071">
        <ele>422</ele>
        <time>2017-04-13T08:10:20.1Z</time>
      </trkpt>
      <trkpt lat="45.73711" lon="4.32067">
        <ele>421</ele>
        <time>2017-04-13T08:10:23.1Z</time>
      </trkpt>
      <trkpt lat="45.73709" lon="4.32063">
        <ele>421</ele>
        <time>2017-04-13T08:10:26.1Z</time>
      </trkpt>
      <trkpt lat="45.73706" lon="4.32059">
        <ele>421</ele>
        <time>2017-04-13T08:10:29.1Z</time>
      </trkpt>
      <trkpt lat="45.73705" lon="4.32056">
        <ele>421</ele>
        <time>2017-04-13T08:10:31.1Z</time>
      </trkpt>
      <trkpt lat="45.73703" lon="4.32054">
        <ele>421</ele>
        <time>2017-04-13T08:10:33.1Z</time>
      </trkpt>
      <trkpt lat="45.737" lon="4.3205">
        <ele>421</ele>
        <time>2017-04-13T08:10:36.1Z</time>
      </trkpt>
      <trkpt lat="45.73698" lon="4.32046">
        <ele>420</ele>
        <time>2017-04-13T08:10:39.1Z</time>
      </trkpt>
      <trkpt lat="45.73696" lon="4.32044">
        <ele>420</ele>
        <time>2017-04-13T08:10:41.1Z</time>
      </trkpt>
      <trkpt lat="45.73694" lon="4.32041">
        <ele>420</ele>
        <time>2017-04-13T08:10:43.1Z</time>
      </trkpt>
      <trkpt lat="45.73692" lon="4.32039">
        <ele>420</ele>
        <time>2017-04-13T08:10:45.1Z</time>
      </trkpt>
      <trkpt lat="45.7369" lon="4.32037">
        <ele>420</ele>
        <time>2017-04-13T08:10:47.1Z</time>
      </trkpt>
      <trkpt lat="45.73688" lon="4.32035">
        <ele>420</ele>
        <time>2017-04-13T08:10:49.1Z</time>
      </trkpt>
      <trkpt lat="45.73686" lon="4.32033">
        <ele>420</ele>
        <time>2017-04-13T08:10:51.1Z</time>
      </trkpt>
      <trkpt lat="45.73683" lon="4.32031">
        <ele>420</ele>
        <time>2017-04-13T08:10:54.1Z</time>
      </trkpt>
      <trkpt lat="45.73679" lon="4.32028">
        <ele>420</ele>
        <time>2017-04-13T08:10:57.1Z</time>
      </trkpt>
      <trkpt lat="45.73677" lon="4.32026">
        <ele>420</ele>
        <time>2017-04-13T08:10:59.1Z</time>
      </trkpt>
      <trkpt lat="45.73673" lon="4.32023">
        <ele>420</ele>
        <time>2017-04-13T08:11:02.1Z</time>
      </trkpt>
      <trkpt lat="45.7367" lon="4.32021">
        <ele>420</ele>
        <time>2017-04-13T08:11:04.1Z</time>
      </trkpt>
      <trkpt lat="45.73668" lon="4.32019">
        <ele>420</ele>
        <time>2017-04-13T08:11:06.1Z</time>
      </trkpt>
      <trkpt lat="45.73665" lon="4.32017">
        <ele>420</ele>
        <time>2017-04-13T08:11:08.1Z</time>
      </trkpt>
      <trkpt lat="45.73663" lon="4.32015">
        <ele>420</ele>
        <time>2017-04-13T08:11:10.1Z</time>
      </trkpt>
      <trkpt lat="45.73659" lon="4.32012">
        <ele>420</ele>
        <time>2017-04-13T08:11:13.1Z</time>
      </trkpt>
      <trkpt lat="45.73656" lon="4.3201">
        <ele>420</ele>
        <time>2017-04-13T08:11:15.1Z</time>
      </trkpt>
      <trkpt lat="45.73655" lon="4.32009">
        <ele>420</ele>
        <time>2017-04-13T08:11:17.1Z</time>
      </trkpt>
      <trkpt lat="45.73653" lon="4.32007">
        <ele>421</ele>
        <time>2017-04-13T08:11:19.1Z</time>
      </trkpt>
      <trkpt lat="45.7365" lon="4.32004">
        <ele>421</ele>
        <time>2017-04-13T08:11:21.1Z</time>
      </trkpt>
      <trkpt lat="45.73647" lon="4.32001">
        <ele>421</ele>
        <time>2017-04-13T08:11:24.1Z</time>
      </trkpt>
      <trkpt lat="45.73645" lon="4.31998">
        <ele>421</ele>
        <time>2017-04-13T08:11:27.1Z</time>
      </trkpt>
      <trkpt lat="45.73643" lon="4.31997">
        <ele>421</ele>
        <time>2017-04-13T08:11:29.1Z</time>
      </trkpt>
      <trkpt lat="45.73642" lon="4.31996">
        <ele>421</ele>
        <time>2017-04-13T08:11:31.1Z</time>
      </trkpt>
      <trkpt lat="45.73639" lon="4.31993">
        <ele>421</ele>
        <time>2017-04-13T08:11:34.1Z</time>
      </trkpt>
      <trkpt lat="45.73637" lon="4.31991">
        <ele>421</ele>
        <time>2017-04-13T08:11:36.1Z</time>
      </trkpt>
      <trkpt lat="45.73634" lon="4.31988">
        <ele>421</ele>
        <time>2017-04-13T08:11:39.1Z</time>
      </trkpt>
      <trkpt lat="45.73631" lon="4.31986">
        <ele>421</ele>
        <time>2017-04-13T08:11:42.1Z</time>
      </trkpt>
      <trkpt lat="45.73629" lon="4.31984">
        <ele>421</ele>
        <time>2017-04-13T08:11:44.1Z</time>
      </trkpt>
      <trkpt lat="45.73627" lon="4.31981">
        <ele>421</ele>
        <time>2017-04-13T08:11:46.1Z</time>
      </trkpt>
      <trkpt lat="45.73626" lon="4.31979">
        <ele>421</ele>
        <time>2017-04-13T08:11:48.1Z</time>
      </trkpt>
      <trkpt lat="45.73623" lon="4.31974">
        <ele>420</ele>
        <time>2017-04-13T08:11:51.1Z</time>
      </trkpt>
      <trkpt lat="45.73621" lon="4.31971">
        <ele>420</ele>
        <time>2017-04-13T08:11:53.1Z</time>
      </trkpt>
      <trkpt lat="45.73619" lon="4.31967">
        <ele>420</ele>
        <time>2017-04-13T08:11:55.1Z</time>
      </trkpt>
      <trkpt lat="45.73617" lon="4.31962">
        <ele>420</ele>
        <time>2017-04-13T08:11:58.1Z</time>
      </trkpt>
      <trkpt lat="45.73616" lon="4.31959">
        <ele>420</ele>
        <time>2017-04-13T08:12:00.1Z</time>
      </trkpt>
      <trkpt lat="45.73614" lon="4.31956">
        <ele>420</ele>
        <time>2017-04-13T08:12:02.1Z</time>
      </trkpt>
      <trkpt lat="45.73613" lon="4.31953">
        <ele>420</ele>
        <time>2017-04-13T08:12:04.1Z</time>
      </trkpt>
      <trkpt lat="45.73612" lon="4.31949">
        <ele>420</ele>
        <time>2017-04-13T08:12:06.1Z</time>
      </trkpt>
      <trkpt lat="45.7361" lon="4.31947">
        <ele>420</ele>
        <time>2017-04-13T08:12:08.1Z</time>
      </trkpt>
      <trkpt lat="45.73609" lon="4.31943">
        <ele>420</ele>
        <time>2017-04-13T08:12:11.1Z</time>
      </trkpt>
      <trkpt lat="45.73607" lon="4.31939">
        <ele>419</ele>
        <time>2017-04-13T08:12:14.1Z</time>
      </trkpt>
      <trkpt lat="45.73606" lon="4.31937">
        <ele>419</ele>
        <time>2017-04-13T08:12:16.1Z</time>
      </trkpt>
      <trkpt lat="45.73605" lon="4.31932">
        <ele>419</ele>
        <time>2017-04-13T08:12:19.1Z</time>
      </trkpt>
      <trkpt lat="45.73604" lon="4.31929">
        <ele>419</ele>
        <time>2017-04-13T08:12:21.1Z</time>
      </trkpt>
      <trkpt lat="45.73603" lon="4.31926">
        <ele>418</ele>
        <time>2017-04-13T08:12:24.1Z</time>
      </trkpt>
      <trkpt lat="45.73603" lon="4.31923">
        <ele>418</ele>
        <time>2017-04-13T08:12:26.1Z</time>
      </trkpt>
      <trkpt lat="45.73602" lon="4.3192">
        <ele>418</ele>
        <time>2017-04-13T08:12:29.1Z</time>
      </trkpt>
      <trkpt lat="45.73601" lon="4.31916">
        <ele>417</ele>
        <time>2017-04-13T08:12:32.1Z</time>
      </trkpt>
      <trkpt lat="45.736" lon="4.31913">
        <ele>417</ele>
        <time>2017-04-13T08:12:34.1Z</time>
      </trkpt>
      <trkpt lat="45.736" lon="4.31908">
        <ele>417</ele>
        <time>2017-04-13T08:12:37.1Z</time>
      </trkpt>
      <trkpt lat="45.73599" lon="4.31904">
        <ele>416</ele>
        <time>2017-04-13T08:12:39.1Z</time>
      </trkpt>
      <trkpt lat="45.73598" lon="4.319">
        <ele>416</ele>
        <time>2017-04-13T08:12:41.1Z</time>
      </trkpt>
      <trkpt lat="45.73596" lon="4.31894">
        <ele>415</ele>
        <time>2017-04-13T08:12:44.1Z</time>
      </trkpt>
      <trkpt lat="45.73596" lon="4.31891">
        <ele>415</ele>
        <time>2017-04-13T08:12:47.1Z</time>
      </trkpt>
      <trkpt lat="45.73595" lon="4.31889">
        <ele>415</ele>
        <time>2017-04-13T08:12:49.1Z</time>
      </trkpt>
      <trkpt lat="45.73595" lon="4.31886">
        <ele>415</ele>
        <time>2017-04-13T08:12:51.1Z</time>
      </trkpt>
      <trkpt lat="45.73595" lon="4.31885">
        <ele>415</ele>
        <time>2017-04-13T08:12:53.1Z</time>
      </trkpt>
      <trkpt lat="45.73596" lon="4.31883">
        <ele>414</ele>
        <time>2017-04-13T08:12:55.1Z</time>
      </trkpt>
      <trkpt lat="45.73596" lon="4.31882">
        <ele>414</ele>
        <time>2017-04-13T08:12:57.1Z</time>
      </trkpt>
      <trkpt lat="45.73597" lon="4.31879">
        <ele>414</ele>
        <time>2017-04-13T08:13:00.1Z</time>
      </trkpt>
      <trkpt lat="45.73597" lon="4.31878">
        <ele>413</ele>
        <time>2017-04-13T08:13:03.1Z</time>
      </trkpt>
      <trkpt lat="45.73598" lon="4.31878">
        <ele>413</ele>
        <time>2017-04-13T08:13:05.1Z</time>
      </trkpt>
      <trkpt lat="45.73599" lon="4.31876">
        <ele>412</ele>
        <time>2017-04-13T08:13:08.1Z</time>
      </trkpt>
      <trkpt lat="45.736" lon="4.31876">
        <ele>412</ele>
        <time>2017-04-13T08:13:10.1Z</time>
      </trkpt>
      <trkpt lat="45.73601" lon="4.31876">
        <ele>411</ele>
        <time>2017-04-13T08:13:12.1Z</time>
      </trkpt>
      <trkpt lat="45.73602" lon="4.31875">
        <ele>411</ele>
        <time>2017-04-13T08:13:14.1Z</time>
      </trkpt>
      <trkpt lat="45.73603" lon="4.31875">
        <ele>410</ele>
        <time>2017-04-13T08:13:16.1Z</time>
      </trkpt>
      <trkpt lat="45.73604" lon="4.31876">
        <ele>409</ele>
        <time>2017-04-13T08:13:19.1Z</time>
      </trkpt>
      <trkpt lat="45.73605" lon="4.31876">
        <ele>409</ele>
        <time>2017-04-13T08:13:21.1Z</time>
      </trkpt>
      <trkpt lat="45.73607" lon="4.31877">
        <ele>409</ele>
        <time>2017-04-13T08:13:24.1Z</time>
      </trkpt>
      <trkpt lat="45.73609" lon="4.31876">
        <ele>408</ele>
        <time>2017-04-13T08:13:26.1Z</time>
      </trkpt>
      <trkpt lat="45.7361" lon="4.31877">
        <ele>407</ele>
        <time>2017-04-13T08:13:28.1Z</time>
      </trkpt>
      <trkpt lat="45.73612" lon="4.31877">
        <ele>407</ele>
        <time>2017-04-13T08:13:31.1Z</time>
      </trkpt>
      <trkpt lat="45.73614" lon="4.31877">
        <ele>406</ele>
        <time>2017-04-13T08:13:34.1Z</time>
      </trkpt>
      <trkpt lat="45.73616" lon="4.31877">
        <ele>406</ele>
        <time>2017-04-13T08:13:37.1Z</time>
      </trkpt>
      <trkpt lat="45.73618" lon="4.31877">
        <ele>405</ele>
        <time>2017-04-13T08:13:39.1Z</time>
      </trkpt>
      <trkpt lat="45.73619" lon="4.31878">
        <ele>404</ele>
        <time>2017-04-13T08:13:41.1Z</time>
      </trkpt>
      <trkpt lat="45.7362" lon="4.31878">
        <ele>404</ele>
        <time>2017-04-13T08:13:43.1Z</time>
      </trkpt>
      <trkpt lat="45.73622" lon="4.31879">
        <ele>404</ele>
        <time>2017-04-13T08:13:45.1Z</time>
      </trkpt>
      <trkpt lat="45.73624" lon="4.3188">
        <ele>403</ele>
        <time>2017-04-13T08:13:48.1Z</time>
      </trkpt>
      <trkpt lat="45.73626" lon="4.31881">
        <ele>403</ele>
        <time>2017-04-13T08:13:50.1Z</time>
      </trkpt>
      <trkpt lat="45.73628" lon="4.31881">
        <ele>403</ele>
        <time>2017-04-13T08:13:52.1Z</time>
      </trkpt>
      <trkpt lat="45.73629" lon="4.31882">
        <ele>402</ele>
        <time>2017-04-13T08:13:55.1Z</time>
      </trkpt>
      <trkpt lat="45.73631" lon="4.31883">
        <ele>402</ele>
        <time>2017-04-13T08:13:57.1Z</time>
      </trkpt>
      <trkpt lat="45.73633" lon="4.31883">
        <ele>401</ele>
        <time>2017-04-13T08:13:59.1Z</time>
      </trkpt>
      <trkpt lat="45.73634" lon="4.31883">
        <ele>401</ele>
        <time>2017-04-13T08:14:01.1Z</time>
      </trkpt>
      <trkpt lat="45.73635" lon="4.31884">
        <ele>400</ele>
        <time>2017-04-13T08:14:03.1Z</time>
      </trkpt>
      <trkpt lat="45.73637" lon="4.31884">
        <ele>399</ele>
        <time>2017-04-13T08:14:05.1Z</time>
      </trkpt>
      <trkpt lat="45.73638" lon="4.31884">
        <ele>399</ele>
        <time>2017-04-13T08:14:08.1Z</time>
      </trkpt>
      <trkpt lat="45.7364" lon="4.31884">
        <ele>398</ele>
        <time>2017-04-13T08:14:11.1Z</time>
      </trkpt>
      <trkpt lat="45.73641" lon="4.31884">
        <ele>398</ele>
        <time>2017-04-13T08:14:13.1Z</time>
      </trkpt>
      <trkpt lat="45.73642" lon="4.31883">
        <ele>397</ele>
        <time>2017-04-13T08:14:15.1Z</time>
      </trkpt>
      <trkpt lat="45.73645" lon="4.31883">
        <ele>397</ele>
        <time>2017-04-13T08:14:18.1Z</time>
      </trkpt>
      <trkpt lat="45.73647" lon="4.31882">
        <ele>397</ele>
        <time>2017-04-13T08:14:20.1Z</time>
      </trkpt>
      <trkpt lat="45.7365" lon="4.31882">
        <ele>397</ele>
        <time>2017-04-13T08:14:22.1Z</time>
      </trkpt>
      <trkpt lat="45.73653" lon="4.31881">
        <ele>396</ele>
        <time>2017-04-13T08:14:25.1Z</time>
      </trkpt>
      <trkpt lat="45.73655" lon="4.31881">
        <ele>396</ele>
        <time>2017-04-13T08:14:27.1Z</time>
      </trkpt>
      <trkpt lat="45.73657" lon="4.31881">
        <ele>395</ele>
        <time>2017-04-13T08:14:29.1Z</time>
      </trkpt>
      <trkpt lat="45.7366" lon="4.3188">
        <ele>394</ele>
        <time>2017-04-13T08:14:32.1Z</time>
      </trkpt>
      <trkpt lat="45.73661" lon="4.3188">
        <ele>394</ele>
        <time>2017-04-13T08:14:34.1Z</time>
      </trkpt>
      <trkpt lat="45.73663" lon="4.31879">
        <ele>394</ele>
        <time>2017-04-13T08:14:36.1Z</time>
      </trkpt>
      <trkpt lat="45.73666" lon="4.31878">
        <ele>393</ele>
        <time>2017-04-13T08:14:39.1Z</time>
      </trkpt>
      <trkpt lat="45.73669" lon="4.31879">
        <ele>393</ele>
        <time>2017-04-13T08:14:42.1Z</time>
      </trkpt>
      <trkpt lat="45.73671" lon="4.31879">
        <ele>392</ele>
        <time>2017-04-13T08:14:44.1Z</time>
      </trkpt>
      <trkpt lat="45.73672" lon="4.31878">
        <ele>392</ele>
        <time>2017-04-13T08:14:46.1Z</time>
      </trkpt>
      <trkpt lat="45.73673" lon="4.31879">
        <ele>392</ele>
        <time>2017-04-13T08:14:48.1Z</time>
      </trkpt>
      <trkpt lat="45.73677" lon="4.31879">
        <ele>391</ele>
        <time>2017-04-13T08:14:51.1Z</time>
      </trkpt>
      <trkpt lat="45.73679" lon="4.31879">
        <ele>391</ele>
        <time>2017-04-13T08:14:53.1Z</time>
      </trkpt>
      <trkpt lat="45.73681" lon="4.3188">
        <ele>390</ele>
        <time>2017-04-13T08:14:55.1Z</time>
      </trkpt>
      <trkpt lat="45.73683" lon="4.31881">
        <ele>390</ele>
        <time>2017-04-13T08:14:57.1Z</time>
      </trkpt>
      <trkpt lat="45.73686" lon="4.31882">
        <ele>389</ele>
        <time>2017-04-13T08:14:59.1Z</time>
      </trkpt>
      <trkpt lat="45.73688" lon="4.31882">
        <ele>389</ele>
        <time>2017-04-13T08:15:01.1Z</time>
      </trkpt>
      <trkpt lat="45.73692" lon="4.31883">
        <ele>388</ele>
        <time>2017-04-13T08:15:04.1Z</time>
      </trkpt>
      <trkpt lat="45.73694" lon="4.31882">
        <ele>388</ele>
        <time>2017-04-13T08:15:06.1Z</time>
      </trkpt>
      <trkpt lat="45.73697" lon="4.31879">
        <ele>387</ele>
        <time>2017-04-13T08:15:09.1Z</time>
      </trkpt>
      <trkpt lat="45.73699" lon="4.31877">
        <ele>386</ele>
        <time>2017-04-13T08:15:12.1Z</time>
      </trkpt>
      <trkpt lat="45.73701" lon="4.31875">
        <ele>386</ele>
        <time>2017-04-13T08:15:14.1Z</time>
      </trkpt>
      <trkpt lat="45.73703" lon="4.31872">
        <ele>386</ele>
        <time>2017-04-13T08:15:17.1Z</time>
      </trkpt>
      <trkpt lat="45.73704" lon="4.3187">
        <ele>385</ele>
        <time>2017-04-13T08:15:19.1Z</time>
      </trkpt>
      <trkpt lat="45.73704" lon="4.31869">
        <ele>385</ele>
        <time>2017-04-13T08:15:21.1Z</time>
      </trkpt>
      <trkpt lat="45.73705" lon="4.31865">
        <ele>385</ele>
        <time>2017-04-13T08:15:24.1Z</time>
      </trkpt>
      <trkpt lat="45.73705" lon="4.31863">
        <ele>385</ele>
        <time>2017-04-13T08:15:26.1Z</time>
      </trkpt>
      <trkpt lat="45.73704" lon="4.3186">
        <ele>385</ele>
        <time>2017-04-13T08:15:28.1Z</time>
      </trkpt>
      <trkpt lat="45.73703" lon="4.31856">
        <ele>385</ele>
        <time>2017-04-13T08:15:31.1Z</time>
      </trkpt>
      <trkpt lat="45.73703" lon="4.31854">
        <ele>384</ele>
        <time>2017-04-13T08:15:33.1Z</time>
      </trkpt>
      <trkpt lat="45.73702" lon="4.31851">
        <ele>384</ele>
        <time>2017-04-13T08:15:35.1Z</time>
      </trkpt>
      <trkpt lat="45.73701" lon="4.31848">
        <ele>384</ele>
        <time>2017-04-13T08:15:37.1Z</time>
      </trkpt>
      <trkpt lat="45.737" lon="4.31845">
        <ele>384</ele>
        <time>2017-04-13T08:15:39.1Z</time>
      </trkpt>
      <trkpt lat="45.73699" lon="4.31843">
        <ele>384</ele>
        <time>2017-04-13T08:15:41.1Z</time>
      </trkpt>
      <trkpt lat="45.73698" lon="4.31839">
        <ele>384</ele>
        <time>2017-04-13T08:15:43.1Z</time>
      </trkpt>
      <trkpt lat="45.73697" lon="4.31836">
        <ele>384</ele>
        <time>2017-04-13T08:15:45.1Z</time>
      </trkpt>
      <trkpt lat="45.73695" lon="4.31831">
        <ele>384</ele>
        <time>2017-04-13T08:15:48.1Z</time>
      </trkpt>
      <trkpt lat="45.73693" lon="4.31828">
        <ele>384</ele>
        <time>2017-04-13T08:15:50.1Z</time>
      </trkpt>
      <trkpt lat="45.73692" lon="4.31825">
        <ele>384</ele>
        <time>2017-04-13T08:15:52.1Z</time>
      </trkpt>
      <trkpt lat="45.7369" lon="4.31823">
        <ele>384</ele>
        <time>2017-04-13T08:15:54.1Z</time>
      </trkpt>
      <trkpt lat="45.73687" lon="4.3182">
        <ele>384</ele>
        <time>2017-04-13T08:15:57.1Z</time>
      </trkpt>
      <trkpt lat="45.73684" lon="4.31815">
        <ele>384</ele>
        <time>2017-04-13T08:16:00.1Z</time>
      </trkpt>
      <trkpt lat="45.73682" lon="4.31812">
        <ele>384</ele>
        <time>2017-04-13T08:16:02.1Z</time>
      </trkpt>
      <trkpt lat="45.73679" lon="4.31809">
        <ele>384</ele>
        <time>2017-04-13T08:16:04.1Z</time>
      </trkpt>
      <trkpt lat="45.73677" lon="4.31806">
        <ele>384</ele>
        <time>2017-04-13T08:16:06.1Z</time>
      </trkpt>
      <trkpt lat="45.73674" lon="4.31801">
        <ele>384</ele>
        <time>2017-04-13T08:16:09.1Z</time>
      </trkpt>
      <trkpt lat="45.73673" lon="4.31797">
        <ele>384</ele>
        <time>2017-04-13T08:16:11.1Z</time>
      </trkpt>
      <trkpt lat="45.73671" lon="4.31793">
        <ele>384</ele>
        <time>2017-04-13T08:16:13.1Z</time>
      </trkpt>
      <trkpt lat="45.73669" lon="4.31788">
        <ele>384</ele>
        <time>2017-04-13T08:16:15.1Z</time>
      </trkpt>
      <trkpt lat="45.73669" lon="4.31781">
        <ele>384</ele>
        <time>2017-04-13T08:16:18.1Z</time>
      </trkpt>
      <trkpt lat="45.7367" lon="4.31778">
        <ele>384</ele>
        <time>2017-04-13T08:16:20.1Z</time>
      </trkpt>
      <trkpt lat="45.73671" lon="4.31774">
        <ele>384</ele>
        <time>2017-04-13T08:16:22.1Z</time>
      </trkpt>
      <trkpt lat="45.73671" lon="4.31768">
        <ele>384</ele>
        <time>2017-04-13T08:16:25.1Z</time>
      </trkpt>
      <trkpt lat="45.73671" lon="4.31764">
        <ele>384</ele>
        <time>2017-04-13T08:16:27.1Z</time>
      </trkpt>
      <trkpt lat="45.73671" lon="4.31758">
        <ele>385</ele>
        <time>2017-04-13T08:16:30.1Z</time>
      </trkpt>
      <trkpt lat="45.73671" lon="4.31754">
        <ele>385</ele>
        <time>2017-04-13T08:16:32.1Z</time>
      </trkpt>
      <trkpt lat="45.73673" lon="4.31747">
        <ele>385</ele>
        <time>2017-04-13T08:16:35.1Z</time>
      </trkpt>
      <trkpt lat="45.73674" lon="4.31743">
        <ele>385</ele>
        <time>2017-04-13T08:16:37.1Z</time>
      </trkpt>
      <trkpt lat="45.73675" lon="4.31738">
        <ele>385</ele>
        <time>2017-04-13T08:16:40.1Z</time>
      </trkpt>
      <trkpt lat="45.73677" lon="4.31733">
        <ele>385</ele>
        <time>2017-04-13T08:16:43.1Z</time>
      </trkpt>
      <trkpt lat="45.73678" lon="4.31729">
        <ele>385</ele>
        <time>2017-04-13T08:16:45.1Z</time>
      </trkpt>
      <trkpt lat="45.73679" lon="4.31727">
        <ele>386</ele>
        <time>2017-04-13T08:16:47.1Z</time>
      </trkpt>
      <trkpt lat="45.7368" lon="4.31723">
        <ele>386</ele>
        <time>2017-04-13T08:16:49.1Z</time>
      </trkpt>
      <trkpt lat="45.7368" lon="4.31717">
        <ele>386</ele>
        <time>2017-04-13T08:16:52.1Z</time>
      </trkpt>
      <trkpt lat="45.7368" lon="4.31713">
        <ele>386</ele>
        <time>2017-04-13T08:16:54.1Z</time>
      </trkpt>
      <trkpt lat="45.7368" lon="4.31709">
        <ele>386</ele>
        <time>2017-04-13T08:16:56.1Z</time>
      </trkpt>
      <trkpt lat="45.73681" lon="4.31706">
        <ele>387</ele>
        <time>2017-04-13T08:16:58.1Z</time>
      </trkpt>
      <trkpt lat="45.73681" lon="4.31704">
        <ele>387</ele>
        <time>2017-04-13T08:17:00.1Z</time>
      </trkpt>
      <trkpt lat="45.73681" lon="4.317">
        <ele>387</ele>
        <time>2017-04-13T08:17:03.1Z</time>
      </trkpt>
      <trkpt lat="45.7368" lon="4.31695">
        <ele>387</ele>
        <time>2017-04-13T08:17:06.1Z</time>
      </trkpt>
      <trkpt lat="45.7368" lon="4.31692">
        <ele>388</ele>
        <time>2017-04-13T08:17:08.1Z</time>
      </trkpt>
      <trkpt lat="45.73679" lon="4.31689">
        <ele>388</ele>
        <time>2017-04-13T08:17:10.1Z</time>
      </trkpt>
      <trkpt lat="45.73678" lon="4.31684">
        <ele>388</ele>
        <time>2017-04-13T08:17:13.1Z</time>
      </trkpt>
      <trkpt lat="45.73677" lon="4.31681">
        <ele>388</ele>
        <time>2017-04-13T08:17:15.1Z</time>
      </trkpt>
      <trkpt lat="45.73676" lon="4.31675">
        <ele>388</ele>
        <time>2017-04-13T08:17:18.1Z</time>
      </trkpt>
      <trkpt lat="45.73675" lon="4.31671">
        <ele>388</ele>
        <time>2017-04-13T08:17:20.1Z</time>
      </trkpt>
      <trkpt lat="45.73674" lon="4.31668">
        <ele>388</ele>
        <time>2017-04-13T08:17:22.1Z</time>
      </trkpt>
      <trkpt lat="45.73671" lon="4.31664">
        <ele>388</ele>
        <time>2017-04-13T08:17:25.1Z</time>
      </trkpt>
      <trkpt lat="45.73669" lon="4.31659">
        <ele>388</ele>
        <time>2017-04-13T08:17:28.1Z</time>
      </trkpt>
      <trkpt lat="45.73667" lon="4.31655">
        <ele>388</ele>
        <time>2017-04-13T08:17:30.1Z</time>
      </trkpt>
      <trkpt lat="45.73665" lon="4.31651">
        <ele>389</ele>
        <time>2017-04-13T08:17:32.1Z</time>
      </trkpt>
      <trkpt lat="45.73663" lon="4.31645">
        <ele>389</ele>
        <time>2017-04-13T08:17:35.1Z</time>
      </trkpt>
      <trkpt lat="45.73662" lon="4.31641">
        <ele>389</ele>
        <time>2017-04-13T08:17:37.1Z</time>
      </trkpt>
      <trkpt lat="45.73661" lon="4.31636">
        <ele>389</ele>
        <time>2017-04-13T08:17:39.1Z</time>
      </trkpt>
      <trkpt lat="45.7366" lon="4.31629">
        <ele>388</ele>
        <time>2017-04-13T08:17:42.1Z</time>
      </trkpt>
      <trkpt lat="45.7366" lon="4.31622">
        <ele>388</ele>
        <time>2017-04-13T08:17:45.1Z</time>
      </trkpt>
      <trkpt lat="45.7366" lon="4.31617">
        <ele>389</ele>
        <time>2017-04-13T08:17:47.1Z</time>
      </trkpt>
      <trkpt lat="45.7366" lon="4.31612">
        <ele>388</ele>
        <time>2017-04-13T08:17:49.1Z</time>
      </trkpt>
      <trkpt lat="45.73661" lon="4.31606">
        <ele>388</ele>
        <time>2017-04-13T08:17:52.1Z</time>
      </trkpt>
      <trkpt lat="45.73662" lon="4.316">
        <ele>388</ele>
        <time>2017-04-13T08:17:55.1Z</time>
      </trkpt>
      <trkpt lat="45.73663" lon="4.31594">
        <ele>387</ele>
        <time>2017-04-13T08:17:58.1Z</time>
      </trkpt>
      <trkpt lat="45.73664" lon="4.3159">
        <ele>387</ele>
        <time>2017-04-13T08:18:00.1Z</time>
      </trkpt>
      <trkpt lat="45.73666" lon="4.31585">
        <ele>386</ele>
        <time>2017-04-13T08:18:03.1Z</time>
      </trkpt>
      <trkpt lat="45.73668" lon="4.31582">
        <ele>386</ele>
        <time>2017-04-13T08:18:05.1Z</time>
      </trkpt>
      <trkpt lat="45.73669" lon="4.31577">
        <ele>386</ele>
        <time>2017-04-13T08:18:08.1Z</time>
      </trkpt>
      <trkpt lat="45.73672" lon="4.31572">
        <ele>386</ele>
        <time>2017-04-13T08:18:11.1Z</time>
      </trkpt>
      <trkpt lat="45.73673" lon="4.31568">
        <ele>386</ele>
        <time>2017-04-13T08:18:13.1Z</time>
      </trkpt>
      <trkpt lat="45.73675" lon="4.31565">
        <ele>385</ele>
        <time>2017-04-13T08:18:15.1Z</time>
      </trkpt>
      <trkpt lat="45.73678" lon="4.3156">
        <ele>385</ele>
        <time>2017-04-13T08:18:18.1Z</time>
      </trkpt>
      <trkpt lat="45.7368" lon="4.31557">
        <ele>385</ele>
        <time>2017-04-13T08:18:20.1Z</time>
      </trkpt>
      <trkpt lat="45.73682" lon="4.31553">
        <ele>385</ele>
        <time>2017-04-13T08:18:22.1Z</time>
      </trkpt>
      <trkpt lat="45.73685" lon="4.31549">
        <ele>386</ele>
        <time>2017-04-13T08:18:25.1Z</time>
      </trkpt>
      <trkpt lat="45.73687" lon="4.31547">
        <ele>386</ele>
        <time>2017-04-13T08:18:27.1Z</time>
      </trkpt>
      <trkpt lat="45.7369" lon="4.31545">
        <ele>386</ele>
        <time>2017-04-13T08:18:29.1Z</time>
      </trkpt>
      <trkpt lat="45.73692" lon="4.31543">
        <ele>386</ele>
        <time>2017-04-13T08:18:31.1Z</time>
      </trkpt>
      <trkpt lat="45.73695" lon="4.31541">
        <ele>386</ele>
        <time>2017-04-13T08:18:33.1Z</time>
      </trkpt>
      <trkpt lat="45.73697" lon="4.3154">
        <ele>386</ele>
        <time>2017-04-13T08:18:35.1Z</time>
      </trkpt>
      <trkpt lat="45.73701" lon="4.31539">
        <ele>387</ele>
        <time>2017-04-13T08:18:38.1Z</time>
      </trkpt>
      <trkpt lat="45.73703" lon="4.31537">
        <ele>387</ele>
        <time>2017-04-13T08:18:40.1Z</time>
      </trkpt>
      <trkpt lat="45.73706" lon="4.31536">
        <ele>387</ele>
        <time>2017-04-13T08:18:42.1Z</time>
      </trkpt>
      <trkpt lat="45.73709" lon="4.31533">
        <ele>387</ele>
        <time>2017-04-13T08:18:45.1Z</time>
      </trkpt>
      <trkpt lat="45.73712" lon="4.31531">
        <ele>387</ele>
        <time>2017-04-13T08:18:48.1Z</time>
      </trkpt>
      <trkpt lat="45.73713" lon="4.3153">
        <ele>387</ele>
        <time>2017-04-13T08:18:50.1Z</time>
      </trkpt>
      <trkpt lat="45.73716" lon="4.31529">
        <ele>387</ele>
        <time>2017-04-13T08:18:53.1Z</time>
      </trkpt>
      <trkpt lat="45.73719" lon="4.31527">
        <ele>387</ele>
        <time>2017-04-13T08:18:56.1Z</time>
      </trkpt>
      <trkpt lat="45.7372" lon="4.31526">
        <ele>388</ele>
        <time>2017-04-13T08:18:58.1Z</time>
      </trkpt>
      <trkpt lat="45.73722" lon="4.31524">
        <ele>388</ele>
        <time>2017-04-13T08:19:01.1Z</time>
      </trkpt>
      <trkpt lat="45.73724" lon="4.31522">
        <ele>387</ele>
        <time>2017-04-13T08:19:03.1Z</time>
      </trkpt>
      <trkpt lat="45.73728" lon="4.3152">
        <ele>387</ele>
        <time>2017-04-13T08:19:06.1Z</time>
      </trkpt>
      <trkpt lat="45.7373" lon="4.31519">
        <ele>387</ele>
        <time>2017-04-13T08:19:08.1Z</time>
      </trkpt>
      <trkpt lat="45.73732" lon="4.31517">
        <ele>387</ele>
        <time>2017-04-13T08:19:10.1Z</time>
      </trkpt>
      <trkpt lat="45.73735" lon="4.31513">
        <ele>387</ele>
        <time>2017-04-13T08:19:13.1Z</time>
      </trkpt>
      <trkpt lat="45.73737" lon="4.3151">
        <ele>387</ele>
        <time>2017-04-13T08:19:15.1Z</time>
      </trkpt>
      <trkpt lat="45.73739" lon="4.31508">
        <ele>387</ele>
        <time>2017-04-13T08:19:17.1Z</time>
      </trkpt>
      <trkpt lat="45.7374" lon="4.31505">
        <ele>387</ele>
        <time>2017-04-13T08:19:19.1Z</time>
      </trkpt>
      <trkpt lat="45.73741" lon="4.31502">
        <ele>387</ele>
        <time>2017-04-13T08:19:21.1Z</time>
      </trkpt>
      <trkpt lat="45.73743" lon="4.31498">
        <ele>387</ele>
        <time>2017-04-13T08:19:24.1Z</time>
      </trkpt>
      <trkpt lat="45.73744" lon="4.31494">
        <ele>386</ele>
        <time>2017-04-13T08:19:27.1Z</time>
      </trkpt>
      <trkpt lat="45.73744" lon="4.31491">
        <ele>386</ele>
        <time>2017-04-13T08:19:29.1Z</time>
      </trkpt>
      <trkpt lat="45.73745" lon="4.31489">
        <ele>385</ele>
        <time>2017-04-13T08:19:31.1Z</time>
      </trkpt>
      <trkpt lat="45.73744" lon="4.31485">
        <ele>385</ele>
        <time>2017-04-13T08:19:34.1Z</time>
      </trkpt>
      <trkpt lat="45.73744" lon="4.31483">
        <ele>385</ele>
        <time>2017-04-13T08:19:37.1Z</time>
      </trkpt>
      <trkpt lat="45.73743" lon="4.31481">
        <ele>385</ele>
        <time>2017-04-13T08:19:40.1Z</time>
      </trkpt>
      <trkpt lat="45.73742" lon="4.3148">
        <ele>385</ele>
        <time>2017-04-13T08:19:43.1Z</time>
      </trkpt>
      <trkpt lat="45.73741" lon="4.3148">
        <ele>384</ele>
        <time>2017-04-13T08:19:45.1Z</time>
      </trkpt>
      <trkpt lat="45.7374" lon="4.31484">
        <ele>384</ele>
        <time>2017-04-13T08:19:48.1Z</time>
      </trkpt>
      <trkpt lat="45.73739" lon="4.31485">
        <ele>383</ele>
        <time>2017-04-13T08:19:50.1Z</time>
      </trkpt>
      <trkpt lat="45.73737" lon="4.31487">
        <ele>383</ele>
        <time>2017-04-13T08:19:52.1Z</time>
      </trkpt>
      <trkpt lat="45.73735" lon="4.31488">
        <ele>383</ele>
        <time>2017-04-13T08:19:55.1Z</time>
      </trkpt>
      <trkpt lat="45.73734" lon="4.31488">
        <ele>383</ele>
        <time>2017-04-13T08:19:57.1Z</time>
      </trkpt>
      <trkpt lat="45.73733" lon="4.31489">
        <ele>383</ele>
        <time>2017-04-13T08:19:59.1Z</time>
      </trkpt>
      <trkpt lat="45.7373" lon="4.3149">
        <ele>383</ele>
        <time>2017-04-13T08:20:02.1Z</time>
      </trkpt>
      <trkpt lat="45.73728" lon="4.31489">
        <ele>382</ele>
        <time>2017-04-13T08:20:05.1Z</time>
      </trkpt>
      <trkpt lat="45.73726" lon="4.31487">
        <ele>382</ele>
        <time>2017-04-13T08:20:08.1Z</time>
      </trkpt>
      <trkpt lat="45.73723" lon="4.31487">
        <ele>381</ele>
        <time>2017-04-13T08:20:10.1Z</time>
      </trkpt>
      <trkpt lat="45.7372" lon="4.31486">
        <ele>381</ele>
        <time>2017-04-13T08:20:12.1Z</time>
      </trkpt>
      <trkpt lat="45.73716" lon="4.31486">
        <ele>380</ele>
        <time>2017-04-13T08:20:15.1Z</time>
      </trkpt>
      <trkpt lat="45.73713" lon="4.31487">
        <ele>380</ele>
        <time>2017-04-13T08:20:18.1Z</time>
      </trkpt>
      <trkpt lat="45.7371" lon="4.31487">
        <ele>380</ele>
        <time>2017-04-13T08:20:20.1Z</time>
      </trkpt>
      <trkpt lat="45.73707" lon="4.31487">
        <ele>380</ele>
        <time>2017-04-13T08:20:22.1Z</time>
      </trkpt>
      <trkpt lat="45.73703" lon="4.31487">
        <ele>379</ele>
        <time>2017-04-13T08:20:24.1Z</time>
      </trkpt>
      <trkpt lat="45.737" lon="4.31488">
        <ele>379</ele>
        <time>2017-04-13T08:20:26.1Z</time>
      </trkpt>
      <trkpt lat="45.73697" lon="4.31488">
        <ele>379</ele>
        <time>2017-04-13T08:20:28.1Z</time>
      </trkpt>
      <trkpt lat="45.73694" lon="4.31488">
        <ele>379</ele>
        <time>2017-04-13T08:20:30.1Z</time>
      </trkpt>
      <trkpt lat="45.73689" lon="4.31489">
        <ele>378</ele>
        <time>2017-04-13T08:20:33.1Z</time>
      </trkpt>
      <trkpt lat="45.73685" lon="4.3149">
        <ele>378</ele>
        <time>2017-04-13T08:20:36.1Z</time>
      </trkpt>
      <trkpt lat="45.73682" lon="4.3149">
        <ele>378</ele>
        <time>2017-04-13T08:20:38.1Z</time>
      </trkpt>
      <trkpt lat="45.73679" lon="4.31491">
        <ele>378</ele>
        <time>2017-04-13T08:20:41.1Z</time>
      </trkpt>
      <trkpt lat="45.73675" lon="4.31492">
        <ele>377</ele>
        <time>2017-04-13T08:20:44.1Z</time>
      </trkpt>
      <trkpt lat="45.73672" lon="4.31493">
        <ele>377</ele>
        <time>2017-04-13T08:20:46.1Z</time>
      </trkpt>
      <trkpt lat="45.73669" lon="4.31496">
        <ele>377</ele>
        <time>2017-04-13T08:20:49.1Z</time>
      </trkpt>
      <trkpt lat="45.73667" lon="4.31498">
        <ele>377</ele>
        <time>2017-04-13T08:20:51.1Z</time>
      </trkpt>
      <trkpt lat="45.73664" lon="4.31501">
        <ele>376</ele>
        <time>2017-04-13T08:20:54.1Z</time>
      </trkpt>
      <trkpt lat="45.7366" lon="4.31506">
        <ele>375</ele>
        <time>2017-04-13T08:20:57.1Z</time>
      </trkpt>
      <trkpt lat="45.73657" lon="4.31509">
        <ele>374</ele>
        <time>2017-04-13T08:20:59.1Z</time>
      </trkpt>
      <trkpt lat="45.73654" lon="4.31513">
        <ele>374</ele>
        <time>2017-04-13T08:21:02.1Z</time>
      </trkpt>
      <trkpt lat="45.73651" lon="4.31517">
        <ele>374</ele>
        <time>2017-04-13T08:21:05.1Z</time>
      </trkpt>
      <trkpt lat="45.7365" lon="4.31519">
        <ele>375</ele>
        <time>2017-04-13T08:21:08.1Z</time>
      </trkpt>
      <trkpt lat="45.73649" lon="4.31521">
        <ele>374</ele>
        <time>2017-04-13T08:21:10.1Z</time>
      </trkpt>
      <trkpt lat="45.73648" lon="4.31523">
        <ele>374</ele>
        <time>2017-04-13T08:21:12.1Z</time>
      </trkpt>
      <trkpt lat="45.73646" lon="4.31524">
        <ele>374</ele>
        <time>2017-04-13T08:21:14.1Z</time>
      </trkpt>
      <trkpt lat="45.73642" lon="4.31527">
        <ele>374</ele>
        <time>2017-04-13T08:21:17.1Z</time>
      </trkpt>
      <trkpt lat="45.7364" lon="4.31529">
        <ele>374</ele>
        <time>2017-04-13T08:21:19.1Z</time>
      </trkpt>
      <trkpt lat="45.73638" lon="4.31533">
        <ele>374</ele>
        <time>2017-04-13T08:21:22.1Z</time>
      </trkpt>
      <trkpt lat="45.73636" lon="4.31535">
        <ele>373</ele>
        <time>2017-04-13T08:21:24.1Z</time>
      </trkpt>
      <trkpt lat="45.73632" lon="4.31539">
        <ele>373</ele>
        <time>2017-04-13T08:21:27.1Z</time>
      </trkpt>
      <trkpt lat="45.73629" lon="4.31543">
        <ele>373</ele>
        <time>2017-04-13T08:21:30.1Z</time>
      </trkpt>
      <trkpt lat="45.73626" lon="4.31547">
        <ele>373</ele>
        <time>2017-04-13T08:21:33.1Z</time>
      </trkpt>
      <trkpt lat="45.73624" lon="4.31549">
        <ele>372</ele>
        <time>2017-04-13T08:21:35.1Z</time>
      </trkpt>
      <trkpt lat="45.73622" lon="4.31551">
        <ele>372</ele>
        <time>2017-04-13T08:21:37.1Z</time>
      </trkpt>
      <trkpt lat="45.7362" lon="4.31553">
        <ele>372</ele>
        <time>2017-04-13T08:21:39.1Z</time>
      </trkpt>
      <trkpt lat="45.73618" lon="4.31556">
        <ele>372</ele>
        <time>2017-04-13T08:21:42.1Z</time>
      </trkpt>
      <trkpt lat="45.73615" lon="4.31559">
        <ele>372</ele>
        <time>2017-04-13T08:21:45.1Z</time>
      </trkpt>
      <trkpt lat="45.73613" lon="4.3156">
        <ele>371</ele>
        <time>2017-04-13T08:21:47.1Z</time>
      </trkpt>
      <trkpt lat="45.73609" lon="4.31563">
        <ele>371</ele>
        <time>2017-04-13T08:21:50.1Z</time>
      </trkpt>
      <trkpt lat="45.73607" lon="4.31564">
        <ele>371</ele>
        <time>2017-04-13T08:21:52.1Z</time>
      </trkpt>
      <trkpt lat="45.73605" lon="4.31566">
        <ele>371</ele>
        <time>2017-04-13T08:21:54.1Z</time>
      </trkpt>
      <trkpt lat="45.73602" lon="4.31566">
        <ele>371</ele>
        <time>2017-04-13T08:21:56.1Z</time>
      </trkpt>
      <trkpt lat="45.73599" lon="4.31566">
        <ele>370</ele>
        <time>2017-04-13T08:21:58.1Z</time>
      </trkpt>
      <trkpt lat="45.73597" lon="4.31567">
        <ele>370</ele>
        <time>2017-04-13T08:22:00.1Z</time>
      </trkpt>
      <trkpt lat="45.73595" lon="4.31569">
        <ele>370</ele>
        <time>2017-04-13T08:22:02.1Z</time>
      </trkpt>
      <trkpt lat="45.73593" lon="4.3157">
        <ele>369</ele>
        <time>2017-04-13T08:22:04.1Z</time>
      </trkpt>
      <trkpt lat="45.73591" lon="4.31572">
        <ele>369</ele>
        <time>2017-04-13T08:22:07.1Z</time>
      </trkpt>
      <trkpt lat="45.73589" lon="4.31573">
        <ele>369</ele>
        <time>2017-04-13T08:22:09.1Z</time>
      </trkpt>
      <trkpt lat="45.73586" lon="4.31574">
        <ele>368</ele>
        <time>2017-04-13T08:22:12.1Z</time>
      </trkpt>
      <trkpt lat="45.73583" lon="4.31574">
        <ele>368</ele>
        <time>2017-04-13T08:22:15.1Z</time>
      </trkpt>
      <trkpt lat="45.7358" lon="4.31575">
        <ele>367</ele>
        <time>2017-04-13T08:22:17.1Z</time>
      </trkpt>
      <trkpt lat="45.73579" lon="4.31576">
        <ele>367</ele>
        <time>2017-04-13T08:22:19.1Z</time>
      </trkpt>
      <trkpt lat="45.73577" lon="4.31577">
        <ele>367</ele>
        <time>2017-04-13T08:22:21.1Z</time>
      </trkpt>
      <trkpt lat="45.73574" lon="4.31578">
        <ele>366</ele>
        <time>2017-04-13T08:22:24.1Z</time>
      </trkpt>
      <trkpt lat="45.73573" lon="4.3158">
        <ele>366</ele>
        <time>2017-04-13T08:22:26.1Z</time>
      </trkpt>
      <trkpt lat="45.73571" lon="4.31581">
        <ele>365</ele>
        <time>2017-04-13T08:22:28.1Z</time>
      </trkpt>
      <trkpt lat="45.73569" lon="4.31585">
        <ele>365</ele>
        <time>2017-04-13T08:22:31.1Z</time>
      </trkpt>
      <trkpt lat="45.73568" lon="4.31586">
        <ele>365</ele>
        <time>2017-04-13T08:22:33.1Z</time>
      </trkpt>
      <trkpt lat="45.73566" lon="4.31587">
        <ele>364</ele>
        <time>2017-04-13T08:22:35.1Z</time>
      </trkpt>
      <trkpt lat="45.73565" lon="4.31587">
        <ele>364</ele>
        <time>2017-04-13T08:22:37.1Z</time>
      </trkpt>
      <trkpt lat="45.73563" lon="4.31589">
        <ele>364</ele>
        <time>2017-04-13T08:22:40.1Z</time>
      </trkpt>
      <trkpt lat="45.73561" lon="4.31591">
        <ele>364</ele>
        <time>2017-04-13T08:22:43.1Z</time>
      </trkpt>
      <trkpt lat="45.7356" lon="4.31593">
        <ele>363</ele>
        <time>2017-04-13T08:22:45.1Z</time>
      </trkpt>
      <trkpt lat="45.73558" lon="4.31595">
        <ele>362</ele>
        <time>2017-04-13T08:22:48.1Z</time>
      </trkpt>
      <trkpt lat="45.73557" lon="4.31597">
        <ele>362</ele>
        <time>2017-04-13T08:22:50.1Z</time>
      </trkpt>
      <trkpt lat="45.73557" lon="4.31602">
        <ele>361</ele>
        <time>2017-04-13T08:22:53.1Z</time>
      </trkpt>
      <trkpt lat="45.73557" lon="4.31605">
        <ele>361</ele>
        <time>2017-04-13T08:22:55.1Z</time>
      </trkpt>
      <trkpt lat="45.73556" lon="4.31608">
        <ele>360</ele>
        <time>2017-04-13T08:22:58.1Z</time>
      </trkpt>
      <trkpt lat="45.73555" lon="4.3161">
        <ele>360</ele>
        <time>2017-04-13T08:23:00.1Z</time>
      </trkpt>
      <trkpt lat="45.73554" lon="4.31611">
        <ele>359</ele>
        <time>2017-04-13T08:23:02.1Z</time>
      </trkpt>
      <trkpt lat="45.73552" lon="4.31612">
        <ele>359</ele>
        <time>2017-04-13T08:23:05.1Z</time>
      </trkpt>
      <trkpt lat="45.7355" lon="4.31612">
        <ele>359</ele>
        <time>2017-04-13T08:23:08.1Z</time>
      </trkpt>
      <trkpt lat="45.73549" lon="4.31613">
        <ele>358</ele>
        <time>2017-04-13T08:23:10.1Z</time>
      </trkpt>
      <trkpt lat="45.73546" lon="4.31614">
        <ele>358</ele>
        <time>2017-04-13T08:23:13.1Z</time>
      </trkpt>
      <trkpt lat="45.73542" lon="4.31614">
        <ele>357</ele>
        <time>2017-04-13T08:23:16.1Z</time>
      </trkpt>
      <trkpt lat="45.73539" lon="4.31614">
        <ele>357</ele>
        <time>2017-04-13T08:23:18.1Z</time>
      </trkpt>
      <trkpt lat="45.73538" lon="4.31613">
        <ele>357</ele>
        <time>2017-04-13T08:23:20.1Z</time>
      </trkpt>
      <trkpt lat="45.73535" lon="4.31613">
        <ele>357</ele>
        <time>2017-04-13T08:23:23.1Z</time>
      </trkpt>
      <trkpt lat="45.73532" lon="4.31612">
        <ele>356</ele>
        <time>2017-04-13T08:23:26.1Z</time>
      </trkpt>
      <trkpt lat="45.73531" lon="4.31611">
        <ele>356</ele>
        <time>2017-04-13T08:23:28.1Z</time>
      </trkpt>
      <trkpt lat="45.73529" lon="4.3161">
        <ele>356</ele>
        <time>2017-04-13T08:23:31.1Z</time>
      </trkpt>
      <trkpt lat="45.73527" lon="4.31609">
        <ele>356</ele>
        <time>2017-04-13T08:23:33.1Z</time>
      </trkpt>
      <trkpt lat="45.73524" lon="4.31608">
        <ele>355</ele>
        <time>2017-04-13T08:23:36.1Z</time>
      </trkpt>
      <trkpt lat="45.73522" lon="4.31608">
        <ele>355</ele>
        <time>2017-04-13T08:23:38.1Z</time>
      </trkpt>
      <trkpt lat="45.73521" lon="4.31607">
        <ele>355</ele>
        <time>2017-04-13T08:23:40.1Z</time>
      </trkpt>
      <trkpt lat="45.73519" lon="4.31607">
        <ele>355</ele>
        <time>2017-04-13T08:23:42.1Z</time>
      </trkpt>
      <trkpt lat="45.73518" lon="4.31606">
        <ele>355</ele>
        <time>2017-04-13T08:23:44.1Z</time>
      </trkpt>
      <trkpt lat="45.73517" lon="4.31605">
        <ele>355</ele>
        <time>2017-04-13T08:23:46.1Z</time>
      </trkpt>
      <trkpt lat="45.73516" lon="4.31604">
        <ele>355</ele>
        <time>2017-04-13T08:23:49.1Z</time>
      </trkpt>
      <trkpt lat="45.73515" lon="4.31604">
        <ele>354</ele>
        <time>2017-04-13T08:23:51.1Z</time>
      </trkpt>
      <trkpt lat="45.73514" lon="4.31603">
        <ele>354</ele>
        <time>2017-04-13T08:23:53.1Z</time>
      </trkpt>
      <trkpt lat="45.73514" lon="4.31602">
        <ele>354</ele>
        <time>2017-04-13T08:23:55.1Z</time>
      </trkpt>
      <trkpt lat="45.73513" lon="4.31601">
        <ele>354</ele>
        <time>2017-04-13T08:23:58.1Z</time>
      </trkpt>
      <trkpt lat="45.73513" lon="4.316">
        <ele>354</ele>
        <time>2017-04-13T08:24:00.1Z</time>
      </trkpt>
      <trkpt lat="45.73513" lon="4.31599">
        <ele>354</ele>
        <time>2017-04-13T08:24:03.1Z</time>
      </trkpt>
      <trkpt lat="45.73513" lon="4.31597">
        <ele>354</ele>
        <time>2017-04-13T08:24:05.1Z</time>
      </trkpt>
      <trkpt lat="45.73513" lon="4.31595">
        <ele>354</ele>
        <time>2017-04-13T08:24:07.1Z</time>
      </trkpt>
      <trkpt lat="45.73512" lon="4.31592">
        <ele>354</ele>
        <time>2017-04-13T08:24:10.1Z</time>
      </trkpt>
      <trkpt lat="45.73512" lon="4.31589">
        <ele>355</ele>
        <time>2017-04-13T08:24:13.1Z</time>
      </trkpt>
      <trkpt lat="45.73513" lon="4.31586">
        <ele>355</ele>
        <time>2017-04-13T08:24:15.1Z</time>
      </trkpt>
      <trkpt lat="45.73513" lon="4.31585">
        <ele>356</ele>
        <time>2017-04-13T08:24:17.1Z</time>
      </trkpt>
      <trkpt lat="45.73515" lon="4.31582">
        <ele>357</ele>
        <time>2017-04-13T08:24:20.1Z</time>
      </trkpt>
      <trkpt lat="45.73516" lon="4.3158">
        <ele>357</ele>
        <time>2017-04-13T08:24:22.1Z</time>
      </trkpt>
      <trkpt lat="45.73516" lon="4.31575">
        <ele>357</ele>
        <time>2017-04-13T08:24:25.1Z</time>
      </trkpt>
      <trkpt lat="45.73517" lon="4.31573">
        <ele>357</ele>
        <time>2017-04-13T08:24:27.1Z</time>
      </trkpt>
      <trkpt lat="45.73517" lon="4.31571">
        <ele>358</ele>
        <time>2017-04-13T08:24:29.1Z</time>
      </trkpt>
      <trkpt lat="45.73516" lon="4.31567">
        <ele>358</ele>
        <time>2017-04-13T08:24:32.1Z</time>
      </trkpt>
      <trkpt lat="45.73516" lon="4.31565">
        <ele>359</ele>
        <time>2017-04-13T08:24:34.1Z</time>
      </trkpt>
      <trkpt lat="45.73513" lon="4.31563">
        <ele>359</ele>
        <time>2017-04-13T08:24:37.1Z</time>
      </trkpt>
      <trkpt lat="45.73511" lon="4.31561">
        <ele>360</ele>
        <time>2017-04-13T08:24:40.1Z</time>
      </trkpt>
      <trkpt lat="45.73509" lon="4.3156">
        <ele>360</ele>
        <time>2017-04-13T08:24:43.1Z</time>
      </trkpt>
      <trkpt lat="45.73507" lon="4.3156">
        <ele>361</ele>
        <time>2017-04-13T08:24:45.1Z</time>
      </trkpt>
      <trkpt lat="45.73505" lon="4.31561">
        <ele>361</ele>
        <time>2017-04-13T08:24:47.1Z</time>
      </trkpt>
      <trkpt lat="45.73503" lon="4.31561">
        <ele>362</ele>
        <time>2017-04-13T08:24:49.1Z</time>
      </trkpt>
      <trkpt lat="45.73501" lon="4.31563">
        <ele>362</ele>
        <time>2017-04-13T08:24:52.1Z</time>
      </trkpt>
      <trkpt lat="45.73499" lon="4.31563">
        <ele>363</ele>
        <time>2017-04-13T08:24:54.1Z</time>
      </trkpt>
      <trkpt lat="45.73496" lon="4.31564">
        <ele>363</ele>
        <time>2017-04-13T08:24:56.1Z</time>
      </trkpt>
      <trkpt lat="45.73494" lon="4.31564">
        <ele>364</ele>
        <time>2017-04-13T08:24:58.1Z</time>
      </trkpt>
      <trkpt lat="45.73491" lon="4.31565">
        <ele>364</ele>
        <time>2017-04-13T08:25:01.1Z</time>
      </trkpt>
      <trkpt lat="45.73488" lon="4.31566">
        <ele>365</ele>
        <time>2017-04-13T08:25:04.1Z</time>
      </trkpt>
      <trkpt lat="45.73488" lon="4.31567">
        <ele>366</ele>
        <time>2017-04-13T08:25:06.1Z</time>
      </trkpt>
      <trkpt lat="45.73487" lon="4.31568">
        <ele>366</ele>
        <time>2017-04-13T08:25:08.1Z</time>
      </trkpt>
      <trkpt lat="45.73485" lon="4.3157">
        <ele>367</ele>
        <time>2017-04-13T08:25:10.1Z</time>
      </trkpt>
      <trkpt lat="45.73483" lon="4.3157">
        <ele>367</ele>
        <time>2017-04-13T08:25:12.1Z</time>
      </trkpt>
      <trkpt lat="45.7348" lon="4.31571">
        <ele>368</ele>
        <time>2017-04-13T08:25:15.1Z</time>
      </trkpt>
      <trkpt lat="45.73478" lon="4.31572">
        <ele>368</ele>
        <time>2017-04-13T08:25:18.1Z</time>
      </trkpt>
      <trkpt lat="45.73476" lon="4.31572">
        <ele>369</ele>
        <time>2017-04-13T08:25:20.1Z</time>
      </trkpt>
      <trkpt lat="45.73475" lon="4.3157">
        <ele>369</ele>
        <time>2017-04-13T08:25:22.1Z</time>
      </trkpt>
      <trkpt lat="45.73474" lon="4.31567">
        <ele>370</ele>
        <time>2017-04-13T08:25:25.1Z</time>
      </trkpt>
      <trkpt lat="45.73475" lon="4.31565">
        <ele>370</ele>
        <time>2017-04-13T08:25:27.1Z</time>
      </trkpt>
      <trkpt lat="45.73475" lon="4.31561">
        <ele>371</ele>
        <time>2017-04-13T08:25:30.1Z</time>
      </trkpt>
      <trkpt lat="45.73476" lon="4.31558">
        <ele>371</ele>
        <time>2017-04-13T08:25:32.1Z</time>
      </trkpt>
      <trkpt lat="45.73478" lon="4.31556">
        <ele>371</ele>
        <time>2017-04-13T08:25:34.1Z</time>
      </trkpt>
      <trkpt lat="45.7348" lon="4.31553">
        <ele>372</ele>
        <time>2017-04-13T08:25:37.1Z</time>
      </trkpt>
      <trkpt lat="45.73481" lon="4.31551">
        <ele>372</ele>
        <time>2017-04-13T08:25:39.1Z</time>
      </trkpt>
      <trkpt lat="45.73482" lon="4.31549">
        <ele>372</ele>
        <time>2017-04-13T08:25:41.1Z</time>
      </trkpt>
      <trkpt lat="45.73483" lon="4.31546">
        <ele>372</ele>
        <time>2017-04-13T08:25:44.1Z</time>
      </trkpt>
      <trkpt lat="45.73483" lon="4.31543">
        <ele>372</ele>
        <time>2017-04-13T08:25:46.1Z</time>
      </trkpt>
      <trkpt lat="45.73483" lon="4.31539">
        <ele>373</ele>
        <time>2017-04-13T08:25:49.1Z</time>
      </trkpt>
      <trkpt lat="45.73484" lon="4.31535">
        <ele>374</ele>
        <time>2017-04-13T08:25:52.1Z</time>
      </trkpt>
      <trkpt lat="45.73484" lon="4.31531">
        <ele>374</ele>
        <time>2017-04-13T08:25:55.1Z</time>
      </trkpt>
      <trkpt lat="45.73485" lon="4.31527">
        <ele>374</ele>
        <time>2017-04-13T08:25:57.1Z</time>
      </trkpt>
      <trkpt lat="45.73486" lon="4.31524">
        <ele>375</ele>
        <time>2017-04-13T08:25:59.1Z</time>
      </trkpt>
      <trkpt lat="45.73487" lon="4.31519">
        <ele>375</ele>
        <time>2017-04-13T08:26:02.1Z</time>
      </trkpt>
      <trkpt lat="45.73488" lon="4.31516">
        <ele>375</ele>
        <time>2017-04-13T08:26:04.1Z</time>
      </trkpt>
      <trkpt lat="45.73489" lon="4.3151">
        <ele>376</ele>
        <time>2017-04-13T08:26:07.1Z</time>
      </trkpt>
      <trkpt lat="45.7349" lon="4.31506">
        <ele>376</ele>
        <time>2017-04-13T08:26:09.1Z</time>
      </trkpt>
      <trkpt lat="45.73491" lon="4.315">
        <ele>376</ele>
        <time>2017-04-13T08:26:12.1Z</time>
      </trkpt>
      <trkpt lat="45.73492" lon="4.31497">
        <ele>376</ele>
        <time>2017-04-13T08:26:14.1Z</time>
      </trkpt>
      <trkpt lat="45.73494" lon="4.31493">
        <ele>376</ele>
        <time>2017-04-13T08:26:16.1Z</time>
      </trkpt>
      <trkpt lat="45.73495" lon="4.31487">
        <ele>377</ele>
        <time>2017-04-13T08:26:19.1Z</time>
      </trkpt>
      <trkpt lat="45.73496" lon="4.31484">
        <ele>377</ele>
        <time>2017-04-13T08:26:21.1Z</time>
      </trkpt>
      <trkpt lat="45.73497" lon="4.31481">
        <ele>378</ele>
        <time>2017-04-13T08:26:23.1Z</time>
      </trkpt>
      <trkpt lat="45.735" lon="4.31476">
        <ele>378</ele>
        <time>2017-04-13T08:26:26.1Z</time>
      </trkpt>
      <trkpt lat="45.73502" lon="4.31472">
        <ele>378</ele>
        <time>2017-04-13T08:26:28.1Z</time>
      </trkpt>
      <trkpt lat="45.73505" lon="4.31468">
        <ele>378</ele>
        <time>2017-04-13T08:26:31.1Z</time>
      </trkpt>
      <trkpt lat="45.73507" lon="4.31464">
        <ele>378</ele>
        <time>2017-04-13T08:26:33.1Z</time>
      </trkpt>
      <trkpt lat="45.73508" lon="4.31461">
        <ele>379</ele>
        <time>2017-04-13T08:26:35.1Z</time>
      </trkpt>
      <trkpt lat="45.7351" lon="4.31458">
        <ele>379</ele>
        <time>2017-04-13T08:26:38.1Z</time>
      </trkpt>
      <trkpt lat="45.7351" lon="4.31455">
        <ele>380</ele>
        <time>2017-04-13T08:26:40.1Z</time>
      </trkpt>
      <trkpt lat="45.7351" lon="4.31452">
        <ele>380</ele>
        <time>2017-04-13T08:26:42.1Z</time>
      </trkpt>
      <trkpt lat="45.73509" lon="4.3145">
        <ele>381</ele>
        <time>2017-04-13T08:26:44.1Z</time>
      </trkpt>
      <trkpt lat="45.7351" lon="4.31446">
        <ele>381</ele>
        <time>2017-04-13T08:26:47.1Z</time>
      </trkpt>
      <trkpt lat="45.73509" lon="4.31443">
        <ele>382</ele>
        <time>2017-04-13T08:26:50.1Z</time>
      </trkpt>
      <trkpt lat="45.73508" lon="4.31441">
        <ele>383</ele>
        <time>2017-04-13T08:26:53.1Z</time>
      </trkpt>
      <trkpt lat="45.73508" lon="4.3144">
        <ele>383</ele>
        <time>2017-04-13T08:26:55.1Z</time>
      </trkpt>
      <trkpt lat="45.73507" lon="4.31439">
        <ele>383</ele>
        <time>2017-04-13T08:26:57.1Z</time>
      </trkpt>
      <trkpt lat="45.73507" lon="4.31439">
        <ele>383</ele>
        <time>2017-04-13T08:26:59.1Z</time>
      </trkpt>
      <trkpt lat="45.73506" lon="4.31437">
        <ele>383</ele>
        <time>2017-04-13T08:27:02.1Z</time>
      </trkpt>
      <trkpt lat="45.73506" lon="4.31436">
        <ele>383</ele>
        <time>2017-04-13T08:27:04.1Z</time>
      </trkpt>
      <trkpt lat="45.73506" lon="4.31434">
        <ele>382</ele>
        <time>2017-04-13T08:27:06.1Z</time>
      </trkpt>
      <trkpt lat="45.73505" lon="4.31431">
        <ele>382</ele>
        <time>2017-04-13T08:27:08.1Z</time>
      </trkpt>
      <trkpt lat="45.73506" lon="4.31428">
        <ele>382</ele>
        <time>2017-04-13T08:27:11.1Z</time>
      </trkpt>
      <trkpt lat="45.73507" lon="4.31424">
        <ele>381</ele>
        <time>2017-04-13T08:27:14.1Z</time>
      </trkpt>
      <trkpt lat="45.73507" lon="4.31421">
        <ele>381</ele>
        <time>2017-04-13T08:27:17.1Z</time>
      </trkpt>
      <trkpt lat="45.73508" lon="4.31419">
        <ele>380</ele>
        <time>2017-04-13T08:27:19.1Z</time>
      </trkpt>
      <trkpt lat="45.73508" lon="4.31417">
        <ele>380</ele>
        <time>2017-04-13T08:27:21.1Z</time>
      </trkpt>
      <trkpt lat="45.7351" lon="4.31415">
        <ele>379</ele>
        <time>2017-04-13T08:27:24.1Z</time>
      </trkpt>
      <trkpt lat="45.73511" lon="4.31414">
        <ele>379</ele>
        <time>2017-04-13T08:27:26.1Z</time>
      </trkpt>
      <trkpt lat="45.73512" lon="4.31412">
        <ele>379</ele>
        <time>2017-04-13T08:27:28.1Z</time>
      </trkpt>
      <trkpt lat="45.73513" lon="4.3141">
        <ele>378</ele>
        <time>2017-04-13T08:27:30.1Z</time>
      </trkpt>
      <trkpt lat="45.73514" lon="4.31406">
        <ele>378</ele>
        <time>2017-04-13T08:27:33.1Z</time>
      </trkpt>
      <trkpt lat="45.73516" lon="4.31403">
        <ele>377</ele>
        <time>2017-04-13T08:27:36.1Z</time>
      </trkpt>
      <trkpt lat="45.73517" lon="4.314">
        <ele>376</ele>
        <time>2017-04-13T08:27:39.1Z</time>
      </trkpt>
      <trkpt lat="45.73518" lon="4.31398">
        <ele>376</ele>
        <time>2017-04-13T08:27:41.1Z</time>
      </trkpt>
      <trkpt lat="45.7352" lon="4.31395">
        <ele>375</ele>
        <time>2017-04-13T08:27:44.1Z</time>
      </trkpt>
      <trkpt lat="45.73522" lon="4.31392">
        <ele>375</ele>
        <time>2017-04-13T08:27:46.1Z</time>
      </trkpt>
      <trkpt lat="45.73523" lon="4.31389">
        <ele>374</ele>
        <time>2017-04-13T08:27:48.1Z</time>
      </trkpt>
      <trkpt lat="45.73524" lon="4.31386">
        <ele>374</ele>
        <time>2017-04-13T08:27:50.1Z</time>
      </trkpt>
      <trkpt lat="45.73525" lon="4.31384">
        <ele>373</ele>
        <time>2017-04-13T08:27:52.1Z</time>
      </trkpt>
      <trkpt lat="45.73526" lon="4.3138">
        <ele>373</ele>
        <time>2017-04-13T08:27:55.1Z</time>
      </trkpt>
      <trkpt lat="45.73527" lon="4.31377">
        <ele>373</ele>
        <time>2017-04-13T08:27:57.1Z</time>
      </trkpt>
      <trkpt lat="45.73528" lon="4.31375">
        <ele>372</ele>
        <time>2017-04-13T08:27:59.1Z</time>
      </trkpt>
      <trkpt lat="45.73529" lon="4.3137">
        <ele>372</ele>
        <time>2017-04-13T08:28:02.1Z</time>
      </trkpt>
      <trkpt lat="45.73531" lon="4.31366">
        <ele>371</ele>
        <time>2017-04-13T08:28:05.1Z</time>
      </trkpt>
      <trkpt lat="45.73532" lon="4.31363">
        <ele>370</ele>
        <time>2017-04-13T08:28:07.1Z</time>
      </trkpt>
      <trkpt lat="45.73532" lon="4.31359">
        <ele>370</ele>
        <time>2017-04-13T08:28:10.1Z</time>
      </trkpt>
      <trkpt lat="45.73533" lon="4.31356">
        <ele>369</ele>
        <time>2017-04-13T08:28:12.1Z</time>
      </trkpt>
      <trkpt lat="45.73534" lon="4.31354">
        <ele>369</ele>
        <time>2017-04-13T08:28:14.1Z</time>
      </trkpt>
      <trkpt lat="45.73535" lon="4.3135">
        <ele>368</ele>
        <time>2017-04-13T08:28:17.1Z</time>
      </trkpt>
      <trkpt lat="45.73536" lon="4.31346">
        <ele>368</ele>
        <time>2017-04-13T08:28:20.1Z</time>
      </trkpt>
      <trkpt lat="45.73537" lon="4.31343">
        <ele>367</ele>
        <time>2017-04-13T08:28:22.1Z</time>
      </trkpt>
      <trkpt lat="45.73538" lon="4.31339">
        <ele>367</ele>
        <time>2017-04-13T08:28:25.1Z</time>
      </trkpt>
      <trkpt lat="45.73539" lon="4.31336">
        <ele>367</ele>
        <time>2017-04-13T08:28:27.1Z</time>
      </trkpt>
      <trkpt lat="45.7354" lon="4.31332">
        <ele>366</ele>
        <time>2017-04-13T08:28:30.1Z</time>
      </trkpt>
      <trkpt lat="45.7354" lon="4.3133">
        <ele>366</ele>
        <time>2017-04-13T08:28:32.1Z</time>
      </trkpt>
      <trkpt lat="45.73541" lon="4.31327">
        <ele>366</ele>
        <time>2017-04-13T08:28:34.1Z</time>
      </trkpt>
      <trkpt lat="45.73542" lon="4.31323">
        <ele>365</ele>
        <time>2017-04-13T08:28:37.1Z</time>
      </trkpt>
      <trkpt lat="45.73544" lon="4.31318">
        <ele>365</ele>
        <time>2017-04-13T08:28:40.1Z</time>
      </trkpt>
      <trkpt lat="45.73545" lon="4.31315">
        <ele>365</ele>
        <time>2017-04-13T08:28:42.1Z</time>
      </trkpt>
      <trkpt lat="45.73547" lon="4.31311">
        <ele>364</ele>
        <time>2017-04-13T08:28:45.1Z</time>
      </trkpt>
      <trkpt lat="45.73548" lon="4.31307">
        <ele>364</ele>
        <time>2017-04-13T08:28:48.1Z</time>
      </trkpt>
      <trkpt lat="45.73548" lon="4.31304">
        <ele>364</ele>
        <time>2017-04-13T08:28:50.1Z</time>
      </trkpt>
      <trkpt lat="45.73549" lon="4.31301">
        <ele>363</ele>
        <time>2017-04-13T08:28:53.1Z</time>
      </trkpt>
      <trkpt lat="45.73549" lon="4.31298">
        <ele>363</ele>
        <time>2017-04-13T08:28:55.1Z</time>
      </trkpt>
      <trkpt lat="45.73549" lon="4.31293">
        <ele>363</ele>
        <time>2017-04-13T08:28:58.1Z</time>
      </trkpt>
      <trkpt lat="45.73551" lon="4.3129">
        <ele>363</ele>
        <time>2017-04-13T08:29:00.1Z</time>
      </trkpt>
      <trkpt lat="45.73552" lon="4.31286">
        <ele>362</ele>
        <time>2017-04-13T08:29:02.1Z</time>
      </trkpt>
      <trkpt lat="45.73554" lon="4.31279">
        <ele>362</ele>
        <time>2017-04-13T08:29:05.1Z</time>
      </trkpt>
      <trkpt lat="45.73555" lon="4.31275">
        <ele>362</ele>
        <time>2017-04-13T08:29:07.1Z</time>
      </trkpt>
      <trkpt lat="45.73556" lon="4.31271">
        <ele>362</ele>
        <time>2017-04-13T08:29:09.1Z</time>
      </trkpt>
      <trkpt lat="45.73557" lon="4.31264">
        <ele>361</ele>
        <time>2017-04-13T08:29:12.1Z</time>
      </trkpt>
      <trkpt lat="45.73558" lon="4.3126">
        <ele>361</ele>
        <time>2017-04-13T08:29:14.1Z</time>
      </trkpt>
      <trkpt lat="45.73558" lon="4.31255">
        <ele>361</ele>
        <time>2017-04-13T08:29:16.1Z</time>
      </trkpt>
      <trkpt lat="45.73559" lon="4.31249">
        <ele>360</ele>
        <time>2017-04-13T08:29:19.1Z</time>
      </trkpt>
      <trkpt lat="45.7356" lon="4.31246">
        <ele>360</ele>
        <time>2017-04-13T08:29:21.1Z</time>
      </trkpt>
      <trkpt lat="45.73561" lon="4.31242">
        <ele>360</ele>
        <time>2017-04-13T08:29:23.1Z</time>
      </trkpt>
      <trkpt lat="45.73563" lon="4.31236">
        <ele>360</ele>
        <time>2017-04-13T08:29:26.1Z</time>
      </trkpt>
      <trkpt lat="45.73566" lon="4.3123">
        <ele>360</ele>
        <time>2017-04-13T08:29:29.1Z</time>
      </trkpt>
      <trkpt lat="45.73567" lon="4.31226">
        <ele>360</ele>
        <time>2017-04-13T08:29:31.1Z</time>
      </trkpt>
      <trkpt lat="45.73569" lon="4.31221">
        <ele>360</ele>
        <time>2017-04-13T08:29:34.1Z</time>
      </trkpt>
      <trkpt lat="45.73571" lon="4.31217">
        <ele>359</ele>
        <time>2017-04-13T08:29:37.1Z</time>
      </trkpt>
      <trkpt lat="45.73572" lon="4.31215">
        <ele>359</ele>
        <time>2017-04-13T08:29:39.1Z</time>
      </trkpt>
      <trkpt lat="45.73573" lon="4.31211">
        <ele>359</ele>
        <time>2017-04-13T08:29:41.1Z</time>
      </trkpt>
      <trkpt lat="45.73574" lon="4.31207">
        <ele>359</ele>
        <time>2017-04-13T08:29:44.1Z</time>
      </trkpt>
      <trkpt lat="45.73575" lon="4.31202">
        <ele>359</ele>
        <time>2017-04-13T08:29:47.1Z</time>
      </trkpt>
      <trkpt lat="45.73576" lon="4.31198">
        <ele>359</ele>
        <time>2017-04-13T08:29:50.1Z</time>
      </trkpt>
      <trkpt lat="45.73578" lon="4.31193">
        <ele>359</ele>
        <time>2017-04-13T08:29:53.1Z</time>
      </trkpt>
      <trkpt lat="45.7358" lon="4.31189">
        <ele>359</ele>
        <time>2017-04-13T08:29:55.1Z</time>
      </trkpt>
      <trkpt lat="45.73581" lon="4.31187">
        <ele>359</ele>
        <time>2017-04-13T08:29:57.1Z</time>
      </trkpt>
      <trkpt lat="45.73583" lon="4.31183">
        <ele>359</ele>
        <time>2017-04-13T08:30:00.1Z</time>
      </trkpt>
      <trkpt lat="45.73586" lon="4.31179">
        <ele>359</ele>
        <time>2017-04-13T08:30:03.1Z</time>
      </trkpt>
      <trkpt lat="45.73587" lon="4.31176">
        <ele>359</ele>
        <time>2017-04-13T08:30:05.1Z</time>
      </trkpt>
      <trkpt lat="45.73588" lon="4.31173">
        <ele>359</ele>
        <time>2017-04-13T08:30:07.1Z</time>
      </trkpt>
      <trkpt lat="45.73591" lon="4.3117">
        <ele>359</ele>
        <time>2017-04-13T08:30:10.1Z</time>
      </trkpt>
      <trkpt lat="45.73592" lon="4.31167">
        <ele>359</ele>
        <time>2017-04-13T08:30:12.1Z</time>
      </trkpt>
      <trkpt lat="45.73594" lon="4.31163">
        <ele>359</ele>
        <time>2017-04-13T08:30:15.1Z</time>
      </trkpt>
      <trkpt lat="45.73595" lon="4.31161">
        <ele>359</ele>
        <time>2017-04-13T08:30:17.1Z</time>
      </trkpt>
      <trkpt lat="45.73595" lon="4.31156">
        <ele>359</ele>
        <time>2017-04-13T08:30:20.1Z</time>
      </trkpt>
      <trkpt lat="45.73597" lon="4.31153">
        <ele>359</ele>
        <time>2017-04-13T08:30:22.1Z</time>
      </trkpt>
      <trkpt lat="45.73598" lon="4.3115">
        <ele>359</ele>
        <time>2017-04-13T08:30:24.1Z</time>
      </trkpt>
      <trkpt lat="45.73599" lon="4.31145">
        <ele>358</ele>
        <time>2017-04-13T08:30:27.1Z</time>
      </trkpt>
      <trkpt lat="45.73601" lon="4.31141">
        <ele>358</ele>
        <time>2017-04-13T08:30:30.1Z</time>
      </trkpt>
      <trkpt lat="45.73603" lon="4.31138">
        <ele>358</ele>
        <time>2017-04-13T08:30:32.1Z</time>
      </trkpt>
      <trkpt lat="45.73605" lon="4.31136">
        <ele>358</ele>
        <time>2017-04-13T08:30:34.1Z</time>
      </trkpt>
      <trkpt lat="45.73609" lon="4.31132">
        <ele>358</ele>
        <time>2017-04-13T08:30:37.1Z</time>
      </trkpt>
      <trkpt lat="45.73611" lon="4.31129">
        <ele>358</ele>
        <time>2017-04-13T08:30:39.1Z</time>
      </trkpt>
      <trkpt lat="45.73614" lon="4.31127">
        <ele>358</ele>
        <time>2017-04-13T08:30:41.1Z</time>
      </trkpt>
      <trkpt lat="45.73616" lon="4.31124">
        <ele>358</ele>
        <time>2017-04-13T08:30:43.1Z</time>
      </trkpt>
      <trkpt lat="45.73618" lon="4.31119">
        <ele>359</ele>
        <time>2017-04-13T08:30:46.1Z</time>
      </trkpt>
      <trkpt lat="45.73619" lon="4.31115">
        <ele>359</ele>
        <time>2017-04-13T08:30:49.1Z</time>
      </trkpt>
      <trkpt lat="45.73623" lon="4.3111">
        <ele>359</ele>
        <time>2017-04-13T08:30:52.1Z</time>
      </trkpt>
      <trkpt lat="45.73625" lon="4.31107">
        <ele>359</ele>
        <time>2017-04-13T08:30:54.1Z</time>
      </trkpt>
      <trkpt lat="45.73626" lon="4.31104">
        <ele>358</ele>
        <time>2017-04-13T08:30:56.1Z</time>
      </trkpt>
      <trkpt lat="45.73628" lon="4.31098">
        <ele>358</ele>
        <time>2017-04-13T08:30:59.1Z</time>
      </trkpt>
      <trkpt lat="45.7363" lon="4.31095">
        <ele>358</ele>
        <time>2017-04-13T08:31:01.1Z</time>
      </trkpt>
      <trkpt lat="45.73631" lon="4.3109">
        <ele>358</ele>
        <time>2017-04-13T08:31:04.1Z</time>
      </trkpt>
      <trkpt lat="45.73632" lon="4.31087">
        <ele>358</ele>
        <time>2017-04-13T08:31:06.1Z</time>
      </trkpt>
      <trkpt lat="45.73635" lon="4.31082">
        <ele>358</ele>
        <time>2017-04-13T08:31:09.1Z</time>
      </trkpt>
      <trkpt lat="45.73637" lon="4.3108">
        <ele>358</ele>
        <time>2017-04-13T08:31:11.1Z</time>
      </trkpt>
      <trkpt lat="45.73638" lon="4.31074">
        <ele>358</ele>
        <time>2017-04-13T08:31:14.1Z</time>
      </trkpt>
      <trkpt lat="45.7364" lon="4.3107">
        <ele>358</ele>
        <time>2017-04-13T08:31:16.1Z</time>
      </trkpt>
      <trkpt lat="45.73641" lon="4.31066">
        <ele>358</ele>
        <time>2017-04-13T08:31:19.1Z</time>
      </trkpt>
      <trkpt lat="45.73641" lon="4.31062">
        <ele>359</ele>
        <time>2017-04-13T08:31:21.1Z</time>
      </trkpt>
      <trkpt lat="45.73642" lon="4.31059">
        <ele>358</ele>
        <time>2017-04-13T08:31:23.1Z</time>
      </trkpt>
      <trkpt lat="45.73643" lon="4.31056">
        <ele>359</ele>
        <time>2017-04-13T08:31:25.1Z</time>
      </trkpt>
      <trkpt lat="45.73644" lon="4.3105">
        <ele>358</ele>
        <time>2017-04-13T08:31:28.1Z</time>
      </trkpt>
      <trkpt lat="45.73645" lon="4.31047">
        <ele>359</ele>
        <time>2017-04-13T08:31:30.1Z</time>
      </trkpt>
      <trkpt lat="45.73646" lon="4.31044">
        <ele>359</ele>
        <time>2017-04-13T08:31:32.1Z</time>
      </trkpt>
      <trkpt lat="45.73647" lon="4.31041">
        <ele>359</ele>
        <time>2017-04-13T08:31:34.1Z</time>
      </trkpt>
      <trkpt lat="45.73649" lon="4.31038">
        <ele>359</ele>
        <time>2017-04-13T08:31:36.1Z</time>
      </trkpt>
      <trkpt lat="45.7365" lon="4.31034">
        <ele>358</ele>
        <time>2017-04-13T08:31:38.1Z</time>
      </trkpt>
      <trkpt lat="45.73652" lon="4.3103">
        <ele>358</ele>
        <time>2017-04-13T08:31:41.1Z</time>
      </trkpt>
      <trkpt lat="45.73654" lon="4.31027">
        <ele>358</ele>
        <time>2017-04-13T08:31:43.1Z</time>
      </trkpt>
      <trkpt lat="45.73655" lon="4.31025">
        <ele>358</ele>
        <time>2017-04-13T08:31:45.1Z</time>
      </trkpt>
      <trkpt lat="45.73656" lon="4.31022">
        <ele>358</ele>
        <time>2017-04-13T08:31:47.1Z</time>
      </trkpt>
      <trkpt lat="45.73657" lon="4.31019">
        <ele>358</ele>
        <time>2017-04-13T08:31:49.1Z</time>
      </trkpt>
      <trkpt lat="45.73659" lon="4.31016">
        <ele>358</ele>
        <time>2017-04-13T08:31:52.1Z</time>
      </trkpt>
      <trkpt lat="45.7366" lon="4.31013">
        <ele>358</ele>
        <time>2017-04-13T08:31:54.1Z</time>
      </trkpt>
      <trkpt lat="45.73662" lon="4.31011">
        <ele>358</ele>
        <time>2017-04-13T08:31:56.1Z</time>
      </trkpt>
      <trkpt lat="45.73664" lon="4.31009">
        <ele>358</ele>
        <time>2017-04-13T08:31:58.1Z</time>
      </trkpt>
      <trkpt lat="45.73668" lon="4.31005">
        <ele>358</ele>
        <time>2017-04-13T08:32:01.1Z</time>
      </trkpt>
      <trkpt lat="45.7367" lon="4.31003">
        <ele>358</ele>
        <time>2017-04-13T08:32:03.1Z</time>
      </trkpt>
      <trkpt lat="45.73672" lon="4.31">
        <ele>358</ele>
        <time>2017-04-13T08:32:05.1Z</time>
      </trkpt>
      <trkpt lat="45.73676" lon="4.30997">
        <ele>357</ele>
        <time>2017-04-13T08:32:08.1Z</time>
      </trkpt>
      <trkpt lat="45.73678" lon="4.30995">
        <ele>358</ele>
        <time>2017-04-13T08:32:10.1Z</time>
      </trkpt>
      <trkpt lat="45.7368" lon="4.30993">
        <ele>358</ele>
        <time>2017-04-13T08:32:12.1Z</time>
      </trkpt>
      <trkpt lat="45.73682" lon="4.3099">
        <ele>358</ele>
        <time>2017-04-13T08:32:15.1Z</time>
      </trkpt>
      <trkpt lat="45.73685" lon="4.30988">
        <ele>358</ele>
        <time>2017-04-13T08:32:18.1Z</time>
      </trkpt>
      <trkpt lat="45.73686" lon="4.30987">
        <ele>358</ele>
        <time>2017-04-13T08:32:20.1Z</time>
      </trkpt>
      <trkpt lat="45.73689" lon="4.30984">
        <ele>359</ele>
        <time>2017-04-13T08:32:23.1Z</time>
      </trkpt>
      <trkpt lat="45.73691" lon="4.30982">
        <ele>358</ele>
        <time>2017-04-13T08:32:25.1Z</time>
      </trkpt>
      <trkpt lat="45.73693" lon="4.3098">
        <ele>359</ele>
        <time>2017-04-13T08:32:27.1Z</time>
      </trkpt>
      <trkpt lat="45.73696" lon="4.30978">
        <ele>359</ele>
        <time>2017-04-13T08:32:29.1Z</time>
      </trkpt>
      <trkpt lat="45.737" lon="4.30976">
        <ele>358</ele>
        <time>2017-04-13T08:32:32.1Z</time>
      </trkpt>
      <trkpt lat="45.73704" lon="4.30973">
        <ele>358</ele>
        <time>2017-04-13T08:32:35.1Z</time>
      </trkpt>
      <trkpt lat="45.73707" lon="4.30971">
        <ele>358</ele>
        <time>2017-04-13T08:32:37.1Z</time>
      </trkpt>
      <trkpt lat="45.73709" lon="4.30968">
        <ele>358</ele>
        <time>2017-04-13T08:32:39.1Z</time>
      </trkpt>
      <trkpt lat="45.73711" lon="4.30964">
        <ele>358</ele>
        <time>2017-04-13T08:32:42.1Z</time>
      </trkpt>
      <trkpt lat="45.73712" lon="4.30962">
        <ele>358</ele>
        <time>2017-04-13T08:32:44.1Z</time>
      </trkpt>
      <trkpt lat="45.73714" lon="4.30958">
        <ele>358</ele>
        <time>2017-04-13T08:32:47.1Z</time>
      </trkpt>
      <trkpt lat="45.73715" lon="4.30955">
        <ele>358</ele>
        <time>2017-04-13T08:32:49.1Z</time>
      </trkpt>
      <trkpt lat="45.73716" lon="4.30953">
        <ele>358</ele>
        <time>2017-04-13T08:32:51.1Z</time>
      </trkpt>
      <trkpt lat="45.73719" lon="4.30948">
        <ele>358</ele>
        <time>2017-04-13T08:32:54.1Z</time>
      </trkpt>
      <trkpt lat="45.7372" lon="4.30945">
        <ele>358</ele>
        <time>2017-04-13T08:32:56.1Z</time>
      </trkpt>
      <trkpt lat="45.73723" lon="4.3094">
        <ele>358</ele>
        <time>2017-04-13T08:32:59.1Z</time>
      </trkpt>
      <trkpt lat="45.73724" lon="4.30937">
        <ele>358</ele>
        <time>2017-04-13T08:33:01.1Z</time>
      </trkpt>
      <trkpt lat="45.73726" lon="4.30934">
        <ele>358</ele>
        <time>2017-04-13T08:33:03.1Z</time>
      </trkpt>
      <trkpt lat="45.73728" lon="4.30928">
        <ele>358</ele>
        <time>2017-04-13T08:33:06.1Z</time>
      </trkpt>
      <trkpt lat="45.7373" lon="4.30925">
        <ele>358</ele>
        <time>2017-04-13T08:33:08.1Z</time>
      </trkpt>
      <trkpt lat="45.73732" lon="4.3092">
        <ele>358</ele>
        <time>2017-04-13T08:33:11.1Z</time>
      </trkpt>
      <trkpt lat="45.73734" lon="4.30917">
        <ele>358</ele>
        <time>2017-04-13T08:33:13.1Z</time>
      </trkpt>
      <trkpt lat="45.73736" lon="4.30913">
        <ele>358</ele>
        <time>2017-04-13T08:33:15.1Z</time>
      </trkpt>
      <trkpt lat="45.73738" lon="4.30908">
        <ele>358</ele>
        <time>2017-04-13T08:33:18.1Z</time>
      </trkpt>
      <trkpt lat="45.73741" lon="4.30903">
        <ele>358</ele>
        <time>2017-04-13T08:33:21.1Z</time>
      </trkpt>
      <trkpt lat="45.73744" lon="4.30898">
        <ele>358</ele>
        <time>2017-04-13T08:33:24.1Z</time>
      </trkpt>
      <trkpt lat="45.73745" lon="4.30895">
        <ele>358</ele>
        <time>2017-04-13T08:33:26.1Z</time>
      </trkpt>
      <trkpt lat="45.73746" lon="4.30889">
        <ele>358</ele>
        <time>2017-04-13T08:33:29.1Z</time>
      </trkpt>
      <trkpt lat="45.73746" lon="4.30885">
        <ele>358</ele>
        <time>2017-04-13T08:33:31.1Z</time>
      </trkpt>
      <trkpt lat="45.73747" lon="4.30879">
        <ele>358</ele>
        <time>2017-04-13T08:33:34.1Z</time>
      </trkpt>
      <trkpt lat="45.73747" lon="4.30876">
        <ele>358</ele>
        <time>2017-04-13T08:33:36.1Z</time>
      </trkpt>
      <trkpt lat="45.73749" lon="4.30873">
        <ele>358</ele>
        <time>2017-04-13T08:33:38.1Z</time>
      </trkpt>
      <trkpt lat="45.7375" lon="4.30868">
        <ele>358</ele>
        <time>2017-04-13T08:33:41.1Z</time>
      </trkpt>
      <trkpt lat="45.73752" lon="4.30864">
        <ele>358</ele>
        <time>2017-04-13T08:33:44.1Z</time>
      </trkpt>
      <trkpt lat="45.73753" lon="4.3086">
        <ele>358</ele>
        <time>2017-04-13T08:33:46.1Z</time>
      </trkpt>
      <trkpt lat="45.73754" lon="4.30855">
        <ele>358</ele>
        <time>2017-04-13T08:33:49.1Z</time>
      </trkpt>
      <trkpt lat="45.73756" lon="4.30853">
        <ele>358</ele>
        <time>2017-04-13T08:33:51.1Z</time>
      </trkpt>
      <trkpt lat="45.73758" lon="4.30849">
        <ele>358</ele>
        <time>2017-04-13T08:33:53.1Z</time>
      </trkpt>
      <trkpt lat="45.73759" lon="4.30847">
        <ele>357</ele>
        <time>2017-04-13T08:33:55.1Z</time>
      </trkpt>
      <trkpt lat="45.73761" lon="4.30844">
        <ele>358</ele>
        <time>2017-04-13T08:33:57.1Z</time>
      </trkpt>
      <trkpt lat="45.73762" lon="4.30841">
        <ele>358</ele>
        <time>2017-04-13T08:33:59.1Z</time>
      </trkpt>
      <trkpt lat="45.73763" lon="4.30838">
        <ele>358</ele>
        <time>2017-04-13T08:34:01.1Z</time>
      </trkpt>
      <trkpt lat="45.73766" lon="4.30833">
        <ele>358</ele>
        <time>2017-04-13T08:34:04.1Z</time>
      </trkpt>
      <trkpt lat="45.73768" lon="4.30829">
        <ele>357</ele>
        <time>2017-04-13T08:34:06.1Z</time>
      </trkpt>
      <trkpt lat="45.73769" lon="4.30825">
        <ele>357</ele>
        <time>2017-04-13T08:34:09.1Z</time>
      </trkpt>
      <trkpt lat="45.73771" lon="4.3082">
        <ele>358</ele>
        <time>2017-04-13T08:34:12.1Z</time>
      </trkpt>
      <trkpt lat="45.73772" lon="4.30816">
        <ele>358</ele>
        <time>2017-04-13T08:34:14.1Z</time>
      </trkpt>
      <trkpt lat="45.73775" lon="4.30812">
        <ele>358</ele>
        <time>2017-04-13T08:34:17.1Z</time>
      </trkpt>
      <trkpt lat="45.73777" lon="4.30808">
        <ele>358</ele>
        <time>2017-04-13T08:34:19.1Z</time>
      </trkpt>
      <trkpt lat="45.7378" lon="4.30804">
        <ele>358</ele>
        <time>2017-04-13T08:34:22.1Z</time>
      </trkpt>
      <trkpt lat="45.73782" lon="4.30801">
        <ele>358</ele>
        <time>2017-04-13T08:34:24.1Z</time>
      </trkpt>
      <trkpt lat="45.73783" lon="4.30798">
        <ele>357</ele>
        <time>2017-04-13T08:34:26.1Z</time>
      </trkpt>
      <trkpt lat="45.73783" lon="4.30793">
        <ele>357</ele>
        <time>2017-04-13T08:34:29.1Z</time>
      </trkpt>
      <trkpt lat="45.73784" lon="4.3079">
        <ele>357</ele>
        <time>2017-04-13T08:34:31.1Z</time>
      </trkpt>
      <trkpt lat="45.73785" lon="4.30784">
        <ele>358</ele>
        <time>2017-04-13T08:34:34.1Z</time>
      </trkpt>
      <trkpt lat="45.73787" lon="4.30779">
        <ele>358</ele>
        <time>2017-04-13T08:34:37.1Z</time>
      </trkpt>
      <trkpt lat="45.73788" lon="4.30775">
        <ele>358</ele>
        <time>2017-04-13T08:34:39.1Z</time>
      </trkpt>
      <trkpt lat="45.73789" lon="4.3077">
        <ele>358</ele>
        <time>2017-04-13T08:34:42.1Z</time>
      </trkpt>
      <trkpt lat="45.73789" lon="4.30765">
        <ele>358</ele>
        <time>2017-04-13T08:34:45.1Z</time>
      </trkpt>
      <trkpt lat="45.7379" lon="4.30762">
        <ele>358</ele>
        <time>2017-04-13T08:34:47.1Z</time>
      </trkpt>
      <trkpt lat="45.73791" lon="4.30757">
        <ele>358</ele>
        <time>2017-04-13T08:34:50.1Z</time>
      </trkpt>
      <trkpt lat="45.73792" lon="4.30752">
        <ele>357</ele>
        <time>2017-04-13T08:34:53.1Z</time>
      </trkpt>
      <trkpt lat="45.73792" lon="4.30748">
        <ele>357</ele>
        <time>2017-04-13T08:34:55.1Z</time>
      </trkpt>
      <trkpt lat="45.73793" lon="4.30745">
        <ele>357</ele>
        <time>2017-04-13T08:34:57.1Z</time>
      </trkpt>
      <trkpt lat="45.73793" lon="4.30737">
        <ele>358</ele>
        <time>2017-04-13T08:35:00.1Z</time>
      </trkpt>
      <trkpt lat="45.73794" lon="4.30733">
        <ele>358</ele>
        <time>2017-04-13T08:35:02.1Z</time>
      </trkpt>
      <trkpt lat="45.73796" lon="4.30727">
        <ele>358</ele>
        <time>2017-04-13T08:35:05.1Z</time>
      </trkpt>
      <trkpt lat="45.73796" lon="4.30723">
        <ele>358</ele>
        <time>2017-04-13T08:35:07.1Z</time>
      </trkpt>
      <trkpt lat="45.73798" lon="4.3072">
        <ele>357</ele>
        <time>2017-04-13T08:35:09.1Z</time>
      </trkpt>
      <trkpt lat="45.73799" lon="4.30714">
        <ele>357</ele>
        <time>2017-04-13T08:35:12.1Z</time>
      </trkpt>
      <trkpt lat="45.738" lon="4.30711">
        <ele>358</ele>
        <time>2017-04-13T08:35:14.1Z</time>
      </trkpt>
      <trkpt lat="45.73801" lon="4.30705">
        <ele>358</ele>
        <time>2017-04-13T08:35:17.1Z</time>
      </trkpt>
      <trkpt lat="45.73802" lon="4.30701">
        <ele>358</ele>
        <time>2017-04-13T08:35:19.1Z</time>
      </trkpt>
      <trkpt lat="45.73803" lon="4.30698">
        <ele>358</ele>
        <time>2017-04-13T08:35:21.1Z</time>
      </trkpt>
      <trkpt lat="45.73804" lon="4.30693">
        <ele>358</ele>
        <time>2017-04-13T08:35:24.1Z</time>
      </trkpt>
      <trkpt lat="45.73805" lon="4.3069">
        <ele>358</ele>
        <time>2017-04-13T08:35:26.1Z</time>
      </trkpt>
      <trkpt lat="45.73808" lon="4.30685">
        <ele>358</ele>
        <time>2017-04-13T08:35:29.1Z</time>
      </trkpt>
      <trkpt lat="45.73809" lon="4.30682">
        <ele>358</ele>
        <time>2017-04-13T08:35:31.1Z</time>
      </trkpt>
      <trkpt lat="45.73811" lon="4.30679">
        <ele>358</ele>
        <time>2017-04-13T08:35:33.1Z</time>
      </trkpt>
      <trkpt lat="45.73813" lon="4.30675">
        <ele>358</ele>
        <time>2017-04-13T08:35:36.1Z</time>
      </trkpt>
      <trkpt lat="45.73814" lon="4.30672">
        <ele>358</ele>
        <time>2017-04-13T08:35:38.1Z</time>
      </trkpt>
      <trkpt lat="45.73814" lon="4.3067">
        <ele>358</ele>
        <time>2017-04-13T08:35:40.1Z</time>
      </trkpt>
      <trkpt lat="45.73814" lon="4.30666">
        <ele>358</ele>
        <time>2017-04-13T08:35:42.1Z</time>
      </trkpt>
      <trkpt lat="45.73814" lon="4.30664">
        <ele>358</ele>
        <time>2017-04-13T08:35:44.1Z</time>
      </trkpt>
      <trkpt lat="45.73813" lon="4.30658">
        <ele>358</ele>
        <time>2017-04-13T08:35:47.1Z</time>
      </trkpt>
      <trkpt lat="45.73811" lon="4.30655">
        <ele>358</ele>
        <time>2017-04-13T08:35:49.1Z</time>
      </trkpt>
      <trkpt lat="45.73809" lon="4.3065">
        <ele>358</ele>
        <time>2017-04-13T08:35:52.1Z</time>
      </trkpt>
      <trkpt lat="45.73809" lon="4.30647">
        <ele>358</ele>
        <time>2017-04-13T08:35:54.1Z</time>
      </trkpt>
      <trkpt lat="45.73807" lon="4.30641">
        <ele>358</ele>
        <time>2017-04-13T08:35:57.1Z</time>
      </trkpt>
      <trkpt lat="45.73804" lon="4.30636">
        <ele>358</ele>
        <time>2017-04-13T08:35:59.1Z</time>
      </trkpt>
      <trkpt lat="45.73802" lon="4.30632">
        <ele>358</ele>
        <time>2017-04-13T08:36:01.1Z</time>
      </trkpt>
      <trkpt lat="45.738" lon="4.30628">
        <ele>358</ele>
        <time>2017-04-13T08:36:04.1Z</time>
      </trkpt>
      <trkpt lat="45.73798" lon="4.30626">
        <ele>358</ele>
        <time>2017-04-13T08:36:06.1Z</time>
      </trkpt>
      <trkpt lat="45.73797" lon="4.30623">
        <ele>358</ele>
        <time>2017-04-13T08:36:09.1Z</time>
      </trkpt>
      <trkpt lat="45.73794" lon="4.30618">
        <ele>358</ele>
        <time>2017-04-13T08:36:12.1Z</time>
      </trkpt>
      <trkpt lat="45.73791" lon="4.30613">
        <ele>358</ele>
        <time>2017-04-13T08:36:15.1Z</time>
      </trkpt>
      <trkpt lat="45.73789" lon="4.30609">
        <ele>358</ele>
        <time>2017-04-13T08:36:17.1Z</time>
      </trkpt>
      <trkpt lat="45.73785" lon="4.30604">
        <ele>358</ele>
        <time>2017-04-13T08:36:20.1Z</time>
      </trkpt>
      <trkpt lat="45.73782" lon="4.30601">
        <ele>358</ele>
        <time>2017-04-13T08:36:23.1Z</time>
      </trkpt>
      <trkpt lat="45.73779" lon="4.30597">
        <ele>358</ele>
        <time>2017-04-13T08:36:26.1Z</time>
      </trkpt>
      <trkpt lat="45.73777" lon="4.30594">
        <ele>358</ele>
        <time>2017-04-13T08:36:28.1Z</time>
      </trkpt>
      <trkpt lat="45.73775" lon="4.30592">
        <ele>357</ele>
        <time>2017-04-13T08:36:30.1Z</time>
      </trkpt>
      <trkpt lat="45.73772" lon="4.3059">
        <ele>357</ele>
        <time>2017-04-13T08:36:33.1Z</time>
      </trkpt>
      <trkpt lat="45.73769" lon="4.30588">
        <ele>357</ele>
        <time>2017-04-13T08:36:36.1Z</time>
      </trkpt>
      <trkpt lat="45.73766" lon="4.30586">
        <ele>357</ele>
        <time>2017-04-13T08:36:38.1Z</time>
      </trkpt>
      <trkpt lat="45.73764" lon="4.30583">
        <ele>356</ele>
        <time>2017-04-13T08:36:40.1Z</time>
      </trkpt>
      <trkpt lat="45.73761" lon="4.3058">
        <ele>357</ele>
        <time>2017-04-13T08:36:43.1Z</time>
      </trkpt>
      <trkpt lat="45.73758" lon="4.30577">
        <ele>357</ele>
        <time>2017-04-13T08:36:45.1Z</time>
      </trkpt>
      <trkpt lat="45.73756" lon="4.30575">
        <ele>357</ele>
        <time>2017-04-13T08:36:47.1Z</time>
      </trkpt>
      <trkpt lat="45.73754" lon="4.30572">
        <ele>357</ele>
        <time>2017-04-13T08:36:50.1Z</time>
      </trkpt>
      <trkpt lat="45.73751" lon="4.30569">
        <ele>357</ele>
        <time>2017-04-13T08:36:52.1Z</time>
      </trkpt>
      <trkpt lat="45.73749" lon="4.30565">
        <ele>357</ele>
        <time>2017-04-13T08:36:54.1Z</time>
      </trkpt>
      <trkpt lat="45.73746" lon="4.3056">
        <ele>357</ele>
        <time>2017-04-13T08:36:57.1Z</time>
      </trkpt>
      <trkpt lat="45.73745" lon="4.30557">
        <ele>357</ele>
        <time>2017-04-13T08:37:00.1Z</time>
      </trkpt>
      <trkpt lat="45.73744" lon="4.30554">
        <ele>357</ele>
        <time>2017-04-13T08:37:02.1Z</time>
      </trkpt>
      <trkpt lat="45.73743" lon="4.30548">
        <ele>357</ele>
        <time>2017-04-13T08:37:05.1Z</time>
      </trkpt>
      <trkpt lat="45.73742" lon="4.30545">
        <ele>357</ele>
        <time>2017-04-13T08:37:07.1Z</time>
      </trkpt>
      <trkpt lat="45.73742" lon="4.30542">
        <ele>357</ele>
        <time>2017-04-13T08:37:09.1Z</time>
      </trkpt>
      <trkpt lat="45.7374" lon="4.30538">
        <ele>357</ele>
        <time>2017-04-13T08:37:12.1Z</time>
      </trkpt>
      <trkpt lat="45.73739" lon="4.30535">
        <ele>357</ele>
        <time>2017-04-13T08:37:14.1Z</time>
      </trkpt>
      <trkpt lat="45.73738" lon="4.30531">
        <ele>357</ele>
        <time>2017-04-13T08:37:17.1Z</time>
      </trkpt>
      <trkpt lat="45.73736" lon="4.30528">
        <ele>357</ele>
        <time>2017-04-13T08:37:19.1Z</time>
      </trkpt>
      <trkpt lat="45.73734" lon="4.30523">
        <ele>357</ele>
        <time>2017-04-13T08:37:22.1Z</time>
      </trkpt>
      <trkpt lat="45.73732" lon="4.3052">
        <ele>357</ele>
        <time>2017-04-13T08:37:24.1Z</time>
      </trkpt>
      <trkpt lat="45.73731" lon="4.30516">
        <ele>357</ele>
        <time>2017-04-13T08:37:27.1Z</time>
      </trkpt>
      <trkpt lat="45.73729" lon="4.30513">
        <ele>357</ele>
        <time>2017-04-13T08:37:29.1Z</time>
      </trkpt>
      <trkpt lat="45.73727" lon="4.30507">
        <ele>357</ele>
        <time>2017-04-13T08:37:32.1Z</time>
      </trkpt>
      <trkpt lat="45.73726" lon="4.30504">
        <ele>357</ele>
        <time>2017-04-13T08:37:34.1Z</time>
      </trkpt>
      <trkpt lat="45.73723" lon="4.30498">
        <ele>357</ele>
        <time>2017-04-13T08:37:37.1Z</time>
      </trkpt>
      <trkpt lat="45.73722" lon="4.30494">
        <ele>357</ele>
        <time>2017-04-13T08:37:39.1Z</time>
      </trkpt>
      <trkpt lat="45.73721" lon="4.3049">
        <ele>357</ele>
        <time>2017-04-13T08:37:41.1Z</time>
      </trkpt>
      <trkpt lat="45.73718" lon="4.30485">
        <ele>357</ele>
        <time>2017-04-13T08:37:44.1Z</time>
      </trkpt>
      <trkpt lat="45.73717" lon="4.3048">
        <ele>356</ele>
        <time>2017-04-13T08:37:47.1Z</time>
      </trkpt>
      <trkpt lat="45.73716" lon="4.30476">
        <ele>356</ele>
        <time>2017-04-13T08:37:49.1Z</time>
      </trkpt>
      <trkpt lat="45.73714" lon="4.30471">
        <ele>357</ele>
        <time>2017-04-13T08:37:52.1Z</time>
      </trkpt>
      <trkpt lat="45.73714" lon="4.30467">
        <ele>357</ele>
        <time>2017-04-13T08:37:54.1Z</time>
      </trkpt>
      <trkpt lat="45.73713" lon="4.30463">
        <ele>357</ele>
        <time>2017-04-13T08:37:56.1Z</time>
      </trkpt>
      <trkpt lat="45.73712" lon="4.30458">
        <ele>357</ele>
        <time>2017-04-13T08:37:59.1Z</time>
      </trkpt>
      <trkpt lat="45.73711" lon="4.30454">
        <ele>357</ele>
        <time>2017-04-13T08:38:01.1Z</time>
      </trkpt>
      <trkpt lat="45.73711" lon="4.30449">
        <ele>356</ele>
        <time>2017-04-13T08:38:04.1Z</time>
      </trkpt>
      <trkpt lat="45.7371" lon="4.30444">
        <ele>356</ele>
        <time>2017-04-13T08:38:07.1Z</time>
      </trkpt>
      <trkpt lat="45.7371" lon="4.3044">
        <ele>356</ele>
        <time>2017-04-13T08:38:09.1Z</time>
      </trkpt>
      <trkpt lat="45.73709" lon="4.30437">
        <ele>356</ele>
        <time>2017-04-13T08:38:11.1Z</time>
      </trkpt>
      <trkpt lat="45.73709" lon="4.30432">
        <ele>356</ele>
        <time>2017-04-13T08:38:14.1Z</time>
      </trkpt>
      <trkpt lat="45.73708" lon="4.3043">
        <ele>356</ele>
        <time>2017-04-13T08:38:16.1Z</time>
      </trkpt>
      <trkpt lat="45.73706" lon="4.30425">
        <ele>356</ele>
        <time>2017-04-13T08:38:19.1Z</time>
      </trkpt>
      <trkpt lat="45.73705" lon="4.30422">
        <ele>356</ele>
        <time>2017-04-13T08:38:21.1Z</time>
      </trkpt>
      <trkpt lat="45.73703" lon="4.30418">
        <ele>357</ele>
        <time>2017-04-13T08:38:23.1Z</time>
      </trkpt>
      <trkpt lat="45.73702" lon="4.30414">
        <ele>356</ele>
        <time>2017-04-13T08:38:25.1Z</time>
      </trkpt>
      <trkpt lat="45.737" lon="4.30411">
        <ele>356</ele>
        <time>2017-04-13T08:38:27.1Z</time>
      </trkpt>
      <trkpt lat="45.73699" lon="4.30408">
        <ele>356</ele>
        <time>2017-04-13T08:38:29.1Z</time>
      </trkpt>
      <trkpt lat="45.73697" lon="4.30405">
        <ele>356</ele>
        <time>2017-04-13T08:38:32.1Z</time>
      </trkpt>
      <trkpt lat="45.73696" lon="4.30402">
        <ele>356</ele>
        <time>2017-04-13T08:38:34.1Z</time>
      </trkpt>
      <trkpt lat="45.73695" lon="4.30398">
        <ele>356</ele>
        <time>2017-04-13T08:38:37.1Z</time>
      </trkpt>
      <trkpt lat="45.73694" lon="4.30395">
        <ele>356</ele>
        <time>2017-04-13T08:38:40.1Z</time>
      </trkpt>
      <trkpt lat="45.73692" lon="4.30392">
        <ele>355</ele>
        <time>2017-04-13T08:38:43.1Z</time>
      </trkpt>
      <trkpt lat="45.73691" lon="4.3039">
        <ele>354</ele>
        <time>2017-04-13T08:38:45.1Z</time>
      </trkpt>
      <trkpt lat="45.7369" lon="4.30386">
        <ele>354</ele>
        <time>2017-04-13T08:38:47.1Z</time>
      </trkpt>
      <trkpt lat="45.73688" lon="4.30381">
        <ele>353</ele>
        <time>2017-04-13T08:38:50.1Z</time>
      </trkpt>
      <trkpt lat="45.73686" lon="4.30377">
        <ele>353</ele>
        <time>2017-04-13T08:38:53.1Z</time>
      </trkpt>
      <trkpt lat="45.73686" lon="4.30375">
        <ele>353</ele>
        <time>2017-04-13T08:38:55.1Z</time>
      </trkpt>
      <trkpt lat="45.73685" lon="4.30373">
        <ele>352</ele>
        <time>2017-04-13T08:38:57.1Z</time>
      </trkpt>
      <trkpt lat="45.73683" lon="4.30371">
        <ele>352</ele>
        <time>2017-04-13T08:38:59.1Z</time>
      </trkpt>
      <trkpt lat="45.73682" lon="4.3037">
        <ele>352</ele>
        <time>2017-04-13T08:39:01.1Z</time>
      </trkpt>
      <trkpt lat="45.73679" lon="4.30367">
        <ele>352</ele>
        <time>2017-04-13T08:39:04.1Z</time>
      </trkpt>
      <trkpt lat="45.73677" lon="4.30365">
        <ele>351</ele>
        <time>2017-04-13T08:39:06.1Z</time>
      </trkpt>
      <trkpt lat="45.73676" lon="4.30363">
        <ele>351</ele>
        <time>2017-04-13T08:39:08.1Z</time>
      </trkpt>
      <trkpt lat="45.73673" lon="4.3036">
        <ele>350</ele>
        <time>2017-04-13T08:39:11.1Z</time>
      </trkpt>
      <trkpt lat="45.73671" lon="4.30358">
        <ele>350</ele>
        <time>2017-04-13T08:39:13.1Z</time>
      </trkpt>
      <trkpt lat="45.73669" lon="4.30356">
        <ele>350</ele>
        <time>2017-04-13T08:39:16.1Z</time>
      </trkpt>
      <trkpt lat="45.73664" lon="4.30352">
        <ele>349</ele>
        <time>2017-04-13T08:39:19.1Z</time>
      </trkpt>
      <trkpt lat="45.73662" lon="4.30352">
        <ele>349</ele>
        <time>2017-04-13T08:39:21.1Z</time>
      </trkpt>
      <trkpt lat="45.73658" lon="4.30349">
        <ele>349</ele>
        <time>2017-04-13T08:39:24.1Z</time>
      </trkpt>
      <trkpt lat="45.73655" lon="4.30348">
        <ele>349</ele>
        <time>2017-04-13T08:39:26.1Z</time>
      </trkpt>
      <trkpt lat="45.73653" lon="4.30346">
        <ele>348</ele>
        <time>2017-04-13T08:39:28.1Z</time>
      </trkpt>
      <trkpt lat="45.73651" lon="4.30345">
        <ele>348</ele>
        <time>2017-04-13T08:39:30.1Z</time>
      </trkpt>
      <trkpt lat="45.73647" lon="4.30343">
        <ele>348</ele>
        <time>2017-04-13T08:39:33.1Z</time>
      </trkpt>
      <trkpt lat="45.73645" lon="4.30343">
        <ele>347</ele>
        <time>2017-04-13T08:39:35.1Z</time>
      </trkpt>
      <trkpt lat="45.73641" lon="4.30341">
        <ele>347</ele>
        <time>2017-04-13T08:39:38.1Z</time>
      </trkpt>
      <trkpt lat="45.73639" lon="4.3034">
        <ele>347</ele>
        <time>2017-04-13T08:39:40.1Z</time>
      </trkpt>
      <trkpt lat="45.73637" lon="4.30339">
        <ele>346</ele>
        <time>2017-04-13T08:39:42.1Z</time>
      </trkpt>
      <trkpt lat="45.73635" lon="4.30338">
        <ele>346</ele>
        <time>2017-04-13T08:39:44.1Z</time>
      </trkpt>
      <trkpt lat="45.73632" lon="4.30337">
        <ele>345</ele>
        <time>2017-04-13T08:39:47.1Z</time>
      </trkpt>
      <trkpt lat="45.7363" lon="4.30336">
        <ele>346</ele>
        <time>2017-04-13T08:39:49.1Z</time>
      </trkpt>
      <trkpt lat="45.73628" lon="4.30336">
        <ele>346</ele>
        <time>2017-04-13T08:39:51.1Z</time>
      </trkpt>
      <trkpt lat="45.73625" lon="4.30336">
        <ele>346</ele>
        <time>2017-04-13T08:39:54.1Z</time>
      </trkpt>
      <trkpt lat="45.73622" lon="4.30335">
        <ele>345</ele>
        <time>2017-04-13T08:39:56.1Z</time>
      </trkpt>
      <trkpt lat="45.7362" lon="4.30335">
        <ele>345</ele>
        <time>2017-04-13T08:39:58.1Z</time>
      </trkpt>
      <trkpt lat="45.73618" lon="4.30334">
        <ele>345</ele>
        <time>2017-04-13T08:40:00.1Z</time>
      </trkpt>
      <trkpt lat="45.73615" lon="4.30333">
        <ele>345</ele>
        <time>2017-04-13T08:40:02.1Z</time>
      </trkpt>
      <trkpt lat="45.73611" lon="4.3033">
        <ele>344</ele>
        <time>2017-04-13T08:40:05.1Z</time>
      </trkpt>
      <trkpt lat="45.73607" lon="4.30328">
        <ele>344</ele>
        <time>2017-04-13T08:40:08.1Z</time>
      </trkpt>
      <trkpt lat="45.73604" lon="4.30326">
        <ele>343</ele>
        <time>2017-04-13T08:40:10.1Z</time>
      </trkpt>
      <trkpt lat="45.73601" lon="4.30324">
        <ele>343</ele>
        <time>2017-04-13T08:40:12.1Z</time>
      </trkpt>
      <trkpt lat="45.73599" lon="4.30321">
        <ele>343</ele>
        <time>2017-04-13T08:40:14.1Z</time>
      </trkpt>
      <trkpt lat="45.73597" lon="4.30319">
        <ele>342</ele>
        <time>2017-04-13T08:40:16.1Z</time>
      </trkpt>
      <trkpt lat="45.73594" lon="4.30317">
        <ele>342</ele>
        <time>2017-04-13T08:40:19.1Z</time>
      </trkpt>
      <trkpt lat="45.73593" lon="4.30315">
        <ele>342</ele>
        <time>2017-04-13T08:40:21.1Z</time>
      </trkpt>
      <trkpt lat="45.73591" lon="4.30314">
        <ele>342</ele>
        <time>2017-04-13T08:40:23.1Z</time>
      </trkpt>
      <trkpt lat="45.73589" lon="4.30312">
        <ele>341</ele>
        <time>2017-04-13T08:40:26.1Z</time>
      </trkpt>
      <trkpt lat="45.73585" lon="4.3031">
        <ele>340</ele>
        <time>2017-04-13T08:40:29.1Z</time>
      </trkpt>
      <trkpt lat="45.73582" lon="4.3031">
        <ele>340</ele>
        <time>2017-04-13T08:40:31.1Z</time>
      </trkpt>
      <trkpt lat="45.7358" lon="4.30309">
        <ele>340</ele>
        <time>2017-04-13T08:40:33.1Z</time>
      </trkpt>
      <trkpt lat="45.73578" lon="4.30309">
        <ele>340</ele>
        <time>2017-04-13T08:40:35.1Z</time>
      </trkpt>
      <trkpt lat="45.73576" lon="4.30309">
        <ele>339</ele>
        <time>2017-04-13T08:40:37.1Z</time>
      </trkpt>
      <trkpt lat="45.73574" lon="4.30309">
        <ele>339</ele>
        <time>2017-04-13T08:40:40.1Z</time>
      </trkpt>
      <trkpt lat="45.73572" lon="4.30309">
        <ele>339</ele>
        <time>2017-04-13T08:40:42.1Z</time>
      </trkpt>
      <trkpt lat="45.73569" lon="4.30308">
        <ele>338</ele>
        <time>2017-04-13T08:40:45.1Z</time>
      </trkpt>
      <trkpt lat="45.73566" lon="4.30308">
        <ele>338</ele>
        <time>2017-04-13T08:40:47.1Z</time>
      </trkpt>
      <trkpt lat="45.73564" lon="4.30308">
        <ele>337</ele>
        <time>2017-04-13T08:40:49.1Z</time>
      </trkpt>
      <trkpt lat="45.73562" lon="4.30307">
        <ele>337</ele>
        <time>2017-04-13T08:40:51.1Z</time>
      </trkpt>
      <trkpt lat="45.73559" lon="4.30305">
        <ele>337</ele>
        <time>2017-04-13T08:40:53.1Z</time>
      </trkpt>
      <trkpt lat="45.73555" lon="4.30303">
        <ele>337</ele>
        <time>2017-04-13T08:40:56.1Z</time>
      </trkpt>
      <trkpt lat="45.73553" lon="4.30302">
        <ele>336</ele>
        <time>2017-04-13T08:40:58.1Z</time>
      </trkpt>
      <trkpt lat="45.7355" lon="4.30301">
        <ele>336</ele>
        <time>2017-04-13T08:41:01.1Z</time>
      </trkpt>
      <trkpt lat="45.73548" lon="4.30296">
        <ele>335</ele>
        <time>2017-04-13T08:41:04.1Z</time>
      </trkpt>
      <trkpt lat="45.73546" lon="4.30295">
        <ele>335</ele>
        <time>2017-04-13T08:41:06.1Z</time>
      </trkpt>
      <trkpt lat="45.73544" lon="4.30293">
        <ele>335</ele>
        <time>2017-04-13T08:41:08.1Z</time>
      </trkpt>
      <trkpt lat="45.73542" lon="4.30291">
        <ele>334</ele>
        <time>2017-04-13T08:41:10.1Z</time>
      </trkpt>
      <trkpt lat="45.73539" lon="4.30289">
        <ele>334</ele>
        <time>2017-04-13T08:41:12.1Z</time>
      </trkpt>
      <trkpt lat="45.73536" lon="4.30287">
        <ele>334</ele>
        <time>2017-04-13T08:41:15.1Z</time>
      </trkpt>
      <trkpt lat="45.73531" lon="4.30285">
        <ele>333</ele>
        <time>2017-04-13T08:41:18.1Z</time>
      </trkpt>
      <trkpt lat="45.73529" lon="4.30284">
        <ele>333</ele>
        <time>2017-04-13T08:41:20.1Z</time>
      </trkpt>
      <trkpt lat="45.73526" lon="4.30282">
        <ele>332</ele>
        <time>2017-04-13T08:41:22.1Z</time>
      </trkpt>
      <trkpt lat="45.73523" lon="4.30281">
        <ele>332</ele>
        <time>2017-04-13T08:41:24.1Z</time>
      </trkpt>
      <trkpt lat="45.73521" lon="4.30279">
        <ele>331</ele>
        <time>2017-04-13T08:41:26.1Z</time>
      </trkpt>
      <trkpt lat="45.73518" lon="4.30277">
        <ele>331</ele>
        <time>2017-04-13T08:41:28.1Z</time>
      </trkpt>
      <trkpt lat="45.73516" lon="4.30274">
        <ele>331</ele>
        <time>2017-04-13T08:41:31.1Z</time>
      </trkpt>
      <trkpt lat="45.73514" lon="4.30273">
        <ele>331</ele>
        <time>2017-04-13T08:41:33.1Z</time>
      </trkpt>
      <trkpt lat="45.73512" lon="4.3027">
        <ele>330</ele>
        <time>2017-04-13T08:41:35.1Z</time>
      </trkpt>
      <trkpt lat="45.7351" lon="4.30268">
        <ele>330</ele>
        <time>2017-04-13T08:41:37.1Z</time>
      </trkpt>
      <trkpt lat="45.73506" lon="4.30266">
        <ele>329</ele>
        <time>2017-04-13T08:41:40.1Z</time>
      </trkpt>
      <trkpt lat="45.73502" lon="4.30263">
        <ele>329</ele>
        <time>2017-04-13T08:41:43.1Z</time>
      </trkpt>
      <trkpt lat="45.735" lon="4.30262">
        <ele>328</ele>
        <time>2017-04-13T08:41:45.1Z</time>
      </trkpt>
      <trkpt lat="45.73497" lon="4.30261">
        <ele>328</ele>
        <time>2017-04-13T08:41:48.1Z</time>
      </trkpt>
      <trkpt lat="45.73494" lon="4.30261">
        <ele>327</ele>
        <time>2017-04-13T08:41:50.1Z</time>
      </trkpt>
      <trkpt lat="45.7349" lon="4.30261">
        <ele>327</ele>
        <time>2017-04-13T08:41:53.1Z</time>
      </trkpt>
      <trkpt lat="45.73488" lon="4.30261">
        <ele>326</ele>
        <time>2017-04-13T08:41:55.1Z</time>
      </trkpt>
      <trkpt lat="45.73486" lon="4.30261">
        <ele>326</ele>
        <time>2017-04-13T08:41:57.1Z</time>
      </trkpt>
      <trkpt lat="45.73482" lon="4.30258">
        <ele>325</ele>
        <time>2017-04-13T08:42:00.1Z</time>
      </trkpt>
      <trkpt lat="45.73481" lon="4.30255">
        <ele>325</ele>
        <time>2017-04-13T08:42:02.1Z</time>
      </trkpt>
      <trkpt lat="45.73481" lon="4.3025">
        <ele>325</ele>
        <time>2017-04-13T08:42:05.1Z</time>
      </trkpt>
      <trkpt lat="45.73482" lon="4.30246">
        <ele>325</ele>
        <time>2017-04-13T08:42:08.1Z</time>
      </trkpt>
      <trkpt lat="45.73483" lon="4.30241">
        <ele>324</ele>
        <time>2017-04-13T08:42:11.1Z</time>
      </trkpt>
      <trkpt lat="45.73483" lon="4.30238">
        <ele>324</ele>
        <time>2017-04-13T08:42:13.1Z</time>
      </trkpt>
      <trkpt lat="45.73484" lon="4.30235">
        <ele>324</ele>
        <time>2017-04-13T08:42:15.1Z</time>
      </trkpt>
      <trkpt lat="45.73486" lon="4.3023">
        <ele>324</ele>
        <time>2017-04-13T08:42:18.1Z</time>
      </trkpt>
      <trkpt lat="45.73488" lon="4.30224">
        <ele>324</ele>
        <time>2017-04-13T08:42:21.1Z</time>
      </trkpt>
      <trkpt lat="45.73489" lon="4.3022">
        <ele>323</ele>
        <time>2017-04-13T08:42:23.1Z</time>
      </trkpt>
      <trkpt lat="45.73492" lon="4.30215">
        <ele>323</ele>
        <time>2017-04-13T08:42:26.1Z</time>
      </trkpt>
      <trkpt lat="45.73494" lon="4.30211">
        <ele>323</ele>
        <time>2017-04-13T08:42:29.1Z</time>
      </trkpt>
      <trkpt lat="45.73495" lon="4.30209">
        <ele>323</ele>
        <time>2017-04-13T08:42:31.1Z</time>
      </trkpt>
      <trkpt lat="45.73496" lon="4.30206">
        <ele>323</ele>
        <time>2017-04-13T08:42:33.1Z</time>
      </trkpt>
      <trkpt lat="45.73497" lon="4.30203">
        <ele>322</ele>
        <time>2017-04-13T08:42:35.1Z</time>
      </trkpt>
      <trkpt lat="45.73498" lon="4.30201">
        <ele>322</ele>
        <time>2017-04-13T08:42:37.1Z</time>
      </trkpt>
      <trkpt lat="45.735" lon="4.30199">
        <ele>322</ele>
        <time>2017-04-13T08:42:39.1Z</time>
      </trkpt>
      <trkpt lat="45.73502" lon="4.30196">
        <ele>321</ele>
        <time>2017-04-13T08:42:42.1Z</time>
      </trkpt>
      <trkpt lat="45.73503" lon="4.30195">
        <ele>321</ele>
        <time>2017-04-13T08:42:44.1Z</time>
      </trkpt>
      <trkpt lat="45.73503" lon="4.30192">
        <ele>321</ele>
        <time>2017-04-13T08:42:46.1Z</time>
      </trkpt>
      <trkpt lat="45.73504" lon="4.3019">
        <ele>320</ele>
        <time>2017-04-13T08:42:48.1Z</time>
      </trkpt>
      <trkpt lat="45.73505" lon="4.30188">
        <ele>320</ele>
        <time>2017-04-13T08:42:51.1Z</time>
      </trkpt>
      <trkpt lat="45.73505" lon="4.30185">
        <ele>319</ele>
        <time>2017-04-13T08:42:54.1Z</time>
      </trkpt>
      <trkpt lat="45.73505" lon="4.30182">
        <ele>319</ele>
        <time>2017-04-13T08:42:56.1Z</time>
      </trkpt>
      <trkpt lat="45.73505" lon="4.3018">
        <ele>319</ele>
        <time>2017-04-13T08:42:58.1Z</time>
      </trkpt>
      <trkpt lat="45.73505" lon="4.30176">
        <ele>319</ele>
        <time>2017-04-13T08:43:01.1Z</time>
      </trkpt>
      <trkpt lat="45.73505" lon="4.30173">
        <ele>318</ele>
        <time>2017-04-13T08:43:03.1Z</time>
      </trkpt>
      <trkpt lat="45.73505" lon="4.30168">
        <ele>318</ele>
        <time>2017-04-13T08:43:06.1Z</time>
      </trkpt>
      <trkpt lat="45.73505" lon="4.30164">
        <ele>318</ele>
        <time>2017-04-13T08:43:08.1Z</time>
      </trkpt>
      <trkpt lat="45.73503" lon="4.30158">
        <ele>318</ele>
        <time>2017-04-13T08:43:11.1Z</time>
      </trkpt>
      <trkpt lat="45.73503" lon="4.30155">
        <ele>318</ele>
        <time>2017-04-13T08:43:13.1Z</time>
      </trkpt>
      <trkpt lat="45.73503" lon="4.30149">
        <ele>318</ele>
        <time>2017-04-13T08:43:16.1Z</time>
      </trkpt>
      <trkpt lat="45.73503" lon="4.30143">
        <ele>318</ele>
        <time>2017-04-13T08:43:19.1Z</time>
      </trkpt>
      <trkpt lat="45.73504" lon="4.30137">
        <ele>319</ele>
        <time>2017-04-13T08:43:22.1Z</time>
      </trkpt>
      <trkpt lat="45.73504" lon="4.30132">
        <ele>318</ele>
        <time>2017-04-13T08:43:24.1Z</time>
      </trkpt>
      <trkpt lat="45.73505" lon="4.30127">
        <ele>318</ele>
        <time>2017-04-13T08:43:27.1Z</time>
      </trkpt>
      <trkpt lat="45.73505" lon="4.30123">
        <ele>318</ele>
        <time>2017-04-13T08:43:29.1Z</time>
      </trkpt>
      <trkpt lat="45.73507" lon="4.30119">
        <ele>318</ele>
        <time>2017-04-13T08:43:32.1Z</time>
      </trkpt>
      <trkpt lat="45.73508" lon="4.30114">
        <ele>318</ele>
        <time>2017-04-13T08:43:35.1Z</time>
      </trkpt>
      <trkpt lat="45.7351" lon="4.3011">
        <ele>318</ele>
        <time>2017-04-13T08:43:38.1Z</time>
      </trkpt>
      <trkpt lat="45.73513" lon="4.30104">
        <ele>319</ele>
        <time>2017-04-13T08:43:41.1Z</time>
      </trkpt>
      <trkpt lat="45.73513" lon="4.30101">
        <ele>319</ele>
        <time>2017-04-13T08:43:43.1Z</time>
      </trkpt>
      <trkpt lat="45.73514" lon="4.30096">
        <ele>319</ele>
        <time>2017-04-13T08:43:46.1Z</time>
      </trkpt>
      <trkpt lat="45.73515" lon="4.30092">
        <ele>319</ele>
        <time>2017-04-13T08:43:48.1Z</time>
      </trkpt>
      <trkpt lat="45.73515" lon="4.30088">
        <ele>319</ele>
        <time>2017-04-13T08:43:50.1Z</time>
      </trkpt>
      <trkpt lat="45.73516" lon="4.30085">
        <ele>319</ele>
        <time>2017-04-13T08:43:52.1Z</time>
      </trkpt>
      <trkpt lat="45.73516" lon="4.30079">
        <ele>320</ele>
        <time>2017-04-13T08:43:55.1Z</time>
      </trkpt>
      <trkpt lat="45.73517" lon="4.30076">
        <ele>320</ele>
        <time>2017-04-13T08:43:57.1Z</time>
      </trkpt>
      <trkpt lat="45.73518" lon="4.3007">
        <ele>320</ele>
        <time>2017-04-13T08:44:00.1Z</time>
      </trkpt>
      <trkpt lat="45.7352" lon="4.30065">
        <ele>321</ele>
        <time>2017-04-13T08:44:03.1Z</time>
      </trkpt>
      <trkpt lat="45.73521" lon="4.3006">
        <ele>321</ele>
        <time>2017-04-13T08:44:05.1Z</time>
      </trkpt>
      <trkpt lat="45.73522" lon="4.30056">
        <ele>321</ele>
        <time>2017-04-13T08:44:07.1Z</time>
      </trkpt>
      <trkpt lat="45.73522" lon="4.30051">
        <ele>321</ele>
        <time>2017-04-13T08:44:09.1Z</time>
      </trkpt>
      <trkpt lat="45.73523" lon="4.30047">
        <ele>321</ele>
        <time>2017-04-13T08:44:11.1Z</time>
      </trkpt>
      <trkpt lat="45.73525" lon="4.30043">
        <ele>321</ele>
        <time>2017-04-13T08:44:13.1Z</time>
      </trkpt>
      <trkpt lat="45.73526" lon="4.30039">
        <ele>321</ele>
        <time>2017-04-13T08:44:15.1Z</time>
      </trkpt>
      <trkpt lat="45.73529" lon="4.30033">
        <ele>321</ele>
        <time>2017-04-13T08:44:18.1Z</time>
      </trkpt>
      <trkpt lat="45.7353" lon="4.30029">
        <ele>321</ele>
        <time>2017-04-13T08:44:20.1Z</time>
      </trkpt>
      <trkpt lat="45.73531" lon="4.30025">
        <ele>321</ele>
        <time>2017-04-13T08:44:22.1Z</time>
      </trkpt>
      <trkpt lat="45.73534" lon="4.3002">
        <ele>321</ele>
        <time>2017-04-13T08:44:25.1Z</time>
      </trkpt>
      <trkpt lat="45.73536" lon="4.30015">
        <ele>321</ele>
        <time>2017-04-13T08:44:28.1Z</time>
      </trkpt>
      <trkpt lat="45.73538" lon="4.3001">
        <ele>320</ele>
        <time>2017-04-13T08:44:31.1Z</time>
      </trkpt>
      <trkpt lat="45.7354" lon="4.30006">
        <ele>320</ele>
        <time>2017-04-13T08:44:33.1Z</time>
      </trkpt>
      <trkpt lat="45.73541" lon="4.30002">
        <ele>320</ele>
        <time>2017-04-13T08:44:35.1Z</time>
      </trkpt>
      <trkpt lat="45.73544" lon="4.29997">
        <ele>320</ele>
        <time>2017-04-13T08:44:38.1Z</time>
      </trkpt>
      <trkpt lat="45.73544" lon="4.29993">
        <ele>319</ele>
        <time>2017-04-13T08:44:40.1Z</time>
      </trkpt>
      <trkpt lat="45.73545" lon="4.29989">
        <ele>319</ele>
        <time>2017-04-13T08:44:42.1Z</time>
      </trkpt>
      <trkpt lat="45.73546" lon="4.29985">
        <ele>319</ele>
        <time>2017-04-13T08:44:44.1Z</time>
      </trkpt>
      <trkpt lat="45.73548" lon="4.29979">
        <ele>319</ele>
        <time>2017-04-13T08:44:47.1Z</time>
      </trkpt>
      <trkpt lat="45.73548" lon="4.29975">
        <ele>319</ele>
        <time>2017-04-13T08:44:49.1Z</time>
      </trkpt>
      <trkpt lat="45.73549" lon="4.2997">
        <ele>318</ele>
        <time>2017-04-13T08:44:52.1Z</time>
      </trkpt>
      <trkpt lat="45.7355" lon="4.29964">
        <ele>318</ele>
        <time>2017-04-13T08:44:55.1Z</time>
      </trkpt>
      <trkpt lat="45.73551" lon="4.2996">
        <ele>318</ele>
        <time>2017-04-13T08:44:57.1Z</time>
      </trkpt>
      <trkpt lat="45.73552" lon="4.29957">
        <ele>317</ele>
        <time>2017-04-13T08:44:59.1Z</time>
      </trkpt>
      <trkpt lat="45.73554" lon="4.29952">
        <ele>317</ele>
        <time>2017-04-13T08:45:02.1Z</time>
      </trkpt>
      <trkpt lat="45.73556" lon="4.29948">
        <ele>316</ele>
        <time>2017-04-13T08:45:05.1Z</time>
      </trkpt>
      <trkpt lat="45.73557" lon="4.29945">
        <ele>316</ele>
        <time>2017-04-13T08:45:07.1Z</time>
      </trkpt>
      <trkpt lat="45.73558" lon="4.2994">
        <ele>316</ele>
        <time>2017-04-13T08:45:10.1Z</time>
      </trkpt>
      <trkpt lat="45.7356" lon="4.29934">
        <ele>316</ele>
        <time>2017-04-13T08:45:13.1Z</time>
      </trkpt>
      <trkpt lat="45.7356" lon="4.29929">
        <ele>315</ele>
        <time>2017-04-13T08:45:16.1Z</time>
      </trkpt>
      <trkpt lat="45.7356" lon="4.29924">
        <ele>315</ele>
        <time>2017-04-13T08:45:19.1Z</time>
      </trkpt>
      <trkpt lat="45.73561" lon="4.29921">
        <ele>315</ele>
        <time>2017-04-13T08:45:21.1Z</time>
      </trkpt>
      <trkpt lat="45.73562" lon="4.29915">
        <ele>315</ele>
        <time>2017-04-13T08:45:24.1Z</time>
      </trkpt>
      <trkpt lat="45.73563" lon="4.29912">
        <ele>315</ele>
        <time>2017-04-13T08:45:26.1Z</time>
      </trkpt>
      <trkpt lat="45.73564" lon="4.2991">
        <ele>314</ele>
        <time>2017-04-13T08:45:28.1Z</time>
      </trkpt>
      <trkpt lat="45.73566" lon="4.29907">
        <ele>314</ele>
        <time>2017-04-13T08:45:31.1Z</time>
      </trkpt>
      <trkpt lat="45.73567" lon="4.29904">
        <ele>314</ele>
        <time>2017-04-13T08:45:33.1Z</time>
      </trkpt>
      <trkpt lat="45.73569" lon="4.29899">
        <ele>313</ele>
        <time>2017-04-13T08:45:36.1Z</time>
      </trkpt>
      <trkpt lat="45.73571" lon="4.29896">
        <ele>313</ele>
        <time>2017-04-13T08:45:38.1Z</time>
      </trkpt>
      <trkpt lat="45.73574" lon="4.29891">
        <ele>313</ele>
        <time>2017-04-13T08:45:41.1Z</time>
      </trkpt>
      <trkpt lat="45.73575" lon="4.29887">
        <ele>312</ele>
        <time>2017-04-13T08:45:43.1Z</time>
      </trkpt>
      <trkpt lat="45.73576" lon="4.29882">
        <ele>312</ele>
        <time>2017-04-13T08:45:46.1Z</time>
      </trkpt>
      <trkpt lat="45.73576" lon="4.29877">
        <ele>312</ele>
        <time>2017-04-13T08:45:49.1Z</time>
      </trkpt>
      <trkpt lat="45.73577" lon="4.29872">
        <ele>312</ele>
        <time>2017-04-13T08:45:51.1Z</time>
      </trkpt>
      <trkpt lat="45.73577" lon="4.29868">
        <ele>312</ele>
        <time>2017-04-13T08:45:53.1Z</time>
      </trkpt>
      <trkpt lat="45.73578" lon="4.29861">
        <ele>311</ele>
        <time>2017-04-13T08:45:56.1Z</time>
      </trkpt>
      <trkpt lat="45.73577" lon="4.29854">
        <ele>312</ele>
        <time>2017-04-13T08:45:59.1Z</time>
      </trkpt>
      <trkpt lat="45.73577" lon="4.2985">
        <ele>312</ele>
        <time>2017-04-13T08:46:01.1Z</time>
      </trkpt>
      <trkpt lat="45.73577" lon="4.29846">
        <ele>312</ele>
        <time>2017-04-13T08:46:03.1Z</time>
      </trkpt>
      <trkpt lat="45.73577" lon="4.29841">
        <ele>313</ele>
        <time>2017-04-13T08:46:06.1Z</time>
      </trkpt>
      <trkpt lat="45.73576" lon="4.29835">
        <ele>312</ele>
        <time>2017-04-13T08:46:08.1Z</time>
      </trkpt>
      <trkpt lat="45.73576" lon="4.29824">
        <ele>313</ele>
        <time>2017-04-13T08:46:11.1Z</time>
      </trkpt>
      <trkpt lat="45.73578" lon="4.29818">
        <ele>313</ele>
        <time>2017-04-13T08:46:13.1Z</time>
      </trkpt>
      <trkpt lat="45.73581" lon="4.29808">
        <ele>314</ele>
        <time>2017-04-13T08:46:16.1Z</time>
      </trkpt>
      <trkpt lat="45.73585" lon="4.29797">
        <ele>314</ele>
        <time>2017-04-13T08:46:19.1Z</time>
      </trkpt>
      <trkpt lat="45.73587" lon="4.29793">
        <ele>314</ele>
        <time>2017-04-13T08:46:21.1Z</time>
      </trkpt>
      <trkpt lat="45.73592" lon="4.29785">
        <ele>314</ele>
        <time>2017-04-13T08:46:24.1Z</time>
      </trkpt>
      <trkpt lat="45.73596" lon="4.29777">
        <ele>313</ele>
        <time>2017-04-13T08:46:27.1Z</time>
      </trkpt>
      <trkpt lat="45.73597" lon="4.29768">
        <ele>313</ele>
        <time>2017-04-13T08:46:29.1Z</time>
      </trkpt>
      <trkpt lat="45.73598" lon="4.29759">
        <ele>312</ele>
        <time>2017-04-13T08:46:31.1Z</time>
      </trkpt>
      <trkpt lat="45.73601" lon="4.2975">
        <ele>311</ele>
        <time>2017-04-13T08:46:33.1Z</time>
      </trkpt>
      <trkpt lat="45.73603" lon="4.29742">
        <ele>311</ele>
        <time>2017-04-13T08:46:35.1Z</time>
      </trkpt>
      <trkpt lat="45.73606" lon="4.29734">
        <ele>311</ele>
        <time>2017-04-13T08:46:37.1Z</time>
      </trkpt>
      <trkpt lat="45.73609" lon="4.29726">
        <ele>310</ele>
        <time>2017-04-13T08:46:39.1Z</time>
      </trkpt>
      <trkpt lat="45.73613" lon="4.2972">
        <ele>310</ele>
        <time>2017-04-13T08:46:41.1Z</time>
      </trkpt>
      <trkpt lat="45.73619" lon="4.2971">
        <ele>310</ele>
        <time>2017-04-13T08:46:44.1Z</time>
      </trkpt>
      <trkpt lat="45.73625" lon="4.29701">
        <ele>310</ele>
        <time>2017-04-13T08:46:47.1Z</time>
      </trkpt>
      <trkpt lat="45.73629" lon="4.29695">
        <ele>310</ele>
        <time>2017-04-13T08:46:49.1Z</time>
      </trkpt>
      <trkpt lat="45.73634" lon="4.29687">
        <ele>310</ele>
        <time>2017-04-13T08:46:51.1Z</time>
      </trkpt>
      <trkpt lat="45.7364" lon="4.29674">
        <ele>311</ele>
        <time>2017-04-13T08:46:54.1Z</time>
      </trkpt>
      <trkpt lat="45.73643" lon="4.29664">
        <ele>310</ele>
        <time>2017-04-13T08:46:56.1Z</time>
      </trkpt>
      <trkpt lat="45.73645" lon="4.29655">
        <ele>310</ele>
        <time>2017-04-13T08:46:58.1Z</time>
      </trkpt>
      <trkpt lat="45.73648" lon="4.29645">
        <ele>310</ele>
        <time>2017-04-13T08:47:00.1Z</time>
      </trkpt>
      <trkpt lat="45.73651" lon="4.29634">
        <ele>310</ele>
        <time>2017-04-13T08:47:02.1Z</time>
      </trkpt>
      <trkpt lat="45.73656" lon="4.29619">
        <ele>310</ele>
        <time>2017-04-13T08:47:05.1Z</time>
      </trkpt>
      <trkpt lat="45.73659" lon="4.29605">
        <ele>310</ele>
        <time>2017-04-13T08:47:08.1Z</time>
      </trkpt>
      <trkpt lat="45.73662" lon="4.29596">
        <ele>309</ele>
        <time>2017-04-13T08:47:10.1Z</time>
      </trkpt>
      <trkpt lat="45.73664" lon="4.29583">
        <ele>309</ele>
        <time>2017-04-13T08:47:13.1Z</time>
      </trkpt>
      <trkpt lat="45.73665" lon="4.2957">
        <ele>309</ele>
        <time>2017-04-13T08:47:15.1Z</time>
      </trkpt>
      <trkpt lat="45.73666" lon="4.2956">
        <ele>309</ele>
        <time>2017-04-13T08:47:17.1Z</time>
      </trkpt>
      <trkpt lat="45.73669" lon="4.29546">
        <ele>309</ele>
        <time>2017-04-13T08:47:20.1Z</time>
      </trkpt>
      <trkpt lat="45.73672" lon="4.29537">
        <ele>309</ele>
        <time>2017-04-13T08:47:22.1Z</time>
      </trkpt>
      <trkpt lat="45.73675" lon="4.29529">
        <ele>309</ele>
        <time>2017-04-13T08:47:24.1Z</time>
      </trkpt>
      <trkpt lat="45.73678" lon="4.29519">
        <ele>309</ele>
        <time>2017-04-13T08:47:26.1Z</time>
      </trkpt>
      <trkpt lat="45.7368" lon="4.29511">
        <ele>309</ele>
        <time>2017-04-13T08:47:28.1Z</time>
      </trkpt>
      <trkpt lat="45.73682" lon="4.295">
        <ele>309</ele>
        <time>2017-04-13T08:47:31.1Z</time>
      </trkpt>
      <trkpt lat="45.73683" lon="4.29494">
        <ele>309</ele>
        <time>2017-04-13T08:47:33.1Z</time>
      </trkpt>
      <trkpt lat="45.73683" lon="4.2949">
        <ele>309</ele>
        <time>2017-04-13T08:47:35.1Z</time>
      </trkpt>
      <trkpt lat="45.73682" lon="4.29477">
        <ele>308</ele>
        <time>2017-04-13T08:47:38.1Z</time>
      </trkpt>
      <trkpt lat="45.7368" lon="4.2947">
        <ele>308</ele>
        <time>2017-04-13T08:47:40.1Z</time>
      </trkpt>
      <trkpt lat="45.73678" lon="4.29463">
        <ele>308</ele>
        <time>2017-04-13T08:47:42.1Z</time>
      </trkpt>
      <trkpt lat="45.73677" lon="4.29457">
        <ele>307</ele>
        <time>2017-04-13T08:47:44.1Z</time>
      </trkpt>
      <trkpt lat="45.73676" lon="4.29448">
        <ele>307</ele>
        <time>2017-04-13T08:47:46.1Z</time>
      </trkpt>
      <trkpt lat="45.73676" lon="4.29434">
        <ele>307</ele>
        <time>2017-04-13T08:47:49.1Z</time>
      </trkpt>
      <trkpt lat="45.73676" lon="4.29419">
        <ele>307</ele>
        <time>2017-04-13T08:47:52.1Z</time>
      </trkpt>
      <trkpt lat="45.73676" lon="4.29409">
        <ele>308</ele>
        <time>2017-04-13T08:47:54.1Z</time>
      </trkpt>
      <trkpt lat="45.73677" lon="4.29395">
        <ele>308</ele>
        <time>2017-04-13T08:47:57.1Z</time>
      </trkpt>
      <trkpt lat="45.73679" lon="4.29386">
        <ele>308</ele>
        <time>2017-04-13T08:47:59.1Z</time>
      </trkpt>
      <trkpt lat="45.7368" lon="4.29372">
        <ele>308</ele>
        <time>2017-04-13T08:48:02.1Z</time>
      </trkpt>
      <trkpt lat="45.73681" lon="4.29363">
        <ele>307</ele>
        <time>2017-04-13T08:48:04.1Z</time>
      </trkpt>
      <trkpt lat="45.73683" lon="4.29349">
        <ele>307</ele>
        <time>2017-04-13T08:48:07.1Z</time>
      </trkpt>
      <trkpt lat="45.73685" lon="4.29342">
        <ele>307</ele>
        <time>2017-04-13T08:48:09.1Z</time>
      </trkpt>
      <trkpt lat="45.73687" lon="4.29332">
        <ele>306</ele>
        <time>2017-04-13T08:48:11.1Z</time>
      </trkpt>
      <trkpt lat="45.73691" lon="4.29319">
        <ele>306</ele>
        <time>2017-04-13T08:48:14.1Z</time>
      </trkpt>
      <trkpt lat="45.73695" lon="4.29304">
        <ele>305</ele>
        <time>2017-04-13T08:48:17.1Z</time>
      </trkpt>
      <trkpt lat="45.73699" lon="4.29291">
        <ele>305</ele>
        <time>2017-04-13T08:48:20.1Z</time>
      </trkpt>
      <trkpt lat="45.73704" lon="4.29279">
        <ele>305</ele>
        <time>2017-04-13T08:48:23.1Z</time>
      </trkpt>
      <trkpt lat="45.73707" lon="4.2927">
        <ele>305</ele>
        <time>2017-04-13T08:48:25.1Z</time>
      </trkpt>
      <trkpt lat="45.73712" lon="4.29258">
        <ele>305</ele>
        <time>2017-04-13T08:48:28.1Z</time>
      </trkpt>
      <trkpt lat="45.73714" lon="4.2925">
        <ele>304</ele>
        <time>2017-04-13T08:48:30.1Z</time>
      </trkpt>
      <trkpt lat="45.73717" lon="4.29241">
        <ele>304</ele>
        <time>2017-04-13T08:48:32.1Z</time>
      </trkpt>
      <trkpt lat="45.73721" lon="4.29227">
        <ele>303</ele>
        <time>2017-04-13T08:48:35.1Z</time>
      </trkpt>
      <trkpt lat="45.73724" lon="4.29218">
        <ele>303</ele>
        <time>2017-04-13T08:48:37.1Z</time>
      </trkpt>
      <trkpt lat="45.73726" lon="4.29206">
        <ele>303</ele>
        <time>2017-04-13T08:48:40.1Z</time>
      </trkpt>
      <trkpt lat="45.73727" lon="4.29198">
        <ele>303</ele>
        <time>2017-04-13T08:48:42.1Z</time>
      </trkpt>
      <trkpt lat="45.73727" lon="4.29188">
        <ele>303</ele>
        <time>2017-04-13T08:48:45.1Z</time>
      </trkpt>
      <trkpt lat="45.73728" lon="4.29183">
        <ele>303</ele>
        <time>2017-04-13T08:48:47.1Z</time>
      </trkpt>
      <trkpt lat="45.7373" lon="4.29178">
        <ele>303</ele>
        <time>2017-04-13T08:48:49.1Z</time>
      </trkpt>
      <trkpt lat="45.7373" lon="4.29172">
        <ele>303</ele>
        <time>2017-04-13T08:48:51.1Z</time>
      </trkpt>
      <trkpt lat="45.7373" lon="4.29167">
        <ele>303</ele>
        <time>2017-04-13T08:48:53.1Z</time>
      </trkpt>
      <trkpt lat="45.7373" lon="4.29159">
        <ele>303</ele>
        <time>2017-04-13T08:48:56.1Z</time>
      </trkpt>
      <trkpt lat="45.7373" lon="4.29155">
        <ele>303</ele>
        <time>2017-04-13T08:48:58.1Z</time>
      </trkpt>
      <trkpt lat="45.7373" lon="4.29148">
        <ele>304</ele>
        <time>2017-04-13T08:49:01.1Z</time>
      </trkpt>
      <trkpt lat="45.73731" lon="4.29144">
        <ele>303</ele>
        <time>2017-04-13T08:49:03.1Z</time>
      </trkpt>
      <trkpt lat="45.73732" lon="4.29141">
        <ele>303</ele>
        <time>2017-04-13T08:49:05.1Z</time>
      </trkpt>
      <trkpt lat="45.73733" lon="4.29134">
        <ele>304</ele>
        <time>2017-04-13T08:49:08.1Z</time>
      </trkpt>
      <trkpt lat="45.73734" lon="4.29128">
        <ele>304</ele>
        <time>2017-04-13T08:49:11.1Z</time>
      </trkpt>
      <trkpt lat="45.73735" lon="4.29123">
        <ele>304</ele>
        <time>2017-04-13T08:49:13.1Z</time>
      </trkpt>
      <trkpt lat="45.73735" lon="4.29118">
        <ele>305</ele>
        <time>2017-04-13T08:49:15.1Z</time>
      </trkpt>
      <trkpt lat="45.73736" lon="4.29112">
        <ele>304</ele>
        <time>2017-04-13T08:49:18.1Z</time>
      </trkpt>
      <trkpt lat="45.73737" lon="4.29109">
        <ele>305</ele>
        <time>2017-04-13T08:49:20.1Z</time>
      </trkpt>
      <trkpt lat="45.73737" lon="4.29105">
        <ele>305</ele>
        <time>2017-04-13T08:49:22.1Z</time>
      </trkpt>
      <trkpt lat="45.73737" lon="4.29101">
        <ele>305</ele>
        <time>2017-04-13T08:49:24.1Z</time>
      </trkpt>
      <trkpt lat="45.73737" lon="4.29097">
        <ele>305</ele>
        <time>2017-04-13T08:49:26.1Z</time>
      </trkpt>
      <trkpt lat="45.73739" lon="4.2909">
        <ele>305</ele>
        <time>2017-04-13T08:49:29.1Z</time>
      </trkpt>
      <trkpt lat="45.7374" lon="4.29086">
        <ele>305</ele>
        <time>2017-04-13T08:49:31.1Z</time>
      </trkpt>
      <trkpt lat="45.73742" lon="4.29082">
        <ele>306</ele>
        <time>2017-04-13T08:49:33.1Z</time>
      </trkpt>
      <trkpt lat="45.73743" lon="4.29079">
        <ele>306</ele>
        <time>2017-04-13T08:49:35.1Z</time>
      </trkpt>
      <trkpt lat="45.73745" lon="4.29075">
        <ele>306</ele>
        <time>2017-04-13T08:49:37.1Z</time>
      </trkpt>
      <trkpt lat="45.73746" lon="4.2907">
        <ele>307</ele>
        <time>2017-04-13T08:49:40.1Z</time>
      </trkpt>
      <trkpt lat="45.73746" lon="4.29067">
        <ele>307</ele>
        <time>2017-04-13T08:49:42.1Z</time>
      </trkpt>
      <trkpt lat="45.73747" lon="4.29061">
        <ele>307</ele>
        <time>2017-04-13T08:49:45.1Z</time>
      </trkpt>
      <trkpt lat="45.73748" lon="4.29057">
        <ele>307</ele>
        <time>2017-04-13T08:49:47.1Z</time>
      </trkpt>
      <trkpt lat="45.73748" lon="4.29053">
        <ele>307</ele>
        <time>2017-04-13T08:49:49.1Z</time>
      </trkpt>
      <trkpt lat="45.73749" lon="4.29049">
        <ele>308</ele>
        <time>2017-04-13T08:49:51.1Z</time>
      </trkpt>
      <trkpt lat="45.73749" lon="4.29043">
        <ele>308</ele>
        <time>2017-04-13T08:49:54.1Z</time>
      </trkpt>
      <trkpt lat="45.73748" lon="4.2904">
        <ele>308</ele>
        <time>2017-04-13T08:49:56.1Z</time>
      </trkpt>
      <trkpt lat="45.73747" lon="4.29035">
        <ele>308</ele>
        <time>2017-04-13T08:49:59.1Z</time>
      </trkpt>
      <trkpt lat="45.73747" lon="4.2903">
        <ele>308</ele>
        <time>2017-04-13T08:50:02.1Z</time>
      </trkpt>
      <trkpt lat="45.73747" lon="4.29027">
        <ele>308</ele>
        <time>2017-04-13T08:50:04.1Z</time>
      </trkpt>
      <trkpt lat="45.73747" lon="4.29022">
        <ele>308</ele>
        <time>2017-04-13T08:50:06.1Z</time>
      </trkpt>
      <trkpt lat="45.73748" lon="4.29016">
        <ele>308</ele>
        <time>2017-04-13T08:50:09.1Z</time>
      </trkpt>
      <trkpt lat="45.73748" lon="4.29013">
        <ele>308</ele>
        <time>2017-04-13T08:50:11.1Z</time>
      </trkpt>
      <trkpt lat="45.73749" lon="4.29007">
        <ele>308</ele>
        <time>2017-04-13T08:50:14.1Z</time>
      </trkpt>
      <trkpt lat="45.7375" lon="4.29004">
        <ele>307</ele>
        <time>2017-04-13T08:50:16.1Z</time>
      </trkpt>
      <trkpt lat="45.73751" lon="4.29">
        <ele>307</ele>
        <time>2017-04-13T08:50:19.1Z</time>
      </trkpt>
      <trkpt lat="45.73751" lon="4.28997">
        <ele>307</ele>
        <time>2017-04-13T08:50:21.1Z</time>
      </trkpt>
      <trkpt lat="45.7375" lon="4.28994">
        <ele>306</ele>
        <time>2017-04-13T08:50:24.1Z</time>
      </trkpt>
      <trkpt lat="45.73748" lon="4.28989">
        <ele>306</ele>
        <time>2017-04-13T08:50:27.1Z</time>
      </trkpt>
      <trkpt lat="45.73747" lon="4.28985">
        <ele>306</ele>
        <time>2017-04-13T08:50:29.1Z</time>
      </trkpt>
      <trkpt lat="45.73746" lon="4.2898">
        <ele>306</ele>
        <time>2017-04-13T08:50:31.1Z</time>
      </trkpt>
      <trkpt lat="45.73745" lon="4.28975">
        <ele>305</ele>
        <time>2017-04-13T08:50:33.1Z</time>
      </trkpt>
      <trkpt lat="45.73745" lon="4.2897">
        <ele>305</ele>
        <time>2017-04-13T08:50:35.1Z</time>
      </trkpt>
      <trkpt lat="45.73745" lon="4.28966">
        <ele>305</ele>
        <time>2017-04-13T08:50:37.1Z</time>
      </trkpt>
      <trkpt lat="45.73745" lon="4.28959">
        <ele>304</ele>
        <time>2017-04-13T08:50:40.1Z</time>
      </trkpt>
      <trkpt lat="45.73746" lon="4.28957">
        <ele>304</ele>
        <time>2017-04-13T08:50:42.1Z</time>
      </trkpt>
      <trkpt lat="45.73749" lon="4.28954">
        <ele>304</ele>
        <time>2017-04-13T08:50:45.1Z</time>
      </trkpt>
      <trkpt lat="45.7375" lon="4.28951">
        <ele>303</ele>
        <time>2017-04-13T08:50:47.1Z</time>
      </trkpt>
      <trkpt lat="45.73751" lon="4.28947">
        <ele>303</ele>
        <time>2017-04-13T08:50:49.1Z</time>
      </trkpt>
      <trkpt lat="45.73752" lon="4.28942">
        <ele>303</ele>
        <time>2017-04-13T08:50:52.1Z</time>
      </trkpt>
      <trkpt lat="45.73754" lon="4.28938">
        <ele>302</ele>
        <time>2017-04-13T08:50:54.1Z</time>
      </trkpt>
      <trkpt lat="45.73755" lon="4.28935">
        <ele>302</ele>
        <time>2017-04-13T08:50:56.1Z</time>
      </trkpt>
      <trkpt lat="45.73756" lon="4.28932">
        <ele>302</ele>
        <time>2017-04-13T08:50:58.1Z</time>
      </trkpt>
      <trkpt lat="45.73758" lon="4.28928">
        <ele>302</ele>
        <time>2017-04-13T08:51:01.1Z</time>
      </trkpt>
      <trkpt lat="45.73759" lon="4.28925">
        <ele>302</ele>
        <time>2017-04-13T08:51:03.1Z</time>
      </trkpt>
      <trkpt lat="45.73761" lon="4.28922">
        <ele>302</ele>
        <time>2017-04-13T08:51:05.1Z</time>
      </trkpt>
      <trkpt lat="45.73763" lon="4.28916">
        <ele>301</ele>
        <time>2017-04-13T08:51:08.1Z</time>
      </trkpt>
      <trkpt lat="45.73765" lon="4.28913">
        <ele>301</ele>
        <time>2017-04-13T08:51:10.1Z</time>
      </trkpt>
      <trkpt lat="45.73766" lon="4.28908">
        <ele>301</ele>
        <time>2017-04-13T08:51:13.1Z</time>
      </trkpt>
      <trkpt lat="45.73768" lon="4.28905">
        <ele>300</ele>
        <time>2017-04-13T08:51:15.1Z</time>
      </trkpt>
      <trkpt lat="45.73769" lon="4.28901">
        <ele>300</ele>
        <time>2017-04-13T08:51:18.1Z</time>
      </trkpt>
      <trkpt lat="45.7377" lon="4.28899">
        <ele>300</ele>
        <time>2017-04-13T08:51:20.1Z</time>
      </trkpt>
      <trkpt lat="45.73772" lon="4.28899">
        <ele>300</ele>
        <time>2017-04-13T08:51:23.1Z</time>
      </trkpt>
      <trkpt lat="45.73774" lon="4.28899">
        <ele>300</ele>
        <time>2017-04-13T08:51:25.1Z</time>
      </trkpt>
      <trkpt lat="45.73774" lon="4.28899">
        <ele>300</ele>
        <time>2017-04-13T08:51:27.1Z</time>
      </trkpt>
      <trkpt lat="45.73775" lon="4.28898">
        <ele>300</ele>
        <time>2017-04-13T08:51:30.1Z</time>
      </trkpt>
      <trkpt lat="45.73775" lon="4.28897">
        <ele>300</ele>
        <time>2017-04-13T08:51:34.1Z</time>
      </trkpt>
      <trkpt lat="45.73775" lon="4.28897">
        <ele>300</ele>
        <time>2017-04-13T08:51:36.1Z</time>
      </trkpt>
      <trkpt lat="45.73775" lon="4.28897">
        <ele>300</ele>
        <time>2017-04-13T08:51:38.1Z</time>
      </trkpt>
      <trkpt lat="45.73775" lon="4.28897">
        <ele>300</ele>
        <time>2017-04-13T08:51:42.1Z</time>
      </trkpt>
      <trkpt lat="45.73775" lon="4.28897">
        <ele>300</ele>
        <time>2017-04-13T08:51:45.1Z</time>
      </trkpt>
      <trkpt lat="45.73775" lon="4.28897">
        <ele>300</ele>
        <time>2017-04-13T08:51:48.1Z</time>
      </trkpt>
      <trkpt lat="45.73775" lon="4.28897">
        <ele>300</ele>
        <time>2017-04-13T08:51:50.1Z</time>
      </trkpt>
      <trkpt lat="45.73775" lon="4.28897">
        <ele>300</ele>
        <time>2017-04-13T08:51:52.1Z</time>
      </trkpt>
      <trkpt lat="45.73775" lon="4.28897">
        <ele>300</ele>
        <time>2017-04-13T08:51:55.1Z</time>
      </trkpt>
      <trkpt lat="45.73776" lon="4.28897">
        <ele>301</ele>
        <time>2017-04-13T08:51:57.1Z</time>
      </trkpt>
      <trkpt lat="45.73776" lon="4.28896">
        <ele>301</ele>
        <time>2017-04-13T08:51:59.1Z</time>
      </trkpt>
      <trkpt lat="45.73775" lon="4.28896">
        <ele>301</ele>
        <time>2017-04-13T08:52:01.1Z</time>
      </trkpt>
      <trkpt lat="45.73775" lon="4.28896">
        <ele>301</ele>
        <time>2017-04-13T08:52:04.1Z</time>
      </trkpt>
      <trkpt lat="45.73775" lon="4.28896">
        <ele>300</ele>
        <time>2017-04-13T08:52:06.1Z</time>
      </trkpt>
      <trkpt lat="45.73775" lon="4.28896">
        <ele>300</ele>
        <time>2017-04-13T08:52:11.1Z</time>
      </trkpt>
      <trkpt lat="45.73775" lon="4.28896">
        <ele>300</ele>
        <time>2017-04-13T08:52:15.1Z</time>
      </trkpt>
      <trkpt lat="45.73777" lon="4.28896">
        <ele>300</ele>
        <time>2017-04-13T08:52:18.1Z</time>
      </trkpt>
      <trkpt lat="45.73777" lon="4.28896">
        <ele>300</ele>
        <time>2017-04-13T08:52:20.1Z</time>
      </trkpt>
      <trkpt lat="45.73777" lon="4.28896">
        <ele>300</ele>
        <time>2017-04-13T08:52:23.1Z</time>
      </trkpt>
      <trkpt lat="45.73777" lon="4.28896">
        <ele>300</ele>
        <time>2017-04-13T08:52:26.1Z</time>
      </trkpt>
      <trkpt lat="45.73777" lon="4.28895">
        <ele>300</ele>
        <time>2017-04-13T08:52:28.1Z</time>
      </trkpt>
      <trkpt lat="45.73776" lon="4.28895">
        <ele>300</ele>
        <time>2017-04-13T08:52:30.1Z</time>
      </trkpt>
      <trkpt lat="45.73774" lon="4.2889">
        <ele>300</ele>
        <time>2017-04-13T08:52:33.1Z</time>
      </trkpt>
      <trkpt lat="45.73774" lon="4.28888">
        <ele>300</ele>
        <time>2017-04-13T08:52:35.1Z</time>
      </trkpt>
      <trkpt lat="45.73775" lon="4.28885">
        <ele>300</ele>
        <time>2017-04-13T08:52:37.1Z</time>
      </trkpt>
      <trkpt lat="45.73777" lon="4.28881">
        <ele>300</ele>
        <time>2017-04-13T08:52:40.1Z</time>
      </trkpt>
      <trkpt lat="45.73779" lon="4.28876">
        <ele>300</ele>
        <time>2017-04-13T08:52:43.1Z</time>
      </trkpt>
      <trkpt lat="45.7378" lon="4.28873">
        <ele>299</ele>
        <time>2017-04-13T08:52:45.1Z</time>
      </trkpt>
      <trkpt lat="45.73785" lon="4.28871">
        <ele>299</ele>
        <time>2017-04-13T08:52:48.1Z</time>
      </trkpt>
      <trkpt lat="45.73788" lon="4.2887">
        <ele>299</ele>
        <time>2017-04-13T08:52:50.1Z</time>
      </trkpt>
      <trkpt lat="45.73791" lon="4.28869">
        <ele>299</ele>
        <time>2017-04-13T08:52:52.1Z</time>
      </trkpt>
      <trkpt lat="45.73794" lon="4.28868">
        <ele>299</ele>
        <time>2017-04-13T08:52:54.1Z</time>
      </trkpt>
      <trkpt lat="45.73797" lon="4.28866">
        <ele>299</ele>
        <time>2017-04-13T08:52:56.1Z</time>
      </trkpt>
      <trkpt lat="45.73802" lon="4.28864">
        <ele>299</ele>
        <time>2017-04-13T08:52:59.1Z</time>
      </trkpt>
      <trkpt lat="45.73806" lon="4.28862">
        <ele>299</ele>
        <time>2017-04-13T08:53:02.1Z</time>
      </trkpt>
      <trkpt lat="45.73809" lon="4.28861">
        <ele>298</ele>
        <time>2017-04-13T08:53:04.1Z</time>
      </trkpt>
      <trkpt lat="45.7381" lon="4.28859">
        <ele>298</ele>
        <time>2017-04-13T08:53:06.1Z</time>
      </trkpt>
      <trkpt lat="45.73813" lon="4.28858">
        <ele>298</ele>
        <time>2017-04-13T08:53:09.1Z</time>
      </trkpt>
      <trkpt lat="45.73816" lon="4.28857">
        <ele>298</ele>
        <time>2017-04-13T08:53:12.1Z</time>
      </trkpt>
      <trkpt lat="45.7382" lon="4.28857">
        <ele>298</ele>
        <time>2017-04-13T08:53:15.1Z</time>
      </trkpt>
      <trkpt lat="45.73823" lon="4.28856">
        <ele>298</ele>
        <time>2017-04-13T08:53:17.1Z</time>
      </trkpt>
      <trkpt lat="45.73825" lon="4.28856">
        <ele>298</ele>
        <time>2017-04-13T08:53:19.1Z</time>
      </trkpt>
      <trkpt lat="45.7383" lon="4.28856">
        <ele>298</ele>
        <time>2017-04-13T08:53:22.1Z</time>
      </trkpt>
      <trkpt lat="45.73832" lon="4.28854">
        <ele>298</ele>
        <time>2017-04-13T08:53:24.1Z</time>
      </trkpt>
      <trkpt lat="45.73835" lon="4.28853">
        <ele>298</ele>
        <time>2017-04-13T08:53:27.1Z</time>
      </trkpt>
      <trkpt lat="45.73837" lon="4.28852">
        <ele>298</ele>
        <time>2017-04-13T08:53:29.1Z</time>
      </trkpt>
      <trkpt lat="45.73839" lon="4.2885">
        <ele>298</ele>
        <time>2017-04-13T08:53:31.1Z</time>
      </trkpt>
      <trkpt lat="45.73843" lon="4.28847">
        <ele>297</ele>
        <time>2017-04-13T08:53:34.1Z</time>
      </trkpt>
      <trkpt lat="45.73846" lon="4.28845">
        <ele>297</ele>
        <time>2017-04-13T08:53:36.1Z</time>
      </trkpt>
      <trkpt lat="45.73849" lon="4.28842">
        <ele>297</ele>
        <time>2017-04-13T08:53:38.1Z</time>
      </trkpt>
      <trkpt lat="45.73851" lon="4.28841">
        <ele>298</ele>
        <time>2017-04-13T08:53:41.1Z</time>
      </trkpt>
      <trkpt lat="45.73852" lon="4.28841">
        <ele>298</ele>
        <time>2017-04-13T08:53:43.1Z</time>
      </trkpt>
      <trkpt lat="45.73852" lon="4.28841">
        <ele>298</ele>
        <time>2017-04-13T08:53:45.1Z</time>
      </trkpt>
      <trkpt lat="45.73853" lon="4.2884">
        <ele>298</ele>
        <time>2017-04-13T08:53:47.1Z</time>
      </trkpt>
      <trkpt lat="45.73856" lon="4.28835">
        <ele>297</ele>
        <time>2017-04-13T08:53:50.1Z</time>
      </trkpt>
      <trkpt lat="45.73858" lon="4.28833">
        <ele>298</ele>
        <time>2017-04-13T08:53:52.1Z</time>
      </trkpt>
      <trkpt lat="45.73861" lon="4.28831">
        <ele>298</ele>
        <time>2017-04-13T08:53:55.1Z</time>
      </trkpt>
      <trkpt lat="45.73863" lon="4.28829">
        <ele>298</ele>
        <time>2017-04-13T08:53:58.1Z</time>
      </trkpt>
      <trkpt lat="45.73865" lon="4.28828">
        <ele>298</ele>
        <time>2017-04-13T08:54:00.1Z</time>
      </trkpt>
      <trkpt lat="45.73867" lon="4.28828">
        <ele>298</ele>
        <time>2017-04-13T08:54:02.1Z</time>
      </trkpt>
      <trkpt lat="45.7387" lon="4.28827">
        <ele>298</ele>
        <time>2017-04-13T08:54:05.1Z</time>
      </trkpt>
      <trkpt lat="45.73872" lon="4.28825">
        <ele>298</ele>
        <time>2017-04-13T08:54:07.1Z</time>
      </trkpt>
      <trkpt lat="45.73874" lon="4.28824">
        <ele>298</ele>
        <time>2017-04-13T08:54:09.1Z</time>
      </trkpt>
      <trkpt lat="45.73876" lon="4.28822">
        <ele>298</ele>
        <time>2017-04-13T08:54:12.1Z</time>
      </trkpt>
      <trkpt lat="45.73879" lon="4.2882">
        <ele>298</ele>
        <time>2017-04-13T08:54:15.1Z</time>
      </trkpt>
      <trkpt lat="45.73881" lon="4.28819">
        <ele>299</ele>
        <time>2017-04-13T08:54:17.1Z</time>
      </trkpt>
      <trkpt lat="45.73885" lon="4.28817">
        <ele>299</ele>
        <time>2017-04-13T08:54:20.1Z</time>
      </trkpt>
      <trkpt lat="45.7389" lon="4.28817">
        <ele>299</ele>
        <time>2017-04-13T08:54:23.1Z</time>
      </trkpt>
      <trkpt lat="45.73895" lon="4.28816">
        <ele>299</ele>
        <time>2017-04-13T08:54:26.1Z</time>
      </trkpt>
      <trkpt lat="45.73897" lon="4.28816">
        <ele>299</ele>
        <time>2017-04-13T08:54:28.1Z</time>
      </trkpt>
      <trkpt lat="45.73901" lon="4.28817">
        <ele>299</ele>
        <time>2017-04-13T08:54:30.1Z</time>
      </trkpt>
      <trkpt lat="45.73904" lon="4.28816">
        <ele>299</ele>
        <time>2017-04-13T08:54:33.1Z</time>
      </trkpt>
      <trkpt lat="45.73906" lon="4.28814">
        <ele>300</ele>
        <time>2017-04-13T08:54:35.1Z</time>
      </trkpt>
      <trkpt lat="45.73909" lon="4.28811">
        <ele>300</ele>
        <time>2017-04-13T08:54:37.1Z</time>
      </trkpt>
      <trkpt lat="45.73911" lon="4.28809">
        <ele>300</ele>
        <time>2017-04-13T08:54:39.1Z</time>
      </trkpt>
      <trkpt lat="45.73913" lon="4.28807">
        <ele>300</ele>
        <time>2017-04-13T08:54:41.1Z</time>
      </trkpt>
      <trkpt lat="45.73916" lon="4.28803">
        <ele>300</ele>
        <time>2017-04-13T08:54:44.1Z</time>
      </trkpt>
      <trkpt lat="45.73917" lon="4.288">
        <ele>301</ele>
        <time>2017-04-13T08:54:46.1Z</time>
      </trkpt>
      <trkpt lat="45.7392" lon="4.28798">
        <ele>301</ele>
        <time>2017-04-13T08:54:48.1Z</time>
      </trkpt>
      <trkpt lat="45.73922" lon="4.28794">
        <ele>301</ele>
        <time>2017-04-13T08:54:51.1Z</time>
      </trkpt>
      <trkpt lat="45.73925" lon="4.2879">
        <ele>301</ele>
        <time>2017-04-13T08:54:54.1Z</time>
      </trkpt>
      <trkpt lat="45.73926" lon="4.28787">
        <ele>301</ele>
        <time>2017-04-13T08:54:56.1Z</time>
      </trkpt>
      <trkpt lat="45.73927" lon="4.28782">
        <ele>302</ele>
        <time>2017-04-13T08:54:59.1Z</time>
      </trkpt>
      <trkpt lat="45.73929" lon="4.28779">
        <ele>302</ele>
        <time>2017-04-13T08:55:01.1Z</time>
      </trkpt>
      <trkpt lat="45.7393" lon="4.28776">
        <ele>302</ele>
        <time>2017-04-13T08:55:03.1Z</time>
      </trkpt>
      <trkpt lat="45.7393" lon="4.28771">
        <ele>302</ele>
        <time>2017-04-13T08:55:06.1Z</time>
      </trkpt>
      <trkpt lat="45.73932" lon="4.28767">
        <ele>302</ele>
        <time>2017-04-13T08:55:08.1Z</time>
      </trkpt>
      <trkpt lat="45.73933" lon="4.28764">
        <ele>302</ele>
        <time>2017-04-13T08:55:10.1Z</time>
      </trkpt>
      <trkpt lat="45.73933" lon="4.2876">
        <ele>302</ele>
        <time>2017-04-13T08:55:12.1Z</time>
      </trkpt>
      <trkpt lat="45.73935" lon="4.28757">
        <ele>302</ele>
        <time>2017-04-13T08:55:14.1Z</time>
      </trkpt>
      <trkpt lat="45.73936" lon="4.28753">
        <ele>302</ele>
        <time>2017-04-13T08:55:16.1Z</time>
      </trkpt>
      <trkpt lat="45.73937" lon="4.28747">
        <ele>302</ele>
        <time>2017-04-13T08:55:19.1Z</time>
      </trkpt>
      <trkpt lat="45.73938" lon="4.28742">
        <ele>302</ele>
        <time>2017-04-13T08:55:21.1Z</time>
      </trkpt>
      <trkpt lat="45.73938" lon="4.28737">
        <ele>303</ele>
        <time>2017-04-13T08:55:23.1Z</time>
      </trkpt>
      <trkpt lat="45.73939" lon="4.28733">
        <ele>303</ele>
        <time>2017-04-13T08:55:25.1Z</time>
      </trkpt>
      <trkpt lat="45.73941" lon="4.28727">
        <ele>303</ele>
        <time>2017-04-13T08:55:28.1Z</time>
      </trkpt>
      <trkpt lat="45.73943" lon="4.28721">
        <ele>303</ele>
        <time>2017-04-13T08:55:31.1Z</time>
      </trkpt>
      <trkpt lat="45.73945" lon="4.28717">
        <ele>303</ele>
        <time>2017-04-13T08:55:33.1Z</time>
      </trkpt>
      <trkpt lat="45.73947" lon="4.28714">
        <ele>303</ele>
        <time>2017-04-13T08:55:35.1Z</time>
      </trkpt>
      <trkpt lat="45.7395" lon="4.28709">
        <ele>303</ele>
        <time>2017-04-13T08:55:38.1Z</time>
      </trkpt>
      <trkpt lat="45.73951" lon="4.28706">
        <ele>303</ele>
        <time>2017-04-13T08:55:40.1Z</time>
      </trkpt>
      <trkpt lat="45.73954" lon="4.28701">
        <ele>303</ele>
        <time>2017-04-13T08:55:43.1Z</time>
      </trkpt>
      <trkpt lat="45.73956" lon="4.28698">
        <ele>303</ele>
        <time>2017-04-13T08:55:45.1Z</time>
      </trkpt>
      <trkpt lat="45.73959" lon="4.28695">
        <ele>303</ele>
        <time>2017-04-13T08:55:48.1Z</time>
      </trkpt>
      <trkpt lat="45.7396" lon="4.28693">
        <ele>303</ele>
        <time>2017-04-13T08:55:50.1Z</time>
      </trkpt>
      <trkpt lat="45.73962" lon="4.28689">
        <ele>304</ele>
        <time>2017-04-13T08:55:53.1Z</time>
      </trkpt>
      <trkpt lat="45.73964" lon="4.28688">
        <ele>304</ele>
        <time>2017-04-13T08:55:55.1Z</time>
      </trkpt>
      <trkpt lat="45.73968" lon="4.28685">
        <ele>304</ele>
        <time>2017-04-13T08:55:58.1Z</time>
      </trkpt>
      <trkpt lat="45.7397" lon="4.28683">
        <ele>304</ele>
        <time>2017-04-13T08:56:00.1Z</time>
      </trkpt>
      <trkpt lat="45.73973" lon="4.2868">
        <ele>304</ele>
        <time>2017-04-13T08:56:03.1Z</time>
      </trkpt>
      <trkpt lat="45.73975" lon="4.28678">
        <ele>305</ele>
        <time>2017-04-13T08:56:05.1Z</time>
      </trkpt>
      <trkpt lat="45.73976" lon="4.28677">
        <ele>305</ele>
        <time>2017-04-13T08:56:07.1Z</time>
      </trkpt>
      <trkpt lat="45.73979" lon="4.28674">
        <ele>305</ele>
        <time>2017-04-13T08:56:10.1Z</time>
      </trkpt>
      <trkpt lat="45.73983" lon="4.28673">
        <ele>305</ele>
        <time>2017-04-13T08:56:13.1Z</time>
      </trkpt>
      <trkpt lat="45.73985" lon="4.28671">
        <ele>306</ele>
        <time>2017-04-13T08:56:15.1Z</time>
      </trkpt>
      <trkpt lat="45.73988" lon="4.28668">
        <ele>306</ele>
        <time>2017-04-13T08:56:18.1Z</time>
      </trkpt>
      <trkpt lat="45.7399" lon="4.28666">
        <ele>306</ele>
        <time>2017-04-13T08:56:20.1Z</time>
      </trkpt>
      <trkpt lat="45.73994" lon="4.28663">
        <ele>307</ele>
        <time>2017-04-13T08:56:23.1Z</time>
      </trkpt>
      <trkpt lat="45.73996" lon="4.28661">
        <ele>307</ele>
        <time>2017-04-13T08:56:25.1Z</time>
      </trkpt>
      <trkpt lat="45.73999" lon="4.28657">
        <ele>307</ele>
        <time>2017-04-13T08:56:28.1Z</time>
      </trkpt>
      <trkpt lat="45.74001" lon="4.28653">
        <ele>307</ele>
        <time>2017-04-13T08:56:30.1Z</time>
      </trkpt>
      <trkpt lat="45.74003" lon="4.2865">
        <ele>307</ele>
        <time>2017-04-13T08:56:32.1Z</time>
      </trkpt>
      <trkpt lat="45.74006" lon="4.28647">
        <ele>308</ele>
        <time>2017-04-13T08:56:34.1Z</time>
      </trkpt>
      <trkpt lat="45.74009" lon="4.28644">
        <ele>308</ele>
        <time>2017-04-13T08:56:36.1Z</time>
      </trkpt>
      <trkpt lat="45.74013" lon="4.2864">
        <ele>308</ele>
        <time>2017-04-13T08:56:39.1Z</time>
      </trkpt>
      <trkpt lat="45.74015" lon="4.28638">
        <ele>309</ele>
        <time>2017-04-13T08:56:41.1Z</time>
      </trkpt>
      <trkpt lat="45.74017" lon="4.28637">
        <ele>309</ele>
        <time>2017-04-13T08:56:43.1Z</time>
      </trkpt>
      <trkpt lat="45.74021" lon="4.28635">
        <ele>309</ele>
        <time>2017-04-13T08:56:46.1Z</time>
      </trkpt>
      <trkpt lat="45.74023" lon="4.28633">
        <ele>310</ele>
        <time>2017-04-13T08:56:48.1Z</time>
      </trkpt>
      <trkpt lat="45.74027" lon="4.28631">
        <ele>309</ele>
        <time>2017-04-13T08:56:51.1Z</time>
      </trkpt>
      <trkpt lat="45.7403" lon="4.28628">
        <ele>309</ele>
        <time>2017-04-13T08:56:53.1Z</time>
      </trkpt>
      <trkpt lat="45.74031" lon="4.28626">
        <ele>309</ele>
        <time>2017-04-13T08:56:55.1Z</time>
      </trkpt>
      <trkpt lat="45.74035" lon="4.28623">
        <ele>310</ele>
        <time>2017-04-13T08:56:58.1Z</time>
      </trkpt>
      <trkpt lat="45.7404" lon="4.28621">
        <ele>310</ele>
        <time>2017-04-13T08:57:01.1Z</time>
      </trkpt>
      <trkpt lat="45.74043" lon="4.28619">
        <ele>311</ele>
        <time>2017-04-13T08:57:03.1Z</time>
      </trkpt>
      <trkpt lat="45.74045" lon="4.28617">
        <ele>311</ele>
        <time>2017-04-13T08:57:05.1Z</time>
      </trkpt>
      <trkpt lat="45.74047" lon="4.28615">
        <ele>311</ele>
        <time>2017-04-13T08:57:07.1Z</time>
      </trkpt>
      <trkpt lat="45.74051" lon="4.28613">
        <ele>311</ele>
        <time>2017-04-13T08:57:10.1Z</time>
      </trkpt>
      <trkpt lat="45.74054" lon="4.28611">
        <ele>310</ele>
        <time>2017-04-13T08:57:12.1Z</time>
      </trkpt>
      <trkpt lat="45.74055" lon="4.28608">
        <ele>310</ele>
        <time>2017-04-13T08:57:14.1Z</time>
      </trkpt>
      <trkpt lat="45.74056" lon="4.28603">
        <ele>311</ele>
        <time>2017-04-13T08:57:17.1Z</time>
      </trkpt>
      <trkpt lat="45.74056" lon="4.28601">
        <ele>311</ele>
        <time>2017-04-13T08:57:19.1Z</time>
      </trkpt>
      <trkpt lat="45.74056" lon="4.28597">
        <ele>311</ele>
        <time>2017-04-13T08:57:22.1Z</time>
      </trkpt>
      <trkpt lat="45.74057" lon="4.28594">
        <ele>310</ele>
        <time>2017-04-13T08:57:24.1Z</time>
      </trkpt>
      <trkpt lat="45.74057" lon="4.28589">
        <ele>310</ele>
        <time>2017-04-13T08:57:27.1Z</time>
      </trkpt>
      <trkpt lat="45.74056" lon="4.28586">
        <ele>310</ele>
        <time>2017-04-13T08:57:29.1Z</time>
      </trkpt>
      <trkpt lat="45.74054" lon="4.28581">
        <ele>310</ele>
        <time>2017-04-13T08:57:32.1Z</time>
      </trkpt>
      <trkpt lat="45.74052" lon="4.28579">
        <ele>309</ele>
        <time>2017-04-13T08:57:34.1Z</time>
      </trkpt>
      <trkpt lat="45.7405" lon="4.28574">
        <ele>309</ele>
        <time>2017-04-13T08:57:37.1Z</time>
      </trkpt>
      <trkpt lat="45.74048" lon="4.28569">
        <ele>308</ele>
        <time>2017-04-13T08:57:40.1Z</time>
      </trkpt>
      <trkpt lat="45.74047" lon="4.28566">
        <ele>308</ele>
        <time>2017-04-13T08:57:42.1Z</time>
      </trkpt>
      <trkpt lat="45.74047" lon="4.28563">
        <ele>308</ele>
        <time>2017-04-13T08:57:44.1Z</time>
      </trkpt>
      <trkpt lat="45.74046" lon="4.28559">
        <ele>308</ele>
        <time>2017-04-13T08:57:46.1Z</time>
      </trkpt>
      <trkpt lat="45.74046" lon="4.28553">
        <ele>308</ele>
        <time>2017-04-13T08:57:49.1Z</time>
      </trkpt>
      <trkpt lat="45.74046" lon="4.28548">
        <ele>307</ele>
        <time>2017-04-13T08:57:51.1Z</time>
      </trkpt>
      <trkpt lat="45.74046" lon="4.28544">
        <ele>307</ele>
        <time>2017-04-13T08:57:53.1Z</time>
      </trkpt>
      <trkpt lat="45.74045" lon="4.28536">
        <ele>307</ele>
        <time>2017-04-13T08:57:56.1Z</time>
      </trkpt>
      <trkpt lat="45.74045" lon="4.28532">
        <ele>307</ele>
        <time>2017-04-13T08:57:58.1Z</time>
      </trkpt>
      <trkpt lat="45.74045" lon="4.28527">
        <ele>306</ele>
        <time>2017-04-13T08:58:01.1Z</time>
      </trkpt>
      <trkpt lat="45.74046" lon="4.28524">
        <ele>306</ele>
        <time>2017-04-13T08:58:03.1Z</time>
      </trkpt>
      <trkpt lat="45.74046" lon="4.28521">
        <ele>306</ele>
        <time>2017-04-13T08:58:05.1Z</time>
      </trkpt>
      <trkpt lat="45.74046" lon="4.28515">
        <ele>306</ele>
        <time>2017-04-13T08:58:08.1Z</time>
      </trkpt>
      <trkpt lat="45.74046" lon="4.28509">
        <ele>306</ele>
        <time>2017-04-13T08:58:11.1Z</time>
      </trkpt>
      <trkpt lat="45.74047" lon="4.28505">
        <ele>306</ele>
        <time>2017-04-13T08:58:13.1Z</time>
      </trkpt>
      <trkpt lat="45.74048" lon="4.28501">
        <ele>306</ele>
        <time>2017-04-13T08:58:15.1Z</time>
      </trkpt>
      <trkpt lat="45.74049" lon="4.28496">
        <ele>306</ele>
        <time>2017-04-13T08:58:18.1Z</time>
      </trkpt>
      <trkpt lat="45.7405" lon="4.28493">
        <ele>306</ele>
        <time>2017-04-13T08:58:20.1Z</time>
      </trkpt>
      <trkpt lat="45.7405" lon="4.2849">
        <ele>305</ele>
        <time>2017-04-13T08:58:22.1Z</time>
      </trkpt>
      <trkpt lat="45.74051" lon="4.28485">
        <ele>305</ele>
        <time>2017-04-13T08:58:25.1Z</time>
      </trkpt>
      <trkpt lat="45.74052" lon="4.28482">
        <ele>305</ele>
        <time>2017-04-13T08:58:27.1Z</time>
      </trkpt>
      <trkpt lat="45.74052" lon="4.28479">
        <ele>305</ele>
        <time>2017-04-13T08:58:29.1Z</time>
      </trkpt>
      <trkpt lat="45.74052" lon="4.28475">
        <ele>305</ele>
        <time>2017-04-13T08:58:32.1Z</time>
      </trkpt>
      <trkpt lat="45.74052" lon="4.28471">
        <ele>305</ele>
        <time>2017-04-13T08:58:34.1Z</time>
      </trkpt>
      <trkpt lat="45.74052" lon="4.28466">
        <ele>305</ele>
        <time>2017-04-13T08:58:37.1Z</time>
      </trkpt>
      <trkpt lat="45.74053" lon="4.28462">
        <ele>305</ele>
        <time>2017-04-13T08:58:39.1Z</time>
      </trkpt>
      <trkpt lat="45.74054" lon="4.28458">
        <ele>305</ele>
        <time>2017-04-13T08:58:41.1Z</time>
      </trkpt>
      <trkpt lat="45.74052" lon="4.28452">
        <ele>304</ele>
        <time>2017-04-13T08:58:44.1Z</time>
      </trkpt>
      <trkpt lat="45.74052" lon="4.28448">
        <ele>304</ele>
        <time>2017-04-13T08:58:46.1Z</time>
      </trkpt>
      <trkpt lat="45.74052" lon="4.28444">
        <ele>304</ele>
        <time>2017-04-13T08:58:48.1Z</time>
      </trkpt>
      <trkpt lat="45.74051" lon="4.28439">
        <ele>304</ele>
        <time>2017-04-13T08:58:51.1Z</time>
      </trkpt>
      <trkpt lat="45.74049" lon="4.28435">
        <ele>304</ele>
        <time>2017-04-13T08:58:53.1Z</time>
      </trkpt>
      <trkpt lat="45.74049" lon="4.28431">
        <ele>304</ele>
        <time>2017-04-13T08:58:55.1Z</time>
      </trkpt>
      <trkpt lat="45.74047" lon="4.28426">
        <ele>304</ele>
        <time>2017-04-13T08:58:58.1Z</time>
      </trkpt>
      <trkpt lat="45.74045" lon="4.28421">
        <ele>304</ele>
        <time>2017-04-13T08:59:01.1Z</time>
      </trkpt>
      <trkpt lat="45.74043" lon="4.28418">
        <ele>304</ele>
        <time>2017-04-13T08:59:03.1Z</time>
      </trkpt>
      <trkpt lat="45.7404" lon="4.28413">
        <ele>304</ele>
        <time>2017-04-13T08:59:06.1Z</time>
      </trkpt>
      <trkpt lat="45.74038" lon="4.2841">
        <ele>303</ele>
        <time>2017-04-13T08:59:08.1Z</time>
      </trkpt>
      <trkpt lat="45.74035" lon="4.28405">
        <ele>303</ele>
        <time>2017-04-13T08:59:11.1Z</time>
      </trkpt>
      <trkpt lat="45.74033" lon="4.28401">
        <ele>303</ele>
        <time>2017-04-13T08:59:13.1Z</time>
      </trkpt>
      <trkpt lat="45.74031" lon="4.28398">
        <ele>303</ele>
        <time>2017-04-13T08:59:15.1Z</time>
      </trkpt>
      <trkpt lat="45.74029" lon="4.28394">
        <ele>303</ele>
        <time>2017-04-13T08:59:17.1Z</time>
      </trkpt>
      <trkpt lat="45.74027" lon="4.28391">
        <ele>302</ele>
        <time>2017-04-13T08:59:19.1Z</time>
      </trkpt>
      <trkpt lat="45.74025" lon="4.28385">
        <ele>302</ele>
        <time>2017-04-13T08:59:22.1Z</time>
      </trkpt>
      <trkpt lat="45.74022" lon="4.28381">
        <ele>302</ele>
        <time>2017-04-13T08:59:25.1Z</time>
      </trkpt>
      <trkpt lat="45.74021" lon="4.28377">
        <ele>302</ele>
        <time>2017-04-13T08:59:27.1Z</time>
      </trkpt>
      <trkpt lat="45.74019" lon="4.28373">
        <ele>302</ele>
        <time>2017-04-13T08:59:30.1Z</time>
      </trkpt>
      <trkpt lat="45.74019" lon="4.28371">
        <ele>302</ele>
        <time>2017-04-13T08:59:33.1Z</time>
      </trkpt>
      <trkpt lat="45.74018" lon="4.28368">
        <ele>302</ele>
        <time>2017-04-13T08:59:35.1Z</time>
      </trkpt>
      <trkpt lat="45.74017" lon="4.28363">
        <ele>301</ele>
        <time>2017-04-13T08:59:38.1Z</time>
      </trkpt>
      <trkpt lat="45.74015" lon="4.28359">
        <ele>301</ele>
        <time>2017-04-13T08:59:40.1Z</time>
      </trkpt>
      <trkpt lat="45.74014" lon="4.28354">
        <ele>301</ele>
        <time>2017-04-13T08:59:43.1Z</time>
      </trkpt>
      <trkpt lat="45.74012" lon="4.28349">
        <ele>301</ele>
        <time>2017-04-13T08:59:46.1Z</time>
      </trkpt>
      <trkpt lat="45.74011" lon="4.28346">
        <ele>301</ele>
        <time>2017-04-13T08:59:48.1Z</time>
      </trkpt>
      <trkpt lat="45.74009" lon="4.28341">
        <ele>300</ele>
        <time>2017-04-13T08:59:51.1Z</time>
      </trkpt>
      <trkpt lat="45.74008" lon="4.28336">
        <ele>300</ele>
        <time>2017-04-13T08:59:54.1Z</time>
      </trkpt>
      <trkpt lat="45.74007" lon="4.28331">
        <ele>300</ele>
        <time>2017-04-13T08:59:57.1Z</time>
      </trkpt>
      <trkpt lat="45.74004" lon="4.28327">
        <ele>300</ele>
        <time>2017-04-13T09:00:00.1Z</time>
      </trkpt>
      <trkpt lat="45.74004" lon="4.28324">
        <ele>300</ele>
        <time>2017-04-13T09:00:02.1Z</time>
      </trkpt>
      <trkpt lat="45.74003" lon="4.28321">
        <ele>300</ele>
        <time>2017-04-13T09:00:04.1Z</time>
      </trkpt>
      <trkpt lat="45.74001" lon="4.28316">
        <ele>300</ele>
        <time>2017-04-13T09:00:07.1Z</time>
      </trkpt>
      <trkpt lat="45.74" lon="4.28311">
        <ele>299</ele>
        <time>2017-04-13T09:00:10.1Z</time>
      </trkpt>
      <trkpt lat="45.73998" lon="4.28306">
        <ele>299</ele>
        <time>2017-04-13T09:00:13.1Z</time>
      </trkpt>
      <trkpt lat="45.73997" lon="4.28302">
        <ele>299</ele>
        <time>2017-04-13T09:00:15.1Z</time>
      </trkpt>
      <trkpt lat="45.73996" lon="4.28297">
        <ele>298</ele>
        <time>2017-04-13T09:00:18.1Z</time>
      </trkpt>
      <trkpt lat="45.73995" lon="4.28293">
        <ele>298</ele>
        <time>2017-04-13T09:00:20.1Z</time>
      </trkpt>
      <trkpt lat="45.73994" lon="4.2829">
        <ele>298</ele>
        <time>2017-04-13T09:00:22.1Z</time>
      </trkpt>
      <trkpt lat="45.73994" lon="4.28285">
        <ele>298</ele>
        <time>2017-04-13T09:00:24.1Z</time>
      </trkpt>
      <trkpt lat="45.73996" lon="4.28279">
        <ele>298</ele>
        <time>2017-04-13T09:00:27.1Z</time>
      </trkpt>
      <trkpt lat="45.73999" lon="4.28276">
        <ele>298</ele>
        <time>2017-04-13T09:00:29.1Z</time>
      </trkpt>
      <trkpt lat="45.74001" lon="4.28274">
        <ele>298</ele>
        <time>2017-04-13T09:00:31.1Z</time>
      </trkpt>
      <trkpt lat="45.74004" lon="4.28273">
        <ele>298</ele>
        <time>2017-04-13T09:00:33.1Z</time>
      </trkpt>
      <trkpt lat="45.74009" lon="4.28271">
        <ele>298</ele>
        <time>2017-04-13T09:00:36.1Z</time>
      </trkpt>
      <trkpt lat="45.74012" lon="4.2827">
        <ele>298</ele>
        <time>2017-04-13T09:00:38.1Z</time>
      </trkpt>
      <trkpt lat="45.74016" lon="4.28268">
        <ele>299</ele>
        <time>2017-04-13T09:00:41.1Z</time>
      </trkpt>
      <trkpt lat="45.7402" lon="4.28268">
        <ele>299</ele>
        <time>2017-04-13T09:00:44.1Z</time>
      </trkpt>
      <trkpt lat="45.74022" lon="4.28268">
        <ele>299</ele>
        <time>2017-04-13T09:00:46.1Z</time>
      </trkpt>
      <trkpt lat="45.74024" lon="4.28267">
        <ele>299</ele>
        <time>2017-04-13T09:00:49.1Z</time>
      </trkpt>
      <trkpt lat="45.74027" lon="4.28265">
        <ele>299</ele>
        <time>2017-04-13T09:00:52.1Z</time>
      </trkpt>
      <trkpt lat="45.74033" lon="4.28264">
        <ele>299</ele>
        <time>2017-04-13T09:00:55.1Z</time>
      </trkpt>
      <trkpt lat="45.74036" lon="4.28262">
        <ele>299</ele>
        <time>2017-04-13T09:00:57.1Z</time>
      </trkpt>
      <trkpt lat="45.74039" lon="4.28258">
        <ele>299</ele>
        <time>2017-04-13T09:01:00.1Z</time>
      </trkpt>
      <trkpt lat="45.74043" lon="4.28257">
        <ele>299</ele>
        <time>2017-04-13T09:01:02.1Z</time>
      </trkpt>
      <trkpt lat="45.74046" lon="4.28255">
        <ele>299</ele>
        <time>2017-04-13T09:01:04.1Z</time>
      </trkpt>
      <trkpt lat="45.74049" lon="4.28254">
        <ele>299</ele>
        <time>2017-04-13T09:01:06.1Z</time>
      </trkpt>
      <trkpt lat="45.74052" lon="4.28253">
        <ele>299</ele>
        <time>2017-04-13T09:01:08.1Z</time>
      </trkpt>
      <trkpt lat="45.74055" lon="4.28252">
        <ele>299</ele>
        <time>2017-04-13T09:01:10.1Z</time>
      </trkpt>
      <trkpt lat="45.74059" lon="4.28251">
        <ele>299</ele>
        <time>2017-04-13T09:01:12.1Z</time>
      </trkpt>
      <trkpt lat="45.74063" lon="4.28249">
        <ele>299</ele>
        <time>2017-04-13T09:01:15.1Z</time>
      </trkpt>
      <trkpt lat="45.74067" lon="4.28247">
        <ele>300</ele>
        <time>2017-04-13T09:01:18.1Z</time>
      </trkpt>
      <trkpt lat="45.7407" lon="4.28245">
        <ele>300</ele>
        <time>2017-04-13T09:01:20.1Z</time>
      </trkpt>
      <trkpt lat="45.74072" lon="4.28244">
        <ele>300</ele>
        <time>2017-04-13T09:01:22.1Z</time>
      </trkpt>
      <trkpt lat="45.74076" lon="4.28242">
        <ele>300</ele>
        <time>2017-04-13T09:01:25.1Z</time>
      </trkpt>
      <trkpt lat="45.7408" lon="4.28239">
        <ele>300</ele>
        <time>2017-04-13T09:01:28.1Z</time>
      </trkpt>
      <trkpt lat="45.74083" lon="4.28238">
        <ele>300</ele>
        <time>2017-04-13T09:01:30.1Z</time>
      </trkpt>
      <trkpt lat="45.74085" lon="4.28236">
        <ele>299</ele>
        <time>2017-04-13T09:01:32.1Z</time>
      </trkpt>
      <trkpt lat="45.74088" lon="4.28235">
        <ele>299</ele>
        <time>2017-04-13T09:01:34.1Z</time>
      </trkpt>
      <trkpt lat="45.74091" lon="4.28233">
        <ele>299</ele>
        <time>2017-04-13T09:01:36.1Z</time>
      </trkpt>
      <trkpt lat="45.74093" lon="4.28231">
        <ele>299</ele>
        <time>2017-04-13T09:01:38.1Z</time>
      </trkpt>
      <trkpt lat="45.74097" lon="4.28229">
        <ele>300</ele>
        <time>2017-04-13T09:01:41.1Z</time>
      </trkpt>
      <trkpt lat="45.74099" lon="4.28227">
        <ele>300</ele>
        <time>2017-04-13T09:01:43.1Z</time>
      </trkpt>
      <trkpt lat="45.74101" lon="4.28226">
        <ele>300</ele>
        <time>2017-04-13T09:01:45.1Z</time>
      </trkpt>
      <trkpt lat="45.74104" lon="4.28224">
        <ele>300</ele>
        <time>2017-04-13T09:01:47.1Z</time>
      </trkpt>
      <trkpt lat="45.74108" lon="4.28222">
        <ele>300</ele>
        <time>2017-04-13T09:01:50.1Z</time>
      </trkpt>
      <trkpt lat="45.7411" lon="4.28221">
        <ele>300</ele>
        <time>2017-04-13T09:01:52.1Z</time>
      </trkpt>
      <trkpt lat="45.74114" lon="4.28219">
        <ele>300</ele>
        <time>2017-04-13T09:01:55.1Z</time>
      </trkpt>
      <trkpt lat="45.74116" lon="4.28217">
        <ele>300</ele>
        <time>2017-04-13T09:01:57.1Z</time>
      </trkpt>
      <trkpt lat="45.7412" lon="4.28215">
        <ele>300</ele>
        <time>2017-04-13T09:02:00.1Z</time>
      </trkpt>
      <trkpt lat="45.74122" lon="4.28213">
        <ele>300</ele>
        <time>2017-04-13T09:02:02.1Z</time>
      </trkpt>
      <trkpt lat="45.74124" lon="4.28211">
        <ele>300</ele>
        <time>2017-04-13T09:02:04.1Z</time>
      </trkpt>
      <trkpt lat="45.74125" lon="4.28211">
        <ele>300</ele>
        <time>2017-04-13T09:02:06.1Z</time>
      </trkpt>
      <trkpt lat="45.74126" lon="4.28211">
        <ele>300</ele>
        <time>2017-04-13T09:02:09.1Z</time>
      </trkpt>
      <trkpt lat="45.74127" lon="4.28211">
        <ele>301</ele>
        <time>2017-04-13T09:02:12.1Z</time>
      </trkpt>
      <trkpt lat="45.74128" lon="4.28211">
        <ele>300</ele>
        <time>2017-04-13T09:02:14.1Z</time>
      </trkpt>
      <trkpt lat="45.74128" lon="4.28211">
        <ele>300</ele>
        <time>2017-04-13T09:02:17.1Z</time>
      </trkpt>
      <trkpt lat="45.74128" lon="4.28211">
        <ele>300</ele>
        <time>2017-04-13T09:02:19.1Z</time>
      </trkpt>
      <trkpt lat="45.74129" lon="4.28211">
        <ele>300</ele>
        <time>2017-04-13T09:02:22.1Z</time>
      </trkpt>
      <trkpt lat="45.74129" lon="4.28211">
        <ele>300</ele>
        <time>2017-04-13T09:02:24.1Z</time>
      </trkpt>
      <trkpt lat="45.7413" lon="4.28211">
        <ele>300</ele>
        <time>2017-04-13T09:02:26.1Z</time>
      </trkpt>
      <trkpt lat="45.7413" lon="4.28211">
        <ele>300</ele>
        <time>2017-04-13T09:02:28.1Z</time>
      </trkpt>
      <trkpt lat="45.74131" lon="4.28211">
        <ele>301</ele>
        <time>2017-04-13T09:02:32.1Z</time>
      </trkpt>
      <trkpt lat="45.74131" lon="4.2821">
        <ele>301</ele>
        <time>2017-04-13T09:02:34.1Z</time>
      </trkpt>
      <trkpt lat="45.74134" lon="4.28209">
        <ele>301</ele>
        <time>2017-04-13T09:02:36.1Z</time>
      </trkpt>
      <trkpt lat="45.74138" lon="4.28205">
        <ele>301</ele>
        <time>2017-04-13T09:02:38.1Z</time>
      </trkpt>
      <trkpt lat="45.74143" lon="4.28203">
        <ele>301</ele>
        <time>2017-04-13T09:02:40.1Z</time>
      </trkpt>
      <trkpt lat="45.74148" lon="4.28201">
        <ele>301</ele>
        <time>2017-04-13T09:02:43.1Z</time>
      </trkpt>
      <trkpt lat="45.7415" lon="4.28201">
        <ele>301</ele>
        <time>2017-04-13T09:02:46.1Z</time>
      </trkpt>
      <trkpt lat="45.7415" lon="4.28201">
        <ele>300</ele>
        <time>2017-04-13T09:02:49.1Z</time>
      </trkpt>
      <trkpt lat="45.7415" lon="4.28201">
        <ele>300</ele>
        <time>2017-04-13T09:02:51.1Z</time>
      </trkpt>
      <trkpt lat="45.74153" lon="4.282">
        <ele>300</ele>
        <time>2017-04-13T09:02:54.1Z</time>
      </trkpt>
      <trkpt lat="45.74157" lon="4.282">
        <ele>300</ele>
        <time>2017-04-13T09:02:57.1Z</time>
      </trkpt>
      <trkpt lat="45.74159" lon="4.282">
        <ele>300</ele>
        <time>2017-04-13T09:02:59.1Z</time>
      </trkpt>
      <trkpt lat="45.74161" lon="4.282">
        <ele>301</ele>
        <time>2017-04-13T09:03:01.1Z</time>
      </trkpt>
      <trkpt lat="45.74163" lon="4.28201">
        <ele>301</ele>
        <time>2017-04-13T09:03:03.1Z</time>
      </trkpt>
      <trkpt lat="45.74169" lon="4.28203">
        <ele>301</ele>
        <time>2017-04-13T09:03:06.1Z</time>
      </trkpt>
      <trkpt lat="45.74173" lon="4.28203">
        <ele>301</ele>
        <time>2017-04-13T09:03:09.1Z</time>
      </trkpt>
      <trkpt lat="45.74177" lon="4.28205">
        <ele>301</ele>
        <time>2017-04-13T09:03:12.1Z</time>
      </trkpt>
      <trkpt lat="45.74179" lon="4.28205">
        <ele>301</ele>
        <time>2017-04-13T09:03:14.1Z</time>
      </trkpt>
      <trkpt lat="45.74182" lon="4.28206">
        <ele>301</ele>
        <time>2017-04-13T09:03:16.1Z</time>
      </trkpt>
      <trkpt lat="45.74184" lon="4.28207">
        <ele>301</ele>
        <time>2017-04-13T09:03:18.1Z</time>
      </trkpt>
      <trkpt lat="45.74188" lon="4.28208">
        <ele>301</ele>
        <time>2017-04-13T09:03:21.1Z</time>
      </trkpt>
      <trkpt lat="45.74191" lon="4.28209">
        <ele>302</ele>
        <time>2017-04-13T09:03:23.1Z</time>
      </trkpt>
      <trkpt lat="45.74194" lon="4.2821">
        <ele>302</ele>
        <time>2017-04-13T09:03:25.1Z</time>
      </trkpt>
      <trkpt lat="45.74196" lon="4.28211">
        <ele>302</ele>
        <time>2017-04-13T09:03:27.1Z</time>
      </trkpt>
      <trkpt lat="45.74199" lon="4.28212">
        <ele>302</ele>
        <time>2017-04-13T09:03:29.1Z</time>
      </trkpt>
      <trkpt lat="45.74201" lon="4.28213">
        <ele>302</ele>
        <time>2017-04-13T09:03:31.1Z</time>
      </trkpt>
      <trkpt lat="45.74204" lon="4.28214">
        <ele>302</ele>
        <time>2017-04-13T09:03:33.1Z</time>
      </trkpt>
      <trkpt lat="45.74208" lon="4.28216">
        <ele>302</ele>
        <time>2017-04-13T09:03:36.1Z</time>
      </trkpt>
      <trkpt lat="45.74211" lon="4.28217">
        <ele>302</ele>
        <time>2017-04-13T09:03:38.1Z</time>
      </trkpt>
      <trkpt lat="45.74214" lon="4.28218">
        <ele>302</ele>
        <time>2017-04-13T09:03:40.1Z</time>
      </trkpt>
      <trkpt lat="45.74218" lon="4.2822">
        <ele>302</ele>
        <time>2017-04-13T09:03:43.1Z</time>
      </trkpt>
      <trkpt lat="45.74221" lon="4.28221">
        <ele>302</ele>
        <time>2017-04-13T09:03:45.1Z</time>
      </trkpt>
      <trkpt lat="45.74223" lon="4.28222">
        <ele>302</ele>
        <time>2017-04-13T09:03:47.1Z</time>
      </trkpt>
      <trkpt lat="45.74227" lon="4.28224">
        <ele>302</ele>
        <time>2017-04-13T09:03:50.1Z</time>
      </trkpt>
      <trkpt lat="45.7423" lon="4.28225">
        <ele>303</ele>
        <time>2017-04-13T09:03:52.1Z</time>
      </trkpt>
      <trkpt lat="45.74232" lon="4.28226">
        <ele>303</ele>
        <time>2017-04-13T09:03:54.1Z</time>
      </trkpt>
      <trkpt lat="45.74235" lon="4.28228">
        <ele>303</ele>
        <time>2017-04-13T09:03:56.1Z</time>
      </trkpt>
      <trkpt lat="45.74238" lon="4.28229">
        <ele>303</ele>
        <time>2017-04-13T09:03:58.1Z</time>
      </trkpt>
      <trkpt lat="45.74241" lon="4.28229">
        <ele>303</ele>
        <time>2017-04-13T09:04:00.1Z</time>
      </trkpt>
      <trkpt lat="45.74244" lon="4.2823">
        <ele>303</ele>
        <time>2017-04-13T09:04:02.1Z</time>
      </trkpt>
      <trkpt lat="45.74247" lon="4.28231">
        <ele>304</ele>
        <time>2017-04-13T09:04:04.1Z</time>
      </trkpt>
      <trkpt lat="45.74251" lon="4.28231">
        <ele>304</ele>
        <time>2017-04-13T09:04:07.1Z</time>
      </trkpt>
      <trkpt lat="45.74254" lon="4.28232">
        <ele>304</ele>
        <time>2017-04-13T09:04:09.1Z</time>
      </trkpt>
      <trkpt lat="45.74258" lon="4.28233">
        <ele>304</ele>
        <time>2017-04-13T09:04:12.1Z</time>
      </trkpt>
      <trkpt lat="45.74261" lon="4.28233">
        <ele>304</ele>
        <time>2017-04-13T09:04:14.1Z</time>
      </trkpt>
      <trkpt lat="45.74265" lon="4.28234">
        <ele>304</ele>
        <time>2017-04-13T09:04:17.1Z</time>
      </trkpt>
      <trkpt lat="45.74269" lon="4.28235">
        <ele>304</ele>
        <time>2017-04-13T09:04:20.1Z</time>
      </trkpt>
      <trkpt lat="45.74272" lon="4.28235">
        <ele>304</ele>
        <time>2017-04-13T09:04:22.1Z</time>
      </trkpt>
      <trkpt lat="45.74274" lon="4.28235">
        <ele>304</ele>
        <time>2017-04-13T09:04:24.1Z</time>
      </trkpt>
      <trkpt lat="45.74279" lon="4.28235">
        <ele>304</ele>
        <time>2017-04-13T09:04:27.1Z</time>
      </trkpt>
      <trkpt lat="45.74282" lon="4.28234">
        <ele>304</ele>
        <time>2017-04-13T09:04:29.1Z</time>
      </trkpt>
      <trkpt lat="45.74287" lon="4.28234">
        <ele>304</ele>
        <time>2017-04-13T09:04:32.1Z</time>
      </trkpt>
      <trkpt lat="45.7429" lon="4.28234">
        <ele>304</ele>
        <time>2017-04-13T09:04:34.1Z</time>
      </trkpt>
      <trkpt lat="45.74292" lon="4.28233">
        <ele>305</ele>
        <time>2017-04-13T09:04:36.1Z</time>
      </trkpt>
      <trkpt lat="45.74295" lon="4.28233">
        <ele>304</ele>
        <time>2017-04-13T09:04:38.1Z</time>
      </trkpt>
      <trkpt lat="45.74298" lon="4.28232">
        <ele>304</ele>
        <time>2017-04-13T09:04:40.1Z</time>
      </trkpt>
      <trkpt lat="45.74302" lon="4.28232">
        <ele>304</ele>
        <time>2017-04-13T09:04:42.1Z</time>
      </trkpt>
      <trkpt lat="45.74304" lon="4.28232">
        <ele>304</ele>
        <time>2017-04-13T09:04:44.1Z</time>
      </trkpt>
      <trkpt lat="45.74307" lon="4.28231">
        <ele>304</ele>
        <time>2017-04-13T09:04:46.1Z</time>
      </trkpt>
      <trkpt lat="45.74311" lon="4.2823">
        <ele>305</ele>
        <time>2017-04-13T09:04:49.1Z</time>
      </trkpt>
      <trkpt lat="45.74314" lon="4.2823">
        <ele>305</ele>
        <time>2017-04-13T09:04:51.1Z</time>
      </trkpt>
      <trkpt lat="45.74316" lon="4.28229">
        <ele>305</ele>
        <time>2017-04-13T09:04:53.1Z</time>
      </trkpt>
      <trkpt lat="45.74318" lon="4.28229">
        <ele>305</ele>
        <time>2017-04-13T09:04:55.1Z</time>
      </trkpt>
      <trkpt lat="45.74323" lon="4.28228">
        <ele>305</ele>
        <time>2017-04-13T09:04:58.1Z</time>
      </trkpt>
      <trkpt lat="45.74326" lon="4.28227">
        <ele>305</ele>
        <time>2017-04-13T09:05:00.1Z</time>
      </trkpt>
      <trkpt lat="45.74329" lon="4.28226">
        <ele>305</ele>
        <time>2017-04-13T09:05:02.1Z</time>
      </trkpt>
      <trkpt lat="45.74334" lon="4.28224">
        <ele>305</ele>
        <time>2017-04-13T09:05:05.1Z</time>
      </trkpt>
      <trkpt lat="45.74339" lon="4.28223">
        <ele>305</ele>
        <time>2017-04-13T09:05:08.1Z</time>
      </trkpt>
      <trkpt lat="45.74343" lon="4.28221">
        <ele>305</ele>
        <time>2017-04-13T09:05:11.1Z</time>
      </trkpt>
      <trkpt lat="45.74348" lon="4.28219">
        <ele>305</ele>
        <time>2017-04-13T09:05:14.1Z</time>
      </trkpt>
      <trkpt lat="45.74352" lon="4.28218">
        <ele>306</ele>
        <time>2017-04-13T09:05:16.1Z</time>
      </trkpt>
      <trkpt lat="45.74355" lon="4.28216">
        <ele>306</ele>
        <time>2017-04-13T09:05:18.1Z</time>
      </trkpt>
      <trkpt lat="45.74358" lon="4.28214">
        <ele>306</ele>
        <time>2017-04-13T09:05:20.1Z</time>
      </trkpt>
      <trkpt lat="45.74363" lon="4.28212">
        <ele>306</ele>
        <time>2017-04-13T09:05:23.1Z</time>
      </trkpt>
      <trkpt lat="45.74369" lon="4.2821">
        <ele>305</ele>
        <time>2017-04-13T09:05:26.1Z</time>
      </trkpt>
      <trkpt lat="45.74372" lon="4.28209">
        <ele>305</ele>
        <time>2017-04-13T09:05:28.1Z</time>
      </trkpt>
      <trkpt lat="45.74377" lon="4.28207">
        <ele>305</ele>
        <time>2017-04-13T09:05:31.1Z</time>
      </trkpt>
      <trkpt lat="45.74382" lon="4.28205">
        <ele>305</ele>
        <time>2017-04-13T09:05:34.1Z</time>
      </trkpt>
      <trkpt lat="45.74385" lon="4.28204">
        <ele>305</ele>
        <time>2017-04-13T09:05:36.1Z</time>
      </trkpt>
      <trkpt lat="45.74389" lon="4.28201">
        <ele>305</ele>
        <time>2017-04-13T09:05:39.1Z</time>
      </trkpt>
      <trkpt lat="45.74392" lon="4.28199">
        <ele>305</ele>
        <time>2017-04-13T09:05:41.1Z</time>
      </trkpt>
      <trkpt lat="45.74396" lon="4.28196">
        <ele>305</ele>
        <time>2017-04-13T09:05:44.1Z</time>
      </trkpt>
      <trkpt lat="45.74399" lon="4.28193">
        <ele>305</ele>
        <time>2017-04-13T09:05:46.1Z</time>
      </trkpt>
      <trkpt lat="45.74401" lon="4.28189">
        <ele>305</ele>
        <time>2017-04-13T09:05:48.1Z</time>
      </trkpt>
      <trkpt lat="45.74403" lon="4.28186">
        <ele>305</ele>
        <time>2017-04-13T09:05:50.1Z</time>
      </trkpt>
      <trkpt lat="45.74405" lon="4.28181">
        <ele>305</ele>
        <time>2017-04-13T09:05:53.1Z</time>
      </trkpt>
      <trkpt lat="45.74407" lon="4.28177">
        <ele>305</ele>
        <time>2017-04-13T09:05:55.1Z</time>
      </trkpt>
      <trkpt lat="45.7441" lon="4.28171">
        <ele>305</ele>
        <time>2017-04-13T09:05:58.1Z</time>
      </trkpt>
      <trkpt lat="45.74412" lon="4.28168">
        <ele>305</ele>
        <time>2017-04-13T09:06:00.1Z</time>
      </trkpt>
      <trkpt lat="45.74414" lon="4.28164">
        <ele>305</ele>
        <time>2017-04-13T09:06:02.1Z</time>
      </trkpt>
      <trkpt lat="45.74415" lon="4.28161">
        <ele>304</ele>
        <time>2017-04-13T09:06:04.1Z</time>
      </trkpt>
      <trkpt lat="45.74416" lon="4.28157">
        <ele>304</ele>
        <time>2017-04-13T09:06:06.1Z</time>
      </trkpt>
      <trkpt lat="45.74417" lon="4.28154">
        <ele>304</ele>
        <time>2017-04-13T09:06:08.1Z</time>
      </trkpt>
      <trkpt lat="45.74419" lon="4.28148">
        <ele>304</ele>
        <time>2017-04-13T09:06:11.1Z</time>
      </trkpt>
      <trkpt lat="45.74421" lon="4.28144">
        <ele>304</ele>
        <time>2017-04-13T09:06:13.1Z</time>
      </trkpt>
      <trkpt lat="45.74423" lon="4.28141">
        <ele>304</ele>
        <time>2017-04-13T09:06:15.1Z</time>
      </trkpt>
      <trkpt lat="45.74424" lon="4.28137">
        <ele>303</ele>
        <time>2017-04-13T09:06:17.1Z</time>
      </trkpt>
      <trkpt lat="45.74425" lon="4.28133">
        <ele>303</ele>
        <time>2017-04-13T09:06:19.1Z</time>
      </trkpt>
      <trkpt lat="45.74427" lon="4.2813">
        <ele>303</ele>
        <time>2017-04-13T09:06:21.1Z</time>
      </trkpt>
      <trkpt lat="45.74428" lon="4.28126">
        <ele>303</ele>
        <time>2017-04-13T09:06:23.1Z</time>
      </trkpt>
      <trkpt lat="45.7443" lon="4.28121">
        <ele>303</ele>
        <time>2017-04-13T09:06:26.1Z</time>
      </trkpt>
      <trkpt lat="45.74432" lon="4.28118">
        <ele>303</ele>
        <time>2017-04-13T09:06:28.1Z</time>
      </trkpt>
      <trkpt lat="45.74434" lon="4.28115">
        <ele>303</ele>
        <time>2017-04-13T09:06:30.1Z</time>
      </trkpt>
      <trkpt lat="45.74437" lon="4.28112">
        <ele>303</ele>
        <time>2017-04-13T09:06:32.1Z</time>
      </trkpt>
      <trkpt lat="45.74439" lon="4.28109">
        <ele>303</ele>
        <time>2017-04-13T09:06:34.1Z</time>
      </trkpt>
      <trkpt lat="45.74442" lon="4.28107">
        <ele>302</ele>
        <time>2017-04-13T09:06:36.1Z</time>
      </trkpt>
      <trkpt lat="45.74445" lon="4.28103">
        <ele>302</ele>
        <time>2017-04-13T09:06:39.1Z</time>
      </trkpt>
      <trkpt lat="45.74447" lon="4.28101">
        <ele>302</ele>
        <time>2017-04-13T09:06:41.1Z</time>
      </trkpt>
      <trkpt lat="45.74449" lon="4.28098">
        <ele>302</ele>
        <time>2017-04-13T09:06:43.1Z</time>
      </trkpt>
      <trkpt lat="45.74452" lon="4.28096">
        <ele>302</ele>
        <time>2017-04-13T09:06:45.1Z</time>
      </trkpt>
      <trkpt lat="45.74456" lon="4.28093">
        <ele>302</ele>
        <time>2017-04-13T09:06:48.1Z</time>
      </trkpt>
      <trkpt lat="45.74458" lon="4.28091">
        <ele>302</ele>
        <time>2017-04-13T09:06:50.1Z</time>
      </trkpt>
      <trkpt lat="45.74461" lon="4.2809">
        <ele>302</ele>
        <time>2017-04-13T09:06:52.1Z</time>
      </trkpt>
      <trkpt lat="45.74465" lon="4.28087">
        <ele>302</ele>
        <time>2017-04-13T09:06:55.1Z</time>
      </trkpt>
      <trkpt lat="45.74468" lon="4.28086">
        <ele>302</ele>
        <time>2017-04-13T09:06:57.1Z</time>
      </trkpt>
      <trkpt lat="45.74473" lon="4.28083">
        <ele>302</ele>
        <time>2017-04-13T09:07:00.1Z</time>
      </trkpt>
      <trkpt lat="45.74477" lon="4.2808">
        <ele>302</ele>
        <time>2017-04-13T09:07:03.1Z</time>
      </trkpt>
      <trkpt lat="45.7448" lon="4.28078">
        <ele>302</ele>
        <time>2017-04-13T09:07:05.1Z</time>
      </trkpt>
      <trkpt lat="45.74484" lon="4.28075">
        <ele>301</ele>
        <time>2017-04-13T09:07:08.1Z</time>
      </trkpt>
      <trkpt lat="45.74486" lon="4.28073">
        <ele>302</ele>
        <time>2017-04-13T09:07:10.1Z</time>
      </trkpt>
      <trkpt lat="45.74489" lon="4.28071">
        <ele>301</ele>
        <time>2017-04-13T09:07:12.1Z</time>
      </trkpt>
      <trkpt lat="45.74491" lon="4.28069">
        <ele>301</ele>
        <time>2017-04-13T09:07:14.1Z</time>
      </trkpt>
      <trkpt lat="45.74495" lon="4.28065">
        <ele>301</ele>
        <time>2017-04-13T09:07:17.1Z</time>
      </trkpt>
      <trkpt lat="45.74498" lon="4.28063">
        <ele>301</ele>
        <time>2017-04-13T09:07:19.1Z</time>
      </trkpt>
      <trkpt lat="45.74502" lon="4.28059">
        <ele>300</ele>
        <time>2017-04-13T09:07:22.1Z</time>
      </trkpt>
      <trkpt lat="45.74506" lon="4.28054">
        <ele>300</ele>
        <time>2017-04-13T09:07:25.1Z</time>
      </trkpt>
      <trkpt lat="45.74508" lon="4.2805">
        <ele>300</ele>
        <time>2017-04-13T09:07:27.1Z</time>
      </trkpt>
      <trkpt lat="45.7451" lon="4.28046">
        <ele>300</ele>
        <time>2017-04-13T09:07:29.1Z</time>
      </trkpt>
      <trkpt lat="45.74512" lon="4.28043">
        <ele>300</ele>
        <time>2017-04-13T09:07:31.1Z</time>
      </trkpt>
      <trkpt lat="45.74514" lon="4.28038">
        <ele>300</ele>
        <time>2017-04-13T09:07:34.1Z</time>
      </trkpt>
      <trkpt lat="45.74516" lon="4.28032">
        <ele>300</ele>
        <time>2017-04-13T09:07:37.1Z</time>
      </trkpt>
      <trkpt lat="45.74517" lon="4.28029">
        <ele>300</ele>
        <time>2017-04-13T09:07:39.1Z</time>
      </trkpt>
      <trkpt lat="45.74519" lon="4.28025">
        <ele>299</ele>
        <time>2017-04-13T09:07:41.1Z</time>
      </trkpt>
      <trkpt lat="45.7452" lon="4.28021">
        <ele>299</ele>
        <time>2017-04-13T09:07:43.1Z</time>
      </trkpt>
      <trkpt lat="45.74522" lon="4.28017">
        <ele>299</ele>
        <time>2017-04-13T09:07:46.1Z</time>
      </trkpt>
      <trkpt lat="45.74524" lon="4.28014">
        <ele>299</ele>
        <time>2017-04-13T09:07:48.1Z</time>
      </trkpt>
      <trkpt lat="45.74525" lon="4.28011">
        <ele>299</ele>
        <time>2017-04-13T09:07:50.1Z</time>
      </trkpt>
      <trkpt lat="45.74527" lon="4.28009">
        <ele>299</ele>
        <time>2017-04-13T09:07:52.1Z</time>
      </trkpt>
      <trkpt lat="45.7453" lon="4.28006">
        <ele>299</ele>
        <time>2017-04-13T09:07:54.1Z</time>
      </trkpt>
      <trkpt lat="45.74534" lon="4.28003">
        <ele>299</ele>
        <time>2017-04-13T09:07:57.1Z</time>
      </trkpt>
      <trkpt lat="45.74537" lon="4.28002">
        <ele>298</ele>
        <time>2017-04-13T09:07:59.1Z</time>
      </trkpt>
      <trkpt lat="45.74539" lon="4.28">
        <ele>298</ele>
        <time>2017-04-13T09:08:01.1Z</time>
      </trkpt>
      <trkpt lat="45.74543" lon="4.27997">
        <ele>298</ele>
        <time>2017-04-13T09:08:04.1Z</time>
      </trkpt>
      <trkpt lat="45.74548" lon="4.27994">
        <ele>298</ele>
        <time>2017-04-13T09:08:07.1Z</time>
      </trkpt>
      <trkpt lat="45.74552" lon="4.27991">
        <ele>298</ele>
        <time>2017-04-13T09:08:10.1Z</time>
      </trkpt>
      <trkpt lat="45.74555" lon="4.27989">
        <ele>298</ele>
        <time>2017-04-13T09:08:12.1Z</time>
      </trkpt>
      <trkpt lat="45.74559" lon="4.27987">
        <ele>298</ele>
        <time>2017-04-13T09:08:15.1Z</time>
      </trkpt>
      <trkpt lat="45.74562" lon="4.27986">
        <ele>298</ele>
        <time>2017-04-13T09:08:17.1Z</time>
      </trkpt>
      <trkpt lat="45.74565" lon="4.27985">
        <ele>298</ele>
        <time>2017-04-13T09:08:19.1Z</time>
      </trkpt>
      <trkpt lat="45.74567" lon="4.27984">
        <ele>298</ele>
        <time>2017-04-13T09:08:21.1Z</time>
      </trkpt>
      <trkpt lat="45.7457" lon="4.27984">
        <ele>297</ele>
        <time>2017-04-13T09:08:24.1Z</time>
      </trkpt>
      <trkpt lat="45.74573" lon="4.27985">
        <ele>297</ele>
        <time>2017-04-13T09:08:26.1Z</time>
      </trkpt>
      <trkpt lat="45.74579" lon="4.27987">
        <ele>297</ele>
        <time>2017-04-13T09:08:29.1Z</time>
      </trkpt>
      <trkpt lat="45.74583" lon="4.27989">
        <ele>296</ele>
        <time>2017-04-13T09:08:32.1Z</time>
      </trkpt>
      <trkpt lat="45.74587" lon="4.2799">
        <ele>296</ele>
        <time>2017-04-13T09:08:34.1Z</time>
      </trkpt>
      <trkpt lat="45.7459" lon="4.27991">
        <ele>295</ele>
        <time>2017-04-13T09:08:36.1Z</time>
      </trkpt>
      <trkpt lat="45.74592" lon="4.27993">
        <ele>295</ele>
        <time>2017-04-13T09:08:38.1Z</time>
      </trkpt>
      <trkpt lat="45.74595" lon="4.27994">
        <ele>295</ele>
        <time>2017-04-13T09:08:40.1Z</time>
      </trkpt>
      <trkpt lat="45.74599" lon="4.27996">
        <ele>295</ele>
        <time>2017-04-13T09:08:43.1Z</time>
      </trkpt>
      <trkpt lat="45.74602" lon="4.27997">
        <ele>295</ele>
        <time>2017-04-13T09:08:45.1Z</time>
      </trkpt>
      <trkpt lat="45.74606" lon="4.27998">
        <ele>294</ele>
        <time>2017-04-13T09:08:48.1Z</time>
      </trkpt>
      <trkpt lat="45.74609" lon="4.27998">
        <ele>294</ele>
        <time>2017-04-13T09:08:50.1Z</time>
      </trkpt>
      <trkpt lat="45.74612" lon="4.27998">
        <ele>294</ele>
        <time>2017-04-13T09:08:52.1Z</time>
      </trkpt>
      <trkpt lat="45.74615" lon="4.27997">
        <ele>294</ele>
        <time>2017-04-13T09:08:54.1Z</time>
      </trkpt>
      <trkpt lat="45.74619" lon="4.27996">
        <ele>293</ele>
        <time>2017-04-13T09:08:57.1Z</time>
      </trkpt>
      <trkpt lat="45.74622" lon="4.27996">
        <ele>293</ele>
        <time>2017-04-13T09:08:59.1Z</time>
      </trkpt>
      <trkpt lat="45.74625" lon="4.27995">
        <ele>293</ele>
        <time>2017-04-13T09:09:02.1Z</time>
      </trkpt>
      <trkpt lat="45.74628" lon="4.27994">
        <ele>293</ele>
        <time>2017-04-13T09:09:04.1Z</time>
      </trkpt>
      <trkpt lat="45.74631" lon="4.27993">
        <ele>293</ele>
        <time>2017-04-13T09:09:06.1Z</time>
      </trkpt>
      <trkpt lat="45.74635" lon="4.27992">
        <ele>293</ele>
        <time>2017-04-13T09:09:08.1Z</time>
      </trkpt>
      <trkpt lat="45.74638" lon="4.27992">
        <ele>292</ele>
        <time>2017-04-13T09:09:10.1Z</time>
      </trkpt>
      <trkpt lat="45.74641" lon="4.27993">
        <ele>292</ele>
        <time>2017-04-13T09:09:13.1Z</time>
      </trkpt>
      <trkpt lat="45.74643" lon="4.27993">
        <ele>292</ele>
        <time>2017-04-13T09:09:15.1Z</time>
      </trkpt>
      <trkpt lat="45.74644" lon="4.27993">
        <ele>292</ele>
        <time>2017-04-13T09:09:17.1Z</time>
      </trkpt>
      <trkpt lat="45.74644" lon="4.27993">
        <ele>293</ele>
        <time>2017-04-13T09:09:19.1Z</time>
      </trkpt>
      <trkpt lat="45.74645" lon="4.27994">
        <ele>293</ele>
        <time>2017-04-13T09:09:22.1Z</time>
      </trkpt>
      <trkpt lat="45.74645" lon="4.27994">
        <ele>293</ele>
        <time>2017-04-13T09:09:26.1Z</time>
      </trkpt>
      <trkpt lat="45.74644" lon="4.27994">
        <ele>293</ele>
        <time>2017-04-13T09:09:28.1Z</time>
      </trkpt>
      <trkpt lat="45.74643" lon="4.27995">
        <ele>293</ele>
        <time>2017-04-13T09:09:31.1Z</time>
      </trkpt>
      <trkpt lat="45.74644" lon="4.27996">
        <ele>292</ele>
        <time>2017-04-13T09:09:36.1Z</time>
      </trkpt>
      <trkpt lat="45.74644" lon="4.27995">
        <ele>292</ele>
        <time>2017-04-13T09:09:42.1Z</time>
      </trkpt>
      <trkpt lat="45.74644" lon="4.27995">
        <ele>292</ele>
        <time>2017-04-13T09:09:44.1Z</time>
      </trkpt>
      <trkpt lat="45.74644" lon="4.27995">
        <ele>292</ele>
        <time>2017-04-13T09:09:47.1Z</time>
      </trkpt>
      <trkpt lat="45.74644" lon="4.27995">
        <ele>292</ele>
        <time>2017-04-13T09:09:50.1Z</time>
      </trkpt>
      <trkpt lat="45.74644" lon="4.27995">
        <ele>292</ele>
        <time>2017-04-13T09:09:54.1Z</time>
      </trkpt>
      <trkpt lat="45.74644" lon="4.27994">
        <ele>292</ele>
        <time>2017-04-13T09:09:58.1Z</time>
      </trkpt>
      <trkpt lat="45.74645" lon="4.27994">
        <ele>292</ele>
        <time>2017-04-13T09:10:02.1Z</time>
      </trkpt>
      <trkpt lat="45.74644" lon="4.27994">
        <ele>292</ele>
        <time>2017-04-13T09:10:04.1Z</time>
      </trkpt>
      <trkpt lat="45.74644" lon="4.27994">
        <ele>293</ele>
        <time>2017-04-13T09:10:06.1Z</time>
      </trkpt>
      <trkpt lat="45.74644" lon="4.27995">
        <ele>293</ele>
        <time>2017-04-13T09:10:10.1Z</time>
      </trkpt>
      <trkpt lat="45.74644" lon="4.27995">
        <ele>293</ele>
        <time>2017-04-13T09:10:12.1Z</time>
      </trkpt>
      <trkpt lat="45.74643" lon="4.27995">
        <ele>292</ele>
        <time>2017-04-13T09:10:14.1Z</time>
      </trkpt>
      <trkpt lat="45.74643" lon="4.27995">
        <ele>292</ele>
        <time>2017-04-13T09:10:16.1Z</time>
      </trkpt>
      <trkpt lat="45.74643" lon="4.27995">
        <ele>292</ele>
        <time>2017-04-13T09:10:18.1Z</time>
      </trkpt>
      <trkpt lat="45.74643" lon="4.27996">
        <ele>292</ele>
        <time>2017-04-13T09:10:21.1Z</time>
      </trkpt>
      <trkpt lat="45.74642" lon="4.27997">
        <ele>292</ele>
        <time>2017-04-13T09:10:23.1Z</time>
      </trkpt>
      <trkpt lat="45.74642" lon="4.27997">
        <ele>292</ele>
        <time>2017-04-13T09:10:25.1Z</time>
      </trkpt>
      <trkpt lat="45.74642" lon="4.27997">
        <ele>292</ele>
        <time>2017-04-13T09:10:27.1Z</time>
      </trkpt>
      <trkpt lat="45.74642" lon="4.27998">
        <ele>292</ele>
        <time>2017-04-13T09:10:30.1Z</time>
      </trkpt>
      <trkpt lat="45.74642" lon="4.27998">
        <ele>292</ele>
        <time>2017-04-13T09:10:34.1Z</time>
      </trkpt>
      <trkpt lat="45.74642" lon="4.27998">
        <ele>292</ele>
        <time>2017-04-13T09:10:37.1Z</time>
      </trkpt>
      <trkpt lat="45.74642" lon="4.27998">
        <ele>292</ele>
        <time>2017-04-13T09:10:40.1Z</time>
      </trkpt>
      <trkpt lat="45.74642" lon="4.27998">
        <ele>292</ele>
        <time>2017-04-13T09:10:42.1Z</time>
      </trkpt>
      <trkpt lat="45.74642" lon="4.27999">
        <ele>292</ele>
        <time>2017-04-13T09:10:47.1Z</time>
      </trkpt>
      <trkpt lat="45.74641" lon="4.27999">
        <ele>292</ele>
        <time>2017-04-13T09:10:50.1Z</time>
      </trkpt>
      <trkpt lat="45.74641" lon="4.28">
        <ele>292</ele>
        <time>2017-04-13T09:10:52.1Z</time>
      </trkpt>
      <trkpt lat="45.74641" lon="4.28">
        <ele>292</ele>
        <time>2017-04-13T09:10:54.1Z</time>
      </trkpt>
      <trkpt lat="45.7464" lon="4.28">
        <ele>292</ele>
        <time>2017-04-13T09:10:57.1Z</time>
      </trkpt>
      <trkpt lat="45.74639" lon="4.28">
        <ele>292</ele>
        <time>2017-04-13T09:11:01.1Z</time>
      </trkpt>
      <trkpt lat="45.7464" lon="4.28">
        <ele>292</ele>
        <time>2017-04-13T09:11:04.1Z</time>
      </trkpt>
      <trkpt lat="45.7464" lon="4.28">
        <ele>292</ele>
        <time>2017-04-13T09:11:06.1Z</time>
      </trkpt>
      <trkpt lat="45.7464" lon="4.27999">
        <ele>292</ele>
        <time>2017-04-13T09:11:08.1Z</time>
      </trkpt>
      <trkpt lat="45.74641" lon="4.27999">
        <ele>292</ele>
        <time>2017-04-13T09:11:13.1Z</time>
      </trkpt>
      <trkpt lat="45.74641" lon="4.27999">
        <ele>292</ele>
        <time>2017-04-13T09:11:15.1Z</time>
      </trkpt>
      <trkpt lat="45.74641" lon="4.28">
        <ele>292</ele>
        <time>2017-04-13T09:11:18.1Z</time>
      </trkpt>
      <trkpt lat="45.74641" lon="4.28001">
        <ele>292</ele>
        <time>2017-04-13T09:11:20.1Z</time>
      </trkpt>
      <trkpt lat="45.74639" lon="4.28002">
        <ele>292</ele>
        <time>2017-04-13T09:11:23.1Z</time>
      </trkpt>
      <trkpt lat="45.74639" lon="4.28004">
        <ele>292</ele>
        <time>2017-04-13T09:11:26.1Z</time>
      </trkpt>
      <trkpt lat="45.74639" lon="4.28005">
        <ele>292</ele>
        <time>2017-04-13T09:11:28.1Z</time>
      </trkpt>
      <trkpt lat="45.74639" lon="4.28006">
        <ele>292</ele>
        <time>2017-04-13T09:11:30.1Z</time>
      </trkpt>
      <trkpt lat="45.74639" lon="4.28007">
        <ele>292</ele>
        <time>2017-04-13T09:11:33.1Z</time>
      </trkpt>
      <trkpt lat="45.74638" lon="4.28008">
        <ele>292</ele>
        <time>2017-04-13T09:11:35.1Z</time>
      </trkpt>
      <trkpt lat="45.74638" lon="4.28009">
        <ele>292</ele>
        <time>2017-04-13T09:11:37.1Z</time>
      </trkpt>
      <trkpt lat="45.74638" lon="4.2801">
        <ele>292</ele>
        <time>2017-04-13T09:11:40.1Z</time>
      </trkpt>
      <trkpt lat="45.74638" lon="4.2801">
        <ele>292</ele>
        <time>2017-04-13T09:11:42.1Z</time>
      </trkpt>
      <trkpt lat="45.74638" lon="4.2801">
        <ele>292</ele>
        <time>2017-04-13T09:11:46.1Z</time>
      </trkpt>
      <trkpt lat="45.74638" lon="4.2801">
        <ele>292</ele>
        <time>2017-04-13T09:11:48.1Z</time>
      </trkpt>
      <trkpt lat="45.74639" lon="4.28009">
        <ele>292</ele>
        <time>2017-04-13T09:11:51.1Z</time>
      </trkpt>
      <trkpt lat="45.74639" lon="4.28008">
        <ele>292</ele>
        <time>2017-04-13T09:11:54.1Z</time>
      </trkpt>
      <trkpt lat="45.74639" lon="4.28008">
        <ele>292</ele>
        <time>2017-04-13T09:11:57.1Z</time>
      </trkpt>
      <trkpt lat="45.74639" lon="4.28007">
        <ele>292</ele>
        <time>2017-04-13T09:11:59.1Z</time>
      </trkpt>
      <trkpt lat="45.74639" lon="4.28007">
        <ele>292</ele>
        <time>2017-04-13T09:12:02.1Z</time>
      </trkpt>
      <trkpt lat="45.74639" lon="4.28007">
        <ele>292</ele>
        <time>2017-04-13T09:12:04.1Z</time>
      </trkpt>
      <trkpt lat="45.74639" lon="4.28007">
        <ele>292</ele>
        <time>2017-04-13T09:12:06.1Z</time>
      </trkpt>
      <trkpt lat="45.74639" lon="4.28007">
        <ele>292</ele>
        <time>2017-04-13T09:12:09.1Z</time>
      </trkpt>
      <trkpt lat="45.7464" lon="4.28007">
        <ele>292</ele>
        <time>2017-04-13T09:12:12.1Z</time>
      </trkpt>
      <trkpt lat="45.7464" lon="4.28006">
        <ele>292</ele>
        <time>2017-04-13T09:12:14.1Z</time>
      </trkpt>
      <trkpt lat="45.74641" lon="4.28006">
        <ele>292</ele>
        <time>2017-04-13T09:12:17.1Z</time>
      </trkpt>
      <trkpt lat="45.74641" lon="4.28006">
        <ele>292</ele>
        <time>2017-04-13T09:12:20.1Z</time>
      </trkpt>
      <trkpt lat="45.74642" lon="4.28005">
        <ele>292</ele>
        <time>2017-04-13T09:12:22.1Z</time>
      </trkpt>
      <trkpt lat="45.74642" lon="4.28005">
        <ele>292</ele>
        <time>2017-04-13T09:12:25.1Z</time>
      </trkpt>
      <trkpt lat="45.74643" lon="4.28005">
        <ele>292</ele>
        <time>2017-04-13T09:12:27.1Z</time>
      </trkpt>
      <trkpt lat="45.74643" lon="4.28005">
        <ele>292</ele>
        <time>2017-04-13T09:12:29.1Z</time>
      </trkpt>
      <trkpt lat="45.74643" lon="4.28005">
        <ele>292</ele>
        <time>2017-04-13T09:12:35.1Z</time>
      </trkpt>
      <trkpt lat="45.74643" lon="4.28005">
        <ele>292</ele>
        <time>2017-04-13T09:12:37.1Z</time>
      </trkpt>
      <trkpt lat="45.74642" lon="4.28005">
        <ele>292</ele>
        <time>2017-04-13T09:12:39.1Z</time>
      </trkpt>
      <trkpt lat="45.74643" lon="4.28006">
        <ele>292</ele>
        <time>2017-04-13T09:12:42.1Z</time>
      </trkpt>
      <trkpt lat="45.74643" lon="4.28006">
        <ele>292</ele>
        <time>2017-04-13T09:12:44.1Z</time>
      </trkpt>
      <trkpt lat="45.74643" lon="4.28006">
        <ele>292</ele>
        <time>2017-04-13T09:12:47.1Z</time>
      </trkpt>
      <trkpt lat="45.74643" lon="4.28007">
        <ele>292</ele>
        <time>2017-04-13T09:12:49.1Z</time>
      </trkpt>
      <trkpt lat="45.74642" lon="4.28006">
        <ele>292</ele>
        <time>2017-04-13T09:12:52.1Z</time>
      </trkpt>
      <trkpt lat="45.74642" lon="4.28006">
        <ele>292</ele>
        <time>2017-04-13T09:12:54.1Z</time>
      </trkpt>
      <trkpt lat="45.74642" lon="4.28006">
        <ele>292</ele>
        <time>2017-04-13T09:12:57.1Z</time>
      </trkpt>
      <trkpt lat="45.74643" lon="4.28006">
        <ele>292</ele>
        <time>2017-04-13T09:12:59.1Z</time>
      </trkpt>
      <trkpt lat="45.74643" lon="4.28006">
        <ele>292</ele>
        <time>2017-04-13T09:13:01.1Z</time>
      </trkpt>
      <trkpt lat="45.74643" lon="4.28005">
        <ele>293</ele>
        <time>2017-04-13T09:13:04.1Z</time>
      </trkpt>
      <trkpt lat="45.74644" lon="4.28005">
        <ele>292</ele>
        <time>2017-04-13T09:13:06.1Z</time>
      </trkpt>
      <trkpt lat="45.74644" lon="4.28005">
        <ele>292</ele>
        <time>2017-04-13T09:13:10.1Z</time>
      </trkpt>
      <trkpt lat="45.74645" lon="4.28004">
        <ele>292</ele>
        <time>2017-04-13T09:13:12.1Z</time>
      </trkpt>
      <trkpt lat="45.74647" lon="4.28002">
        <ele>293</ele>
        <time>2017-04-13T09:13:15.1Z</time>
      </trkpt>
      <trkpt lat="45.74647" lon="4.28002">
        <ele>293</ele>
        <time>2017-04-13T09:13:17.1Z</time>
      </trkpt>
      <trkpt lat="45.74648" lon="4.28001">
        <ele>293</ele>
        <time>2017-04-13T09:13:20.1Z</time>
      </trkpt>
      <trkpt lat="45.74648" lon="4.28001">
        <ele>292</ele>
        <time>2017-04-13T09:13:22.1Z</time>
      </trkpt>
      <trkpt lat="45.74648" lon="4.28001">
        <ele>292</ele>
        <time>2017-04-13T09:13:24.1Z</time>
      </trkpt>
      <trkpt lat="45.74648" lon="4.28001">
        <ele>292</ele>
        <time>2017-04-13T09:13:27.1Z</time>
      </trkpt>
      <trkpt lat="45.74648" lon="4.28001">
        <ele>292</ele>
        <time>2017-04-13T09:13:30.1Z</time>
      </trkpt>
      <trkpt lat="45.74649" lon="4.28001">
        <ele>292</ele>
        <time>2017-04-13T09:13:32.1Z</time>
      </trkpt>
      <trkpt lat="45.74649" lon="4.28">
        <ele>292</ele>
        <time>2017-04-13T09:13:34.1Z</time>
      </trkpt>
      <trkpt lat="45.74649" lon="4.28">
        <ele>292</ele>
        <time>2017-04-13T09:13:37.1Z</time>
      </trkpt>
      <trkpt lat="45.7465" lon="4.27999">
        <ele>292</ele>
        <time>2017-04-13T09:13:39.1Z</time>
      </trkpt>
      <trkpt lat="45.7465" lon="4.27998">
        <ele>292</ele>
        <time>2017-04-13T09:13:42.1Z</time>
      </trkpt>
      <trkpt lat="45.7465" lon="4.27998">
        <ele>292</ele>
        <time>2017-04-13T09:13:44.1Z</time>
      </trkpt>
      <trkpt lat="45.7465" lon="4.27998">
        <ele>292</ele>
        <time>2017-04-13T09:13:47.1Z</time>
      </trkpt>
      <trkpt lat="45.7465" lon="4.27998">
        <ele>292</ele>
        <time>2017-04-13T09:13:50.1Z</time>
      </trkpt>
      <trkpt lat="45.7465" lon="4.27997">
        <ele>292</ele>
        <time>2017-04-13T09:13:53.1Z</time>
      </trkpt>
      <trkpt lat="45.74651" lon="4.27997">
        <ele>292</ele>
        <time>2017-04-13T09:13:55.1Z</time>
      </trkpt>
      <trkpt lat="45.74651" lon="4.27997">
        <ele>292</ele>
        <time>2017-04-13T09:13:58.1Z</time>
      </trkpt>
      <trkpt lat="45.74651" lon="4.27997">
        <ele>292</ele>
        <time>2017-04-13T09:14:00.1Z</time>
      </trkpt>
      <trkpt lat="45.74652" lon="4.27997">
        <ele>292</ele>
        <time>2017-04-13T09:14:02.1Z</time>
      </trkpt>
      <trkpt lat="45.74652" lon="4.27997">
        <ele>292</ele>
        <time>2017-04-13T09:14:06.1Z</time>
      </trkpt>
      <trkpt lat="45.74652" lon="4.27997">
        <ele>292</ele>
        <time>2017-04-13T09:14:09.1Z</time>
      </trkpt>
      <trkpt lat="45.74652" lon="4.27998">
        <ele>292</ele>
        <time>2017-04-13T09:14:11.1Z</time>
      </trkpt>
      <trkpt lat="45.74652" lon="4.27998">
        <ele>292</ele>
        <time>2017-04-13T09:14:13.1Z</time>
      </trkpt>
      <trkpt lat="45.74652" lon="4.27999">
        <ele>292</ele>
        <time>2017-04-13T09:14:17.1Z</time>
      </trkpt>
      <trkpt lat="45.74653" lon="4.27999">
        <ele>292</ele>
        <time>2017-04-13T09:14:19.1Z</time>
      </trkpt>
      <trkpt lat="45.74652" lon="4.27999">
        <ele>292</ele>
        <time>2017-04-13T09:14:21.1Z</time>
      </trkpt>
      <trkpt lat="45.74651" lon="4.28">
        <ele>292</ele>
        <time>2017-04-13T09:14:23.1Z</time>
      </trkpt>
      <trkpt lat="45.74651" lon="4.28">
        <ele>292</ele>
        <time>2017-04-13T09:14:25.1Z</time>
      </trkpt>
      <trkpt lat="45.7465" lon="4.28001">
        <ele>292</ele>
        <time>2017-04-13T09:14:27.1Z</time>
      </trkpt>
      <trkpt lat="45.7465" lon="4.28001">
        <ele>292</ele>
        <time>2017-04-13T09:14:29.1Z</time>
      </trkpt>
      <trkpt lat="45.74649" lon="4.28001">
        <ele>292</ele>
        <time>2017-04-13T09:14:31.1Z</time>
      </trkpt>
      <trkpt lat="45.74648" lon="4.28002">
        <ele>293</ele>
        <time>2017-04-13T09:14:34.1Z</time>
      </trkpt>
      <trkpt lat="45.74647" lon="4.28002">
        <ele>292</ele>
        <time>2017-04-13T09:14:36.1Z</time>
      </trkpt>
      <trkpt lat="45.74646" lon="4.28002">
        <ele>292</ele>
        <time>2017-04-13T09:14:38.1Z</time>
      </trkpt>
      <trkpt lat="45.74646" lon="4.28003">
        <ele>292</ele>
        <time>2017-04-13T09:14:40.1Z</time>
      </trkpt>
      <trkpt lat="45.74645" lon="4.28003">
        <ele>292</ele>
        <time>2017-04-13T09:14:42.1Z</time>
      </trkpt>
      <trkpt lat="45.74645" lon="4.28003">
        <ele>292</ele>
        <time>2017-04-13T09:14:45.1Z</time>
      </trkpt>
      <trkpt lat="45.74645" lon="4.28002">
        <ele>292</ele>
        <time>2017-04-13T09:14:49.1Z</time>
      </trkpt>
      <trkpt lat="45.74646" lon="4.28002">
        <ele>292</ele>
        <time>2017-04-13T09:14:51.1Z</time>
      </trkpt>
      <trkpt lat="45.74646" lon="4.28002">
        <ele>292</ele>
        <time>2017-04-13T09:14:54.1Z</time>
      </trkpt>
      <trkpt lat="45.74646" lon="4.28002">
        <ele>292</ele>
        <time>2017-04-13T09:14:56.1Z</time>
      </trkpt>
      <trkpt lat="45.74647" lon="4.28001">
        <ele>292</ele>
        <time>2017-04-13T09:14:58.1Z</time>
      </trkpt>
      <trkpt lat="45.74648" lon="4.28001">
        <ele>292</ele>
        <time>2017-04-13T09:15:01.1Z</time>
      </trkpt>
      <trkpt lat="45.74649" lon="4.28001">
        <ele>292</ele>
        <time>2017-04-13T09:15:04.1Z</time>
      </trkpt>
      <trkpt lat="45.7465" lon="4.28001">
        <ele>292</ele>
        <time>2017-04-13T09:15:06.1Z</time>
      </trkpt>
      <trkpt lat="45.74651" lon="4.28001">
        <ele>292</ele>
        <time>2017-04-13T09:15:09.1Z</time>
      </trkpt>
      <trkpt lat="45.74651" lon="4.28001">
        <ele>292</ele>
        <time>2017-04-13T09:15:12.1Z</time>
      </trkpt>
      <trkpt lat="45.74651" lon="4.28003">
        <ele>293</ele>
        <time>2017-04-13T09:15:15.1Z</time>
      </trkpt>
      <trkpt lat="45.74651" lon="4.28003">
        <ele>293</ele>
        <time>2017-04-13T09:15:17.1Z</time>
      </trkpt>
      <trkpt lat="45.74651" lon="4.28005">
        <ele>292</ele>
        <time>2017-04-13T09:15:20.1Z</time>
      </trkpt>
      <trkpt lat="45.74651" lon="4.28005">
        <ele>292</ele>
        <time>2017-04-13T09:15:22.1Z</time>
      </trkpt>
      <trkpt lat="45.7465" lon="4.28006">
        <ele>293</ele>
        <time>2017-04-13T09:15:25.1Z</time>
      </trkpt>
      <trkpt lat="45.74649" lon="4.28007">
        <ele>293</ele>
        <time>2017-04-13T09:15:28.1Z</time>
      </trkpt>
      <trkpt lat="45.74649" lon="4.28008">
        <ele>292</ele>
        <time>2017-04-13T09:15:30.1Z</time>
      </trkpt>
      <trkpt lat="45.74649" lon="4.28008">
        <ele>292</ele>
        <time>2017-04-13T09:15:32.1Z</time>
      </trkpt>
      <trkpt lat="45.74649" lon="4.28008">
        <ele>292</ele>
        <time>2017-04-13T09:15:35.1Z</time>
      </trkpt>
      <trkpt lat="45.74649" lon="4.28009">
        <ele>292</ele>
        <time>2017-04-13T09:15:38.1Z</time>
      </trkpt>
      <trkpt lat="45.74648" lon="4.28009">
        <ele>292</ele>
        <time>2017-04-13T09:15:41.1Z</time>
      </trkpt>
      <trkpt lat="45.74648" lon="4.28009">
        <ele>292</ele>
        <time>2017-04-13T09:15:45.1Z</time>
      </trkpt>
      <trkpt lat="45.74649" lon="4.28008">
        <ele>292</ele>
        <time>2017-04-13T09:15:47.1Z</time>
      </trkpt>
      <trkpt lat="45.74651" lon="4.28006">
        <ele>292</ele>
        <time>2017-04-13T09:15:50.1Z</time>
      </trkpt>
      <trkpt lat="45.74653" lon="4.28006">
        <ele>292</ele>
        <time>2017-04-13T09:15:52.1Z</time>
      </trkpt>
      <trkpt lat="45.74655" lon="4.28005">
        <ele>292</ele>
        <time>2017-04-13T09:15:54.1Z</time>
      </trkpt>
      <trkpt lat="45.74658" lon="4.28005">
        <ele>292</ele>
        <time>2017-04-13T09:15:57.1Z</time>
      </trkpt>
      <trkpt lat="45.74663" lon="4.28008">
        <ele>292</ele>
        <time>2017-04-13T09:16:00.1Z</time>
      </trkpt>
      <trkpt lat="45.74665" lon="4.28008">
        <ele>292</ele>
        <time>2017-04-13T09:16:02.1Z</time>
      </trkpt>
      <trkpt lat="45.74668" lon="4.2801">
        <ele>292</ele>
        <time>2017-04-13T09:16:04.1Z</time>
      </trkpt>
      <trkpt lat="45.74669" lon="4.28013">
        <ele>292</ele>
        <time>2017-04-13T09:16:07.1Z</time>
      </trkpt>
      <trkpt lat="45.7467" lon="4.28014">
        <ele>292</ele>
        <time>2017-04-13T09:16:09.1Z</time>
      </trkpt>
      <trkpt lat="45.74671" lon="4.28018">
        <ele>292</ele>
        <time>2017-04-13T09:16:12.1Z</time>
      </trkpt>
      <trkpt lat="45.74672" lon="4.2802">
        <ele>292</ele>
        <time>2017-04-13T09:16:14.1Z</time>
      </trkpt>
      <trkpt lat="45.74673" lon="4.28023">
        <ele>292</ele>
        <time>2017-04-13T09:16:16.1Z</time>
      </trkpt>
      <trkpt lat="45.74675" lon="4.28027">
        <ele>292</ele>
        <time>2017-04-13T09:16:19.1Z</time>
      </trkpt>
      <trkpt lat="45.74676" lon="4.28029">
        <ele>293</ele>
        <time>2017-04-13T09:16:21.1Z</time>
      </trkpt>
      <trkpt lat="45.74678" lon="4.28032">
        <ele>292</ele>
        <time>2017-04-13T09:16:23.1Z</time>
      </trkpt>
      <trkpt lat="45.7468" lon="4.28036">
        <ele>292</ele>
        <time>2017-04-13T09:16:26.1Z</time>
      </trkpt>
      <trkpt lat="45.74681" lon="4.28041">
        <ele>292</ele>
        <time>2017-04-13T09:16:29.1Z</time>
      </trkpt>
      <trkpt lat="45.74682" lon="4.28044">
        <ele>292</ele>
        <time>2017-04-13T09:16:31.1Z</time>
      </trkpt>
      <trkpt lat="45.74683" lon="4.28048">
        <ele>292</ele>
        <time>2017-04-13T09:16:34.1Z</time>
      </trkpt>
      <trkpt lat="45.74683" lon="4.28051">
        <ele>292</ele>
        <time>2017-04-13T09:16:36.1Z</time>
      </trkpt>
      <trkpt lat="45.74684" lon="4.28055">
        <ele>292</ele>
        <time>2017-04-13T09:16:39.1Z</time>
      </trkpt>
      <trkpt lat="45.74686" lon="4.28059">
        <ele>292</ele>
        <time>2017-04-13T09:16:42.1Z</time>
      </trkpt>
      <trkpt lat="45.74688" lon="4.28063">
        <ele>292</ele>
        <time>2017-04-13T09:16:45.1Z</time>
      </trkpt>
      <trkpt lat="45.74689" lon="4.28068">
        <ele>293</ele>
        <time>2017-04-13T09:16:48.1Z</time>
      </trkpt>
      <trkpt lat="45.74689" lon="4.28071">
        <ele>293</ele>
        <time>2017-04-13T09:16:50.1Z</time>
      </trkpt>
      <trkpt lat="45.74692" lon="4.28075">
        <ele>293</ele>
        <time>2017-04-13T09:16:53.1Z</time>
      </trkpt>
      <trkpt lat="45.74693" lon="4.28078">
        <ele>293</ele>
        <time>2017-04-13T09:16:55.1Z</time>
      </trkpt>
      <trkpt lat="45.74696" lon="4.28082">
        <ele>293</ele>
        <time>2017-04-13T09:16:58.1Z</time>
      </trkpt>
      <trkpt lat="45.74697" lon="4.28084">
        <ele>293</ele>
        <time>2017-04-13T09:17:00.1Z</time>
      </trkpt>
      <trkpt lat="45.74698" lon="4.28087">
        <ele>293</ele>
        <time>2017-04-13T09:17:02.1Z</time>
      </trkpt>
      <trkpt lat="45.747" lon="4.2809">
        <ele>293</ele>
        <time>2017-04-13T09:17:05.1Z</time>
      </trkpt>
      <trkpt lat="45.74703" lon="4.28093">
        <ele>293</ele>
        <time>2017-04-13T09:17:08.1Z</time>
      </trkpt>
      <trkpt lat="45.74705" lon="4.28097">
        <ele>293</ele>
        <time>2017-04-13T09:17:11.1Z</time>
      </trkpt>
      <trkpt lat="45.74707" lon="4.281">
        <ele>293</ele>
        <time>2017-04-13T09:17:13.1Z</time>
      </trkpt>
      <trkpt lat="45.7471" lon="4.28105">
        <ele>293</ele>
        <time>2017-04-13T09:17:16.1Z</time>
      </trkpt>
      <trkpt lat="45.74712" lon="4.28107">
        <ele>293</ele>
        <time>2017-04-13T09:17:18.1Z</time>
      </trkpt>
      <trkpt lat="45.74713" lon="4.28109">
        <ele>293</ele>
        <time>2017-04-13T09:17:20.1Z</time>
      </trkpt>
      <trkpt lat="45.74715" lon="4.28113">
        <ele>293</ele>
        <time>2017-04-13T09:17:23.1Z</time>
      </trkpt>
      <trkpt lat="45.74717" lon="4.28116">
        <ele>294</ele>
        <time>2017-04-13T09:17:25.1Z</time>
      </trkpt>
      <trkpt lat="45.7472" lon="4.28118">
        <ele>293</ele>
        <time>2017-04-13T09:17:27.1Z</time>
      </trkpt>
      <trkpt lat="45.74722" lon="4.28121">
        <ele>293</ele>
        <time>2017-04-13T09:17:29.1Z</time>
      </trkpt>
      <trkpt lat="45.74724" lon="4.28125">
        <ele>293</ele>
        <time>2017-04-13T09:17:32.1Z</time>
      </trkpt>
      <trkpt lat="45.74725" lon="4.28128">
        <ele>293</ele>
        <time>2017-04-13T09:17:34.1Z</time>
      </trkpt>
      <trkpt lat="45.74728" lon="4.28133">
        <ele>293</ele>
        <time>2017-04-13T09:17:37.1Z</time>
      </trkpt>
      <trkpt lat="45.74729" lon="4.28137">
        <ele>293</ele>
        <time>2017-04-13T09:17:39.1Z</time>
      </trkpt>
      <trkpt lat="45.7473" lon="4.2814">
        <ele>294</ele>
        <time>2017-04-13T09:17:41.1Z</time>
      </trkpt>
      <trkpt lat="45.74733" lon="4.28145">
        <ele>294</ele>
        <time>2017-04-13T09:17:44.1Z</time>
      </trkpt>
      <trkpt lat="45.74734" lon="4.28148">
        <ele>294</ele>
        <time>2017-04-13T09:17:46.1Z</time>
      </trkpt>
      <trkpt lat="45.74735" lon="4.28154">
        <ele>294</ele>
        <time>2017-04-13T09:17:49.1Z</time>
      </trkpt>
      <trkpt lat="45.74737" lon="4.28157">
        <ele>294</ele>
        <time>2017-04-13T09:17:52.1Z</time>
      </trkpt>
      <trkpt lat="45.74738" lon="4.28161">
        <ele>294</ele>
        <time>2017-04-13T09:17:55.1Z</time>
      </trkpt>
      <trkpt lat="45.7474" lon="4.28165">
        <ele>294</ele>
        <time>2017-04-13T09:17:58.1Z</time>
      </trkpt>
      <trkpt lat="45.74741" lon="4.28168">
        <ele>293</ele>
        <time>2017-04-13T09:18:00.1Z</time>
      </trkpt>
      <trkpt lat="45.74743" lon="4.28174">
        <ele>293</ele>
        <time>2017-04-13T09:18:03.1Z</time>
      </trkpt>
      <trkpt lat="45.74745" lon="4.28177">
        <ele>293</ele>
        <time>2017-04-13T09:18:05.1Z</time>
      </trkpt>
      <trkpt lat="45.74748" lon="4.28182">
        <ele>293</ele>
        <time>2017-04-13T09:18:08.1Z</time>
      </trkpt>
      <trkpt lat="45.7475" lon="4.28185">
        <ele>293</ele>
        <time>2017-04-13T09:18:10.1Z</time>
      </trkpt>
      <trkpt lat="45.74753" lon="4.28189">
        <ele>293</ele>
        <time>2017-04-13T09:18:13.1Z</time>
      </trkpt>
      <trkpt lat="45.74755" lon="4.28192">
        <ele>294</ele>
        <time>2017-04-13T09:18:15.1Z</time>
      </trkpt>
      <trkpt lat="45.74757" lon="4.28195">
        <ele>293</ele>
        <time>2017-04-13T09:18:17.1Z</time>
      </trkpt>
      <trkpt lat="45.74759" lon="4.28198">
        <ele>293</ele>
        <time>2017-04-13T09:18:19.1Z</time>
      </trkpt>
      <trkpt lat="45.74759" lon="4.28202">
        <ele>293</ele>
        <time>2017-04-13T09:18:21.1Z</time>
      </trkpt>
      <trkpt lat="45.74761" lon="4.28208">
        <ele>293</ele>
        <time>2017-04-13T09:18:24.1Z</time>
      </trkpt>
      <trkpt lat="45.74761" lon="4.28211">
        <ele>293</ele>
        <time>2017-04-13T09:18:26.1Z</time>
      </trkpt>
      <trkpt lat="45.74763" lon="4.28213">
        <ele>294</ele>
        <time>2017-04-13T09:18:28.1Z</time>
      </trkpt>
      <trkpt lat="45.74766" lon="4.28214">
        <ele>294</ele>
        <time>2017-04-13T09:18:30.1Z</time>
      </trkpt>
      <trkpt lat="45.7477" lon="4.28217">
        <ele>294</ele>
        <time>2017-04-13T09:18:33.1Z</time>
      </trkpt>
      <trkpt lat="45.74775" lon="4.28219">
        <ele>294</ele>
        <time>2017-04-13T09:18:36.1Z</time>
      </trkpt>
      <trkpt lat="45.74778" lon="4.2822">
        <ele>294</ele>
        <time>2017-04-13T09:18:38.1Z</time>
      </trkpt>
      <trkpt lat="45.74781" lon="4.28222">
        <ele>294</ele>
        <time>2017-04-13T09:18:40.1Z</time>
      </trkpt>
      <trkpt lat="45.74783" lon="4.28224">
        <ele>294</ele>
        <time>2017-04-13T09:18:42.1Z</time>
      </trkpt>
      <trkpt lat="45.74786" lon="4.28226">
        <ele>294</ele>
        <time>2017-04-13T09:18:44.1Z</time>
      </trkpt>
      <trkpt lat="45.74788" lon="4.28228">
        <ele>294</ele>
        <time>2017-04-13T09:18:46.1Z</time>
      </trkpt>
      <trkpt lat="45.74789" lon="4.2823">
        <ele>294</ele>
        <time>2017-04-13T09:18:48.1Z</time>
      </trkpt>
      <trkpt lat="45.7479" lon="4.28234">
        <ele>295</ele>
        <time>2017-04-13T09:18:51.1Z</time>
      </trkpt>
      <trkpt lat="45.74794" lon="4.28237">
        <ele>295</ele>
        <time>2017-04-13T09:18:54.1Z</time>
      </trkpt>
      <trkpt lat="45.74796" lon="4.2824">
        <ele>295</ele>
        <time>2017-04-13T09:18:56.1Z</time>
      </trkpt>
      <trkpt lat="45.74799" lon="4.28244">
        <ele>295</ele>
        <time>2017-04-13T09:18:59.1Z</time>
      </trkpt>
      <trkpt lat="45.74801" lon="4.28247">
        <ele>296</ele>
        <time>2017-04-13T09:19:01.1Z</time>
      </trkpt>
      <trkpt lat="45.74805" lon="4.28253">
        <ele>296</ele>
        <time>2017-04-13T09:19:04.1Z</time>
      </trkpt>
      <trkpt lat="45.74807" lon="4.28258">
        <ele>296</ele>
        <time>2017-04-13T09:19:07.1Z</time>
      </trkpt>
      <trkpt lat="45.74808" lon="4.28261">
        <ele>296</ele>
        <time>2017-04-13T09:19:09.1Z</time>
      </trkpt>
      <trkpt lat="45.74809" lon="4.28267">
        <ele>296</ele>
        <time>2017-04-13T09:19:12.1Z</time>
      </trkpt>
      <trkpt lat="45.7481" lon="4.2827">
        <ele>296</ele>
        <time>2017-04-13T09:19:14.1Z</time>
      </trkpt>
      <trkpt lat="45.74809" lon="4.28275">
        <ele>297</ele>
        <time>2017-04-13T09:19:17.1Z</time>
      </trkpt>
      <trkpt lat="45.74808" lon="4.2828">
        <ele>297</ele>
        <time>2017-04-13T09:19:20.1Z</time>
      </trkpt>
      <trkpt lat="45.74807" lon="4.28283">
        <ele>297</ele>
        <time>2017-04-13T09:19:22.1Z</time>
      </trkpt>
      <trkpt lat="45.74806" lon="4.28286">
        <ele>298</ele>
        <time>2017-04-13T09:19:24.1Z</time>
      </trkpt>
      <trkpt lat="45.74805" lon="4.28288">
        <ele>298</ele>
        <time>2017-04-13T09:19:26.1Z</time>
      </trkpt>
      <trkpt lat="45.74802" lon="4.28291">
        <ele>298</ele>
        <time>2017-04-13T09:19:29.1Z</time>
      </trkpt>
      <trkpt lat="45.748" lon="4.28293">
        <ele>298</ele>
        <time>2017-04-13T09:19:31.1Z</time>
      </trkpt>
      <trkpt lat="45.74799" lon="4.28294">
        <ele>299</ele>
        <time>2017-04-13T09:19:33.1Z</time>
      </trkpt>
      <trkpt lat="45.74798" lon="4.28296">
        <ele>299</ele>
        <time>2017-04-13T09:19:35.1Z</time>
      </trkpt>
      <trkpt lat="45.74798" lon="4.28299">
        <ele>300</ele>
        <time>2017-04-13T09:19:37.1Z</time>
      </trkpt>
      <trkpt lat="45.74799" lon="4.28301">
        <ele>300</ele>
        <time>2017-04-13T09:19:39.1Z</time>
      </trkpt>
      <trkpt lat="45.74798" lon="4.28306">
        <ele>301</ele>
        <time>2017-04-13T09:19:42.1Z</time>
      </trkpt>
      <trkpt lat="45.74798" lon="4.2831">
        <ele>301</ele>
        <time>2017-04-13T09:19:44.1Z</time>
      </trkpt>
      <trkpt lat="45.74798" lon="4.28314">
        <ele>302</ele>
        <time>2017-04-13T09:19:47.1Z</time>
      </trkpt>
      <trkpt lat="45.74799" lon="4.28317">
        <ele>302</ele>
        <time>2017-04-13T09:19:49.1Z</time>
      </trkpt>
      <trkpt lat="45.74799" lon="4.28321">
        <ele>303</ele>
        <time>2017-04-13T09:19:52.1Z</time>
      </trkpt>
      <trkpt lat="45.748" lon="4.28323">
        <ele>304</ele>
        <time>2017-04-13T09:19:54.1Z</time>
      </trkpt>
      <trkpt lat="45.748" lon="4.28327">
        <ele>304</ele>
        <time>2017-04-13T09:19:57.1Z</time>
      </trkpt>
      <trkpt lat="45.74799" lon="4.28328">
        <ele>304</ele>
        <time>2017-04-13T09:19:59.1Z</time>
      </trkpt>
      <trkpt lat="45.74799" lon="4.28331">
        <ele>304</ele>
        <time>2017-04-13T09:20:01.1Z</time>
      </trkpt>
      <trkpt lat="45.748" lon="4.28333">
        <ele>304</ele>
        <time>2017-04-13T09:20:03.1Z</time>
      </trkpt>
      <trkpt lat="45.748" lon="4.28337">
        <ele>305</ele>
        <time>2017-04-13T09:20:06.1Z</time>
      </trkpt>
      <trkpt lat="45.74798" lon="4.28339">
        <ele>305</ele>
        <time>2017-04-13T09:20:08.1Z</time>
      </trkpt>
      <trkpt lat="45.74797" lon="4.28342">
        <ele>306</ele>
        <time>2017-04-13T09:20:10.1Z</time>
      </trkpt>
      <trkpt lat="45.74797" lon="4.28346">
        <ele>306</ele>
        <time>2017-04-13T09:20:13.1Z</time>
      </trkpt>
      <trkpt lat="45.74796" lon="4.28349">
        <ele>307</ele>
        <time>2017-04-13T09:20:15.1Z</time>
      </trkpt>
      <trkpt lat="45.74795" lon="4.28351">
        <ele>307</ele>
        <time>2017-04-13T09:20:17.1Z</time>
      </trkpt>
      <trkpt lat="45.74794" lon="4.28355">
        <ele>307</ele>
        <time>2017-04-13T09:20:20.1Z</time>
      </trkpt>
      <trkpt lat="45.74793" lon="4.28358">
        <ele>308</ele>
        <time>2017-04-13T09:20:22.1Z</time>
      </trkpt>
      <trkpt lat="45.74793" lon="4.28361">
        <ele>307</ele>
        <time>2017-04-13T09:20:24.1Z</time>
      </trkpt>
      <trkpt lat="45.74793" lon="4.28364">
        <ele>307</ele>
        <time>2017-04-13T09:20:26.1Z</time>
      </trkpt>
      <trkpt lat="45.74792" lon="4.28368">
        <ele>307</ele>
        <time>2017-04-13T09:20:29.1Z</time>
      </trkpt>
      <trkpt lat="45.74792" lon="4.2837">
        <ele>307</ele>
        <time>2017-04-13T09:20:31.1Z</time>
      </trkpt>
      <trkpt lat="45.74791" lon="4.28372">
        <ele>307</ele>
        <time>2017-04-13T09:20:33.1Z</time>
      </trkpt>
      <trkpt lat="45.74792" lon="4.28374">
        <ele>307</ele>
        <time>2017-04-13T09:20:35.1Z</time>
      </trkpt>
      <trkpt lat="45.74791" lon="4.28378">
        <ele>306</ele>
        <time>2017-04-13T09:20:38.1Z</time>
      </trkpt>
      <trkpt lat="45.74793" lon="4.28381">
        <ele>306</ele>
        <time>2017-04-13T09:20:41.1Z</time>
      </trkpt>
      <trkpt lat="45.74796" lon="4.28384">
        <ele>305</ele>
        <time>2017-04-13T09:20:44.1Z</time>
      </trkpt>
      <trkpt lat="45.74798" lon="4.28386">
        <ele>305</ele>
        <time>2017-04-13T09:20:47.1Z</time>
      </trkpt>
      <trkpt lat="45.74801" lon="4.28389">
        <ele>304</ele>
        <time>2017-04-13T09:20:50.1Z</time>
      </trkpt>
      <trkpt lat="45.74803" lon="4.28391">
        <ele>304</ele>
        <time>2017-04-13T09:20:52.1Z</time>
      </trkpt>
      <trkpt lat="45.74805" lon="4.28393">
        <ele>304</ele>
        <time>2017-04-13T09:20:54.1Z</time>
      </trkpt>
      <trkpt lat="45.74807" lon="4.28397">
        <ele>304</ele>
        <time>2017-04-13T09:20:57.1Z</time>
      </trkpt>
      <trkpt lat="45.74809" lon="4.28401">
        <ele>303</ele>
        <time>2017-04-13T09:21:00.1Z</time>
      </trkpt>
      <trkpt lat="45.7481" lon="4.28404">
        <ele>303</ele>
        <time>2017-04-13T09:21:02.1Z</time>
      </trkpt>
      <trkpt lat="45.74812" lon="4.28405">
        <ele>303</ele>
        <time>2017-04-13T09:21:04.1Z</time>
      </trkpt>
      <trkpt lat="45.74813" lon="4.28407">
        <ele>303</ele>
        <time>2017-04-13T09:21:07.1Z</time>
      </trkpt>
      <trkpt lat="45.74814" lon="4.28408">
        <ele>302</ele>
        <time>2017-04-13T09:21:09.1Z</time>
      </trkpt>
      <trkpt lat="45.74816" lon="4.28409">
        <ele>302</ele>
        <time>2017-04-13T09:21:11.1Z</time>
      </trkpt>
      <trkpt lat="45.74817" lon="4.2841">
        <ele>302</ele>
        <time>2017-04-13T09:21:13.1Z</time>
      </trkpt>
      <trkpt lat="45.74819" lon="4.28411">
        <ele>302</ele>
        <time>2017-04-13T09:21:15.1Z</time>
      </trkpt>
      <trkpt lat="45.74823" lon="4.28413">
        <ele>302</ele>
        <time>2017-04-13T09:21:18.1Z</time>
      </trkpt>
      <trkpt lat="45.74826" lon="4.28415">
        <ele>301</ele>
        <time>2017-04-13T09:21:21.1Z</time>
      </trkpt>
      <trkpt lat="45.74826" lon="4.28418">
        <ele>301</ele>
        <time>2017-04-13T09:21:24.1Z</time>
      </trkpt>
      <trkpt lat="45.74829" lon="4.2842">
        <ele>302</ele>
        <time>2017-04-13T09:21:26.1Z</time>
      </trkpt>
      <trkpt lat="45.74833" lon="4.28422">
        <ele>303</ele>
        <time>2017-04-13T09:21:29.1Z</time>
      </trkpt>
      <trkpt lat="45.74836" lon="4.28424">
        <ele>304</ele>
        <time>2017-04-13T09:21:32.1Z</time>
      </trkpt>
      <trkpt lat="45.74839" lon="4.28426">
        <ele>304</ele>
        <time>2017-04-13T09:21:34.1Z</time>
      </trkpt>
      <trkpt lat="45.74841" lon="4.28429">
        <ele>304</ele>
        <time>2017-04-13T09:21:37.1Z</time>
      </trkpt>
      <trkpt lat="45.74843" lon="4.28431">
        <ele>304</ele>
        <time>2017-04-13T09:21:39.1Z</time>
      </trkpt>
      <trkpt lat="45.74847" lon="4.28433">
        <ele>304</ele>
        <time>2017-04-13T09:21:42.1Z</time>
      </trkpt>
      <trkpt lat="45.7485" lon="4.28435">
        <ele>304</ele>
        <time>2017-04-13T09:21:45.1Z</time>
      </trkpt>
      <trkpt lat="45.74854" lon="4.28437">
        <ele>304</ele>
        <time>2017-04-13T09:21:48.1Z</time>
      </trkpt>
      <trkpt lat="45.74857" lon="4.28438">
        <ele>304</ele>
        <time>2017-04-13T09:21:50.1Z</time>
      </trkpt>
      <trkpt lat="45.74858" lon="4.28437">
        <ele>304</ele>
        <time>2017-04-13T09:21:52.1Z</time>
      </trkpt>
      <trkpt lat="45.74862" lon="4.2844">
        <ele>304</ele>
        <time>2017-04-13T09:21:54.1Z</time>
      </trkpt>
      <trkpt lat="45.74865" lon="4.28441">
        <ele>304</ele>
        <time>2017-04-13T09:21:56.1Z</time>
      </trkpt>
      <trkpt lat="45.74868" lon="4.28442">
        <ele>305</ele>
        <time>2017-04-13T09:21:58.1Z</time>
      </trkpt>
      <trkpt lat="45.74873" lon="4.28444">
        <ele>305</ele>
        <time>2017-04-13T09:22:00.1Z</time>
      </trkpt>
      <trkpt lat="45.74879" lon="4.28444">
        <ele>305</ele>
        <time>2017-04-13T09:22:02.1Z</time>
      </trkpt>
      <trkpt lat="45.74889" lon="4.28447">
        <ele>305</ele>
        <time>2017-04-13T09:22:05.1Z</time>
      </trkpt>
      <trkpt lat="45.74897" lon="4.28452">
        <ele>306</ele>
        <time>2017-04-13T09:22:08.1Z</time>
      </trkpt>
      <trkpt lat="45.74902" lon="4.28456">
        <ele>306</ele>
        <time>2017-04-13T09:22:10.1Z</time>
      </trkpt>
      <trkpt lat="45.74906" lon="4.28459">
        <ele>306</ele>
        <time>2017-04-13T09:22:12.1Z</time>
      </trkpt>
      <trkpt lat="45.74911" lon="4.28463">
        <ele>307</ele>
        <time>2017-04-13T09:22:14.1Z</time>
      </trkpt>
      <trkpt lat="45.74917" lon="4.28467">
        <ele>307</ele>
        <time>2017-04-13T09:22:17.1Z</time>
      </trkpt>
      <trkpt lat="45.74921" lon="4.28471">
        <ele>307</ele>
        <time>2017-04-13T09:22:19.1Z</time>
      </trkpt>
      <trkpt lat="45.74925" lon="4.28474">
        <ele>308</ele>
        <time>2017-04-13T09:22:21.1Z</time>
      </trkpt>
      <trkpt lat="45.74934" lon="4.2848">
        <ele>307</ele>
        <time>2017-04-13T09:22:24.1Z</time>
      </trkpt>
      <trkpt lat="45.74939" lon="4.28485">
        <ele>308</ele>
        <time>2017-04-13T09:22:27.1Z</time>
      </trkpt>
      <trkpt lat="45.74942" lon="4.28489">
        <ele>308</ele>
        <time>2017-04-13T09:22:29.1Z</time>
      </trkpt>
      <trkpt lat="45.74945" lon="4.28493">
        <ele>308</ele>
        <time>2017-04-13T09:22:31.1Z</time>
      </trkpt>
      <trkpt lat="45.74953" lon="4.28499">
        <ele>308</ele>
        <time>2017-04-13T09:22:34.1Z</time>
      </trkpt>
      <trkpt lat="45.74957" lon="4.28502">
        <ele>308</ele>
        <time>2017-04-13T09:22:36.1Z</time>
      </trkpt>
      <trkpt lat="45.74961" lon="4.28505">
        <ele>309</ele>
        <time>2017-04-13T09:22:38.1Z</time>
      </trkpt>
      <trkpt lat="45.74969" lon="4.28511">
        <ele>309</ele>
        <time>2017-04-13T09:22:41.1Z</time>
      </trkpt>
      <trkpt lat="45.74972" lon="4.28515">
        <ele>309</ele>
        <time>2017-04-13T09:22:43.1Z</time>
      </trkpt>
      <trkpt lat="45.74977" lon="4.28524">
        <ele>309</ele>
        <time>2017-04-13T09:22:46.1Z</time>
      </trkpt>
      <trkpt lat="45.74981" lon="4.28532">
        <ele>309</ele>
        <time>2017-04-13T09:22:49.1Z</time>
      </trkpt>
      <trkpt lat="45.74985" lon="4.28537">
        <ele>309</ele>
        <time>2017-04-13T09:22:51.1Z</time>
      </trkpt>
      <trkpt lat="45.74991" lon="4.28542">
        <ele>309</ele>
        <time>2017-04-13T09:22:54.1Z</time>
      </trkpt>
      <trkpt lat="45.74999" lon="4.28543">
        <ele>309</ele>
        <time>2017-04-13T09:22:57.1Z</time>
      </trkpt>
      <trkpt lat="45.75006" lon="4.28544">
        <ele>310</ele>
        <time>2017-04-13T09:23:00.1Z</time>
      </trkpt>
      <trkpt lat="45.75013" lon="4.28543">
        <ele>310</ele>
        <time>2017-04-13T09:23:02.1Z</time>
      </trkpt>
      <trkpt lat="45.75021" lon="4.28541">
        <ele>311</ele>
        <time>2017-04-13T09:23:04.1Z</time>
      </trkpt>
      <trkpt lat="45.75028" lon="4.2854">
        <ele>311</ele>
        <time>2017-04-13T09:23:06.1Z</time>
      </trkpt>
      <trkpt lat="45.75039" lon="4.28537">
        <ele>312</ele>
        <time>2017-04-13T09:23:09.1Z</time>
      </trkpt>
      <trkpt lat="45.75053" lon="4.28533">
        <ele>313</ele>
        <time>2017-04-13T09:23:12.1Z</time>
      </trkpt>
      <trkpt lat="45.75063" lon="4.28531">
        <ele>313</ele>
        <time>2017-04-13T09:23:14.1Z</time>
      </trkpt>
      <trkpt lat="45.75075" lon="4.28527">
        <ele>313</ele>
        <time>2017-04-13T09:23:16.1Z</time>
      </trkpt>
      <trkpt lat="45.75087" lon="4.28523">
        <ele>312</ele>
        <time>2017-04-13T09:23:18.1Z</time>
      </trkpt>
      <trkpt lat="45.75101" lon="4.2852">
        <ele>312</ele>
        <time>2017-04-13T09:23:21.1Z</time>
      </trkpt>
      <trkpt lat="45.75114" lon="4.28517">
        <ele>312</ele>
        <time>2017-04-13T09:23:24.1Z</time>
      </trkpt>
      <trkpt lat="45.75129" lon="4.28513">
        <ele>312</ele>
        <time>2017-04-13T09:23:27.1Z</time>
      </trkpt>
      <trkpt lat="45.75141" lon="4.28509">
        <ele>312</ele>
        <time>2017-04-13T09:23:30.1Z</time>
      </trkpt>
      <trkpt lat="45.75148" lon="4.28507">
        <ele>313</ele>
        <time>2017-04-13T09:23:32.1Z</time>
      </trkpt>
      <trkpt lat="45.75157" lon="4.28503">
        <ele>313</ele>
        <time>2017-04-13T09:23:35.1Z</time>
      </trkpt>
      <trkpt lat="45.75163" lon="4.285">
        <ele>313</ele>
        <time>2017-04-13T09:23:37.1Z</time>
      </trkpt>
      <trkpt lat="45.75169" lon="4.28497">
        <ele>313</ele>
        <time>2017-04-13T09:23:39.1Z</time>
      </trkpt>
      <trkpt lat="45.75179" lon="4.28492">
        <ele>313</ele>
        <time>2017-04-13T09:23:42.1Z</time>
      </trkpt>
      <trkpt lat="45.75185" lon="4.28489">
        <ele>313</ele>
        <time>2017-04-13T09:23:44.1Z</time>
      </trkpt>
      <trkpt lat="45.75189" lon="4.28486">
        <ele>314</ele>
        <time>2017-04-13T09:23:46.1Z</time>
      </trkpt>
      <trkpt lat="45.75196" lon="4.28483">
        <ele>313</ele>
        <time>2017-04-13T09:23:49.1Z</time>
      </trkpt>
      <trkpt lat="45.75208" lon="4.28479">
        <ele>314</ele>
        <time>2017-04-13T09:23:52.1Z</time>
      </trkpt>
      <trkpt lat="45.75213" lon="4.28477">
        <ele>314</ele>
        <time>2017-04-13T09:23:54.1Z</time>
      </trkpt>
      <trkpt lat="45.75217" lon="4.28476">
        <ele>314</ele>
        <time>2017-04-13T09:23:56.1Z</time>
      </trkpt>
      <trkpt lat="45.75224" lon="4.28475">
        <ele>314</ele>
        <time>2017-04-13T09:23:59.1Z</time>
      </trkpt>
      <trkpt lat="45.75233" lon="4.28475">
        <ele>314</ele>
        <time>2017-04-13T09:24:02.1Z</time>
      </trkpt>
      <trkpt lat="45.7524" lon="4.28476">
        <ele>313</ele>
        <time>2017-04-13T09:24:04.1Z</time>
      </trkpt>
      <trkpt lat="45.75249" lon="4.28476">
        <ele>314</ele>
        <time>2017-04-13T09:24:07.1Z</time>
      </trkpt>
      <trkpt lat="45.75258" lon="4.28478">
        <ele>314</ele>
        <time>2017-04-13T09:24:10.1Z</time>
      </trkpt>
      <trkpt lat="45.75269" lon="4.28479">
        <ele>315</ele>
        <time>2017-04-13T09:24:13.1Z</time>
      </trkpt>
      <trkpt lat="45.75277" lon="4.28481">
        <ele>315</ele>
        <time>2017-04-13T09:24:15.1Z</time>
      </trkpt>
      <trkpt lat="45.75286" lon="4.28482">
        <ele>315</ele>
        <time>2017-04-13T09:24:17.1Z</time>
      </trkpt>
      <trkpt lat="45.75294" lon="4.28483">
        <ele>315</ele>
        <time>2017-04-13T09:24:19.1Z</time>
      </trkpt>
      <trkpt lat="45.75306" lon="4.28486">
        <ele>315</ele>
        <time>2017-04-13T09:24:22.1Z</time>
      </trkpt>
      <trkpt lat="45.75313" lon="4.28487">
        <ele>315</ele>
        <time>2017-04-13T09:24:24.1Z</time>
      </trkpt>
      <trkpt lat="45.75321" lon="4.28489">
        <ele>316</ele>
        <time>2017-04-13T09:24:26.1Z</time>
      </trkpt>
      <trkpt lat="45.7533" lon="4.28491">
        <ele>316</ele>
        <time>2017-04-13T09:24:28.1Z</time>
      </trkpt>
      <trkpt lat="45.75346" lon="4.28492">
        <ele>317</ele>
        <time>2017-04-13T09:24:31.1Z</time>
      </trkpt>
      <trkpt lat="45.75355" lon="4.28495">
        <ele>317</ele>
        <time>2017-04-13T09:24:33.1Z</time>
      </trkpt>
      <trkpt lat="45.75363" lon="4.28497">
        <ele>318</ele>
        <time>2017-04-13T09:24:35.1Z</time>
      </trkpt>
      <trkpt lat="45.75377" lon="4.285">
        <ele>318</ele>
        <time>2017-04-13T09:24:38.1Z</time>
      </trkpt>
      <trkpt lat="45.75389" lon="4.28501">
        <ele>319</ele>
        <time>2017-04-13T09:24:40.1Z</time>
      </trkpt>
      <trkpt lat="45.75407" lon="4.28508">
        <ele>319</ele>
        <time>2017-04-13T09:24:43.1Z</time>
      </trkpt>
      <trkpt lat="45.75422" lon="4.28515">
        <ele>319</ele>
        <time>2017-04-13T09:24:46.1Z</time>
      </trkpt>
      <trkpt lat="45.75434" lon="4.2852">
        <ele>319</ele>
        <time>2017-04-13T09:24:49.1Z</time>
      </trkpt>
      <trkpt lat="45.75442" lon="4.28524">
        <ele>318</ele>
        <time>2017-04-13T09:24:51.1Z</time>
      </trkpt>
      <trkpt lat="45.75452" lon="4.28529">
        <ele>319</ele>
        <time>2017-04-13T09:24:54.1Z</time>
      </trkpt>
      <trkpt lat="45.75458" lon="4.2853">
        <ele>319</ele>
        <time>2017-04-13T09:24:56.1Z</time>
      </trkpt>
      <trkpt lat="45.75468" lon="4.28532">
        <ele>320</ele>
        <time>2017-04-13T09:24:59.1Z</time>
      </trkpt>
      <trkpt lat="45.75474" lon="4.28532">
        <ele>320</ele>
        <time>2017-04-13T09:25:01.1Z</time>
      </trkpt>
      <trkpt lat="45.75485" lon="4.28533">
        <ele>320</ele>
        <time>2017-04-13T09:25:04.1Z</time>
      </trkpt>
      <trkpt lat="45.75494" lon="4.28536">
        <ele>320</ele>
        <time>2017-04-13T09:25:07.1Z</time>
      </trkpt>
      <trkpt lat="45.75502" lon="4.28539">
        <ele>320</ele>
        <time>2017-04-13T09:25:09.1Z</time>
      </trkpt>
      <trkpt lat="45.75514" lon="4.28544">
        <ele>320</ele>
        <time>2017-04-13T09:25:12.1Z</time>
      </trkpt>
      <trkpt lat="45.75527" lon="4.2855">
        <ele>321</ele>
        <time>2017-04-13T09:25:15.1Z</time>
      </trkpt>
      <trkpt lat="45.7554" lon="4.28554">
        <ele>321</ele>
        <time>2017-04-13T09:25:18.1Z</time>
      </trkpt>
      <trkpt lat="45.75551" lon="4.28557">
        <ele>322</ele>
        <time>2017-04-13T09:25:20.1Z</time>
      </trkpt>
      <trkpt lat="45.75567" lon="4.28559">
        <ele>323</ele>
        <time>2017-04-13T09:25:23.1Z</time>
      </trkpt>
      <trkpt lat="45.75574" lon="4.28561">
        <ele>323</ele>
        <time>2017-04-13T09:25:25.1Z</time>
      </trkpt>
      <trkpt lat="45.75586" lon="4.28564">
        <ele>323</ele>
        <time>2017-04-13T09:25:28.1Z</time>
      </trkpt>
      <trkpt lat="45.75594" lon="4.28567">
        <ele>324</ele>
        <time>2017-04-13T09:25:30.1Z</time>
      </trkpt>
      <trkpt lat="45.756" lon="4.28568">
        <ele>324</ele>
        <time>2017-04-13T09:25:32.1Z</time>
      </trkpt>
      <trkpt lat="45.75608" lon="4.2857">
        <ele>324</ele>
        <time>2017-04-13T09:25:34.1Z</time>
      </trkpt>
      <trkpt lat="45.75615" lon="4.28571">
        <ele>323</ele>
        <time>2017-04-13T09:25:36.1Z</time>
      </trkpt>
      <trkpt lat="45.75623" lon="4.28574">
        <ele>323</ele>
        <time>2017-04-13T09:25:39.1Z</time>
      </trkpt>
      <trkpt lat="45.75633" lon="4.28578">
        <ele>324</ele>
        <time>2017-04-13T09:25:42.1Z</time>
      </trkpt>
      <trkpt lat="45.75643" lon="4.28582">
        <ele>325</ele>
        <time>2017-04-13T09:25:44.1Z</time>
      </trkpt>
      <trkpt lat="45.75657" lon="4.28585">
        <ele>325</ele>
        <time>2017-04-13T09:25:47.1Z</time>
      </trkpt>
      <trkpt lat="45.75665" lon="4.28587">
        <ele>325</ele>
        <time>2017-04-13T09:25:49.1Z</time>
      </trkpt>
      <trkpt lat="45.75676" lon="4.28587">
        <ele>325</ele>
        <time>2017-04-13T09:25:52.1Z</time>
      </trkpt>
      <trkpt lat="45.75685" lon="4.28588">
        <ele>326</ele>
        <time>2017-04-13T09:25:54.1Z</time>
      </trkpt>
      <trkpt lat="45.75695" lon="4.28591">
        <ele>326</ele>
        <time>2017-04-13T09:25:56.1Z</time>
      </trkpt>
      <trkpt lat="45.75709" lon="4.28597">
        <ele>327</ele>
        <time>2017-04-13T09:25:59.1Z</time>
      </trkpt>
      <trkpt lat="45.75718" lon="4.286">
        <ele>327</ele>
        <time>2017-04-13T09:26:01.1Z</time>
      </trkpt>
      <trkpt lat="45.75733" lon="4.28606">
        <ele>328</ele>
        <time>2017-04-13T09:26:04.1Z</time>
      </trkpt>
      <trkpt lat="45.75745" lon="4.28613">
        <ele>328</ele>
        <time>2017-04-13T09:26:07.1Z</time>
      </trkpt>
      <trkpt lat="45.75753" lon="4.28623">
        <ele>328</ele>
        <time>2017-04-13T09:26:10.1Z</time>
      </trkpt>
      <trkpt lat="45.75756" lon="4.2863">
        <ele>329</ele>
        <time>2017-04-13T09:26:12.1Z</time>
      </trkpt>
      <trkpt lat="45.7576" lon="4.28638">
        <ele>329</ele>
        <time>2017-04-13T09:26:14.1Z</time>
      </trkpt>
      <trkpt lat="45.75766" lon="4.28649">
        <ele>329</ele>
        <time>2017-04-13T09:26:17.1Z</time>
      </trkpt>
      <trkpt lat="45.75769" lon="4.28657">
        <ele>329</ele>
        <time>2017-04-13T09:26:19.1Z</time>
      </trkpt>
      <trkpt lat="45.75773" lon="4.28672">
        <ele>330</ele>
        <time>2017-04-13T09:26:22.1Z</time>
      </trkpt>
      <trkpt lat="45.75774" lon="4.28682">
        <ele>330</ele>
        <time>2017-04-13T09:26:24.1Z</time>
      </trkpt>
      <trkpt lat="45.75775" lon="4.28692">
        <ele>330</ele>
        <time>2017-04-13T09:26:26.1Z</time>
      </trkpt>
      <trkpt lat="45.75776" lon="4.28701">
        <ele>330</ele>
        <time>2017-04-13T09:26:28.1Z</time>
      </trkpt>
      <trkpt lat="45.75776" lon="4.28711">
        <ele>330</ele>
        <time>2017-04-13T09:26:30.1Z</time>
      </trkpt>
      <trkpt lat="45.75778" lon="4.28724">
        <ele>331</ele>
        <time>2017-04-13T09:26:32.1Z</time>
      </trkpt>
      <trkpt lat="45.75783" lon="4.28735">
        <ele>331</ele>
        <time>2017-04-13T09:26:34.1Z</time>
      </trkpt>
      <trkpt lat="45.7579" lon="4.28751">
        <ele>331</ele>
        <time>2017-04-13T09:26:37.1Z</time>
      </trkpt>
      <trkpt lat="45.75793" lon="4.28761">
        <ele>331</ele>
        <time>2017-04-13T09:26:39.1Z</time>
      </trkpt>
      <trkpt lat="45.75807" lon="4.28775">
        <ele>332</ele>
        <time>2017-04-13T09:26:42.1Z</time>
      </trkpt>
      <trkpt lat="45.75816" lon="4.28783">
        <ele>332</ele>
        <time>2017-04-13T09:26:44.1Z</time>
      </trkpt>
      <trkpt lat="45.75828" lon="4.28796">
        <ele>332</ele>
        <time>2017-04-13T09:26:47.1Z</time>
      </trkpt>
      <trkpt lat="45.75841" lon="4.2881">
        <ele>333</ele>
        <time>2017-04-13T09:26:50.1Z</time>
      </trkpt>
      <trkpt lat="45.75852" lon="4.28819">
        <ele>333</ele>
        <time>2017-04-13T09:26:52.1Z</time>
      </trkpt>
      <trkpt lat="45.75868" lon="4.28832">
        <ele>333</ele>
        <time>2017-04-13T09:26:55.1Z</time>
      </trkpt>
      <trkpt lat="45.75883" lon="4.28844">
        <ele>334</ele>
        <time>2017-04-13T09:26:58.1Z</time>
      </trkpt>
      <trkpt lat="45.75891" lon="4.28854">
        <ele>334</ele>
        <time>2017-04-13T09:27:00.1Z</time>
      </trkpt>
      <trkpt lat="45.75903" lon="4.28869">
        <ele>334</ele>
        <time>2017-04-13T09:27:03.1Z</time>
      </trkpt>
      <trkpt lat="45.7591" lon="4.2888">
        <ele>334</ele>
        <time>2017-04-13T09:27:05.1Z</time>
      </trkpt>
      <trkpt lat="45.75919" lon="4.28889">
        <ele>335</ele>
        <time>2017-04-13T09:27:07.1Z</time>
      </trkpt>
      <trkpt lat="45.75929" lon="4.28902">
        <ele>336</ele>
        <time>2017-04-13T09:27:10.1Z</time>
      </trkpt>
      <trkpt lat="45.75936" lon="4.2891">
        <ele>337</ele>
        <time>2017-04-13T09:27:12.1Z</time>
      </trkpt>
      <trkpt lat="45.75946" lon="4.2892">
        <ele>337</ele>
        <time>2017-04-13T09:27:15.1Z</time>
      </trkpt>
      <trkpt lat="45.75959" lon="4.28928">
        <ele>338</ele>
        <time>2017-04-13T09:27:18.1Z</time>
      </trkpt>
      <trkpt lat="45.75968" lon="4.28931">
        <ele>338</ele>
        <time>2017-04-13T09:27:20.1Z</time>
      </trkpt>
      <trkpt lat="45.75977" lon="4.28934">
        <ele>338</ele>
        <time>2017-04-13T09:27:22.1Z</time>
      </trkpt>
      <trkpt lat="45.75986" lon="4.28935">
        <ele>338</ele>
        <time>2017-04-13T09:27:24.1Z</time>
      </trkpt>
      <trkpt lat="45.75997" lon="4.28937">
        <ele>338</ele>
        <time>2017-04-13T09:27:26.1Z</time>
      </trkpt>
      <trkpt lat="45.76007" lon="4.28937">
        <ele>338</ele>
        <time>2017-04-13T09:27:28.1Z</time>
      </trkpt>
      <trkpt lat="45.76024" lon="4.28938">
        <ele>338</ele>
        <time>2017-04-13T09:27:31.1Z</time>
      </trkpt>
      <trkpt lat="45.76035" lon="4.28939">
        <ele>337</ele>
        <time>2017-04-13T09:27:33.1Z</time>
      </trkpt>
      <trkpt lat="45.76052" lon="4.28939">
        <ele>338</ele>
        <time>2017-04-13T09:27:36.1Z</time>
      </trkpt>
      <trkpt lat="45.76062" lon="4.2894">
        <ele>338</ele>
        <time>2017-04-13T09:27:38.1Z</time>
      </trkpt>
      <trkpt lat="45.7608" lon="4.2894">
        <ele>338</ele>
        <time>2017-04-13T09:27:41.1Z</time>
      </trkpt>
      <trkpt lat="45.7609" lon="4.2894">
        <ele>338</ele>
        <time>2017-04-13T09:27:43.1Z</time>
      </trkpt>
      <trkpt lat="45.76101" lon="4.28941">
        <ele>338</ele>
        <time>2017-04-13T09:27:45.1Z</time>
      </trkpt>
      <trkpt lat="45.76118" lon="4.28941">
        <ele>338</ele>
        <time>2017-04-13T09:27:48.1Z</time>
      </trkpt>
      <trkpt lat="45.7613" lon="4.28941">
        <ele>339</ele>
        <time>2017-04-13T09:27:50.1Z</time>
      </trkpt>
      <trkpt lat="45.76139" lon="4.28942">
        <ele>339</ele>
        <time>2017-04-13T09:27:52.1Z</time>
      </trkpt>
      <trkpt lat="45.76147" lon="4.28943">
        <ele>339</ele>
        <time>2017-04-13T09:27:54.1Z</time>
      </trkpt>
      <trkpt lat="45.76161" lon="4.28946">
        <ele>340</ele>
        <time>2017-04-13T09:27:57.1Z</time>
      </trkpt>
      <trkpt lat="45.76176" lon="4.28949">
        <ele>340</ele>
        <time>2017-04-13T09:28:00.1Z</time>
      </trkpt>
      <trkpt lat="45.76184" lon="4.28951">
        <ele>340</ele>
        <time>2017-04-13T09:28:02.1Z</time>
      </trkpt>
      <trkpt lat="45.76196" lon="4.28956">
        <ele>340</ele>
        <time>2017-04-13T09:28:05.1Z</time>
      </trkpt>
      <trkpt lat="45.76203" lon="4.2896">
        <ele>340</ele>
        <time>2017-04-13T09:28:07.1Z</time>
      </trkpt>
      <trkpt lat="45.76211" lon="4.28964">
        <ele>341</ele>
        <time>2017-04-13T09:28:09.1Z</time>
      </trkpt>
      <trkpt lat="45.76219" lon="4.28968">
        <ele>341</ele>
        <time>2017-04-13T09:28:11.1Z</time>
      </trkpt>
      <trkpt lat="45.76226" lon="4.28972">
        <ele>341</ele>
        <time>2017-04-13T09:28:13.1Z</time>
      </trkpt>
      <trkpt lat="45.76234" lon="4.28979">
        <ele>341</ele>
        <time>2017-04-13T09:28:16.1Z</time>
      </trkpt>
      <trkpt lat="45.76239" lon="4.28985">
        <ele>341</ele>
        <time>2017-04-13T09:28:18.1Z</time>
      </trkpt>
      <trkpt lat="45.76244" lon="4.28991">
        <ele>341</ele>
        <time>2017-04-13T09:28:20.1Z</time>
      </trkpt>
      <trkpt lat="45.76247" lon="4.28997">
        <ele>341</ele>
        <time>2017-04-13T09:28:22.1Z</time>
      </trkpt>
      <trkpt lat="45.76249" lon="4.29007">
        <ele>342</ele>
        <time>2017-04-13T09:28:25.1Z</time>
      </trkpt>
      <trkpt lat="45.76251" lon="4.29013">
        <ele>342</ele>
        <time>2017-04-13T09:28:27.1Z</time>
      </trkpt>
      <trkpt lat="45.76252" lon="4.2902">
        <ele>343</ele>
        <time>2017-04-13T09:28:29.1Z</time>
      </trkpt>
      <trkpt lat="45.76254" lon="4.29027">
        <ele>343</ele>
        <time>2017-04-13T09:28:31.1Z</time>
      </trkpt>
      <trkpt lat="45.76259" lon="4.29035">
        <ele>343</ele>
        <time>2017-04-13T09:28:34.1Z</time>
      </trkpt>
      <trkpt lat="45.76263" lon="4.29041">
        <ele>343</ele>
        <time>2017-04-13T09:28:36.1Z</time>
      </trkpt>
      <trkpt lat="45.76267" lon="4.29048">
        <ele>343</ele>
        <time>2017-04-13T09:28:38.1Z</time>
      </trkpt>
      <trkpt lat="45.7627" lon="4.29057">
        <ele>343</ele>
        <time>2017-04-13T09:28:40.1Z</time>
      </trkpt>
      <trkpt lat="45.76275" lon="4.29069">
        <ele>343</ele>
        <time>2017-04-13T09:28:43.1Z</time>
      </trkpt>
      <trkpt lat="45.76276" lon="4.29083">
        <ele>343</ele>
        <time>2017-04-13T09:28:46.1Z</time>
      </trkpt>
      <trkpt lat="45.76275" lon="4.29092">
        <ele>343</ele>
        <time>2017-04-13T09:28:48.1Z</time>
      </trkpt>
      <trkpt lat="45.76276" lon="4.291">
        <ele>343</ele>
        <time>2017-04-13T09:28:50.1Z</time>
      </trkpt>
      <trkpt lat="45.7628" lon="4.29111">
        <ele>343</ele>
        <time>2017-04-13T09:28:53.1Z</time>
      </trkpt>
      <trkpt lat="45.76281" lon="4.29119">
        <ele>343</ele>
        <time>2017-04-13T09:28:55.1Z</time>
      </trkpt>
      <trkpt lat="45.76282" lon="4.29127">
        <ele>343</ele>
        <time>2017-04-13T09:28:57.1Z</time>
      </trkpt>
      <trkpt lat="45.76286" lon="4.2914">
        <ele>344</ele>
        <time>2017-04-13T09:29:00.1Z</time>
      </trkpt>
      <trkpt lat="45.76293" lon="4.29148">
        <ele>344</ele>
        <time>2017-04-13T09:29:03.1Z</time>
      </trkpt>
      <trkpt lat="45.76298" lon="4.29151">
        <ele>344</ele>
        <time>2017-04-13T09:29:05.1Z</time>
      </trkpt>
      <trkpt lat="45.76304" lon="4.29155">
        <ele>344</ele>
        <time>2017-04-13T09:29:07.1Z</time>
      </trkpt>
      <trkpt lat="45.76313" lon="4.2916">
        <ele>344</ele>
        <time>2017-04-13T09:29:10.1Z</time>
      </trkpt>
      <trkpt lat="45.76325" lon="4.29166">
        <ele>344</ele>
        <time>2017-04-13T09:29:13.1Z</time>
      </trkpt>
      <trkpt lat="45.76339" lon="4.29171">
        <ele>344</ele>
        <time>2017-04-13T09:29:16.1Z</time>
      </trkpt>
      <trkpt lat="45.76347" lon="4.29174">
        <ele>344</ele>
        <time>2017-04-13T09:29:18.1Z</time>
      </trkpt>
      <trkpt lat="45.76355" lon="4.29176">
        <ele>344</ele>
        <time>2017-04-13T09:29:20.1Z</time>
      </trkpt>
      <trkpt lat="45.76361" lon="4.29178">
        <ele>344</ele>
        <time>2017-04-13T09:29:22.1Z</time>
      </trkpt>
      <trkpt lat="45.76368" lon="4.2918">
        <ele>344</ele>
        <time>2017-04-13T09:29:24.1Z</time>
      </trkpt>
      <trkpt lat="45.76378" lon="4.29183">
        <ele>343</ele>
        <time>2017-04-13T09:29:27.1Z</time>
      </trkpt>
      <trkpt lat="45.76384" lon="4.29185">
        <ele>343</ele>
        <time>2017-04-13T09:29:29.1Z</time>
      </trkpt>
      <trkpt lat="45.76393" lon="4.29186">
        <ele>343</ele>
        <time>2017-04-13T09:29:32.1Z</time>
      </trkpt>
      <trkpt lat="45.76398" lon="4.29187">
        <ele>344</ele>
        <time>2017-04-13T09:29:34.1Z</time>
      </trkpt>
      <trkpt lat="45.76405" lon="4.29188">
        <ele>344</ele>
        <time>2017-04-13T09:29:37.1Z</time>
      </trkpt>
      <trkpt lat="45.76408" lon="4.29189">
        <ele>344</ele>
        <time>2017-04-13T09:29:39.1Z</time>
      </trkpt>
      <trkpt lat="45.76413" lon="4.2919">
        <ele>344</ele>
        <time>2017-04-13T09:29:41.1Z</time>
      </trkpt>
      <trkpt lat="45.76417" lon="4.2919">
        <ele>344</ele>
        <time>2017-04-13T09:29:43.1Z</time>
      </trkpt>
      <trkpt lat="45.76421" lon="4.29191">
        <ele>343</ele>
        <time>2017-04-13T09:29:45.1Z</time>
      </trkpt>
      <trkpt lat="45.76426" lon="4.29192">
        <ele>343</ele>
        <time>2017-04-13T09:29:48.1Z</time>
      </trkpt>
      <trkpt lat="45.76432" lon="4.29192">
        <ele>344</ele>
        <time>2017-04-13T09:29:51.1Z</time>
      </trkpt>
      <trkpt lat="45.76435" lon="4.29192">
        <ele>344</ele>
        <time>2017-04-13T09:29:53.1Z</time>
      </trkpt>
      <trkpt lat="45.7644" lon="4.29192">
        <ele>344</ele>
        <time>2017-04-13T09:29:56.1Z</time>
      </trkpt>
      <trkpt lat="45.76445" lon="4.29192">
        <ele>344</ele>
        <time>2017-04-13T09:29:59.1Z</time>
      </trkpt>
      <trkpt lat="45.76448" lon="4.29192">
        <ele>344</ele>
        <time>2017-04-13T09:30:01.1Z</time>
      </trkpt>
      <trkpt lat="45.76452" lon="4.29192">
        <ele>344</ele>
        <time>2017-04-13T09:30:03.1Z</time>
      </trkpt>
      <trkpt lat="45.76457" lon="4.29192">
        <ele>344</ele>
        <time>2017-04-13T09:30:06.1Z</time>
      </trkpt>
      <trkpt lat="45.76461" lon="4.29192">
        <ele>344</ele>
        <time>2017-04-13T09:30:09.1Z</time>
      </trkpt>
      <trkpt lat="45.76463" lon="4.29192">
        <ele>344</ele>
        <time>2017-04-13T09:30:11.1Z</time>
      </trkpt>
      <trkpt lat="45.76467" lon="4.29192">
        <ele>344</ele>
        <time>2017-04-13T09:30:13.1Z</time>
      </trkpt>
      <trkpt lat="45.76471" lon="4.29191">
        <ele>344</ele>
        <time>2017-04-13T09:30:15.1Z</time>
      </trkpt>
      <trkpt lat="45.76473" lon="4.29191">
        <ele>344</ele>
        <time>2017-04-13T09:30:17.1Z</time>
      </trkpt>
      <trkpt lat="45.76476" lon="4.29191">
        <ele>344</ele>
        <time>2017-04-13T09:30:19.1Z</time>
      </trkpt>
      <trkpt lat="45.7648" lon="4.29191">
        <ele>344</ele>
        <time>2017-04-13T09:30:22.1Z</time>
      </trkpt>
      <trkpt lat="45.76482" lon="4.29191">
        <ele>344</ele>
        <time>2017-04-13T09:30:24.1Z</time>
      </trkpt>
      <trkpt lat="45.76485" lon="4.29192">
        <ele>344</ele>
        <time>2017-04-13T09:30:26.1Z</time>
      </trkpt>
      <trkpt lat="45.76488" lon="4.29192">
        <ele>344</ele>
        <time>2017-04-13T09:30:29.1Z</time>
      </trkpt>
      <trkpt lat="45.76491" lon="4.29192">
        <ele>344</ele>
        <time>2017-04-13T09:30:32.1Z</time>
      </trkpt>
      <trkpt lat="45.76494" lon="4.29192">
        <ele>344</ele>
        <time>2017-04-13T09:30:34.1Z</time>
      </trkpt>
      <trkpt lat="45.76498" lon="4.29193">
        <ele>344</ele>
        <time>2017-04-13T09:30:37.1Z</time>
      </trkpt>
      <trkpt lat="45.76503" lon="4.29192">
        <ele>345</ele>
        <time>2017-04-13T09:30:40.1Z</time>
      </trkpt>
      <trkpt lat="45.76506" lon="4.29191">
        <ele>346</ele>
        <time>2017-04-13T09:30:42.1Z</time>
      </trkpt>
      <trkpt lat="45.76509" lon="4.2919">
        <ele>346</ele>
        <time>2017-04-13T09:30:45.1Z</time>
      </trkpt>
      <trkpt lat="45.76512" lon="4.29189">
        <ele>346</ele>
        <time>2017-04-13T09:30:47.1Z</time>
      </trkpt>
      <trkpt lat="45.76516" lon="4.29186">
        <ele>346</ele>
        <time>2017-04-13T09:30:50.1Z</time>
      </trkpt>
      <trkpt lat="45.76519" lon="4.29183">
        <ele>347</ele>
        <time>2017-04-13T09:30:52.1Z</time>
      </trkpt>
      <trkpt lat="45.76522" lon="4.29181">
        <ele>347</ele>
        <time>2017-04-13T09:30:54.1Z</time>
      </trkpt>
      <trkpt lat="45.76524" lon="4.29178">
        <ele>347</ele>
        <time>2017-04-13T09:30:56.1Z</time>
      </trkpt>
      <trkpt lat="45.76527" lon="4.29174">
        <ele>347</ele>
        <time>2017-04-13T09:30:59.1Z</time>
      </trkpt>
      <trkpt lat="45.76529" lon="4.2917">
        <ele>347</ele>
        <time>2017-04-13T09:31:01.1Z</time>
      </trkpt>
      <trkpt lat="45.76532" lon="4.29164">
        <ele>347</ele>
        <time>2017-04-13T09:31:04.1Z</time>
      </trkpt>
      <trkpt lat="45.76535" lon="4.29161">
        <ele>347</ele>
        <time>2017-04-13T09:31:06.1Z</time>
      </trkpt>
      <trkpt lat="45.76538" lon="4.29159">
        <ele>347</ele>
        <time>2017-04-13T09:31:09.1Z</time>
      </trkpt>
      <trkpt lat="45.76542" lon="4.29157">
        <ele>347</ele>
        <time>2017-04-13T09:31:12.1Z</time>
      </trkpt>
      <trkpt lat="45.76544" lon="4.29156">
        <ele>347</ele>
        <time>2017-04-13T09:31:14.1Z</time>
      </trkpt>
      <trkpt lat="45.76546" lon="4.29155">
        <ele>347</ele>
        <time>2017-04-13T09:31:16.1Z</time>
      </trkpt>
      <trkpt lat="45.76548" lon="4.29154">
        <ele>346</ele>
        <time>2017-04-13T09:31:19.1Z</time>
      </trkpt>
      <trkpt lat="45.76552" lon="4.29153">
        <ele>345</ele>
        <time>2017-04-13T09:31:22.1Z</time>
      </trkpt>
      <trkpt lat="45.76555" lon="4.29152">
        <ele>345</ele>
        <time>2017-04-13T09:31:25.1Z</time>
      </trkpt>
      <trkpt lat="45.76557" lon="4.2915">
        <ele>345</ele>
        <time>2017-04-13T09:31:28.1Z</time>
      </trkpt>
      <trkpt lat="45.76559" lon="4.29149">
        <ele>345</ele>
        <time>2017-04-13T09:31:30.1Z</time>
      </trkpt>
      <trkpt lat="45.76563" lon="4.29147">
        <ele>344</ele>
        <time>2017-04-13T09:31:33.1Z</time>
      </trkpt>
      <trkpt lat="45.76564" lon="4.29147">
        <ele>344</ele>
        <time>2017-04-13T09:31:35.1Z</time>
      </trkpt>
      <trkpt lat="45.76569" lon="4.29145">
        <ele>344</ele>
        <time>2017-04-13T09:31:38.1Z</time>
      </trkpt>
      <trkpt lat="45.76571" lon="4.29143">
        <ele>344</ele>
        <time>2017-04-13T09:31:40.1Z</time>
      </trkpt>
      <trkpt lat="45.76575" lon="4.29142">
        <ele>344</ele>
        <time>2017-04-13T09:31:43.1Z</time>
      </trkpt>
      <trkpt lat="45.76578" lon="4.29142">
        <ele>345</ele>
        <time>2017-04-13T09:31:45.1Z</time>
      </trkpt>
      <trkpt lat="45.76582" lon="4.29141">
        <ele>345</ele>
        <time>2017-04-13T09:31:48.1Z</time>
      </trkpt>
      <trkpt lat="45.76585" lon="4.29142">
        <ele>345</ele>
        <time>2017-04-13T09:31:50.1Z</time>
      </trkpt>
      <trkpt lat="45.76589" lon="4.29142">
        <ele>344</ele>
        <time>2017-04-13T09:31:53.1Z</time>
      </trkpt>
      <trkpt lat="45.76594" lon="4.29142">
        <ele>344</ele>
        <time>2017-04-13T09:31:56.1Z</time>
      </trkpt>
      <trkpt lat="45.76598" lon="4.29141">
        <ele>344</ele>
        <time>2017-04-13T09:31:58.1Z</time>
      </trkpt>
      <trkpt lat="45.76601" lon="4.2914">
        <ele>345</ele>
        <time>2017-04-13T09:32:00.1Z</time>
      </trkpt>
      <trkpt lat="45.76606" lon="4.2914">
        <ele>345</ele>
        <time>2017-04-13T09:32:03.1Z</time>
      </trkpt>
      <trkpt lat="45.76611" lon="4.29139">
        <ele>345</ele>
        <time>2017-04-13T09:32:06.1Z</time>
      </trkpt>
      <trkpt lat="45.76616" lon="4.29138">
        <ele>345</ele>
        <time>2017-04-13T09:32:09.1Z</time>
      </trkpt>
      <trkpt lat="45.7662" lon="4.29138">
        <ele>345</ele>
        <time>2017-04-13T09:32:12.1Z</time>
      </trkpt>
      <trkpt lat="45.76625" lon="4.29138">
        <ele>345</ele>
        <time>2017-04-13T09:32:15.1Z</time>
      </trkpt>
      <trkpt lat="45.76631" lon="4.29138">
        <ele>345</ele>
        <time>2017-04-13T09:32:18.1Z</time>
      </trkpt>
      <trkpt lat="45.76633" lon="4.29138">
        <ele>345</ele>
        <time>2017-04-13T09:32:20.1Z</time>
      </trkpt>
      <trkpt lat="45.76637" lon="4.29138">
        <ele>345</ele>
        <time>2017-04-13T09:32:22.1Z</time>
      </trkpt>
      <trkpt lat="45.7664" lon="4.29138">
        <ele>345</ele>
        <time>2017-04-13T09:32:24.1Z</time>
      </trkpt>
      <trkpt lat="45.76643" lon="4.29138">
        <ele>345</ele>
        <time>2017-04-13T09:32:26.1Z</time>
      </trkpt>
      <trkpt lat="45.76649" lon="4.29138">
        <ele>345</ele>
        <time>2017-04-13T09:32:29.1Z</time>
      </trkpt>
      <trkpt lat="45.76654" lon="4.29138">
        <ele>344</ele>
        <time>2017-04-13T09:32:32.1Z</time>
      </trkpt>
      <trkpt lat="45.76659" lon="4.29138">
        <ele>344</ele>
        <time>2017-04-13T09:32:35.1Z</time>
      </trkpt>
      <trkpt lat="45.76662" lon="4.29138">
        <ele>345</ele>
        <time>2017-04-13T09:32:37.1Z</time>
      </trkpt>
      <trkpt lat="45.76666" lon="4.29138">
        <ele>345</ele>
        <time>2017-04-13T09:32:39.1Z</time>
      </trkpt>
      <trkpt lat="45.76671" lon="4.29138">
        <ele>345</ele>
        <time>2017-04-13T09:32:42.1Z</time>
      </trkpt>
      <trkpt lat="45.76674" lon="4.29138">
        <ele>344</ele>
        <time>2017-04-13T09:32:44.1Z</time>
      </trkpt>
      <trkpt lat="45.76677" lon="4.29137">
        <ele>344</ele>
        <time>2017-04-13T09:32:46.1Z</time>
      </trkpt>
      <trkpt lat="45.76683" lon="4.29137">
        <ele>344</ele>
        <time>2017-04-13T09:32:49.1Z</time>
      </trkpt>
      <trkpt lat="45.76686" lon="4.29137">
        <ele>344</ele>
        <time>2017-04-13T09:32:51.1Z</time>
      </trkpt>
      <trkpt lat="45.7669" lon="4.29136">
        <ele>344</ele>
        <time>2017-04-13T09:32:53.1Z</time>
      </trkpt>
      <trkpt lat="45.76693" lon="4.29136">
        <ele>344</ele>
        <time>2017-04-13T09:32:55.1Z</time>
      </trkpt>
      <trkpt lat="45.76698" lon="4.29136">
        <ele>344</ele>
        <time>2017-04-13T09:32:58.1Z</time>
      </trkpt>
      <trkpt lat="45.76702" lon="4.29136">
        <ele>345</ele>
        <time>2017-04-13T09:33:01.1Z</time>
      </trkpt>
      <trkpt lat="45.76706" lon="4.29135">
        <ele>345</ele>
        <time>2017-04-13T09:33:03.1Z</time>
      </trkpt>
      <trkpt lat="45.76709" lon="4.29135">
        <ele>345</ele>
        <time>2017-04-13T09:33:05.1Z</time>
      </trkpt>
      <trkpt lat="45.76714" lon="4.29135">
        <ele>345</ele>
        <time>2017-04-13T09:33:08.1Z</time>
      </trkpt>
      <trkpt lat="45.7672" lon="4.29135">
        <ele>345</ele>
        <time>2017-04-13T09:33:11.1Z</time>
      </trkpt>
      <trkpt lat="45.76724" lon="4.29134">
        <ele>345</ele>
        <time>2017-04-13T09:33:14.1Z</time>
      </trkpt>
      <trkpt lat="45.76728" lon="4.29134">
        <ele>345</ele>
        <time>2017-04-13T09:33:16.1Z</time>
      </trkpt>
      <trkpt lat="45.76733" lon="4.29134">
        <ele>344</ele>
        <time>2017-04-13T09:33:19.1Z</time>
      </trkpt>
      <trkpt lat="45.76737" lon="4.29133">
        <ele>345</ele>
        <time>2017-04-13T09:33:22.1Z</time>
      </trkpt>
      <trkpt lat="45.76741" lon="4.29133">
        <ele>345</ele>
        <time>2017-04-13T09:33:24.1Z</time>
      </trkpt>
      <trkpt lat="45.76744" lon="4.29132">
        <ele>345</ele>
        <time>2017-04-13T09:33:26.1Z</time>
      </trkpt>
      <trkpt lat="45.76749" lon="4.29132">
        <ele>345</ele>
        <time>2017-04-13T09:33:29.1Z</time>
      </trkpt>
      <trkpt lat="45.76752" lon="4.29132">
        <ele>345</ele>
        <time>2017-04-13T09:33:31.1Z</time>
      </trkpt>
      <trkpt lat="45.76757" lon="4.29132">
        <ele>345</ele>
        <time>2017-04-13T09:33:34.1Z</time>
      </trkpt>
      <trkpt lat="45.76759" lon="4.29132">
        <ele>346</ele>
        <time>2017-04-13T09:33:36.1Z</time>
      </trkpt>
      <trkpt lat="45.76762" lon="4.29132">
        <ele>346</ele>
        <time>2017-04-13T09:33:38.1Z</time>
      </trkpt>
      <trkpt lat="45.76765" lon="4.29134">
        <ele>346</ele>
        <time>2017-04-13T09:33:40.1Z</time>
      </trkpt>
      <trkpt lat="45.7677" lon="4.29133">
        <ele>346</ele>
        <time>2017-04-13T09:33:43.1Z</time>
      </trkpt>
      <trkpt lat="45.76773" lon="4.29133">
        <ele>346</ele>
        <time>2017-04-13T09:33:45.1Z</time>
      </trkpt>
      <trkpt lat="45.76777" lon="4.29132">
        <ele>345</ele>
        <time>2017-04-13T09:33:48.1Z</time>
      </trkpt>
      <trkpt lat="45.7678" lon="4.29131">
        <ele>345</ele>
        <time>2017-04-13T09:33:50.1Z</time>
      </trkpt>
      <trkpt lat="45.76783" lon="4.29129">
        <ele>346</ele>
        <time>2017-04-13T09:33:52.1Z</time>
      </trkpt>
      <trkpt lat="45.76786" lon="4.29128">
        <ele>346</ele>
        <time>2017-04-13T09:33:54.1Z</time>
      </trkpt>
      <trkpt lat="45.76789" lon="4.29127">
        <ele>346</ele>
        <time>2017-04-13T09:33:57.1Z</time>
      </trkpt>
      <trkpt lat="45.76792" lon="4.29125">
        <ele>346</ele>
        <time>2017-04-13T09:33:59.1Z</time>
      </trkpt>
      <trkpt lat="45.76796" lon="4.29123">
        <ele>346</ele>
        <time>2017-04-13T09:34:02.1Z</time>
      </trkpt>
      <trkpt lat="45.76799" lon="4.29121">
        <ele>346</ele>
        <time>2017-04-13T09:34:04.1Z</time>
      </trkpt>
      <trkpt lat="45.76802" lon="4.2912">
        <ele>346</ele>
        <time>2017-04-13T09:34:06.1Z</time>
      </trkpt>
      <trkpt lat="45.76805" lon="4.29118">
        <ele>346</ele>
        <time>2017-04-13T09:34:08.1Z</time>
      </trkpt>
      <trkpt lat="45.76809" lon="4.29117">
        <ele>347</ele>
        <time>2017-04-13T09:34:10.1Z</time>
      </trkpt>
      <trkpt lat="45.76814" lon="4.29114">
        <ele>347</ele>
        <time>2017-04-13T09:34:13.1Z</time>
      </trkpt>
      <trkpt lat="45.76818" lon="4.29112">
        <ele>347</ele>
        <time>2017-04-13T09:34:16.1Z</time>
      </trkpt>
      <trkpt lat="45.76822" lon="4.2911">
        <ele>347</ele>
        <time>2017-04-13T09:34:18.1Z</time>
      </trkpt>
      <trkpt lat="45.76825" lon="4.29108">
        <ele>347</ele>
        <time>2017-04-13T09:34:20.1Z</time>
      </trkpt>
      <trkpt lat="45.76827" lon="4.29107">
        <ele>347</ele>
        <time>2017-04-13T09:34:22.1Z</time>
      </trkpt>
      <trkpt lat="45.76829" lon="4.29105">
        <ele>347</ele>
        <time>2017-04-13T09:34:24.1Z</time>
      </trkpt>
      <trkpt lat="45.76832" lon="4.29103">
        <ele>348</ele>
        <time>2017-04-13T09:34:26.1Z</time>
      </trkpt>
      <trkpt lat="45.76835" lon="4.291">
        <ele>348</ele>
        <time>2017-04-13T09:34:29.1Z</time>
      </trkpt>
      <trkpt lat="45.76839" lon="4.29098">
        <ele>348</ele>
        <time>2017-04-13T09:34:32.1Z</time>
      </trkpt>
      <trkpt lat="45.76843" lon="4.29095">
        <ele>347</ele>
        <time>2017-04-13T09:34:35.1Z</time>
      </trkpt>
      <trkpt lat="45.76846" lon="4.29093">
        <ele>348</ele>
        <time>2017-04-13T09:34:37.1Z</time>
      </trkpt>
      <trkpt lat="45.76848" lon="4.2909">
        <ele>348</ele>
        <time>2017-04-13T09:34:39.1Z</time>
      </trkpt>
      <trkpt lat="45.76853" lon="4.29087">
        <ele>348</ele>
        <time>2017-04-13T09:34:42.1Z</time>
      </trkpt>
      <trkpt lat="45.76858" lon="4.29084">
        <ele>348</ele>
        <time>2017-04-13T09:34:45.1Z</time>
      </trkpt>
      <trkpt lat="45.7686" lon="4.29083">
        <ele>348</ele>
        <time>2017-04-13T09:34:47.1Z</time>
      </trkpt>
      <trkpt lat="45.76865" lon="4.2908">
        <ele>348</ele>
        <time>2017-04-13T09:34:50.1Z</time>
      </trkpt>
      <trkpt lat="45.76867" lon="4.29078">
        <ele>348</ele>
        <time>2017-04-13T09:34:52.1Z</time>
      </trkpt>
      <trkpt lat="45.7687" lon="4.29076">
        <ele>348</ele>
        <time>2017-04-13T09:34:54.1Z</time>
      </trkpt>
      <trkpt lat="45.76873" lon="4.29074">
        <ele>348</ele>
        <time>2017-04-13T09:34:57.1Z</time>
      </trkpt>
      <trkpt lat="45.76874" lon="4.29073">
        <ele>348</ele>
        <time>2017-04-13T09:34:59.1Z</time>
      </trkpt>
      <trkpt lat="45.76876" lon="4.29071">
        <ele>348</ele>
        <time>2017-04-13T09:35:01.1Z</time>
      </trkpt>
      <trkpt lat="45.7688" lon="4.29069">
        <ele>348</ele>
        <time>2017-04-13T09:35:04.1Z</time>
      </trkpt>
      <trkpt lat="45.76882" lon="4.29067">
        <ele>348</ele>
        <time>2017-04-13T09:35:06.1Z</time>
      </trkpt>
      <trkpt lat="45.76886" lon="4.29065">
        <ele>348</ele>
        <time>2017-04-13T09:35:09.1Z</time>
      </trkpt>
      <trkpt lat="45.76887" lon="4.29065">
        <ele>348</ele>
        <time>2017-04-13T09:35:12.1Z</time>
      </trkpt>
      <trkpt lat="45.76889" lon="4.29063">
        <ele>348</ele>
        <time>2017-04-13T09:35:14.1Z</time>
      </trkpt>
      <trkpt lat="45.76893" lon="4.2906">
        <ele>348</ele>
        <time>2017-04-13T09:35:17.1Z</time>
      </trkpt>
      <trkpt lat="45.76896" lon="4.29057">
        <ele>348</ele>
        <time>2017-04-13T09:35:19.1Z</time>
      </trkpt>
      <trkpt lat="45.76898" lon="4.29055">
        <ele>348</ele>
        <time>2017-04-13T09:35:21.1Z</time>
      </trkpt>
      <trkpt lat="45.76901" lon="4.29053">
        <ele>348</ele>
        <time>2017-04-13T09:35:23.1Z</time>
      </trkpt>
      <trkpt lat="45.76905" lon="4.29051">
        <ele>348</ele>
        <time>2017-04-13T09:35:26.1Z</time>
      </trkpt>
      <trkpt lat="45.76908" lon="4.29049">
        <ele>348</ele>
        <time>2017-04-13T09:35:28.1Z</time>
      </trkpt>
      <trkpt lat="45.7691" lon="4.29047">
        <ele>348</ele>
        <time>2017-04-13T09:35:30.1Z</time>
      </trkpt>
      <trkpt lat="45.76914" lon="4.29044">
        <ele>348</ele>
        <time>2017-04-13T09:35:33.1Z</time>
      </trkpt>
      <trkpt lat="45.76916" lon="4.29042">
        <ele>348</ele>
        <time>2017-04-13T09:35:35.1Z</time>
      </trkpt>
      <trkpt lat="45.76919" lon="4.2904">
        <ele>348</ele>
        <time>2017-04-13T09:35:37.1Z</time>
      </trkpt>
      <trkpt lat="45.76922" lon="4.29039">
        <ele>348</ele>
        <time>2017-04-13T09:35:39.1Z</time>
      </trkpt>
      <trkpt lat="45.76926" lon="4.29036">
        <ele>348</ele>
        <time>2017-04-13T09:35:42.1Z</time>
      </trkpt>
      <trkpt lat="45.76929" lon="4.29035">
        <ele>348</ele>
        <time>2017-04-13T09:35:44.1Z</time>
      </trkpt>
      <trkpt lat="45.76932" lon="4.29033">
        <ele>348</ele>
        <time>2017-04-13T09:35:46.1Z</time>
      </trkpt>
      <trkpt lat="45.76936" lon="4.2903">
        <ele>348</ele>
        <time>2017-04-13T09:35:49.1Z</time>
      </trkpt>
      <trkpt lat="45.76941" lon="4.29028">
        <ele>348</ele>
        <time>2017-04-13T09:35:52.1Z</time>
      </trkpt>
      <trkpt lat="45.76943" lon="4.29026">
        <ele>348</ele>
        <time>2017-04-13T09:35:54.1Z</time>
      </trkpt>
      <trkpt lat="45.76945" lon="4.29025">
        <ele>348</ele>
        <time>2017-04-13T09:35:56.1Z</time>
      </trkpt>
      <trkpt lat="45.76949" lon="4.29023">
        <ele>348</ele>
        <time>2017-04-13T09:35:59.1Z</time>
      </trkpt>
      <trkpt lat="45.76952" lon="4.2902">
        <ele>348</ele>
        <time>2017-04-13T09:36:01.1Z</time>
      </trkpt>
      <trkpt lat="45.76955" lon="4.29019">
        <ele>348</ele>
        <time>2017-04-13T09:36:03.1Z</time>
      </trkpt>
      <trkpt lat="45.76958" lon="4.29017">
        <ele>348</ele>
        <time>2017-04-13T09:36:05.1Z</time>
      </trkpt>
      <trkpt lat="45.76963" lon="4.29015">
        <ele>348</ele>
        <time>2017-04-13T09:36:08.1Z</time>
      </trkpt>
      <trkpt lat="45.76966" lon="4.29013">
        <ele>348</ele>
        <time>2017-04-13T09:36:10.1Z</time>
      </trkpt>
      <trkpt lat="45.7697" lon="4.2901">
        <ele>348</ele>
        <time>2017-04-13T09:36:13.1Z</time>
      </trkpt>
      <trkpt lat="45.76974" lon="4.29008">
        <ele>348</ele>
        <time>2017-04-13T09:36:16.1Z</time>
      </trkpt>
      <trkpt lat="45.76977" lon="4.29006">
        <ele>349</ele>
        <time>2017-04-13T09:36:18.1Z</time>
      </trkpt>
      <trkpt lat="45.76981" lon="4.29004">
        <ele>349</ele>
        <time>2017-04-13T09:36:21.1Z</time>
      </trkpt>
      <trkpt lat="45.76985" lon="4.29001">
        <ele>349</ele>
        <time>2017-04-13T09:36:24.1Z</time>
      </trkpt>
      <trkpt lat="45.76987" lon="4.29">
        <ele>349</ele>
        <time>2017-04-13T09:36:26.1Z</time>
      </trkpt>
      <trkpt lat="45.7699" lon="4.28997">
        <ele>349</ele>
        <time>2017-04-13T09:36:29.1Z</time>
      </trkpt>
      <trkpt lat="45.76992" lon="4.28996">
        <ele>349</ele>
        <time>2017-04-13T09:36:31.1Z</time>
      </trkpt>
      <trkpt lat="45.76995" lon="4.28994">
        <ele>349</ele>
        <time>2017-04-13T09:36:34.1Z</time>
      </trkpt>
      <trkpt lat="45.76998" lon="4.28993">
        <ele>349</ele>
        <time>2017-04-13T09:36:36.1Z</time>
      </trkpt>
      <trkpt lat="45.77002" lon="4.2899">
        <ele>349</ele>
        <time>2017-04-13T09:36:39.1Z</time>
      </trkpt>
      <trkpt lat="45.77005" lon="4.28989">
        <ele>349</ele>
        <time>2017-04-13T09:36:41.1Z</time>
      </trkpt>
      <trkpt lat="45.77009" lon="4.28987">
        <ele>349</ele>
        <time>2017-04-13T09:36:44.1Z</time>
      </trkpt>
      <trkpt lat="45.77012" lon="4.28985">
        <ele>349</ele>
        <time>2017-04-13T09:36:46.1Z</time>
      </trkpt>
      <trkpt lat="45.77015" lon="4.28984">
        <ele>349</ele>
        <time>2017-04-13T09:36:48.1Z</time>
      </trkpt>
      <trkpt lat="45.77018" lon="4.28983">
        <ele>349</ele>
        <time>2017-04-13T09:36:50.1Z</time>
      </trkpt>
      <trkpt lat="45.77023" lon="4.2898">
        <ele>349</ele>
        <time>2017-04-13T09:36:53.1Z</time>
      </trkpt>
      <trkpt lat="45.77027" lon="4.28978">
        <ele>349</ele>
        <time>2017-04-13T09:36:56.1Z</time>
      </trkpt>
      <trkpt lat="45.77032" lon="4.28976">
        <ele>349</ele>
        <time>2017-04-13T09:36:59.1Z</time>
      </trkpt>
      <trkpt lat="45.77035" lon="4.28975">
        <ele>349</ele>
        <time>2017-04-13T09:37:01.1Z</time>
      </trkpt>
      <trkpt lat="45.77038" lon="4.28973">
        <ele>349</ele>
        <time>2017-04-13T09:37:03.1Z</time>
      </trkpt>
      <trkpt lat="45.77042" lon="4.28971">
        <ele>349</ele>
        <time>2017-04-13T09:37:06.1Z</time>
      </trkpt>
      <trkpt lat="45.77046" lon="4.28968">
        <ele>349</ele>
        <time>2017-04-13T09:37:09.1Z</time>
      </trkpt>
      <trkpt lat="45.77049" lon="4.28967">
        <ele>349</ele>
        <time>2017-04-13T09:37:11.1Z</time>
      </trkpt>
      <trkpt lat="45.77052" lon="4.28966">
        <ele>349</ele>
        <time>2017-04-13T09:37:13.1Z</time>
      </trkpt>
      <trkpt lat="45.77055" lon="4.28965">
        <ele>349</ele>
        <time>2017-04-13T09:37:15.1Z</time>
      </trkpt>
      <trkpt lat="45.77058" lon="4.28963">
        <ele>349</ele>
        <time>2017-04-13T09:37:18.1Z</time>
      </trkpt>
      <trkpt lat="45.77059" lon="4.28962">
        <ele>349</ele>
        <time>2017-04-13T09:37:20.1Z</time>
      </trkpt>
      <trkpt lat="45.7706" lon="4.28962">
        <ele>350</ele>
        <time>2017-04-13T09:37:22.1Z</time>
      </trkpt>
      <trkpt lat="45.77061" lon="4.28962">
        <ele>349</ele>
        <time>2017-04-13T09:37:24.1Z</time>
      </trkpt>
      <trkpt lat="45.77063" lon="4.28961">
        <ele>349</ele>
        <time>2017-04-13T09:37:26.1Z</time>
      </trkpt>
      <trkpt lat="45.77066" lon="4.2896">
        <ele>350</ele>
        <time>2017-04-13T09:37:28.1Z</time>
      </trkpt>
      <trkpt lat="45.7707" lon="4.28958">
        <ele>349</ele>
        <time>2017-04-13T09:37:31.1Z</time>
      </trkpt>
      <trkpt lat="45.77075" lon="4.28956">
        <ele>349</ele>
        <time>2017-04-13T09:37:34.1Z</time>
      </trkpt>
      <trkpt lat="45.77079" lon="4.28954">
        <ele>349</ele>
        <time>2017-04-13T09:37:37.1Z</time>
      </trkpt>
      <trkpt lat="45.77082" lon="4.28953">
        <ele>350</ele>
        <time>2017-04-13T09:37:39.1Z</time>
      </trkpt>
      <trkpt lat="45.77085" lon="4.28952">
        <ele>350</ele>
        <time>2017-04-13T09:37:41.1Z</time>
      </trkpt>
      <trkpt lat="45.7709" lon="4.2895">
        <ele>350</ele>
        <time>2017-04-13T09:37:44.1Z</time>
      </trkpt>
      <trkpt lat="45.77093" lon="4.28949">
        <ele>350</ele>
        <time>2017-04-13T09:37:46.1Z</time>
      </trkpt>
      <trkpt lat="45.77097" lon="4.28947">
        <ele>350</ele>
        <time>2017-04-13T09:37:49.1Z</time>
      </trkpt>
      <trkpt lat="45.771" lon="4.28946">
        <ele>350</ele>
        <time>2017-04-13T09:37:51.1Z</time>
      </trkpt>
      <trkpt lat="45.77104" lon="4.28945">
        <ele>350</ele>
        <time>2017-04-13T09:37:54.1Z</time>
      </trkpt>
      <trkpt lat="45.77108" lon="4.28943">
        <ele>350</ele>
        <time>2017-04-13T09:37:57.1Z</time>
      </trkpt>
      <trkpt lat="45.77111" lon="4.28942">
        <ele>350</ele>
        <time>2017-04-13T09:38:00.1Z</time>
      </trkpt>
      <trkpt lat="45.77114" lon="4.28941">
        <ele>350</ele>
        <time>2017-04-13T09:38:02.1Z</time>
      </trkpt>
      <trkpt lat="45.77117" lon="4.28941">
        <ele>350</ele>
        <time>2017-04-13T09:38:04.1Z</time>
      </trkpt>
      <trkpt lat="45.77119" lon="4.2894">
        <ele>350</ele>
        <time>2017-04-13T09:38:06.1Z</time>
      </trkpt>
      <trkpt lat="45.77121" lon="4.28939">
        <ele>350</ele>
        <time>2017-04-13T09:38:08.1Z</time>
      </trkpt>
      <trkpt lat="45.77125" lon="4.28937">
        <ele>350</ele>
        <time>2017-04-13T09:38:11.1Z</time>
      </trkpt>
      <trkpt lat="45.7713" lon="4.28936">
        <ele>350</ele>
        <time>2017-04-13T09:38:14.1Z</time>
      </trkpt>
      <trkpt lat="45.77135" lon="4.28935">
        <ele>351</ele>
        <time>2017-04-13T09:38:17.1Z</time>
      </trkpt>
      <trkpt lat="45.77139" lon="4.28934">
        <ele>351</ele>
        <time>2017-04-13T09:38:20.1Z</time>
      </trkpt>
      <trkpt lat="45.77141" lon="4.28934">
        <ele>351</ele>
        <time>2017-04-13T09:38:22.1Z</time>
      </trkpt>
      <trkpt lat="45.77144" lon="4.28933">
        <ele>351</ele>
        <time>2017-04-13T09:38:24.1Z</time>
      </trkpt>
      <trkpt lat="45.77147" lon="4.28932">
        <ele>350</ele>
        <time>2017-04-13T09:38:26.1Z</time>
      </trkpt>
      <trkpt lat="45.7715" lon="4.28932">
        <ele>351</ele>
        <time>2017-04-13T09:38:28.1Z</time>
      </trkpt>
      <trkpt lat="45.77152" lon="4.28932">
        <ele>351</ele>
        <time>2017-04-13T09:38:30.1Z</time>
      </trkpt>
      <trkpt lat="45.77156" lon="4.28932">
        <ele>351</ele>
        <time>2017-04-13T09:38:33.1Z</time>
      </trkpt>
      <trkpt lat="45.7716" lon="4.28932">
        <ele>351</ele>
        <time>2017-04-13T09:38:35.1Z</time>
      </trkpt>
      <trkpt lat="45.77164" lon="4.28931">
        <ele>351</ele>
        <time>2017-04-13T09:38:37.1Z</time>
      </trkpt>
      <trkpt lat="45.77171" lon="4.2893">
        <ele>351</ele>
        <time>2017-04-13T09:38:40.1Z</time>
      </trkpt>
      <trkpt lat="45.77174" lon="4.28929">
        <ele>351</ele>
        <time>2017-04-13T09:38:42.1Z</time>
      </trkpt>
      <trkpt lat="45.77177" lon="4.28928">
        <ele>351</ele>
        <time>2017-04-13T09:38:44.1Z</time>
      </trkpt>
      <trkpt lat="45.7718" lon="4.28927">
        <ele>351</ele>
        <time>2017-04-13T09:38:46.1Z</time>
      </trkpt>
      <trkpt lat="45.77185" lon="4.28926">
        <ele>351</ele>
        <time>2017-04-13T09:38:49.1Z</time>
      </trkpt>
      <trkpt lat="45.77188" lon="4.28925">
        <ele>351</ele>
        <time>2017-04-13T09:38:51.1Z</time>
      </trkpt>
      <trkpt lat="45.77192" lon="4.28924">
        <ele>351</ele>
        <time>2017-04-13T09:38:53.1Z</time>
      </trkpt>
      <trkpt lat="45.77196" lon="4.28922">
        <ele>351</ele>
        <time>2017-04-13T09:38:56.1Z</time>
      </trkpt>
      <trkpt lat="45.77199" lon="4.28922">
        <ele>351</ele>
        <time>2017-04-13T09:38:58.1Z</time>
      </trkpt>
      <trkpt lat="45.77201" lon="4.28921">
        <ele>351</ele>
        <time>2017-04-13T09:39:00.1Z</time>
      </trkpt>
      <trkpt lat="45.77205" lon="4.2892">
        <ele>352</ele>
        <time>2017-04-13T09:39:03.1Z</time>
      </trkpt>
      <trkpt lat="45.77208" lon="4.28919">
        <ele>352</ele>
        <time>2017-04-13T09:39:05.1Z</time>
      </trkpt>
      <trkpt lat="45.77212" lon="4.28918">
        <ele>352</ele>
        <time>2017-04-13T09:39:08.1Z</time>
      </trkpt>
      <trkpt lat="45.77215" lon="4.28918">
        <ele>352</ele>
        <time>2017-04-13T09:39:10.1Z</time>
      </trkpt>
      <trkpt lat="45.77219" lon="4.28917">
        <ele>352</ele>
        <time>2017-04-13T09:39:13.1Z</time>
      </trkpt>
      <trkpt lat="45.77221" lon="4.28917">
        <ele>352</ele>
        <time>2017-04-13T09:39:15.1Z</time>
      </trkpt>
      <trkpt lat="45.77223" lon="4.28916">
        <ele>352</ele>
        <time>2017-04-13T09:39:17.1Z</time>
      </trkpt>
      <trkpt lat="45.77228" lon="4.28914">
        <ele>352</ele>
        <time>2017-04-13T09:39:20.1Z</time>
      </trkpt>
      <trkpt lat="45.77232" lon="4.28913">
        <ele>352</ele>
        <time>2017-04-13T09:39:23.1Z</time>
      </trkpt>
      <trkpt lat="45.77235" lon="4.28912">
        <ele>352</ele>
        <time>2017-04-13T09:39:25.1Z</time>
      </trkpt>
      <trkpt lat="45.77237" lon="4.28912">
        <ele>352</ele>
        <time>2017-04-13T09:39:27.1Z</time>
      </trkpt>
      <trkpt lat="45.7724" lon="4.28912">
        <ele>352</ele>
        <time>2017-04-13T09:39:29.1Z</time>
      </trkpt>
      <trkpt lat="45.77242" lon="4.28912">
        <ele>352</ele>
        <time>2017-04-13T09:39:31.1Z</time>
      </trkpt>
      <trkpt lat="45.77245" lon="4.28912">
        <ele>352</ele>
        <time>2017-04-13T09:39:33.1Z</time>
      </trkpt>
      <trkpt lat="45.77249" lon="4.28912">
        <ele>352</ele>
        <time>2017-04-13T09:39:36.1Z</time>
      </trkpt>
      <trkpt lat="45.77254" lon="4.28911">
        <ele>352</ele>
        <time>2017-04-13T09:39:39.1Z</time>
      </trkpt>
      <trkpt lat="45.77258" lon="4.28911">
        <ele>352</ele>
        <time>2017-04-13T09:39:42.1Z</time>
      </trkpt>
      <trkpt lat="45.77261" lon="4.2891">
        <ele>353</ele>
        <time>2017-04-13T09:39:45.1Z</time>
      </trkpt>
      <trkpt lat="45.77264" lon="4.28909">
        <ele>353</ele>
        <time>2017-04-13T09:39:47.1Z</time>
      </trkpt>
      <trkpt lat="45.77266" lon="4.28909">
        <ele>353</ele>
        <time>2017-04-13T09:39:49.1Z</time>
      </trkpt>
      <trkpt lat="45.77268" lon="4.28907">
        <ele>353</ele>
        <time>2017-04-13T09:39:52.1Z</time>
      </trkpt>
      <trkpt lat="45.77271" lon="4.28904">
        <ele>353</ele>
        <time>2017-04-13T09:39:55.1Z</time>
      </trkpt>
      <trkpt lat="45.77274" lon="4.28902">
        <ele>353</ele>
        <time>2017-04-13T09:39:57.1Z</time>
      </trkpt>
      <trkpt lat="45.77277" lon="4.28897">
        <ele>353</ele>
        <time>2017-04-13T09:40:00.1Z</time>
      </trkpt>
      <trkpt lat="45.7728" lon="4.28895">
        <ele>353</ele>
        <time>2017-04-13T09:40:02.1Z</time>
      </trkpt>
      <trkpt lat="45.77283" lon="4.28892">
        <ele>353</ele>
        <time>2017-04-13T09:40:05.1Z</time>
      </trkpt>
      <trkpt lat="45.77285" lon="4.28889">
        <ele>353</ele>
        <time>2017-04-13T09:40:07.1Z</time>
      </trkpt>
      <trkpt lat="45.77288" lon="4.28885">
        <ele>354</ele>
        <time>2017-04-13T09:40:10.1Z</time>
      </trkpt>
      <trkpt lat="45.77291" lon="4.2888">
        <ele>354</ele>
        <time>2017-04-13T09:40:13.1Z</time>
      </trkpt>
      <trkpt lat="45.77294" lon="4.28877">
        <ele>354</ele>
        <time>2017-04-13T09:40:15.1Z</time>
      </trkpt>
      <trkpt lat="45.77297" lon="4.28874">
        <ele>353</ele>
        <time>2017-04-13T09:40:18.1Z</time>
      </trkpt>
      <trkpt lat="45.77301" lon="4.28871">
        <ele>353</ele>
        <time>2017-04-13T09:40:21.1Z</time>
      </trkpt>
      <trkpt lat="45.77304" lon="4.28867">
        <ele>354</ele>
        <time>2017-04-13T09:40:23.1Z</time>
      </trkpt>
      <trkpt lat="45.77308" lon="4.28864">
        <ele>354</ele>
        <time>2017-04-13T09:40:26.1Z</time>
      </trkpt>
      <trkpt lat="45.7731" lon="4.28861">
        <ele>354</ele>
        <time>2017-04-13T09:40:28.1Z</time>
      </trkpt>
      <trkpt lat="45.77313" lon="4.28859">
        <ele>354</ele>
        <time>2017-04-13T09:40:30.1Z</time>
      </trkpt>
      <trkpt lat="45.77315" lon="4.28856">
        <ele>354</ele>
        <time>2017-04-13T09:40:32.1Z</time>
      </trkpt>
      <trkpt lat="45.77318" lon="4.28853">
        <ele>354</ele>
        <time>2017-04-13T09:40:34.1Z</time>
      </trkpt>
      <trkpt lat="45.77321" lon="4.2885">
        <ele>354</ele>
        <time>2017-04-13T09:40:36.1Z</time>
      </trkpt>
      <trkpt lat="45.77326" lon="4.28846">
        <ele>353</ele>
        <time>2017-04-13T09:40:39.1Z</time>
      </trkpt>
      <trkpt lat="45.77329" lon="4.28844">
        <ele>354</ele>
        <time>2017-04-13T09:40:41.1Z</time>
      </trkpt>
      <trkpt lat="45.77334" lon="4.2884">
        <ele>354</ele>
        <time>2017-04-13T09:40:44.1Z</time>
      </trkpt>
      <trkpt lat="45.77337" lon="4.28838">
        <ele>354</ele>
        <time>2017-04-13T09:40:46.1Z</time>
      </trkpt>
      <trkpt lat="45.7734" lon="4.28835">
        <ele>354</ele>
        <time>2017-04-13T09:40:48.1Z</time>
      </trkpt>
      <trkpt lat="45.77342" lon="4.28832">
        <ele>354</ele>
        <time>2017-04-13T09:40:50.1Z</time>
      </trkpt>
      <trkpt lat="45.77346" lon="4.28829">
        <ele>354</ele>
        <time>2017-04-13T09:40:53.1Z</time>
      </trkpt>
      <trkpt lat="45.77349" lon="4.28825">
        <ele>354</ele>
        <time>2017-04-13T09:40:56.1Z</time>
      </trkpt>
      <trkpt lat="45.77352" lon="4.28824">
        <ele>354</ele>
        <time>2017-04-13T09:40:58.1Z</time>
      </trkpt>
      <trkpt lat="45.77356" lon="4.28822">
        <ele>354</ele>
        <time>2017-04-13T09:41:01.1Z</time>
      </trkpt>
      <trkpt lat="45.7736" lon="4.28819">
        <ele>354</ele>
        <time>2017-04-13T09:41:04.1Z</time>
      </trkpt>
      <trkpt lat="45.77364" lon="4.28817">
        <ele>354</ele>
        <time>2017-04-13T09:41:07.1Z</time>
      </trkpt>
      <trkpt lat="45.77367" lon="4.28816">
        <ele>354</ele>
        <time>2017-04-13T09:41:09.1Z</time>
      </trkpt>
      <trkpt lat="45.7737" lon="4.28815">
        <ele>354</ele>
        <time>2017-04-13T09:41:11.1Z</time>
      </trkpt>
      <trkpt lat="45.77375" lon="4.28813">
        <ele>354</ele>
        <time>2017-04-13T09:41:14.1Z</time>
      </trkpt>
      <trkpt lat="45.77379" lon="4.28813">
        <ele>354</ele>
        <time>2017-04-13T09:41:16.1Z</time>
      </trkpt>
      <trkpt lat="45.77383" lon="4.28813">
        <ele>354</ele>
        <time>2017-04-13T09:41:19.1Z</time>
      </trkpt>
      <trkpt lat="45.77384" lon="4.28812">
        <ele>354</ele>
        <time>2017-04-13T09:41:21.1Z</time>
      </trkpt>
      <trkpt lat="45.77386" lon="4.28812">
        <ele>354</ele>
        <time>2017-04-13T09:41:23.1Z</time>
      </trkpt>
      <trkpt lat="45.77389" lon="4.28811">
        <ele>354</ele>
        <time>2017-04-13T09:41:25.1Z</time>
      </trkpt>
      <trkpt lat="45.77392" lon="4.28811">
        <ele>354</ele>
        <time>2017-04-13T09:41:27.1Z</time>
      </trkpt>
      <trkpt lat="45.77398" lon="4.28811">
        <ele>354</ele>
        <time>2017-04-13T09:41:30.1Z</time>
      </trkpt>
      <trkpt lat="45.77402" lon="4.28811">
        <ele>354</ele>
        <time>2017-04-13T09:41:32.1Z</time>
      </trkpt>
      <trkpt lat="45.77405" lon="4.28812">
        <ele>354</ele>
        <time>2017-04-13T09:41:34.1Z</time>
      </trkpt>
      <trkpt lat="45.77409" lon="4.28813">
        <ele>354</ele>
        <time>2017-04-13T09:41:37.1Z</time>
      </trkpt>
      <trkpt lat="45.77414" lon="4.28814">
        <ele>354</ele>
        <time>2017-04-13T09:41:40.1Z</time>
      </trkpt>
      <trkpt lat="45.77418" lon="4.28816">
        <ele>354</ele>
        <time>2017-04-13T09:41:43.1Z</time>
      </trkpt>
      <trkpt lat="45.7742" lon="4.28817">
        <ele>354</ele>
        <time>2017-04-13T09:41:45.1Z</time>
      </trkpt>
      <trkpt lat="45.77424" lon="4.28819">
        <ele>355</ele>
        <time>2017-04-13T09:41:48.1Z</time>
      </trkpt>
      <trkpt lat="45.77426" lon="4.2882">
        <ele>355</ele>
        <time>2017-04-13T09:41:50.1Z</time>
      </trkpt>
      <trkpt lat="45.7743" lon="4.28822">
        <ele>354</ele>
        <time>2017-04-13T09:41:53.1Z</time>
      </trkpt>
      <trkpt lat="45.77433" lon="4.28824">
        <ele>355</ele>
        <time>2017-04-13T09:41:55.1Z</time>
      </trkpt>
      <trkpt lat="45.77438" lon="4.28827">
        <ele>355</ele>
        <time>2017-04-13T09:41:58.1Z</time>
      </trkpt>
      <trkpt lat="45.77441" lon="4.28829">
        <ele>355</ele>
        <time>2017-04-13T09:42:00.1Z</time>
      </trkpt>
      <trkpt lat="45.77444" lon="4.28831">
        <ele>355</ele>
        <time>2017-04-13T09:42:02.1Z</time>
      </trkpt>
      <trkpt lat="45.77448" lon="4.28833">
        <ele>355</ele>
        <time>2017-04-13T09:42:04.1Z</time>
      </trkpt>
      <trkpt lat="45.77453" lon="4.28835">
        <ele>354</ele>
        <time>2017-04-13T09:42:07.1Z</time>
      </trkpt>
      <trkpt lat="45.77458" lon="4.28838">
        <ele>355</ele>
        <time>2017-04-13T09:42:10.1Z</time>
      </trkpt>
      <trkpt lat="45.77462" lon="4.28839">
        <ele>355</ele>
        <time>2017-04-13T09:42:12.1Z</time>
      </trkpt>
      <trkpt lat="45.77468" lon="4.28841">
        <ele>355</ele>
        <time>2017-04-13T09:42:15.1Z</time>
      </trkpt>
      <trkpt lat="45.77473" lon="4.28844">
        <ele>356</ele>
        <time>2017-04-13T09:42:18.1Z</time>
      </trkpt>
      <trkpt lat="45.77477" lon="4.28846">
        <ele>356</ele>
        <time>2017-04-13T09:42:21.1Z</time>
      </trkpt>
      <trkpt lat="45.77482" lon="4.28849">
        <ele>356</ele>
        <time>2017-04-13T09:42:24.1Z</time>
      </trkpt>
      <trkpt lat="45.77485" lon="4.2885">
        <ele>356</ele>
        <time>2017-04-13T09:42:26.1Z</time>
      </trkpt>
      <trkpt lat="45.77489" lon="4.28853">
        <ele>356</ele>
        <time>2017-04-13T09:42:29.1Z</time>
      </trkpt>
      <trkpt lat="45.77491" lon="4.28854">
        <ele>356</ele>
        <time>2017-04-13T09:42:31.1Z</time>
      </trkpt>
      <trkpt lat="45.77496" lon="4.28856">
        <ele>356</ele>
        <time>2017-04-13T09:42:34.1Z</time>
      </trkpt>
      <trkpt lat="45.77497" lon="4.28857">
        <ele>356</ele>
        <time>2017-04-13T09:42:36.1Z</time>
      </trkpt>
      <trkpt lat="45.775" lon="4.28859">
        <ele>356</ele>
        <time>2017-04-13T09:42:39.1Z</time>
      </trkpt>
      <trkpt lat="45.77504" lon="4.28861">
        <ele>356</ele>
        <time>2017-04-13T09:42:42.1Z</time>
      </trkpt>
      <trkpt lat="45.77507" lon="4.28862">
        <ele>357</ele>
        <time>2017-04-13T09:42:44.1Z</time>
      </trkpt>
      <trkpt lat="45.7751" lon="4.28865">
        <ele>357</ele>
        <time>2017-04-13T09:42:46.1Z</time>
      </trkpt>
      <trkpt lat="45.77513" lon="4.28866">
        <ele>357</ele>
        <time>2017-04-13T09:42:49.1Z</time>
      </trkpt>
      <trkpt lat="45.77515" lon="4.28867">
        <ele>357</ele>
        <time>2017-04-13T09:42:51.1Z</time>
      </trkpt>
      <trkpt lat="45.7752" lon="4.2887">
        <ele>357</ele>
        <time>2017-04-13T09:42:54.1Z</time>
      </trkpt>
      <trkpt lat="45.77524" lon="4.28871">
        <ele>357</ele>
        <time>2017-04-13T09:42:56.1Z</time>
      </trkpt>
      <trkpt lat="45.77527" lon="4.28873">
        <ele>357</ele>
        <time>2017-04-13T09:42:58.1Z</time>
      </trkpt>
      <trkpt lat="45.77529" lon="4.28874">
        <ele>357</ele>
        <time>2017-04-13T09:43:00.1Z</time>
      </trkpt>
      <trkpt lat="45.77532" lon="4.28876">
        <ele>357</ele>
        <time>2017-04-13T09:43:02.1Z</time>
      </trkpt>
      <trkpt lat="45.77535" lon="4.28877">
        <ele>357</ele>
        <time>2017-04-13T09:43:04.1Z</time>
      </trkpt>
      <trkpt lat="45.7754" lon="4.28879">
        <ele>358</ele>
        <time>2017-04-13T09:43:07.1Z</time>
      </trkpt>
      <trkpt lat="45.77544" lon="4.28881">
        <ele>357</ele>
        <time>2017-04-13T09:43:10.1Z</time>
      </trkpt>
      <trkpt lat="45.77547" lon="4.28881">
        <ele>358</ele>
        <time>2017-04-13T09:43:12.1Z</time>
      </trkpt>
      <trkpt lat="45.77552" lon="4.28883">
        <ele>358</ele>
        <time>2017-04-13T09:43:15.1Z</time>
      </trkpt>
      <trkpt lat="45.77554" lon="4.28883">
        <ele>358</ele>
        <time>2017-04-13T09:43:17.1Z</time>
      </trkpt>
      <trkpt lat="45.77557" lon="4.28883">
        <ele>358</ele>
        <time>2017-04-13T09:43:19.1Z</time>
      </trkpt>
      <trkpt lat="45.77559" lon="4.28884">
        <ele>358</ele>
        <time>2017-04-13T09:43:21.1Z</time>
      </trkpt>
      <trkpt lat="45.77563" lon="4.28882">
        <ele>358</ele>
        <time>2017-04-13T09:43:24.1Z</time>
      </trkpt>
      <trkpt lat="45.77566" lon="4.28882">
        <ele>358</ele>
        <time>2017-04-13T09:43:26.1Z</time>
      </trkpt>
      <trkpt lat="45.77569" lon="4.28882">
        <ele>358</ele>
        <time>2017-04-13T09:43:28.1Z</time>
      </trkpt>
      <trkpt lat="45.77573" lon="4.28881">
        <ele>358</ele>
        <time>2017-04-13T09:43:30.1Z</time>
      </trkpt>
      <trkpt lat="45.77577" lon="4.2888">
        <ele>358</ele>
        <time>2017-04-13T09:43:33.1Z</time>
      </trkpt>
      <trkpt lat="45.7758" lon="4.28879">
        <ele>358</ele>
        <time>2017-04-13T09:43:35.1Z</time>
      </trkpt>
      <trkpt lat="45.77585" lon="4.28878">
        <ele>359</ele>
        <time>2017-04-13T09:43:38.1Z</time>
      </trkpt>
      <trkpt lat="45.77587" lon="4.28878">
        <ele>359</ele>
        <time>2017-04-13T09:43:40.1Z</time>
      </trkpt>
      <trkpt lat="45.77589" lon="4.28877">
        <ele>359</ele>
        <time>2017-04-13T09:43:42.1Z</time>
      </trkpt>
      <trkpt lat="45.77591" lon="4.28876">
        <ele>359</ele>
        <time>2017-04-13T09:43:44.1Z</time>
      </trkpt>
      <trkpt lat="45.77596" lon="4.28874">
        <ele>359</ele>
        <time>2017-04-13T09:43:47.1Z</time>
      </trkpt>
      <trkpt lat="45.77599" lon="4.28873">
        <ele>359</ele>
        <time>2017-04-13T09:43:50.1Z</time>
      </trkpt>
      <trkpt lat="45.77602" lon="4.28872">
        <ele>359</ele>
        <time>2017-04-13T09:43:52.1Z</time>
      </trkpt>
      <trkpt lat="45.77607" lon="4.28869">
        <ele>359</ele>
        <time>2017-04-13T09:43:55.1Z</time>
      </trkpt>
      <trkpt lat="45.77611" lon="4.28868">
        <ele>359</ele>
        <time>2017-04-13T09:43:57.1Z</time>
      </trkpt>
      <trkpt lat="45.77615" lon="4.28866">
        <ele>359</ele>
        <time>2017-04-13T09:43:59.1Z</time>
      </trkpt>
      <trkpt lat="45.77621" lon="4.28864">
        <ele>359</ele>
        <time>2017-04-13T09:44:02.1Z</time>
      </trkpt>
      <trkpt lat="45.77626" lon="4.28861">
        <ele>360</ele>
        <time>2017-04-13T09:44:05.1Z</time>
      </trkpt>
      <trkpt lat="45.7763" lon="4.2886">
        <ele>360</ele>
        <time>2017-04-13T09:44:07.1Z</time>
      </trkpt>
      <trkpt lat="45.77637" lon="4.28857">
        <ele>360</ele>
        <time>2017-04-13T09:44:10.1Z</time>
      </trkpt>
      <trkpt lat="45.77644" lon="4.28855">
        <ele>360</ele>
        <time>2017-04-13T09:44:13.1Z</time>
      </trkpt>
      <trkpt lat="45.77648" lon="4.28853">
        <ele>360</ele>
        <time>2017-04-13T09:44:15.1Z</time>
      </trkpt>
      <trkpt lat="45.77654" lon="4.28849">
        <ele>360</ele>
        <time>2017-04-13T09:44:18.1Z</time>
      </trkpt>
      <trkpt lat="45.77657" lon="4.28847">
        <ele>360</ele>
        <time>2017-04-13T09:44:20.1Z</time>
      </trkpt>
      <trkpt lat="45.77662" lon="4.28842">
        <ele>361</ele>
        <time>2017-04-13T09:44:23.1Z</time>
      </trkpt>
      <trkpt lat="45.77667" lon="4.28839">
        <ele>361</ele>
        <time>2017-04-13T09:44:26.1Z</time>
      </trkpt>
      <trkpt lat="45.77671" lon="4.28834">
        <ele>362</ele>
        <time>2017-04-13T09:44:29.1Z</time>
      </trkpt>
      <trkpt lat="45.77674" lon="4.28832">
        <ele>362</ele>
        <time>2017-04-13T09:44:32.1Z</time>
      </trkpt>
      <trkpt lat="45.77675" lon="4.28831">
        <ele>362</ele>
        <time>2017-04-13T09:44:35.1Z</time>
      </trkpt>
      <trkpt lat="45.77678" lon="4.28829">
        <ele>361</ele>
        <time>2017-04-13T09:44:38.1Z</time>
      </trkpt>
      <trkpt lat="45.77681" lon="4.28827">
        <ele>361</ele>
        <time>2017-04-13T09:44:40.1Z</time>
      </trkpt>
      <trkpt lat="45.77684" lon="4.28824">
        <ele>361</ele>
        <time>2017-04-13T09:44:43.1Z</time>
      </trkpt>
      <trkpt lat="45.77689" lon="4.2882">
        <ele>361</ele>
        <time>2017-04-13T09:44:46.1Z</time>
      </trkpt>
      <trkpt lat="45.77693" lon="4.28816">
        <ele>362</ele>
        <time>2017-04-13T09:44:49.1Z</time>
      </trkpt>
      <trkpt lat="45.77698" lon="4.28812">
        <ele>362</ele>
        <time>2017-04-13T09:44:52.1Z</time>
      </trkpt>
      <trkpt lat="45.77703" lon="4.28807">
        <ele>362</ele>
        <time>2017-04-13T09:44:55.1Z</time>
      </trkpt>
      <trkpt lat="45.77706" lon="4.28804">
        <ele>361</ele>
        <time>2017-04-13T09:44:57.1Z</time>
      </trkpt>
      <trkpt lat="45.77709" lon="4.28801">
        <ele>362</ele>
        <time>2017-04-13T09:44:59.1Z</time>
      </trkpt>
      <trkpt lat="45.77713" lon="4.28797">
        <ele>362</ele>
        <time>2017-04-13T09:45:02.1Z</time>
      </trkpt>
      <trkpt lat="45.77717" lon="4.28792">
        <ele>362</ele>
        <time>2017-04-13T09:45:05.1Z</time>
      </trkpt>
      <trkpt lat="45.77721" lon="4.28788">
        <ele>362</ele>
        <time>2017-04-13T09:45:08.1Z</time>
      </trkpt>
      <trkpt lat="45.77724" lon="4.28786">
        <ele>362</ele>
        <time>2017-04-13T09:45:10.1Z</time>
      </trkpt>
      <trkpt lat="45.77726" lon="4.28783">
        <ele>362</ele>
        <time>2017-04-13T09:45:12.1Z</time>
      </trkpt>
      <trkpt lat="45.77727" lon="4.2878">
        <ele>362</ele>
        <time>2017-04-13T09:45:14.1Z</time>
      </trkpt>
      <trkpt lat="45.7773" lon="4.28777">
        <ele>362</ele>
        <time>2017-04-13T09:45:17.1Z</time>
      </trkpt>
      <trkpt lat="45.77733" lon="4.28775">
        <ele>362</ele>
        <time>2017-04-13T09:45:19.1Z</time>
      </trkpt>
      <trkpt lat="45.77735" lon="4.28772">
        <ele>362</ele>
        <time>2017-04-13T09:45:21.1Z</time>
      </trkpt>
      <trkpt lat="45.77738" lon="4.28769">
        <ele>362</ele>
        <time>2017-04-13T09:45:24.1Z</time>
      </trkpt>
      <trkpt lat="45.77741" lon="4.28768">
        <ele>362</ele>
        <time>2017-04-13T09:45:26.1Z</time>
      </trkpt>
      <trkpt lat="45.77742" lon="4.28766">
        <ele>362</ele>
        <time>2017-04-13T09:45:28.1Z</time>
      </trkpt>
      <trkpt lat="45.77745" lon="4.28763">
        <ele>362</ele>
        <time>2017-04-13T09:45:31.1Z</time>
      </trkpt>
      <trkpt lat="45.77748" lon="4.28762">
        <ele>362</ele>
        <time>2017-04-13T09:45:33.1Z</time>
      </trkpt>
      <trkpt lat="45.77751" lon="4.2876">
        <ele>362</ele>
        <time>2017-04-13T09:45:36.1Z</time>
      </trkpt>
      <trkpt lat="45.77754" lon="4.28757">
        <ele>362</ele>
        <time>2017-04-13T09:45:39.1Z</time>
      </trkpt>
      <trkpt lat="45.77756" lon="4.28755">
        <ele>362</ele>
        <time>2017-04-13T09:45:41.1Z</time>
      </trkpt>
      <trkpt lat="45.77759" lon="4.28754">
        <ele>362</ele>
        <time>2017-04-13T09:45:43.1Z</time>
      </trkpt>
      <trkpt lat="45.77761" lon="4.28752">
        <ele>362</ele>
        <time>2017-04-13T09:45:45.1Z</time>
      </trkpt>
      <trkpt lat="45.77766" lon="4.28749">
        <ele>362</ele>
        <time>2017-04-13T09:45:48.1Z</time>
      </trkpt>
      <trkpt lat="45.77768" lon="4.28746">
        <ele>362</ele>
        <time>2017-04-13T09:45:51.1Z</time>
      </trkpt>
      <trkpt lat="45.77772" lon="4.28743">
        <ele>362</ele>
        <time>2017-04-13T09:45:54.1Z</time>
      </trkpt>
      <trkpt lat="45.77776" lon="4.2874">
        <ele>362</ele>
        <time>2017-04-13T09:45:57.1Z</time>
      </trkpt>
      <trkpt lat="45.77778" lon="4.28738">
        <ele>363</ele>
        <time>2017-04-13T09:45:59.1Z</time>
      </trkpt>
      <trkpt lat="45.77781" lon="4.28736">
        <ele>363</ele>
        <time>2017-04-13T09:46:01.1Z</time>
      </trkpt>
      <trkpt lat="45.77785" lon="4.28734">
        <ele>363</ele>
        <time>2017-04-13T09:46:04.1Z</time>
      </trkpt>
      <trkpt lat="45.77788" lon="4.28732">
        <ele>363</ele>
        <time>2017-04-13T09:46:06.1Z</time>
      </trkpt>
      <trkpt lat="45.77791" lon="4.28731">
        <ele>363</ele>
        <time>2017-04-13T09:46:08.1Z</time>
      </trkpt>
      <trkpt lat="45.77795" lon="4.28729">
        <ele>363</ele>
        <time>2017-04-13T09:46:11.1Z</time>
      </trkpt>
      <trkpt lat="45.77799" lon="4.28727">
        <ele>363</ele>
        <time>2017-04-13T09:46:14.1Z</time>
      </trkpt>
      <trkpt lat="45.77804" lon="4.28726">
        <ele>364</ele>
        <time>2017-04-13T09:46:17.1Z</time>
      </trkpt>
      <trkpt lat="45.77809" lon="4.28724">
        <ele>364</ele>
        <time>2017-04-13T09:46:20.1Z</time>
      </trkpt>
      <trkpt lat="45.77813" lon="4.28723">
        <ele>364</ele>
        <time>2017-04-13T09:46:22.1Z</time>
      </trkpt>
      <trkpt lat="45.77816" lon="4.28722">
        <ele>364</ele>
        <time>2017-04-13T09:46:24.1Z</time>
      </trkpt>
      <trkpt lat="45.7782" lon="4.28721">
        <ele>364</ele>
        <time>2017-04-13T09:46:26.1Z</time>
      </trkpt>
      <trkpt lat="45.77826" lon="4.2872">
        <ele>364</ele>
        <time>2017-04-13T09:46:28.1Z</time>
      </trkpt>
      <trkpt lat="45.77829" lon="4.2872">
        <ele>365</ele>
        <time>2017-04-13T09:46:31.1Z</time>
      </trkpt>
      <trkpt lat="45.77833" lon="4.2872">
        <ele>364</ele>
        <time>2017-04-13T09:46:34.1Z</time>
      </trkpt>
      <trkpt lat="45.77837" lon="4.28719">
        <ele>365</ele>
        <time>2017-04-13T09:46:37.1Z</time>
      </trkpt>
      <trkpt lat="45.77841" lon="4.28718">
        <ele>365</ele>
        <time>2017-04-13T09:46:39.1Z</time>
      </trkpt>
      <trkpt lat="45.77843" lon="4.28717">
        <ele>364</ele>
        <time>2017-04-13T09:46:41.1Z</time>
      </trkpt>
      <trkpt lat="45.77846" lon="4.28716">
        <ele>365</ele>
        <time>2017-04-13T09:46:44.1Z</time>
      </trkpt>
      <trkpt lat="45.77849" lon="4.28716">
        <ele>364</ele>
        <time>2017-04-13T09:46:46.1Z</time>
      </trkpt>
      <trkpt lat="45.77854" lon="4.28715">
        <ele>364</ele>
        <time>2017-04-13T09:46:49.1Z</time>
      </trkpt>
      <trkpt lat="45.77857" lon="4.28713">
        <ele>364</ele>
        <time>2017-04-13T09:46:51.1Z</time>
      </trkpt>
      <trkpt lat="45.77862" lon="4.28713">
        <ele>364</ele>
        <time>2017-04-13T09:46:53.1Z</time>
      </trkpt>
      <trkpt lat="45.77866" lon="4.28713">
        <ele>364</ele>
        <time>2017-04-13T09:46:56.1Z</time>
      </trkpt>
      <trkpt lat="45.7787" lon="4.28712">
        <ele>364</ele>
        <time>2017-04-13T09:46:59.1Z</time>
      </trkpt>
      <trkpt lat="45.77872" lon="4.28711">
        <ele>364</ele>
        <time>2017-04-13T09:47:01.1Z</time>
      </trkpt>
      <trkpt lat="45.77876" lon="4.2871">
        <ele>364</ele>
        <time>2017-04-13T09:47:04.1Z</time>
      </trkpt>
      <trkpt lat="45.77879" lon="4.2871">
        <ele>364</ele>
        <time>2017-04-13T09:47:07.1Z</time>
      </trkpt>
      <trkpt lat="45.77883" lon="4.28707">
        <ele>364</ele>
        <time>2017-04-13T09:47:10.1Z</time>
      </trkpt>
      <trkpt lat="45.77887" lon="4.28707">
        <ele>364</ele>
        <time>2017-04-13T09:47:12.1Z</time>
      </trkpt>
      <trkpt lat="45.77892" lon="4.28707">
        <ele>364</ele>
        <time>2017-04-13T09:47:15.1Z</time>
      </trkpt>
      <trkpt lat="45.77896" lon="4.28705">
        <ele>365</ele>
        <time>2017-04-13T09:47:18.1Z</time>
      </trkpt>
      <trkpt lat="45.77899" lon="4.28705">
        <ele>365</ele>
        <time>2017-04-13T09:47:20.1Z</time>
      </trkpt>
      <trkpt lat="45.77902" lon="4.28704">
        <ele>365</ele>
        <time>2017-04-13T09:47:22.1Z</time>
      </trkpt>
      <trkpt lat="45.77907" lon="4.28702">
        <ele>365</ele>
        <time>2017-04-13T09:47:24.1Z</time>
      </trkpt>
      <trkpt lat="45.7791" lon="4.28701">
        <ele>365</ele>
        <time>2017-04-13T09:47:27.1Z</time>
      </trkpt>
      <trkpt lat="45.77917" lon="4.28699">
        <ele>365</ele>
        <time>2017-04-13T09:47:30.1Z</time>
      </trkpt>
      <trkpt lat="45.7792" lon="4.28698">
        <ele>365</ele>
        <time>2017-04-13T09:47:32.1Z</time>
      </trkpt>
      <trkpt lat="45.77924" lon="4.28697">
        <ele>365</ele>
        <time>2017-04-13T09:47:34.1Z</time>
      </trkpt>
      <trkpt lat="45.77928" lon="4.28696">
        <ele>365</ele>
        <time>2017-04-13T09:47:36.1Z</time>
      </trkpt>
      <trkpt lat="45.77932" lon="4.28695">
        <ele>365</ele>
        <time>2017-04-13T09:47:38.1Z</time>
      </trkpt>
      <trkpt lat="45.77937" lon="4.28692">
        <ele>366</ele>
        <time>2017-04-13T09:47:41.1Z</time>
      </trkpt>
      <trkpt lat="45.77943" lon="4.2869">
        <ele>365</ele>
        <time>2017-04-13T09:47:44.1Z</time>
      </trkpt>
      <trkpt lat="45.77949" lon="4.28688">
        <ele>366</ele>
        <time>2017-04-13T09:47:47.1Z</time>
      </trkpt>
      <trkpt lat="45.77954" lon="4.28686">
        <ele>366</ele>
        <time>2017-04-13T09:47:50.1Z</time>
      </trkpt>
      <trkpt lat="45.77958" lon="4.28684">
        <ele>366</ele>
        <time>2017-04-13T09:47:52.1Z</time>
      </trkpt>
      <trkpt lat="45.77962" lon="4.28683">
        <ele>366</ele>
        <time>2017-04-13T09:47:54.1Z</time>
      </trkpt>
      <trkpt lat="45.77966" lon="4.28681">
        <ele>366</ele>
        <time>2017-04-13T09:47:56.1Z</time>
      </trkpt>
      <trkpt lat="45.77969" lon="4.28679">
        <ele>365</ele>
        <time>2017-04-13T09:47:59.1Z</time>
      </trkpt>
      <trkpt lat="45.77973" lon="4.28678">
        <ele>366</ele>
        <time>2017-04-13T09:48:02.1Z</time>
      </trkpt>
      <trkpt lat="45.77977" lon="4.28675">
        <ele>366</ele>
        <time>2017-04-13T09:48:05.1Z</time>
      </trkpt>
      <trkpt lat="45.77982" lon="4.28673">
        <ele>366</ele>
        <time>2017-04-13T09:48:08.1Z</time>
      </trkpt>
      <trkpt lat="45.77983" lon="4.28673">
        <ele>366</ele>
        <time>2017-04-13T09:48:10.1Z</time>
      </trkpt>
      <trkpt lat="45.77987" lon="4.28671">
        <ele>366</ele>
        <time>2017-04-13T09:48:12.1Z</time>
      </trkpt>
      <trkpt lat="45.7799" lon="4.2867">
        <ele>366</ele>
        <time>2017-04-13T09:48:15.1Z</time>
      </trkpt>
      <trkpt lat="45.77996" lon="4.28667">
        <ele>366</ele>
        <time>2017-04-13T09:48:18.1Z</time>
      </trkpt>
      <trkpt lat="45.78001" lon="4.28664">
        <ele>366</ele>
        <time>2017-04-13T09:48:20.1Z</time>
      </trkpt>
      <trkpt lat="45.78007" lon="4.28661">
        <ele>366</ele>
        <time>2017-04-13T09:48:22.1Z</time>
      </trkpt>
      <trkpt lat="45.78011" lon="4.2866">
        <ele>366</ele>
        <time>2017-04-13T09:48:25.1Z</time>
      </trkpt>
      <trkpt lat="45.78014" lon="4.28659">
        <ele>366</ele>
        <time>2017-04-13T09:48:27.1Z</time>
      </trkpt>
      <trkpt lat="45.78017" lon="4.28658">
        <ele>366</ele>
        <time>2017-04-13T09:48:29.1Z</time>
      </trkpt>
      <trkpt lat="45.78021" lon="4.28657">
        <ele>366</ele>
        <time>2017-04-13T09:48:31.1Z</time>
      </trkpt>
      <trkpt lat="45.78025" lon="4.28657">
        <ele>366</ele>
        <time>2017-04-13T09:48:33.1Z</time>
      </trkpt>
      <trkpt lat="45.78028" lon="4.28657">
        <ele>367</ele>
        <time>2017-04-13T09:48:36.1Z</time>
      </trkpt>
      <trkpt lat="45.78033" lon="4.28656">
        <ele>366</ele>
        <time>2017-04-13T09:48:38.1Z</time>
      </trkpt>
      <trkpt lat="45.78034" lon="4.28657">
        <ele>366</ele>
        <time>2017-04-13T09:48:41.1Z</time>
      </trkpt>
      <trkpt lat="45.78036" lon="4.28656">
        <ele>366</ele>
        <time>2017-04-13T09:48:43.1Z</time>
      </trkpt>
      <trkpt lat="45.78038" lon="4.28656">
        <ele>366</ele>
        <time>2017-04-13T09:48:45.1Z</time>
      </trkpt>
      <trkpt lat="45.7804" lon="4.28654">
        <ele>366</ele>
        <time>2017-04-13T09:48:48.1Z</time>
      </trkpt>
      <trkpt lat="45.7804" lon="4.28654">
        <ele>367</ele>
        <time>2017-04-13T09:48:50.1Z</time>
      </trkpt>
      <trkpt lat="45.78041" lon="4.28653">
        <ele>366</ele>
        <time>2017-04-13T09:48:53.1Z</time>
      </trkpt>
      <trkpt lat="45.78043" lon="4.28654">
        <ele>367</ele>
        <time>2017-04-13T09:48:55.1Z</time>
      </trkpt>
      <trkpt lat="45.78044" lon="4.28654">
        <ele>366</ele>
        <time>2017-04-13T09:48:58.1Z</time>
      </trkpt>
      <trkpt lat="45.78046" lon="4.28653">
        <ele>367</ele>
        <time>2017-04-13T09:49:01.1Z</time>
      </trkpt>
      <trkpt lat="45.78048" lon="4.28653">
        <ele>366</ele>
        <time>2017-04-13T09:49:03.1Z</time>
      </trkpt>
      <trkpt lat="45.78048" lon="4.28653">
        <ele>366</ele>
        <time>2017-04-13T09:49:05.1Z</time>
      </trkpt>
      <trkpt lat="45.78048" lon="4.28653">
        <ele>366</ele>
        <time>2017-04-13T09:49:08.1Z</time>
      </trkpt>
      <trkpt lat="45.78049" lon="4.28653">
        <ele>366</ele>
        <time>2017-04-13T09:49:11.1Z</time>
      </trkpt>
      <trkpt lat="45.78052" lon="4.28652">
        <ele>366</ele>
        <time>2017-04-13T09:49:14.1Z</time>
      </trkpt>
      <trkpt lat="45.78055" lon="4.28652">
        <ele>366</ele>
        <time>2017-04-13T09:49:16.1Z</time>
      </trkpt>
      <trkpt lat="45.78058" lon="4.28652">
        <ele>366</ele>
        <time>2017-04-13T09:49:19.1Z</time>
      </trkpt>
      <trkpt lat="45.78062" lon="4.28652">
        <ele>366</ele>
        <time>2017-04-13T09:49:21.1Z</time>
      </trkpt>
      <trkpt lat="45.78067" lon="4.28653">
        <ele>366</ele>
        <time>2017-04-13T09:49:23.1Z</time>
      </trkpt>
      <trkpt lat="45.78071" lon="4.28653">
        <ele>366</ele>
        <time>2017-04-13T09:49:25.1Z</time>
      </trkpt>
      <trkpt lat="45.78074" lon="4.28654">
        <ele>366</ele>
        <time>2017-04-13T09:49:27.1Z</time>
      </trkpt>
      <trkpt lat="45.78078" lon="4.28654">
        <ele>366</ele>
        <time>2017-04-13T09:49:30.1Z</time>
      </trkpt>
      <trkpt lat="45.78083" lon="4.28654">
        <ele>366</ele>
        <time>2017-04-13T09:49:32.1Z</time>
      </trkpt>
      <trkpt lat="45.78087" lon="4.28654">
        <ele>366</ele>
        <time>2017-04-13T09:49:35.1Z</time>
      </trkpt>
      <trkpt lat="45.78092" lon="4.28655">
        <ele>366</ele>
        <time>2017-04-13T09:49:37.1Z</time>
      </trkpt>
      <trkpt lat="45.78096" lon="4.28655">
        <ele>366</ele>
        <time>2017-04-13T09:49:39.1Z</time>
      </trkpt>
      <trkpt lat="45.78099" lon="4.28655">
        <ele>366</ele>
        <time>2017-04-13T09:49:41.1Z</time>
      </trkpt>
      <trkpt lat="45.78103" lon="4.28654">
        <ele>366</ele>
        <time>2017-04-13T09:49:44.1Z</time>
      </trkpt>
      <trkpt lat="45.78108" lon="4.28654">
        <ele>366</ele>
        <time>2017-04-13T09:49:47.1Z</time>
      </trkpt>
      <trkpt lat="45.78113" lon="4.28655">
        <ele>366</ele>
        <time>2017-04-13T09:49:49.1Z</time>
      </trkpt>
      <trkpt lat="45.78116" lon="4.28655">
        <ele>366</ele>
        <time>2017-04-13T09:49:52.1Z</time>
      </trkpt>
      <trkpt lat="45.78121" lon="4.28655">
        <ele>366</ele>
        <time>2017-04-13T09:49:55.1Z</time>
      </trkpt>
      <trkpt lat="45.78126" lon="4.28656">
        <ele>366</ele>
        <time>2017-04-13T09:49:58.1Z</time>
      </trkpt>
      <trkpt lat="45.7813" lon="4.28656">
        <ele>366</ele>
        <time>2017-04-13T09:50:00.1Z</time>
      </trkpt>
      <trkpt lat="45.78134" lon="4.28658">
        <ele>366</ele>
        <time>2017-04-13T09:50:02.1Z</time>
      </trkpt>
      <trkpt lat="45.78138" lon="4.28659">
        <ele>367</ele>
        <time>2017-04-13T09:50:04.1Z</time>
      </trkpt>
      <trkpt lat="45.78141" lon="4.2866">
        <ele>367</ele>
        <time>2017-04-13T09:50:07.1Z</time>
      </trkpt>
      <trkpt lat="45.78146" lon="4.28661">
        <ele>366</ele>
        <time>2017-04-13T09:50:10.1Z</time>
      </trkpt>
      <trkpt lat="45.78151" lon="4.28663">
        <ele>366</ele>
        <time>2017-04-13T09:50:12.1Z</time>
      </trkpt>
      <trkpt lat="45.78152" lon="4.28664">
        <ele>366</ele>
        <time>2017-04-13T09:50:14.1Z</time>
      </trkpt>
      <trkpt lat="45.78155" lon="4.28666">
        <ele>367</ele>
        <time>2017-04-13T09:50:17.1Z</time>
      </trkpt>
      <trkpt lat="45.78158" lon="4.28667">
        <ele>367</ele>
        <time>2017-04-13T09:50:19.1Z</time>
      </trkpt>
      <trkpt lat="45.78161" lon="4.2867">
        <ele>367</ele>
        <time>2017-04-13T09:50:21.1Z</time>
      </trkpt>
      <trkpt lat="45.78163" lon="4.28672">
        <ele>367</ele>
        <time>2017-04-13T09:50:23.1Z</time>
      </trkpt>
      <trkpt lat="45.78166" lon="4.28674">
        <ele>367</ele>
        <time>2017-04-13T09:50:25.1Z</time>
      </trkpt>
      <trkpt lat="45.78168" lon="4.28676">
        <ele>367</ele>
        <time>2017-04-13T09:50:27.1Z</time>
      </trkpt>
      <trkpt lat="45.7817" lon="4.28677">
        <ele>367</ele>
        <time>2017-04-13T09:50:29.1Z</time>
      </trkpt>
      <trkpt lat="45.78172" lon="4.28678">
        <ele>367</ele>
        <time>2017-04-13T09:50:32.1Z</time>
      </trkpt>
      <trkpt lat="45.78174" lon="4.28679">
        <ele>367</ele>
        <time>2017-04-13T09:50:34.1Z</time>
      </trkpt>
      <trkpt lat="45.78175" lon="4.28681">
        <ele>367</ele>
        <time>2017-04-13T09:50:37.1Z</time>
      </trkpt>
      <trkpt lat="45.78175" lon="4.28683">
        <ele>367</ele>
        <time>2017-04-13T09:50:39.1Z</time>
      </trkpt>
      <trkpt lat="45.78177" lon="4.28687">
        <ele>367</ele>
        <time>2017-04-13T09:50:41.1Z</time>
      </trkpt>
      <trkpt lat="45.78179" lon="4.28689">
        <ele>367</ele>
        <time>2017-04-13T09:50:43.1Z</time>
      </trkpt>
      <trkpt lat="45.78181" lon="4.28691">
        <ele>367</ele>
        <time>2017-04-13T09:50:45.1Z</time>
      </trkpt>
      <trkpt lat="45.78183" lon="4.28693">
        <ele>367</ele>
        <time>2017-04-13T09:50:47.1Z</time>
      </trkpt>
      <trkpt lat="45.78187" lon="4.28696">
        <ele>367</ele>
        <time>2017-04-13T09:50:49.1Z</time>
      </trkpt>
      <trkpt lat="45.78191" lon="4.28698">
        <ele>367</ele>
        <time>2017-04-13T09:50:52.1Z</time>
      </trkpt>
      <trkpt lat="45.78196" lon="4.28701">
        <ele>367</ele>
        <time>2017-04-13T09:50:54.1Z</time>
      </trkpt>
      <trkpt lat="45.78198" lon="4.28704">
        <ele>367</ele>
        <time>2017-04-13T09:50:56.1Z</time>
      </trkpt>
      <trkpt lat="45.78201" lon="4.28706">
        <ele>367</ele>
        <time>2017-04-13T09:50:58.1Z</time>
      </trkpt>
      <trkpt lat="45.78204" lon="4.28708">
        <ele>367</ele>
        <time>2017-04-13T09:51:00.1Z</time>
      </trkpt>
      <trkpt lat="45.78206" lon="4.28712">
        <ele>367</ele>
        <time>2017-04-13T09:51:02.1Z</time>
      </trkpt>
      <trkpt lat="45.78208" lon="4.28716">
        <ele>367</ele>
        <time>2017-04-13T09:51:06.1Z</time>
      </trkpt>
      <trkpt lat="45.78212" lon="4.28721">
        <ele>367</ele>
        <time>2017-04-13T09:51:08.1Z</time>
      </trkpt>
      <trkpt lat="45.78215" lon="4.28724">
        <ele>367</ele>
        <time>2017-04-13T09:51:10.1Z</time>
      </trkpt>
      <trkpt lat="45.78221" lon="4.28729">
        <ele>367</ele>
        <time>2017-04-13T09:51:13.1Z</time>
      </trkpt>
      <trkpt lat="45.78224" lon="4.28732">
        <ele>366</ele>
        <time>2017-04-13T09:51:15.1Z</time>
      </trkpt>
      <trkpt lat="45.78228" lon="4.28738">
        <ele>366</ele>
        <time>2017-04-13T09:51:18.1Z</time>
      </trkpt>
      <trkpt lat="45.78229" lon="4.28741">
        <ele>366</ele>
        <time>2017-04-13T09:51:21.1Z</time>
      </trkpt>
      <trkpt lat="45.78231" lon="4.28746">
        <ele>366</ele>
        <time>2017-04-13T09:51:23.1Z</time>
      </trkpt>
      <trkpt lat="45.78232" lon="4.2875">
        <ele>366</ele>
        <time>2017-04-13T09:51:25.1Z</time>
      </trkpt>
      <trkpt lat="45.78233" lon="4.28754">
        <ele>366</ele>
        <time>2017-04-13T09:51:27.1Z</time>
      </trkpt>
      <trkpt lat="45.78236" lon="4.28759">
        <ele>366</ele>
        <time>2017-04-13T09:51:30.1Z</time>
      </trkpt>
      <trkpt lat="45.78237" lon="4.28765">
        <ele>367</ele>
        <time>2017-04-13T09:51:34.1Z</time>
      </trkpt>
      <trkpt lat="45.78238" lon="4.28771">
        <ele>367</ele>
        <time>2017-04-13T09:51:37.1Z</time>
      </trkpt>
      <trkpt lat="45.78241" lon="4.28777">
        <ele>367</ele>
        <time>2017-04-13T09:51:39.1Z</time>
      </trkpt>
      <trkpt lat="45.78243" lon="4.2878">
        <ele>367</ele>
        <time>2017-04-13T09:51:41.1Z</time>
      </trkpt>
      <trkpt lat="45.78244" lon="4.28784">
        <ele>368</ele>
        <time>2017-04-13T09:51:43.1Z</time>
      </trkpt>
      <trkpt lat="45.78244" lon="4.28788">
        <ele>368</ele>
        <time>2017-04-13T09:51:45.1Z</time>
      </trkpt>
      <trkpt lat="45.78241" lon="4.28794">
        <ele>368</ele>
        <time>2017-04-13T09:51:48.1Z</time>
      </trkpt>
      <trkpt lat="45.78242" lon="4.28798">
        <ele>368</ele>
        <time>2017-04-13T09:51:50.1Z</time>
      </trkpt>
      <trkpt lat="45.78244" lon="4.28804">
        <ele>368</ele>
        <time>2017-04-13T09:51:53.1Z</time>
      </trkpt>
      <trkpt lat="45.78247" lon="4.2881">
        <ele>368</ele>
        <time>2017-04-13T09:51:56.1Z</time>
      </trkpt>
      <trkpt lat="45.78251" lon="4.28815">
        <ele>369</ele>
        <time>2017-04-13T09:51:59.1Z</time>
      </trkpt>
      <trkpt lat="45.78254" lon="4.28822">
        <ele>369</ele>
        <time>2017-04-13T09:52:02.1Z</time>
      </trkpt>
      <trkpt lat="45.78253" lon="4.28826">
        <ele>369</ele>
        <time>2017-04-13T09:52:05.1Z</time>
      </trkpt>
      <trkpt lat="45.78248" lon="4.28835">
        <ele>369</ele>
        <time>2017-04-13T09:52:07.1Z</time>
      </trkpt>
      <trkpt lat="45.78243" lon="4.28843">
        <ele>370</ele>
        <time>2017-04-13T09:52:10.1Z</time>
      </trkpt>
      <trkpt lat="45.7824" lon="4.28847">
        <ele>370</ele>
        <time>2017-04-13T09:52:12.1Z</time>
      </trkpt>
      <trkpt lat="45.78237" lon="4.28851">
        <ele>370</ele>
        <time>2017-04-13T09:52:14.1Z</time>
      </trkpt>
      <trkpt lat="45.78234" lon="4.28859">
        <ele>370</ele>
        <time>2017-04-13T09:52:17.1Z</time>
      </trkpt>
      <trkpt lat="45.7823" lon="4.28866">
        <ele>370</ele>
        <time>2017-04-13T09:52:20.1Z</time>
      </trkpt>
      <trkpt lat="45.78228" lon="4.28873">
        <ele>370</ele>
        <time>2017-04-13T09:52:23.1Z</time>
      </trkpt>
      <trkpt lat="45.78228" lon="4.28877">
        <ele>370</ele>
        <time>2017-04-13T09:52:25.1Z</time>
      </trkpt>
      <trkpt lat="45.78226" lon="4.28881">
        <ele>370</ele>
        <time>2017-04-13T09:52:27.1Z</time>
      </trkpt>
      <trkpt lat="45.78224" lon="4.28885">
        <ele>371</ele>
        <time>2017-04-13T09:52:30.1Z</time>
      </trkpt>
      <trkpt lat="45.78221" lon="4.2889">
        <ele>371</ele>
        <time>2017-04-13T09:52:32.1Z</time>
      </trkpt>
      <trkpt lat="45.7822" lon="4.28897">
        <ele>371</ele>
        <time>2017-04-13T09:52:34.1Z</time>
      </trkpt>
      <trkpt lat="45.7822" lon="4.28901">
        <ele>371</ele>
        <time>2017-04-13T09:52:36.1Z</time>
      </trkpt>
      <trkpt lat="45.7822" lon="4.28905">
        <ele>371</ele>
        <time>2017-04-13T09:52:38.1Z</time>
      </trkpt>
      <trkpt lat="45.78219" lon="4.2891">
        <ele>371</ele>
        <time>2017-04-13T09:52:40.1Z</time>
      </trkpt>
      <trkpt lat="45.78218" lon="4.28917">
        <ele>371</ele>
        <time>2017-04-13T09:52:43.1Z</time>
      </trkpt>
      <trkpt lat="45.78219" lon="4.28921">
        <ele>370</ele>
        <time>2017-04-13T09:52:45.1Z</time>
      </trkpt>
      <trkpt lat="45.7822" lon="4.28925">
        <ele>371</ele>
        <time>2017-04-13T09:52:48.1Z</time>
      </trkpt>
      <trkpt lat="45.78219" lon="4.28932">
        <ele>371</ele>
        <time>2017-04-13T09:52:50.1Z</time>
      </trkpt>
      <trkpt lat="45.78218" lon="4.28937">
        <ele>371</ele>
        <time>2017-04-13T09:52:52.1Z</time>
      </trkpt>
      <trkpt lat="45.78217" lon="4.28944">
        <ele>371</ele>
        <time>2017-04-13T09:52:55.1Z</time>
      </trkpt>
      <trkpt lat="45.78217" lon="4.28951">
        <ele>371</ele>
        <time>2017-04-13T09:52:58.1Z</time>
      </trkpt>
      <trkpt lat="45.78217" lon="4.28955">
        <ele>371</ele>
        <time>2017-04-13T09:53:00.1Z</time>
      </trkpt>
      <trkpt lat="45.78218" lon="4.28961">
        <ele>371</ele>
        <time>2017-04-13T09:53:03.1Z</time>
      </trkpt>
      <trkpt lat="45.78219" lon="4.28967">
        <ele>370</ele>
        <time>2017-04-13T09:53:06.1Z</time>
      </trkpt>
      <trkpt lat="45.7822" lon="4.28971">
        <ele>370</ele>
        <time>2017-04-13T09:53:08.1Z</time>
      </trkpt>
      <trkpt lat="45.7822" lon="4.28975">
        <ele>370</ele>
        <time>2017-04-13T09:53:10.1Z</time>
      </trkpt>
      <trkpt lat="45.7822" lon="4.28982">
        <ele>370</ele>
        <time>2017-04-13T09:53:13.1Z</time>
      </trkpt>
      <trkpt lat="45.7822" lon="4.28988">
        <ele>369</ele>
        <time>2017-04-13T09:53:15.1Z</time>
      </trkpt>
      <trkpt lat="45.78218" lon="4.28995">
        <ele>370</ele>
        <time>2017-04-13T09:53:18.1Z</time>
      </trkpt>
      <trkpt lat="45.78219" lon="4.28999">
        <ele>369</ele>
        <time>2017-04-13T09:53:21.1Z</time>
      </trkpt>
      <trkpt lat="45.78218" lon="4.29006">
        <ele>370</ele>
        <time>2017-04-13T09:53:23.1Z</time>
      </trkpt>
      <trkpt lat="45.78219" lon="4.29012">
        <ele>369</ele>
        <time>2017-04-13T09:53:26.1Z</time>
      </trkpt>
      <trkpt lat="45.7822" lon="4.29014">
        <ele>369</ele>
        <time>2017-04-13T09:53:28.1Z</time>
      </trkpt>
      <trkpt lat="45.78221" lon="4.29017">
        <ele>369</ele>
        <time>2017-04-13T09:53:30.1Z</time>
      </trkpt>
      <trkpt lat="45.78225" lon="4.2902">
        <ele>368</ele>
        <time>2017-04-13T09:53:33.1Z</time>
      </trkpt>
      <trkpt lat="45.78228" lon="4.29022">
        <ele>368</ele>
        <time>2017-04-13T09:53:36.1Z</time>
      </trkpt>
      <trkpt lat="45.78231" lon="4.29024">
        <ele>368</ele>
        <time>2017-04-13T09:53:38.1Z</time>
      </trkpt>
      <trkpt lat="45.78233" lon="4.29026">
        <ele>367</ele>
        <time>2017-04-13T09:53:40.1Z</time>
      </trkpt>
      <trkpt lat="45.78236" lon="4.29028">
        <ele>367</ele>
        <time>2017-04-13T09:53:42.1Z</time>
      </trkpt>
      <trkpt lat="45.78237" lon="4.2903">
        <ele>367</ele>
        <time>2017-04-13T09:53:44.1Z</time>
      </trkpt>
      <trkpt lat="45.78238" lon="4.29033">
        <ele>367</ele>
        <time>2017-04-13T09:53:47.1Z</time>
      </trkpt>
      <trkpt lat="45.78239" lon="4.29036">
        <ele>366</ele>
        <time>2017-04-13T09:53:50.1Z</time>
      </trkpt>
      <trkpt lat="45.78242" lon="4.2904">
        <ele>366</ele>
        <time>2017-04-13T09:53:53.1Z</time>
      </trkpt>
      <trkpt lat="45.78243" lon="4.29043">
        <ele>366</ele>
        <time>2017-04-13T09:53:55.1Z</time>
      </trkpt>
      <trkpt lat="45.78244" lon="4.29046">
        <ele>366</ele>
        <time>2017-04-13T09:53:57.1Z</time>
      </trkpt>
      <trkpt lat="45.78248" lon="4.29051">
        <ele>367</ele>
        <time>2017-04-13T09:54:00.1Z</time>
      </trkpt>
      <trkpt lat="45.78251" lon="4.29054">
        <ele>368</ele>
        <time>2017-04-13T09:54:03.1Z</time>
      </trkpt>
      <trkpt lat="45.78251" lon="4.29055">
        <ele>369</ele>
        <time>2017-04-13T09:54:06.1Z</time>
      </trkpt>
      <trkpt lat="45.78252" lon="4.29056">
        <ele>369</ele>
        <time>2017-04-13T09:54:08.1Z</time>
      </trkpt>
      <trkpt lat="45.78252" lon="4.29058">
        <ele>369</ele>
        <time>2017-04-13T09:54:11.1Z</time>
      </trkpt>
      <trkpt lat="45.7825" lon="4.29058">
        <ele>368</ele>
        <time>2017-04-13T09:54:14.1Z</time>
      </trkpt>
      <trkpt lat="45.7825" lon="4.29058">
        <ele>368</ele>
        <time>2017-04-13T09:54:16.1Z</time>
      </trkpt>
      <trkpt lat="45.7825" lon="4.29057">
        <ele>368</ele>
        <time>2017-04-13T09:54:18.1Z</time>
      </trkpt>
      <trkpt lat="45.78249" lon="4.29056">
        <ele>369</ele>
        <time>2017-04-13T09:54:21.1Z</time>
      </trkpt>
      <trkpt lat="45.78249" lon="4.29054">
        <ele>369</ele>
        <time>2017-04-13T09:54:24.1Z</time>
      </trkpt>
      <trkpt lat="45.78248" lon="4.29054">
        <ele>369</ele>
        <time>2017-04-13T09:54:26.1Z</time>
      </trkpt>
      <trkpt lat="45.78248" lon="4.29053">
        <ele>368</ele>
        <time>2017-04-13T09:54:28.1Z</time>
      </trkpt>
      <trkpt lat="45.78247" lon="4.29052">
        <ele>368</ele>
        <time>2017-04-13T09:54:31.1Z</time>
      </trkpt>
      <trkpt lat="45.78247" lon="4.29051">
        <ele>368</ele>
        <time>2017-04-13T09:54:33.1Z</time>
      </trkpt>
      <trkpt lat="45.78247" lon="4.2905">
        <ele>368</ele>
        <time>2017-04-13T09:54:35.1Z</time>
      </trkpt>
      <trkpt lat="45.78247" lon="4.29049">
        <ele>368</ele>
        <time>2017-04-13T09:54:37.1Z</time>
      </trkpt>
      <trkpt lat="45.78247" lon="4.29048">
        <ele>368</ele>
        <time>2017-04-13T09:54:39.1Z</time>
      </trkpt>
      <trkpt lat="45.78248" lon="4.29048">
        <ele>368</ele>
        <time>2017-04-13T09:54:42.1Z</time>
      </trkpt>
      <trkpt lat="45.78248" lon="4.29047">
        <ele>368</ele>
        <time>2017-04-13T09:54:45.1Z</time>
      </trkpt>
      <trkpt lat="45.78248" lon="4.29046">
        <ele>368</ele>
        <time>2017-04-13T09:54:48.1Z</time>
      </trkpt>
      <trkpt lat="45.78247" lon="4.29045">
        <ele>368</ele>
        <time>2017-04-13T09:54:50.1Z</time>
      </trkpt>
      <trkpt lat="45.78247" lon="4.29043">
        <ele>368</ele>
        <time>2017-04-13T09:54:53.1Z</time>
      </trkpt>
      <trkpt lat="45.78247" lon="4.29042">
        <ele>368</ele>
        <time>2017-04-13T09:54:55.1Z</time>
      </trkpt>
      <trkpt lat="45.78247" lon="4.29042">
        <ele>368</ele>
        <time>2017-04-13T09:54:58.1Z</time>
      </trkpt>
      <trkpt lat="45.78248" lon="4.29043">
        <ele>368</ele>
        <time>2017-04-13T09:55:00.1Z</time>
      </trkpt>
      <trkpt lat="45.78248" lon="4.29044">
        <ele>367</ele>
        <time>2017-04-13T09:55:03.1Z</time>
      </trkpt>
      <trkpt lat="45.7825" lon="4.29046">
        <ele>368</ele>
        <time>2017-04-13T09:55:05.1Z</time>
      </trkpt>
      <trkpt lat="45.78254" lon="4.29047">
        <ele>368</ele>
        <time>2017-04-13T09:55:08.1Z</time>
      </trkpt>
      <trkpt lat="45.78257" lon="4.2905">
        <ele>369</ele>
        <time>2017-04-13T09:55:11.1Z</time>
      </trkpt>
      <trkpt lat="45.78262" lon="4.29051">
        <ele>370</ele>
        <time>2017-04-13T09:55:14.1Z</time>
      </trkpt>
      <trkpt lat="45.78265" lon="4.29051">
        <ele>370</ele>
        <time>2017-04-13T09:55:17.1Z</time>
      </trkpt>
      <trkpt lat="45.78268" lon="4.29051">
        <ele>371</ele>
        <time>2017-04-13T09:55:19.1Z</time>
      </trkpt>
      <trkpt lat="45.78271" lon="4.29053">
        <ele>372</ele>
        <time>2017-04-13T09:55:22.1Z</time>
      </trkpt>
      <trkpt lat="45.78274" lon="4.29054">
        <ele>372</ele>
        <time>2017-04-13T09:55:24.1Z</time>
      </trkpt>
      <trkpt lat="45.78277" lon="4.29057">
        <ele>373</ele>
        <time>2017-04-13T09:55:27.1Z</time>
      </trkpt>
      <trkpt lat="45.7828" lon="4.29058">
        <ele>373</ele>
        <time>2017-04-13T09:55:30.1Z</time>
      </trkpt>
      <trkpt lat="45.78282" lon="4.2906">
        <ele>374</ele>
        <time>2017-04-13T09:55:32.1Z</time>
      </trkpt>
      <trkpt lat="45.78283" lon="4.29061">
        <ele>375</ele>
        <time>2017-04-13T09:55:36.1Z</time>
      </trkpt>
      <trkpt lat="45.78286" lon="4.2906">
        <ele>375</ele>
        <time>2017-04-13T09:55:38.1Z</time>
      </trkpt>
      <trkpt lat="45.7829" lon="4.29059">
        <ele>376</ele>
        <time>2017-04-13T09:55:41.1Z</time>
      </trkpt>
      <trkpt lat="45.78292" lon="4.2906">
        <ele>377</ele>
        <time>2017-04-13T09:55:43.1Z</time>
      </trkpt>
      <trkpt lat="45.78294" lon="4.29065">
        <ele>378</ele>
        <time>2017-04-13T09:55:46.1Z</time>
      </trkpt>
      <trkpt lat="45.78294" lon="4.29068">
        <ele>378</ele>
        <time>2017-04-13T09:55:48.1Z</time>
      </trkpt>
      <trkpt lat="45.78293" lon="4.29071">
        <ele>378</ele>
        <time>2017-04-13T09:55:50.1Z</time>
      </trkpt>
      <trkpt lat="45.78292" lon="4.29074">
        <ele>378</ele>
        <time>2017-04-13T09:55:53.1Z</time>
      </trkpt>
      <trkpt lat="45.78292" lon="4.29079">
        <ele>379</ele>
        <time>2017-04-13T09:55:55.1Z</time>
      </trkpt>
      <trkpt lat="45.78292" lon="4.29085">
        <ele>380</ele>
        <time>2017-04-13T09:55:58.1Z</time>
      </trkpt>
      <trkpt lat="45.78292" lon="4.29088">
        <ele>380</ele>
        <time>2017-04-13T09:56:00.1Z</time>
      </trkpt>
      <trkpt lat="45.78292" lon="4.29093">
        <ele>381</ele>
        <time>2017-04-13T09:56:03.1Z</time>
      </trkpt>
      <trkpt lat="45.78293" lon="4.29096">
        <ele>381</ele>
        <time>2017-04-13T09:56:06.1Z</time>
      </trkpt>
      <trkpt lat="45.78293" lon="4.29102">
        <ele>381</ele>
        <time>2017-04-13T09:56:08.1Z</time>
      </trkpt>
      <trkpt lat="45.78294" lon="4.29106">
        <ele>381</ele>
        <time>2017-04-13T09:56:10.1Z</time>
      </trkpt>
      <trkpt lat="45.78294" lon="4.29113">
        <ele>382</ele>
        <time>2017-04-13T09:56:13.1Z</time>
      </trkpt>
      <trkpt lat="45.78295" lon="4.29117">
        <ele>382</ele>
        <time>2017-04-13T09:56:15.1Z</time>
      </trkpt>
      <trkpt lat="45.78295" lon="4.29119">
        <ele>382</ele>
        <time>2017-04-13T09:56:17.1Z</time>
      </trkpt>
      <trkpt lat="45.78296" lon="4.29124">
        <ele>383</ele>
        <time>2017-04-13T09:56:20.1Z</time>
      </trkpt>
      <trkpt lat="45.78296" lon="4.29131">
        <ele>383</ele>
        <time>2017-04-13T09:56:23.1Z</time>
      </trkpt>
      <trkpt lat="45.78295" lon="4.29136">
        <ele>383</ele>
        <time>2017-04-13T09:56:25.1Z</time>
      </trkpt>
      <trkpt lat="45.78294" lon="4.29144">
        <ele>384</ele>
        <time>2017-04-13T09:56:28.1Z</time>
      </trkpt>
      <trkpt lat="45.78294" lon="4.29149">
        <ele>384</ele>
        <time>2017-04-13T09:56:30.1Z</time>
      </trkpt>
      <trkpt lat="45.78294" lon="4.29155">
        <ele>385</ele>
        <time>2017-04-13T09:56:33.1Z</time>
      </trkpt>
      <trkpt lat="45.78293" lon="4.29162">
        <ele>385</ele>
        <time>2017-04-13T09:56:35.1Z</time>
      </trkpt>
      <trkpt lat="45.78293" lon="4.29167">
        <ele>386</ele>
        <time>2017-04-13T09:56:37.1Z</time>
      </trkpt>
      <trkpt lat="45.78293" lon="4.29173">
        <ele>387</ele>
        <time>2017-04-13T09:56:40.1Z</time>
      </trkpt>
      <trkpt lat="45.78293" lon="4.29178">
        <ele>387</ele>
        <time>2017-04-13T09:56:42.1Z</time>
      </trkpt>
      <trkpt lat="45.78293" lon="4.29183">
        <ele>388</ele>
        <time>2017-04-13T09:56:44.1Z</time>
      </trkpt>
      <trkpt lat="45.78292" lon="4.2919">
        <ele>388</ele>
        <time>2017-04-13T09:56:47.1Z</time>
      </trkpt>
      <trkpt lat="45.78293" lon="4.29196">
        <ele>389</ele>
        <time>2017-04-13T09:56:50.1Z</time>
      </trkpt>
      <trkpt lat="45.78294" lon="4.292">
        <ele>389</ele>
        <time>2017-04-13T09:56:52.1Z</time>
      </trkpt>
      <trkpt lat="45.78295" lon="4.29205">
        <ele>389</ele>
        <time>2017-04-13T09:56:54.1Z</time>
      </trkpt>
      <trkpt lat="45.78295" lon="4.29209">
        <ele>389</ele>
        <time>2017-04-13T09:56:56.1Z</time>
      </trkpt>
      <trkpt lat="45.78296" lon="4.29217">
        <ele>390</ele>
        <time>2017-04-13T09:56:59.1Z</time>
      </trkpt>
      <trkpt lat="45.78297" lon="4.29221">
        <ele>390</ele>
        <time>2017-04-13T09:57:02.1Z</time>
      </trkpt>
      <trkpt lat="45.78298" lon="4.29227">
        <ele>390</ele>
        <time>2017-04-13T09:57:04.1Z</time>
      </trkpt>
      <trkpt lat="45.78297" lon="4.29231">
        <ele>391</ele>
        <time>2017-04-13T09:57:06.1Z</time>
      </trkpt>
      <trkpt lat="45.78297" lon="4.29235">
        <ele>392</ele>
        <time>2017-04-13T09:57:08.1Z</time>
      </trkpt>
      <trkpt lat="45.78297" lon="4.29238">
        <ele>392</ele>
        <time>2017-04-13T09:57:10.1Z</time>
      </trkpt>
      <trkpt lat="45.78297" lon="4.29244">
        <ele>392</ele>
        <time>2017-04-13T09:57:13.1Z</time>
      </trkpt>
      <trkpt lat="45.78297" lon="4.29248">
        <ele>393</ele>
        <time>2017-04-13T09:57:15.1Z</time>
      </trkpt>
      <trkpt lat="45.78297" lon="4.29255">
        <ele>393</ele>
        <time>2017-04-13T09:57:18.1Z</time>
      </trkpt>
      <trkpt lat="45.78297" lon="4.29259">
        <ele>393</ele>
        <time>2017-04-13T09:57:20.1Z</time>
      </trkpt>
      <trkpt lat="45.78297" lon="4.29263">
        <ele>394</ele>
        <time>2017-04-13T09:57:22.1Z</time>
      </trkpt>
      <trkpt lat="45.78297" lon="4.29267">
        <ele>395</ele>
        <time>2017-04-13T09:57:24.1Z</time>
      </trkpt>
      <trkpt lat="45.78297" lon="4.29273">
        <ele>396</ele>
        <time>2017-04-13T09:57:27.1Z</time>
      </trkpt>
      <trkpt lat="45.78298" lon="4.29279">
        <ele>396</ele>
        <time>2017-04-13T09:57:30.1Z</time>
      </trkpt>
      <trkpt lat="45.78298" lon="4.29284">
        <ele>397</ele>
        <time>2017-04-13T09:57:32.1Z</time>
      </trkpt>
      <trkpt lat="45.78297" lon="4.2929">
        <ele>398</ele>
        <time>2017-04-13T09:57:35.1Z</time>
      </trkpt>
      <trkpt lat="45.78298" lon="4.29295">
        <ele>399</ele>
        <time>2017-04-13T09:57:38.1Z</time>
      </trkpt>
      <trkpt lat="45.78299" lon="4.29299">
        <ele>399</ele>
        <time>2017-04-13T09:57:40.1Z</time>
      </trkpt>
      <trkpt lat="45.78302" lon="4.29304">
        <ele>400</ele>
        <time>2017-04-13T09:57:43.1Z</time>
      </trkpt>
      <trkpt lat="45.78304" lon="4.29307">
        <ele>401</ele>
        <time>2017-04-13T09:57:45.1Z</time>
      </trkpt>
      <trkpt lat="45.78306" lon="4.2931">
        <ele>401</ele>
        <time>2017-04-13T09:57:47.1Z</time>
      </trkpt>
      <trkpt lat="45.78307" lon="4.29312">
        <ele>402</ele>
        <time>2017-04-13T09:57:49.1Z</time>
      </trkpt>
      <trkpt lat="45.78308" lon="4.29314">
        <ele>402</ele>
        <time>2017-04-13T09:57:52.1Z</time>
      </trkpt>
      <trkpt lat="45.7831" lon="4.29314">
        <ele>403</ele>
        <time>2017-04-13T09:57:54.1Z</time>
      </trkpt>
      <trkpt lat="45.78313" lon="4.29313">
        <ele>404</ele>
        <time>2017-04-13T09:57:56.1Z</time>
      </trkpt>
      <trkpt lat="45.78316" lon="4.29312">
        <ele>404</ele>
        <time>2017-04-13T09:57:58.1Z</time>
      </trkpt>
      <trkpt lat="45.78317" lon="4.29311">
        <ele>405</ele>
        <time>2017-04-13T09:58:00.1Z</time>
      </trkpt>
      <trkpt lat="45.78321" lon="4.29309">
        <ele>406</ele>
        <time>2017-04-13T09:58:03.1Z</time>
      </trkpt>
      <trkpt lat="45.78323" lon="4.29309">
        <ele>407</ele>
        <time>2017-04-13T09:58:06.1Z</time>
      </trkpt>
      <trkpt lat="45.78328" lon="4.2931">
        <ele>407</ele>
        <time>2017-04-13T09:58:08.1Z</time>
      </trkpt>
      <trkpt lat="45.7833" lon="4.2931">
        <ele>408</ele>
        <time>2017-04-13T09:58:10.1Z</time>
      </trkpt>
      <trkpt lat="45.78333" lon="4.29312">
        <ele>408</ele>
        <time>2017-04-13T09:58:13.1Z</time>
      </trkpt>
      <trkpt lat="45.78336" lon="4.29313">
        <ele>409</ele>
        <time>2017-04-13T09:58:15.1Z</time>
      </trkpt>
      <trkpt lat="45.78338" lon="4.29314">
        <ele>410</ele>
        <time>2017-04-13T09:58:17.1Z</time>
      </trkpt>
      <trkpt lat="45.78342" lon="4.29316">
        <ele>410</ele>
        <time>2017-04-13T09:58:20.1Z</time>
      </trkpt>
      <trkpt lat="45.78344" lon="4.29318">
        <ele>411</ele>
        <time>2017-04-13T09:58:22.1Z</time>
      </trkpt>
      <trkpt lat="45.78345" lon="4.29319">
        <ele>412</ele>
        <time>2017-04-13T09:58:24.1Z</time>
      </trkpt>
      <trkpt lat="45.78347" lon="4.2932">
        <ele>412</ele>
        <time>2017-04-13T09:58:26.1Z</time>
      </trkpt>
      <trkpt lat="45.78351" lon="4.29323">
        <ele>413</ele>
        <time>2017-04-13T09:58:29.1Z</time>
      </trkpt>
      <trkpt lat="45.78353" lon="4.29325">
        <ele>413</ele>
        <time>2017-04-13T09:58:31.1Z</time>
      </trkpt>
      <trkpt lat="45.78356" lon="4.29326">
        <ele>414</ele>
        <time>2017-04-13T09:58:33.1Z</time>
      </trkpt>
      <trkpt lat="45.7836" lon="4.29328">
        <ele>414</ele>
        <time>2017-04-13T09:58:36.1Z</time>
      </trkpt>
      <trkpt lat="45.78363" lon="4.29329">
        <ele>415</ele>
        <time>2017-04-13T09:58:38.1Z</time>
      </trkpt>
      <trkpt lat="45.78366" lon="4.29329">
        <ele>416</ele>
        <time>2017-04-13T09:58:40.1Z</time>
      </trkpt>
      <trkpt lat="45.7837" lon="4.29331">
        <ele>416</ele>
        <time>2017-04-13T09:58:43.1Z</time>
      </trkpt>
      <trkpt lat="45.78373" lon="4.29331">
        <ele>417</ele>
        <time>2017-04-13T09:58:45.1Z</time>
      </trkpt>
      <trkpt lat="45.78376" lon="4.29332">
        <ele>417</ele>
        <time>2017-04-13T09:58:47.1Z</time>
      </trkpt>
      <trkpt lat="45.7838" lon="4.29333">
        <ele>418</ele>
        <time>2017-04-13T09:58:50.1Z</time>
      </trkpt>
      <trkpt lat="45.78383" lon="4.29335">
        <ele>419</ele>
        <time>2017-04-13T09:58:52.1Z</time>
      </trkpt>
      <trkpt lat="45.78388" lon="4.29336">
        <ele>420</ele>
        <time>2017-04-13T09:58:55.1Z</time>
      </trkpt>
      <trkpt lat="45.78392" lon="4.29337">
        <ele>421</ele>
        <time>2017-04-13T09:58:58.1Z</time>
      </trkpt>
      <trkpt lat="45.78395" lon="4.29338">
        <ele>422</ele>
        <time>2017-04-13T09:59:00.1Z</time>
      </trkpt>
      <trkpt lat="45.784" lon="4.29339">
        <ele>422</ele>
        <time>2017-04-13T09:59:03.1Z</time>
      </trkpt>
      <trkpt lat="45.78403" lon="4.29339">
        <ele>423</ele>
        <time>2017-04-13T09:59:05.1Z</time>
      </trkpt>
      <trkpt lat="45.78408" lon="4.2934">
        <ele>424</ele>
        <time>2017-04-13T09:59:08.1Z</time>
      </trkpt>
      <trkpt lat="45.78411" lon="4.2934">
        <ele>424</ele>
        <time>2017-04-13T09:59:10.1Z</time>
      </trkpt>
      <trkpt lat="45.78414" lon="4.2934">
        <ele>424</ele>
        <time>2017-04-13T09:59:12.1Z</time>
      </trkpt>
      <trkpt lat="45.78417" lon="4.2934">
        <ele>425</ele>
        <time>2017-04-13T09:59:14.1Z</time>
      </trkpt>
      <trkpt lat="45.78423" lon="4.2934">
        <ele>425</ele>
        <time>2017-04-13T09:59:17.1Z</time>
      </trkpt>
      <trkpt lat="45.78427" lon="4.2934">
        <ele>426</ele>
        <time>2017-04-13T09:59:20.1Z</time>
      </trkpt>
      <trkpt lat="45.7843" lon="4.29341">
        <ele>427</ele>
        <time>2017-04-13T09:59:22.1Z</time>
      </trkpt>
      <trkpt lat="45.78433" lon="4.29341">
        <ele>427</ele>
        <time>2017-04-13T09:59:24.1Z</time>
      </trkpt>
      <trkpt lat="45.78436" lon="4.29341">
        <ele>427</ele>
        <time>2017-04-13T09:59:26.1Z</time>
      </trkpt>
      <trkpt lat="45.78442" lon="4.2934">
        <ele>427</ele>
        <time>2017-04-13T09:59:29.1Z</time>
      </trkpt>
      <trkpt lat="45.78445" lon="4.2934">
        <ele>428</ele>
        <time>2017-04-13T09:59:31.1Z</time>
      </trkpt>
      <trkpt lat="45.78448" lon="4.29339">
        <ele>428</ele>
        <time>2017-04-13T09:59:33.1Z</time>
      </trkpt>
      <trkpt lat="45.78451" lon="4.29339">
        <ele>428</ele>
        <time>2017-04-13T09:59:35.1Z</time>
      </trkpt>
      <trkpt lat="45.78455" lon="4.29338">
        <ele>429</ele>
        <time>2017-04-13T09:59:38.1Z</time>
      </trkpt>
      <trkpt lat="45.78459" lon="4.29338">
        <ele>429</ele>
        <time>2017-04-13T09:59:40.1Z</time>
      </trkpt>
      <trkpt lat="45.78464" lon="4.29337">
        <ele>429</ele>
        <time>2017-04-13T09:59:43.1Z</time>
      </trkpt>
      <trkpt lat="45.78467" lon="4.29337">
        <ele>429</ele>
        <time>2017-04-13T09:59:45.1Z</time>
      </trkpt>
      <trkpt lat="45.7847" lon="4.29336">
        <ele>430</ele>
        <time>2017-04-13T09:59:47.1Z</time>
      </trkpt>
      <trkpt lat="45.78475" lon="4.29335">
        <ele>430</ele>
        <time>2017-04-13T09:59:50.1Z</time>
      </trkpt>
      <trkpt lat="45.78478" lon="4.29335">
        <ele>430</ele>
        <time>2017-04-13T09:59:52.1Z</time>
      </trkpt>
      <trkpt lat="45.78481" lon="4.29334">
        <ele>430</ele>
        <time>2017-04-13T09:59:54.1Z</time>
      </trkpt>
      <trkpt lat="45.78486" lon="4.29334">
        <ele>431</ele>
        <time>2017-04-13T09:59:57.1Z</time>
      </trkpt>
      <trkpt lat="45.78489" lon="4.29333">
        <ele>431</ele>
        <time>2017-04-13T09:59:59.1Z</time>
      </trkpt>
      <trkpt lat="45.78492" lon="4.29332">
        <ele>431</ele>
        <time>2017-04-13T10:00:01.1Z</time>
      </trkpt>
      <trkpt lat="45.78495" lon="4.29332">
        <ele>432</ele>
        <time>2017-04-13T10:00:03.1Z</time>
      </trkpt>
      <trkpt lat="45.78498" lon="4.29331">
        <ele>432</ele>
        <time>2017-04-13T10:00:05.1Z</time>
      </trkpt>
      <trkpt lat="45.78502" lon="4.29331">
        <ele>432</ele>
        <time>2017-04-13T10:00:08.1Z</time>
      </trkpt>
      <trkpt lat="45.78506" lon="4.2933">
        <ele>432</ele>
        <time>2017-04-13T10:00:10.1Z</time>
      </trkpt>
      <trkpt lat="45.78511" lon="4.29329">
        <ele>433</ele>
        <time>2017-04-13T10:00:13.1Z</time>
      </trkpt>
      <trkpt lat="45.78514" lon="4.29328">
        <ele>433</ele>
        <time>2017-04-13T10:00:15.1Z</time>
      </trkpt>
      <trkpt lat="45.78518" lon="4.29327">
        <ele>433</ele>
        <time>2017-04-13T10:00:17.1Z</time>
      </trkpt>
      <trkpt lat="45.78521" lon="4.29326">
        <ele>433</ele>
        <time>2017-04-13T10:00:19.1Z</time>
      </trkpt>
      <trkpt lat="45.78526" lon="4.29325">
        <ele>434</ele>
        <time>2017-04-13T10:00:22.1Z</time>
      </trkpt>
      <trkpt lat="45.78529" lon="4.29324">
        <ele>434</ele>
        <time>2017-04-13T10:00:24.1Z</time>
      </trkpt>
      <trkpt lat="45.78532" lon="4.29324">
        <ele>434</ele>
        <time>2017-04-13T10:00:26.1Z</time>
      </trkpt>
      <trkpt lat="45.78535" lon="4.29323">
        <ele>434</ele>
        <time>2017-04-13T10:00:28.1Z</time>
      </trkpt>
      <trkpt lat="45.78538" lon="4.29323">
        <ele>435</ele>
        <time>2017-04-13T10:00:30.1Z</time>
      </trkpt>
      <trkpt lat="45.78541" lon="4.29322">
        <ele>435</ele>
        <time>2017-04-13T10:00:32.1Z</time>
      </trkpt>
      <trkpt lat="45.78546" lon="4.29321">
        <ele>435</ele>
        <time>2017-04-13T10:00:35.1Z</time>
      </trkpt>
      <trkpt lat="45.7855" lon="4.29321">
        <ele>435</ele>
        <time>2017-04-13T10:00:38.1Z</time>
      </trkpt>
      <trkpt lat="45.78554" lon="4.29321">
        <ele>435</ele>
        <time>2017-04-13T10:00:40.1Z</time>
      </trkpt>
      <trkpt lat="45.78557" lon="4.2932">
        <ele>436</ele>
        <time>2017-04-13T10:00:42.1Z</time>
      </trkpt>
      <trkpt lat="45.78562" lon="4.2932">
        <ele>436</ele>
        <time>2017-04-13T10:00:45.1Z</time>
      </trkpt>
      <trkpt lat="45.78565" lon="4.29319">
        <ele>436</ele>
        <time>2017-04-13T10:00:48.1Z</time>
      </trkpt>
      <trkpt lat="45.78569" lon="4.29319">
        <ele>436</ele>
        <time>2017-04-13T10:00:50.1Z</time>
      </trkpt>
      <trkpt lat="45.78572" lon="4.29319">
        <ele>436</ele>
        <time>2017-04-13T10:00:52.1Z</time>
      </trkpt>
      <trkpt lat="45.78576" lon="4.29318">
        <ele>437</ele>
        <time>2017-04-13T10:00:54.1Z</time>
      </trkpt>
      <trkpt lat="45.78579" lon="4.29318">
        <ele>437</ele>
        <time>2017-04-13T10:00:56.1Z</time>
      </trkpt>
      <trkpt lat="45.78582" lon="4.29318">
        <ele>437</ele>
        <time>2017-04-13T10:00:58.1Z</time>
      </trkpt>
      <trkpt lat="45.78585" lon="4.29318">
        <ele>437</ele>
        <time>2017-04-13T10:01:00.1Z</time>
      </trkpt>
      <trkpt lat="45.78588" lon="4.29318">
        <ele>437</ele>
        <time>2017-04-13T10:01:03.1Z</time>
      </trkpt>
      <trkpt lat="45.78593" lon="4.29318">
        <ele>437</ele>
        <time>2017-04-13T10:01:05.1Z</time>
      </trkpt>
      <trkpt lat="45.78596" lon="4.29318">
        <ele>437</ele>
        <time>2017-04-13T10:01:07.1Z</time>
      </trkpt>
      <trkpt lat="45.78601" lon="4.29317">
        <ele>438</ele>
        <time>2017-04-13T10:01:10.1Z</time>
      </trkpt>
      <trkpt lat="45.78605" lon="4.29317">
        <ele>438</ele>
        <time>2017-04-13T10:01:13.1Z</time>
      </trkpt>
      <trkpt lat="45.7861" lon="4.29317">
        <ele>438</ele>
        <time>2017-04-13T10:01:16.1Z</time>
      </trkpt>
      <trkpt lat="45.78613" lon="4.29316">
        <ele>438</ele>
        <time>2017-04-13T10:01:18.1Z</time>
      </trkpt>
      <trkpt lat="45.78615" lon="4.29316">
        <ele>438</ele>
        <time>2017-04-13T10:01:20.1Z</time>
      </trkpt>
      <trkpt lat="45.7862" lon="4.29316">
        <ele>438</ele>
        <time>2017-04-13T10:01:23.1Z</time>
      </trkpt>
      <trkpt lat="45.78623" lon="4.29316">
        <ele>438</ele>
        <time>2017-04-13T10:01:25.1Z</time>
      </trkpt>
      <trkpt lat="45.78627" lon="4.29317">
        <ele>439</ele>
        <time>2017-04-13T10:01:27.1Z</time>
      </trkpt>
      <trkpt lat="45.7863" lon="4.29317">
        <ele>439</ele>
        <time>2017-04-13T10:01:29.1Z</time>
      </trkpt>
      <trkpt lat="45.78635" lon="4.29318">
        <ele>439</ele>
        <time>2017-04-13T10:01:32.1Z</time>
      </trkpt>
      <trkpt lat="45.78638" lon="4.29317">
        <ele>439</ele>
        <time>2017-04-13T10:01:34.1Z</time>
      </trkpt>
      <trkpt lat="45.78641" lon="4.29317">
        <ele>439</ele>
        <time>2017-04-13T10:01:36.1Z</time>
      </trkpt>
      <trkpt lat="45.78646" lon="4.29316">
        <ele>440</ele>
        <time>2017-04-13T10:01:39.1Z</time>
      </trkpt>
      <trkpt lat="45.78649" lon="4.29315">
        <ele>440</ele>
        <time>2017-04-13T10:01:41.1Z</time>
      </trkpt>
      <trkpt lat="45.78653" lon="4.29314">
        <ele>440</ele>
        <time>2017-04-13T10:01:44.1Z</time>
      </trkpt>
      <trkpt lat="45.78656" lon="4.29313">
        <ele>440</ele>
        <time>2017-04-13T10:01:46.1Z</time>
      </trkpt>
      <trkpt lat="45.78658" lon="4.29313">
        <ele>440</ele>
        <time>2017-04-13T10:01:48.1Z</time>
      </trkpt>
      <trkpt lat="45.78661" lon="4.29314">
        <ele>440</ele>
        <time>2017-04-13T10:01:50.1Z</time>
      </trkpt>
      <trkpt lat="45.78666" lon="4.29314">
        <ele>441</ele>
        <time>2017-04-13T10:01:53.1Z</time>
      </trkpt>
      <trkpt lat="45.78669" lon="4.29315">
        <ele>441</ele>
        <time>2017-04-13T10:01:55.1Z</time>
      </trkpt>
      <trkpt lat="45.78673" lon="4.29316">
        <ele>442</ele>
        <time>2017-04-13T10:01:58.1Z</time>
      </trkpt>
      <trkpt lat="45.78676" lon="4.29317">
        <ele>442</ele>
        <time>2017-04-13T10:02:00.1Z</time>
      </trkpt>
      <trkpt lat="45.7868" lon="4.29318">
        <ele>442</ele>
        <time>2017-04-13T10:02:03.1Z</time>
      </trkpt>
      <trkpt lat="45.78685" lon="4.29319">
        <ele>442</ele>
        <time>2017-04-13T10:02:06.1Z</time>
      </trkpt>
      <trkpt lat="45.78688" lon="4.29319">
        <ele>442</ele>
        <time>2017-04-13T10:02:08.1Z</time>
      </trkpt>
      <trkpt lat="45.78692" lon="4.2932">
        <ele>443</ele>
        <time>2017-04-13T10:02:11.1Z</time>
      </trkpt>
      <trkpt lat="45.78696" lon="4.29321">
        <ele>443</ele>
        <time>2017-04-13T10:02:14.1Z</time>
      </trkpt>
      <trkpt lat="45.78699" lon="4.29322">
        <ele>443</ele>
        <time>2017-04-13T10:02:16.1Z</time>
      </trkpt>
      <trkpt lat="45.78704" lon="4.29323">
        <ele>443</ele>
        <time>2017-04-13T10:02:19.1Z</time>
      </trkpt>
      <trkpt lat="45.78706" lon="4.29324">
        <ele>443</ele>
        <time>2017-04-13T10:02:21.1Z</time>
      </trkpt>
      <trkpt lat="45.78711" lon="4.29325">
        <ele>444</ele>
        <time>2017-04-13T10:02:24.1Z</time>
      </trkpt>
      <trkpt lat="45.78715" lon="4.29326">
        <ele>444</ele>
        <time>2017-04-13T10:02:26.1Z</time>
      </trkpt>
      <trkpt lat="45.78719" lon="4.29327">
        <ele>444</ele>
        <time>2017-04-13T10:02:29.1Z</time>
      </trkpt>
      <trkpt lat="45.78722" lon="4.29327">
        <ele>445</ele>
        <time>2017-04-13T10:02:31.1Z</time>
      </trkpt>
      <trkpt lat="45.78725" lon="4.29328">
        <ele>445</ele>
        <time>2017-04-13T10:02:33.1Z</time>
      </trkpt>
      <trkpt lat="45.78728" lon="4.29328">
        <ele>445</ele>
        <time>2017-04-13T10:02:35.1Z</time>
      </trkpt>
      <trkpt lat="45.78733" lon="4.29329">
        <ele>446</ele>
        <time>2017-04-13T10:02:38.1Z</time>
      </trkpt>
      <trkpt lat="45.78737" lon="4.2933">
        <ele>446</ele>
        <time>2017-04-13T10:02:41.1Z</time>
      </trkpt>
      <trkpt lat="45.7874" lon="4.29331">
        <ele>446</ele>
        <time>2017-04-13T10:02:43.1Z</time>
      </trkpt>
      <trkpt lat="45.78745" lon="4.29331">
        <ele>446</ele>
        <time>2017-04-13T10:02:46.1Z</time>
      </trkpt>
      <trkpt lat="45.78749" lon="4.29333">
        <ele>447</ele>
        <time>2017-04-13T10:02:49.1Z</time>
      </trkpt>
      <trkpt lat="45.78752" lon="4.29333">
        <ele>447</ele>
        <time>2017-04-13T10:02:51.1Z</time>
      </trkpt>
      <trkpt lat="45.78755" lon="4.29334">
        <ele>447</ele>
        <time>2017-04-13T10:02:53.1Z</time>
      </trkpt>
      <trkpt lat="45.78758" lon="4.29335">
        <ele>448</ele>
        <time>2017-04-13T10:02:55.1Z</time>
      </trkpt>
      <trkpt lat="45.78761" lon="4.29336">
        <ele>448</ele>
        <time>2017-04-13T10:02:58.1Z</time>
      </trkpt>
      <trkpt lat="45.78765" lon="4.29337">
        <ele>448</ele>
        <time>2017-04-13T10:03:00.1Z</time>
      </trkpt>
      <trkpt lat="45.78769" lon="4.29337">
        <ele>448</ele>
        <time>2017-04-13T10:03:02.1Z</time>
      </trkpt>
      <trkpt lat="45.78773" lon="4.29338">
        <ele>449</ele>
        <time>2017-04-13T10:03:05.1Z</time>
      </trkpt>
      <trkpt lat="45.78778" lon="4.29339">
        <ele>449</ele>
        <time>2017-04-13T10:03:08.1Z</time>
      </trkpt>
      <trkpt lat="45.78781" lon="4.2934">
        <ele>449</ele>
        <time>2017-04-13T10:03:10.1Z</time>
      </trkpt>
      <trkpt lat="45.78786" lon="4.2934">
        <ele>449</ele>
        <time>2017-04-13T10:03:13.1Z</time>
      </trkpt>
      <trkpt lat="45.7879" lon="4.29342">
        <ele>449</ele>
        <time>2017-04-13T10:03:16.1Z</time>
      </trkpt>
      <trkpt lat="45.78793" lon="4.29342">
        <ele>449</ele>
        <time>2017-04-13T10:03:18.1Z</time>
      </trkpt>
      <trkpt lat="45.78796" lon="4.29343">
        <ele>450</ele>
        <time>2017-04-13T10:03:20.1Z</time>
      </trkpt>
      <trkpt lat="45.78801" lon="4.29344">
        <ele>450</ele>
        <time>2017-04-13T10:03:23.1Z</time>
      </trkpt>
      <trkpt lat="45.78804" lon="4.29345">
        <ele>450</ele>
        <time>2017-04-13T10:03:25.1Z</time>
      </trkpt>
      <trkpt lat="45.78809" lon="4.29346">
        <ele>450</ele>
        <time>2017-04-13T10:03:28.1Z</time>
      </trkpt>
      <trkpt lat="45.78812" lon="4.29347">
        <ele>451</ele>
        <time>2017-04-13T10:03:30.1Z</time>
      </trkpt>
      <trkpt lat="45.78815" lon="4.29348">
        <ele>451</ele>
        <time>2017-04-13T10:03:32.1Z</time>
      </trkpt>
      <trkpt lat="45.78818" lon="4.2935">
        <ele>451</ele>
        <time>2017-04-13T10:03:34.1Z</time>
      </trkpt>
      <trkpt lat="45.78821" lon="4.2935">
        <ele>451</ele>
        <time>2017-04-13T10:03:37.1Z</time>
      </trkpt>
      <trkpt lat="45.78822" lon="4.2935">
        <ele>451</ele>
        <time>2017-04-13T10:03:39.1Z</time>
      </trkpt>
      <trkpt lat="45.78823" lon="4.29351">
        <ele>451</ele>
        <time>2017-04-13T10:03:42.1Z</time>
      </trkpt>
      <trkpt lat="45.78823" lon="4.29351">
        <ele>451</ele>
        <time>2017-04-13T10:03:44.1Z</time>
      </trkpt>
      <trkpt lat="45.78823" lon="4.29352">
        <ele>451</ele>
        <time>2017-04-13T10:03:47.1Z</time>
      </trkpt>
      <trkpt lat="45.78824" lon="4.29352">
        <ele>451</ele>
        <time>2017-04-13T10:03:50.1Z</time>
      </trkpt>
      <trkpt lat="45.78824" lon="4.29352">
        <ele>451</ele>
        <time>2017-04-13T10:03:52.1Z</time>
      </trkpt>
      <trkpt lat="45.78824" lon="4.29352">
        <ele>451</ele>
        <time>2017-04-13T10:03:54.1Z</time>
      </trkpt>
      <trkpt lat="45.78824" lon="4.29352">
        <ele>450</ele>
        <time>2017-04-13T10:03:58.1Z</time>
      </trkpt>
      <trkpt lat="45.78825" lon="4.29352">
        <ele>450</ele>
        <time>2017-04-13T10:04:00.1Z</time>
      </trkpt>
      <trkpt lat="45.78825" lon="4.29352">
        <ele>450</ele>
        <time>2017-04-13T10:04:02.1Z</time>
      </trkpt>
      <trkpt lat="45.78825" lon="4.29352">
        <ele>451</ele>
        <time>2017-04-13T10:04:06.1Z</time>
      </trkpt>
      <trkpt lat="45.78825" lon="4.29352">
        <ele>451</ele>
        <time>2017-04-13T10:04:10.1Z</time>
      </trkpt>
      <trkpt lat="45.78825" lon="4.29352">
        <ele>450</ele>
        <time>2017-04-13T10:04:12.1Z</time>
      </trkpt>
      <trkpt lat="45.78825" lon="4.29352">
        <ele>450</ele>
        <time>2017-04-13T10:04:15.1Z</time>
      </trkpt>
      <trkpt lat="45.78826" lon="4.29352">
        <ele>450</ele>
        <time>2017-04-13T10:04:17.1Z</time>
      </trkpt>
      <trkpt lat="45.78826" lon="4.29353">
        <ele>450</ele>
        <time>2017-04-13T10:04:19.1Z</time>
      </trkpt>
      <trkpt lat="45.78827" lon="4.29353">
        <ele>451</ele>
        <time>2017-04-13T10:04:21.1Z</time>
      </trkpt>
      <trkpt lat="45.78827" lon="4.29353">
        <ele>451</ele>
        <time>2017-04-13T10:04:24.1Z</time>
      </trkpt>
      <trkpt lat="45.78827" lon="4.29353">
        <ele>451</ele>
        <time>2017-04-13T10:04:26.1Z</time>
      </trkpt>
      <trkpt lat="45.78828" lon="4.29353">
        <ele>451</ele>
        <time>2017-04-13T10:04:29.1Z</time>
      </trkpt>
      <trkpt lat="45.78828" lon="4.29354">
        <ele>451</ele>
        <time>2017-04-13T10:04:32.1Z</time>
      </trkpt>
      <trkpt lat="45.78828" lon="4.29354">
        <ele>451</ele>
        <time>2017-04-13T10:04:35.1Z</time>
      </trkpt>
      <trkpt lat="45.78828" lon="4.29354">
        <ele>451</ele>
        <time>2017-04-13T10:04:41.1Z</time>
      </trkpt>
      <trkpt lat="45.78828" lon="4.29353">
        <ele>451</ele>
        <time>2017-04-13T10:04:44.1Z</time>
      </trkpt>
      <trkpt lat="45.78828" lon="4.29353">
        <ele>451</ele>
        <time>2017-04-13T10:04:47.1Z</time>
      </trkpt>
      <trkpt lat="45.78828" lon="4.29353">
        <ele>451</ele>
        <time>2017-04-13T10:04:50.1Z</time>
      </trkpt>
      <trkpt lat="45.78828" lon="4.29353">
        <ele>451</ele>
        <time>2017-04-13T10:04:54.1Z</time>
      </trkpt>
      <trkpt lat="45.78828" lon="4.29353">
        <ele>451</ele>
        <time>2017-04-13T10:04:58.1Z</time>
      </trkpt>
      <trkpt lat="45.78828" lon="4.29354">
        <ele>451</ele>
        <time>2017-04-13T10:05:01.1Z</time>
      </trkpt>
      <trkpt lat="45.78828" lon="4.29355">
        <ele>451</ele>
        <time>2017-04-13T10:05:03.1Z</time>
      </trkpt>
      <trkpt lat="45.7883" lon="4.29359">
        <ele>451</ele>
        <time>2017-04-13T10:05:06.1Z</time>
      </trkpt>
      <trkpt lat="45.78832" lon="4.29361">
        <ele>451</ele>
        <time>2017-04-13T10:05:08.1Z</time>
      </trkpt>
      <trkpt lat="45.78834" lon="4.29363">
        <ele>452</ele>
        <time>2017-04-13T10:05:10.1Z</time>
      </trkpt>
      <trkpt lat="45.78837" lon="4.29367">
        <ele>452</ele>
        <time>2017-04-13T10:05:13.1Z</time>
      </trkpt>
      <trkpt lat="45.78839" lon="4.29369">
        <ele>452</ele>
        <time>2017-04-13T10:05:15.1Z</time>
      </trkpt>
      <trkpt lat="45.78842" lon="4.29373">
        <ele>452</ele>
        <time>2017-04-13T10:05:18.1Z</time>
      </trkpt>
      <trkpt lat="45.78845" lon="4.29375">
        <ele>453</ele>
        <time>2017-04-13T10:05:20.1Z</time>
      </trkpt>
      <trkpt lat="45.78847" lon="4.29377">
        <ele>453</ele>
        <time>2017-04-13T10:05:22.1Z</time>
      </trkpt>
      <trkpt lat="45.7885" lon="4.2938">
        <ele>454</ele>
        <time>2017-04-13T10:05:25.1Z</time>
      </trkpt>
      <trkpt lat="45.78852" lon="4.29383">
        <ele>454</ele>
        <time>2017-04-13T10:05:27.1Z</time>
      </trkpt>
      <trkpt lat="45.78856" lon="4.29386">
        <ele>455</ele>
        <time>2017-04-13T10:05:30.1Z</time>
      </trkpt>
      <trkpt lat="45.78859" lon="4.2939">
        <ele>455</ele>
        <time>2017-04-13T10:05:33.1Z</time>
      </trkpt>
      <trkpt lat="45.78861" lon="4.29392">
        <ele>455</ele>
        <time>2017-04-13T10:05:35.1Z</time>
      </trkpt>
      <trkpt lat="45.78864" lon="4.29394">
        <ele>456</ele>
        <time>2017-04-13T10:05:37.1Z</time>
      </trkpt>
      <trkpt lat="45.78867" lon="4.29398">
        <ele>456</ele>
        <time>2017-04-13T10:05:40.1Z</time>
      </trkpt>
      <trkpt lat="45.78869" lon="4.294">
        <ele>456</ele>
        <time>2017-04-13T10:05:42.1Z</time>
      </trkpt>
      <trkpt lat="45.78873" lon="4.29403">
        <ele>457</ele>
        <time>2017-04-13T10:05:45.1Z</time>
      </trkpt>
      <trkpt lat="45.78876" lon="4.29406">
        <ele>457</ele>
        <time>2017-04-13T10:05:48.1Z</time>
      </trkpt>
      <trkpt lat="45.78879" lon="4.2941">
        <ele>458</ele>
        <time>2017-04-13T10:05:51.1Z</time>
      </trkpt>
      <trkpt lat="45.78881" lon="4.29412">
        <ele>458</ele>
        <time>2017-04-13T10:05:53.1Z</time>
      </trkpt>
      <trkpt lat="45.78885" lon="4.29416">
        <ele>458</ele>
        <time>2017-04-13T10:05:56.1Z</time>
      </trkpt>
      <trkpt lat="45.78887" lon="4.29418">
        <ele>459</ele>
        <time>2017-04-13T10:05:58.1Z</time>
      </trkpt>
      <trkpt lat="45.78889" lon="4.2942">
        <ele>459</ele>
        <time>2017-04-13T10:06:01.1Z</time>
      </trkpt>
      <trkpt lat="45.78893" lon="4.29423">
        <ele>459</ele>
        <time>2017-04-13T10:06:03.1Z</time>
      </trkpt>
      <trkpt lat="45.78895" lon="4.29425">
        <ele>459</ele>
        <time>2017-04-13T10:06:05.1Z</time>
      </trkpt>
      <trkpt lat="45.78897" lon="4.29427">
        <ele>459</ele>
        <time>2017-04-13T10:06:07.1Z</time>
      </trkpt>
      <trkpt lat="45.78901" lon="4.29431">
        <ele>460</ele>
        <time>2017-04-13T10:06:10.1Z</time>
      </trkpt>
      <trkpt lat="45.78904" lon="4.29434">
        <ele>460</ele>
        <time>2017-04-13T10:06:13.1Z</time>
      </trkpt>
      <trkpt lat="45.78906" lon="4.29436">
        <ele>460</ele>
        <time>2017-04-13T10:06:15.1Z</time>
      </trkpt>
      <trkpt lat="45.7891" lon="4.2944">
        <ele>461</ele>
        <time>2017-04-13T10:06:18.1Z</time>
      </trkpt>
      <trkpt lat="45.78913" lon="4.29444">
        <ele>461</ele>
        <time>2017-04-13T10:06:21.1Z</time>
      </trkpt>
      <trkpt lat="45.78915" lon="4.29446">
        <ele>461</ele>
        <time>2017-04-13T10:06:23.1Z</time>
      </trkpt>
      <trkpt lat="45.78919" lon="4.29449">
        <ele>461</ele>
        <time>2017-04-13T10:06:26.1Z</time>
      </trkpt>
      <trkpt lat="45.78922" lon="4.29451">
        <ele>461</ele>
        <time>2017-04-13T10:06:28.1Z</time>
      </trkpt>
      <trkpt lat="45.78926" lon="4.29454">
        <ele>462</ele>
        <time>2017-04-13T10:06:31.1Z</time>
      </trkpt>
      <trkpt lat="45.78928" lon="4.29455">
        <ele>462</ele>
        <time>2017-04-13T10:06:33.1Z</time>
      </trkpt>
      <trkpt lat="45.78931" lon="4.29457">
        <ele>462</ele>
        <time>2017-04-13T10:06:35.1Z</time>
      </trkpt>
      <trkpt lat="45.78934" lon="4.29459">
        <ele>462</ele>
        <time>2017-04-13T10:06:38.1Z</time>
      </trkpt>
      <trkpt lat="45.78937" lon="4.29461">
        <ele>462</ele>
        <time>2017-04-13T10:06:40.1Z</time>
      </trkpt>
      <trkpt lat="45.78941" lon="4.29463">
        <ele>463</ele>
        <time>2017-04-13T10:06:43.1Z</time>
      </trkpt>
      <trkpt lat="45.78944" lon="4.29465">
        <ele>463</ele>
        <time>2017-04-13T10:06:45.1Z</time>
      </trkpt>
      <trkpt lat="45.78946" lon="4.29466">
        <ele>464</ele>
        <time>2017-04-13T10:06:47.1Z</time>
      </trkpt>
      <trkpt lat="45.78949" lon="4.29467">
        <ele>464</ele>
        <time>2017-04-13T10:06:49.1Z</time>
      </trkpt>
      <trkpt lat="45.78952" lon="4.29468">
        <ele>464</ele>
        <time>2017-04-13T10:06:51.1Z</time>
      </trkpt>
      <trkpt lat="45.78954" lon="4.2947">
        <ele>464</ele>
        <time>2017-04-13T10:06:53.1Z</time>
      </trkpt>
      <trkpt lat="45.78958" lon="4.29472">
        <ele>464</ele>
        <time>2017-04-13T10:06:56.1Z</time>
      </trkpt>
      <trkpt lat="45.78961" lon="4.29473">
        <ele>464</ele>
        <time>2017-04-13T10:06:58.1Z</time>
      </trkpt>
      <trkpt lat="45.78965" lon="4.29474">
        <ele>464</ele>
        <time>2017-04-13T10:07:01.1Z</time>
      </trkpt>
      <trkpt lat="45.78968" lon="4.29476">
        <ele>464</ele>
        <time>2017-04-13T10:07:03.1Z</time>
      </trkpt>
      <trkpt lat="45.7897" lon="4.29477">
        <ele>464</ele>
        <time>2017-04-13T10:07:05.1Z</time>
      </trkpt>
      <trkpt lat="45.78974" lon="4.29479">
        <ele>464</ele>
        <time>2017-04-13T10:07:08.1Z</time>
      </trkpt>
      <trkpt lat="45.78977" lon="4.2948">
        <ele>465</ele>
        <time>2017-04-13T10:07:10.1Z</time>
      </trkpt>
      <trkpt lat="45.78981" lon="4.29482">
        <ele>464</ele>
        <time>2017-04-13T10:07:13.1Z</time>
      </trkpt>
      <trkpt lat="45.78985" lon="4.29484">
        <ele>465</ele>
        <time>2017-04-13T10:07:16.1Z</time>
      </trkpt>
      <trkpt lat="45.78988" lon="4.29485">
        <ele>465</ele>
        <time>2017-04-13T10:07:18.1Z</time>
      </trkpt>
      <trkpt lat="45.7899" lon="4.29487">
        <ele>465</ele>
        <time>2017-04-13T10:07:20.1Z</time>
      </trkpt>
      <trkpt lat="45.78994" lon="4.29489">
        <ele>465</ele>
        <time>2017-04-13T10:07:23.1Z</time>
      </trkpt>
      <trkpt lat="45.78997" lon="4.2949">
        <ele>465</ele>
        <time>2017-04-13T10:07:25.1Z</time>
      </trkpt>
      <trkpt lat="45.79" lon="4.29491">
        <ele>465</ele>
        <time>2017-04-13T10:07:27.1Z</time>
      </trkpt>
      <trkpt lat="45.79003" lon="4.29492">
        <ele>466</ele>
        <time>2017-04-13T10:07:29.1Z</time>
      </trkpt>
      <trkpt lat="45.79007" lon="4.29494">
        <ele>466</ele>
        <time>2017-04-13T10:07:32.1Z</time>
      </trkpt>
      <trkpt lat="45.7901" lon="4.29495">
        <ele>466</ele>
        <time>2017-04-13T10:07:34.1Z</time>
      </trkpt>
      <trkpt lat="45.79014" lon="4.29497">
        <ele>465</ele>
        <time>2017-04-13T10:07:37.1Z</time>
      </trkpt>
      <trkpt lat="45.79018" lon="4.29499">
        <ele>465</ele>
        <time>2017-04-13T10:07:40.1Z</time>
      </trkpt>
      <trkpt lat="45.7902" lon="4.295">
        <ele>465</ele>
        <time>2017-04-13T10:07:42.1Z</time>
      </trkpt>
      <trkpt lat="45.79023" lon="4.29502">
        <ele>465</ele>
        <time>2017-04-13T10:07:44.1Z</time>
      </trkpt>
      <trkpt lat="45.79027" lon="4.29504">
        <ele>465</ele>
        <time>2017-04-13T10:07:47.1Z</time>
      </trkpt>
      <trkpt lat="45.79031" lon="4.29505">
        <ele>465</ele>
        <time>2017-04-13T10:07:50.1Z</time>
      </trkpt>
      <trkpt lat="45.79036" lon="4.29507">
        <ele>465</ele>
        <time>2017-04-13T10:07:53.1Z</time>
      </trkpt>
      <trkpt lat="45.7904" lon="4.29509">
        <ele>465</ele>
        <time>2017-04-13T10:07:56.1Z</time>
      </trkpt>
      <trkpt lat="45.79042" lon="4.2951">
        <ele>465</ele>
        <time>2017-04-13T10:07:58.1Z</time>
      </trkpt>
      <trkpt lat="45.79047" lon="4.29512">
        <ele>466</ele>
        <time>2017-04-13T10:08:01.1Z</time>
      </trkpt>
      <trkpt lat="45.79051" lon="4.29514">
        <ele>466</ele>
        <time>2017-04-13T10:08:04.1Z</time>
      </trkpt>
      <trkpt lat="45.79053" lon="4.29516">
        <ele>466</ele>
        <time>2017-04-13T10:08:06.1Z</time>
      </trkpt>
      <trkpt lat="45.79056" lon="4.29517">
        <ele>466</ele>
        <time>2017-04-13T10:08:08.1Z</time>
      </trkpt>
      <trkpt lat="45.7906" lon="4.29519">
        <ele>466</ele>
        <time>2017-04-13T10:08:11.1Z</time>
      </trkpt>
      <trkpt lat="45.79065" lon="4.2952">
        <ele>467</ele>
        <time>2017-04-13T10:08:14.1Z</time>
      </trkpt>
      <trkpt lat="45.79068" lon="4.29522">
        <ele>467</ele>
        <time>2017-04-13T10:08:17.1Z</time>
      </trkpt>
      <trkpt lat="45.79071" lon="4.29523">
        <ele>468</ele>
        <time>2017-04-13T10:08:19.1Z</time>
      </trkpt>
      <trkpt lat="45.79075" lon="4.29525">
        <ele>468</ele>
        <time>2017-04-13T10:08:22.1Z</time>
      </trkpt>
      <trkpt lat="45.79079" lon="4.29526">
        <ele>468</ele>
        <time>2017-04-13T10:08:25.1Z</time>
      </trkpt>
      <trkpt lat="45.79082" lon="4.29528">
        <ele>468</ele>
        <time>2017-04-13T10:08:27.1Z</time>
      </trkpt>
      <trkpt lat="45.79085" lon="4.29529">
        <ele>468</ele>
        <time>2017-04-13T10:08:29.1Z</time>
      </trkpt>
      <trkpt lat="45.79087" lon="4.2953">
        <ele>468</ele>
        <time>2017-04-13T10:08:31.1Z</time>
      </trkpt>
      <trkpt lat="45.79092" lon="4.29532">
        <ele>469</ele>
        <time>2017-04-13T10:08:34.1Z</time>
      </trkpt>
      <trkpt lat="45.79094" lon="4.29533">
        <ele>469</ele>
        <time>2017-04-13T10:08:36.1Z</time>
      </trkpt>
      <trkpt lat="45.79098" lon="4.29535">
        <ele>469</ele>
        <time>2017-04-13T10:08:39.1Z</time>
      </trkpt>
      <trkpt lat="45.791" lon="4.29537">
        <ele>469</ele>
        <time>2017-04-13T10:08:41.1Z</time>
      </trkpt>
      <trkpt lat="45.79104" lon="4.2954">
        <ele>470</ele>
        <time>2017-04-13T10:08:44.1Z</time>
      </trkpt>
      <trkpt lat="45.79106" lon="4.29541">
        <ele>470</ele>
        <time>2017-04-13T10:08:46.1Z</time>
      </trkpt>
      <trkpt lat="45.7911" lon="4.29545">
        <ele>471</ele>
        <time>2017-04-13T10:08:49.1Z</time>
      </trkpt>
      <trkpt lat="45.79112" lon="4.29547">
        <ele>471</ele>
        <time>2017-04-13T10:08:51.1Z</time>
      </trkpt>
      <trkpt lat="45.79114" lon="4.29549">
        <ele>471</ele>
        <time>2017-04-13T10:08:53.1Z</time>
      </trkpt>
      <trkpt lat="45.79118" lon="4.29552">
        <ele>471</ele>
        <time>2017-04-13T10:08:56.1Z</time>
      </trkpt>
      <trkpt lat="45.79121" lon="4.29555">
        <ele>472</ele>
        <time>2017-04-13T10:08:59.1Z</time>
      </trkpt>
      <trkpt lat="45.79123" lon="4.29557">
        <ele>472</ele>
        <time>2017-04-13T10:09:01.1Z</time>
      </trkpt>
      <trkpt lat="45.79127" lon="4.2956">
        <ele>472</ele>
        <time>2017-04-13T10:09:04.1Z</time>
      </trkpt>
      <trkpt lat="45.79129" lon="4.29562">
        <ele>472</ele>
        <time>2017-04-13T10:09:06.1Z</time>
      </trkpt>
      <trkpt lat="45.79131" lon="4.29564">
        <ele>472</ele>
        <time>2017-04-13T10:09:08.1Z</time>
      </trkpt>
      <trkpt lat="45.79135" lon="4.29566">
        <ele>473</ele>
        <time>2017-04-13T10:09:11.1Z</time>
      </trkpt>
      <trkpt lat="45.79138" lon="4.29569">
        <ele>473</ele>
        <time>2017-04-13T10:09:14.1Z</time>
      </trkpt>
      <trkpt lat="45.79141" lon="4.29571">
        <ele>473</ele>
        <time>2017-04-13T10:09:17.1Z</time>
      </trkpt>
      <trkpt lat="45.79143" lon="4.29573">
        <ele>473</ele>
        <time>2017-04-13T10:09:19.1Z</time>
      </trkpt>
      <trkpt lat="45.79146" lon="4.29576">
        <ele>474</ele>
        <time>2017-04-13T10:09:22.1Z</time>
      </trkpt>
      <trkpt lat="45.79149" lon="4.29577">
        <ele>474</ele>
        <time>2017-04-13T10:09:24.1Z</time>
      </trkpt>
      <trkpt lat="45.79151" lon="4.29579">
        <ele>475</ele>
        <time>2017-04-13T10:09:26.1Z</time>
      </trkpt>
      <trkpt lat="45.79153" lon="4.2958">
        <ele>475</ele>
        <time>2017-04-13T10:09:28.1Z</time>
      </trkpt>
      <trkpt lat="45.79156" lon="4.29582">
        <ele>475</ele>
        <time>2017-04-13T10:09:31.1Z</time>
      </trkpt>
      <trkpt lat="45.79159" lon="4.29585">
        <ele>475</ele>
        <time>2017-04-13T10:09:34.1Z</time>
      </trkpt>
      <trkpt lat="45.79161" lon="4.29587">
        <ele>476</ele>
        <time>2017-04-13T10:09:37.1Z</time>
      </trkpt>
      <trkpt lat="45.79164" lon="4.29589">
        <ele>476</ele>
        <time>2017-04-13T10:09:39.1Z</time>
      </trkpt>
      <trkpt lat="45.79166" lon="4.2959">
        <ele>476</ele>
        <time>2017-04-13T10:09:41.1Z</time>
      </trkpt>
      <trkpt lat="45.79168" lon="4.29593">
        <ele>477</ele>
        <time>2017-04-13T10:09:44.1Z</time>
      </trkpt>
      <trkpt lat="45.79169" lon="4.29596">
        <ele>477</ele>
        <time>2017-04-13T10:09:46.1Z</time>
      </trkpt>
      <trkpt lat="45.79173" lon="4.29599">
        <ele>478</ele>
        <time>2017-04-13T10:09:49.1Z</time>
      </trkpt>
      <trkpt lat="45.79175" lon="4.29601">
        <ele>478</ele>
        <time>2017-04-13T10:09:51.1Z</time>
      </trkpt>
      <trkpt lat="45.79178" lon="4.29601">
        <ele>478</ele>
        <time>2017-04-13T10:09:53.1Z</time>
      </trkpt>
      <trkpt lat="45.79182" lon="4.296">
        <ele>478</ele>
        <time>2017-04-13T10:09:56.1Z</time>
      </trkpt>
      <trkpt lat="45.79185" lon="4.29598">
        <ele>478</ele>
        <time>2017-04-13T10:09:59.1Z</time>
      </trkpt>
      <trkpt lat="45.79189" lon="4.29596">
        <ele>478</ele>
        <time>2017-04-13T10:10:02.1Z</time>
      </trkpt>
      <trkpt lat="45.79193" lon="4.29594">
        <ele>478</ele>
        <time>2017-04-13T10:10:05.1Z</time>
      </trkpt>
      <trkpt lat="45.79195" lon="4.29593">
        <ele>478</ele>
        <time>2017-04-13T10:10:07.1Z</time>
      </trkpt>
      <trkpt lat="45.792" lon="4.29591">
        <ele>478</ele>
        <time>2017-04-13T10:10:10.1Z</time>
      </trkpt>
      <trkpt lat="45.79204" lon="4.29589">
        <ele>479</ele>
        <time>2017-04-13T10:10:13.1Z</time>
      </trkpt>
      <trkpt lat="45.79206" lon="4.29589">
        <ele>479</ele>
        <time>2017-04-13T10:10:15.1Z</time>
      </trkpt>
      <trkpt lat="45.79211" lon="4.29589">
        <ele>479</ele>
        <time>2017-04-13T10:10:18.1Z</time>
      </trkpt>
      <trkpt lat="45.79214" lon="4.2959">
        <ele>479</ele>
        <time>2017-04-13T10:10:20.1Z</time>
      </trkpt>
      <trkpt lat="45.79219" lon="4.2959">
        <ele>479</ele>
        <time>2017-04-13T10:10:23.1Z</time>
      </trkpt>
      <trkpt lat="45.79222" lon="4.29591">
        <ele>480</ele>
        <time>2017-04-13T10:10:25.1Z</time>
      </trkpt>
      <trkpt lat="45.79225" lon="4.29591">
        <ele>480</ele>
        <time>2017-04-13T10:10:27.1Z</time>
      </trkpt>
      <trkpt lat="45.79229" lon="4.29592">
        <ele>479</ele>
        <time>2017-04-13T10:10:30.1Z</time>
      </trkpt>
      <trkpt lat="45.79232" lon="4.29592">
        <ele>479</ele>
        <time>2017-04-13T10:10:32.1Z</time>
      </trkpt>
      <trkpt lat="45.79237" lon="4.29593">
        <ele>479</ele>
        <time>2017-04-13T10:10:35.1Z</time>
      </trkpt>
      <trkpt lat="45.7924" lon="4.29593">
        <ele>480</ele>
        <time>2017-04-13T10:10:37.1Z</time>
      </trkpt>
      <trkpt lat="45.79242" lon="4.29594">
        <ele>480</ele>
        <time>2017-04-13T10:10:39.1Z</time>
      </trkpt>
      <trkpt lat="45.79245" lon="4.29594">
        <ele>480</ele>
        <time>2017-04-13T10:10:41.1Z</time>
      </trkpt>
      <trkpt lat="45.7925" lon="4.29596">
        <ele>479</ele>
        <time>2017-04-13T10:10:44.1Z</time>
      </trkpt>
      <trkpt lat="45.79254" lon="4.29596">
        <ele>479</ele>
        <time>2017-04-13T10:10:47.1Z</time>
      </trkpt>
      <trkpt lat="45.79257" lon="4.29597">
        <ele>479</ele>
        <time>2017-04-13T10:10:49.1Z</time>
      </trkpt>
      <trkpt lat="45.79261" lon="4.29597">
        <ele>479</ele>
        <time>2017-04-13T10:10:52.1Z</time>
      </trkpt>
      <trkpt lat="45.79264" lon="4.29597">
        <ele>479</ele>
        <time>2017-04-13T10:10:54.1Z</time>
      </trkpt>
      <trkpt lat="45.79268" lon="4.29598">
        <ele>479</ele>
        <time>2017-04-13T10:10:57.1Z</time>
      </trkpt>
      <trkpt lat="45.79271" lon="4.29598">
        <ele>479</ele>
        <time>2017-04-13T10:10:59.1Z</time>
      </trkpt>
      <trkpt lat="45.79274" lon="4.29598">
        <ele>479</ele>
        <time>2017-04-13T10:11:02.1Z</time>
      </trkpt>
      <trkpt lat="45.79278" lon="4.29599">
        <ele>479</ele>
        <time>2017-04-13T10:11:05.1Z</time>
      </trkpt>
      <trkpt lat="45.79282" lon="4.29599">
        <ele>479</ele>
        <time>2017-04-13T10:11:08.1Z</time>
      </trkpt>
      <trkpt lat="45.79284" lon="4.29599">
        <ele>479</ele>
        <time>2017-04-13T10:11:10.1Z</time>
      </trkpt>
      <trkpt lat="45.79286" lon="4.29599">
        <ele>478</ele>
        <time>2017-04-13T10:11:12.1Z</time>
      </trkpt>
      <trkpt lat="45.79288" lon="4.29598">
        <ele>479</ele>
        <time>2017-04-13T10:11:14.1Z</time>
      </trkpt>
      <trkpt lat="45.7929" lon="4.29598">
        <ele>478</ele>
        <time>2017-04-13T10:11:16.1Z</time>
      </trkpt>
      <trkpt lat="45.79292" lon="4.29599">
        <ele>478</ele>
        <time>2017-04-13T10:11:19.1Z</time>
      </trkpt>
      <trkpt lat="45.79292" lon="4.296">
        <ele>477</ele>
        <time>2017-04-13T10:11:21.1Z</time>
      </trkpt>
      <trkpt lat="45.79294" lon="4.296">
        <ele>477</ele>
        <time>2017-04-13T10:11:24.1Z</time>
      </trkpt>
      <trkpt lat="45.79295" lon="4.29599">
        <ele>477</ele>
        <time>2017-04-13T10:11:26.1Z</time>
      </trkpt>
      <trkpt lat="45.79298" lon="4.29594">
        <ele>477</ele>
        <time>2017-04-13T10:11:29.1Z</time>
      </trkpt>
      <trkpt lat="45.79299" lon="4.29591">
        <ele>476</ele>
        <time>2017-04-13T10:11:31.1Z</time>
      </trkpt>
      <trkpt lat="45.793" lon="4.29588">
        <ele>476</ele>
        <time>2017-04-13T10:11:33.1Z</time>
      </trkpt>
      <trkpt lat="45.79301" lon="4.29585">
        <ele>476</ele>
        <time>2017-04-13T10:11:35.1Z</time>
      </trkpt>
      <trkpt lat="45.79303" lon="4.29579">
        <ele>475</ele>
        <time>2017-04-13T10:11:38.1Z</time>
      </trkpt>
      <trkpt lat="45.79304" lon="4.29576">
        <ele>475</ele>
        <time>2017-04-13T10:11:40.1Z</time>
      </trkpt>
      <trkpt lat="45.79304" lon="4.29573">
        <ele>475</ele>
        <time>2017-04-13T10:11:42.1Z</time>
      </trkpt>
      <trkpt lat="45.79305" lon="4.29569">
        <ele>474</ele>
        <time>2017-04-13T10:11:44.1Z</time>
      </trkpt>
      <trkpt lat="45.79306" lon="4.29564">
        <ele>474</ele>
        <time>2017-04-13T10:11:47.1Z</time>
      </trkpt>
      <trkpt lat="45.79308" lon="4.2956">
        <ele>474</ele>
        <time>2017-04-13T10:11:49.1Z</time>
      </trkpt>
      <trkpt lat="45.79309" lon="4.29554">
        <ele>473</ele>
        <time>2017-04-13T10:11:52.1Z</time>
      </trkpt>
      <trkpt lat="45.7931" lon="4.29548">
        <ele>473</ele>
        <time>2017-04-13T10:11:55.1Z</time>
      </trkpt>
      <trkpt lat="45.7931" lon="4.29545">
        <ele>473</ele>
        <time>2017-04-13T10:11:57.1Z</time>
      </trkpt>
      <trkpt lat="45.79311" lon="4.29538">
        <ele>472</ele>
        <time>2017-04-13T10:12:00.1Z</time>
      </trkpt>
      <trkpt lat="45.79312" lon="4.29534">
        <ele>472</ele>
        <time>2017-04-13T10:12:02.1Z</time>
      </trkpt>
      <trkpt lat="45.79313" lon="4.29529">
        <ele>472</ele>
        <time>2017-04-13T10:12:05.1Z</time>
      </trkpt>
      <trkpt lat="45.79314" lon="4.29523">
        <ele>471</ele>
        <time>2017-04-13T10:12:08.1Z</time>
      </trkpt>
      <trkpt lat="45.79315" lon="4.29519">
        <ele>471</ele>
        <time>2017-04-13T10:12:10.1Z</time>
      </trkpt>
      <trkpt lat="45.79316" lon="4.29513">
        <ele>470</ele>
        <time>2017-04-13T10:12:13.1Z</time>
      </trkpt>
      <trkpt lat="45.79317" lon="4.29509">
        <ele>470</ele>
        <time>2017-04-13T10:12:15.1Z</time>
      </trkpt>
      <trkpt lat="45.79318" lon="4.29505">
        <ele>471</ele>
        <time>2017-04-13T10:12:17.1Z</time>
      </trkpt>
      <trkpt lat="45.7932" lon="4.29498">
        <ele>470</ele>
        <time>2017-04-13T10:12:20.1Z</time>
      </trkpt>
      <trkpt lat="45.79321" lon="4.29492">
        <ele>470</ele>
        <time>2017-04-13T10:12:23.1Z</time>
      </trkpt>
      <trkpt lat="45.79322" lon="4.29486">
        <ele>469</ele>
        <time>2017-04-13T10:12:26.1Z</time>
      </trkpt>
      <trkpt lat="45.79324" lon="4.2948">
        <ele>470</ele>
        <time>2017-04-13T10:12:29.1Z</time>
      </trkpt>
      <trkpt lat="45.79325" lon="4.29475">
        <ele>470</ele>
        <time>2017-04-13T10:12:32.1Z</time>
      </trkpt>
      <trkpt lat="45.79326" lon="4.2947">
        <ele>470</ele>
        <time>2017-04-13T10:12:35.1Z</time>
      </trkpt>
      <trkpt lat="45.79327" lon="4.29466">
        <ele>470</ele>
        <time>2017-04-13T10:12:37.1Z</time>
      </trkpt>
      <trkpt lat="45.79328" lon="4.29461">
        <ele>470</ele>
        <time>2017-04-13T10:12:40.1Z</time>
      </trkpt>
      <trkpt lat="45.79328" lon="4.29457">
        <ele>469</ele>
        <time>2017-04-13T10:12:42.1Z</time>
      </trkpt>
      <trkpt lat="45.79329" lon="4.29452">
        <ele>469</ele>
        <time>2017-04-13T10:12:45.1Z</time>
      </trkpt>
      <trkpt lat="45.7933" lon="4.29447">
        <ele>469</ele>
        <time>2017-04-13T10:12:48.1Z</time>
      </trkpt>
      <trkpt lat="45.79331" lon="4.29443">
        <ele>469</ele>
        <time>2017-04-13T10:12:50.1Z</time>
      </trkpt>
      <trkpt lat="45.79332" lon="4.29437">
        <ele>469</ele>
        <time>2017-04-13T10:12:53.1Z</time>
      </trkpt>
      <trkpt lat="45.79332" lon="4.29433">
        <ele>469</ele>
        <time>2017-04-13T10:12:55.1Z</time>
      </trkpt>
      <trkpt lat="45.79333" lon="4.29428">
        <ele>469</ele>
        <time>2017-04-13T10:12:58.1Z</time>
      </trkpt>
      <trkpt lat="45.79333" lon="4.29425">
        <ele>468</ele>
        <time>2017-04-13T10:13:00.1Z</time>
      </trkpt>
      <trkpt lat="45.79333" lon="4.29421">
        <ele>469</ele>
        <time>2017-04-13T10:13:03.1Z</time>
      </trkpt>
      <trkpt lat="45.79334" lon="4.29418">
        <ele>468</ele>
        <time>2017-04-13T10:13:05.1Z</time>
      </trkpt>
      <trkpt lat="45.79334" lon="4.29414">
        <ele>469</ele>
        <time>2017-04-13T10:13:07.1Z</time>
      </trkpt>
      <trkpt lat="45.79335" lon="4.2941">
        <ele>469</ele>
        <time>2017-04-13T10:13:09.1Z</time>
      </trkpt>
      <trkpt lat="45.79336" lon="4.29406">
        <ele>468</ele>
        <time>2017-04-13T10:13:12.1Z</time>
      </trkpt>
      <trkpt lat="45.79337" lon="4.294">
        <ele>468</ele>
        <time>2017-04-13T10:13:15.1Z</time>
      </trkpt>
      <trkpt lat="45.79338" lon="4.29394">
        <ele>468</ele>
        <time>2017-04-13T10:13:18.1Z</time>
      </trkpt>
      <trkpt lat="45.79338" lon="4.29391">
        <ele>468</ele>
        <time>2017-04-13T10:13:20.1Z</time>
      </trkpt>
      <trkpt lat="45.79339" lon="4.29388">
        <ele>468</ele>
        <time>2017-04-13T10:13:22.1Z</time>
      </trkpt>
      <trkpt lat="45.79341" lon="4.29384">
        <ele>468</ele>
        <time>2017-04-13T10:13:25.1Z</time>
      </trkpt>
      <trkpt lat="45.79342" lon="4.29382">
        <ele>468</ele>
        <time>2017-04-13T10:13:28.1Z</time>
      </trkpt>
      <trkpt lat="45.79341" lon="4.29382">
        <ele>468</ele>
        <time>2017-04-13T10:13:31.1Z</time>
      </trkpt>
      <trkpt lat="45.79342" lon="4.29382">
        <ele>468</ele>
        <time>2017-04-13T10:13:33.1Z</time>
      </trkpt>
      <trkpt lat="45.79342" lon="4.29382">
        <ele>468</ele>
        <time>2017-04-13T10:13:35.1Z</time>
      </trkpt>
      <trkpt lat="45.79343" lon="4.29381">
        <ele>468</ele>
        <time>2017-04-13T10:13:38.1Z</time>
      </trkpt>
      <trkpt lat="45.79343" lon="4.2938">
        <ele>468</ele>
        <time>2017-04-13T10:13:41.1Z</time>
      </trkpt>
      <trkpt lat="45.79343" lon="4.2938">
        <ele>468</ele>
        <time>2017-04-13T10:13:43.1Z</time>
      </trkpt>
      <trkpt lat="45.79343" lon="4.2938">
        <ele>468</ele>
        <time>2017-04-13T10:13:46.1Z</time>
      </trkpt>
      <trkpt lat="45.79343" lon="4.2938">
        <ele>468</ele>
        <time>2017-04-13T10:13:48.1Z</time>
      </trkpt>
      <trkpt lat="45.79345" lon="4.2938">
        <ele>468</ele>
        <time>2017-04-13T10:13:51.1Z</time>
      </trkpt>
      <trkpt lat="45.79345" lon="4.2938">
        <ele>468</ele>
        <time>2017-04-13T10:13:53.1Z</time>
      </trkpt>
      <trkpt lat="45.79345" lon="4.2938">
        <ele>469</ele>
        <time>2017-04-13T10:13:56.1Z</time>
      </trkpt>
      <trkpt lat="45.79346" lon="4.29377">
        <ele>469</ele>
        <time>2017-04-13T10:13:59.1Z</time>
      </trkpt>
      <trkpt lat="45.79348" lon="4.29374">
        <ele>469</ele>
        <time>2017-04-13T10:14:01.1Z</time>
      </trkpt>
      <trkpt lat="45.7935" lon="4.2937">
        <ele>469</ele>
        <time>2017-04-13T10:14:03.1Z</time>
      </trkpt>
      <trkpt lat="45.79351" lon="4.29367">
        <ele>469</ele>
        <time>2017-04-13T10:14:05.1Z</time>
      </trkpt>
      <trkpt lat="45.79354" lon="4.29362">
        <ele>469</ele>
        <time>2017-04-13T10:14:08.1Z</time>
      </trkpt>
      <trkpt lat="45.79357" lon="4.29358">
        <ele>469</ele>
        <time>2017-04-13T10:14:11.1Z</time>
      </trkpt>
      <trkpt lat="45.79361" lon="4.29354">
        <ele>469</ele>
        <time>2017-04-13T10:14:14.1Z</time>
      </trkpt>
      <trkpt lat="45.79363" lon="4.29351">
        <ele>469</ele>
        <time>2017-04-13T10:14:16.1Z</time>
      </trkpt>
      <trkpt lat="45.79367" lon="4.29346">
        <ele>469</ele>
        <time>2017-04-13T10:14:19.1Z</time>
      </trkpt>
      <trkpt lat="45.7937" lon="4.29341">
        <ele>469</ele>
        <time>2017-04-13T10:14:22.1Z</time>
      </trkpt>
      <trkpt lat="45.79371" lon="4.29335">
        <ele>469</ele>
        <time>2017-04-13T10:14:25.1Z</time>
      </trkpt>
      <trkpt lat="45.79371" lon="4.29329">
        <ele>469</ele>
        <time>2017-04-13T10:14:28.1Z</time>
      </trkpt>
      <trkpt lat="45.79372" lon="4.29325">
        <ele>469</ele>
        <time>2017-04-13T10:14:30.1Z</time>
      </trkpt>
      <trkpt lat="45.79372" lon="4.29319">
        <ele>468</ele>
        <time>2017-04-13T10:14:32.1Z</time>
      </trkpt>
      <trkpt lat="45.79372" lon="4.29315">
        <ele>468</ele>
        <time>2017-04-13T10:14:34.1Z</time>
      </trkpt>
      <trkpt lat="45.79372" lon="4.2931">
        <ele>468</ele>
        <time>2017-04-13T10:14:36.1Z</time>
      </trkpt>
      <trkpt lat="45.79372" lon="4.29305">
        <ele>468</ele>
        <time>2017-04-13T10:14:38.1Z</time>
      </trkpt>
      <trkpt lat="45.79373" lon="4.29298">
        <ele>468</ele>
        <time>2017-04-13T10:14:41.1Z</time>
      </trkpt>
      <trkpt lat="45.79373" lon="4.29293">
        <ele>467</ele>
        <time>2017-04-13T10:14:43.1Z</time>
      </trkpt>
      <trkpt lat="45.79374" lon="4.29285">
        <ele>466</ele>
        <time>2017-04-13T10:14:46.1Z</time>
      </trkpt>
      <trkpt lat="45.79374" lon="4.29277">
        <ele>465</ele>
        <time>2017-04-13T10:14:49.1Z</time>
      </trkpt>
      <trkpt lat="45.79375" lon="4.29271">
        <ele>464</ele>
        <time>2017-04-13T10:14:51.1Z</time>
      </trkpt>
      <trkpt lat="45.79375" lon="4.29263">
        <ele>464</ele>
        <time>2017-04-13T10:14:54.1Z</time>
      </trkpt>
      <trkpt lat="45.79375" lon="4.29259">
        <ele>464</ele>
        <time>2017-04-13T10:14:56.1Z</time>
      </trkpt>
      <trkpt lat="45.79376" lon="4.29252">
        <ele>464</ele>
        <time>2017-04-13T10:14:59.1Z</time>
      </trkpt>
      <trkpt lat="45.79376" lon="4.29248">
        <ele>463</ele>
        <time>2017-04-13T10:15:01.1Z</time>
      </trkpt>
      <trkpt lat="45.79377" lon="4.29243">
        <ele>463</ele>
        <time>2017-04-13T10:15:03.1Z</time>
      </trkpt>
      <trkpt lat="45.79377" lon="4.29239">
        <ele>462</ele>
        <time>2017-04-13T10:15:05.1Z</time>
      </trkpt>
      <trkpt lat="45.79377" lon="4.29232">
        <ele>462</ele>
        <time>2017-04-13T10:15:08.1Z</time>
      </trkpt>
      <trkpt lat="45.79378" lon="4.29229">
        <ele>461</ele>
        <time>2017-04-13T10:15:10.1Z</time>
      </trkpt>
      <trkpt lat="45.79379" lon="4.29227">
        <ele>461</ele>
        <time>2017-04-13T10:15:12.1Z</time>
      </trkpt>
      <trkpt lat="45.79379" lon="4.29225">
        <ele>461</ele>
        <time>2017-04-13T10:15:14.1Z</time>
      </trkpt>
      <trkpt lat="45.7938" lon="4.2922">
        <ele>460</ele>
        <time>2017-04-13T10:15:17.1Z</time>
      </trkpt>
      <trkpt lat="45.7938" lon="4.29218">
        <ele>460</ele>
        <time>2017-04-13T10:15:19.1Z</time>
      </trkpt>
      <trkpt lat="45.79381" lon="4.29214">
        <ele>459</ele>
        <time>2017-04-13T10:15:22.1Z</time>
      </trkpt>
      <trkpt lat="45.79381" lon="4.29211">
        <ele>458</ele>
        <time>2017-04-13T10:15:24.1Z</time>
      </trkpt>
      <trkpt lat="45.79382" lon="4.29209">
        <ele>458</ele>
        <time>2017-04-13T10:15:26.1Z</time>
      </trkpt>
      <trkpt lat="45.79382" lon="4.29206">
        <ele>457</ele>
        <time>2017-04-13T10:15:28.1Z</time>
      </trkpt>
      <trkpt lat="45.79382" lon="4.29204">
        <ele>457</ele>
        <time>2017-04-13T10:15:30.1Z</time>
      </trkpt>
      <trkpt lat="45.79382" lon="4.292">
        <ele>456</ele>
        <time>2017-04-13T10:15:33.1Z</time>
      </trkpt>
      <trkpt lat="45.79382" lon="4.29198">
        <ele>455</ele>
        <time>2017-04-13T10:15:35.1Z</time>
      </trkpt>
      <trkpt lat="45.79383" lon="4.29195">
        <ele>455</ele>
        <time>2017-04-13T10:15:38.1Z</time>
      </trkpt>
      <trkpt lat="45.79384" lon="4.29192">
        <ele>453</ele>
        <time>2017-04-13T10:15:41.1Z</time>
      </trkpt>
      <trkpt lat="45.79385" lon="4.29187">
        <ele>453</ele>
        <time>2017-04-13T10:15:44.1Z</time>
      </trkpt>
      <trkpt lat="45.79386" lon="4.29183">
        <ele>452</ele>
        <time>2017-04-13T10:15:47.1Z</time>
      </trkpt>
      <trkpt lat="45.79386" lon="4.2918">
        <ele>452</ele>
        <time>2017-04-13T10:15:49.1Z</time>
      </trkpt>
      <trkpt lat="45.79387" lon="4.29177">
        <ele>451</ele>
        <time>2017-04-13T10:15:51.1Z</time>
      </trkpt>
      <trkpt lat="45.79388" lon="4.29173">
        <ele>450</ele>
        <time>2017-04-13T10:15:53.1Z</time>
      </trkpt>
      <trkpt lat="45.79389" lon="4.29169">
        <ele>450</ele>
        <time>2017-04-13T10:15:56.1Z</time>
      </trkpt>
      <trkpt lat="45.7939" lon="4.29164">
        <ele>450</ele>
        <time>2017-04-13T10:15:59.1Z</time>
      </trkpt>
      <trkpt lat="45.79391" lon="4.29161">
        <ele>449</ele>
        <time>2017-04-13T10:16:01.1Z</time>
      </trkpt>
      <trkpt lat="45.79392" lon="4.29157">
        <ele>449</ele>
        <time>2017-04-13T10:16:04.1Z</time>
      </trkpt>
      <trkpt lat="45.79393" lon="4.29153">
        <ele>448</ele>
        <time>2017-04-13T10:16:07.1Z</time>
      </trkpt>
      <trkpt lat="45.79393" lon="4.2915">
        <ele>447</ele>
        <time>2017-04-13T10:16:09.1Z</time>
      </trkpt>
      <trkpt lat="45.79393" lon="4.29147">
        <ele>447</ele>
        <time>2017-04-13T10:16:11.1Z</time>
      </trkpt>
      <trkpt lat="45.79393" lon="4.29144">
        <ele>446</ele>
        <time>2017-04-13T10:16:14.1Z</time>
      </trkpt>
      <trkpt lat="45.79394" lon="4.29141">
        <ele>445</ele>
        <time>2017-04-13T10:16:16.1Z</time>
      </trkpt>
      <trkpt lat="45.79395" lon="4.29137">
        <ele>445</ele>
        <time>2017-04-13T10:16:19.1Z</time>
      </trkpt>
      <trkpt lat="45.79396" lon="4.29134">
        <ele>444</ele>
        <time>2017-04-13T10:16:21.1Z</time>
      </trkpt>
      <trkpt lat="45.79398" lon="4.2913">
        <ele>444</ele>
        <time>2017-04-13T10:16:24.1Z</time>
      </trkpt>
      <trkpt lat="45.79399" lon="4.29128">
        <ele>443</ele>
        <time>2017-04-13T10:16:26.1Z</time>
      </trkpt>
      <trkpt lat="45.794" lon="4.29126">
        <ele>443</ele>
        <time>2017-04-13T10:16:29.1Z</time>
      </trkpt>
      <trkpt lat="45.79401" lon="4.29125">
        <ele>442</ele>
        <time>2017-04-13T10:16:32.1Z</time>
      </trkpt>
      <trkpt lat="45.79402" lon="4.29124">
        <ele>442</ele>
        <time>2017-04-13T10:16:34.1Z</time>
      </trkpt>
      <trkpt lat="45.79402" lon="4.29125">
        <ele>442</ele>
        <time>2017-04-13T10:16:36.1Z</time>
      </trkpt>
      <trkpt lat="45.79403" lon="4.29125">
        <ele>442</ele>
        <time>2017-04-13T10:16:38.1Z</time>
      </trkpt>
      <trkpt lat="45.79403" lon="4.29125">
        <ele>441</ele>
        <time>2017-04-13T10:16:41.1Z</time>
      </trkpt>
      <trkpt lat="45.79404" lon="4.29126">
        <ele>441</ele>
        <time>2017-04-13T10:16:44.1Z</time>
      </trkpt>
      <trkpt lat="45.79404" lon="4.29127">
        <ele>441</ele>
        <time>2017-04-13T10:16:46.1Z</time>
      </trkpt>
      <trkpt lat="45.79409" lon="4.29125">
        <ele>441</ele>
        <time>2017-04-13T10:16:49.1Z</time>
      </trkpt>
      <trkpt lat="45.79412" lon="4.29124">
        <ele>441</ele>
        <time>2017-04-13T10:16:51.1Z</time>
      </trkpt>
      <trkpt lat="45.79415" lon="4.29123">
        <ele>440</ele>
        <time>2017-04-13T10:16:53.1Z</time>
      </trkpt>
      <trkpt lat="45.79417" lon="4.29122">
        <ele>440</ele>
        <time>2017-04-13T10:16:55.1Z</time>
      </trkpt>
      <trkpt lat="45.7942" lon="4.29121">
        <ele>439</ele>
        <time>2017-04-13T10:16:57.1Z</time>
      </trkpt>
      <trkpt lat="45.79423" lon="4.2912">
        <ele>439</ele>
        <time>2017-04-13T10:16:59.1Z</time>
      </trkpt>
      <trkpt lat="45.79428" lon="4.29119">
        <ele>438</ele>
        <time>2017-04-13T10:17:02.1Z</time>
      </trkpt>
      <trkpt lat="45.79431" lon="4.29118">
        <ele>438</ele>
        <time>2017-04-13T10:17:04.1Z</time>
      </trkpt>
      <trkpt lat="45.79433" lon="4.29116">
        <ele>437</ele>
        <time>2017-04-13T10:17:06.1Z</time>
      </trkpt>
      <trkpt lat="45.79436" lon="4.29113">
        <ele>436</ele>
        <time>2017-04-13T10:17:09.1Z</time>
      </trkpt>
      <trkpt lat="45.79438" lon="4.29109">
        <ele>435</ele>
        <time>2017-04-13T10:17:11.1Z</time>
      </trkpt>
      <trkpt lat="45.79442" lon="4.29103">
        <ele>435</ele>
        <time>2017-04-13T10:17:14.1Z</time>
      </trkpt>
      <trkpt lat="45.79444" lon="4.29097">
        <ele>434</ele>
        <time>2017-04-13T10:17:16.1Z</time>
      </trkpt>
      <trkpt lat="45.79448" lon="4.29092">
        <ele>434</ele>
        <time>2017-04-13T10:17:19.1Z</time>
      </trkpt>
      <trkpt lat="45.79453" lon="4.29083">
        <ele>433</ele>
        <time>2017-04-13T10:17:22.1Z</time>
      </trkpt>
      <trkpt lat="45.79456" lon="4.29078">
        <ele>433</ele>
        <time>2017-04-13T10:17:24.1Z</time>
      </trkpt>
      <trkpt lat="45.79458" lon="4.29074">
        <ele>433</ele>
        <time>2017-04-13T10:17:26.1Z</time>
      </trkpt>
      <trkpt lat="45.7946" lon="4.29071">
        <ele>433</ele>
        <time>2017-04-13T10:17:28.1Z</time>
      </trkpt>
      <trkpt lat="45.79462" lon="4.29066">
        <ele>433</ele>
        <time>2017-04-13T10:17:30.1Z</time>
      </trkpt>
      <trkpt lat="45.79464" lon="4.29061">
        <ele>433</ele>
        <time>2017-04-13T10:17:33.1Z</time>
      </trkpt>
      <trkpt lat="45.79466" lon="4.29057">
        <ele>433</ele>
        <time>2017-04-13T10:17:35.1Z</time>
      </trkpt>
      <trkpt lat="45.79468" lon="4.29051">
        <ele>433</ele>
        <time>2017-04-13T10:17:38.1Z</time>
      </trkpt>
      <trkpt lat="45.7947" lon="4.29045">
        <ele>433</ele>
        <time>2017-04-13T10:17:41.1Z</time>
      </trkpt>
      <trkpt lat="45.79472" lon="4.29039">
        <ele>433</ele>
        <time>2017-04-13T10:17:44.1Z</time>
      </trkpt>
      <trkpt lat="45.79474" lon="4.29034">
        <ele>433</ele>
        <time>2017-04-13T10:17:46.1Z</time>
      </trkpt>
      <trkpt lat="45.79476" lon="4.29031">
        <ele>433</ele>
        <time>2017-04-13T10:17:48.1Z</time>
      </trkpt>
      <trkpt lat="45.79477" lon="4.29027">
        <ele>433</ele>
        <time>2017-04-13T10:17:50.1Z</time>
      </trkpt>
      <trkpt lat="45.7948" lon="4.29021">
        <ele>433</ele>
        <time>2017-04-13T10:17:53.1Z</time>
      </trkpt>
      <trkpt lat="45.7948" lon="4.29017">
        <ele>433</ele>
        <time>2017-04-13T10:17:55.1Z</time>
      </trkpt>
      <trkpt lat="45.79481" lon="4.29011">
        <ele>433</ele>
        <time>2017-04-13T10:17:58.1Z</time>
      </trkpt>
      <trkpt lat="45.79482" lon="4.29005">
        <ele>432</ele>
        <time>2017-04-13T10:18:01.1Z</time>
      </trkpt>
      <trkpt lat="45.79483" lon="4.29">
        <ele>432</ele>
        <time>2017-04-13T10:18:04.1Z</time>
      </trkpt>
      <trkpt lat="45.79482" lon="4.28997">
        <ele>432</ele>
        <time>2017-04-13T10:18:06.1Z</time>
      </trkpt>
      <trkpt lat="45.79483" lon="4.28993">
        <ele>432</ele>
        <time>2017-04-13T10:18:08.1Z</time>
      </trkpt>
      <trkpt lat="45.79483" lon="4.28986">
        <ele>432</ele>
        <time>2017-04-13T10:18:11.1Z</time>
      </trkpt>
      <trkpt lat="45.79483" lon="4.28982">
        <ele>432</ele>
        <time>2017-04-13T10:18:13.1Z</time>
      </trkpt>
      <trkpt lat="45.79483" lon="4.28977">
        <ele>431</ele>
        <time>2017-04-13T10:18:16.1Z</time>
      </trkpt>
      <trkpt lat="45.79483" lon="4.28973">
        <ele>431</ele>
        <time>2017-04-13T10:18:18.1Z</time>
      </trkpt>
      <trkpt lat="45.79485" lon="4.28969">
        <ele>430</ele>
        <time>2017-04-13T10:18:21.1Z</time>
      </trkpt>
      <trkpt lat="45.79485" lon="4.28964">
        <ele>429</ele>
        <time>2017-04-13T10:18:24.1Z</time>
      </trkpt>
      <trkpt lat="45.79485" lon="4.28961">
        <ele>429</ele>
        <time>2017-04-13T10:18:26.1Z</time>
      </trkpt>
      <trkpt lat="45.79485" lon="4.28956">
        <ele>428</ele>
        <time>2017-04-13T10:18:29.1Z</time>
      </trkpt>
      <trkpt lat="45.79485" lon="4.28952">
        <ele>428</ele>
        <time>2017-04-13T10:18:32.1Z</time>
      </trkpt>
      <trkpt lat="45.79484" lon="4.28949">
        <ele>427</ele>
        <time>2017-04-13T10:18:34.1Z</time>
      </trkpt>
      <trkpt lat="45.79482" lon="4.28945">
        <ele>427</ele>
        <time>2017-04-13T10:18:37.1Z</time>
      </trkpt>
      <trkpt lat="45.79481" lon="4.28942">
        <ele>426</ele>
        <time>2017-04-13T10:18:39.1Z</time>
      </trkpt>
      <trkpt lat="45.79481" lon="4.28939">
        <ele>426</ele>
        <time>2017-04-13T10:18:41.1Z</time>
      </trkpt>
      <trkpt lat="45.7948" lon="4.28936">
        <ele>426</ele>
        <time>2017-04-13T10:18:43.1Z</time>
      </trkpt>
      <trkpt lat="45.79481" lon="4.28931">
        <ele>425</ele>
        <time>2017-04-13T10:18:46.1Z</time>
      </trkpt>
      <trkpt lat="45.7948" lon="4.28928">
        <ele>424</ele>
        <time>2017-04-13T10:18:48.1Z</time>
      </trkpt>
      <trkpt lat="45.79481" lon="4.28924">
        <ele>424</ele>
        <time>2017-04-13T10:18:50.1Z</time>
      </trkpt>
      <trkpt lat="45.79481" lon="4.2892">
        <ele>423</ele>
        <time>2017-04-13T10:18:53.1Z</time>
      </trkpt>
      <trkpt lat="45.79481" lon="4.28918">
        <ele>423</ele>
        <time>2017-04-13T10:18:55.1Z</time>
      </trkpt>
      <trkpt lat="45.79481" lon="4.28914">
        <ele>422</ele>
        <time>2017-04-13T10:18:58.1Z</time>
      </trkpt>
      <trkpt lat="45.79481" lon="4.28911">
        <ele>422</ele>
        <time>2017-04-13T10:19:00.1Z</time>
      </trkpt>
      <trkpt lat="45.79481" lon="4.28908">
        <ele>420</ele>
        <time>2017-04-13T10:19:03.1Z</time>
      </trkpt>
      <trkpt lat="45.79481" lon="4.28903">
        <ele>420</ele>
        <time>2017-04-13T10:19:06.1Z</time>
      </trkpt>
      <trkpt lat="45.79482" lon="4.289">
        <ele>420</ele>
        <time>2017-04-13T10:19:08.1Z</time>
      </trkpt>
      <trkpt lat="45.79483" lon="4.28898">
        <ele>419</ele>
        <time>2017-04-13T10:19:10.1Z</time>
      </trkpt>
      <trkpt lat="45.79483" lon="4.28895">
        <ele>419</ele>
        <time>2017-04-13T10:19:12.1Z</time>
      </trkpt>
      <trkpt lat="45.79484" lon="4.28892">
        <ele>419</ele>
        <time>2017-04-13T10:19:15.1Z</time>
      </trkpt>
      <trkpt lat="45.79484" lon="4.28887">
        <ele>418</ele>
        <time>2017-04-13T10:19:18.1Z</time>
      </trkpt>
      <trkpt lat="45.79485" lon="4.28885">
        <ele>417</ele>
        <time>2017-04-13T10:19:20.1Z</time>
      </trkpt>
      <trkpt lat="45.79486" lon="4.28881">
        <ele>417</ele>
        <time>2017-04-13T10:19:23.1Z</time>
      </trkpt>
      <trkpt lat="45.79487" lon="4.28878">
        <ele>416</ele>
        <time>2017-04-13T10:19:26.1Z</time>
      </trkpt>
      <trkpt lat="45.79488" lon="4.28876">
        <ele>416</ele>
        <time>2017-04-13T10:19:28.1Z</time>
      </trkpt>
      <trkpt lat="45.79489" lon="4.28874">
        <ele>415</ele>
        <time>2017-04-13T10:19:30.1Z</time>
      </trkpt>
      <trkpt lat="45.7949" lon="4.2887">
        <ele>415</ele>
        <time>2017-04-13T10:19:33.1Z</time>
      </trkpt>
      <trkpt lat="45.79491" lon="4.28869">
        <ele>414</ele>
        <time>2017-04-13T10:19:35.1Z</time>
      </trkpt>
      <trkpt lat="45.79491" lon="4.28866">
        <ele>413</ele>
        <time>2017-04-13T10:19:37.1Z</time>
      </trkpt>
      <trkpt lat="45.79493" lon="4.28863">
        <ele>413</ele>
        <time>2017-04-13T10:19:40.1Z</time>
      </trkpt>
      <trkpt lat="45.79493" lon="4.2886">
        <ele>412</ele>
        <time>2017-04-13T10:19:42.1Z</time>
      </trkpt>
      <trkpt lat="45.79494" lon="4.28857">
        <ele>412</ele>
        <time>2017-04-13T10:19:44.1Z</time>
      </trkpt>
      <trkpt lat="45.79496" lon="4.28853">
        <ele>411</ele>
        <time>2017-04-13T10:19:47.1Z</time>
      </trkpt>
      <trkpt lat="45.79496" lon="4.2885">
        <ele>411</ele>
        <time>2017-04-13T10:19:49.1Z</time>
      </trkpt>
      <trkpt lat="45.79497" lon="4.28848">
        <ele>410</ele>
        <time>2017-04-13T10:19:51.1Z</time>
      </trkpt>
      <trkpt lat="45.79498" lon="4.28846">
        <ele>410</ele>
        <time>2017-04-13T10:19:53.1Z</time>
      </trkpt>
      <trkpt lat="45.795" lon="4.28842">
        <ele>409</ele>
        <time>2017-04-13T10:19:56.1Z</time>
      </trkpt>
      <trkpt lat="45.79502" lon="4.28838">
        <ele>409</ele>
        <time>2017-04-13T10:19:59.1Z</time>
      </trkpt>
      <trkpt lat="45.79503" lon="4.28836">
        <ele>408</ele>
        <time>2017-04-13T10:20:01.1Z</time>
      </trkpt>
      <trkpt lat="45.79504" lon="4.28833">
        <ele>408</ele>
        <time>2017-04-13T10:20:03.1Z</time>
      </trkpt>
      <trkpt lat="45.79506" lon="4.2883">
        <ele>407</ele>
        <time>2017-04-13T10:20:06.1Z</time>
      </trkpt>
      <trkpt lat="45.79507" lon="4.28827">
        <ele>407</ele>
        <time>2017-04-13T10:20:08.1Z</time>
      </trkpt>
      <trkpt lat="45.79508" lon="4.28824">
        <ele>406</ele>
        <time>2017-04-13T10:20:10.1Z</time>
      </trkpt>
      <trkpt lat="45.7951" lon="4.2882">
        <ele>406</ele>
        <time>2017-04-13T10:20:13.1Z</time>
      </trkpt>
      <trkpt lat="45.79512" lon="4.28816">
        <ele>405</ele>
        <time>2017-04-13T10:20:16.1Z</time>
      </trkpt>
      <trkpt lat="45.79514" lon="4.28812">
        <ele>405</ele>
        <time>2017-04-13T10:20:19.1Z</time>
      </trkpt>
      <trkpt lat="45.79516" lon="4.28808">
        <ele>404</ele>
        <time>2017-04-13T10:20:22.1Z</time>
      </trkpt>
      <trkpt lat="45.79518" lon="4.28805">
        <ele>404</ele>
        <time>2017-04-13T10:20:25.1Z</time>
      </trkpt>
      <trkpt lat="45.79518" lon="4.28803">
        <ele>404</ele>
        <time>2017-04-13T10:20:27.1Z</time>
      </trkpt>
      <trkpt lat="45.7952" lon="4.28799">
        <ele>403</ele>
        <time>2017-04-13T10:20:30.1Z</time>
      </trkpt>
      <trkpt lat="45.7952" lon="4.28796">
        <ele>403</ele>
        <time>2017-04-13T10:20:32.1Z</time>
      </trkpt>
      <trkpt lat="45.7952" lon="4.28793">
        <ele>402</ele>
        <time>2017-04-13T10:20:34.1Z</time>
      </trkpt>
      <trkpt lat="45.79521" lon="4.28791">
        <ele>402</ele>
        <time>2017-04-13T10:20:36.1Z</time>
      </trkpt>
      <trkpt lat="45.79521" lon="4.28786">
        <ele>402</ele>
        <time>2017-04-13T10:20:39.1Z</time>
      </trkpt>
      <trkpt lat="45.7952" lon="4.28783">
        <ele>401</ele>
        <time>2017-04-13T10:20:41.1Z</time>
      </trkpt>
      <trkpt lat="45.7952" lon="4.2878">
        <ele>401</ele>
        <time>2017-04-13T10:20:43.1Z</time>
      </trkpt>
      <trkpt lat="45.7952" lon="4.28777">
        <ele>400</ele>
        <time>2017-04-13T10:20:45.1Z</time>
      </trkpt>
      <trkpt lat="45.7952" lon="4.28774">
        <ele>399</ele>
        <time>2017-04-13T10:20:47.1Z</time>
      </trkpt>
      <trkpt lat="45.79518" lon="4.2877">
        <ele>399</ele>
        <time>2017-04-13T10:20:50.1Z</time>
      </trkpt>
      <trkpt lat="45.79518" lon="4.28768">
        <ele>398</ele>
        <time>2017-04-13T10:20:52.1Z</time>
      </trkpt>
      <trkpt lat="45.79517" lon="4.28766">
        <ele>398</ele>
        <time>2017-04-13T10:20:54.1Z</time>
      </trkpt>
      <trkpt lat="45.79516" lon="4.28764">
        <ele>398</ele>
        <time>2017-04-13T10:20:56.1Z</time>
      </trkpt>
      <trkpt lat="45.79515" lon="4.28762">
        <ele>397</ele>
        <time>2017-04-13T10:20:58.1Z</time>
      </trkpt>
      <trkpt lat="45.79514" lon="4.28758">
        <ele>397</ele>
        <time>2017-04-13T10:21:00.1Z</time>
      </trkpt>
      <trkpt lat="45.79512" lon="4.28756">
        <ele>396</ele>
        <time>2017-04-13T10:21:02.1Z</time>
      </trkpt>
      <trkpt lat="45.7951" lon="4.28751">
        <ele>396</ele>
        <time>2017-04-13T10:21:05.1Z</time>
      </trkpt>
      <trkpt lat="45.7951" lon="4.28749">
        <ele>395</ele>
        <time>2017-04-13T10:21:07.1Z</time>
      </trkpt>
      <trkpt lat="45.79509" lon="4.28746">
        <ele>394</ele>
        <time>2017-04-13T10:21:09.1Z</time>
      </trkpt>
      <trkpt lat="45.79509" lon="4.28744">
        <ele>394</ele>
        <time>2017-04-13T10:21:11.1Z</time>
      </trkpt>
      <trkpt lat="45.79508" lon="4.28741">
        <ele>393</ele>
        <time>2017-04-13T10:21:13.1Z</time>
      </trkpt>
      <trkpt lat="45.79508" lon="4.28737">
        <ele>393</ele>
        <time>2017-04-13T10:21:16.1Z</time>
      </trkpt>
      <trkpt lat="45.79508" lon="4.28733">
        <ele>392</ele>
        <time>2017-04-13T10:21:18.1Z</time>
      </trkpt>
      <trkpt lat="45.79507" lon="4.28728">
        <ele>392</ele>
        <time>2017-04-13T10:21:21.1Z</time>
      </trkpt>
      <trkpt lat="45.79507" lon="4.28724">
        <ele>391</ele>
        <time>2017-04-13T10:21:23.1Z</time>
      </trkpt>
      <trkpt lat="45.79506" lon="4.2872">
        <ele>390</ele>
        <time>2017-04-13T10:21:26.1Z</time>
      </trkpt>
      <trkpt lat="45.79506" lon="4.28717">
        <ele>390</ele>
        <time>2017-04-13T10:21:28.1Z</time>
      </trkpt>
      <trkpt lat="45.79505" lon="4.28714">
        <ele>389</ele>
        <time>2017-04-13T10:21:30.1Z</time>
      </trkpt>
      <trkpt lat="45.79504" lon="4.28711">
        <ele>389</ele>
        <time>2017-04-13T10:21:32.1Z</time>
      </trkpt>
      <trkpt lat="45.79503" lon="4.28707">
        <ele>389</ele>
        <time>2017-04-13T10:21:35.1Z</time>
      </trkpt>
      <trkpt lat="45.79503" lon="4.28703">
        <ele>388</ele>
        <time>2017-04-13T10:21:38.1Z</time>
      </trkpt>
      <trkpt lat="45.79503" lon="4.287">
        <ele>387</ele>
        <time>2017-04-13T10:21:40.1Z</time>
      </trkpt>
      <trkpt lat="45.79502" lon="4.28696">
        <ele>386</ele>
        <time>2017-04-13T10:21:42.1Z</time>
      </trkpt>
      <trkpt lat="45.79501" lon="4.28692">
        <ele>386</ele>
        <time>2017-04-13T10:21:45.1Z</time>
      </trkpt>
      <trkpt lat="45.795" lon="4.28687">
        <ele>385</ele>
        <time>2017-04-13T10:21:48.1Z</time>
      </trkpt>
      <trkpt lat="45.795" lon="4.28684">
        <ele>386</ele>
        <time>2017-04-13T10:21:50.1Z</time>
      </trkpt>
      <trkpt lat="45.795" lon="4.28681">
        <ele>385</ele>
        <time>2017-04-13T10:21:53.1Z</time>
      </trkpt>
      <trkpt lat="45.79499" lon="4.28679">
        <ele>385</ele>
        <time>2017-04-13T10:21:56.1Z</time>
      </trkpt>
      <trkpt lat="45.79499" lon="4.28677">
        <ele>385</ele>
        <time>2017-04-13T10:21:58.1Z</time>
      </trkpt>
      <trkpt lat="45.79499" lon="4.28676">
        <ele>385</ele>
        <time>2017-04-13T10:22:00.1Z</time>
      </trkpt>
      <trkpt lat="45.79498" lon="4.28674">
        <ele>385</ele>
        <time>2017-04-13T10:22:03.1Z</time>
      </trkpt>
      <trkpt lat="45.79498" lon="4.28673">
        <ele>385</ele>
        <time>2017-04-13T10:22:05.1Z</time>
      </trkpt>
      <trkpt lat="45.79499" lon="4.28672">
        <ele>385</ele>
        <time>2017-04-13T10:22:07.1Z</time>
      </trkpt>
      <trkpt lat="45.79499" lon="4.28671">
        <ele>385</ele>
        <time>2017-04-13T10:22:09.1Z</time>
      </trkpt>
      <trkpt lat="45.79498" lon="4.28671">
        <ele>385</ele>
        <time>2017-04-13T10:22:11.1Z</time>
      </trkpt>
      <trkpt lat="45.79499" lon="4.28668">
        <ele>385</ele>
        <time>2017-04-13T10:22:14.1Z</time>
      </trkpt>
      <trkpt lat="45.79499" lon="4.28666">
        <ele>385</ele>
        <time>2017-04-13T10:22:16.1Z</time>
      </trkpt>
      <trkpt lat="45.795" lon="4.28665">
        <ele>385</ele>
        <time>2017-04-13T10:22:18.1Z</time>
      </trkpt>
      <trkpt lat="45.795" lon="4.28665">
        <ele>384</ele>
        <time>2017-04-13T10:22:21.1Z</time>
      </trkpt>
      <trkpt lat="45.79501" lon="4.28664">
        <ele>385</ele>
        <time>2017-04-13T10:22:24.1Z</time>
      </trkpt>
      <trkpt lat="45.79501" lon="4.28663">
        <ele>385</ele>
        <time>2017-04-13T10:22:26.1Z</time>
      </trkpt>
      <trkpt lat="45.79501" lon="4.28663">
        <ele>385</ele>
        <time>2017-04-13T10:22:29.1Z</time>
      </trkpt>
      <trkpt lat="45.79501" lon="4.28662">
        <ele>385</ele>
        <time>2017-04-13T10:22:32.1Z</time>
      </trkpt>
      <trkpt lat="45.79501" lon="4.28662">
        <ele>385</ele>
        <time>2017-04-13T10:22:34.1Z</time>
      </trkpt>
      <trkpt lat="45.79501" lon="4.28661">
        <ele>385</ele>
        <time>2017-04-13T10:22:36.1Z</time>
      </trkpt>
      <trkpt lat="45.79503" lon="4.28658">
        <ele>385</ele>
        <time>2017-04-13T10:22:39.1Z</time>
      </trkpt>
      <trkpt lat="45.79504" lon="4.28655">
        <ele>385</ele>
        <time>2017-04-13T10:22:41.1Z</time>
      </trkpt>
      <trkpt lat="45.79504" lon="4.28651">
        <ele>385</ele>
        <time>2017-04-13T10:22:44.1Z</time>
      </trkpt>
      <trkpt lat="45.79504" lon="4.28648">
        <ele>385</ele>
        <time>2017-04-13T10:22:46.1Z</time>
      </trkpt>
      <trkpt lat="45.79503" lon="4.28644">
        <ele>386</ele>
        <time>2017-04-13T10:22:49.1Z</time>
      </trkpt>
      <trkpt lat="45.79503" lon="4.28641">
        <ele>386</ele>
        <time>2017-04-13T10:22:51.1Z</time>
      </trkpt>
      <trkpt lat="45.79502" lon="4.28637">
        <ele>386</ele>
        <time>2017-04-13T10:22:54.1Z</time>
      </trkpt>
      <trkpt lat="45.79502" lon="4.28634">
        <ele>386</ele>
        <time>2017-04-13T10:22:56.1Z</time>
      </trkpt>
      <trkpt lat="45.79501" lon="4.28628">
        <ele>387</ele>
        <time>2017-04-13T10:22:59.1Z</time>
      </trkpt>
      <trkpt lat="45.79499" lon="4.28623">
        <ele>387</ele>
        <time>2017-04-13T10:23:02.1Z</time>
      </trkpt>
      <trkpt lat="45.79499" lon="4.2862">
        <ele>387</ele>
        <time>2017-04-13T10:23:04.1Z</time>
      </trkpt>
      <trkpt lat="45.79498" lon="4.28616">
        <ele>388</ele>
        <time>2017-04-13T10:23:06.1Z</time>
      </trkpt>
      <trkpt lat="45.79497" lon="4.28613">
        <ele>388</ele>
        <time>2017-04-13T10:23:08.1Z</time>
      </trkpt>
      <trkpt lat="45.79496" lon="4.28609">
        <ele>388</ele>
        <time>2017-04-13T10:23:10.1Z</time>
      </trkpt>
      <trkpt lat="45.79495" lon="4.28605">
        <ele>389</ele>
        <time>2017-04-13T10:23:12.1Z</time>
      </trkpt>
      <trkpt lat="45.79494" lon="4.28601">
        <ele>389</ele>
        <time>2017-04-13T10:23:14.1Z</time>
      </trkpt>
      <trkpt lat="45.79494" lon="4.28597">
        <ele>389</ele>
        <time>2017-04-13T10:23:16.1Z</time>
      </trkpt>
      <trkpt lat="45.79493" lon="4.2859">
        <ele>389</ele>
        <time>2017-04-13T10:23:19.1Z</time>
      </trkpt>
      <trkpt lat="45.79492" lon="4.28586">
        <ele>389</ele>
        <time>2017-04-13T10:23:21.1Z</time>
      </trkpt>
      <trkpt lat="45.79491" lon="4.28581">
        <ele>390</ele>
        <time>2017-04-13T10:23:23.1Z</time>
      </trkpt>
      <trkpt lat="45.79491" lon="4.28577">
        <ele>390</ele>
        <time>2017-04-13T10:23:25.1Z</time>
      </trkpt>
      <trkpt lat="45.7949" lon="4.28573">
        <ele>391</ele>
        <time>2017-04-13T10:23:27.1Z</time>
      </trkpt>
      <trkpt lat="45.79489" lon="4.28568">
        <ele>391</ele>
        <time>2017-04-13T10:23:29.1Z</time>
      </trkpt>
      <trkpt lat="45.79488" lon="4.28562">
        <ele>391</ele>
        <time>2017-04-13T10:23:32.1Z</time>
      </trkpt>
      <trkpt lat="45.79487" lon="4.28558">
        <ele>391</ele>
        <time>2017-04-13T10:23:34.1Z</time>
      </trkpt>
      <trkpt lat="45.79487" lon="4.28552">
        <ele>392</ele>
        <time>2017-04-13T10:23:37.1Z</time>
      </trkpt>
      <trkpt lat="45.79487" lon="4.28549">
        <ele>392</ele>
        <time>2017-04-13T10:23:39.1Z</time>
      </trkpt>
      <trkpt lat="45.79486" lon="4.28543">
        <ele>392</ele>
        <time>2017-04-13T10:23:42.1Z</time>
      </trkpt>
      <trkpt lat="45.79486" lon="4.28539">
        <ele>393</ele>
        <time>2017-04-13T10:23:44.1Z</time>
      </trkpt>
      <trkpt lat="45.79486" lon="4.28532">
        <ele>393</ele>
        <time>2017-04-13T10:23:47.1Z</time>
      </trkpt>
      <trkpt lat="45.79486" lon="4.28528">
        <ele>393</ele>
        <time>2017-04-13T10:23:49.1Z</time>
      </trkpt>
      <trkpt lat="45.79487" lon="4.28522">
        <ele>394</ele>
        <time>2017-04-13T10:23:52.1Z</time>
      </trkpt>
      <trkpt lat="45.79489" lon="4.28518">
        <ele>394</ele>
        <time>2017-04-13T10:23:54.1Z</time>
      </trkpt>
      <trkpt lat="45.79491" lon="4.28516">
        <ele>394</ele>
        <time>2017-04-13T10:23:56.1Z</time>
      </trkpt>
      <trkpt lat="45.79493" lon="4.28515">
        <ele>394</ele>
        <time>2017-04-13T10:23:58.1Z</time>
      </trkpt>
      <trkpt lat="45.79496" lon="4.28515">
        <ele>395</ele>
        <time>2017-04-13T10:24:00.1Z</time>
      </trkpt>
      <trkpt lat="45.79499" lon="4.28516">
        <ele>395</ele>
        <time>2017-04-13T10:24:03.1Z</time>
      </trkpt>
      <trkpt lat="45.79501" lon="4.28517">
        <ele>395</ele>
        <time>2017-04-13T10:24:05.1Z</time>
      </trkpt>
      <trkpt lat="45.79504" lon="4.28518">
        <ele>396</ele>
        <time>2017-04-13T10:24:08.1Z</time>
      </trkpt>
      <trkpt lat="45.79507" lon="4.2852">
        <ele>396</ele>
        <time>2017-04-13T10:24:10.1Z</time>
      </trkpt>
      <trkpt lat="45.79509" lon="4.28521">
        <ele>397</ele>
        <time>2017-04-13T10:24:12.1Z</time>
      </trkpt>
      <trkpt lat="45.79511" lon="4.28523">
        <ele>397</ele>
        <time>2017-04-13T10:24:14.1Z</time>
      </trkpt>
      <trkpt lat="45.79513" lon="4.28524">
        <ele>398</ele>
        <time>2017-04-13T10:24:16.1Z</time>
      </trkpt>
      <trkpt lat="45.79515" lon="4.28526">
        <ele>398</ele>
        <time>2017-04-13T10:24:18.1Z</time>
      </trkpt>
      <trkpt lat="45.79518" lon="4.28527">
        <ele>398</ele>
        <time>2017-04-13T10:24:20.1Z</time>
      </trkpt>
      <trkpt lat="45.79522" lon="4.28529">
        <ele>399</ele>
        <time>2017-04-13T10:24:23.1Z</time>
      </trkpt>
      <trkpt lat="45.79524" lon="4.2853">
        <ele>399</ele>
        <time>2017-04-13T10:24:25.1Z</time>
      </trkpt>
      <trkpt lat="45.79528" lon="4.28532">
        <ele>400</ele>
        <time>2017-04-13T10:24:28.1Z</time>
      </trkpt>
      <trkpt lat="45.7953" lon="4.28533">
        <ele>401</ele>
        <time>2017-04-13T10:24:30.1Z</time>
      </trkpt>
      <trkpt lat="45.79532" lon="4.28534">
        <ele>401</ele>
        <time>2017-04-13T10:24:32.1Z</time>
      </trkpt>
      <trkpt lat="45.79536" lon="4.28535">
        <ele>401</ele>
        <time>2017-04-13T10:24:35.1Z</time>
      </trkpt>
      <trkpt lat="45.79538" lon="4.28537">
        <ele>401</ele>
        <time>2017-04-13T10:24:37.1Z</time>
      </trkpt>
      <trkpt lat="45.79541" lon="4.28538">
        <ele>402</ele>
        <time>2017-04-13T10:24:39.1Z</time>
      </trkpt>
      <trkpt lat="45.79543" lon="4.28539">
        <ele>402</ele>
        <time>2017-04-13T10:24:41.1Z</time>
      </trkpt>
      <trkpt lat="45.79544" lon="4.2854">
        <ele>403</ele>
        <time>2017-04-13T10:24:43.1Z</time>
      </trkpt>
      <trkpt lat="45.79547" lon="4.28542">
        <ele>403</ele>
        <time>2017-04-13T10:24:45.1Z</time>
      </trkpt>
      <trkpt lat="45.7955" lon="4.28544">
        <ele>404</ele>
        <time>2017-04-13T10:24:48.1Z</time>
      </trkpt>
      <trkpt lat="45.79552" lon="4.28544">
        <ele>404</ele>
        <time>2017-04-13T10:24:50.1Z</time>
      </trkpt>
      <trkpt lat="45.79556" lon="4.28546">
        <ele>405</ele>
        <time>2017-04-13T10:24:53.1Z</time>
      </trkpt>
      <trkpt lat="45.79558" lon="4.28547">
        <ele>405</ele>
        <time>2017-04-13T10:24:55.1Z</time>
      </trkpt>
      <trkpt lat="45.79562" lon="4.28548">
        <ele>406</ele>
        <time>2017-04-13T10:24:58.1Z</time>
      </trkpt>
      <trkpt lat="45.79565" lon="4.2855">
        <ele>406</ele>
        <time>2017-04-13T10:25:01.1Z</time>
      </trkpt>
      <trkpt lat="45.79567" lon="4.28551">
        <ele>407</ele>
        <time>2017-04-13T10:25:03.1Z</time>
      </trkpt>
      <trkpt lat="45.79569" lon="4.28552">
        <ele>407</ele>
        <time>2017-04-13T10:25:05.1Z</time>
      </trkpt>
      <trkpt lat="45.79572" lon="4.28553">
        <ele>408</ele>
        <time>2017-04-13T10:25:07.1Z</time>
      </trkpt>
      <trkpt lat="45.79574" lon="4.28554">
        <ele>408</ele>
        <time>2017-04-13T10:25:09.1Z</time>
      </trkpt>
      <trkpt lat="45.79576" lon="4.28555">
        <ele>408</ele>
        <time>2017-04-13T10:25:11.1Z</time>
      </trkpt>
      <trkpt lat="45.79579" lon="4.28556">
        <ele>409</ele>
        <time>2017-04-13T10:25:14.1Z</time>
      </trkpt>
      <trkpt lat="45.79581" lon="4.28556">
        <ele>409</ele>
        <time>2017-04-13T10:25:16.1Z</time>
      </trkpt>
      <trkpt lat="45.79584" lon="4.28557">
        <ele>410</ele>
        <time>2017-04-13T10:25:18.1Z</time>
      </trkpt>
      <trkpt lat="45.79586" lon="4.28558">
        <ele>411</ele>
        <time>2017-04-13T10:25:20.1Z</time>
      </trkpt>
      <trkpt lat="45.79588" lon="4.2856">
        <ele>411</ele>
        <time>2017-04-13T10:25:22.1Z</time>
      </trkpt>
      <trkpt lat="45.79591" lon="4.28561">
        <ele>411</ele>
        <time>2017-04-13T10:25:24.1Z</time>
      </trkpt>
      <trkpt lat="45.79593" lon="4.28563">
        <ele>411</ele>
        <time>2017-04-13T10:25:27.1Z</time>
      </trkpt>
      <trkpt lat="45.79596" lon="4.28563">
        <ele>412</ele>
        <time>2017-04-13T10:25:29.1Z</time>
      </trkpt>
      <trkpt lat="45.79598" lon="4.28563">
        <ele>412</ele>
        <time>2017-04-13T10:25:31.1Z</time>
      </trkpt>
      <trkpt lat="45.796" lon="4.28564">
        <ele>412</ele>
        <time>2017-04-13T10:25:33.1Z</time>
      </trkpt>
      <trkpt lat="45.79602" lon="4.28564">
        <ele>413</ele>
        <time>2017-04-13T10:25:35.1Z</time>
      </trkpt>
      <trkpt lat="45.79604" lon="4.28565">
        <ele>413</ele>
        <time>2017-04-13T10:25:37.1Z</time>
      </trkpt>
      <trkpt lat="45.79607" lon="4.28566">
        <ele>414</ele>
        <time>2017-04-13T10:25:39.1Z</time>
      </trkpt>
      <trkpt lat="45.7961" lon="4.28567">
        <ele>414</ele>
        <time>2017-04-13T10:25:42.1Z</time>
      </trkpt>
      <trkpt lat="45.79612" lon="4.28568">
        <ele>414</ele>
        <time>2017-04-13T10:25:44.1Z</time>
      </trkpt>
      <trkpt lat="45.79615" lon="4.28569">
        <ele>414</ele>
        <time>2017-04-13T10:25:46.1Z</time>
      </trkpt>
      <trkpt lat="45.79617" lon="4.2857">
        <ele>415</ele>
        <time>2017-04-13T10:25:48.1Z</time>
      </trkpt>
      <trkpt lat="45.79619" lon="4.28572">
        <ele>415</ele>
        <time>2017-04-13T10:25:50.1Z</time>
      </trkpt>
      <trkpt lat="45.79621" lon="4.28573">
        <ele>415</ele>
        <time>2017-04-13T10:25:52.1Z</time>
      </trkpt>
      <trkpt lat="45.79625" lon="4.28574">
        <ele>416</ele>
        <time>2017-04-13T10:25:55.1Z</time>
      </trkpt>
      <trkpt lat="45.79629" lon="4.28575">
        <ele>417</ele>
        <time>2017-04-13T10:25:58.1Z</time>
      </trkpt>
      <trkpt lat="45.79631" lon="4.28576">
        <ele>417</ele>
        <time>2017-04-13T10:26:00.1Z</time>
      </trkpt>
      <trkpt lat="45.79634" lon="4.28577">
        <ele>417</ele>
        <time>2017-04-13T10:26:02.1Z</time>
      </trkpt>
      <trkpt lat="45.79637" lon="4.28578">
        <ele>417</ele>
        <time>2017-04-13T10:26:04.1Z</time>
      </trkpt>
      <trkpt lat="45.79641" lon="4.2858">
        <ele>418</ele>
        <time>2017-04-13T10:26:07.1Z</time>
      </trkpt>
      <trkpt lat="45.79645" lon="4.28581">
        <ele>419</ele>
        <time>2017-04-13T10:26:10.1Z</time>
      </trkpt>
      <trkpt lat="45.79648" lon="4.28582">
        <ele>419</ele>
        <time>2017-04-13T10:26:12.1Z</time>
      </trkpt>
      <trkpt lat="45.79652" lon="4.28583">
        <ele>419</ele>
        <time>2017-04-13T10:26:15.1Z</time>
      </trkpt>
      <trkpt lat="45.79654" lon="4.28583">
        <ele>419</ele>
        <time>2017-04-13T10:26:17.1Z</time>
      </trkpt>
      <trkpt lat="45.79659" lon="4.28583">
        <ele>420</ele>
        <time>2017-04-13T10:26:20.1Z</time>
      </trkpt>
      <trkpt lat="45.79662" lon="4.28583">
        <ele>420</ele>
        <time>2017-04-13T10:26:22.1Z</time>
      </trkpt>
      <trkpt lat="45.79665" lon="4.28584">
        <ele>420</ele>
        <time>2017-04-13T10:26:24.1Z</time>
      </trkpt>
      <trkpt lat="45.79667" lon="4.28584">
        <ele>421</ele>
        <time>2017-04-13T10:26:26.1Z</time>
      </trkpt>
      <trkpt lat="45.7967" lon="4.28584">
        <ele>421</ele>
        <time>2017-04-13T10:26:28.1Z</time>
      </trkpt>
      <trkpt lat="45.79673" lon="4.28584">
        <ele>422</ele>
        <time>2017-04-13T10:26:30.1Z</time>
      </trkpt>
      <trkpt lat="45.79676" lon="4.28584">
        <ele>422</ele>
        <time>2017-04-13T10:26:32.1Z</time>
      </trkpt>
      <trkpt lat="45.7968" lon="4.28584">
        <ele>422</ele>
        <time>2017-04-13T10:26:35.1Z</time>
      </trkpt>
      <trkpt lat="45.79682" lon="4.28583">
        <ele>422</ele>
        <time>2017-04-13T10:26:37.1Z</time>
      </trkpt>
      <trkpt lat="45.79683" lon="4.28583">
        <ele>423</ele>
        <time>2017-04-13T10:26:39.1Z</time>
      </trkpt>
      <trkpt lat="45.79684" lon="4.28583">
        <ele>423</ele>
        <time>2017-04-13T10:26:42.1Z</time>
      </trkpt>
      <trkpt lat="45.79687" lon="4.28582">
        <ele>423</ele>
        <time>2017-04-13T10:26:45.1Z</time>
      </trkpt>
      <trkpt lat="45.7969" lon="4.28582">
        <ele>424</ele>
        <time>2017-04-13T10:26:47.1Z</time>
      </trkpt>
      <trkpt lat="45.79694" lon="4.28582">
        <ele>424</ele>
        <time>2017-04-13T10:26:50.1Z</time>
      </trkpt>
      <trkpt lat="45.79697" lon="4.28581">
        <ele>424</ele>
        <time>2017-04-13T10:26:52.1Z</time>
      </trkpt>
      <trkpt lat="45.79699" lon="4.28582">
        <ele>425</ele>
        <time>2017-04-13T10:26:54.1Z</time>
      </trkpt>
      <trkpt lat="45.79702" lon="4.28582">
        <ele>425</ele>
        <time>2017-04-13T10:26:56.1Z</time>
      </trkpt>
      <trkpt lat="45.79705" lon="4.28582">
        <ele>426</ele>
        <time>2017-04-13T10:26:58.1Z</time>
      </trkpt>
      <trkpt lat="45.79708" lon="4.28582">
        <ele>426</ele>
        <time>2017-04-13T10:27:00.1Z</time>
      </trkpt>
      <trkpt lat="45.79713" lon="4.28583">
        <ele>426</ele>
        <time>2017-04-13T10:27:03.1Z</time>
      </trkpt>
      <trkpt lat="45.79716" lon="4.28583">
        <ele>426</ele>
        <time>2017-04-13T10:27:05.1Z</time>
      </trkpt>
      <trkpt lat="45.79719" lon="4.28584">
        <ele>427</ele>
        <time>2017-04-13T10:27:07.1Z</time>
      </trkpt>
      <trkpt lat="45.79721" lon="4.28584">
        <ele>428</ele>
        <time>2017-04-13T10:27:09.1Z</time>
      </trkpt>
      <trkpt lat="45.79725" lon="4.28585">
        <ele>428</ele>
        <time>2017-04-13T10:27:12.1Z</time>
      </trkpt>
      <trkpt lat="45.79728" lon="4.28586">
        <ele>429</ele>
        <time>2017-04-13T10:27:15.1Z</time>
      </trkpt>
      <trkpt lat="45.79731" lon="4.28587">
        <ele>429</ele>
        <time>2017-04-13T10:27:17.1Z</time>
      </trkpt>
      <trkpt lat="45.79735" lon="4.28588">
        <ele>430</ele>
        <time>2017-04-13T10:27:20.1Z</time>
      </trkpt>
      <trkpt lat="45.79738" lon="4.28589">
        <ele>431</ele>
        <time>2017-04-13T10:27:23.1Z</time>
      </trkpt>
      <trkpt lat="45.79741" lon="4.28591">
        <ele>431</ele>
        <time>2017-04-13T10:27:25.1Z</time>
      </trkpt>
      <trkpt lat="45.79744" lon="4.28592">
        <ele>431</ele>
        <time>2017-04-13T10:27:28.1Z</time>
      </trkpt>
      <trkpt lat="45.79748" lon="4.28594">
        <ele>431</ele>
        <time>2017-04-13T10:27:31.1Z</time>
      </trkpt>
      <trkpt lat="45.79752" lon="4.28596">
        <ele>431</ele>
        <time>2017-04-13T10:27:34.1Z</time>
      </trkpt>
      <trkpt lat="45.79755" lon="4.28598">
        <ele>431</ele>
        <time>2017-04-13T10:27:36.1Z</time>
      </trkpt>
      <trkpt lat="45.79758" lon="4.28599">
        <ele>430</ele>
        <time>2017-04-13T10:27:39.1Z</time>
      </trkpt>
      <trkpt lat="45.79761" lon="4.286">
        <ele>430</ele>
        <time>2017-04-13T10:27:41.1Z</time>
      </trkpt>
      <trkpt lat="45.79763" lon="4.28601">
        <ele>430</ele>
        <time>2017-04-13T10:27:43.1Z</time>
      </trkpt>
      <trkpt lat="45.79766" lon="4.28602">
        <ele>430</ele>
        <time>2017-04-13T10:27:45.1Z</time>
      </trkpt>
      <trkpt lat="45.79768" lon="4.28603">
        <ele>430</ele>
        <time>2017-04-13T10:27:47.1Z</time>
      </trkpt>
      <trkpt lat="45.79771" lon="4.28603">
        <ele>430</ele>
        <time>2017-04-13T10:27:49.1Z</time>
      </trkpt>
      <trkpt lat="45.79773" lon="4.28604">
        <ele>430</ele>
        <time>2017-04-13T10:27:51.1Z</time>
      </trkpt>
      <trkpt lat="45.79776" lon="4.28607">
        <ele>430</ele>
        <time>2017-04-13T10:27:54.1Z</time>
      </trkpt>
      <trkpt lat="45.7978" lon="4.28608">
        <ele>431</ele>
        <time>2017-04-13T10:27:57.1Z</time>
      </trkpt>
      <trkpt lat="45.79784" lon="4.2861">
        <ele>431</ele>
        <time>2017-04-13T10:28:00.1Z</time>
      </trkpt>
      <trkpt lat="45.79788" lon="4.28612">
        <ele>431</ele>
        <time>2017-04-13T10:28:03.1Z</time>
      </trkpt>
      <trkpt lat="45.79792" lon="4.28615">
        <ele>431</ele>
        <time>2017-04-13T10:28:06.1Z</time>
      </trkpt>
      <trkpt lat="45.79795" lon="4.28616">
        <ele>431</ele>
        <time>2017-04-13T10:28:09.1Z</time>
      </trkpt>
      <trkpt lat="45.79797" lon="4.28618">
        <ele>431</ele>
        <time>2017-04-13T10:28:11.1Z</time>
      </trkpt>
      <trkpt lat="45.79798" lon="4.28619">
        <ele>431</ele>
        <time>2017-04-13T10:28:13.1Z</time>
      </trkpt>
      <trkpt lat="45.79801" lon="4.28622">
        <ele>431</ele>
        <time>2017-04-13T10:28:16.1Z</time>
      </trkpt>
      <trkpt lat="45.79803" lon="4.28625">
        <ele>432</ele>
        <time>2017-04-13T10:28:19.1Z</time>
      </trkpt>
      <trkpt lat="45.79807" lon="4.28628">
        <ele>432</ele>
        <time>2017-04-13T10:28:22.1Z</time>
      </trkpt>
      <trkpt lat="45.79809" lon="4.28631">
        <ele>433</ele>
        <time>2017-04-13T10:28:24.1Z</time>
      </trkpt>
      <trkpt lat="45.79811" lon="4.28633">
        <ele>433</ele>
        <time>2017-04-13T10:28:26.1Z</time>
      </trkpt>
      <trkpt lat="45.79813" lon="4.28638">
        <ele>433</ele>
        <time>2017-04-13T10:28:29.1Z</time>
      </trkpt>
      <trkpt lat="45.79815" lon="4.28641">
        <ele>433</ele>
        <time>2017-04-13T10:28:31.1Z</time>
      </trkpt>
      <trkpt lat="45.79817" lon="4.28643">
        <ele>433</ele>
        <time>2017-04-13T10:28:33.1Z</time>
      </trkpt>
      <trkpt lat="45.79819" lon="4.28646">
        <ele>433</ele>
        <time>2017-04-13T10:28:35.1Z</time>
      </trkpt>
      <trkpt lat="45.79821" lon="4.2865">
        <ele>434</ele>
        <time>2017-04-13T10:28:38.1Z</time>
      </trkpt>
      <trkpt lat="45.79824" lon="4.28654">
        <ele>434</ele>
        <time>2017-04-13T10:28:41.1Z</time>
      </trkpt>
      <trkpt lat="45.79827" lon="4.28658">
        <ele>435</ele>
        <time>2017-04-13T10:28:44.1Z</time>
      </trkpt>
      <trkpt lat="45.79831" lon="4.28663">
        <ele>436</ele>
        <time>2017-04-13T10:28:47.1Z</time>
      </trkpt>
      <trkpt lat="45.79832" lon="4.28665">
        <ele>436</ele>
        <time>2017-04-13T10:28:49.1Z</time>
      </trkpt>
      <trkpt lat="45.79835" lon="4.2867">
        <ele>436</ele>
        <time>2017-04-13T10:28:52.1Z</time>
      </trkpt>
      <trkpt lat="45.79838" lon="4.28674">
        <ele>436</ele>
        <time>2017-04-13T10:28:55.1Z</time>
      </trkpt>
      <trkpt lat="45.7984" lon="4.28677">
        <ele>437</ele>
        <time>2017-04-13T10:28:57.1Z</time>
      </trkpt>
      <trkpt lat="45.79842" lon="4.2868">
        <ele>437</ele>
        <time>2017-04-13T10:29:00.1Z</time>
      </trkpt>
      <trkpt lat="45.79845" lon="4.28684">
        <ele>438</ele>
        <time>2017-04-13T10:29:03.1Z</time>
      </trkpt>
      <trkpt lat="45.79847" lon="4.28686">
        <ele>438</ele>
        <time>2017-04-13T10:29:05.1Z</time>
      </trkpt>
      <trkpt lat="45.79848" lon="4.28688">
        <ele>439</ele>
        <time>2017-04-13T10:29:08.1Z</time>
      </trkpt>
      <trkpt lat="45.79848" lon="4.28689">
        <ele>439</ele>
        <time>2017-04-13T10:29:10.1Z</time>
      </trkpt>
      <trkpt lat="45.79849" lon="4.28689">
        <ele>439</ele>
        <time>2017-04-13T10:29:12.1Z</time>
      </trkpt>
      <trkpt lat="45.7985" lon="4.28691">
        <ele>439</ele>
        <time>2017-04-13T10:29:14.1Z</time>
      </trkpt>
      <trkpt lat="45.79853" lon="4.28695">
        <ele>439</ele>
        <time>2017-04-13T10:29:16.1Z</time>
      </trkpt>
      <trkpt lat="45.79856" lon="4.28699">
        <ele>439</ele>
        <time>2017-04-13T10:29:19.1Z</time>
      </trkpt>
      <trkpt lat="45.79858" lon="4.28702">
        <ele>440</ele>
        <time>2017-04-13T10:29:21.1Z</time>
      </trkpt>
      <trkpt lat="45.7986" lon="4.28707">
        <ele>440</ele>
        <time>2017-04-13T10:29:24.1Z</time>
      </trkpt>
      <trkpt lat="45.79862" lon="4.2871">
        <ele>441</ele>
        <time>2017-04-13T10:29:26.1Z</time>
      </trkpt>
      <trkpt lat="45.79865" lon="4.28714">
        <ele>441</ele>
        <time>2017-04-13T10:29:29.1Z</time>
      </trkpt>
      <trkpt lat="45.79867" lon="4.28717">
        <ele>442</ele>
        <time>2017-04-13T10:29:31.1Z</time>
      </trkpt>
      <trkpt lat="45.7987" lon="4.28722">
        <ele>443</ele>
        <time>2017-04-13T10:29:34.1Z</time>
      </trkpt>
      <trkpt lat="45.79873" lon="4.28725">
        <ele>443</ele>
        <time>2017-04-13T10:29:37.1Z</time>
      </trkpt>
      <trkpt lat="45.79876" lon="4.28729">
        <ele>443</ele>
        <time>2017-04-13T10:29:40.1Z</time>
      </trkpt>
      <trkpt lat="45.79879" lon="4.28732">
        <ele>444</ele>
        <time>2017-04-13T10:29:43.1Z</time>
      </trkpt>
      <trkpt lat="45.79881" lon="4.28735">
        <ele>444</ele>
        <time>2017-04-13T10:29:45.1Z</time>
      </trkpt>
      <trkpt lat="45.79883" lon="4.28737">
        <ele>445</ele>
        <time>2017-04-13T10:29:47.1Z</time>
      </trkpt>
      <trkpt lat="45.79886" lon="4.28741">
        <ele>445</ele>
        <time>2017-04-13T10:29:50.1Z</time>
      </trkpt>
      <trkpt lat="45.79889" lon="4.28744">
        <ele>445</ele>
        <time>2017-04-13T10:29:52.1Z</time>
      </trkpt>
      <trkpt lat="45.79891" lon="4.28746">
        <ele>446</ele>
        <time>2017-04-13T10:29:54.1Z</time>
      </trkpt>
      <trkpt lat="45.79895" lon="4.2875">
        <ele>446</ele>
        <time>2017-04-13T10:29:57.1Z</time>
      </trkpt>
      <trkpt lat="45.79898" lon="4.28754">
        <ele>446</ele>
        <time>2017-04-13T10:30:00.1Z</time>
      </trkpt>
      <trkpt lat="45.799" lon="4.28756">
        <ele>447</ele>
        <time>2017-04-13T10:30:02.1Z</time>
      </trkpt>
      <trkpt lat="45.79903" lon="4.2876">
        <ele>447</ele>
        <time>2017-04-13T10:30:05.1Z</time>
      </trkpt>
      <trkpt lat="45.79905" lon="4.28761">
        <ele>448</ele>
        <time>2017-04-13T10:30:07.1Z</time>
      </trkpt>
      <trkpt lat="45.79908" lon="4.28764">
        <ele>448</ele>
        <time>2017-04-13T10:30:09.1Z</time>
      </trkpt>
      <trkpt lat="45.7991" lon="4.28766">
        <ele>449</ele>
        <time>2017-04-13T10:30:11.1Z</time>
      </trkpt>
      <trkpt lat="45.79913" lon="4.28769">
        <ele>449</ele>
        <time>2017-04-13T10:30:14.1Z</time>
      </trkpt>
      <trkpt lat="45.79914" lon="4.28771">
        <ele>449</ele>
        <time>2017-04-13T10:30:16.1Z</time>
      </trkpt>
      <trkpt lat="45.79916" lon="4.28774">
        <ele>449</ele>
        <time>2017-04-13T10:30:18.1Z</time>
      </trkpt>
      <trkpt lat="45.79919" lon="4.28777">
        <ele>450</ele>
        <time>2017-04-13T10:30:21.1Z</time>
      </trkpt>
      <trkpt lat="45.79921" lon="4.2878">
        <ele>450</ele>
        <time>2017-04-13T10:30:23.1Z</time>
      </trkpt>
      <trkpt lat="45.79923" lon="4.28782">
        <ele>451</ele>
        <time>2017-04-13T10:30:25.1Z</time>
      </trkpt>
      <trkpt lat="45.79926" lon="4.28786">
        <ele>451</ele>
        <time>2017-04-13T10:30:28.1Z</time>
      </trkpt>
      <trkpt lat="45.79929" lon="4.28789">
        <ele>451</ele>
        <time>2017-04-13T10:30:31.1Z</time>
      </trkpt>
      <trkpt lat="45.7993" lon="4.2879">
        <ele>452</ele>
        <time>2017-04-13T10:30:33.1Z</time>
      </trkpt>
      <trkpt lat="45.79933" lon="4.28792">
        <ele>452</ele>
        <time>2017-04-13T10:30:35.1Z</time>
      </trkpt>
      <trkpt lat="45.79935" lon="4.28794">
        <ele>452</ele>
        <time>2017-04-13T10:30:37.1Z</time>
      </trkpt>
      <trkpt lat="45.79938" lon="4.28796">
        <ele>452</ele>
        <time>2017-04-13T10:30:40.1Z</time>
      </trkpt>
      <trkpt lat="45.79941" lon="4.28798">
        <ele>452</ele>
        <time>2017-04-13T10:30:42.1Z</time>
      </trkpt>
      <trkpt lat="45.79943" lon="4.28799">
        <ele>453</ele>
        <time>2017-04-13T10:30:44.1Z</time>
      </trkpt>
      <trkpt lat="45.79947" lon="4.28801">
        <ele>453</ele>
        <time>2017-04-13T10:30:47.1Z</time>
      </trkpt>
      <trkpt lat="45.79951" lon="4.28803">
        <ele>453</ele>
        <time>2017-04-13T10:30:50.1Z</time>
      </trkpt>
      <trkpt lat="45.79955" lon="4.28805">
        <ele>453</ele>
        <time>2017-04-13T10:30:53.1Z</time>
      </trkpt>
      <trkpt lat="45.79958" lon="4.28806">
        <ele>453</ele>
        <time>2017-04-13T10:30:55.1Z</time>
      </trkpt>
      <trkpt lat="45.79962" lon="4.28808">
        <ele>454</ele>
        <time>2017-04-13T10:30:58.1Z</time>
      </trkpt>
      <trkpt lat="45.79966" lon="4.2881">
        <ele>454</ele>
        <time>2017-04-13T10:31:01.1Z</time>
      </trkpt>
      <trkpt lat="45.79968" lon="4.28812">
        <ele>454</ele>
        <time>2017-04-13T10:31:03.1Z</time>
      </trkpt>
      <trkpt lat="45.79971" lon="4.28812">
        <ele>454</ele>
        <time>2017-04-13T10:31:05.1Z</time>
      </trkpt>
      <trkpt lat="45.79973" lon="4.28813">
        <ele>455</ele>
        <time>2017-04-13T10:31:07.1Z</time>
      </trkpt>
      <trkpt lat="45.79977" lon="4.28815">
        <ele>455</ele>
        <time>2017-04-13T10:31:10.1Z</time>
      </trkpt>
      <trkpt lat="45.79979" lon="4.28815">
        <ele>455</ele>
        <time>2017-04-13T10:31:12.1Z</time>
      </trkpt>
      <trkpt lat="45.79983" lon="4.28816">
        <ele>455</ele>
        <time>2017-04-13T10:31:15.1Z</time>
      </trkpt>
      <trkpt lat="45.79985" lon="4.28817">
        <ele>455</ele>
        <time>2017-04-13T10:31:17.1Z</time>
      </trkpt>
      <trkpt lat="45.79989" lon="4.28819">
        <ele>455</ele>
        <time>2017-04-13T10:31:20.1Z</time>
      </trkpt>
      <trkpt lat="45.79993" lon="4.28821">
        <ele>455</ele>
        <time>2017-04-13T10:31:23.1Z</time>
      </trkpt>
      <trkpt lat="45.79995" lon="4.28821">
        <ele>456</ele>
        <time>2017-04-13T10:31:25.1Z</time>
      </trkpt>
      <trkpt lat="45.79997" lon="4.28822">
        <ele>456</ele>
        <time>2017-04-13T10:31:28.1Z</time>
      </trkpt>
      <trkpt lat="45.80001" lon="4.28825">
        <ele>456</ele>
        <time>2017-04-13T10:31:31.1Z</time>
      </trkpt>
      <trkpt lat="45.80003" lon="4.28826">
        <ele>456</ele>
        <time>2017-04-13T10:31:33.1Z</time>
      </trkpt>
      <trkpt lat="45.80007" lon="4.28827">
        <ele>456</ele>
        <time>2017-04-13T10:31:36.1Z</time>
      </trkpt>
      <trkpt lat="45.8001" lon="4.28827">
        <ele>456</ele>
        <time>2017-04-13T10:31:38.1Z</time>
      </trkpt>
      <trkpt lat="45.80014" lon="4.28829">
        <ele>456</ele>
        <time>2017-04-13T10:31:41.1Z</time>
      </trkpt>
      <trkpt lat="45.80018" lon="4.2883">
        <ele>456</ele>
        <time>2017-04-13T10:31:43.1Z</time>
      </trkpt>
      <trkpt lat="45.80021" lon="4.28831">
        <ele>456</ele>
        <time>2017-04-13T10:31:45.1Z</time>
      </trkpt>
      <trkpt lat="45.80025" lon="4.28832">
        <ele>457</ele>
        <time>2017-04-13T10:31:48.1Z</time>
      </trkpt>
      <trkpt lat="45.80028" lon="4.28833">
        <ele>457</ele>
        <time>2017-04-13T10:31:50.1Z</time>
      </trkpt>
      <trkpt lat="45.80033" lon="4.28833">
        <ele>457</ele>
        <time>2017-04-13T10:31:53.1Z</time>
      </trkpt>
      <trkpt lat="45.80037" lon="4.28834">
        <ele>457</ele>
        <time>2017-04-13T10:31:56.1Z</time>
      </trkpt>
      <trkpt lat="45.8004" lon="4.28834">
        <ele>457</ele>
        <time>2017-04-13T10:31:58.1Z</time>
      </trkpt>
      <trkpt lat="45.80043" lon="4.28834">
        <ele>457</ele>
        <time>2017-04-13T10:32:00.1Z</time>
      </trkpt>
      <trkpt lat="45.80045" lon="4.28834">
        <ele>457</ele>
        <time>2017-04-13T10:32:02.1Z</time>
      </trkpt>
      <trkpt lat="45.80049" lon="4.28834">
        <ele>457</ele>
        <time>2017-04-13T10:32:04.1Z</time>
      </trkpt>
      <trkpt lat="45.80052" lon="4.28834">
        <ele>458</ele>
        <time>2017-04-13T10:32:06.1Z</time>
      </trkpt>
      <trkpt lat="45.80056" lon="4.28834">
        <ele>458</ele>
        <time>2017-04-13T10:32:09.1Z</time>
      </trkpt>
      <trkpt lat="45.80059" lon="4.28833">
        <ele>458</ele>
        <time>2017-04-13T10:32:11.1Z</time>
      </trkpt>
      <trkpt lat="45.80062" lon="4.28833">
        <ele>458</ele>
        <time>2017-04-13T10:32:13.1Z</time>
      </trkpt>
      <trkpt lat="45.80065" lon="4.28833">
        <ele>458</ele>
        <time>2017-04-13T10:32:15.1Z</time>
      </trkpt>
      <trkpt lat="45.80068" lon="4.28832">
        <ele>458</ele>
        <time>2017-04-13T10:32:17.1Z</time>
      </trkpt>
      <trkpt lat="45.80071" lon="4.28831">
        <ele>458</ele>
        <time>2017-04-13T10:32:19.1Z</time>
      </trkpt>
      <trkpt lat="45.80074" lon="4.28831">
        <ele>458</ele>
        <time>2017-04-13T10:32:21.1Z</time>
      </trkpt>
      <trkpt lat="45.80078" lon="4.2883">
        <ele>458</ele>
        <time>2017-04-13T10:32:24.1Z</time>
      </trkpt>
      <trkpt lat="45.80082" lon="4.28828">
        <ele>458</ele>
        <time>2017-04-13T10:32:27.1Z</time>
      </trkpt>
      <trkpt lat="45.80086" lon="4.28827">
        <ele>457</ele>
        <time>2017-04-13T10:32:30.1Z</time>
      </trkpt>
      <trkpt lat="45.8009" lon="4.28826">
        <ele>457</ele>
        <time>2017-04-13T10:32:33.1Z</time>
      </trkpt>
      <trkpt lat="45.80095" lon="4.28824">
        <ele>457</ele>
        <time>2017-04-13T10:32:36.1Z</time>
      </trkpt>
      <trkpt lat="45.80099" lon="4.28822">
        <ele>458</ele>
        <time>2017-04-13T10:32:39.1Z</time>
      </trkpt>
      <trkpt lat="45.80102" lon="4.28821">
        <ele>457</ele>
        <time>2017-04-13T10:32:41.1Z</time>
      </trkpt>
      <trkpt lat="45.80106" lon="4.2882">
        <ele>457</ele>
        <time>2017-04-13T10:32:44.1Z</time>
      </trkpt>
      <trkpt lat="45.80112" lon="4.2882">
        <ele>457</ele>
        <time>2017-04-13T10:32:47.1Z</time>
      </trkpt>
      <trkpt lat="45.80116" lon="4.28818">
        <ele>457</ele>
        <time>2017-04-13T10:32:50.1Z</time>
      </trkpt>
      <trkpt lat="45.8012" lon="4.28816">
        <ele>457</ele>
        <time>2017-04-13T10:32:53.1Z</time>
      </trkpt>
      <trkpt lat="45.80122" lon="4.28815">
        <ele>457</ele>
        <time>2017-04-13T10:32:55.1Z</time>
      </trkpt>
      <trkpt lat="45.80125" lon="4.28814">
        <ele>456</ele>
        <time>2017-04-13T10:32:57.1Z</time>
      </trkpt>
      <trkpt lat="45.8013" lon="4.28813">
        <ele>456</ele>
        <time>2017-04-13T10:33:00.1Z</time>
      </trkpt>
      <trkpt lat="45.80133" lon="4.28811">
        <ele>456</ele>
        <time>2017-04-13T10:33:03.1Z</time>
      </trkpt>
      <trkpt lat="45.80136" lon="4.28811">
        <ele>455</ele>
        <time>2017-04-13T10:33:05.1Z</time>
      </trkpt>
      <trkpt lat="45.8014" lon="4.28808">
        <ele>455</ele>
        <time>2017-04-13T10:33:08.1Z</time>
      </trkpt>
      <trkpt lat="45.80143" lon="4.28807">
        <ele>455</ele>
        <time>2017-04-13T10:33:10.1Z</time>
      </trkpt>
      <trkpt lat="45.80146" lon="4.28806">
        <ele>455</ele>
        <time>2017-04-13T10:33:12.1Z</time>
      </trkpt>
      <trkpt lat="45.80149" lon="4.28805">
        <ele>456</ele>
        <time>2017-04-13T10:33:14.1Z</time>
      </trkpt>
      <trkpt lat="45.80152" lon="4.28805">
        <ele>456</ele>
        <time>2017-04-13T10:33:16.1Z</time>
      </trkpt>
      <trkpt lat="45.80156" lon="4.28803">
        <ele>456</ele>
        <time>2017-04-13T10:33:19.1Z</time>
      </trkpt>
      <trkpt lat="45.80159" lon="4.28802">
        <ele>456</ele>
        <time>2017-04-13T10:33:21.1Z</time>
      </trkpt>
      <trkpt lat="45.80163" lon="4.288">
        <ele>456</ele>
        <time>2017-04-13T10:33:24.1Z</time>
      </trkpt>
      <trkpt lat="45.80166" lon="4.28799">
        <ele>456</ele>
        <time>2017-04-13T10:33:26.1Z</time>
      </trkpt>
      <trkpt lat="45.8017" lon="4.28798">
        <ele>456</ele>
        <time>2017-04-13T10:33:29.1Z</time>
      </trkpt>
      <trkpt lat="45.80173" lon="4.28796">
        <ele>456</ele>
        <time>2017-04-13T10:33:31.1Z</time>
      </trkpt>
      <trkpt lat="45.80178" lon="4.28795">
        <ele>456</ele>
        <time>2017-04-13T10:33:34.1Z</time>
      </trkpt>
      <trkpt lat="45.80183" lon="4.28793">
        <ele>455</ele>
        <time>2017-04-13T10:33:37.1Z</time>
      </trkpt>
      <trkpt lat="45.80185" lon="4.28792">
        <ele>455</ele>
        <time>2017-04-13T10:33:39.1Z</time>
      </trkpt>
      <trkpt lat="45.80188" lon="4.28791">
        <ele>455</ele>
        <time>2017-04-13T10:33:41.1Z</time>
      </trkpt>
      <trkpt lat="45.80193" lon="4.28789">
        <ele>456</ele>
        <time>2017-04-13T10:33:44.1Z</time>
      </trkpt>
      <trkpt lat="45.80196" lon="4.28787">
        <ele>456</ele>
        <time>2017-04-13T10:33:47.1Z</time>
      </trkpt>
      <trkpt lat="45.802" lon="4.28786">
        <ele>456</ele>
        <time>2017-04-13T10:33:49.1Z</time>
      </trkpt>
      <trkpt lat="45.80204" lon="4.28784">
        <ele>456</ele>
        <time>2017-04-13T10:33:52.1Z</time>
      </trkpt>
      <trkpt lat="45.80208" lon="4.28782">
        <ele>456</ele>
        <time>2017-04-13T10:33:55.1Z</time>
      </trkpt>
      <trkpt lat="45.80211" lon="4.28781">
        <ele>456</ele>
        <time>2017-04-13T10:33:57.1Z</time>
      </trkpt>
      <trkpt lat="45.80214" lon="4.2878">
        <ele>456</ele>
        <time>2017-04-13T10:33:59.1Z</time>
      </trkpt>
      <trkpt lat="45.80219" lon="4.28779">
        <ele>456</ele>
        <time>2017-04-13T10:34:02.1Z</time>
      </trkpt>
      <trkpt lat="45.80223" lon="4.28777">
        <ele>456</ele>
        <time>2017-04-13T10:34:05.1Z</time>
      </trkpt>
      <trkpt lat="45.80228" lon="4.28775">
        <ele>456</ele>
        <time>2017-04-13T10:34:08.1Z</time>
      </trkpt>
      <trkpt lat="45.8023" lon="4.28776">
        <ele>456</ele>
        <time>2017-04-13T10:34:10.1Z</time>
      </trkpt>
      <trkpt lat="45.80235" lon="4.28773">
        <ele>456</ele>
        <time>2017-04-13T10:34:13.1Z</time>
      </trkpt>
      <trkpt lat="45.80238" lon="4.28771">
        <ele>457</ele>
        <time>2017-04-13T10:34:16.1Z</time>
      </trkpt>
      <trkpt lat="45.8024" lon="4.2877">
        <ele>457</ele>
        <time>2017-04-13T10:34:18.1Z</time>
      </trkpt>
      <trkpt lat="45.80242" lon="4.28768">
        <ele>457</ele>
        <time>2017-04-13T10:34:20.1Z</time>
      </trkpt>
      <trkpt lat="45.80246" lon="4.28767">
        <ele>457</ele>
        <time>2017-04-13T10:34:23.1Z</time>
      </trkpt>
      <trkpt lat="45.80248" lon="4.28767">
        <ele>457</ele>
        <time>2017-04-13T10:34:25.1Z</time>
      </trkpt>
      <trkpt lat="45.80253" lon="4.28766">
        <ele>457</ele>
        <time>2017-04-13T10:34:28.1Z</time>
      </trkpt>
      <trkpt lat="45.80257" lon="4.28765">
        <ele>457</ele>
        <time>2017-04-13T10:34:31.1Z</time>
      </trkpt>
      <trkpt lat="45.80259" lon="4.28764">
        <ele>457</ele>
        <time>2017-04-13T10:34:33.1Z</time>
      </trkpt>
      <trkpt lat="45.80262" lon="4.28762">
        <ele>457</ele>
        <time>2017-04-13T10:34:35.1Z</time>
      </trkpt>
      <trkpt lat="45.80265" lon="4.28762">
        <ele>457</ele>
        <time>2017-04-13T10:34:37.1Z</time>
      </trkpt>
      <trkpt lat="45.80267" lon="4.28761">
        <ele>458</ele>
        <time>2017-04-13T10:34:39.1Z</time>
      </trkpt>
      <trkpt lat="45.8027" lon="4.2876">
        <ele>458</ele>
        <time>2017-04-13T10:34:41.1Z</time>
      </trkpt>
      <trkpt lat="45.80272" lon="4.2876">
        <ele>458</ele>
        <time>2017-04-13T10:34:43.1Z</time>
      </trkpt>
      <trkpt lat="45.80277" lon="4.28758">
        <ele>458</ele>
        <time>2017-04-13T10:34:46.1Z</time>
      </trkpt>
      <trkpt lat="45.8028" lon="4.28756">
        <ele>458</ele>
        <time>2017-04-13T10:34:49.1Z</time>
      </trkpt>
      <trkpt lat="45.80283" lon="4.28756">
        <ele>458</ele>
        <time>2017-04-13T10:34:52.1Z</time>
      </trkpt>
      <trkpt lat="45.80286" lon="4.28754">
        <ele>459</ele>
        <time>2017-04-13T10:34:55.1Z</time>
      </trkpt>
      <trkpt lat="45.80288" lon="4.28752">
        <ele>459</ele>
        <time>2017-04-13T10:34:57.1Z</time>
      </trkpt>
      <trkpt lat="45.80291" lon="4.28751">
        <ele>459</ele>
        <time>2017-04-13T10:34:59.1Z</time>
      </trkpt>
      <trkpt lat="45.80294" lon="4.2875">
        <ele>459</ele>
        <time>2017-04-13T10:35:02.1Z</time>
      </trkpt>
      <trkpt lat="45.80296" lon="4.28747">
        <ele>460</ele>
        <time>2017-04-13T10:35:05.1Z</time>
      </trkpt>
      <trkpt lat="45.803" lon="4.28746">
        <ele>459</ele>
        <time>2017-04-13T10:35:08.1Z</time>
      </trkpt>
      <trkpt lat="45.80304" lon="4.28744">
        <ele>460</ele>
        <time>2017-04-13T10:35:11.1Z</time>
      </trkpt>
      <trkpt lat="45.80306" lon="4.28743">
        <ele>460</ele>
        <time>2017-04-13T10:35:13.1Z</time>
      </trkpt>
      <trkpt lat="45.8031" lon="4.28741">
        <ele>460</ele>
        <time>2017-04-13T10:35:16.1Z</time>
      </trkpt>
      <trkpt lat="45.80315" lon="4.28739">
        <ele>460</ele>
        <time>2017-04-13T10:35:19.1Z</time>
      </trkpt>
      <trkpt lat="45.80318" lon="4.28738">
        <ele>461</ele>
        <time>2017-04-13T10:35:21.1Z</time>
      </trkpt>
      <trkpt lat="45.8032" lon="4.28737">
        <ele>461</ele>
        <time>2017-04-13T10:35:23.1Z</time>
      </trkpt>
      <trkpt lat="45.80324" lon="4.28736">
        <ele>461</ele>
        <time>2017-04-13T10:35:25.1Z</time>
      </trkpt>
      <trkpt lat="45.80328" lon="4.28734">
        <ele>462</ele>
        <time>2017-04-13T10:35:28.1Z</time>
      </trkpt>
      <trkpt lat="45.80332" lon="4.28733">
        <ele>462</ele>
        <time>2017-04-13T10:35:31.1Z</time>
      </trkpt>
      <trkpt lat="45.80335" lon="4.28732">
        <ele>462</ele>
        <time>2017-04-13T10:35:33.1Z</time>
      </trkpt>
      <trkpt lat="45.80337" lon="4.28731">
        <ele>462</ele>
        <time>2017-04-13T10:35:35.1Z</time>
      </trkpt>
      <trkpt lat="45.8034" lon="4.28729">
        <ele>462</ele>
        <time>2017-04-13T10:35:37.1Z</time>
      </trkpt>
      <trkpt lat="45.80343" lon="4.28728">
        <ele>462</ele>
        <time>2017-04-13T10:35:39.1Z</time>
      </trkpt>
      <trkpt lat="45.80346" lon="4.28727">
        <ele>462</ele>
        <time>2017-04-13T10:35:41.1Z</time>
      </trkpt>
      <trkpt lat="45.8035" lon="4.28726">
        <ele>463</ele>
        <time>2017-04-13T10:35:44.1Z</time>
      </trkpt>
      <trkpt lat="45.80353" lon="4.28725">
        <ele>463</ele>
        <time>2017-04-13T10:35:46.1Z</time>
      </trkpt>
      <trkpt lat="45.80356" lon="4.28724">
        <ele>463</ele>
        <time>2017-04-13T10:35:48.1Z</time>
      </trkpt>
      <trkpt lat="45.8036" lon="4.28722">
        <ele>463</ele>
        <time>2017-04-13T10:35:51.1Z</time>
      </trkpt>
      <trkpt lat="45.80363" lon="4.28721">
        <ele>463</ele>
        <time>2017-04-13T10:35:53.1Z</time>
      </trkpt>
      <trkpt lat="45.80365" lon="4.2872">
        <ele>463</ele>
        <time>2017-04-13T10:35:55.1Z</time>
      </trkpt>
      <trkpt lat="45.80368" lon="4.28719">
        <ele>463</ele>
        <time>2017-04-13T10:35:57.1Z</time>
      </trkpt>
      <trkpt lat="45.80372" lon="4.28718">
        <ele>464</ele>
        <time>2017-04-13T10:36:00.1Z</time>
      </trkpt>
      <trkpt lat="45.80375" lon="4.28718">
        <ele>464</ele>
        <time>2017-04-13T10:36:02.1Z</time>
      </trkpt>
      <trkpt lat="45.80379" lon="4.28717">
        <ele>465</ele>
        <time>2017-04-13T10:36:05.1Z</time>
      </trkpt>
      <trkpt lat="45.80382" lon="4.28716">
        <ele>466</ele>
        <time>2017-04-13T10:36:07.1Z</time>
      </trkpt>
      <trkpt lat="45.80385" lon="4.28715">
        <ele>466</ele>
        <time>2017-04-13T10:36:10.1Z</time>
      </trkpt>
      <trkpt lat="45.80387" lon="4.28714">
        <ele>466</ele>
        <time>2017-04-13T10:36:12.1Z</time>
      </trkpt>
      <trkpt lat="45.80391" lon="4.28713">
        <ele>467</ele>
        <time>2017-04-13T10:36:15.1Z</time>
      </trkpt>
      <trkpt lat="45.80393" lon="4.28713">
        <ele>468</ele>
        <time>2017-04-13T10:36:17.1Z</time>
      </trkpt>
      <trkpt lat="45.80397" lon="4.28712">
        <ele>468</ele>
        <time>2017-04-13T10:36:20.1Z</time>
      </trkpt>
      <trkpt lat="45.804" lon="4.28711">
        <ele>469</ele>
        <time>2017-04-13T10:36:23.1Z</time>
      </trkpt>
      <trkpt lat="45.80404" lon="4.2871">
        <ele>469</ele>
        <time>2017-04-13T10:36:26.1Z</time>
      </trkpt>
      <trkpt lat="45.80406" lon="4.28709">
        <ele>470</ele>
        <time>2017-04-13T10:36:28.1Z</time>
      </trkpt>
      <trkpt lat="45.8041" lon="4.28708">
        <ele>470</ele>
        <time>2017-04-13T10:36:31.1Z</time>
      </trkpt>
      <trkpt lat="45.80412" lon="4.28707">
        <ele>471</ele>
        <time>2017-04-13T10:36:33.1Z</time>
      </trkpt>
      <trkpt lat="45.80415" lon="4.28706">
        <ele>471</ele>
        <time>2017-04-13T10:36:35.1Z</time>
      </trkpt>
      <trkpt lat="45.80418" lon="4.28703">
        <ele>472</ele>
        <time>2017-04-13T10:36:38.1Z</time>
      </trkpt>
      <trkpt lat="45.80422" lon="4.28702">
        <ele>472</ele>
        <time>2017-04-13T10:36:41.1Z</time>
      </trkpt>
      <trkpt lat="45.80425" lon="4.28702">
        <ele>472</ele>
        <time>2017-04-13T10:36:43.1Z</time>
      </trkpt>
      <trkpt lat="45.80427" lon="4.28701">
        <ele>472</ele>
        <time>2017-04-13T10:36:45.1Z</time>
      </trkpt>
      <trkpt lat="45.8043" lon="4.287">
        <ele>473</ele>
        <time>2017-04-13T10:36:48.1Z</time>
      </trkpt>
      <trkpt lat="45.80432" lon="4.28699">
        <ele>473</ele>
        <time>2017-04-13T10:36:50.1Z</time>
      </trkpt>
      <trkpt lat="45.80434" lon="4.28697">
        <ele>473</ele>
        <time>2017-04-13T10:36:52.1Z</time>
      </trkpt>
      <trkpt lat="45.80437" lon="4.28698">
        <ele>474</ele>
        <time>2017-04-13T10:36:55.1Z</time>
      </trkpt>
      <trkpt lat="45.8044" lon="4.28698">
        <ele>474</ele>
        <time>2017-04-13T10:36:57.1Z</time>
      </trkpt>
      <trkpt lat="45.80444" lon="4.28698">
        <ele>474</ele>
        <time>2017-04-13T10:36:59.1Z</time>
      </trkpt>
      <trkpt lat="45.80447" lon="4.28697">
        <ele>475</ele>
        <time>2017-04-13T10:37:02.1Z</time>
      </trkpt>
      <trkpt lat="45.80451" lon="4.28697">
        <ele>475</ele>
        <time>2017-04-13T10:37:04.1Z</time>
      </trkpt>
      <trkpt lat="45.80455" lon="4.28696">
        <ele>475</ele>
        <time>2017-04-13T10:37:07.1Z</time>
      </trkpt>
      <trkpt lat="45.80458" lon="4.28695">
        <ele>475</ele>
        <time>2017-04-13T10:37:09.1Z</time>
      </trkpt>
      <trkpt lat="45.80461" lon="4.28694">
        <ele>475</ele>
        <time>2017-04-13T10:37:11.1Z</time>
      </trkpt>
      <trkpt lat="45.80464" lon="4.28692">
        <ele>475</ele>
        <time>2017-04-13T10:37:14.1Z</time>
      </trkpt>
      <trkpt lat="45.80466" lon="4.28691">
        <ele>475</ele>
        <time>2017-04-13T10:37:16.1Z</time>
      </trkpt>
      <trkpt lat="45.8047" lon="4.2869">
        <ele>476</ele>
        <time>2017-04-13T10:37:19.1Z</time>
      </trkpt>
      <trkpt lat="45.80473" lon="4.28689">
        <ele>476</ele>
        <time>2017-04-13T10:37:21.1Z</time>
      </trkpt>
      <trkpt lat="45.80475" lon="4.28689">
        <ele>476</ele>
        <time>2017-04-13T10:37:23.1Z</time>
      </trkpt>
      <trkpt lat="45.80479" lon="4.28688">
        <ele>476</ele>
        <time>2017-04-13T10:37:26.1Z</time>
      </trkpt>
      <trkpt lat="45.80482" lon="4.28688">
        <ele>476</ele>
        <time>2017-04-13T10:37:29.1Z</time>
      </trkpt>
      <trkpt lat="45.80483" lon="4.28687">
        <ele>476</ele>
        <time>2017-04-13T10:37:31.1Z</time>
      </trkpt>
      <trkpt lat="45.80487" lon="4.28686">
        <ele>476</ele>
        <time>2017-04-13T10:37:34.1Z</time>
      </trkpt>
      <trkpt lat="45.80489" lon="4.28685">
        <ele>476</ele>
        <time>2017-04-13T10:37:36.1Z</time>
      </trkpt>
      <trkpt lat="45.80492" lon="4.28685">
        <ele>476</ele>
        <time>2017-04-13T10:37:38.1Z</time>
      </trkpt>
      <trkpt lat="45.80494" lon="4.28684">
        <ele>477</ele>
        <time>2017-04-13T10:37:40.1Z</time>
      </trkpt>
      <trkpt lat="45.80497" lon="4.28682">
        <ele>477</ele>
        <time>2017-04-13T10:37:42.1Z</time>
      </trkpt>
      <trkpt lat="45.80501" lon="4.2868">
        <ele>477</ele>
        <time>2017-04-13T10:37:45.1Z</time>
      </trkpt>
      <trkpt lat="45.80503" lon="4.28678">
        <ele>477</ele>
        <time>2017-04-13T10:37:47.1Z</time>
      </trkpt>
      <trkpt lat="45.80507" lon="4.28677">
        <ele>477</ele>
        <time>2017-04-13T10:37:50.1Z</time>
      </trkpt>
      <trkpt lat="45.80509" lon="4.28677">
        <ele>477</ele>
        <time>2017-04-13T10:37:52.1Z</time>
      </trkpt>
      <trkpt lat="45.80513" lon="4.28676">
        <ele>477</ele>
        <time>2017-04-13T10:37:55.1Z</time>
      </trkpt>
      <trkpt lat="45.80517" lon="4.28678">
        <ele>478</ele>
        <time>2017-04-13T10:37:58.1Z</time>
      </trkpt>
      <trkpt lat="45.80521" lon="4.2868">
        <ele>478</ele>
        <time>2017-04-13T10:38:01.1Z</time>
      </trkpt>
      <trkpt lat="45.80523" lon="4.28684">
        <ele>479</ele>
        <time>2017-04-13T10:38:04.1Z</time>
      </trkpt>
      <trkpt lat="45.80524" lon="4.28687">
        <ele>479</ele>
        <time>2017-04-13T10:38:06.1Z</time>
      </trkpt>
      <trkpt lat="45.80526" lon="4.2869">
        <ele>479</ele>
        <time>2017-04-13T10:38:09.1Z</time>
      </trkpt>
      <trkpt lat="45.80526" lon="4.28693">
        <ele>479</ele>
        <time>2017-04-13T10:38:11.1Z</time>
      </trkpt>
      <trkpt lat="45.80529" lon="4.28699">
        <ele>479</ele>
        <time>2017-04-13T10:38:14.1Z</time>
      </trkpt>
      <trkpt lat="45.8053" lon="4.28702">
        <ele>479</ele>
        <time>2017-04-13T10:38:16.1Z</time>
      </trkpt>
      <trkpt lat="45.80533" lon="4.28707">
        <ele>478</ele>
        <time>2017-04-13T10:38:19.1Z</time>
      </trkpt>
      <trkpt lat="45.80534" lon="4.28711">
        <ele>478</ele>
        <time>2017-04-13T10:38:21.1Z</time>
      </trkpt>
      <trkpt lat="45.80537" lon="4.28716">
        <ele>478</ele>
        <time>2017-04-13T10:38:24.1Z</time>
      </trkpt>
      <trkpt lat="45.80539" lon="4.28721">
        <ele>478</ele>
        <time>2017-04-13T10:38:27.1Z</time>
      </trkpt>
      <trkpt lat="45.8054" lon="4.28724">
        <ele>478</ele>
        <time>2017-04-13T10:38:29.1Z</time>
      </trkpt>
      <trkpt lat="45.80542" lon="4.28729">
        <ele>478</ele>
        <time>2017-04-13T10:38:32.1Z</time>
      </trkpt>
      <trkpt lat="45.80544" lon="4.28734">
        <ele>477</ele>
        <time>2017-04-13T10:38:35.1Z</time>
      </trkpt>
      <trkpt lat="45.80545" lon="4.28738">
        <ele>477</ele>
        <time>2017-04-13T10:38:38.1Z</time>
      </trkpt>
      <trkpt lat="45.80546" lon="4.28742">
        <ele>477</ele>
        <time>2017-04-13T10:38:40.1Z</time>
      </trkpt>
      <trkpt lat="45.80547" lon="4.28746">
        <ele>476</ele>
        <time>2017-04-13T10:38:43.1Z</time>
      </trkpt>
      <trkpt lat="45.80549" lon="4.28749">
        <ele>476</ele>
        <time>2017-04-13T10:38:45.1Z</time>
      </trkpt>
      <trkpt lat="45.8055" lon="4.28753">
        <ele>475</ele>
        <time>2017-04-13T10:38:48.1Z</time>
      </trkpt>
      <trkpt lat="45.80552" lon="4.28756">
        <ele>475</ele>
        <time>2017-04-13T10:38:50.1Z</time>
      </trkpt>
      <trkpt lat="45.80554" lon="4.28759">
        <ele>475</ele>
        <time>2017-04-13T10:38:53.1Z</time>
      </trkpt>
      <trkpt lat="45.80555" lon="4.28762">
        <ele>475</ele>
        <time>2017-04-13T10:38:55.1Z</time>
      </trkpt>
      <trkpt lat="45.80555" lon="4.28765">
        <ele>475</ele>
        <time>2017-04-13T10:38:57.1Z</time>
      </trkpt>
      <trkpt lat="45.80556" lon="4.28769">
        <ele>475</ele>
        <time>2017-04-13T10:38:59.1Z</time>
      </trkpt>
      <trkpt lat="45.80558" lon="4.28773">
        <ele>475</ele>
        <time>2017-04-13T10:39:01.1Z</time>
      </trkpt>
      <trkpt lat="45.80559" lon="4.28777">
        <ele>475</ele>
        <time>2017-04-13T10:39:03.1Z</time>
      </trkpt>
      <trkpt lat="45.80561" lon="4.28782">
        <ele>474</ele>
        <time>2017-04-13T10:39:06.1Z</time>
      </trkpt>
      <trkpt lat="45.80563" lon="4.28788">
        <ele>474</ele>
        <time>2017-04-13T10:39:09.1Z</time>
      </trkpt>
      <trkpt lat="45.80565" lon="4.28793">
        <ele>473</ele>
        <time>2017-04-13T10:39:12.1Z</time>
      </trkpt>
      <trkpt lat="45.80567" lon="4.28798">
        <ele>472</ele>
        <time>2017-04-13T10:39:15.1Z</time>
      </trkpt>
      <trkpt lat="45.8057" lon="4.28802">
        <ele>472</ele>
        <time>2017-04-13T10:39:18.1Z</time>
      </trkpt>
      <trkpt lat="45.80571" lon="4.28804">
        <ele>472</ele>
        <time>2017-04-13T10:39:20.1Z</time>
      </trkpt>
      <trkpt lat="45.80573" lon="4.28807">
        <ele>472</ele>
        <time>2017-04-13T10:39:22.1Z</time>
      </trkpt>
      <trkpt lat="45.80575" lon="4.28809">
        <ele>471</ele>
        <time>2017-04-13T10:39:24.1Z</time>
      </trkpt>
      <trkpt lat="45.80577" lon="4.28813">
        <ele>471</ele>
        <time>2017-04-13T10:39:27.1Z</time>
      </trkpt>
      <trkpt lat="45.80579" lon="4.28814">
        <ele>470</ele>
        <time>2017-04-13T10:39:29.1Z</time>
      </trkpt>
      <trkpt lat="45.80581" lon="4.28816">
        <ele>470</ele>
        <time>2017-04-13T10:39:31.1Z</time>
      </trkpt>
      <trkpt lat="45.80583" lon="4.2882">
        <ele>470</ele>
        <time>2017-04-13T10:39:34.1Z</time>
      </trkpt>
      <trkpt lat="45.80586" lon="4.28823">
        <ele>470</ele>
        <time>2017-04-13T10:39:36.1Z</time>
      </trkpt>
      <trkpt lat="45.80587" lon="4.28825">
        <ele>469</ele>
        <time>2017-04-13T10:39:38.1Z</time>
      </trkpt>
      <trkpt lat="45.80589" lon="4.28828">
        <ele>469</ele>
        <time>2017-04-13T10:39:40.1Z</time>
      </trkpt>
      <trkpt lat="45.80591" lon="4.28832">
        <ele>469</ele>
        <time>2017-04-13T10:39:42.1Z</time>
      </trkpt>
      <trkpt lat="45.80593" lon="4.28834">
        <ele>469</ele>
        <time>2017-04-13T10:39:44.1Z</time>
      </trkpt>
      <trkpt lat="45.80597" lon="4.28838">
        <ele>469</ele>
        <time>2017-04-13T10:39:47.1Z</time>
      </trkpt>
      <trkpt lat="45.80601" lon="4.2884">
        <ele>470</ele>
        <time>2017-04-13T10:39:50.1Z</time>
      </trkpt>
      <trkpt lat="45.80603" lon="4.28842">
        <ele>470</ele>
        <time>2017-04-13T10:39:52.1Z</time>
      </trkpt>
      <trkpt lat="45.80606" lon="4.28844">
        <ele>470</ele>
        <time>2017-04-13T10:39:55.1Z</time>
      </trkpt>
      <trkpt lat="45.80608" lon="4.28845">
        <ele>469</ele>
        <time>2017-04-13T10:39:57.1Z</time>
      </trkpt>
      <trkpt lat="45.80609" lon="4.28846">
        <ele>469</ele>
        <time>2017-04-13T10:39:59.1Z</time>
      </trkpt>
      <trkpt lat="45.8061" lon="4.28847">
        <ele>469</ele>
        <time>2017-04-13T10:40:01.1Z</time>
      </trkpt>
      <trkpt lat="45.80608" lon="4.28851">
        <ele>469</ele>
        <time>2017-04-13T10:40:04.1Z</time>
      </trkpt>
      <trkpt lat="45.8061" lon="4.28853">
        <ele>469</ele>
        <time>2017-04-13T10:40:06.1Z</time>
      </trkpt>
      <trkpt lat="45.80611" lon="4.28854">
        <ele>469</ele>
        <time>2017-04-13T10:40:09.1Z</time>
      </trkpt>
      <trkpt lat="45.80613" lon="4.28857">
        <ele>469</ele>
        <time>2017-04-13T10:40:12.1Z</time>
      </trkpt>
      <trkpt lat="45.80612" lon="4.2886">
        <ele>469</ele>
        <time>2017-04-13T10:40:14.1Z</time>
      </trkpt>
      <trkpt lat="45.80612" lon="4.28861">
        <ele>468</ele>
        <time>2017-04-13T10:40:16.1Z</time>
      </trkpt>
      <trkpt lat="45.80612" lon="4.28862">
        <ele>468</ele>
        <time>2017-04-13T10:40:18.1Z</time>
      </trkpt>
      <trkpt lat="45.80611" lon="4.28862">
        <ele>467</ele>
        <time>2017-04-13T10:40:21.1Z</time>
      </trkpt>
      <trkpt lat="45.80609" lon="4.28864">
        <ele>467</ele>
        <time>2017-04-13T10:40:24.1Z</time>
      </trkpt>
      <trkpt lat="45.80608" lon="4.28864">
        <ele>466</ele>
        <time>2017-04-13T10:40:26.1Z</time>
      </trkpt>
      <trkpt lat="45.80607" lon="4.28865">
        <ele>466</ele>
        <time>2017-04-13T10:40:29.1Z</time>
      </trkpt>
      <trkpt lat="45.80605" lon="4.28867">
        <ele>466</ele>
        <time>2017-04-13T10:40:32.1Z</time>
      </trkpt>
      <trkpt lat="45.80602" lon="4.28869">
        <ele>466</ele>
        <time>2017-04-13T10:40:35.1Z</time>
      </trkpt>
      <trkpt lat="45.80601" lon="4.2887">
        <ele>465</ele>
        <time>2017-04-13T10:40:37.1Z</time>
      </trkpt>
      <trkpt lat="45.806" lon="4.28872">
        <ele>465</ele>
        <time>2017-04-13T10:40:39.1Z</time>
      </trkpt>
      <trkpt lat="45.80598" lon="4.28876">
        <ele>464</ele>
        <time>2017-04-13T10:40:42.1Z</time>
      </trkpt>
      <trkpt lat="45.80598" lon="4.28877">
        <ele>463</ele>
        <time>2017-04-13T10:40:44.1Z</time>
      </trkpt>
      <trkpt lat="45.80599" lon="4.28877">
        <ele>462</ele>
        <time>2017-04-13T10:40:47.1Z</time>
      </trkpt>
      <trkpt lat="45.80599" lon="4.28877">
        <ele>462</ele>
        <time>2017-04-13T10:40:50.1Z</time>
      </trkpt>
      <trkpt lat="45.80599" lon="4.28878">
        <ele>463</ele>
        <time>2017-04-13T10:40:52.1Z</time>
      </trkpt>
      <trkpt lat="45.80599" lon="4.28878">
        <ele>463</ele>
        <time>2017-04-13T10:40:55.1Z</time>
      </trkpt>
      <trkpt lat="45.80599" lon="4.28878">
        <ele>462</ele>
        <time>2017-04-13T10:40:57.1Z</time>
      </trkpt>
      <trkpt lat="45.806" lon="4.28879">
        <ele>462</ele>
        <time>2017-04-13T10:40:59.1Z</time>
      </trkpt>
      <trkpt lat="45.806" lon="4.2888">
        <ele>462</ele>
        <time>2017-04-13T10:41:02.1Z</time>
      </trkpt>
      <trkpt lat="45.806" lon="4.2888">
        <ele>462</ele>
        <time>2017-04-13T10:41:05.1Z</time>
      </trkpt>
      <trkpt lat="45.806" lon="4.2888">
        <ele>462</ele>
        <time>2017-04-13T10:41:08.1Z</time>
      </trkpt>
      <trkpt lat="45.806" lon="4.2888">
        <ele>462</ele>
        <time>2017-04-13T10:41:12.1Z</time>
      </trkpt>
      <trkpt lat="45.806" lon="4.28879">
        <ele>462</ele>
        <time>2017-04-13T10:41:14.1Z</time>
      </trkpt>
      <trkpt lat="45.80601" lon="4.28879">
        <ele>462</ele>
        <time>2017-04-13T10:41:17.1Z</time>
      </trkpt>
      <trkpt lat="45.80601" lon="4.28879">
        <ele>462</ele>
        <time>2017-04-13T10:41:20.1Z</time>
      </trkpt>
      <trkpt lat="45.80601" lon="4.28878">
        <ele>462</ele>
        <time>2017-04-13T10:41:22.1Z</time>
      </trkpt>
      <trkpt lat="45.80601" lon="4.28878">
        <ele>462</ele>
        <time>2017-04-13T10:41:25.1Z</time>
      </trkpt>
      <trkpt lat="45.80601" lon="4.28878">
        <ele>462</ele>
        <time>2017-04-13T10:41:27.1Z</time>
      </trkpt>
      <trkpt lat="45.80601" lon="4.28879">
        <ele>462</ele>
        <time>2017-04-13T10:41:29.1Z</time>
      </trkpt>
      <trkpt lat="45.80601" lon="4.28879">
        <ele>462</ele>
        <time>2017-04-13T10:41:32.1Z</time>
      </trkpt>
      <trkpt lat="45.80602" lon="4.28879">
        <ele>462</ele>
        <time>2017-04-13T10:41:34.1Z</time>
      </trkpt>
      <trkpt lat="45.80602" lon="4.28879">
        <ele>462</ele>
        <time>2017-04-13T10:41:36.1Z</time>
      </trkpt>
      <trkpt lat="45.80602" lon="4.2888">
        <ele>462</ele>
        <time>2017-04-13T10:41:39.1Z</time>
      </trkpt>
      <trkpt lat="45.80602" lon="4.2888">
        <ele>462</ele>
        <time>2017-04-13T10:41:43.1Z</time>
      </trkpt>
      <trkpt lat="45.80602" lon="4.28881">
        <ele>462</ele>
        <time>2017-04-13T10:41:45.1Z</time>
      </trkpt>
      <trkpt lat="45.80602" lon="4.28881">
        <ele>462</ele>
        <time>2017-04-13T10:41:48.1Z</time>
      </trkpt>
      <trkpt lat="45.80602" lon="4.28882">
        <ele>462</ele>
        <time>2017-04-13T10:41:52.1Z</time>
      </trkpt>
      <trkpt lat="45.80602" lon="4.28884">
        <ele>462</ele>
        <time>2017-04-13T10:41:55.1Z</time>
      </trkpt>
      <trkpt lat="45.80601" lon="4.28883">
        <ele>462</ele>
        <time>2017-04-13T10:41:57.1Z</time>
      </trkpt>
      <trkpt lat="45.80601" lon="4.28884">
        <ele>462</ele>
        <time>2017-04-13T10:42:01.1Z</time>
      </trkpt>
      <trkpt lat="45.80602" lon="4.28883">
        <ele>462</ele>
        <time>2017-04-13T10:42:03.1Z</time>
      </trkpt>
      <trkpt lat="45.80603" lon="4.28883">
        <ele>462</ele>
        <time>2017-04-13T10:42:06.1Z</time>
      </trkpt>
      <trkpt lat="45.80603" lon="4.28884">
        <ele>462</ele>
        <time>2017-04-13T10:42:08.1Z</time>
      </trkpt>
      <trkpt lat="45.80603" lon="4.28884">
        <ele>462</ele>
        <time>2017-04-13T10:42:11.1Z</time>
      </trkpt>
      <trkpt lat="45.80604" lon="4.28883">
        <ele>462</ele>
        <time>2017-04-13T10:42:14.1Z</time>
      </trkpt>
      <trkpt lat="45.80604" lon="4.28883">
        <ele>462</ele>
        <time>2017-04-13T10:42:17.1Z</time>
      </trkpt>
      <trkpt lat="45.80605" lon="4.28883">
        <ele>462</ele>
        <time>2017-04-13T10:42:20.1Z</time>
      </trkpt>
      <trkpt lat="45.80605" lon="4.28882">
        <ele>462</ele>
        <time>2017-04-13T10:42:22.1Z</time>
      </trkpt>
      <trkpt lat="45.80605" lon="4.28882">
        <ele>461</ele>
        <time>2017-04-13T10:42:25.1Z</time>
      </trkpt>
      <trkpt lat="45.80606" lon="4.28882">
        <ele>462</ele>
        <time>2017-04-13T10:42:28.1Z</time>
      </trkpt>
      <trkpt lat="45.80606" lon="4.28882">
        <ele>462</ele>
        <time>2017-04-13T10:42:31.1Z</time>
      </trkpt>
      <trkpt lat="45.80606" lon="4.28883">
        <ele>463</ele>
        <time>2017-04-13T10:42:34.1Z</time>
      </trkpt>
      <trkpt lat="45.80608" lon="4.28882">
        <ele>463</ele>
        <time>2017-04-13T10:42:36.1Z</time>
      </trkpt>
      <trkpt lat="45.80606" lon="4.28881">
        <ele>462</ele>
        <time>2017-04-13T10:42:39.1Z</time>
      </trkpt>
      <trkpt lat="45.80606" lon="4.28881">
        <ele>463</ele>
        <time>2017-04-13T10:42:42.1Z</time>
      </trkpt>
      <trkpt lat="45.80606" lon="4.28881">
        <ele>463</ele>
        <time>2017-04-13T10:42:45.1Z</time>
      </trkpt>
      <trkpt lat="45.80607" lon="4.28881">
        <ele>463</ele>
        <time>2017-04-13T10:42:47.1Z</time>
      </trkpt>
      <trkpt lat="45.80608" lon="4.28881">
        <ele>463</ele>
        <time>2017-04-13T10:42:50.1Z</time>
      </trkpt>
      <trkpt lat="45.80608" lon="4.28881">
        <ele>462</ele>
        <time>2017-04-13T10:42:53.1Z</time>
      </trkpt>
      <trkpt lat="45.80608" lon="4.28882">
        <ele>462</ele>
        <time>2017-04-13T10:42:55.1Z</time>
      </trkpt>
      <trkpt lat="45.80607" lon="4.28882">
        <ele>462</ele>
        <time>2017-04-13T10:42:57.1Z</time>
      </trkpt>
      <trkpt lat="45.80606" lon="4.28882">
        <ele>462</ele>
        <time>2017-04-13T10:42:59.1Z</time>
      </trkpt>
      <trkpt lat="45.80605" lon="4.28882">
        <ele>462</ele>
        <time>2017-04-13T10:43:02.1Z</time>
      </trkpt>
      <trkpt lat="45.80605" lon="4.28882">
        <ele>463</ele>
        <time>2017-04-13T10:43:05.1Z</time>
      </trkpt>
      <trkpt lat="45.80605" lon="4.28883">
        <ele>462</ele>
        <time>2017-04-13T10:43:07.1Z</time>
      </trkpt>
      <trkpt lat="45.80605" lon="4.28882">
        <ele>463</ele>
        <time>2017-04-13T10:43:10.1Z</time>
      </trkpt>
      <trkpt lat="45.80604" lon="4.28882">
        <ele>462</ele>
        <time>2017-04-13T10:43:13.1Z</time>
      </trkpt>
      <trkpt lat="45.80604" lon="4.28882">
        <ele>462</ele>
        <time>2017-04-13T10:43:17.1Z</time>
      </trkpt>
      <trkpt lat="45.80606" lon="4.2888">
        <ele>462</ele>
        <time>2017-04-13T10:43:20.1Z</time>
      </trkpt>
      <trkpt lat="45.80606" lon="4.28881">
        <ele>462</ele>
        <time>2017-04-13T10:43:23.1Z</time>
      </trkpt>
      <trkpt lat="45.80607" lon="4.28882">
        <ele>463</ele>
        <time>2017-04-13T10:43:26.1Z</time>
      </trkpt>
      <trkpt lat="45.80607" lon="4.28882">
        <ele>463</ele>
        <time>2017-04-13T10:43:28.1Z</time>
      </trkpt>
      <trkpt lat="45.80607" lon="4.2888">
        <ele>464</ele>
        <time>2017-04-13T10:43:31.1Z</time>
      </trkpt>
      <trkpt lat="45.80607" lon="4.2888">
        <ele>463</ele>
        <time>2017-04-13T10:43:34.1Z</time>
      </trkpt>
      <trkpt lat="45.80608" lon="4.28879">
        <ele>463</ele>
        <time>2017-04-13T10:43:37.1Z</time>
      </trkpt>
      <trkpt lat="45.80609" lon="4.28879">
        <ele>463</ele>
        <time>2017-04-13T10:43:39.1Z</time>
      </trkpt>
      <trkpt lat="45.80608" lon="4.28879">
        <ele>463</ele>
        <time>2017-04-13T10:43:42.1Z</time>
      </trkpt>
      <trkpt lat="45.80607" lon="4.2888">
        <ele>462</ele>
        <time>2017-04-13T10:43:44.1Z</time>
      </trkpt>
      <trkpt lat="45.80606" lon="4.2888">
        <ele>463</ele>
        <time>2017-04-13T10:43:47.1Z</time>
      </trkpt>
      <trkpt lat="45.80605" lon="4.2888">
        <ele>463</ele>
        <time>2017-04-13T10:43:49.1Z</time>
      </trkpt>
      <trkpt lat="45.80605" lon="4.2888">
        <ele>463</ele>
        <time>2017-04-13T10:43:51.1Z</time>
      </trkpt>
      <trkpt lat="45.80604" lon="4.28879">
        <ele>463</ele>
        <time>2017-04-13T10:43:53.1Z</time>
      </trkpt>
      <trkpt lat="45.80602" lon="4.28879">
        <ele>463</ele>
        <time>2017-04-13T10:43:56.1Z</time>
      </trkpt>
      <trkpt lat="45.80602" lon="4.2888">
        <ele>463</ele>
        <time>2017-04-13T10:43:59.1Z</time>
      </trkpt>
      <trkpt lat="45.80602" lon="4.2888">
        <ele>463</ele>
        <time>2017-04-13T10:44:02.1Z</time>
      </trkpt>
      <trkpt lat="45.80602" lon="4.2888">
        <ele>463</ele>
        <time>2017-04-13T10:44:04.1Z</time>
      </trkpt>
      <trkpt lat="45.80601" lon="4.2888">
        <ele>462</ele>
        <time>2017-04-13T10:44:08.1Z</time>
      </trkpt>
      <trkpt lat="45.80601" lon="4.2888">
        <ele>462</ele>
        <time>2017-04-13T10:44:11.1Z</time>
      </trkpt>
      <trkpt lat="45.80601" lon="4.2888">
        <ele>462</ele>
        <time>2017-04-13T10:44:14.1Z</time>
      </trkpt>
      <trkpt lat="45.80601" lon="4.2888">
        <ele>463</ele>
        <time>2017-04-13T10:44:17.1Z</time>
      </trkpt>
      <trkpt lat="45.80601" lon="4.28881">
        <ele>463</ele>
        <time>2017-04-13T10:44:20.1Z</time>
      </trkpt>
      <trkpt lat="45.80601" lon="4.28883">
        <ele>463</ele>
        <time>2017-04-13T10:44:22.1Z</time>
      </trkpt>
      <trkpt lat="45.80602" lon="4.28882">
        <ele>462</ele>
        <time>2017-04-13T10:44:24.1Z</time>
      </trkpt>
      <trkpt lat="45.80603" lon="4.28881">
        <ele>462</ele>
        <time>2017-04-13T10:44:27.1Z</time>
      </trkpt>
      <trkpt lat="45.80603" lon="4.28881">
        <ele>463</ele>
        <time>2017-04-13T10:44:30.1Z</time>
      </trkpt>
      <trkpt lat="45.80603" lon="4.28879">
        <ele>463</ele>
        <time>2017-04-13T10:44:33.1Z</time>
      </trkpt>
      <trkpt lat="45.80603" lon="4.28879">
        <ele>464</ele>
        <time>2017-04-13T10:44:36.1Z</time>
      </trkpt>
      <trkpt lat="45.80603" lon="4.28879">
        <ele>464</ele>
        <time>2017-04-13T10:44:38.1Z</time>
      </trkpt>
      <trkpt lat="45.80603" lon="4.28879">
        <ele>463</ele>
        <time>2017-04-13T10:44:42.1Z</time>
      </trkpt>
      <trkpt lat="45.80604" lon="4.28879">
        <ele>463</ele>
        <time>2017-04-13T10:44:44.1Z</time>
      </trkpt>
      <trkpt lat="45.80603" lon="4.28878">
        <ele>463</ele>
        <time>2017-04-13T10:44:46.1Z</time>
      </trkpt>
      <trkpt lat="45.80603" lon="4.28879">
        <ele>463</ele>
        <time>2017-04-13T10:44:48.1Z</time>
      </trkpt>
      <trkpt lat="45.80602" lon="4.28879">
        <ele>463</ele>
        <time>2017-04-13T10:44:50.1Z</time>
      </trkpt>
      <trkpt lat="45.80603" lon="4.28878">
        <ele>463</ele>
        <time>2017-04-13T10:44:53.1Z</time>
      </trkpt>
      <trkpt lat="45.80604" lon="4.28879">
        <ele>463</ele>
        <time>2017-04-13T10:44:55.1Z</time>
      </trkpt>
      <trkpt lat="45.80604" lon="4.28879">
        <ele>463</ele>
        <time>2017-04-13T10:44:58.1Z</time>
      </trkpt>
      <trkpt lat="45.80604" lon="4.2888">
        <ele>463</ele>
        <time>2017-04-13T10:45:01.1Z</time>
      </trkpt>
      <trkpt lat="45.80604" lon="4.2888">
        <ele>463</ele>
        <time>2017-04-13T10:45:04.1Z</time>
      </trkpt>
      <trkpt lat="45.80604" lon="4.2888">
        <ele>463</ele>
        <time>2017-04-13T10:45:07.1Z</time>
      </trkpt>
      <trkpt lat="45.80604" lon="4.28879">
        <ele>463</ele>
        <time>2017-04-13T10:45:09.1Z</time>
      </trkpt>
      <trkpt lat="45.80604" lon="4.28879">
        <ele>462</ele>
        <time>2017-04-13T10:45:11.1Z</time>
      </trkpt>
      <trkpt lat="45.80604" lon="4.28879">
        <ele>462</ele>
        <time>2017-04-13T10:45:13.1Z</time>
      </trkpt>
      <trkpt lat="45.80605" lon="4.28879">
        <ele>462</ele>
        <time>2017-04-13T10:45:15.1Z</time>
      </trkpt>
      <trkpt lat="45.80605" lon="4.28879">
        <ele>462</ele>
        <time>2017-04-13T10:45:17.1Z</time>
      </trkpt>
      <trkpt lat="45.80605" lon="4.2888">
        <ele>464</ele>
        <time>2017-04-13T10:45:20.1Z</time>
      </trkpt>
      <trkpt lat="45.80606" lon="4.28882">
        <ele>463</ele>
        <time>2017-04-13T10:45:23.1Z</time>
      </trkpt>
      <trkpt lat="45.80608" lon="4.28883">
        <ele>463</ele>
        <time>2017-04-13T10:45:26.1Z</time>
      </trkpt>
      <trkpt lat="45.80608" lon="4.28883">
        <ele>464</ele>
        <time>2017-04-13T10:45:28.1Z</time>
      </trkpt>
      <trkpt lat="45.80608" lon="4.28884">
        <ele>464</ele>
        <time>2017-04-13T10:45:31.1Z</time>
      </trkpt>
      <trkpt lat="45.80608" lon="4.28885">
        <ele>462</ele>
        <time>2017-04-13T10:45:34.1Z</time>
      </trkpt>
      <trkpt lat="45.806" lon="4.28867">
        <ele>472</ele>
        <time>2017-04-13T14:32:13.1Z</time>
      </trkpt>
      <trkpt lat="45.80601" lon="4.28865">
        <ele>472</ele>
        <time>2017-04-13T14:32:16.1Z</time>
      </trkpt>
      <trkpt lat="45.80601" lon="4.28865">
        <ele>471</ele>
        <time>2017-04-13T14:32:18.1Z</time>
      </trkpt>
      <trkpt lat="45.80601" lon="4.28864">
        <ele>471</ele>
        <time>2017-04-13T14:32:20.1Z</time>
      </trkpt>
      <trkpt lat="45.80601" lon="4.28864">
        <ele>471</ele>
        <time>2017-04-13T14:32:22.1Z</time>
      </trkpt>
      <trkpt lat="45.80601" lon="4.28863">
        <ele>471</ele>
        <time>2017-04-13T14:32:26.1Z</time>
      </trkpt>
      <trkpt lat="45.80601" lon="4.28863">
        <ele>471</ele>
        <time>2017-04-13T14:32:29.1Z</time>
      </trkpt>
      <trkpt lat="45.80601" lon="4.28864">
        <ele>471</ele>
        <time>2017-04-13T14:32:31.1Z</time>
      </trkpt>
      <trkpt lat="45.806" lon="4.28865">
        <ele>470</ele>
        <time>2017-04-13T14:32:33.1Z</time>
      </trkpt>
      <trkpt lat="45.806" lon="4.28866">
        <ele>471</ele>
        <time>2017-04-13T14:32:36.1Z</time>
      </trkpt>
      <trkpt lat="45.806" lon="4.28867">
        <ele>471</ele>
        <time>2017-04-13T14:32:39.1Z</time>
      </trkpt>
      <trkpt lat="45.806" lon="4.28867">
        <ele>471</ele>
        <time>2017-04-13T14:32:41.1Z</time>
      </trkpt>
      <trkpt lat="45.806" lon="4.28867">
        <ele>471</ele>
        <time>2017-04-13T14:32:46.1Z</time>
      </trkpt>
      <trkpt lat="45.806" lon="4.28867">
        <ele>471</ele>
        <time>2017-04-13T14:32:48.1Z</time>
      </trkpt>
      <trkpt lat="45.806" lon="4.28866">
        <ele>471</ele>
        <time>2017-04-13T14:32:50.1Z</time>
      </trkpt>
      <trkpt lat="45.806" lon="4.28866">
        <ele>471</ele>
        <time>2017-04-13T14:32:53.1Z</time>
      </trkpt>
      <trkpt lat="45.806" lon="4.28866">
        <ele>471</ele>
        <time>2017-04-13T14:32:56.1Z</time>
      </trkpt>
      <trkpt lat="45.80601" lon="4.28866">
        <ele>471</ele>
        <time>2017-04-13T14:33:02.1Z</time>
      </trkpt>
      <trkpt lat="45.806" lon="4.28866">
        <ele>471</ele>
        <time>2017-04-13T14:33:06.1Z</time>
      </trkpt>
      <trkpt lat="45.80601" lon="4.28866">
        <ele>472</ele>
        <time>2017-04-13T14:33:09.1Z</time>
      </trkpt>
      <trkpt lat="45.80601" lon="4.28867">
        <ele>472</ele>
        <time>2017-04-13T14:33:11.1Z</time>
      </trkpt>
      <trkpt lat="45.80601" lon="4.28867">
        <ele>472</ele>
        <time>2017-04-13T14:33:14.1Z</time>
      </trkpt>
      <trkpt lat="45.80601" lon="4.28867">
        <ele>472</ele>
        <time>2017-04-13T14:33:16.1Z</time>
      </trkpt>
      <trkpt lat="45.80601" lon="4.28867">
        <ele>472</ele>
        <time>2017-04-13T14:33:18.1Z</time>
      </trkpt>
      <trkpt lat="45.80601" lon="4.28868">
        <ele>472</ele>
        <time>2017-04-13T14:33:21.1Z</time>
      </trkpt>
      <trkpt lat="45.806" lon="4.28868">
        <ele>472</ele>
        <time>2017-04-13T14:33:24.1Z</time>
      </trkpt>
      <trkpt lat="45.806" lon="4.28868">
        <ele>472</ele>
        <time>2017-04-13T14:33:27.1Z</time>
      </trkpt>
      <trkpt lat="45.806" lon="4.28869">
        <ele>472</ele>
        <time>2017-04-13T14:33:30.1Z</time>
      </trkpt>
      <trkpt lat="45.806" lon="4.28869">
        <ele>471</ele>
        <time>2017-04-13T14:33:32.1Z</time>
      </trkpt>
      <trkpt lat="45.806" lon="4.28869">
        <ele>471</ele>
        <time>2017-04-13T14:33:35.1Z</time>
      </trkpt>
      <trkpt lat="45.806" lon="4.28869">
        <ele>471</ele>
        <time>2017-04-13T14:33:37.1Z</time>
      </trkpt>
      <trkpt lat="45.806" lon="4.2887">
        <ele>471</ele>
        <time>2017-04-13T14:33:39.1Z</time>
      </trkpt>
      <trkpt lat="45.806" lon="4.2887">
        <ele>471</ele>
        <time>2017-04-13T14:33:45.1Z</time>
      </trkpt>
      <trkpt lat="45.806" lon="4.28871">
        <ele>471</ele>
        <time>2017-04-13T14:33:47.1Z</time>
      </trkpt>
      <trkpt lat="45.806" lon="4.28871">
        <ele>471</ele>
        <time>2017-04-13T14:33:49.1Z</time>
      </trkpt>
      <trkpt lat="45.806" lon="4.28871">
        <ele>471</ele>
        <time>2017-04-13T14:33:51.1Z</time>
      </trkpt>
      <trkpt lat="45.806" lon="4.28871">
        <ele>471</ele>
        <time>2017-04-13T14:33:53.1Z</time>
      </trkpt>
      <trkpt lat="45.80599" lon="4.28872">
        <ele>471</ele>
        <time>2017-04-13T14:33:56.1Z</time>
      </trkpt>
      <trkpt lat="45.80599" lon="4.28873">
        <ele>471</ele>
        <time>2017-04-13T14:33:59.1Z</time>
      </trkpt>
      <trkpt lat="45.80599" lon="4.28873">
        <ele>472</ele>
        <time>2017-04-13T14:34:01.1Z</time>
      </trkpt>
      <trkpt lat="45.806" lon="4.28874">
        <ele>472</ele>
        <time>2017-04-13T14:34:04.1Z</time>
      </trkpt>
      <trkpt lat="45.806" lon="4.28875">
        <ele>471</ele>
        <time>2017-04-13T14:34:06.1Z</time>
      </trkpt>
      <trkpt lat="45.80602" lon="4.28876">
        <ele>471</ele>
        <time>2017-04-13T14:34:09.1Z</time>
      </trkpt>
      <trkpt lat="45.80602" lon="4.28877">
        <ele>471</ele>
        <time>2017-04-13T14:34:11.1Z</time>
      </trkpt>
      <trkpt lat="45.80602" lon="4.28878">
        <ele>471</ele>
        <time>2017-04-13T14:34:14.1Z</time>
      </trkpt>
      <trkpt lat="45.80602" lon="4.28879">
        <ele>471</ele>
        <time>2017-04-13T14:34:16.1Z</time>
      </trkpt>
      <trkpt lat="45.80601" lon="4.28881">
        <ele>471</ele>
        <time>2017-04-13T14:34:19.1Z</time>
      </trkpt>
      <trkpt lat="45.80601" lon="4.28882">
        <ele>471</ele>
        <time>2017-04-13T14:34:22.1Z</time>
      </trkpt>
      <trkpt lat="45.80601" lon="4.28882">
        <ele>471</ele>
        <time>2017-04-13T14:34:24.1Z</time>
      </trkpt>
      <trkpt lat="45.80601" lon="4.28882">
        <ele>472</ele>
        <time>2017-04-13T14:34:28.1Z</time>
      </trkpt>
      <trkpt lat="45.80601" lon="4.28882">
        <ele>472</ele>
        <time>2017-04-13T14:34:30.1Z</time>
      </trkpt>
      <trkpt lat="45.80601" lon="4.28881">
        <ele>472</ele>
        <time>2017-04-13T14:34:33.1Z</time>
      </trkpt>
      <trkpt lat="45.80601" lon="4.28881">
        <ele>472</ele>
        <time>2017-04-13T14:34:35.1Z</time>
      </trkpt>
      <trkpt lat="45.80601" lon="4.28881">
        <ele>472</ele>
        <time>2017-04-13T14:34:38.1Z</time>
      </trkpt>
      <trkpt lat="45.80601" lon="4.28881">
        <ele>471</ele>
        <time>2017-04-13T14:34:41.1Z</time>
      </trkpt>
      <trkpt lat="45.80602" lon="4.2888">
        <ele>472</ele>
        <time>2017-04-13T14:34:44.1Z</time>
      </trkpt>
      <trkpt lat="45.80602" lon="4.2888">
        <ele>472</ele>
        <time>2017-04-13T14:34:47.1Z</time>
      </trkpt>
      <trkpt lat="45.80602" lon="4.28879">
        <ele>472</ele>
        <time>2017-04-13T14:34:50.1Z</time>
      </trkpt>
      <trkpt lat="45.80603" lon="4.28878">
        <ele>472</ele>
        <time>2017-04-13T14:34:53.1Z</time>
      </trkpt>
      <trkpt lat="45.80603" lon="4.28877">
        <ele>472</ele>
        <time>2017-04-13T14:34:55.1Z</time>
      </trkpt>
      <trkpt lat="45.80603" lon="4.28877">
        <ele>472</ele>
        <time>2017-04-13T14:34:57.1Z</time>
      </trkpt>
      <trkpt lat="45.80603" lon="4.28877">
        <ele>472</ele>
        <time>2017-04-13T14:35:00.1Z</time>
      </trkpt>
      <trkpt lat="45.80603" lon="4.28877">
        <ele>472</ele>
        <time>2017-04-13T14:35:02.1Z</time>
      </trkpt>
      <trkpt lat="45.80603" lon="4.28877">
        <ele>472</ele>
        <time>2017-04-13T14:35:13.1Z</time>
      </trkpt>
      <trkpt lat="45.80603" lon="4.28877">
        <ele>472</ele>
        <time>2017-04-13T14:35:16.1Z</time>
      </trkpt>
      <trkpt lat="45.80602" lon="4.28878">
        <ele>472</ele>
        <time>2017-04-13T14:35:19.1Z</time>
      </trkpt>
      <trkpt lat="45.80602" lon="4.28878">
        <ele>472</ele>
        <time>2017-04-13T14:35:21.1Z</time>
      </trkpt>
      <trkpt lat="45.80602" lon="4.28878">
        <ele>472</ele>
        <time>2017-04-13T14:35:24.1Z</time>
      </trkpt>
      <trkpt lat="45.80601" lon="4.28879">
        <ele>472</ele>
        <time>2017-04-13T14:35:26.1Z</time>
      </trkpt>
      <trkpt lat="45.80601" lon="4.28879">
        <ele>472</ele>
        <time>2017-04-13T14:35:29.1Z</time>
      </trkpt>
      <trkpt lat="45.806" lon="4.2888">
        <ele>472</ele>
        <time>2017-04-13T14:35:31.1Z</time>
      </trkpt>
      <trkpt lat="45.806" lon="4.2888">
        <ele>472</ele>
        <time>2017-04-13T14:35:34.1Z</time>
      </trkpt>
      <trkpt lat="45.806" lon="4.28881">
        <ele>472</ele>
        <time>2017-04-13T14:35:37.1Z</time>
      </trkpt>
      <trkpt lat="45.80598" lon="4.28883">
        <ele>472</ele>
        <time>2017-04-13T14:35:40.1Z</time>
      </trkpt>
      <trkpt lat="45.80598" lon="4.28885">
        <ele>473</ele>
        <time>2017-04-13T14:35:43.1Z</time>
      </trkpt>
      <trkpt lat="45.80597" lon="4.28886">
        <ele>473</ele>
        <time>2017-04-13T14:35:45.1Z</time>
      </trkpt>
      <trkpt lat="45.80597" lon="4.28886">
        <ele>473</ele>
        <time>2017-04-13T14:35:47.1Z</time>
      </trkpt>
      <trkpt lat="45.80596" lon="4.28887">
        <ele>473</ele>
        <time>2017-04-13T14:35:51.1Z</time>
      </trkpt>
      <trkpt lat="45.80596" lon="4.28886">
        <ele>473</ele>
        <time>2017-04-13T14:35:53.1Z</time>
      </trkpt>
      <trkpt lat="45.80597" lon="4.28885">
        <ele>473</ele>
        <time>2017-04-13T14:35:55.1Z</time>
      </trkpt>
      <trkpt lat="45.80597" lon="4.28885">
        <ele>472</ele>
        <time>2017-04-13T14:35:58.1Z</time>
      </trkpt>
      <trkpt lat="45.80594" lon="4.28886">
        <ele>473</ele>
        <time>2017-04-13T14:36:01.1Z</time>
      </trkpt>
      <trkpt lat="45.80593" lon="4.28887">
        <ele>473</ele>
        <time>2017-04-13T14:36:03.1Z</time>
      </trkpt>
      <trkpt lat="45.80593" lon="4.28887">
        <ele>472</ele>
        <time>2017-04-13T14:36:06.1Z</time>
      </trkpt>
      <trkpt lat="45.80594" lon="4.28887">
        <ele>472</ele>
        <time>2017-04-13T14:36:08.1Z</time>
      </trkpt>
      <trkpt lat="45.80594" lon="4.28887">
        <ele>472</ele>
        <time>2017-04-13T14:36:10.1Z</time>
      </trkpt>
      <trkpt lat="45.80595" lon="4.28888">
        <ele>472</ele>
        <time>2017-04-13T14:36:13.1Z</time>
      </trkpt>
      <trkpt lat="45.80595" lon="4.28887">
        <ele>472</ele>
        <time>2017-04-13T14:36:16.1Z</time>
      </trkpt>
      <trkpt lat="45.80595" lon="4.28886">
        <ele>472</ele>
        <time>2017-04-13T14:36:18.1Z</time>
      </trkpt>
      <trkpt lat="45.80596" lon="4.28886">
        <ele>472</ele>
        <time>2017-04-13T14:36:20.1Z</time>
      </trkpt>
      <trkpt lat="45.80596" lon="4.28885">
        <ele>472</ele>
        <time>2017-04-13T14:36:23.1Z</time>
      </trkpt>
      <trkpt lat="45.80596" lon="4.28884">
        <ele>472</ele>
        <time>2017-04-13T14:36:26.1Z</time>
      </trkpt>
      <trkpt lat="45.80597" lon="4.28884">
        <ele>472</ele>
        <time>2017-04-13T14:36:28.1Z</time>
      </trkpt>
      <trkpt lat="45.80597" lon="4.28883">
        <ele>472</ele>
        <time>2017-04-13T14:36:30.1Z</time>
      </trkpt>
      <trkpt lat="45.80597" lon="4.28882">
        <ele>472</ele>
        <time>2017-04-13T14:36:32.1Z</time>
      </trkpt>
      <trkpt lat="45.80597" lon="4.28882">
        <ele>472</ele>
        <time>2017-04-13T14:36:35.1Z</time>
      </trkpt>
      <trkpt lat="45.80598" lon="4.28882">
        <ele>473</ele>
        <time>2017-04-13T14:36:38.1Z</time>
      </trkpt>
      <trkpt lat="45.80599" lon="4.28882">
        <ele>473</ele>
        <time>2017-04-13T14:36:41.1Z</time>
      </trkpt>
      <trkpt lat="45.806" lon="4.28881">
        <ele>473</ele>
        <time>2017-04-13T14:36:43.1Z</time>
      </trkpt>
      <trkpt lat="45.80602" lon="4.28882">
        <ele>473</ele>
        <time>2017-04-13T14:36:46.1Z</time>
      </trkpt>
      <trkpt lat="45.80603" lon="4.28884">
        <ele>473</ele>
        <time>2017-04-13T14:36:49.1Z</time>
      </trkpt>
      <trkpt lat="45.80603" lon="4.28885">
        <ele>473</ele>
        <time>2017-04-13T14:36:51.1Z</time>
      </trkpt>
      <trkpt lat="45.80603" lon="4.28887">
        <ele>474</ele>
        <time>2017-04-13T14:36:53.1Z</time>
      </trkpt>
      <trkpt lat="45.80603" lon="4.28889">
        <ele>474</ele>
        <time>2017-04-13T14:36:55.1Z</time>
      </trkpt>
      <trkpt lat="45.80605" lon="4.28891">
        <ele>473</ele>
        <time>2017-04-13T14:36:58.1Z</time>
      </trkpt>
      <trkpt lat="45.80607" lon="4.28892">
        <ele>473</ele>
        <time>2017-04-13T14:37:00.1Z</time>
      </trkpt>
      <trkpt lat="45.8061" lon="4.28892">
        <ele>473</ele>
        <time>2017-04-13T14:37:02.1Z</time>
      </trkpt>
      <trkpt lat="45.80613" lon="4.28893">
        <ele>473</ele>
        <time>2017-04-13T14:37:05.1Z</time>
      </trkpt>
      <trkpt lat="45.80613" lon="4.28893">
        <ele>473</ele>
        <time>2017-04-13T14:37:07.1Z</time>
      </trkpt>
      <trkpt lat="45.80614" lon="4.28894">
        <ele>474</ele>
        <time>2017-04-13T14:37:09.1Z</time>
      </trkpt>
      <trkpt lat="45.80613" lon="4.28893">
        <ele>474</ele>
        <time>2017-04-13T14:37:12.1Z</time>
      </trkpt>
      <trkpt lat="45.80612" lon="4.28894">
        <ele>473</ele>
        <time>2017-04-13T14:37:15.1Z</time>
      </trkpt>
      <trkpt lat="45.8061" lon="4.28893">
        <ele>473</ele>
        <time>2017-04-13T14:37:18.1Z</time>
      </trkpt>
      <trkpt lat="45.80609" lon="4.28892">
        <ele>473</ele>
        <time>2017-04-13T14:37:20.1Z</time>
      </trkpt>
      <trkpt lat="45.80608" lon="4.28891">
        <ele>473</ele>
        <time>2017-04-13T14:37:22.1Z</time>
      </trkpt>
      <trkpt lat="45.80608" lon="4.2889">
        <ele>473</ele>
        <time>2017-04-13T14:37:24.1Z</time>
      </trkpt>
      <trkpt lat="45.80607" lon="4.2889">
        <ele>472</ele>
        <time>2017-04-13T14:37:27.1Z</time>
      </trkpt>
      <trkpt lat="45.80607" lon="4.2889">
        <ele>473</ele>
        <time>2017-04-13T14:37:29.1Z</time>
      </trkpt>
      <trkpt lat="45.80607" lon="4.28889">
        <ele>473</ele>
        <time>2017-04-13T14:37:31.1Z</time>
      </trkpt>
      <trkpt lat="45.80607" lon="4.28889">
        <ele>473</ele>
        <time>2017-04-13T14:37:33.1Z</time>
      </trkpt>
      <trkpt lat="45.80605" lon="4.28889">
        <ele>473</ele>
        <time>2017-04-13T14:37:35.1Z</time>
      </trkpt>
      <trkpt lat="45.80605" lon="4.28889">
        <ele>472</ele>
        <time>2017-04-13T14:37:38.1Z</time>
      </trkpt>
      <trkpt lat="45.80605" lon="4.28888">
        <ele>472</ele>
        <time>2017-04-13T14:37:41.1Z</time>
      </trkpt>
      <trkpt lat="45.80605" lon="4.28887">
        <ele>472</ele>
        <time>2017-04-13T14:37:43.1Z</time>
      </trkpt>
      <trkpt lat="45.80604" lon="4.28886">
        <ele>472</ele>
        <time>2017-04-13T14:37:45.1Z</time>
      </trkpt>
      <trkpt lat="45.80603" lon="4.28887">
        <ele>472</ele>
        <time>2017-04-13T14:37:47.1Z</time>
      </trkpt>
      <trkpt lat="45.80602" lon="4.28886">
        <ele>472</ele>
        <time>2017-04-13T14:37:49.1Z</time>
      </trkpt>
      <trkpt lat="45.80601" lon="4.28885">
        <ele>472</ele>
        <time>2017-04-13T14:37:51.1Z</time>
      </trkpt>
      <trkpt lat="45.80602" lon="4.28884">
        <ele>472</ele>
        <time>2017-04-13T14:37:54.1Z</time>
      </trkpt>
      <trkpt lat="45.80602" lon="4.28883">
        <ele>472</ele>
        <time>2017-04-13T14:37:56.1Z</time>
      </trkpt>
      <trkpt lat="45.80601" lon="4.28882">
        <ele>472</ele>
        <time>2017-04-13T14:38:02.1Z</time>
      </trkpt>
      <trkpt lat="45.80601" lon="4.28882">
        <ele>472</ele>
        <time>2017-04-13T14:38:06.1Z</time>
      </trkpt>
      <trkpt lat="45.80602" lon="4.28883">
        <ele>473</ele>
        <time>2017-04-13T14:38:08.1Z</time>
      </trkpt>
      <trkpt lat="45.80602" lon="4.28883">
        <ele>473</ele>
        <time>2017-04-13T14:38:13.1Z</time>
      </trkpt>
      <trkpt lat="45.80602" lon="4.28883">
        <ele>472</ele>
        <time>2017-04-13T14:38:15.1Z</time>
      </trkpt>
      <trkpt lat="45.80602" lon="4.28883">
        <ele>472</ele>
        <time>2017-04-13T14:38:17.1Z</time>
      </trkpt>
      <trkpt lat="45.80603" lon="4.28882">
        <ele>472</ele>
        <time>2017-04-13T14:38:20.1Z</time>
      </trkpt>
      <trkpt lat="45.80603" lon="4.28883">
        <ele>473</ele>
        <time>2017-04-13T14:38:22.1Z</time>
      </trkpt>
      <trkpt lat="45.80603" lon="4.28882">
        <ele>473</ele>
        <time>2017-04-13T14:38:24.1Z</time>
      </trkpt>
      <trkpt lat="45.80601" lon="4.28886">
        <ele>473</ele>
        <time>2017-04-13T14:38:26.1Z</time>
      </trkpt>
      <trkpt lat="45.80601" lon="4.28887">
        <ele>473</ele>
        <time>2017-04-13T14:38:29.1Z</time>
      </trkpt>
      <trkpt lat="45.80601" lon="4.28886">
        <ele>473</ele>
        <time>2017-04-13T14:38:31.1Z</time>
      </trkpt>
      <trkpt lat="45.80602" lon="4.28885">
        <ele>473</ele>
        <time>2017-04-13T14:38:33.1Z</time>
      </trkpt>
      <trkpt lat="45.80602" lon="4.28885">
        <ele>473</ele>
        <time>2017-04-13T14:38:36.1Z</time>
      </trkpt>
      <trkpt lat="45.80602" lon="4.28885">
        <ele>472</ele>
        <time>2017-04-13T14:38:39.1Z</time>
      </trkpt>
      <trkpt lat="45.80602" lon="4.28885">
        <ele>473</ele>
        <time>2017-04-13T14:38:41.1Z</time>
      </trkpt>
      <trkpt lat="45.80603" lon="4.28885">
        <ele>472</ele>
        <time>2017-04-13T14:38:43.1Z</time>
      </trkpt>
      <trkpt lat="45.80603" lon="4.28885">
        <ele>472</ele>
        <time>2017-04-13T14:38:46.1Z</time>
      </trkpt>
      <trkpt lat="45.80603" lon="4.28886">
        <ele>472</ele>
        <time>2017-04-13T14:38:49.1Z</time>
      </trkpt>
      <trkpt lat="45.80603" lon="4.28886">
        <ele>472</ele>
        <time>2017-04-13T14:38:51.1Z</time>
      </trkpt>
      <trkpt lat="45.80603" lon="4.28886">
        <ele>472</ele>
        <time>2017-04-13T14:38:53.1Z</time>
      </trkpt>
      <trkpt lat="45.80602" lon="4.28885">
        <ele>472</ele>
        <time>2017-04-13T14:38:55.1Z</time>
      </trkpt>
      <trkpt lat="45.80602" lon="4.28885">
        <ele>472</ele>
        <time>2017-04-13T14:38:57.1Z</time>
      </trkpt>
      <trkpt lat="45.80602" lon="4.28886">
        <ele>473</ele>
        <time>2017-04-13T14:39:00.1Z</time>
      </trkpt>
      <trkpt lat="45.80602" lon="4.28886">
        <ele>473</ele>
        <time>2017-04-13T14:39:02.1Z</time>
      </trkpt>
      <trkpt lat="45.80602" lon="4.28885">
        <ele>473</ele>
        <time>2017-04-13T14:39:05.1Z</time>
      </trkpt>
      <trkpt lat="45.80602" lon="4.28885">
        <ele>473</ele>
        <time>2017-04-13T14:39:08.1Z</time>
      </trkpt>
      <trkpt lat="45.80601" lon="4.28884">
        <ele>473</ele>
        <time>2017-04-13T14:39:10.1Z</time>
      </trkpt>
      <trkpt lat="45.80601" lon="4.28884">
        <ele>472</ele>
        <time>2017-04-13T14:39:14.1Z</time>
      </trkpt>
      <trkpt lat="45.80601" lon="4.28884">
        <ele>472</ele>
        <time>2017-04-13T14:39:16.1Z</time>
      </trkpt>
      <trkpt lat="45.806" lon="4.28885">
        <ele>473</ele>
        <time>2017-04-13T14:39:19.1Z</time>
      </trkpt>
      <trkpt lat="45.806" lon="4.28885">
        <ele>473</ele>
        <time>2017-04-13T14:39:25.1Z</time>
      </trkpt>
      <trkpt lat="45.806" lon="4.28884">
        <ele>473</ele>
        <time>2017-04-13T14:39:30.1Z</time>
      </trkpt>
      <trkpt lat="45.80599" lon="4.28884">
        <ele>473</ele>
        <time>2017-04-13T14:39:33.1Z</time>
      </trkpt>
      <trkpt lat="45.80599" lon="4.28884">
        <ele>472</ele>
        <time>2017-04-13T14:39:37.1Z</time>
      </trkpt>
      <trkpt lat="45.806" lon="4.28883">
        <ele>472</ele>
        <time>2017-04-13T14:39:40.1Z</time>
      </trkpt>
      <trkpt lat="45.806" lon="4.28883">
        <ele>472</ele>
        <time>2017-04-13T14:39:42.1Z</time>
      </trkpt>
      <trkpt lat="45.80602" lon="4.2888">
        <ele>472</ele>
        <time>2017-04-13T14:39:45.1Z</time>
      </trkpt>
      <trkpt lat="45.80604" lon="4.28877">
        <ele>473</ele>
        <time>2017-04-13T14:39:47.1Z</time>
      </trkpt>
      <trkpt lat="45.80606" lon="4.28874">
        <ele>473</ele>
        <time>2017-04-13T14:39:49.1Z</time>
      </trkpt>
      <trkpt lat="45.8061" lon="4.2887">
        <ele>474</ele>
        <time>2017-04-13T14:39:52.1Z</time>
      </trkpt>
      <trkpt lat="45.80612" lon="4.28868">
        <ele>475</ele>
        <time>2017-04-13T14:39:54.1Z</time>
      </trkpt>
      <trkpt lat="45.80615" lon="4.28868">
        <ele>476</ele>
        <time>2017-04-13T14:39:57.1Z</time>
      </trkpt>
      <trkpt lat="45.80618" lon="4.28867">
        <ele>476</ele>
        <time>2017-04-13T14:40:00.1Z</time>
      </trkpt>
      <trkpt lat="45.80619" lon="4.28864">
        <ele>477</ele>
        <time>2017-04-13T14:40:02.1Z</time>
      </trkpt>
      <trkpt lat="45.80619" lon="4.2886">
        <ele>477</ele>
        <time>2017-04-13T14:40:04.1Z</time>
      </trkpt>
      <trkpt lat="45.80619" lon="4.28857">
        <ele>478</ele>
        <time>2017-04-13T14:40:06.1Z</time>
      </trkpt>
      <trkpt lat="45.80618" lon="4.28855">
        <ele>479</ele>
        <time>2017-04-13T14:40:08.1Z</time>
      </trkpt>
      <trkpt lat="45.80617" lon="4.28854">
        <ele>479</ele>
        <time>2017-04-13T14:40:11.1Z</time>
      </trkpt>
      <trkpt lat="45.80617" lon="4.28852">
        <ele>480</ele>
        <time>2017-04-13T14:40:13.1Z</time>
      </trkpt>
      <trkpt lat="45.80618" lon="4.2885">
        <ele>480</ele>
        <time>2017-04-13T14:40:15.1Z</time>
      </trkpt>
      <trkpt lat="45.80619" lon="4.28848">
        <ele>480</ele>
        <time>2017-04-13T14:40:18.1Z</time>
      </trkpt>
      <trkpt lat="45.80619" lon="4.28848">
        <ele>480</ele>
        <time>2017-04-13T14:40:21.1Z</time>
      </trkpt>
      <trkpt lat="45.8062" lon="4.28849">
        <ele>480</ele>
        <time>2017-04-13T14:40:23.1Z</time>
      </trkpt>
      <trkpt lat="45.80621" lon="4.28851">
        <ele>480</ele>
        <time>2017-04-13T14:40:25.1Z</time>
      </trkpt>
      <trkpt lat="45.80623" lon="4.28852">
        <ele>480</ele>
        <time>2017-04-13T14:40:28.1Z</time>
      </trkpt>
      <trkpt lat="45.80626" lon="4.28852">
        <ele>479</ele>
        <time>2017-04-13T14:40:31.1Z</time>
      </trkpt>
      <trkpt lat="45.80629" lon="4.28851">
        <ele>479</ele>
        <time>2017-04-13T14:40:34.1Z</time>
      </trkpt>
      <trkpt lat="45.80631" lon="4.28851">
        <ele>479</ele>
        <time>2017-04-13T14:40:36.1Z</time>
      </trkpt>
      <trkpt lat="45.80635" lon="4.28851">
        <ele>479</ele>
        <time>2017-04-13T14:40:39.1Z</time>
      </trkpt>
      <trkpt lat="45.80637" lon="4.2885">
        <ele>479</ele>
        <time>2017-04-13T14:40:41.1Z</time>
      </trkpt>
      <trkpt lat="45.8064" lon="4.2885">
        <ele>478</ele>
        <time>2017-04-13T14:40:44.1Z</time>
      </trkpt>
      <trkpt lat="45.80643" lon="4.2885">
        <ele>478</ele>
        <time>2017-04-13T14:40:46.1Z</time>
      </trkpt>
      <trkpt lat="45.80647" lon="4.28849">
        <ele>478</ele>
        <time>2017-04-13T14:40:49.1Z</time>
      </trkpt>
      <trkpt lat="45.80651" lon="4.28849">
        <ele>477</ele>
        <time>2017-04-13T14:40:52.1Z</time>
      </trkpt>
      <trkpt lat="45.80653" lon="4.28848">
        <ele>477</ele>
        <time>2017-04-13T14:40:54.1Z</time>
      </trkpt>
      <trkpt lat="45.80655" lon="4.28848">
        <ele>477</ele>
        <time>2017-04-13T14:40:56.1Z</time>
      </trkpt>
      <trkpt lat="45.80658" lon="4.28847">
        <ele>476</ele>
        <time>2017-04-13T14:40:58.1Z</time>
      </trkpt>
      <trkpt lat="45.8066" lon="4.28846">
        <ele>476</ele>
        <time>2017-04-13T14:41:00.1Z</time>
      </trkpt>
      <trkpt lat="45.80663" lon="4.28846">
        <ele>474</ele>
        <time>2017-04-13T14:41:03.1Z</time>
      </trkpt>
      <trkpt lat="45.80666" lon="4.28846">
        <ele>474</ele>
        <time>2017-04-13T14:41:05.1Z</time>
      </trkpt>
      <trkpt lat="45.8067" lon="4.28845">
        <ele>474</ele>
        <time>2017-04-13T14:41:08.1Z</time>
      </trkpt>
      <trkpt lat="45.80674" lon="4.28845">
        <ele>473</ele>
        <time>2017-04-13T14:41:11.1Z</time>
      </trkpt>
      <trkpt lat="45.80676" lon="4.28845">
        <ele>475</ele>
        <time>2017-04-13T14:41:13.1Z</time>
      </trkpt>
      <trkpt lat="45.8068" lon="4.28844">
        <ele>473</ele>
        <time>2017-04-13T14:41:16.1Z</time>
      </trkpt>
      <trkpt lat="45.80683" lon="4.28844">
        <ele>473</ele>
        <time>2017-04-13T14:41:19.1Z</time>
      </trkpt>
      <trkpt lat="45.80686" lon="4.28843">
        <ele>473</ele>
        <time>2017-04-13T14:41:21.1Z</time>
      </trkpt>
      <trkpt lat="45.8069" lon="4.28843">
        <ele>474</ele>
        <time>2017-04-13T14:41:24.1Z</time>
      </trkpt>
      <trkpt lat="45.80693" lon="4.28842">
        <ele>473</ele>
        <time>2017-04-13T14:41:26.1Z</time>
      </trkpt>
      <trkpt lat="45.80696" lon="4.28842">
        <ele>473</ele>
        <time>2017-04-13T14:41:28.1Z</time>
      </trkpt>
      <trkpt lat="45.80699" lon="4.28842">
        <ele>472</ele>
        <time>2017-04-13T14:41:31.1Z</time>
      </trkpt>
      <trkpt lat="45.80702" lon="4.28841">
        <ele>472</ele>
        <time>2017-04-13T14:41:33.1Z</time>
      </trkpt>
      <trkpt lat="45.80705" lon="4.28841">
        <ele>472</ele>
        <time>2017-04-13T14:41:35.1Z</time>
      </trkpt>
      <trkpt lat="45.80708" lon="4.28841">
        <ele>472</ele>
        <time>2017-04-13T14:41:38.1Z</time>
      </trkpt>
      <trkpt lat="45.80712" lon="4.2884">
        <ele>472</ele>
        <time>2017-04-13T14:41:41.1Z</time>
      </trkpt>
      <trkpt lat="45.80715" lon="4.28839">
        <ele>472</ele>
        <time>2017-04-13T14:41:43.1Z</time>
      </trkpt>
      <trkpt lat="45.80719" lon="4.28839">
        <ele>472</ele>
        <time>2017-04-13T14:41:46.1Z</time>
      </trkpt>
      <trkpt lat="45.80724" lon="4.2884">
        <ele>471</ele>
        <time>2017-04-13T14:41:49.1Z</time>
      </trkpt>
      <trkpt lat="45.80727" lon="4.2884">
        <ele>471</ele>
        <time>2017-04-13T14:41:51.1Z</time>
      </trkpt>
      <trkpt lat="45.8073" lon="4.2884">
        <ele>472</ele>
        <time>2017-04-13T14:41:53.1Z</time>
      </trkpt>
      <trkpt lat="45.80735" lon="4.2884">
        <ele>472</ele>
        <time>2017-04-13T14:41:56.1Z</time>
      </trkpt>
      <trkpt lat="45.80739" lon="4.28841">
        <ele>472</ele>
        <time>2017-04-13T14:41:59.1Z</time>
      </trkpt>
      <trkpt lat="45.80742" lon="4.28842">
        <ele>472</ele>
        <time>2017-04-13T14:42:01.1Z</time>
      </trkpt>
      <trkpt lat="45.80746" lon="4.28842">
        <ele>472</ele>
        <time>2017-04-13T14:42:04.1Z</time>
      </trkpt>
      <trkpt lat="45.8075" lon="4.28841">
        <ele>472</ele>
        <time>2017-04-13T14:42:07.1Z</time>
      </trkpt>
      <trkpt lat="45.80752" lon="4.28841">
        <ele>473</ele>
        <time>2017-04-13T14:42:09.1Z</time>
      </trkpt>
      <trkpt lat="45.80755" lon="4.28841">
        <ele>473</ele>
        <time>2017-04-13T14:42:12.1Z</time>
      </trkpt>
      <trkpt lat="45.80758" lon="4.2884">
        <ele>473</ele>
        <time>2017-04-13T14:42:14.1Z</time>
      </trkpt>
      <trkpt lat="45.80761" lon="4.2884">
        <ele>473</ele>
        <time>2017-04-13T14:42:16.1Z</time>
      </trkpt>
      <trkpt lat="45.80764" lon="4.2884">
        <ele>473</ele>
        <time>2017-04-13T14:42:18.1Z</time>
      </trkpt>
      <trkpt lat="45.80768" lon="4.28839">
        <ele>474</ele>
        <time>2017-04-13T14:42:21.1Z</time>
      </trkpt>
      <trkpt lat="45.80771" lon="4.28839">
        <ele>474</ele>
        <time>2017-04-13T14:42:23.1Z</time>
      </trkpt>
      <trkpt lat="45.80774" lon="4.28839">
        <ele>474</ele>
        <time>2017-04-13T14:42:25.1Z</time>
      </trkpt>
      <trkpt lat="45.80776" lon="4.2884">
        <ele>474</ele>
        <time>2017-04-13T14:42:27.1Z</time>
      </trkpt>
      <trkpt lat="45.8078" lon="4.28839">
        <ele>474</ele>
        <time>2017-04-13T14:42:30.1Z</time>
      </trkpt>
      <trkpt lat="45.80782" lon="4.28839">
        <ele>474</ele>
        <time>2017-04-13T14:42:32.1Z</time>
      </trkpt>
      <trkpt lat="45.80785" lon="4.28839">
        <ele>473</ele>
        <time>2017-04-13T14:42:35.1Z</time>
      </trkpt>
      <trkpt lat="45.80787" lon="4.28839">
        <ele>473</ele>
        <time>2017-04-13T14:42:37.1Z</time>
      </trkpt>
      <trkpt lat="45.8079" lon="4.28838">
        <ele>473</ele>
        <time>2017-04-13T14:42:40.1Z</time>
      </trkpt>
      <trkpt lat="45.80792" lon="4.28838">
        <ele>473</ele>
        <time>2017-04-13T14:42:42.1Z</time>
      </trkpt>
      <trkpt lat="45.80794" lon="4.28839">
        <ele>472</ele>
        <time>2017-04-13T14:42:44.1Z</time>
      </trkpt>
      <trkpt lat="45.80797" lon="4.28838">
        <ele>472</ele>
        <time>2017-04-13T14:42:46.1Z</time>
      </trkpt>
      <trkpt lat="45.80801" lon="4.28836">
        <ele>471</ele>
        <time>2017-04-13T14:42:49.1Z</time>
      </trkpt>
      <trkpt lat="45.80804" lon="4.28836">
        <ele>471</ele>
        <time>2017-04-13T14:42:51.1Z</time>
      </trkpt>
      <trkpt lat="45.80807" lon="4.28837">
        <ele>471</ele>
        <time>2017-04-13T14:42:54.1Z</time>
      </trkpt>
      <trkpt lat="45.8081" lon="4.28837">
        <ele>471</ele>
        <time>2017-04-13T14:42:57.1Z</time>
      </trkpt>
      <trkpt lat="45.80812" lon="4.28838">
        <ele>470</ele>
        <time>2017-04-13T14:43:00.1Z</time>
      </trkpt>
      <trkpt lat="45.80815" lon="4.28842">
        <ele>471</ele>
        <time>2017-04-13T14:43:03.1Z</time>
      </trkpt>
      <trkpt lat="45.80817" lon="4.28844">
        <ele>470</ele>
        <time>2017-04-13T14:43:05.1Z</time>
      </trkpt>
      <trkpt lat="45.8082" lon="4.28847">
        <ele>470</ele>
        <time>2017-04-13T14:43:08.1Z</time>
      </trkpt>
      <trkpt lat="45.80822" lon="4.2885">
        <ele>470</ele>
        <time>2017-04-13T14:43:11.1Z</time>
      </trkpt>
      <trkpt lat="45.80823" lon="4.28852">
        <ele>471</ele>
        <time>2017-04-13T14:43:13.1Z</time>
      </trkpt>
      <trkpt lat="45.80826" lon="4.28855">
        <ele>471</ele>
        <time>2017-04-13T14:43:16.1Z</time>
      </trkpt>
      <trkpt lat="45.8083" lon="4.28858">
        <ele>471</ele>
        <time>2017-04-13T14:43:19.1Z</time>
      </trkpt>
      <trkpt lat="45.80834" lon="4.28862">
        <ele>471</ele>
        <time>2017-04-13T14:43:22.1Z</time>
      </trkpt>
      <trkpt lat="45.80837" lon="4.28867">
        <ele>471</ele>
        <time>2017-04-13T14:43:25.1Z</time>
      </trkpt>
      <trkpt lat="45.80839" lon="4.28871">
        <ele>471</ele>
        <time>2017-04-13T14:43:27.1Z</time>
      </trkpt>
      <trkpt lat="45.80841" lon="4.28876">
        <ele>471</ele>
        <time>2017-04-13T14:43:30.1Z</time>
      </trkpt>
      <trkpt lat="45.80844" lon="4.28882">
        <ele>470</ele>
        <time>2017-04-13T14:43:33.1Z</time>
      </trkpt>
      <trkpt lat="45.80846" lon="4.28889">
        <ele>470</ele>
        <time>2017-04-13T14:43:36.1Z</time>
      </trkpt>
      <trkpt lat="45.80848" lon="4.28893">
        <ele>470</ele>
        <time>2017-04-13T14:43:39.1Z</time>
      </trkpt>
      <trkpt lat="45.80851" lon="4.28898">
        <ele>470</ele>
        <time>2017-04-13T14:43:42.1Z</time>
      </trkpt>
      <trkpt lat="45.80854" lon="4.28903">
        <ele>470</ele>
        <time>2017-04-13T14:43:45.1Z</time>
      </trkpt>
      <trkpt lat="45.80856" lon="4.28907">
        <ele>469</ele>
        <time>2017-04-13T14:43:47.1Z</time>
      </trkpt>
      <trkpt lat="45.80859" lon="4.28912">
        <ele>469</ele>
        <time>2017-04-13T14:43:50.1Z</time>
      </trkpt>
      <trkpt lat="45.80861" lon="4.28917">
        <ele>469</ele>
        <time>2017-04-13T14:43:53.1Z</time>
      </trkpt>
      <trkpt lat="45.80863" lon="4.2892">
        <ele>470</ele>
        <time>2017-04-13T14:43:55.1Z</time>
      </trkpt>
      <trkpt lat="45.80865" lon="4.28924">
        <ele>470</ele>
        <time>2017-04-13T14:43:57.1Z</time>
      </trkpt>
      <trkpt lat="45.80866" lon="4.28927">
        <ele>470</ele>
        <time>2017-04-13T14:43:59.1Z</time>
      </trkpt>
      <trkpt lat="45.80868" lon="4.28929">
        <ele>469</ele>
        <time>2017-04-13T14:44:01.1Z</time>
      </trkpt>
      <trkpt lat="45.8087" lon="4.28933">
        <ele>469</ele>
        <time>2017-04-13T14:44:03.1Z</time>
      </trkpt>
      <trkpt lat="45.80872" lon="4.28937">
        <ele>469</ele>
        <time>2017-04-13T14:44:06.1Z</time>
      </trkpt>
      <trkpt lat="45.80874" lon="4.28942">
        <ele>469</ele>
        <time>2017-04-13T14:44:09.1Z</time>
      </trkpt>
      <trkpt lat="45.80876" lon="4.28945">
        <ele>470</ele>
        <time>2017-04-13T14:44:11.1Z</time>
      </trkpt>
      <trkpt lat="45.80878" lon="4.28949">
        <ele>470</ele>
        <time>2017-04-13T14:44:13.1Z</time>
      </trkpt>
      <trkpt lat="45.8088" lon="4.28952">
        <ele>470</ele>
        <time>2017-04-13T14:44:15.1Z</time>
      </trkpt>
      <trkpt lat="45.80882" lon="4.28955">
        <ele>470</ele>
        <time>2017-04-13T14:44:17.1Z</time>
      </trkpt>
      <trkpt lat="45.80885" lon="4.28959">
        <ele>470</ele>
        <time>2017-04-13T14:44:20.1Z</time>
      </trkpt>
      <trkpt lat="45.80887" lon="4.28961">
        <ele>470</ele>
        <time>2017-04-13T14:44:22.1Z</time>
      </trkpt>
      <trkpt lat="45.80891" lon="4.28965">
        <ele>471</ele>
        <time>2017-04-13T14:44:25.1Z</time>
      </trkpt>
      <trkpt lat="45.80893" lon="4.28968">
        <ele>471</ele>
        <time>2017-04-13T14:44:27.1Z</time>
      </trkpt>
      <trkpt lat="45.80895" lon="4.2897">
        <ele>471</ele>
        <time>2017-04-13T14:44:29.1Z</time>
      </trkpt>
      <trkpt lat="45.80898" lon="4.28972">
        <ele>471</ele>
        <time>2017-04-13T14:44:31.1Z</time>
      </trkpt>
      <trkpt lat="45.809" lon="4.28973">
        <ele>471</ele>
        <time>2017-04-13T14:44:33.1Z</time>
      </trkpt>
      <trkpt lat="45.80904" lon="4.28977">
        <ele>472</ele>
        <time>2017-04-13T14:44:36.1Z</time>
      </trkpt>
      <trkpt lat="45.80907" lon="4.28979">
        <ele>472</ele>
        <time>2017-04-13T14:44:38.1Z</time>
      </trkpt>
      <trkpt lat="45.80911" lon="4.28979">
        <ele>472</ele>
        <time>2017-04-13T14:44:41.1Z</time>
      </trkpt>
      <trkpt lat="45.80914" lon="4.2898">
        <ele>472</ele>
        <time>2017-04-13T14:44:43.1Z</time>
      </trkpt>
      <trkpt lat="45.80917" lon="4.28982">
        <ele>472</ele>
        <time>2017-04-13T14:44:45.1Z</time>
      </trkpt>
      <trkpt lat="45.80921" lon="4.28984">
        <ele>471</ele>
        <time>2017-04-13T14:44:48.1Z</time>
      </trkpt>
      <trkpt lat="45.80923" lon="4.28986">
        <ele>471</ele>
        <time>2017-04-13T14:44:50.1Z</time>
      </trkpt>
      <trkpt lat="45.80926" lon="4.28988">
        <ele>471</ele>
        <time>2017-04-13T14:44:52.1Z</time>
      </trkpt>
      <trkpt lat="45.80929" lon="4.2899">
        <ele>471</ele>
        <time>2017-04-13T14:44:55.1Z</time>
      </trkpt>
      <trkpt lat="45.8093" lon="4.28991">
        <ele>471</ele>
        <time>2017-04-13T14:44:57.1Z</time>
      </trkpt>
      <trkpt lat="45.80931" lon="4.28992">
        <ele>471</ele>
        <time>2017-04-13T14:44:59.1Z</time>
      </trkpt>
      <trkpt lat="45.80933" lon="4.28991">
        <ele>470</ele>
        <time>2017-04-13T14:45:01.1Z</time>
      </trkpt>
      <trkpt lat="45.80935" lon="4.28991">
        <ele>470</ele>
        <time>2017-04-13T14:45:04.1Z</time>
      </trkpt>
      <trkpt lat="45.80936" lon="4.28992">
        <ele>469</ele>
        <time>2017-04-13T14:45:06.1Z</time>
      </trkpt>
      <trkpt lat="45.80938" lon="4.28994">
        <ele>469</ele>
        <time>2017-04-13T14:45:09.1Z</time>
      </trkpt>
      <trkpt lat="45.80941" lon="4.28996">
        <ele>468</ele>
        <time>2017-04-13T14:45:12.1Z</time>
      </trkpt>
      <trkpt lat="45.80943" lon="4.28997">
        <ele>468</ele>
        <time>2017-04-13T14:45:14.1Z</time>
      </trkpt>
      <trkpt lat="45.80944" lon="4.28998">
        <ele>467</ele>
        <time>2017-04-13T14:45:16.1Z</time>
      </trkpt>
      <trkpt lat="45.80946" lon="4.28999">
        <ele>467</ele>
        <time>2017-04-13T14:45:18.1Z</time>
      </trkpt>
      <trkpt lat="45.80949" lon="4.29002">
        <ele>466</ele>
        <time>2017-04-13T14:45:21.1Z</time>
      </trkpt>
      <trkpt lat="45.80951" lon="4.29004">
        <ele>466</ele>
        <time>2017-04-13T14:45:23.1Z</time>
      </trkpt>
      <trkpt lat="45.80953" lon="4.29005">
        <ele>466</ele>
        <time>2017-04-13T14:45:26.1Z</time>
      </trkpt>
      <trkpt lat="45.80956" lon="4.29006">
        <ele>465</ele>
        <time>2017-04-13T14:45:29.1Z</time>
      </trkpt>
      <trkpt lat="45.80959" lon="4.29008">
        <ele>465</ele>
        <time>2017-04-13T14:45:32.1Z</time>
      </trkpt>
      <trkpt lat="45.80962" lon="4.29009">
        <ele>465</ele>
        <time>2017-04-13T14:45:35.1Z</time>
      </trkpt>
      <trkpt lat="45.80965" lon="4.2901">
        <ele>465</ele>
        <time>2017-04-13T14:45:37.1Z</time>
      </trkpt>
      <trkpt lat="45.80968" lon="4.29011">
        <ele>464</ele>
        <time>2017-04-13T14:45:40.1Z</time>
      </trkpt>
      <trkpt lat="45.80972" lon="4.29012">
        <ele>464</ele>
        <time>2017-04-13T14:45:43.1Z</time>
      </trkpt>
      <trkpt lat="45.80976" lon="4.29012">
        <ele>464</ele>
        <time>2017-04-13T14:45:45.1Z</time>
      </trkpt>
      <trkpt lat="45.80981" lon="4.29013">
        <ele>464</ele>
        <time>2017-04-13T14:45:48.1Z</time>
      </trkpt>
      <trkpt lat="45.80984" lon="4.29015">
        <ele>463</ele>
        <time>2017-04-13T14:45:50.1Z</time>
      </trkpt>
      <trkpt lat="45.80987" lon="4.29017">
        <ele>463</ele>
        <time>2017-04-13T14:45:52.1Z</time>
      </trkpt>
      <trkpt lat="45.8099" lon="4.29017">
        <ele>463</ele>
        <time>2017-04-13T14:45:54.1Z</time>
      </trkpt>
      <trkpt lat="45.80993" lon="4.29022">
        <ele>463</ele>
        <time>2017-04-13T14:45:57.1Z</time>
      </trkpt>
      <trkpt lat="45.80995" lon="4.29024">
        <ele>463</ele>
        <time>2017-04-13T14:45:59.1Z</time>
      </trkpt>
      <trkpt lat="45.80997" lon="4.29026">
        <ele>463</ele>
        <time>2017-04-13T14:46:01.1Z</time>
      </trkpt>
      <trkpt lat="45.81001" lon="4.29028">
        <ele>463</ele>
        <time>2017-04-13T14:46:04.1Z</time>
      </trkpt>
      <trkpt lat="45.81004" lon="4.2903">
        <ele>463</ele>
        <time>2017-04-13T14:46:06.1Z</time>
      </trkpt>
      <trkpt lat="45.81007" lon="4.29031">
        <ele>463</ele>
        <time>2017-04-13T14:46:08.1Z</time>
      </trkpt>
      <trkpt lat="45.8101" lon="4.29032">
        <ele>463</ele>
        <time>2017-04-13T14:46:10.1Z</time>
      </trkpt>
      <trkpt lat="45.81014" lon="4.29032">
        <ele>463</ele>
        <time>2017-04-13T14:46:13.1Z</time>
      </trkpt>
      <trkpt lat="45.81017" lon="4.29033">
        <ele>463</ele>
        <time>2017-04-13T14:46:15.1Z</time>
      </trkpt>
      <trkpt lat="45.8102" lon="4.29034">
        <ele>463</ele>
        <time>2017-04-13T14:46:17.1Z</time>
      </trkpt>
      <trkpt lat="45.81023" lon="4.29037">
        <ele>463</ele>
        <time>2017-04-13T14:46:20.1Z</time>
      </trkpt>
      <trkpt lat="45.81026" lon="4.29038">
        <ele>463</ele>
        <time>2017-04-13T14:46:22.1Z</time>
      </trkpt>
      <trkpt lat="45.81029" lon="4.29038">
        <ele>463</ele>
        <time>2017-04-13T14:46:24.1Z</time>
      </trkpt>
      <trkpt lat="45.81033" lon="4.29039">
        <ele>463</ele>
        <time>2017-04-13T14:46:27.1Z</time>
      </trkpt>
      <trkpt lat="45.81036" lon="4.29041">
        <ele>463</ele>
        <time>2017-04-13T14:46:29.1Z</time>
      </trkpt>
      <trkpt lat="45.81039" lon="4.29042">
        <ele>463</ele>
        <time>2017-04-13T14:46:31.1Z</time>
      </trkpt>
      <trkpt lat="45.81041" lon="4.29042">
        <ele>463</ele>
        <time>2017-04-13T14:46:33.1Z</time>
      </trkpt>
      <trkpt lat="45.81045" lon="4.29042">
        <ele>463</ele>
        <time>2017-04-13T14:46:36.1Z</time>
      </trkpt>
      <trkpt lat="45.81049" lon="4.29042">
        <ele>463</ele>
        <time>2017-04-13T14:46:39.1Z</time>
      </trkpt>
      <trkpt lat="45.81052" lon="4.29043">
        <ele>463</ele>
        <time>2017-04-13T14:46:41.1Z</time>
      </trkpt>
      <trkpt lat="45.81057" lon="4.29042">
        <ele>463</ele>
        <time>2017-04-13T14:46:44.1Z</time>
      </trkpt>
      <trkpt lat="45.8106" lon="4.29042">
        <ele>463</ele>
        <time>2017-04-13T14:46:46.1Z</time>
      </trkpt>
      <trkpt lat="45.81064" lon="4.29043">
        <ele>463</ele>
        <time>2017-04-13T14:46:49.1Z</time>
      </trkpt>
      <trkpt lat="45.81069" lon="4.29044">
        <ele>464</ele>
        <time>2017-04-13T14:46:52.1Z</time>
      </trkpt>
      <trkpt lat="45.81071" lon="4.29045">
        <ele>464</ele>
        <time>2017-04-13T14:46:54.1Z</time>
      </trkpt>
      <trkpt lat="45.81073" lon="4.29047">
        <ele>464</ele>
        <time>2017-04-13T14:46:56.1Z</time>
      </trkpt>
      <trkpt lat="45.81077" lon="4.29049">
        <ele>464</ele>
        <time>2017-04-13T14:46:59.1Z</time>
      </trkpt>
      <trkpt lat="45.81081" lon="4.29051">
        <ele>464</ele>
        <time>2017-04-13T14:47:02.1Z</time>
      </trkpt>
      <trkpt lat="45.81084" lon="4.29052">
        <ele>464</ele>
        <time>2017-04-13T14:47:04.1Z</time>
      </trkpt>
      <trkpt lat="45.81087" lon="4.29053">
        <ele>465</ele>
        <time>2017-04-13T14:47:06.1Z</time>
      </trkpt>
      <trkpt lat="45.8109" lon="4.29055">
        <ele>465</ele>
        <time>2017-04-13T14:47:08.1Z</time>
      </trkpt>
      <trkpt lat="45.81093" lon="4.29057">
        <ele>465</ele>
        <time>2017-04-13T14:47:10.1Z</time>
      </trkpt>
      <trkpt lat="45.81097" lon="4.2906">
        <ele>465</ele>
        <time>2017-04-13T14:47:13.1Z</time>
      </trkpt>
      <trkpt lat="45.811" lon="4.29064">
        <ele>465</ele>
        <time>2017-04-13T14:47:16.1Z</time>
      </trkpt>
      <trkpt lat="45.81104" lon="4.29067">
        <ele>465</ele>
        <time>2017-04-13T14:47:19.1Z</time>
      </trkpt>
      <trkpt lat="45.81107" lon="4.29069">
        <ele>465</ele>
        <time>2017-04-13T14:47:21.1Z</time>
      </trkpt>
      <trkpt lat="45.8111" lon="4.2907">
        <ele>465</ele>
        <time>2017-04-13T14:47:23.1Z</time>
      </trkpt>
      <trkpt lat="45.81113" lon="4.29073">
        <ele>465</ele>
        <time>2017-04-13T14:47:26.1Z</time>
      </trkpt>
      <trkpt lat="45.81117" lon="4.29077">
        <ele>465</ele>
        <time>2017-04-13T14:47:29.1Z</time>
      </trkpt>
      <trkpt lat="45.8112" lon="4.29078">
        <ele>464</ele>
        <time>2017-04-13T14:47:31.1Z</time>
      </trkpt>
      <trkpt lat="45.81122" lon="4.2908">
        <ele>464</ele>
        <time>2017-04-13T14:47:33.1Z</time>
      </trkpt>
      <trkpt lat="45.81124" lon="4.29081">
        <ele>464</ele>
        <time>2017-04-13T14:47:35.1Z</time>
      </trkpt>
      <trkpt lat="45.81126" lon="4.29082">
        <ele>464</ele>
        <time>2017-04-13T14:47:37.1Z</time>
      </trkpt>
      <trkpt lat="45.81131" lon="4.29083">
        <ele>464</ele>
        <time>2017-04-13T14:47:40.1Z</time>
      </trkpt>
      <trkpt lat="45.81135" lon="4.29086">
        <ele>464</ele>
        <time>2017-04-13T14:47:43.1Z</time>
      </trkpt>
      <trkpt lat="45.81139" lon="4.29089">
        <ele>464</ele>
        <time>2017-04-13T14:47:46.1Z</time>
      </trkpt>
      <trkpt lat="45.81142" lon="4.2909">
        <ele>464</ele>
        <time>2017-04-13T14:47:48.1Z</time>
      </trkpt>
      <trkpt lat="45.81145" lon="4.29093">
        <ele>463</ele>
        <time>2017-04-13T14:47:50.1Z</time>
      </trkpt>
      <trkpt lat="45.81148" lon="4.29095">
        <ele>463</ele>
        <time>2017-04-13T14:47:52.1Z</time>
      </trkpt>
      <trkpt lat="45.81152" lon="4.29097">
        <ele>463</ele>
        <time>2017-04-13T14:47:55.1Z</time>
      </trkpt>
      <trkpt lat="45.81156" lon="4.29099">
        <ele>463</ele>
        <time>2017-04-13T14:47:58.1Z</time>
      </trkpt>
      <trkpt lat="45.81158" lon="4.29101">
        <ele>462</ele>
        <time>2017-04-13T14:48:00.1Z</time>
      </trkpt>
      <trkpt lat="45.8116" lon="4.29103">
        <ele>463</ele>
        <time>2017-04-13T14:48:03.1Z</time>
      </trkpt>
      <trkpt lat="45.81162" lon="4.29106">
        <ele>462</ele>
        <time>2017-04-13T14:48:06.1Z</time>
      </trkpt>
      <trkpt lat="45.81162" lon="4.29108">
        <ele>463</ele>
        <time>2017-04-13T14:48:08.1Z</time>
      </trkpt>
      <trkpt lat="45.81163" lon="4.2911">
        <ele>462</ele>
        <time>2017-04-13T14:48:11.1Z</time>
      </trkpt>
      <trkpt lat="45.81164" lon="4.29112">
        <ele>463</ele>
        <time>2017-04-13T14:48:13.1Z</time>
      </trkpt>
      <trkpt lat="45.81165" lon="4.29113">
        <ele>462</ele>
        <time>2017-04-13T14:48:16.1Z</time>
      </trkpt>
      <trkpt lat="45.81166" lon="4.29114">
        <ele>463</ele>
        <time>2017-04-13T14:48:18.1Z</time>
      </trkpt>
      <trkpt lat="45.81167" lon="4.29114">
        <ele>463</ele>
        <time>2017-04-13T14:48:21.1Z</time>
      </trkpt>
      <trkpt lat="45.81168" lon="4.29115">
        <ele>462</ele>
        <time>2017-04-13T14:48:23.1Z</time>
      </trkpt>
      <trkpt lat="45.8117" lon="4.29115">
        <ele>462</ele>
        <time>2017-04-13T14:48:26.1Z</time>
      </trkpt>
      <trkpt lat="45.81171" lon="4.29115">
        <ele>462</ele>
        <time>2017-04-13T14:48:28.1Z</time>
      </trkpt>
      <trkpt lat="45.81171" lon="4.29118">
        <ele>462</ele>
        <time>2017-04-13T14:48:31.1Z</time>
      </trkpt>
      <trkpt lat="45.81172" lon="4.29118">
        <ele>462</ele>
        <time>2017-04-13T14:48:33.1Z</time>
      </trkpt>
      <trkpt lat="45.81172" lon="4.29119">
        <ele>462</ele>
        <time>2017-04-13T14:48:36.1Z</time>
      </trkpt>
      <trkpt lat="45.81174" lon="4.2912">
        <ele>463</ele>
        <time>2017-04-13T14:48:39.1Z</time>
      </trkpt>
      <trkpt lat="45.81175" lon="4.29121">
        <ele>463</ele>
        <time>2017-04-13T14:48:41.1Z</time>
      </trkpt>
      <trkpt lat="45.81177" lon="4.29121">
        <ele>463</ele>
        <time>2017-04-13T14:48:43.1Z</time>
      </trkpt>
      <trkpt lat="45.81179" lon="4.29122">
        <ele>463</ele>
        <time>2017-04-13T14:48:45.1Z</time>
      </trkpt>
      <trkpt lat="45.81181" lon="4.29123">
        <ele>463</ele>
        <time>2017-04-13T14:48:47.1Z</time>
      </trkpt>
      <trkpt lat="45.81184" lon="4.29124">
        <ele>463</ele>
        <time>2017-04-13T14:48:50.1Z</time>
      </trkpt>
      <trkpt lat="45.81186" lon="4.29125">
        <ele>463</ele>
        <time>2017-04-13T14:48:52.1Z</time>
      </trkpt>
      <trkpt lat="45.8119" lon="4.29126">
        <ele>464</ele>
        <time>2017-04-13T14:48:55.1Z</time>
      </trkpt>
      <trkpt lat="45.81192" lon="4.29128">
        <ele>464</ele>
        <time>2017-04-13T14:48:58.1Z</time>
      </trkpt>
      <trkpt lat="45.81194" lon="4.2913">
        <ele>464</ele>
        <time>2017-04-13T14:49:00.1Z</time>
      </trkpt>
      <trkpt lat="45.81198" lon="4.29132">
        <ele>464</ele>
        <time>2017-04-13T14:49:03.1Z</time>
      </trkpt>
      <trkpt lat="45.81201" lon="4.29133">
        <ele>464</ele>
        <time>2017-04-13T14:49:05.1Z</time>
      </trkpt>
      <trkpt lat="45.81203" lon="4.29134">
        <ele>464</ele>
        <time>2017-04-13T14:49:07.1Z</time>
      </trkpt>
      <trkpt lat="45.81206" lon="4.29135">
        <ele>464</ele>
        <time>2017-04-13T14:49:09.1Z</time>
      </trkpt>
      <trkpt lat="45.81208" lon="4.29138">
        <ele>464</ele>
        <time>2017-04-13T14:49:12.1Z</time>
      </trkpt>
      <trkpt lat="45.8121" lon="4.2914">
        <ele>464</ele>
        <time>2017-04-13T14:49:14.1Z</time>
      </trkpt>
      <trkpt lat="45.81212" lon="4.29142">
        <ele>464</ele>
        <time>2017-04-13T14:49:16.1Z</time>
      </trkpt>
      <trkpt lat="45.81216" lon="4.29144">
        <ele>465</ele>
        <time>2017-04-13T14:49:19.1Z</time>
      </trkpt>
      <trkpt lat="45.81219" lon="4.29147">
        <ele>464</ele>
        <time>2017-04-13T14:49:22.1Z</time>
      </trkpt>
      <trkpt lat="45.81221" lon="4.29151">
        <ele>465</ele>
        <time>2017-04-13T14:49:24.1Z</time>
      </trkpt>
      <trkpt lat="45.81223" lon="4.29152">
        <ele>465</ele>
        <time>2017-04-13T14:49:26.1Z</time>
      </trkpt>
      <trkpt lat="45.81225" lon="4.29157">
        <ele>465</ele>
        <time>2017-04-13T14:49:29.1Z</time>
      </trkpt>
      <trkpt lat="45.81228" lon="4.2916">
        <ele>466</ele>
        <time>2017-04-13T14:49:32.1Z</time>
      </trkpt>
      <trkpt lat="45.81231" lon="4.29162">
        <ele>466</ele>
        <time>2017-04-13T14:49:35.1Z</time>
      </trkpt>
      <trkpt lat="45.81233" lon="4.29166">
        <ele>466</ele>
        <time>2017-04-13T14:49:38.1Z</time>
      </trkpt>
      <trkpt lat="45.81234" lon="4.29169">
        <ele>467</ele>
        <time>2017-04-13T14:49:40.1Z</time>
      </trkpt>
      <trkpt lat="45.81237" lon="4.29171">
        <ele>467</ele>
        <time>2017-04-13T14:49:42.1Z</time>
      </trkpt>
      <trkpt lat="45.81239" lon="4.29172">
        <ele>467</ele>
        <time>2017-04-13T14:49:44.1Z</time>
      </trkpt>
      <trkpt lat="45.81241" lon="4.29175">
        <ele>468</ele>
        <time>2017-04-13T14:49:46.1Z</time>
      </trkpt>
      <trkpt lat="45.81243" lon="4.29178">
        <ele>468</ele>
        <time>2017-04-13T14:49:49.1Z</time>
      </trkpt>
      <trkpt lat="45.81245" lon="4.2918">
        <ele>469</ele>
        <time>2017-04-13T14:49:51.1Z</time>
      </trkpt>
      <trkpt lat="45.81247" lon="4.29185">
        <ele>469</ele>
        <time>2017-04-13T14:49:54.1Z</time>
      </trkpt>
      <trkpt lat="45.81248" lon="4.29187">
        <ele>469</ele>
        <time>2017-04-13T14:49:56.1Z</time>
      </trkpt>
      <trkpt lat="45.8125" lon="4.2919">
        <ele>469</ele>
        <time>2017-04-13T14:49:58.1Z</time>
      </trkpt>
      <trkpt lat="45.81251" lon="4.29193">
        <ele>469</ele>
        <time>2017-04-13T14:50:00.1Z</time>
      </trkpt>
      <trkpt lat="45.81254" lon="4.29198">
        <ele>470</ele>
        <time>2017-04-13T14:50:03.1Z</time>
      </trkpt>
      <trkpt lat="45.81258" lon="4.29201">
        <ele>470</ele>
        <time>2017-04-13T14:50:06.1Z</time>
      </trkpt>
      <trkpt lat="45.8126" lon="4.29204">
        <ele>470</ele>
        <time>2017-04-13T14:50:08.1Z</time>
      </trkpt>
      <trkpt lat="45.81263" lon="4.29209">
        <ele>470</ele>
        <time>2017-04-13T14:50:11.1Z</time>
      </trkpt>
      <trkpt lat="45.81264" lon="4.29212">
        <ele>470</ele>
        <time>2017-04-13T14:50:13.1Z</time>
      </trkpt>
      <trkpt lat="45.81266" lon="4.29214">
        <ele>470</ele>
        <time>2017-04-13T14:50:15.1Z</time>
      </trkpt>
      <trkpt lat="45.81268" lon="4.29218">
        <ele>470</ele>
        <time>2017-04-13T14:50:17.1Z</time>
      </trkpt>
      <trkpt lat="45.81272" lon="4.29222">
        <ele>470</ele>
        <time>2017-04-13T14:50:20.1Z</time>
      </trkpt>
      <trkpt lat="45.81274" lon="4.29225">
        <ele>470</ele>
        <time>2017-04-13T14:50:22.1Z</time>
      </trkpt>
      <trkpt lat="45.81276" lon="4.29227">
        <ele>470</ele>
        <time>2017-04-13T14:50:24.1Z</time>
      </trkpt>
      <trkpt lat="45.8128" lon="4.2923">
        <ele>470</ele>
        <time>2017-04-13T14:50:27.1Z</time>
      </trkpt>
      <trkpt lat="45.81283" lon="4.29233">
        <ele>471</ele>
        <time>2017-04-13T14:50:29.1Z</time>
      </trkpt>
      <trkpt lat="45.81287" lon="4.29236">
        <ele>470</ele>
        <time>2017-04-13T14:50:32.1Z</time>
      </trkpt>
      <trkpt lat="45.81289" lon="4.29238">
        <ele>470</ele>
        <time>2017-04-13T14:50:34.1Z</time>
      </trkpt>
      <trkpt lat="45.81292" lon="4.2924">
        <ele>471</ele>
        <time>2017-04-13T14:50:36.1Z</time>
      </trkpt>
      <trkpt lat="45.81294" lon="4.29245">
        <ele>471</ele>
        <time>2017-04-13T14:50:39.1Z</time>
      </trkpt>
      <trkpt lat="45.81295" lon="4.29247">
        <ele>471</ele>
        <time>2017-04-13T14:50:41.1Z</time>
      </trkpt>
      <trkpt lat="45.81299" lon="4.2925">
        <ele>471</ele>
        <time>2017-04-13T14:50:44.1Z</time>
      </trkpt>
      <trkpt lat="45.81301" lon="4.29253">
        <ele>471</ele>
        <time>2017-04-13T14:50:46.1Z</time>
      </trkpt>
      <trkpt lat="45.81304" lon="4.29256">
        <ele>471</ele>
        <time>2017-04-13T14:50:49.1Z</time>
      </trkpt>
      <trkpt lat="45.81307" lon="4.29258">
        <ele>471</ele>
        <time>2017-04-13T14:50:51.1Z</time>
      </trkpt>
      <trkpt lat="45.8131" lon="4.2926">
        <ele>471</ele>
        <time>2017-04-13T14:50:53.1Z</time>
      </trkpt>
      <trkpt lat="45.81312" lon="4.29262">
        <ele>471</ele>
        <time>2017-04-13T14:50:55.1Z</time>
      </trkpt>
      <trkpt lat="45.81316" lon="4.29265">
        <ele>471</ele>
        <time>2017-04-13T14:50:58.1Z</time>
      </trkpt>
      <trkpt lat="45.81318" lon="4.29267">
        <ele>471</ele>
        <time>2017-04-13T14:51:00.1Z</time>
      </trkpt>
      <trkpt lat="45.8132" lon="4.29271">
        <ele>471</ele>
        <time>2017-04-13T14:51:03.1Z</time>
      </trkpt>
      <trkpt lat="45.81322" lon="4.29274">
        <ele>472</ele>
        <time>2017-04-13T14:51:05.1Z</time>
      </trkpt>
      <trkpt lat="45.81324" lon="4.29278">
        <ele>472</ele>
        <time>2017-04-13T14:51:08.1Z</time>
      </trkpt>
      <trkpt lat="45.81326" lon="4.2928">
        <ele>473</ele>
        <time>2017-04-13T14:51:10.1Z</time>
      </trkpt>
      <trkpt lat="45.81329" lon="4.29284">
        <ele>474</ele>
        <time>2017-04-13T14:51:13.1Z</time>
      </trkpt>
      <trkpt lat="45.81331" lon="4.29287">
        <ele>474</ele>
        <time>2017-04-13T14:51:15.1Z</time>
      </trkpt>
      <trkpt lat="45.81334" lon="4.29291">
        <ele>474</ele>
        <time>2017-04-13T14:51:18.1Z</time>
      </trkpt>
      <trkpt lat="45.81336" lon="4.29294">
        <ele>474</ele>
        <time>2017-04-13T14:51:20.1Z</time>
      </trkpt>
      <trkpt lat="45.81337" lon="4.29299">
        <ele>475</ele>
        <time>2017-04-13T14:51:23.1Z</time>
      </trkpt>
      <trkpt lat="45.81339" lon="4.29305">
        <ele>475</ele>
        <time>2017-04-13T14:51:26.1Z</time>
      </trkpt>
      <trkpt lat="45.8134" lon="4.29312">
        <ele>475</ele>
        <time>2017-04-13T14:51:29.1Z</time>
      </trkpt>
      <trkpt lat="45.81341" lon="4.29317">
        <ele>476</ele>
        <time>2017-04-13T14:51:32.1Z</time>
      </trkpt>
      <trkpt lat="45.81342" lon="4.29323">
        <ele>476</ele>
        <time>2017-04-13T14:51:35.1Z</time>
      </trkpt>
      <trkpt lat="45.81343" lon="4.29327">
        <ele>477</ele>
        <time>2017-04-13T14:51:38.1Z</time>
      </trkpt>
      <trkpt lat="45.81345" lon="4.29328">
        <ele>477</ele>
        <time>2017-04-13T14:51:40.1Z</time>
      </trkpt>
      <trkpt lat="45.81346" lon="4.29331">
        <ele>477</ele>
        <time>2017-04-13T14:51:43.1Z</time>
      </trkpt>
      <trkpt lat="45.81348" lon="4.29335">
        <ele>477</ele>
        <time>2017-04-13T14:51:46.1Z</time>
      </trkpt>
      <trkpt lat="45.81349" lon="4.29338">
        <ele>477</ele>
        <time>2017-04-13T14:51:48.1Z</time>
      </trkpt>
      <trkpt lat="45.81351" lon="4.29342">
        <ele>478</ele>
        <time>2017-04-13T14:51:51.1Z</time>
      </trkpt>
      <trkpt lat="45.81353" lon="4.29345">
        <ele>479</ele>
        <time>2017-04-13T14:51:53.1Z</time>
      </trkpt>
      <trkpt lat="45.81354" lon="4.29347">
        <ele>479</ele>
        <time>2017-04-13T14:51:55.1Z</time>
      </trkpt>
      <trkpt lat="45.81357" lon="4.29352">
        <ele>480</ele>
        <time>2017-04-13T14:51:58.1Z</time>
      </trkpt>
      <trkpt lat="45.81359" lon="4.29354">
        <ele>480</ele>
        <time>2017-04-13T14:52:00.1Z</time>
      </trkpt>
      <trkpt lat="45.81362" lon="4.29357">
        <ele>480</ele>
        <time>2017-04-13T14:52:03.1Z</time>
      </trkpt>
      <trkpt lat="45.81366" lon="4.29361">
        <ele>481</ele>
        <time>2017-04-13T14:52:06.1Z</time>
      </trkpt>
      <trkpt lat="45.81367" lon="4.29364">
        <ele>481</ele>
        <time>2017-04-13T14:52:08.1Z</time>
      </trkpt>
      <trkpt lat="45.8137" lon="4.29367">
        <ele>482</ele>
        <time>2017-04-13T14:52:11.1Z</time>
      </trkpt>
      <trkpt lat="45.81374" lon="4.29371">
        <ele>483</ele>
        <time>2017-04-13T14:52:14.1Z</time>
      </trkpt>
      <trkpt lat="45.81375" lon="4.29374">
        <ele>483</ele>
        <time>2017-04-13T14:52:16.1Z</time>
      </trkpt>
      <trkpt lat="45.81377" lon="4.29377">
        <ele>484</ele>
        <time>2017-04-13T14:52:18.1Z</time>
      </trkpt>
      <trkpt lat="45.8138" lon="4.2938">
        <ele>485</ele>
        <time>2017-04-13T14:52:20.1Z</time>
      </trkpt>
      <trkpt lat="45.81382" lon="4.29381">
        <ele>485</ele>
        <time>2017-04-13T14:52:22.1Z</time>
      </trkpt>
      <trkpt lat="45.81386" lon="4.29386">
        <ele>486</ele>
        <time>2017-04-13T14:52:25.1Z</time>
      </trkpt>
      <trkpt lat="45.81389" lon="4.29387">
        <ele>487</ele>
        <time>2017-04-13T14:52:27.1Z</time>
      </trkpt>
      <trkpt lat="45.81391" lon="4.29388">
        <ele>487</ele>
        <time>2017-04-13T14:52:29.1Z</time>
      </trkpt>
      <trkpt lat="45.81393" lon="4.2939">
        <ele>487</ele>
        <time>2017-04-13T14:52:31.1Z</time>
      </trkpt>
      <trkpt lat="45.81396" lon="4.29393">
        <ele>488</ele>
        <time>2017-04-13T14:52:34.1Z</time>
      </trkpt>
      <trkpt lat="45.81398" lon="4.29394">
        <ele>488</ele>
        <time>2017-04-13T14:52:36.1Z</time>
      </trkpt>
      <trkpt lat="45.81402" lon="4.29398">
        <ele>488</ele>
        <time>2017-04-13T14:52:39.1Z</time>
      </trkpt>
      <trkpt lat="45.81405" lon="4.29402">
        <ele>489</ele>
        <time>2017-04-13T14:52:42.1Z</time>
      </trkpt>
      <trkpt lat="45.81408" lon="4.29406">
        <ele>489</ele>
        <time>2017-04-13T14:52:45.1Z</time>
      </trkpt>
      <trkpt lat="45.8141" lon="4.2941">
        <ele>490</ele>
        <time>2017-04-13T14:52:47.1Z</time>
      </trkpt>
      <trkpt lat="45.81412" lon="4.29412">
        <ele>490</ele>
        <time>2017-04-13T14:52:49.1Z</time>
      </trkpt>
      <trkpt lat="45.81415" lon="4.29414">
        <ele>491</ele>
        <time>2017-04-13T14:52:51.1Z</time>
      </trkpt>
      <trkpt lat="45.81419" lon="4.29417">
        <ele>491</ele>
        <time>2017-04-13T14:52:54.1Z</time>
      </trkpt>
      <trkpt lat="45.81422" lon="4.2942">
        <ele>491</ele>
        <time>2017-04-13T14:52:57.1Z</time>
      </trkpt>
      <trkpt lat="45.81426" lon="4.29422">
        <ele>492</ele>
        <time>2017-04-13T14:53:00.1Z</time>
      </trkpt>
      <trkpt lat="45.81429" lon="4.29425">
        <ele>492</ele>
        <time>2017-04-13T14:53:03.1Z</time>
      </trkpt>
      <trkpt lat="45.8143" lon="4.29427">
        <ele>493</ele>
        <time>2017-04-13T14:53:05.1Z</time>
      </trkpt>
      <trkpt lat="45.81433" lon="4.2943">
        <ele>493</ele>
        <time>2017-04-13T14:53:08.1Z</time>
      </trkpt>
      <trkpt lat="45.81436" lon="4.29434">
        <ele>494</ele>
        <time>2017-04-13T14:53:11.1Z</time>
      </trkpt>
      <trkpt lat="45.81438" lon="4.29436">
        <ele>494</ele>
        <time>2017-04-13T14:53:13.1Z</time>
      </trkpt>
      <trkpt lat="45.8144" lon="4.2944">
        <ele>494</ele>
        <time>2017-04-13T14:53:16.1Z</time>
      </trkpt>
      <trkpt lat="45.81442" lon="4.29444">
        <ele>494</ele>
        <time>2017-04-13T14:53:18.1Z</time>
      </trkpt>
      <trkpt lat="45.81443" lon="4.29448">
        <ele>494</ele>
        <time>2017-04-13T14:53:20.1Z</time>
      </trkpt>
      <trkpt lat="45.81443" lon="4.2945">
        <ele>494</ele>
        <time>2017-04-13T14:53:22.1Z</time>
      </trkpt>
      <trkpt lat="45.81444" lon="4.29452">
        <ele>494</ele>
        <time>2017-04-13T14:53:24.1Z</time>
      </trkpt>
      <trkpt lat="45.81445" lon="4.29453">
        <ele>494</ele>
        <time>2017-04-13T14:53:27.1Z</time>
      </trkpt>
      <trkpt lat="45.81445" lon="4.29454">
        <ele>494</ele>
        <time>2017-04-13T14:53:30.1Z</time>
      </trkpt>
      <trkpt lat="45.81446" lon="4.29454">
        <ele>494</ele>
        <time>2017-04-13T14:53:32.1Z</time>
      </trkpt>
      <trkpt lat="45.81446" lon="4.29456">
        <ele>494</ele>
        <time>2017-04-13T14:53:35.1Z</time>
      </trkpt>
      <trkpt lat="45.81445" lon="4.29457">
        <ele>494</ele>
        <time>2017-04-13T14:53:38.1Z</time>
      </trkpt>
      <trkpt lat="45.81445" lon="4.29458">
        <ele>494</ele>
        <time>2017-04-13T14:53:40.1Z</time>
      </trkpt>
      <trkpt lat="45.81445" lon="4.29459">
        <ele>494</ele>
        <time>2017-04-13T14:53:43.1Z</time>
      </trkpt>
      <trkpt lat="45.81445" lon="4.29461">
        <ele>494</ele>
        <time>2017-04-13T14:53:46.1Z</time>
      </trkpt>
      <trkpt lat="45.81444" lon="4.29461">
        <ele>494</ele>
        <time>2017-04-13T14:53:48.1Z</time>
      </trkpt>
      <trkpt lat="45.81443" lon="4.29459">
        <ele>493</ele>
        <time>2017-04-13T14:53:51.1Z</time>
      </trkpt>
      <trkpt lat="45.81442" lon="4.29457">
        <ele>494</ele>
        <time>2017-04-13T14:53:54.1Z</time>
      </trkpt>
      <trkpt lat="45.81441" lon="4.29454">
        <ele>493</ele>
        <time>2017-04-13T14:53:57.1Z</time>
      </trkpt>
      <trkpt lat="45.8144" lon="4.29452">
        <ele>493</ele>
        <time>2017-04-13T14:53:59.1Z</time>
      </trkpt>
      <trkpt lat="45.81439" lon="4.29448">
        <ele>493</ele>
        <time>2017-04-13T14:54:02.1Z</time>
      </trkpt>
      <trkpt lat="45.81439" lon="4.29445">
        <ele>493</ele>
        <time>2017-04-13T14:54:04.1Z</time>
      </trkpt>
      <trkpt lat="45.81437" lon="4.29443">
        <ele>493</ele>
        <time>2017-04-13T14:54:07.1Z</time>
      </trkpt>
      <trkpt lat="45.81436" lon="4.2944">
        <ele>493</ele>
        <time>2017-04-13T14:54:09.1Z</time>
      </trkpt>
      <trkpt lat="45.81435" lon="4.29437">
        <ele>492</ele>
        <time>2017-04-13T14:54:11.1Z</time>
      </trkpt>
      <trkpt lat="45.81434" lon="4.29434">
        <ele>492</ele>
        <time>2017-04-13T14:54:14.1Z</time>
      </trkpt>
      <trkpt lat="45.81434" lon="4.29432">
        <ele>492</ele>
        <time>2017-04-13T14:54:16.1Z</time>
      </trkpt>
      <trkpt lat="45.81433" lon="4.2943">
        <ele>491</ele>
        <time>2017-04-13T14:54:18.1Z</time>
      </trkpt>
      <trkpt lat="45.81432" lon="4.29428">
        <ele>491</ele>
        <time>2017-04-13T14:54:20.1Z</time>
      </trkpt>
      <trkpt lat="45.81431" lon="4.29426">
        <ele>491</ele>
        <time>2017-04-13T14:54:22.1Z</time>
      </trkpt>
      <trkpt lat="45.81429" lon="4.29423">
        <ele>490</ele>
        <time>2017-04-13T14:54:24.1Z</time>
      </trkpt>
      <trkpt lat="45.81427" lon="4.29421">
        <ele>490</ele>
        <time>2017-04-13T14:54:26.1Z</time>
      </trkpt>
      <trkpt lat="45.81423" lon="4.29416">
        <ele>489</ele>
        <time>2017-04-13T14:54:29.1Z</time>
      </trkpt>
      <trkpt lat="45.8142" lon="4.29413">
        <ele>489</ele>
        <time>2017-04-13T14:54:32.1Z</time>
      </trkpt>
      <trkpt lat="45.81416" lon="4.29409">
        <ele>489</ele>
        <time>2017-04-13T14:54:35.1Z</time>
      </trkpt>
      <trkpt lat="45.81414" lon="4.29407">
        <ele>488</ele>
        <time>2017-04-13T14:54:37.1Z</time>
      </trkpt>
      <trkpt lat="45.8141" lon="4.29405">
        <ele>488</ele>
        <time>2017-04-13T14:54:40.1Z</time>
      </trkpt>
      <trkpt lat="45.81406" lon="4.29402">
        <ele>487</ele>
        <time>2017-04-13T14:54:43.1Z</time>
      </trkpt>
      <trkpt lat="45.81405" lon="4.294">
        <ele>487</ele>
        <time>2017-04-13T14:54:45.1Z</time>
      </trkpt>
      <trkpt lat="45.81403" lon="4.29398">
        <ele>487</ele>
        <time>2017-04-13T14:54:47.1Z</time>
      </trkpt>
      <trkpt lat="45.81401" lon="4.29396">
        <ele>486</ele>
        <time>2017-04-13T14:54:49.1Z</time>
      </trkpt>
      <trkpt lat="45.814" lon="4.29393">
        <ele>486</ele>
        <time>2017-04-13T14:54:52.1Z</time>
      </trkpt>
      <trkpt lat="45.81397" lon="4.2939">
        <ele>485</ele>
        <time>2017-04-13T14:54:55.1Z</time>
      </trkpt>
      <trkpt lat="45.81394" lon="4.29386">
        <ele>484</ele>
        <time>2017-04-13T14:54:58.1Z</time>
      </trkpt>
      <trkpt lat="45.8139" lon="4.29384">
        <ele>483</ele>
        <time>2017-04-13T14:55:01.1Z</time>
      </trkpt>
      <trkpt lat="45.81387" lon="4.29379">
        <ele>483</ele>
        <time>2017-04-13T14:55:04.1Z</time>
      </trkpt>
      <trkpt lat="45.81385" lon="4.29376">
        <ele>482</ele>
        <time>2017-04-13T14:55:07.1Z</time>
      </trkpt>
      <trkpt lat="45.81384" lon="4.29373">
        <ele>481</ele>
        <time>2017-04-13T14:55:09.1Z</time>
      </trkpt>
      <trkpt lat="45.81382" lon="4.29371">
        <ele>481</ele>
        <time>2017-04-13T14:55:12.1Z</time>
      </trkpt>
      <trkpt lat="45.81381" lon="4.29369">
        <ele>481</ele>
        <time>2017-04-13T14:55:14.1Z</time>
      </trkpt>
      <trkpt lat="45.81379" lon="4.29366">
        <ele>480</ele>
        <time>2017-04-13T14:55:17.1Z</time>
      </trkpt>
      <trkpt lat="45.81377" lon="4.29363">
        <ele>480</ele>
        <time>2017-04-13T14:55:19.1Z</time>
      </trkpt>
      <trkpt lat="45.81375" lon="4.2936">
        <ele>479</ele>
        <time>2017-04-13T14:55:22.1Z</time>
      </trkpt>
      <trkpt lat="45.81372" lon="4.29357">
        <ele>478</ele>
        <time>2017-04-13T14:55:25.1Z</time>
      </trkpt>
      <trkpt lat="45.8137" lon="4.29355">
        <ele>478</ele>
        <time>2017-04-13T14:55:27.1Z</time>
      </trkpt>
      <trkpt lat="45.81368" lon="4.2935">
        <ele>478</ele>
        <time>2017-04-13T14:55:30.1Z</time>
      </trkpt>
      <trkpt lat="45.81367" lon="4.29347">
        <ele>477</ele>
        <time>2017-04-13T14:55:32.1Z</time>
      </trkpt>
      <trkpt lat="45.81366" lon="4.29344">
        <ele>477</ele>
        <time>2017-04-13T14:55:34.1Z</time>
      </trkpt>
      <trkpt lat="45.81364" lon="4.29339">
        <ele>476</ele>
        <time>2017-04-13T14:55:37.1Z</time>
      </trkpt>
      <trkpt lat="45.81363" lon="4.29335">
        <ele>476</ele>
        <time>2017-04-13T14:55:39.1Z</time>
      </trkpt>
      <trkpt lat="45.81361" lon="4.29332">
        <ele>476</ele>
        <time>2017-04-13T14:55:41.1Z</time>
      </trkpt>
      <trkpt lat="45.8136" lon="4.29328">
        <ele>476</ele>
        <time>2017-04-13T14:55:44.1Z</time>
      </trkpt>
      <trkpt lat="45.81358" lon="4.29323">
        <ele>475</ele>
        <time>2017-04-13T14:55:47.1Z</time>
      </trkpt>
      <trkpt lat="45.81356" lon="4.2932">
        <ele>475</ele>
        <time>2017-04-13T14:55:49.1Z</time>
      </trkpt>
      <trkpt lat="45.81355" lon="4.29319">
        <ele>475</ele>
        <time>2017-04-13T14:55:51.1Z</time>
      </trkpt>
      <trkpt lat="45.81352" lon="4.29316">
        <ele>474</ele>
        <time>2017-04-13T14:55:54.1Z</time>
      </trkpt>
      <trkpt lat="45.8135" lon="4.29313">
        <ele>474</ele>
        <time>2017-04-13T14:55:56.1Z</time>
      </trkpt>
      <trkpt lat="45.81349" lon="4.29309">
        <ele>474</ele>
        <time>2017-04-13T14:55:59.1Z</time>
      </trkpt>
      <trkpt lat="45.81347" lon="4.29306">
        <ele>473</ele>
        <time>2017-04-13T14:56:01.1Z</time>
      </trkpt>
      <trkpt lat="45.81346" lon="4.29302">
        <ele>473</ele>
        <time>2017-04-13T14:56:03.1Z</time>
      </trkpt>
      <trkpt lat="45.81343" lon="4.29296">
        <ele>473</ele>
        <time>2017-04-13T14:56:05.1Z</time>
      </trkpt>
      <trkpt lat="45.81342" lon="4.29293">
        <ele>472</ele>
        <time>2017-04-13T14:56:07.1Z</time>
      </trkpt>
      <trkpt lat="45.81341" lon="4.29289">
        <ele>472</ele>
        <time>2017-04-13T14:56:10.1Z</time>
      </trkpt>
      <trkpt lat="45.8134" lon="4.29286">
        <ele>472</ele>
        <time>2017-04-13T14:56:12.1Z</time>
      </trkpt>
      <trkpt lat="45.81338" lon="4.29283">
        <ele>472</ele>
        <time>2017-04-13T14:56:14.1Z</time>
      </trkpt>
      <trkpt lat="45.81336" lon="4.29281">
        <ele>472</ele>
        <time>2017-04-13T14:56:16.1Z</time>
      </trkpt>
      <trkpt lat="45.81334" lon="4.29277">
        <ele>472</ele>
        <time>2017-04-13T14:56:19.1Z</time>
      </trkpt>
      <trkpt lat="45.81333" lon="4.29274">
        <ele>472</ele>
        <time>2017-04-13T14:56:21.1Z</time>
      </trkpt>
      <trkpt lat="45.81332" lon="4.2927">
        <ele>471</ele>
        <time>2017-04-13T14:56:24.1Z</time>
      </trkpt>
      <trkpt lat="45.81329" lon="4.29267">
        <ele>471</ele>
        <time>2017-04-13T14:56:27.1Z</time>
      </trkpt>
      <trkpt lat="45.81327" lon="4.29263">
        <ele>471</ele>
        <time>2017-04-13T14:56:30.1Z</time>
      </trkpt>
      <trkpt lat="45.81323" lon="4.29258">
        <ele>471</ele>
        <time>2017-04-13T14:56:33.1Z</time>
      </trkpt>
      <trkpt lat="45.81321" lon="4.29254">
        <ele>471</ele>
        <time>2017-04-13T14:56:36.1Z</time>
      </trkpt>
      <trkpt lat="45.81319" lon="4.29251">
        <ele>471</ele>
        <time>2017-04-13T14:56:39.1Z</time>
      </trkpt>
      <trkpt lat="45.81318" lon="4.29249">
        <ele>471</ele>
        <time>2017-04-13T14:56:41.1Z</time>
      </trkpt>
      <trkpt lat="45.81316" lon="4.29247">
        <ele>471</ele>
        <time>2017-04-13T14:56:43.1Z</time>
      </trkpt>
      <trkpt lat="45.81312" lon="4.29244">
        <ele>471</ele>
        <time>2017-04-13T14:56:46.1Z</time>
      </trkpt>
      <trkpt lat="45.81309" lon="4.2924">
        <ele>471</ele>
        <time>2017-04-13T14:56:49.1Z</time>
      </trkpt>
      <trkpt lat="45.81306" lon="4.29237">
        <ele>471</ele>
        <time>2017-04-13T14:56:52.1Z</time>
      </trkpt>
      <trkpt lat="45.81304" lon="4.29233">
        <ele>471</ele>
        <time>2017-04-13T14:56:55.1Z</time>
      </trkpt>
      <trkpt lat="45.81302" lon="4.29227">
        <ele>471</ele>
        <time>2017-04-13T14:56:58.1Z</time>
      </trkpt>
      <trkpt lat="45.813" lon="4.29223">
        <ele>470</ele>
        <time>2017-04-13T14:57:01.1Z</time>
      </trkpt>
      <trkpt lat="45.81298" lon="4.29218">
        <ele>470</ele>
        <time>2017-04-13T14:57:04.1Z</time>
      </trkpt>
      <trkpt lat="45.81295" lon="4.29214">
        <ele>470</ele>
        <time>2017-04-13T14:57:07.1Z</time>
      </trkpt>
      <trkpt lat="45.81294" lon="4.29212">
        <ele>470</ele>
        <time>2017-04-13T14:57:09.1Z</time>
      </trkpt>
      <trkpt lat="45.81292" lon="4.29209">
        <ele>470</ele>
        <time>2017-04-13T14:57:12.1Z</time>
      </trkpt>
      <trkpt lat="45.8129" lon="4.29206">
        <ele>469</ele>
        <time>2017-04-13T14:57:14.1Z</time>
      </trkpt>
      <trkpt lat="45.81289" lon="4.29203">
        <ele>469</ele>
        <time>2017-04-13T14:57:16.1Z</time>
      </trkpt>
      <trkpt lat="45.81287" lon="4.292">
        <ele>469</ele>
        <time>2017-04-13T14:57:18.1Z</time>
      </trkpt>
      <trkpt lat="45.81283" lon="4.29195">
        <ele>468</ele>
        <time>2017-04-13T14:57:21.1Z</time>
      </trkpt>
      <trkpt lat="45.8128" lon="4.29191">
        <ele>468</ele>
        <time>2017-04-13T14:57:24.1Z</time>
      </trkpt>
      <trkpt lat="45.81276" lon="4.29185">
        <ele>467</ele>
        <time>2017-04-13T14:57:27.1Z</time>
      </trkpt>
      <trkpt lat="45.81274" lon="4.29181">
        <ele>468</ele>
        <time>2017-04-13T14:57:29.1Z</time>
      </trkpt>
      <trkpt lat="45.81272" lon="4.29178">
        <ele>467</ele>
        <time>2017-04-13T14:57:31.1Z</time>
      </trkpt>
      <trkpt lat="45.8127" lon="4.29175">
        <ele>467</ele>
        <time>2017-04-13T14:57:33.1Z</time>
      </trkpt>
      <trkpt lat="45.81267" lon="4.29171">
        <ele>466</ele>
        <time>2017-04-13T14:57:36.1Z</time>
      </trkpt>
      <trkpt lat="45.81263" lon="4.29167">
        <ele>466</ele>
        <time>2017-04-13T14:57:39.1Z</time>
      </trkpt>
      <trkpt lat="45.8126" lon="4.29164">
        <ele>466</ele>
        <time>2017-04-13T14:57:41.1Z</time>
      </trkpt>
      <trkpt lat="45.81256" lon="4.2916">
        <ele>466</ele>
        <time>2017-04-13T14:57:44.1Z</time>
      </trkpt>
      <trkpt lat="45.81253" lon="4.29158">
        <ele>466</ele>
        <time>2017-04-13T14:57:46.1Z</time>
      </trkpt>
      <trkpt lat="45.8125" lon="4.29154">
        <ele>466</ele>
        <time>2017-04-13T14:57:49.1Z</time>
      </trkpt>
      <trkpt lat="45.81246" lon="4.2915">
        <ele>465</ele>
        <time>2017-04-13T14:57:52.1Z</time>
      </trkpt>
      <trkpt lat="45.81243" lon="4.29148">
        <ele>465</ele>
        <time>2017-04-13T14:57:54.1Z</time>
      </trkpt>
      <trkpt lat="45.8124" lon="4.29146">
        <ele>466</ele>
        <time>2017-04-13T14:57:56.1Z</time>
      </trkpt>
      <trkpt lat="45.81237" lon="4.29143">
        <ele>465</ele>
        <time>2017-04-13T14:57:58.1Z</time>
      </trkpt>
      <trkpt lat="45.81234" lon="4.29142">
        <ele>465</ele>
        <time>2017-04-13T14:58:00.1Z</time>
      </trkpt>
      <trkpt lat="45.81232" lon="4.29139">
        <ele>465</ele>
        <time>2017-04-13T14:58:02.1Z</time>
      </trkpt>
      <trkpt lat="45.81228" lon="4.29137">
        <ele>464</ele>
        <time>2017-04-13T14:58:05.1Z</time>
      </trkpt>
      <trkpt lat="45.81225" lon="4.29136">
        <ele>464</ele>
        <time>2017-04-13T14:58:07.1Z</time>
      </trkpt>
      <trkpt lat="45.81221" lon="4.29134">
        <ele>464</ele>
        <time>2017-04-13T14:58:09.1Z</time>
      </trkpt>
      <trkpt lat="45.81217" lon="4.29132">
        <ele>464</ele>
        <time>2017-04-13T14:58:11.1Z</time>
      </trkpt>
      <trkpt lat="45.81213" lon="4.29131">
        <ele>464</ele>
        <time>2017-04-13T14:58:13.1Z</time>
      </trkpt>
      <trkpt lat="45.8121" lon="4.2913">
        <ele>464</ele>
        <time>2017-04-13T14:58:15.1Z</time>
      </trkpt>
      <trkpt lat="45.81208" lon="4.29128">
        <ele>464</ele>
        <time>2017-04-13T14:58:17.1Z</time>
      </trkpt>
      <trkpt lat="45.81205" lon="4.29127">
        <ele>464</ele>
        <time>2017-04-13T14:58:20.1Z</time>
      </trkpt>
      <trkpt lat="45.81202" lon="4.29126">
        <ele>465</ele>
        <time>2017-04-13T14:58:23.1Z</time>
      </trkpt>
      <trkpt lat="45.81196" lon="4.29125">
        <ele>465</ele>
        <time>2017-04-13T14:58:26.1Z</time>
      </trkpt>
      <trkpt lat="45.81193" lon="4.29125">
        <ele>465</ele>
        <time>2017-04-13T14:58:28.1Z</time>
      </trkpt>
      <trkpt lat="45.81191" lon="4.29124">
        <ele>465</ele>
        <time>2017-04-13T14:58:30.1Z</time>
      </trkpt>
      <trkpt lat="45.81187" lon="4.29124">
        <ele>466</ele>
        <time>2017-04-13T14:58:32.1Z</time>
      </trkpt>
      <trkpt lat="45.81184" lon="4.29125">
        <ele>466</ele>
        <time>2017-04-13T14:58:35.1Z</time>
      </trkpt>
      <trkpt lat="45.81179" lon="4.29125">
        <ele>466</ele>
        <time>2017-04-13T14:58:38.1Z</time>
      </trkpt>
      <trkpt lat="45.81173" lon="4.29123">
        <ele>467</ele>
        <time>2017-04-13T14:58:41.1Z</time>
      </trkpt>
      <trkpt lat="45.81169" lon="4.29122">
        <ele>467</ele>
        <time>2017-04-13T14:58:43.1Z</time>
      </trkpt>
      <trkpt lat="45.81165" lon="4.29123">
        <ele>467</ele>
        <time>2017-04-13T14:58:45.1Z</time>
      </trkpt>
      <trkpt lat="45.8116" lon="4.29127">
        <ele>467</ele>
        <time>2017-04-13T14:58:47.1Z</time>
      </trkpt>
      <trkpt lat="45.81151" lon="4.29126">
        <ele>467</ele>
        <time>2017-04-13T14:58:50.1Z</time>
      </trkpt>
      <trkpt lat="45.81144" lon="4.29126">
        <ele>467</ele>
        <time>2017-04-13T14:58:52.1Z</time>
      </trkpt>
      <trkpt lat="45.81132" lon="4.29124">
        <ele>467</ele>
        <time>2017-04-13T14:58:55.1Z</time>
      </trkpt>
      <trkpt lat="45.81121" lon="4.29122">
        <ele>467</ele>
        <time>2017-04-13T14:58:58.1Z</time>
      </trkpt>
      <trkpt lat="45.81113" lon="4.2912">
        <ele>467</ele>
        <time>2017-04-13T14:59:00.1Z</time>
      </trkpt>
      <trkpt lat="45.81101" lon="4.29115">
        <ele>467</ele>
        <time>2017-04-13T14:59:03.1Z</time>
      </trkpt>
      <trkpt lat="45.81094" lon="4.29112">
        <ele>467</ele>
        <time>2017-04-13T14:59:05.1Z</time>
      </trkpt>
      <trkpt lat="45.81084" lon="4.29108">
        <ele>467</ele>
        <time>2017-04-13T14:59:08.1Z</time>
      </trkpt>
      <trkpt lat="45.81074" lon="4.29104">
        <ele>466</ele>
        <time>2017-04-13T14:59:11.1Z</time>
      </trkpt>
      <trkpt lat="45.81063" lon="4.291">
        <ele>466</ele>
        <time>2017-04-13T14:59:14.1Z</time>
      </trkpt>
      <trkpt lat="45.81057" lon="4.29098">
        <ele>466</ele>
        <time>2017-04-13T14:59:16.1Z</time>
      </trkpt>
      <trkpt lat="45.81048" lon="4.29094">
        <ele>465</ele>
        <time>2017-04-13T14:59:19.1Z</time>
      </trkpt>
      <trkpt lat="45.81042" lon="4.29092">
        <ele>465</ele>
        <time>2017-04-13T14:59:21.1Z</time>
      </trkpt>
      <trkpt lat="45.81036" lon="4.29089">
        <ele>464</ele>
        <time>2017-04-13T14:59:23.1Z</time>
      </trkpt>
      <trkpt lat="45.81027" lon="4.2909">
        <ele>464</ele>
        <time>2017-04-13T14:59:26.1Z</time>
      </trkpt>
      <trkpt lat="45.81022" lon="4.2909">
        <ele>464</ele>
        <time>2017-04-13T14:59:28.1Z</time>
      </trkpt>
      <trkpt lat="45.81012" lon="4.29091">
        <ele>464</ele>
        <time>2017-04-13T14:59:31.1Z</time>
      </trkpt>
      <trkpt lat="45.81006" lon="4.29094">
        <ele>463</ele>
        <time>2017-04-13T14:59:33.1Z</time>
      </trkpt>
      <trkpt lat="45.80999" lon="4.29097">
        <ele>462</ele>
        <time>2017-04-13T14:59:35.1Z</time>
      </trkpt>
      <trkpt lat="45.80994" lon="4.291">
        <ele>462</ele>
        <time>2017-04-13T14:59:37.1Z</time>
      </trkpt>
      <trkpt lat="45.80986" lon="4.29102">
        <ele>462</ele>
        <time>2017-04-13T14:59:39.1Z</time>
      </trkpt>
      <trkpt lat="45.80973" lon="4.29104">
        <ele>462</ele>
        <time>2017-04-13T14:59:42.1Z</time>
      </trkpt>
      <trkpt lat="45.80966" lon="4.29108">
        <ele>462</ele>
        <time>2017-04-13T14:59:44.1Z</time>
      </trkpt>
      <trkpt lat="45.80956" lon="4.29112">
        <ele>461</ele>
        <time>2017-04-13T14:59:47.1Z</time>
      </trkpt>
      <trkpt lat="45.80944" lon="4.29114">
        <ele>462</ele>
        <time>2017-04-13T14:59:50.1Z</time>
      </trkpt>
      <trkpt lat="45.80933" lon="4.29118">
        <ele>462</ele>
        <time>2017-04-13T14:59:53.1Z</time>
      </trkpt>
      <trkpt lat="45.80923" lon="4.29122">
        <ele>462</ele>
        <time>2017-04-13T14:59:56.1Z</time>
      </trkpt>
      <trkpt lat="45.80913" lon="4.29123">
        <ele>461</ele>
        <time>2017-04-13T14:59:59.1Z</time>
      </trkpt>
      <trkpt lat="45.80907" lon="4.29123">
        <ele>461</ele>
        <time>2017-04-13T15:00:01.1Z</time>
      </trkpt>
      <trkpt lat="45.80898" lon="4.29123">
        <ele>461</ele>
        <time>2017-04-13T15:00:04.1Z</time>
      </trkpt>
      <trkpt lat="45.80891" lon="4.29123">
        <ele>460</ele>
        <time>2017-04-13T15:00:06.1Z</time>
      </trkpt>
      <trkpt lat="45.8088" lon="4.29123">
        <ele>458</ele>
        <time>2017-04-13T15:00:09.1Z</time>
      </trkpt>
      <trkpt lat="45.80874" lon="4.29126">
        <ele>458</ele>
        <time>2017-04-13T15:00:11.1Z</time>
      </trkpt>
      <trkpt lat="45.80869" lon="4.29127">
        <ele>457</ele>
        <time>2017-04-13T15:00:13.1Z</time>
      </trkpt>
      <trkpt lat="45.80857" lon="4.29131">
        <ele>457</ele>
        <time>2017-04-13T15:00:16.1Z</time>
      </trkpt>
      <trkpt lat="45.8085" lon="4.29132">
        <ele>456</ele>
        <time>2017-04-13T15:00:18.1Z</time>
      </trkpt>
      <trkpt lat="45.8084" lon="4.29133">
        <ele>455</ele>
        <time>2017-04-13T15:00:21.1Z</time>
      </trkpt>
      <trkpt lat="45.80833" lon="4.29134">
        <ele>455</ele>
        <time>2017-04-13T15:00:23.1Z</time>
      </trkpt>
      <trkpt lat="45.80824" lon="4.29138">
        <ele>454</ele>
        <time>2017-04-13T15:00:26.1Z</time>
      </trkpt>
      <trkpt lat="45.80818" lon="4.2914">
        <ele>454</ele>
        <time>2017-04-13T15:00:28.1Z</time>
      </trkpt>
      <trkpt lat="45.80812" lon="4.29143">
        <ele>453</ele>
        <time>2017-04-13T15:00:30.1Z</time>
      </trkpt>
      <trkpt lat="45.80806" lon="4.29145">
        <ele>453</ele>
        <time>2017-04-13T15:00:33.1Z</time>
      </trkpt>
      <trkpt lat="45.80801" lon="4.29146">
        <ele>453</ele>
        <time>2017-04-13T15:00:35.1Z</time>
      </trkpt>
      <trkpt lat="45.80797" lon="4.29146">
        <ele>453</ele>
        <time>2017-04-13T15:00:37.1Z</time>
      </trkpt>
      <trkpt lat="45.80791" lon="4.29148">
        <ele>452</ele>
        <time>2017-04-13T15:00:40.1Z</time>
      </trkpt>
      <trkpt lat="45.80787" lon="4.29148">
        <ele>452</ele>
        <time>2017-04-13T15:00:42.1Z</time>
      </trkpt>
      <trkpt lat="45.80781" lon="4.29149">
        <ele>452</ele>
        <time>2017-04-13T15:00:45.1Z</time>
      </trkpt>
      <trkpt lat="45.80776" lon="4.29153">
        <ele>452</ele>
        <time>2017-04-13T15:00:48.1Z</time>
      </trkpt>
      <trkpt lat="45.80773" lon="4.29156">
        <ele>452</ele>
        <time>2017-04-13T15:00:50.1Z</time>
      </trkpt>
      <trkpt lat="45.8077" lon="4.29161">
        <ele>452</ele>
        <time>2017-04-13T15:00:53.1Z</time>
      </trkpt>
      <trkpt lat="45.80766" lon="4.29171">
        <ele>454</ele>
        <time>2017-04-13T15:00:56.1Z</time>
      </trkpt>
      <trkpt lat="45.80761" lon="4.29181">
        <ele>454</ele>
        <time>2017-04-13T15:00:58.1Z</time>
      </trkpt>
      <trkpt lat="45.80759" lon="4.29189">
        <ele>455</ele>
        <time>2017-04-13T15:01:00.1Z</time>
      </trkpt>
      <trkpt lat="45.80757" lon="4.29201">
        <ele>457</ele>
        <time>2017-04-13T15:01:03.1Z</time>
      </trkpt>
      <trkpt lat="45.80756" lon="4.29213">
        <ele>458</ele>
        <time>2017-04-13T15:01:06.1Z</time>
      </trkpt>
      <trkpt lat="45.80754" lon="4.29225">
        <ele>459</ele>
        <time>2017-04-13T15:01:09.1Z</time>
      </trkpt>
      <trkpt lat="45.80753" lon="4.29238">
        <ele>460</ele>
        <time>2017-04-13T15:01:12.1Z</time>
      </trkpt>
      <trkpt lat="45.80752" lon="4.29247">
        <ele>460</ele>
        <time>2017-04-13T15:01:14.1Z</time>
      </trkpt>
      <trkpt lat="45.80752" lon="4.29256">
        <ele>461</ele>
        <time>2017-04-13T15:01:16.1Z</time>
      </trkpt>
      <trkpt lat="45.80752" lon="4.29266">
        <ele>462</ele>
        <time>2017-04-13T15:01:18.1Z</time>
      </trkpt>
      <trkpt lat="45.80753" lon="4.2928">
        <ele>462</ele>
        <time>2017-04-13T15:01:21.1Z</time>
      </trkpt>
      <trkpt lat="45.80754" lon="4.29289">
        <ele>463</ele>
        <time>2017-04-13T15:01:23.1Z</time>
      </trkpt>
      <trkpt lat="45.80754" lon="4.29304">
        <ele>463</ele>
        <time>2017-04-13T15:01:26.1Z</time>
      </trkpt>
      <trkpt lat="45.80751" lon="4.2932">
        <ele>464</ele>
        <time>2017-04-13T15:01:29.1Z</time>
      </trkpt>
      <trkpt lat="45.8075" lon="4.29329">
        <ele>465</ele>
        <time>2017-04-13T15:01:31.1Z</time>
      </trkpt>
      <trkpt lat="45.80745" lon="4.29344">
        <ele>466</ele>
        <time>2017-04-13T15:01:34.1Z</time>
      </trkpt>
      <trkpt lat="45.8074" lon="4.29355">
        <ele>468</ele>
        <time>2017-04-13T15:01:37.1Z</time>
      </trkpt>
      <trkpt lat="45.80737" lon="4.29363">
        <ele>468</ele>
        <time>2017-04-13T15:01:39.1Z</time>
      </trkpt>
      <trkpt lat="45.80734" lon="4.29375">
        <ele>468</ele>
        <time>2017-04-13T15:01:42.1Z</time>
      </trkpt>
      <trkpt lat="45.80734" lon="4.2938">
        <ele>468</ele>
        <time>2017-04-13T15:01:45.1Z</time>
      </trkpt>
      <trkpt lat="45.80734" lon="4.29382">
        <ele>468</ele>
        <time>2017-04-13T15:01:47.1Z</time>
      </trkpt>
      <trkpt lat="45.80734" lon="4.29384">
        <ele>468</ele>
        <time>2017-04-13T15:01:49.1Z</time>
      </trkpt>
      <trkpt lat="45.80733" lon="4.29386">
        <ele>468</ele>
        <time>2017-04-13T15:01:52.1Z</time>
      </trkpt>
      <trkpt lat="45.80733" lon="4.29387">
        <ele>468</ele>
        <time>2017-04-13T15:01:54.1Z</time>
      </trkpt>
      <trkpt lat="45.80733" lon="4.29388">
        <ele>468</ele>
        <time>2017-04-13T15:01:56.1Z</time>
      </trkpt>
      <trkpt lat="45.80733" lon="4.29389">
        <ele>468</ele>
        <time>2017-04-13T15:01:58.1Z</time>
      </trkpt>
      <trkpt lat="45.80734" lon="4.2939">
        <ele>468</ele>
        <time>2017-04-13T15:02:01.1Z</time>
      </trkpt>
      <trkpt lat="45.80735" lon="4.29391">
        <ele>468</ele>
        <time>2017-04-13T15:02:03.1Z</time>
      </trkpt>
      <trkpt lat="45.80737" lon="4.29393">
        <ele>468</ele>
        <time>2017-04-13T15:02:06.1Z</time>
      </trkpt>
      <trkpt lat="45.80738" lon="4.29394">
        <ele>468</ele>
        <time>2017-04-13T15:02:08.1Z</time>
      </trkpt>
      <trkpt lat="45.8074" lon="4.29396">
        <ele>469</ele>
        <time>2017-04-13T15:02:10.1Z</time>
      </trkpt>
      <trkpt lat="45.80741" lon="4.29398">
        <ele>469</ele>
        <time>2017-04-13T15:02:13.1Z</time>
      </trkpt>
      <trkpt lat="45.80743" lon="4.294">
        <ele>469</ele>
        <time>2017-04-13T15:02:16.1Z</time>
      </trkpt>
      <trkpt lat="45.80745" lon="4.29402">
        <ele>469</ele>
        <time>2017-04-13T15:02:18.1Z</time>
      </trkpt>
      <trkpt lat="45.80748" lon="4.29405">
        <ele>469</ele>
        <time>2017-04-13T15:02:21.1Z</time>
      </trkpt>
      <trkpt lat="45.80751" lon="4.29408">
        <ele>470</ele>
        <time>2017-04-13T15:02:24.1Z</time>
      </trkpt>
      <trkpt lat="45.80754" lon="4.2941">
        <ele>470</ele>
        <time>2017-04-13T15:02:26.1Z</time>
      </trkpt>
      <trkpt lat="45.80756" lon="4.29412">
        <ele>470</ele>
        <time>2017-04-13T15:02:28.1Z</time>
      </trkpt>
      <trkpt lat="45.80758" lon="4.29414">
        <ele>470</ele>
        <time>2017-04-13T15:02:30.1Z</time>
      </trkpt>
      <trkpt lat="45.8076" lon="4.29416">
        <ele>471</ele>
        <time>2017-04-13T15:02:32.1Z</time>
      </trkpt>
      <trkpt lat="45.80763" lon="4.29419">
        <ele>471</ele>
        <time>2017-04-13T15:02:35.1Z</time>
      </trkpt>
      <trkpt lat="45.80765" lon="4.29421">
        <ele>471</ele>
        <time>2017-04-13T15:02:37.1Z</time>
      </trkpt>
      <trkpt lat="45.80768" lon="4.29423">
        <ele>471</ele>
        <time>2017-04-13T15:02:39.1Z</time>
      </trkpt>
      <trkpt lat="45.8077" lon="4.29425">
        <ele>471</ele>
        <time>2017-04-13T15:02:41.1Z</time>
      </trkpt>
      <trkpt lat="45.80772" lon="4.29426">
        <ele>471</ele>
        <time>2017-04-13T15:02:43.1Z</time>
      </trkpt>
      <trkpt lat="45.80774" lon="4.29428">
        <ele>471</ele>
        <time>2017-04-13T15:02:45.1Z</time>
      </trkpt>
      <trkpt lat="45.80777" lon="4.29432">
        <ele>471</ele>
        <time>2017-04-13T15:02:48.1Z</time>
      </trkpt>
      <trkpt lat="45.80781" lon="4.29436">
        <ele>471</ele>
        <time>2017-04-13T15:02:51.1Z</time>
      </trkpt>
      <trkpt lat="45.80783" lon="4.29439">
        <ele>472</ele>
        <time>2017-04-13T15:02:53.1Z</time>
      </trkpt>
      <trkpt lat="45.80786" lon="4.29442">
        <ele>472</ele>
        <time>2017-04-13T15:02:55.1Z</time>
      </trkpt>
      <trkpt lat="45.80788" lon="4.29446">
        <ele>472</ele>
        <time>2017-04-13T15:02:57.1Z</time>
      </trkpt>
      <trkpt lat="45.8079" lon="4.2945">
        <ele>473</ele>
        <time>2017-04-13T15:02:59.1Z</time>
      </trkpt>
      <trkpt lat="45.80793" lon="4.29456">
        <ele>472</ele>
        <time>2017-04-13T15:03:02.1Z</time>
      </trkpt>
      <trkpt lat="45.80796" lon="4.29462">
        <ele>473</ele>
        <time>2017-04-13T15:03:05.1Z</time>
      </trkpt>
      <trkpt lat="45.80797" lon="4.29467">
        <ele>473</ele>
        <time>2017-04-13T15:03:07.1Z</time>
      </trkpt>
      <trkpt lat="45.80799" lon="4.29471">
        <ele>473</ele>
        <time>2017-04-13T15:03:09.1Z</time>
      </trkpt>
      <trkpt lat="45.80801" lon="4.29475">
        <ele>473</ele>
        <time>2017-04-13T15:03:11.1Z</time>
      </trkpt>
      <trkpt lat="45.80802" lon="4.29479">
        <ele>474</ele>
        <time>2017-04-13T15:03:13.1Z</time>
      </trkpt>
      <trkpt lat="45.80805" lon="4.29484">
        <ele>474</ele>
        <time>2017-04-13T15:03:16.1Z</time>
      </trkpt>
      <trkpt lat="45.80807" lon="4.29489">
        <ele>474</ele>
        <time>2017-04-13T15:03:19.1Z</time>
      </trkpt>
      <trkpt lat="45.80811" lon="4.29495">
        <ele>474</ele>
        <time>2017-04-13T15:03:22.1Z</time>
      </trkpt>
      <trkpt lat="45.80814" lon="4.295">
        <ele>475</ele>
        <time>2017-04-13T15:03:25.1Z</time>
      </trkpt>
      <trkpt lat="45.80816" lon="4.29503">
        <ele>476</ele>
        <time>2017-04-13T15:03:27.1Z</time>
      </trkpt>
      <trkpt lat="45.80819" lon="4.29506">
        <ele>476</ele>
        <time>2017-04-13T15:03:29.1Z</time>
      </trkpt>
      <trkpt lat="45.80822" lon="4.29511">
        <ele>477</ele>
        <time>2017-04-13T15:03:32.1Z</time>
      </trkpt>
      <trkpt lat="45.80826" lon="4.29516">
        <ele>477</ele>
        <time>2017-04-13T15:03:35.1Z</time>
      </trkpt>
      <trkpt lat="45.80829" lon="4.29518">
        <ele>477</ele>
        <time>2017-04-13T15:03:37.1Z</time>
      </trkpt>
      <trkpt lat="45.80832" lon="4.2952">
        <ele>477</ele>
        <time>2017-04-13T15:03:39.1Z</time>
      </trkpt>
      <trkpt lat="45.80834" lon="4.29523">
        <ele>477</ele>
        <time>2017-04-13T15:03:41.1Z</time>
      </trkpt>
      <trkpt lat="45.80838" lon="4.29526">
        <ele>478</ele>
        <time>2017-04-13T15:03:44.1Z</time>
      </trkpt>
      <trkpt lat="45.80843" lon="4.29528">
        <ele>478</ele>
        <time>2017-04-13T15:03:47.1Z</time>
      </trkpt>
      <trkpt lat="45.80846" lon="4.29529">
        <ele>478</ele>
        <time>2017-04-13T15:03:49.1Z</time>
      </trkpt>
      <trkpt lat="45.80848" lon="4.2953">
        <ele>478</ele>
        <time>2017-04-13T15:03:51.1Z</time>
      </trkpt>
      <trkpt lat="45.80851" lon="4.29531">
        <ele>478</ele>
        <time>2017-04-13T15:03:53.1Z</time>
      </trkpt>
      <trkpt lat="45.80854" lon="4.29532">
        <ele>478</ele>
        <time>2017-04-13T15:03:55.1Z</time>
      </trkpt>
      <trkpt lat="45.80857" lon="4.29535">
        <ele>478</ele>
        <time>2017-04-13T15:03:58.1Z</time>
      </trkpt>
      <trkpt lat="45.80861" lon="4.2954">
        <ele>479</ele>
        <time>2017-04-13T15:04:01.1Z</time>
      </trkpt>
      <trkpt lat="45.80863" lon="4.29543">
        <ele>479</ele>
        <time>2017-04-13T15:04:03.1Z</time>
      </trkpt>
      <trkpt lat="45.80865" lon="4.29547">
        <ele>479</ele>
        <time>2017-04-13T15:04:05.1Z</time>
      </trkpt>
      <trkpt lat="45.80866" lon="4.29551">
        <ele>479</ele>
        <time>2017-04-13T15:04:07.1Z</time>
      </trkpt>
      <trkpt lat="45.80868" lon="4.29557">
        <ele>479</ele>
        <time>2017-04-13T15:04:10.1Z</time>
      </trkpt>
      <trkpt lat="45.80869" lon="4.29561">
        <ele>479</ele>
        <time>2017-04-13T15:04:12.1Z</time>
      </trkpt>
      <trkpt lat="45.8087" lon="4.29565">
        <ele>479</ele>
        <time>2017-04-13T15:04:14.1Z</time>
      </trkpt>
      <trkpt lat="45.8087" lon="4.29571">
        <ele>480</ele>
        <time>2017-04-13T15:04:17.1Z</time>
      </trkpt>
      <trkpt lat="45.80871" lon="4.29574">
        <ele>480</ele>
        <time>2017-04-13T15:04:19.1Z</time>
      </trkpt>
      <trkpt lat="45.80871" lon="4.29579">
        <ele>480</ele>
        <time>2017-04-13T15:04:21.1Z</time>
      </trkpt>
      <trkpt lat="45.80871" lon="4.29584">
        <ele>481</ele>
        <time>2017-04-13T15:04:24.1Z</time>
      </trkpt>
      <trkpt lat="45.8087" lon="4.29587">
        <ele>481</ele>
        <time>2017-04-13T15:04:26.1Z</time>
      </trkpt>
      <trkpt lat="45.80871" lon="4.29592">
        <ele>481</ele>
        <time>2017-04-13T15:04:29.1Z</time>
      </trkpt>
      <trkpt lat="45.80873" lon="4.29596">
        <ele>482</ele>
        <time>2017-04-13T15:04:32.1Z</time>
      </trkpt>
      <trkpt lat="45.80876" lon="4.29595">
        <ele>482</ele>
        <time>2017-04-13T15:04:35.1Z</time>
      </trkpt>
      <trkpt lat="45.80878" lon="4.29593">
        <ele>482</ele>
        <time>2017-04-13T15:04:37.1Z</time>
      </trkpt>
      <trkpt lat="45.80879" lon="4.29591">
        <ele>483</ele>
        <time>2017-04-13T15:04:39.1Z</time>
      </trkpt>
      <trkpt lat="45.8088" lon="4.29589">
        <ele>483</ele>
        <time>2017-04-13T15:04:41.1Z</time>
      </trkpt>
      <trkpt lat="45.80881" lon="4.29586">
        <ele>484</ele>
        <time>2017-04-13T15:04:43.1Z</time>
      </trkpt>
      <trkpt lat="45.80883" lon="4.29584">
        <ele>485</ele>
        <time>2017-04-13T15:04:45.1Z</time>
      </trkpt>
      <trkpt lat="45.80887" lon="4.29584">
        <ele>486</ele>
        <time>2017-04-13T15:04:48.1Z</time>
      </trkpt>
      <trkpt lat="45.80891" lon="4.29585">
        <ele>487</ele>
        <time>2017-04-13T15:04:51.1Z</time>
      </trkpt>
      <trkpt lat="45.80892" lon="4.29587">
        <ele>487</ele>
        <time>2017-04-13T15:04:53.1Z</time>
      </trkpt>
      <trkpt lat="45.80893" lon="4.29589">
        <ele>487</ele>
        <time>2017-04-13T15:04:55.1Z</time>
      </trkpt>
      <trkpt lat="45.80895" lon="4.29594">
        <ele>488</ele>
        <time>2017-04-13T15:04:58.1Z</time>
      </trkpt>
      <trkpt lat="45.80896" lon="4.29598">
        <ele>489</ele>
        <time>2017-04-13T15:05:01.1Z</time>
      </trkpt>
      <trkpt lat="45.80898" lon="4.296">
        <ele>489</ele>
        <time>2017-04-13T15:05:03.1Z</time>
      </trkpt>
      <trkpt lat="45.809" lon="4.29604">
        <ele>490</ele>
        <time>2017-04-13T15:05:06.1Z</time>
      </trkpt>
      <trkpt lat="45.80902" lon="4.29607">
        <ele>490</ele>
        <time>2017-04-13T15:05:08.1Z</time>
      </trkpt>
      <trkpt lat="45.80904" lon="4.29608">
        <ele>491</ele>
        <time>2017-04-13T15:05:10.1Z</time>
      </trkpt>
      <trkpt lat="45.80907" lon="4.2961">
        <ele>491</ele>
        <time>2017-04-13T15:05:12.1Z</time>
      </trkpt>
      <trkpt lat="45.80909" lon="4.2961">
        <ele>491</ele>
        <time>2017-04-13T15:05:14.1Z</time>
      </trkpt>
      <trkpt lat="45.80912" lon="4.2961">
        <ele>492</ele>
        <time>2017-04-13T15:05:16.1Z</time>
      </trkpt>
      <trkpt lat="45.80914" lon="4.2961">
        <ele>492</ele>
        <time>2017-04-13T15:05:18.1Z</time>
      </trkpt>
      <trkpt lat="45.80917" lon="4.29609">
        <ele>493</ele>
        <time>2017-04-13T15:05:21.1Z</time>
      </trkpt>
      <trkpt lat="45.80922" lon="4.29609">
        <ele>493</ele>
        <time>2017-04-13T15:05:24.1Z</time>
      </trkpt>
      <trkpt lat="45.80926" lon="4.29609">
        <ele>494</ele>
        <time>2017-04-13T15:05:27.1Z</time>
      </trkpt>
      <trkpt lat="45.80928" lon="4.29609">
        <ele>494</ele>
        <time>2017-04-13T15:05:29.1Z</time>
      </trkpt>
      <trkpt lat="45.80931" lon="4.29609">
        <ele>495</ele>
        <time>2017-04-13T15:05:31.1Z</time>
      </trkpt>
      <trkpt lat="45.80934" lon="4.29608">
        <ele>496</ele>
        <time>2017-04-13T15:05:34.1Z</time>
      </trkpt>
      <trkpt lat="45.80938" lon="4.29607">
        <ele>497</ele>
        <time>2017-04-13T15:05:37.1Z</time>
      </trkpt>
      <trkpt lat="45.80941" lon="4.29607">
        <ele>498</ele>
        <time>2017-04-13T15:05:39.1Z</time>
      </trkpt>
      <trkpt lat="45.80944" lon="4.29607">
        <ele>499</ele>
        <time>2017-04-13T15:05:42.1Z</time>
      </trkpt>
      <trkpt lat="45.80947" lon="4.29607">
        <ele>499</ele>
        <time>2017-04-13T15:05:44.1Z</time>
      </trkpt>
      <trkpt lat="45.8095" lon="4.29609">
        <ele>500</ele>
        <time>2017-04-13T15:05:47.1Z</time>
      </trkpt>
      <trkpt lat="45.80953" lon="4.2961">
        <ele>500</ele>
        <time>2017-04-13T15:05:50.1Z</time>
      </trkpt>
      <trkpt lat="45.80956" lon="4.29612">
        <ele>500</ele>
        <time>2017-04-13T15:05:53.1Z</time>
      </trkpt>
      <trkpt lat="45.80958" lon="4.29614">
        <ele>500</ele>
        <time>2017-04-13T15:05:55.1Z</time>
      </trkpt>
      <trkpt lat="45.8096" lon="4.29614">
        <ele>500</ele>
        <time>2017-04-13T15:05:57.1Z</time>
      </trkpt>
      <trkpt lat="45.80964" lon="4.29616">
        <ele>500</ele>
        <time>2017-04-13T15:06:00.1Z</time>
      </trkpt>
      <trkpt lat="45.80965" lon="4.29617">
        <ele>500</ele>
        <time>2017-04-13T15:06:02.1Z</time>
      </trkpt>
      <trkpt lat="45.80967" lon="4.29619">
        <ele>500</ele>
        <time>2017-04-13T15:06:04.1Z</time>
      </trkpt>
      <trkpt lat="45.80971" lon="4.29621">
        <ele>500</ele>
        <time>2017-04-13T15:06:07.1Z</time>
      </trkpt>
      <trkpt lat="45.80973" lon="4.29622">
        <ele>499</ele>
        <time>2017-04-13T15:06:09.1Z</time>
      </trkpt>
      <trkpt lat="45.80975" lon="4.29623">
        <ele>499</ele>
        <time>2017-04-13T15:06:11.1Z</time>
      </trkpt>
      <trkpt lat="45.80978" lon="4.29625">
        <ele>499</ele>
        <time>2017-04-13T15:06:14.1Z</time>
      </trkpt>
      <trkpt lat="45.80982" lon="4.29627">
        <ele>499</ele>
        <time>2017-04-13T15:06:17.1Z</time>
      </trkpt>
      <trkpt lat="45.80984" lon="4.29628">
        <ele>498</ele>
        <time>2017-04-13T15:06:19.1Z</time>
      </trkpt>
      <trkpt lat="45.80988" lon="4.2963">
        <ele>498</ele>
        <time>2017-04-13T15:06:22.1Z</time>
      </trkpt>
      <trkpt lat="45.80991" lon="4.29631">
        <ele>498</ele>
        <time>2017-04-13T15:06:24.1Z</time>
      </trkpt>
      <trkpt lat="45.80995" lon="4.29635">
        <ele>498</ele>
        <time>2017-04-13T15:06:27.1Z</time>
      </trkpt>
      <trkpt lat="45.80999" lon="4.29637">
        <ele>498</ele>
        <time>2017-04-13T15:06:30.1Z</time>
      </trkpt>
      <trkpt lat="45.81003" lon="4.29641">
        <ele>497</ele>
        <time>2017-04-13T15:06:33.1Z</time>
      </trkpt>
      <trkpt lat="45.81005" lon="4.29643">
        <ele>497</ele>
        <time>2017-04-13T15:06:35.1Z</time>
      </trkpt>
      <trkpt lat="45.81008" lon="4.29644">
        <ele>497</ele>
        <time>2017-04-13T15:06:37.1Z</time>
      </trkpt>
      <trkpt lat="45.8101" lon="4.29646">
        <ele>497</ele>
        <time>2017-04-13T15:06:39.1Z</time>
      </trkpt>
      <trkpt lat="45.81013" lon="4.29648">
        <ele>497</ele>
        <time>2017-04-13T15:06:42.1Z</time>
      </trkpt>
      <trkpt lat="45.81017" lon="4.29651">
        <ele>497</ele>
        <time>2017-04-13T15:06:44.1Z</time>
      </trkpt>
      <trkpt lat="45.81019" lon="4.29653">
        <ele>497</ele>
        <time>2017-04-13T15:06:46.1Z</time>
      </trkpt>
      <trkpt lat="45.81021" lon="4.29654">
        <ele>497</ele>
        <time>2017-04-13T15:06:48.1Z</time>
      </trkpt>
      <trkpt lat="45.81023" lon="4.29655">
        <ele>497</ele>
        <time>2017-04-13T15:06:51.1Z</time>
      </trkpt>
      <trkpt lat="45.81026" lon="4.29657">
        <ele>496</ele>
        <time>2017-04-13T15:06:53.1Z</time>
      </trkpt>
      <trkpt lat="45.8103" lon="4.2966">
        <ele>496</ele>
        <time>2017-04-13T15:06:56.1Z</time>
      </trkpt>
      <trkpt lat="45.81034" lon="4.29662">
        <ele>496</ele>
        <time>2017-04-13T15:06:59.1Z</time>
      </trkpt>
      <trkpt lat="45.81039" lon="4.29665">
        <ele>496</ele>
        <time>2017-04-13T15:07:01.1Z</time>
      </trkpt>
      <trkpt lat="45.81041" lon="4.29667">
        <ele>496</ele>
        <time>2017-04-13T15:07:03.1Z</time>
      </trkpt>
      <trkpt lat="45.81044" lon="4.29668">
        <ele>496</ele>
        <time>2017-04-13T15:07:06.1Z</time>
      </trkpt>
      <trkpt lat="45.81048" lon="4.29671">
        <ele>496</ele>
        <time>2017-04-13T15:07:09.1Z</time>
      </trkpt>
      <trkpt lat="45.81052" lon="4.29674">
        <ele>496</ele>
        <time>2017-04-13T15:07:11.1Z</time>
      </trkpt>
      <trkpt lat="45.81055" lon="4.29675">
        <ele>496</ele>
        <time>2017-04-13T15:07:14.1Z</time>
      </trkpt>
      <trkpt lat="45.81058" lon="4.29679">
        <ele>496</ele>
        <time>2017-04-13T15:07:17.1Z</time>
      </trkpt>
      <trkpt lat="45.81061" lon="4.29683">
        <ele>496</ele>
        <time>2017-04-13T15:07:19.1Z</time>
      </trkpt>
      <trkpt lat="45.81064" lon="4.29685">
        <ele>496</ele>
        <time>2017-04-13T15:07:22.1Z</time>
      </trkpt>
      <trkpt lat="45.81066" lon="4.29687">
        <ele>496</ele>
        <time>2017-04-13T15:07:24.1Z</time>
      </trkpt>
      <trkpt lat="45.8107" lon="4.2969">
        <ele>496</ele>
        <time>2017-04-13T15:07:26.1Z</time>
      </trkpt>
      <trkpt lat="45.81073" lon="4.29693">
        <ele>496</ele>
        <time>2017-04-13T15:07:28.1Z</time>
      </trkpt>
      <trkpt lat="45.81076" lon="4.29695">
        <ele>496</ele>
        <time>2017-04-13T15:07:31.1Z</time>
      </trkpt>
      <trkpt lat="45.8108" lon="4.29699">
        <ele>496</ele>
        <time>2017-04-13T15:07:33.1Z</time>
      </trkpt>
      <trkpt lat="45.81082" lon="4.29702">
        <ele>496</ele>
        <time>2017-04-13T15:07:35.1Z</time>
      </trkpt>
      <trkpt lat="45.81084" lon="4.29705">
        <ele>496</ele>
        <time>2017-04-13T15:07:38.1Z</time>
      </trkpt>
      <trkpt lat="45.81087" lon="4.29708">
        <ele>496</ele>
        <time>2017-04-13T15:07:40.1Z</time>
      </trkpt>
      <trkpt lat="45.8109" lon="4.29711">
        <ele>496</ele>
        <time>2017-04-13T15:07:42.1Z</time>
      </trkpt>
      <trkpt lat="45.81093" lon="4.29715">
        <ele>496</ele>
        <time>2017-04-13T15:07:45.1Z</time>
      </trkpt>
      <trkpt lat="45.81097" lon="4.2972">
        <ele>497</ele>
        <time>2017-04-13T15:07:48.1Z</time>
      </trkpt>
      <trkpt lat="45.81099" lon="4.29723">
        <ele>497</ele>
        <time>2017-04-13T15:07:50.1Z</time>
      </trkpt>
      <trkpt lat="45.81102" lon="4.29729">
        <ele>496</ele>
        <time>2017-04-13T15:07:52.1Z</time>
      </trkpt>
      <trkpt lat="45.81103" lon="4.2973">
        <ele>496</ele>
        <time>2017-04-13T15:07:55.1Z</time>
      </trkpt>
      <trkpt lat="45.81105" lon="4.29733">
        <ele>496</ele>
        <time>2017-04-13T15:07:57.1Z</time>
      </trkpt>
      <trkpt lat="45.81111" lon="4.2974">
        <ele>496</ele>
        <time>2017-04-13T15:08:00.1Z</time>
      </trkpt>
      <trkpt lat="45.81113" lon="4.29743">
        <ele>497</ele>
        <time>2017-04-13T15:08:02.1Z</time>
      </trkpt>
      <trkpt lat="45.81116" lon="4.29746">
        <ele>497</ele>
        <time>2017-04-13T15:08:04.1Z</time>
      </trkpt>
      <trkpt lat="45.81118" lon="4.2975">
        <ele>497</ele>
        <time>2017-04-13T15:08:07.1Z</time>
      </trkpt>
      <trkpt lat="45.8112" lon="4.29753">
        <ele>497</ele>
        <time>2017-04-13T15:08:09.1Z</time>
      </trkpt>
      <trkpt lat="45.8112" lon="4.29757">
        <ele>498</ele>
        <time>2017-04-13T15:08:11.1Z</time>
      </trkpt>
      <trkpt lat="45.8112" lon="4.2976">
        <ele>498</ele>
        <time>2017-04-13T15:08:13.1Z</time>
      </trkpt>
      <trkpt lat="45.81121" lon="4.29765">
        <ele>497</ele>
        <time>2017-04-13T15:08:15.1Z</time>
      </trkpt>
      <trkpt lat="45.81121" lon="4.2977">
        <ele>497</ele>
        <time>2017-04-13T15:08:17.1Z</time>
      </trkpt>
      <trkpt lat="45.81121" lon="4.29775">
        <ele>496</ele>
        <time>2017-04-13T15:08:20.1Z</time>
      </trkpt>
      <trkpt lat="45.81122" lon="4.29781">
        <ele>496</ele>
        <time>2017-04-13T15:08:22.1Z</time>
      </trkpt>
      <trkpt lat="45.81123" lon="4.29786">
        <ele>495</ele>
        <time>2017-04-13T15:08:25.1Z</time>
      </trkpt>
      <trkpt lat="45.81124" lon="4.2979">
        <ele>494</ele>
        <time>2017-04-13T15:08:28.1Z</time>
      </trkpt>
      <trkpt lat="45.81125" lon="4.29797">
        <ele>494</ele>
        <time>2017-04-13T15:08:30.1Z</time>
      </trkpt>
      <trkpt lat="45.81126" lon="4.29803">
        <ele>494</ele>
        <time>2017-04-13T15:08:32.1Z</time>
      </trkpt>
      <trkpt lat="45.81127" lon="4.29808">
        <ele>494</ele>
        <time>2017-04-13T15:08:35.1Z</time>
      </trkpt>
      <trkpt lat="45.81128" lon="4.29814">
        <ele>494</ele>
        <time>2017-04-13T15:08:37.1Z</time>
      </trkpt>
      <trkpt lat="45.81129" lon="4.29821">
        <ele>493</ele>
        <time>2017-04-13T15:08:40.1Z</time>
      </trkpt>
      <trkpt lat="45.8113" lon="4.29827">
        <ele>493</ele>
        <time>2017-04-13T15:08:42.1Z</time>
      </trkpt>
      <trkpt lat="45.8113" lon="4.29832">
        <ele>493</ele>
        <time>2017-04-13T15:08:44.1Z</time>
      </trkpt>
      <trkpt lat="45.8113" lon="4.29837">
        <ele>492</ele>
        <time>2017-04-13T15:08:47.1Z</time>
      </trkpt>
      <trkpt lat="45.8113" lon="4.29845">
        <ele>492</ele>
        <time>2017-04-13T15:08:49.1Z</time>
      </trkpt>
      <trkpt lat="45.8113" lon="4.2985">
        <ele>492</ele>
        <time>2017-04-13T15:08:51.1Z</time>
      </trkpt>
      <trkpt lat="45.81131" lon="4.29857">
        <ele>491</ele>
        <time>2017-04-13T15:08:54.1Z</time>
      </trkpt>
      <trkpt lat="45.81131" lon="4.29861">
        <ele>490</ele>
        <time>2017-04-13T15:08:56.1Z</time>
      </trkpt>
      <trkpt lat="45.81132" lon="4.29868">
        <ele>490</ele>
        <time>2017-04-13T15:09:00.1Z</time>
      </trkpt>
      <trkpt lat="45.81133" lon="4.29872">
        <ele>490</ele>
        <time>2017-04-13T15:09:02.1Z</time>
      </trkpt>
      <trkpt lat="45.81134" lon="4.29878">
        <ele>489</ele>
        <time>2017-04-13T15:09:05.1Z</time>
      </trkpt>
      <trkpt lat="45.81135" lon="4.29884">
        <ele>488</ele>
        <time>2017-04-13T15:09:07.1Z</time>
      </trkpt>
      <trkpt lat="45.81136" lon="4.29888">
        <ele>488</ele>
        <time>2017-04-13T15:09:10.1Z</time>
      </trkpt>
      <trkpt lat="45.81138" lon="4.29895">
        <ele>488</ele>
        <time>2017-04-13T15:09:13.1Z</time>
      </trkpt>
      <trkpt lat="45.8114" lon="4.29902">
        <ele>487</ele>
        <time>2017-04-13T15:09:15.1Z</time>
      </trkpt>
      <trkpt lat="45.81142" lon="4.29906">
        <ele>487</ele>
        <time>2017-04-13T15:09:18.1Z</time>
      </trkpt>
      <trkpt lat="45.81142" lon="4.29909">
        <ele>487</ele>
        <time>2017-04-13T15:09:20.1Z</time>
      </trkpt>
      <trkpt lat="45.81143" lon="4.29913">
        <ele>487</ele>
        <time>2017-04-13T15:09:22.1Z</time>
      </trkpt>
      <trkpt lat="45.81144" lon="4.29918">
        <ele>487</ele>
        <time>2017-04-13T15:09:24.1Z</time>
      </trkpt>
      <trkpt lat="45.81144" lon="4.2992">
        <ele>487</ele>
        <time>2017-04-13T15:09:26.1Z</time>
      </trkpt>
      <trkpt lat="45.81144" lon="4.29921">
        <ele>487</ele>
        <time>2017-04-13T15:09:29.1Z</time>
      </trkpt>
      <trkpt lat="45.81145" lon="4.29922">
        <ele>487</ele>
        <time>2017-04-13T15:09:31.1Z</time>
      </trkpt>
      <trkpt lat="45.81145" lon="4.29926">
        <ele>486</ele>
        <time>2017-04-13T15:09:33.1Z</time>
      </trkpt>
      <trkpt lat="45.81147" lon="4.29932">
        <ele>486</ele>
        <time>2017-04-13T15:09:36.1Z</time>
      </trkpt>
      <trkpt lat="45.81148" lon="4.29937">
        <ele>486</ele>
        <time>2017-04-13T15:09:40.1Z</time>
      </trkpt>
      <trkpt lat="45.81149" lon="4.29943">
        <ele>486</ele>
        <time>2017-04-13T15:09:43.1Z</time>
      </trkpt>
      <trkpt lat="45.8115" lon="4.29949">
        <ele>486</ele>
        <time>2017-04-13T15:09:45.1Z</time>
      </trkpt>
      <trkpt lat="45.8115" lon="4.29952">
        <ele>486</ele>
        <time>2017-04-13T15:09:47.1Z</time>
      </trkpt>
      <trkpt lat="45.81148" lon="4.29956">
        <ele>485</ele>
        <time>2017-04-13T15:09:50.1Z</time>
      </trkpt>
      <trkpt lat="45.81146" lon="4.29957">
        <ele>485</ele>
        <time>2017-04-13T15:09:52.1Z</time>
      </trkpt>
      <trkpt lat="45.81144" lon="4.29958">
        <ele>484</ele>
        <time>2017-04-13T15:09:56.1Z</time>
      </trkpt>
      <trkpt lat="45.81141" lon="4.29961">
        <ele>484</ele>
        <time>2017-04-13T15:09:58.1Z</time>
      </trkpt>
      <trkpt lat="45.81139" lon="4.29962">
        <ele>483</ele>
        <time>2017-04-13T15:10:00.1Z</time>
      </trkpt>
      <trkpt lat="45.81137" lon="4.29964">
        <ele>482</ele>
        <time>2017-04-13T15:10:03.1Z</time>
      </trkpt>
      <trkpt lat="45.81135" lon="4.29968">
        <ele>482</ele>
        <time>2017-04-13T15:10:06.1Z</time>
      </trkpt>
      <trkpt lat="45.81133" lon="4.29971">
        <ele>481</ele>
        <time>2017-04-13T15:10:08.1Z</time>
      </trkpt>
      <trkpt lat="45.81131" lon="4.29975">
        <ele>481</ele>
        <time>2017-04-13T15:10:11.1Z</time>
      </trkpt>
      <trkpt lat="45.81129" lon="4.29981">
        <ele>481</ele>
        <time>2017-04-13T15:10:13.1Z</time>
      </trkpt>
      <trkpt lat="45.81126" lon="4.29987">
        <ele>480</ele>
        <time>2017-04-13T15:10:16.1Z</time>
      </trkpt>
      <trkpt lat="45.81124" lon="4.29991">
        <ele>479</ele>
        <time>2017-04-13T15:10:18.1Z</time>
      </trkpt>
      <trkpt lat="45.81121" lon="4.29996">
        <ele>479</ele>
        <time>2017-04-13T15:10:21.1Z</time>
      </trkpt>
      <trkpt lat="45.8112" lon="4.3">
        <ele>478</ele>
        <time>2017-04-13T15:10:24.1Z</time>
      </trkpt>
      <trkpt lat="45.81117" lon="4.30007">
        <ele>478</ele>
        <time>2017-04-13T15:10:26.1Z</time>
      </trkpt>
      <trkpt lat="45.81115" lon="4.30011">
        <ele>477</ele>
        <time>2017-04-13T15:10:28.1Z</time>
      </trkpt>
      <trkpt lat="45.81113" lon="4.30017">
        <ele>477</ele>
        <time>2017-04-13T15:10:31.1Z</time>
      </trkpt>
      <trkpt lat="45.8111" lon="4.30022">
        <ele>476</ele>
        <time>2017-04-13T15:10:33.1Z</time>
      </trkpt>
      <trkpt lat="45.81108" lon="4.30026">
        <ele>476</ele>
        <time>2017-04-13T15:10:35.1Z</time>
      </trkpt>
      <trkpt lat="45.81107" lon="4.3003">
        <ele>476</ele>
        <time>2017-04-13T15:10:38.1Z</time>
      </trkpt>
      <trkpt lat="45.81105" lon="4.30034">
        <ele>476</ele>
        <time>2017-04-13T15:10:40.1Z</time>
      </trkpt>
      <trkpt lat="45.81102" lon="4.30038">
        <ele>475</ele>
        <time>2017-04-13T15:10:43.1Z</time>
      </trkpt>
      <trkpt lat="45.81099" lon="4.30042">
        <ele>475</ele>
        <time>2017-04-13T15:10:46.1Z</time>
      </trkpt>
      <trkpt lat="45.81096" lon="4.30046">
        <ele>475</ele>
        <time>2017-04-13T15:10:48.1Z</time>
      </trkpt>
      <trkpt lat="45.81093" lon="4.30049">
        <ele>475</ele>
        <time>2017-04-13T15:10:50.1Z</time>
      </trkpt>
      <trkpt lat="45.8109" lon="4.30051">
        <ele>475</ele>
        <time>2017-04-13T15:10:53.1Z</time>
      </trkpt>
      <trkpt lat="45.81087" lon="4.30051">
        <ele>475</ele>
        <time>2017-04-13T15:10:55.1Z</time>
      </trkpt>
      <trkpt lat="45.81085" lon="4.30052">
        <ele>475</ele>
        <time>2017-04-13T15:10:58.1Z</time>
      </trkpt>
      <trkpt lat="45.81082" lon="4.30054">
        <ele>475</ele>
        <time>2017-04-13T15:11:01.1Z</time>
      </trkpt>
      <trkpt lat="45.81078" lon="4.30055">
        <ele>475</ele>
        <time>2017-04-13T15:11:03.1Z</time>
      </trkpt>
      <trkpt lat="45.81075" lon="4.30056">
        <ele>475</ele>
        <time>2017-04-13T15:11:05.1Z</time>
      </trkpt>
      <trkpt lat="45.81071" lon="4.30056">
        <ele>476</ele>
        <time>2017-04-13T15:11:08.1Z</time>
      </trkpt>
      <trkpt lat="45.81069" lon="4.30056">
        <ele>476</ele>
        <time>2017-04-13T15:11:10.1Z</time>
      </trkpt>
      <trkpt lat="45.81066" lon="4.30057">
        <ele>476</ele>
        <time>2017-04-13T15:11:12.1Z</time>
      </trkpt>
      <trkpt lat="45.81063" lon="4.30057">
        <ele>476</ele>
        <time>2017-04-13T15:11:14.1Z</time>
      </trkpt>
      <trkpt lat="45.8106" lon="4.30057">
        <ele>476</ele>
        <time>2017-04-13T15:11:17.1Z</time>
      </trkpt>
      <trkpt lat="45.81057" lon="4.30058">
        <ele>476</ele>
        <time>2017-04-13T15:11:19.1Z</time>
      </trkpt>
      <trkpt lat="45.81054" lon="4.30058">
        <ele>476</ele>
        <time>2017-04-13T15:11:21.1Z</time>
      </trkpt>
      <trkpt lat="45.81051" lon="4.30059">
        <ele>477</ele>
        <time>2017-04-13T15:11:24.1Z</time>
      </trkpt>
      <trkpt lat="45.81047" lon="4.30059">
        <ele>477</ele>
        <time>2017-04-13T15:11:28.1Z</time>
      </trkpt>
      <trkpt lat="45.81044" lon="4.30061">
        <ele>477</ele>
        <time>2017-04-13T15:11:30.1Z</time>
      </trkpt>
      <trkpt lat="45.81041" lon="4.30063">
        <ele>477</ele>
        <time>2017-04-13T15:11:33.1Z</time>
      </trkpt>
      <trkpt lat="45.81038" lon="4.30065">
        <ele>478</ele>
        <time>2017-04-13T15:11:35.1Z</time>
      </trkpt>
      <trkpt lat="45.81036" lon="4.30066">
        <ele>478</ele>
        <time>2017-04-13T15:11:38.1Z</time>
      </trkpt>
      <trkpt lat="45.81033" lon="4.30069">
        <ele>478</ele>
        <time>2017-04-13T15:11:40.1Z</time>
      </trkpt>
      <trkpt lat="45.8103" lon="4.30071">
        <ele>478</ele>
        <time>2017-04-13T15:11:42.1Z</time>
      </trkpt>
      <trkpt lat="45.81027" lon="4.30073">
        <ele>479</ele>
        <time>2017-04-13T15:11:44.1Z</time>
      </trkpt>
      <trkpt lat="45.81023" lon="4.30079">
        <ele>479</ele>
        <time>2017-04-13T15:11:47.1Z</time>
      </trkpt>
      <trkpt lat="45.8102" lon="4.30082">
        <ele>479</ele>
        <time>2017-04-13T15:11:49.1Z</time>
      </trkpt>
      <trkpt lat="45.81017" lon="4.30086">
        <ele>479</ele>
        <time>2017-04-13T15:11:52.1Z</time>
      </trkpt>
      <trkpt lat="45.81012" lon="4.30091">
        <ele>479</ele>
        <time>2017-04-13T15:11:54.1Z</time>
      </trkpt>
      <trkpt lat="45.81009" lon="4.30094">
        <ele>480</ele>
        <time>2017-04-13T15:11:57.1Z</time>
      </trkpt>
      <trkpt lat="45.81007" lon="4.30097">
        <ele>480</ele>
        <time>2017-04-13T15:11:59.1Z</time>
      </trkpt>
      <trkpt lat="45.81001" lon="4.30101">
        <ele>481</ele>
        <time>2017-04-13T15:12:01.1Z</time>
      </trkpt>
      <trkpt lat="45.80998" lon="4.30104">
        <ele>481</ele>
        <time>2017-04-13T15:12:03.1Z</time>
      </trkpt>
      <trkpt lat="45.80996" lon="4.30107">
        <ele>481</ele>
        <time>2017-04-13T15:12:05.1Z</time>
      </trkpt>
      <trkpt lat="45.80993" lon="4.3011">
        <ele>481</ele>
        <time>2017-04-13T15:12:08.1Z</time>
      </trkpt>
      <trkpt lat="45.80988" lon="4.30115">
        <ele>481</ele>
        <time>2017-04-13T15:12:10.1Z</time>
      </trkpt>
      <trkpt lat="45.80985" lon="4.30119">
        <ele>482</ele>
        <time>2017-04-13T15:12:12.1Z</time>
      </trkpt>
      <trkpt lat="45.80982" lon="4.30123">
        <ele>482</ele>
        <time>2017-04-13T15:12:15.1Z</time>
      </trkpt>
      <trkpt lat="45.8098" lon="4.30126">
        <ele>483</ele>
        <time>2017-04-13T15:12:17.1Z</time>
      </trkpt>
      <trkpt lat="45.80977" lon="4.30131">
        <ele>483</ele>
        <time>2017-04-13T15:12:20.1Z</time>
      </trkpt>
      <trkpt lat="45.80974" lon="4.30135">
        <ele>483</ele>
        <time>2017-04-13T15:12:23.1Z</time>
      </trkpt>
      <trkpt lat="45.80972" lon="4.3014">
        <ele>484</ele>
        <time>2017-04-13T15:12:25.1Z</time>
      </trkpt>
      <trkpt lat="45.80969" lon="4.30146">
        <ele>484</ele>
        <time>2017-04-13T15:12:28.1Z</time>
      </trkpt>
      <trkpt lat="45.80966" lon="4.30153">
        <ele>485</ele>
        <time>2017-04-13T15:12:31.1Z</time>
      </trkpt>
      <trkpt lat="45.80964" lon="4.30156">
        <ele>485</ele>
        <time>2017-04-13T15:12:33.1Z</time>
      </trkpt>
      <trkpt lat="45.80962" lon="4.30161">
        <ele>485</ele>
        <time>2017-04-13T15:12:37.1Z</time>
      </trkpt>
      <trkpt lat="45.8096" lon="4.30166">
        <ele>486</ele>
        <time>2017-04-13T15:12:39.1Z</time>
      </trkpt>
      <trkpt lat="45.80959" lon="4.30169">
        <ele>486</ele>
        <time>2017-04-13T15:12:41.1Z</time>
      </trkpt>
      <trkpt lat="45.80959" lon="4.30173">
        <ele>487</ele>
        <time>2017-04-13T15:12:43.1Z</time>
      </trkpt>
      <trkpt lat="45.80959" lon="4.30178">
        <ele>488</ele>
        <time>2017-04-13T15:12:46.1Z</time>
      </trkpt>
      <trkpt lat="45.8096" lon="4.30185">
        <ele>489</ele>
        <time>2017-04-13T15:12:49.1Z</time>
      </trkpt>
      <trkpt lat="45.80962" lon="4.3019">
        <ele>489</ele>
        <time>2017-04-13T15:12:52.1Z</time>
      </trkpt>
      <trkpt lat="45.80963" lon="4.30197">
        <ele>490</ele>
        <time>2017-04-13T15:12:54.1Z</time>
      </trkpt>
      <trkpt lat="45.80964" lon="4.30204">
        <ele>491</ele>
        <time>2017-04-13T15:12:57.1Z</time>
      </trkpt>
      <trkpt lat="45.80964" lon="4.30208">
        <ele>491</ele>
        <time>2017-04-13T15:12:59.1Z</time>
      </trkpt>
      <trkpt lat="45.80964" lon="4.30212">
        <ele>492</ele>
        <time>2017-04-13T15:13:01.1Z</time>
      </trkpt>
      <trkpt lat="45.80965" lon="4.3022">
        <ele>492</ele>
        <time>2017-04-13T15:13:04.1Z</time>
      </trkpt>
      <trkpt lat="45.80965" lon="4.30224">
        <ele>493</ele>
        <time>2017-04-13T15:13:07.1Z</time>
      </trkpt>
      <trkpt lat="45.80965" lon="4.30227">
        <ele>493</ele>
        <time>2017-04-13T15:13:09.1Z</time>
      </trkpt>
      <trkpt lat="45.80964" lon="4.30229">
        <ele>494</ele>
        <time>2017-04-13T15:13:11.1Z</time>
      </trkpt>
      <trkpt lat="45.80964" lon="4.30231">
        <ele>494</ele>
        <time>2017-04-13T15:13:14.1Z</time>
      </trkpt>
      <trkpt lat="45.80964" lon="4.30233">
        <ele>494</ele>
        <time>2017-04-13T15:13:17.1Z</time>
      </trkpt>
      <trkpt lat="45.80963" lon="4.30237">
        <ele>494</ele>
        <time>2017-04-13T15:13:20.1Z</time>
      </trkpt>
      <trkpt lat="45.80963" lon="4.30242">
        <ele>494</ele>
        <time>2017-04-13T15:13:23.1Z</time>
      </trkpt>
      <trkpt lat="45.80962" lon="4.30248">
        <ele>495</ele>
        <time>2017-04-13T15:13:25.1Z</time>
      </trkpt>
      <trkpt lat="45.8096" lon="4.30255">
        <ele>495</ele>
        <time>2017-04-13T15:13:28.1Z</time>
      </trkpt>
      <trkpt lat="45.80959" lon="4.30261">
        <ele>496</ele>
        <time>2017-04-13T15:13:31.1Z</time>
      </trkpt>
      <trkpt lat="45.80957" lon="4.30265">
        <ele>496</ele>
        <time>2017-04-13T15:13:33.1Z</time>
      </trkpt>
      <trkpt lat="45.80956" lon="4.30268">
        <ele>496</ele>
        <time>2017-04-13T15:13:35.1Z</time>
      </trkpt>
      <trkpt lat="45.80953" lon="4.30274">
        <ele>497</ele>
        <time>2017-04-13T15:13:38.1Z</time>
      </trkpt>
      <trkpt lat="45.80951" lon="4.30277">
        <ele>497</ele>
        <time>2017-04-13T15:13:40.1Z</time>
      </trkpt>
      <trkpt lat="45.80949" lon="4.30281">
        <ele>497</ele>
        <time>2017-04-13T15:13:43.1Z</time>
      </trkpt>
      <trkpt lat="45.80947" lon="4.30286">
        <ele>498</ele>
        <time>2017-04-13T15:13:45.1Z</time>
      </trkpt>
      <trkpt lat="45.80945" lon="4.30289">
        <ele>498</ele>
        <time>2017-04-13T15:13:47.1Z</time>
      </trkpt>
      <trkpt lat="45.80944" lon="4.30292">
        <ele>498</ele>
        <time>2017-04-13T15:13:49.1Z</time>
      </trkpt>
      <trkpt lat="45.80941" lon="4.30296">
        <ele>499</ele>
        <time>2017-04-13T15:13:52.1Z</time>
      </trkpt>
      <trkpt lat="45.8094" lon="4.30299">
        <ele>499</ele>
        <time>2017-04-13T15:13:54.1Z</time>
      </trkpt>
      <trkpt lat="45.80939" lon="4.30301">
        <ele>499</ele>
        <time>2017-04-13T15:13:56.1Z</time>
      </trkpt>
      <trkpt lat="45.80937" lon="4.30305">
        <ele>499</ele>
        <time>2017-04-13T15:13:59.1Z</time>
      </trkpt>
      <trkpt lat="45.80935" lon="4.3031">
        <ele>500</ele>
        <time>2017-04-13T15:14:02.1Z</time>
      </trkpt>
      <trkpt lat="45.80932" lon="4.30314">
        <ele>501</ele>
        <time>2017-04-13T15:14:05.1Z</time>
      </trkpt>
      <trkpt lat="45.8093" lon="4.3032">
        <ele>502</ele>
        <time>2017-04-13T15:14:08.1Z</time>
      </trkpt>
      <trkpt lat="45.80928" lon="4.30323">
        <ele>502</ele>
        <time>2017-04-13T15:14:11.1Z</time>
      </trkpt>
      <trkpt lat="45.80926" lon="4.30328">
        <ele>503</ele>
        <time>2017-04-13T15:14:13.1Z</time>
      </trkpt>
      <trkpt lat="45.80925" lon="4.30331">
        <ele>503</ele>
        <time>2017-04-13T15:14:15.1Z</time>
      </trkpt>
      <trkpt lat="45.80922" lon="4.30335">
        <ele>504</ele>
        <time>2017-04-13T15:14:18.1Z</time>
      </trkpt>
      <trkpt lat="45.8092" lon="4.3034">
        <ele>504</ele>
        <time>2017-04-13T15:14:21.1Z</time>
      </trkpt>
      <trkpt lat="45.80919" lon="4.30343">
        <ele>504</ele>
        <time>2017-04-13T15:14:23.1Z</time>
      </trkpt>
      <trkpt lat="45.80919" lon="4.30347">
        <ele>504</ele>
        <time>2017-04-13T15:14:25.1Z</time>
      </trkpt>
      <trkpt lat="45.80918" lon="4.30351">
        <ele>504</ele>
        <time>2017-04-13T15:14:28.1Z</time>
      </trkpt>
      <trkpt lat="45.80918" lon="4.30355">
        <ele>504</ele>
        <time>2017-04-13T15:14:30.1Z</time>
      </trkpt>
      <trkpt lat="45.80918" lon="4.30359">
        <ele>504</ele>
        <time>2017-04-13T15:14:32.1Z</time>
      </trkpt>
      <trkpt lat="45.80919" lon="4.30362">
        <ele>505</ele>
        <time>2017-04-13T15:14:35.1Z</time>
      </trkpt>
      <trkpt lat="45.80919" lon="4.30368">
        <ele>505</ele>
        <time>2017-04-13T15:14:37.1Z</time>
      </trkpt>
      <trkpt lat="45.8092" lon="4.30373">
        <ele>505</ele>
        <time>2017-04-13T15:14:39.1Z</time>
      </trkpt>
      <trkpt lat="45.8092" lon="4.30378">
        <ele>506</ele>
        <time>2017-04-13T15:14:41.1Z</time>
      </trkpt>
      <trkpt lat="45.8092" lon="4.30383">
        <ele>506</ele>
        <time>2017-04-13T15:14:43.1Z</time>
      </trkpt>
      <trkpt lat="45.80919" lon="4.30392">
        <ele>506</ele>
        <time>2017-04-13T15:14:46.1Z</time>
      </trkpt>
      <trkpt lat="45.8092" lon="4.30397">
        <ele>506</ele>
        <time>2017-04-13T15:14:48.1Z</time>
      </trkpt>
      <trkpt lat="45.8092" lon="4.30401">
        <ele>507</ele>
        <time>2017-04-13T15:14:51.1Z</time>
      </trkpt>
      <trkpt lat="45.8092" lon="4.30408">
        <ele>507</ele>
        <time>2017-04-13T15:14:53.1Z</time>
      </trkpt>
      <trkpt lat="45.80919" lon="4.30416">
        <ele>507</ele>
        <time>2017-04-13T15:14:56.1Z</time>
      </trkpt>
      <trkpt lat="45.80918" lon="4.3042">
        <ele>508</ele>
        <time>2017-04-13T15:14:58.1Z</time>
      </trkpt>
      <trkpt lat="45.80917" lon="4.30427">
        <ele>508</ele>
        <time>2017-04-13T15:15:01.1Z</time>
      </trkpt>
      <trkpt lat="45.80914" lon="4.30433">
        <ele>509</ele>
        <time>2017-04-13T15:15:04.1Z</time>
      </trkpt>
      <trkpt lat="45.80912" lon="4.3044">
        <ele>509</ele>
        <time>2017-04-13T15:15:06.1Z</time>
      </trkpt>
      <trkpt lat="45.80911" lon="4.30444">
        <ele>510</ele>
        <time>2017-04-13T15:15:09.1Z</time>
      </trkpt>
      <trkpt lat="45.8091" lon="4.30449">
        <ele>510</ele>
        <time>2017-04-13T15:15:12.1Z</time>
      </trkpt>
      <trkpt lat="45.8091" lon="4.30452">
        <ele>511</ele>
        <time>2017-04-13T15:15:14.1Z</time>
      </trkpt>
      <trkpt lat="45.8091" lon="4.30456">
        <ele>511</ele>
        <time>2017-04-13T15:15:16.1Z</time>
      </trkpt>
      <trkpt lat="45.80909" lon="4.30462">
        <ele>512</ele>
        <time>2017-04-13T15:15:19.1Z</time>
      </trkpt>
      <trkpt lat="45.80908" lon="4.30467">
        <ele>512</ele>
        <time>2017-04-13T15:15:21.1Z</time>
      </trkpt>
      <trkpt lat="45.80908" lon="4.30471">
        <ele>513</ele>
        <time>2017-04-13T15:15:24.1Z</time>
      </trkpt>
      <trkpt lat="45.80907" lon="4.30476">
        <ele>513</ele>
        <time>2017-04-13T15:15:26.1Z</time>
      </trkpt>
      <trkpt lat="45.80907" lon="4.30483">
        <ele>514</ele>
        <time>2017-04-13T15:15:29.1Z</time>
      </trkpt>
      <trkpt lat="45.80907" lon="4.30488">
        <ele>514</ele>
        <time>2017-04-13T15:15:32.1Z</time>
      </trkpt>
      <trkpt lat="45.80908" lon="4.30492">
        <ele>514</ele>
        <time>2017-04-13T15:15:34.1Z</time>
      </trkpt>
      <trkpt lat="45.80909" lon="4.30495">
        <ele>515</ele>
        <time>2017-04-13T15:15:36.1Z</time>
      </trkpt>
      <trkpt lat="45.80909" lon="4.305">
        <ele>516</ele>
        <time>2017-04-13T15:15:39.1Z</time>
      </trkpt>
      <trkpt lat="45.8091" lon="4.30505">
        <ele>516</ele>
        <time>2017-04-13T15:15:42.1Z</time>
      </trkpt>
      <trkpt lat="45.80911" lon="4.30509">
        <ele>517</ele>
        <time>2017-04-13T15:15:44.1Z</time>
      </trkpt>
      <trkpt lat="45.80912" lon="4.30514">
        <ele>517</ele>
        <time>2017-04-13T15:15:47.1Z</time>
      </trkpt>
      <trkpt lat="45.80912" lon="4.30518">
        <ele>518</ele>
        <time>2017-04-13T15:15:49.1Z</time>
      </trkpt>
      <trkpt lat="45.80912" lon="4.30522">
        <ele>519</ele>
        <time>2017-04-13T15:15:52.1Z</time>
      </trkpt>
      <trkpt lat="45.8091" lon="4.30526">
        <ele>520</ele>
        <time>2017-04-13T15:15:54.1Z</time>
      </trkpt>
      <trkpt lat="45.80908" lon="4.30528">
        <ele>521</ele>
        <time>2017-04-13T15:15:57.1Z</time>
      </trkpt>
      <trkpt lat="45.80907" lon="4.30528">
        <ele>522</ele>
        <time>2017-04-13T15:15:59.1Z</time>
      </trkpt>
      <trkpt lat="45.80905" lon="4.30529">
        <ele>522</ele>
        <time>2017-04-13T15:16:02.1Z</time>
      </trkpt>
      <trkpt lat="45.80904" lon="4.3053">
        <ele>523</ele>
        <time>2017-04-13T15:16:04.1Z</time>
      </trkpt>
      <trkpt lat="45.80901" lon="4.3053">
        <ele>523</ele>
        <time>2017-04-13T15:16:07.1Z</time>
      </trkpt>
      <trkpt lat="45.80899" lon="4.3053">
        <ele>524</ele>
        <time>2017-04-13T15:16:10.1Z</time>
      </trkpt>
      <trkpt lat="45.80896" lon="4.30529">
        <ele>524</ele>
        <time>2017-04-13T15:16:12.1Z</time>
      </trkpt>
      <trkpt lat="45.80894" lon="4.30528">
        <ele>525</ele>
        <time>2017-04-13T15:16:15.1Z</time>
      </trkpt>
      <trkpt lat="45.80892" lon="4.30529">
        <ele>525</ele>
        <time>2017-04-13T15:16:17.1Z</time>
      </trkpt>
      <trkpt lat="45.8089" lon="4.30529">
        <ele>526</ele>
        <time>2017-04-13T15:16:19.1Z</time>
      </trkpt>
      <trkpt lat="45.80884" lon="4.30528">
        <ele>526</ele>
        <time>2017-04-13T15:16:21.1Z</time>
      </trkpt>
      <trkpt lat="45.80877" lon="4.30527">
        <ele>526</ele>
        <time>2017-04-13T15:16:23.1Z</time>
      </trkpt>
      <trkpt lat="45.80869" lon="4.30527">
        <ele>526</ele>
        <time>2017-04-13T15:16:26.1Z</time>
      </trkpt>
      <trkpt lat="45.8086" lon="4.30529">
        <ele>526</ele>
        <time>2017-04-13T15:16:28.1Z</time>
      </trkpt>
      <trkpt lat="45.80854" lon="4.30531">
        <ele>527</ele>
        <time>2017-04-13T15:16:30.1Z</time>
      </trkpt>
      <trkpt lat="45.80841" lon="4.30531">
        <ele>527</ele>
        <time>2017-04-13T15:16:33.1Z</time>
      </trkpt>
      <trkpt lat="45.80833" lon="4.30531">
        <ele>527</ele>
        <time>2017-04-13T15:16:35.1Z</time>
      </trkpt>
      <trkpt lat="45.8082" lon="4.30534">
        <ele>528</ele>
        <time>2017-04-13T15:16:38.1Z</time>
      </trkpt>
      <trkpt lat="45.8081" lon="4.30534">
        <ele>528</ele>
        <time>2017-04-13T15:16:40.1Z</time>
      </trkpt>
      <trkpt lat="45.80801" lon="4.30532">
        <ele>529</ele>
        <time>2017-04-13T15:16:42.1Z</time>
      </trkpt>
      <trkpt lat="45.80793" lon="4.30532">
        <ele>529</ele>
        <time>2017-04-13T15:16:44.1Z</time>
      </trkpt>
      <trkpt lat="45.80787" lon="4.30531">
        <ele>529</ele>
        <time>2017-04-13T15:16:47.1Z</time>
      </trkpt>
      <trkpt lat="45.8078" lon="4.3053">
        <ele>530</ele>
        <time>2017-04-13T15:16:49.1Z</time>
      </trkpt>
      <trkpt lat="45.80775" lon="4.30528">
        <ele>530</ele>
        <time>2017-04-13T15:16:52.1Z</time>
      </trkpt>
      <trkpt lat="45.80772" lon="4.30527">
        <ele>531</ele>
        <time>2017-04-13T15:16:54.1Z</time>
      </trkpt>
      <trkpt lat="45.80768" lon="4.30526">
        <ele>531</ele>
        <time>2017-04-13T15:16:56.1Z</time>
      </trkpt>
      <trkpt lat="45.80763" lon="4.30525">
        <ele>531</ele>
        <time>2017-04-13T15:16:59.1Z</time>
      </trkpt>
      <trkpt lat="45.80759" lon="4.30525">
        <ele>532</ele>
        <time>2017-04-13T15:17:01.1Z</time>
      </trkpt>
      <trkpt lat="45.80756" lon="4.30526">
        <ele>532</ele>
        <time>2017-04-13T15:17:03.1Z</time>
      </trkpt>
      <trkpt lat="45.80753" lon="4.30526">
        <ele>532</ele>
        <time>2017-04-13T15:17:05.1Z</time>
      </trkpt>
      <trkpt lat="45.80749" lon="4.30526">
        <ele>532</ele>
        <time>2017-04-13T15:17:08.1Z</time>
      </trkpt>
      <trkpt lat="45.80746" lon="4.30526">
        <ele>532</ele>
        <time>2017-04-13T15:17:10.1Z</time>
      </trkpt>
      <trkpt lat="45.8074" lon="4.30528">
        <ele>532</ele>
        <time>2017-04-13T15:17:12.1Z</time>
      </trkpt>
      <trkpt lat="45.80737" lon="4.30529">
        <ele>532</ele>
        <time>2017-04-13T15:17:14.1Z</time>
      </trkpt>
      <trkpt lat="45.80732" lon="4.3053">
        <ele>533</ele>
        <time>2017-04-13T15:17:17.1Z</time>
      </trkpt>
      <trkpt lat="45.80727" lon="4.30533">
        <ele>533</ele>
        <time>2017-04-13T15:17:20.1Z</time>
      </trkpt>
      <trkpt lat="45.80724" lon="4.30534">
        <ele>533</ele>
        <time>2017-04-13T15:17:22.1Z</time>
      </trkpt>
      <trkpt lat="45.80719" lon="4.30536">
        <ele>532</ele>
        <time>2017-04-13T15:17:25.1Z</time>
      </trkpt>
      <trkpt lat="45.80716" lon="4.30537">
        <ele>533</ele>
        <time>2017-04-13T15:17:28.1Z</time>
      </trkpt>
      <trkpt lat="45.80711" lon="4.30539">
        <ele>532</ele>
        <time>2017-04-13T15:17:30.1Z</time>
      </trkpt>
      <trkpt lat="45.80709" lon="4.30541">
        <ele>532</ele>
        <time>2017-04-13T15:17:32.1Z</time>
      </trkpt>
      <trkpt lat="45.80706" lon="4.30543">
        <ele>532</ele>
        <time>2017-04-13T15:17:34.1Z</time>
      </trkpt>
      <trkpt lat="45.80703" lon="4.30545">
        <ele>532</ele>
        <time>2017-04-13T15:17:36.1Z</time>
      </trkpt>
      <trkpt lat="45.807" lon="4.30547">
        <ele>532</ele>
        <time>2017-04-13T15:17:38.1Z</time>
      </trkpt>
      <trkpt lat="45.80697" lon="4.30549">
        <ele>532</ele>
        <time>2017-04-13T15:17:40.1Z</time>
      </trkpt>
      <trkpt lat="45.80695" lon="4.30552">
        <ele>532</ele>
        <time>2017-04-13T15:17:43.1Z</time>
      </trkpt>
      <trkpt lat="45.8069" lon="4.30555">
        <ele>532</ele>
        <time>2017-04-13T15:17:45.1Z</time>
      </trkpt>
      <trkpt lat="45.80686" lon="4.30558">
        <ele>531</ele>
        <time>2017-04-13T15:17:48.1Z</time>
      </trkpt>
      <trkpt lat="45.80682" lon="4.30562">
        <ele>531</ele>
        <time>2017-04-13T15:17:51.1Z</time>
      </trkpt>
      <trkpt lat="45.80679" lon="4.30564">
        <ele>531</ele>
        <time>2017-04-13T15:17:53.1Z</time>
      </trkpt>
      <trkpt lat="45.80676" lon="4.30566">
        <ele>531</ele>
        <time>2017-04-13T15:17:56.1Z</time>
      </trkpt>
      <trkpt lat="45.80672" lon="4.30569">
        <ele>531</ele>
        <time>2017-04-13T15:17:58.1Z</time>
      </trkpt>
      <trkpt lat="45.8067" lon="4.30571">
        <ele>530</ele>
        <time>2017-04-13T15:18:00.1Z</time>
      </trkpt>
      <trkpt lat="45.80666" lon="4.30574">
        <ele>531</ele>
        <time>2017-04-13T15:18:03.1Z</time>
      </trkpt>
      <trkpt lat="45.80663" lon="4.30577">
        <ele>531</ele>
        <time>2017-04-13T15:18:06.1Z</time>
      </trkpt>
      <trkpt lat="45.8066" lon="4.30579">
        <ele>530</ele>
        <time>2017-04-13T15:18:09.1Z</time>
      </trkpt>
      <trkpt lat="45.80658" lon="4.30581">
        <ele>530</ele>
        <time>2017-04-13T15:18:11.1Z</time>
      </trkpt>
      <trkpt lat="45.80654" lon="4.30584">
        <ele>530</ele>
        <time>2017-04-13T15:18:14.1Z</time>
      </trkpt>
      <trkpt lat="45.8065" lon="4.30587">
        <ele>530</ele>
        <time>2017-04-13T15:18:17.1Z</time>
      </trkpt>
      <trkpt lat="45.8065" lon="4.30587">
        <ele>530</ele>
        <time>2017-04-13T15:18:19.1Z</time>
      </trkpt>
      <trkpt lat="45.80648" lon="4.30588">
        <ele>530</ele>
        <time>2017-04-13T15:18:22.1Z</time>
      </trkpt>
      <trkpt lat="45.80647" lon="4.30591">
        <ele>530</ele>
        <time>2017-04-13T15:18:24.1Z</time>
      </trkpt>
      <trkpt lat="45.80643" lon="4.30595">
        <ele>530</ele>
        <time>2017-04-13T15:18:27.1Z</time>
      </trkpt>
      <trkpt lat="45.8064" lon="4.30599">
        <ele>530</ele>
        <time>2017-04-13T15:18:30.1Z</time>
      </trkpt>
      <trkpt lat="45.80637" lon="4.30604">
        <ele>530</ele>
        <time>2017-04-13T15:18:33.1Z</time>
      </trkpt>
      <trkpt lat="45.80634" lon="4.30608">
        <ele>530</ele>
        <time>2017-04-13T15:18:36.1Z</time>
      </trkpt>
      <trkpt lat="45.80632" lon="4.30611">
        <ele>530</ele>
        <time>2017-04-13T15:18:38.1Z</time>
      </trkpt>
      <trkpt lat="45.8063" lon="4.30614">
        <ele>530</ele>
        <time>2017-04-13T15:18:40.1Z</time>
      </trkpt>
      <trkpt lat="45.80627" lon="4.30618">
        <ele>530</ele>
        <time>2017-04-13T15:18:43.1Z</time>
      </trkpt>
      <trkpt lat="45.80623" lon="4.30622">
        <ele>530</ele>
        <time>2017-04-13T15:18:46.1Z</time>
      </trkpt>
      <trkpt lat="45.80621" lon="4.30625">
        <ele>530</ele>
        <time>2017-04-13T15:18:48.1Z</time>
      </trkpt>
      <trkpt lat="45.80619" lon="4.30629">
        <ele>531</ele>
        <time>2017-04-13T15:18:51.1Z</time>
      </trkpt>
      <trkpt lat="45.80617" lon="4.30632">
        <ele>531</ele>
        <time>2017-04-13T15:18:53.1Z</time>
      </trkpt>
      <trkpt lat="45.80616" lon="4.30634">
        <ele>531</ele>
        <time>2017-04-13T15:18:55.1Z</time>
      </trkpt>
      <trkpt lat="45.80613" lon="4.30638">
        <ele>531</ele>
        <time>2017-04-13T15:18:58.1Z</time>
      </trkpt>
      <trkpt lat="45.8061" lon="4.30643">
        <ele>531</ele>
        <time>2017-04-13T15:19:01.1Z</time>
      </trkpt>
      <trkpt lat="45.80606" lon="4.30647">
        <ele>531</ele>
        <time>2017-04-13T15:19:04.1Z</time>
      </trkpt>
      <trkpt lat="45.80604" lon="4.30649">
        <ele>531</ele>
        <time>2017-04-13T15:19:06.1Z</time>
      </trkpt>
      <trkpt lat="45.80602" lon="4.30652">
        <ele>531</ele>
        <time>2017-04-13T15:19:08.1Z</time>
      </trkpt>
      <trkpt lat="45.80599" lon="4.30655">
        <ele>531</ele>
        <time>2017-04-13T15:19:10.1Z</time>
      </trkpt>
      <trkpt lat="45.80596" lon="4.30659">
        <ele>531</ele>
        <time>2017-04-13T15:19:13.1Z</time>
      </trkpt>
      <trkpt lat="45.80593" lon="4.30663">
        <ele>532</ele>
        <time>2017-04-13T15:19:16.1Z</time>
      </trkpt>
      <trkpt lat="45.8059" lon="4.30666">
        <ele>532</ele>
        <time>2017-04-13T15:19:19.1Z</time>
      </trkpt>
      <trkpt lat="45.80587" lon="4.30671">
        <ele>532</ele>
        <time>2017-04-13T15:19:22.1Z</time>
      </trkpt>
      <trkpt lat="45.80586" lon="4.30673">
        <ele>532</ele>
        <time>2017-04-13T15:19:24.1Z</time>
      </trkpt>
      <trkpt lat="45.80583" lon="4.30678">
        <ele>532</ele>
        <time>2017-04-13T15:19:27.1Z</time>
      </trkpt>
      <trkpt lat="45.8058" lon="4.30682">
        <ele>533</ele>
        <time>2017-04-13T15:19:30.1Z</time>
      </trkpt>
      <trkpt lat="45.80578" lon="4.30684">
        <ele>533</ele>
        <time>2017-04-13T15:19:32.1Z</time>
      </trkpt>
      <trkpt lat="45.80574" lon="4.30689">
        <ele>533</ele>
        <time>2017-04-13T15:19:35.1Z</time>
      </trkpt>
      <trkpt lat="45.80573" lon="4.30692">
        <ele>533</ele>
        <time>2017-04-13T15:19:37.1Z</time>
      </trkpt>
      <trkpt lat="45.80572" lon="4.30695">
        <ele>533</ele>
        <time>2017-04-13T15:19:39.1Z</time>
      </trkpt>
      <trkpt lat="45.80571" lon="4.30701">
        <ele>534</ele>
        <time>2017-04-13T15:19:42.1Z</time>
      </trkpt>
      <trkpt lat="45.80571" lon="4.30708">
        <ele>535</ele>
        <time>2017-04-13T15:19:45.1Z</time>
      </trkpt>
      <trkpt lat="45.8057" lon="4.30713">
        <ele>535</ele>
        <time>2017-04-13T15:19:47.1Z</time>
      </trkpt>
      <trkpt lat="45.80568" lon="4.30719">
        <ele>535</ele>
        <time>2017-04-13T15:19:50.1Z</time>
      </trkpt>
      <trkpt lat="45.80568" lon="4.30723">
        <ele>535</ele>
        <time>2017-04-13T15:19:52.1Z</time>
      </trkpt>
      <trkpt lat="45.80567" lon="4.30727">
        <ele>536</ele>
        <time>2017-04-13T15:19:54.1Z</time>
      </trkpt>
      <trkpt lat="45.80566" lon="4.30732">
        <ele>536</ele>
        <time>2017-04-13T15:19:57.1Z</time>
      </trkpt>
      <trkpt lat="45.80566" lon="4.30738">
        <ele>537</ele>
        <time>2017-04-13T15:20:00.1Z</time>
      </trkpt>
      <trkpt lat="45.80565" lon="4.30742">
        <ele>537</ele>
        <time>2017-04-13T15:20:02.1Z</time>
      </trkpt>
      <trkpt lat="45.80564" lon="4.30746">
        <ele>538</ele>
        <time>2017-04-13T15:20:04.1Z</time>
      </trkpt>
      <trkpt lat="45.80563" lon="4.3075">
        <ele>538</ele>
        <time>2017-04-13T15:20:06.1Z</time>
      </trkpt>
      <trkpt lat="45.80563" lon="4.30754">
        <ele>539</ele>
        <time>2017-04-13T15:20:09.1Z</time>
      </trkpt>
      <trkpt lat="45.80562" lon="4.3076">
        <ele>539</ele>
        <time>2017-04-13T15:20:11.1Z</time>
      </trkpt>
      <trkpt lat="45.80562" lon="4.30764">
        <ele>539</ele>
        <time>2017-04-13T15:20:13.1Z</time>
      </trkpt>
      <trkpt lat="45.80561" lon="4.30771">
        <ele>540</ele>
        <time>2017-04-13T15:20:16.1Z</time>
      </trkpt>
      <trkpt lat="45.8056" lon="4.30776">
        <ele>540</ele>
        <time>2017-04-13T15:20:18.1Z</time>
      </trkpt>
      <trkpt lat="45.80559" lon="4.3078">
        <ele>540</ele>
        <time>2017-04-13T15:20:20.1Z</time>
      </trkpt>
      <trkpt lat="45.80558" lon="4.30787">
        <ele>541</ele>
        <time>2017-04-13T15:20:23.1Z</time>
      </trkpt>
      <trkpt lat="45.80557" lon="4.30793">
        <ele>541</ele>
        <time>2017-04-13T15:20:26.1Z</time>
      </trkpt>
      <trkpt lat="45.80556" lon="4.308">
        <ele>541</ele>
        <time>2017-04-13T15:20:29.1Z</time>
      </trkpt>
      <trkpt lat="45.80556" lon="4.30804">
        <ele>541</ele>
        <time>2017-04-13T15:20:31.1Z</time>
      </trkpt>
      <trkpt lat="45.80555" lon="4.30808">
        <ele>541</ele>
        <time>2017-04-13T15:20:33.1Z</time>
      </trkpt>
      <trkpt lat="45.80555" lon="4.30812">
        <ele>541</ele>
        <time>2017-04-13T15:20:35.1Z</time>
      </trkpt>
      <trkpt lat="45.80555" lon="4.30817">
        <ele>542</ele>
        <time>2017-04-13T15:20:38.1Z</time>
      </trkpt>
      <trkpt lat="45.80555" lon="4.30824">
        <ele>542</ele>
        <time>2017-04-13T15:20:40.1Z</time>
      </trkpt>
      <trkpt lat="45.80554" lon="4.30828">
        <ele>543</ele>
        <time>2017-04-13T15:20:42.1Z</time>
      </trkpt>
      <trkpt lat="45.80555" lon="4.3083">
        <ele>543</ele>
        <time>2017-04-13T15:20:44.1Z</time>
      </trkpt>
      <trkpt lat="45.80555" lon="4.3083">
        <ele>543</ele>
        <time>2017-04-13T15:20:46.1Z</time>
      </trkpt>
      <trkpt lat="45.80554" lon="4.30831">
        <ele>543</ele>
        <time>2017-04-13T15:20:48.1Z</time>
      </trkpt>
      <trkpt lat="45.80555" lon="4.3083">
        <ele>543</ele>
        <time>2017-04-13T15:20:52.1Z</time>
      </trkpt>
      <trkpt lat="45.80555" lon="4.30831">
        <ele>544</ele>
        <time>2017-04-13T15:20:54.1Z</time>
      </trkpt>
      <trkpt lat="45.80555" lon="4.30831">
        <ele>544</ele>
        <time>2017-04-13T15:20:56.1Z</time>
      </trkpt>
      <trkpt lat="45.80555" lon="4.30831">
        <ele>543</ele>
        <time>2017-04-13T15:20:59.1Z</time>
      </trkpt>
      <trkpt lat="45.80555" lon="4.3083">
        <ele>543</ele>
        <time>2017-04-13T15:21:01.1Z</time>
      </trkpt>
      <trkpt lat="45.80556" lon="4.3083">
        <ele>543</ele>
        <time>2017-04-13T15:21:03.1Z</time>
      </trkpt>
      <trkpt lat="45.80556" lon="4.30832">
        <ele>543</ele>
        <time>2017-04-13T15:21:05.1Z</time>
      </trkpt>
      <trkpt lat="45.80556" lon="4.30837">
        <ele>543</ele>
        <time>2017-04-13T15:21:08.1Z</time>
      </trkpt>
      <trkpt lat="45.80555" lon="4.30842">
        <ele>543</ele>
        <time>2017-04-13T15:21:11.1Z</time>
      </trkpt>
      <trkpt lat="45.80555" lon="4.30846">
        <ele>543</ele>
        <time>2017-04-13T15:21:13.1Z</time>
      </trkpt>
      <trkpt lat="45.80555" lon="4.30852">
        <ele>543</ele>
        <time>2017-04-13T15:21:16.1Z</time>
      </trkpt>
      <trkpt lat="45.80556" lon="4.30856">
        <ele>544</ele>
        <time>2017-04-13T15:21:19.1Z</time>
      </trkpt>
      <trkpt lat="45.80558" lon="4.30861">
        <ele>544</ele>
        <time>2017-04-13T15:21:21.1Z</time>
      </trkpt>
      <trkpt lat="45.80559" lon="4.30865">
        <ele>544</ele>
        <time>2017-04-13T15:21:23.1Z</time>
      </trkpt>
      <trkpt lat="45.80561" lon="4.30869">
        <ele>544</ele>
        <time>2017-04-13T15:21:25.1Z</time>
      </trkpt>
      <trkpt lat="45.80562" lon="4.30873">
        <ele>544</ele>
        <time>2017-04-13T15:21:27.1Z</time>
      </trkpt>
      <trkpt lat="45.80564" lon="4.30877">
        <ele>544</ele>
        <time>2017-04-13T15:21:29.1Z</time>
      </trkpt>
      <trkpt lat="45.80565" lon="4.30881">
        <ele>544</ele>
        <time>2017-04-13T15:21:31.1Z</time>
      </trkpt>
      <trkpt lat="45.80567" lon="4.30885">
        <ele>544</ele>
        <time>2017-04-13T15:21:33.1Z</time>
      </trkpt>
      <trkpt lat="45.8057" lon="4.30891">
        <ele>544</ele>
        <time>2017-04-13T15:21:36.1Z</time>
      </trkpt>
      <trkpt lat="45.80572" lon="4.30895">
        <ele>544</ele>
        <time>2017-04-13T15:21:38.1Z</time>
      </trkpt>
      <trkpt lat="45.80574" lon="4.30898">
        <ele>544</ele>
        <time>2017-04-13T15:21:40.1Z</time>
      </trkpt>
      <trkpt lat="45.80575" lon="4.30902">
        <ele>544</ele>
        <time>2017-04-13T15:21:42.1Z</time>
      </trkpt>
      <trkpt lat="45.80576" lon="4.30906">
        <ele>544</ele>
        <time>2017-04-13T15:21:44.1Z</time>
      </trkpt>
      <trkpt lat="45.80578" lon="4.3091">
        <ele>544</ele>
        <time>2017-04-13T15:21:46.1Z</time>
      </trkpt>
      <trkpt lat="45.8058" lon="4.30913">
        <ele>544</ele>
        <time>2017-04-13T15:21:48.1Z</time>
      </trkpt>
      <trkpt lat="45.80581" lon="4.30917">
        <ele>544</ele>
        <time>2017-04-13T15:21:51.1Z</time>
      </trkpt>
      <trkpt lat="45.80583" lon="4.30922">
        <ele>544</ele>
        <time>2017-04-13T15:21:53.1Z</time>
      </trkpt>
      <trkpt lat="45.80585" lon="4.30926">
        <ele>545</ele>
        <time>2017-04-13T15:21:55.1Z</time>
      </trkpt>
      <trkpt lat="45.80587" lon="4.3093">
        <ele>545</ele>
        <time>2017-04-13T15:21:57.1Z</time>
      </trkpt>
      <trkpt lat="45.80588" lon="4.30934">
        <ele>545</ele>
        <time>2017-04-13T15:21:59.1Z</time>
      </trkpt>
      <trkpt lat="45.8059" lon="4.30937">
        <ele>545</ele>
        <time>2017-04-13T15:22:01.1Z</time>
      </trkpt>
      <trkpt lat="45.80592" lon="4.30941">
        <ele>545</ele>
        <time>2017-04-13T15:22:03.1Z</time>
      </trkpt>
      <trkpt lat="45.80594" lon="4.30944">
        <ele>545</ele>
        <time>2017-04-13T15:22:06.1Z</time>
      </trkpt>
      <trkpt lat="45.80597" lon="4.30949">
        <ele>545</ele>
        <time>2017-04-13T15:22:08.1Z</time>
      </trkpt>
      <trkpt lat="45.80599" lon="4.30953">
        <ele>545</ele>
        <time>2017-04-13T15:22:10.1Z</time>
      </trkpt>
      <trkpt lat="45.806" lon="4.30956">
        <ele>545</ele>
        <time>2017-04-13T15:22:12.1Z</time>
      </trkpt>
      <trkpt lat="45.80602" lon="4.3096">
        <ele>545</ele>
        <time>2017-04-13T15:22:14.1Z</time>
      </trkpt>
      <trkpt lat="45.80604" lon="4.30963">
        <ele>546</ele>
        <time>2017-04-13T15:22:16.1Z</time>
      </trkpt>
      <trkpt lat="45.80606" lon="4.30967">
        <ele>545</ele>
        <time>2017-04-13T15:22:19.1Z</time>
      </trkpt>
      <trkpt lat="45.80608" lon="4.30972">
        <ele>546</ele>
        <time>2017-04-13T15:22:21.1Z</time>
      </trkpt>
      <trkpt lat="45.8061" lon="4.30975">
        <ele>546</ele>
        <time>2017-04-13T15:22:23.1Z</time>
      </trkpt>
      <trkpt lat="45.80612" lon="4.30978">
        <ele>546</ele>
        <time>2017-04-13T15:22:25.1Z</time>
      </trkpt>
      <trkpt lat="45.80614" lon="4.30981">
        <ele>546</ele>
        <time>2017-04-13T15:22:27.1Z</time>
      </trkpt>
      <trkpt lat="45.80616" lon="4.30984">
        <ele>546</ele>
        <time>2017-04-13T15:22:29.1Z</time>
      </trkpt>
      <trkpt lat="45.80618" lon="4.30987">
        <ele>546</ele>
        <time>2017-04-13T15:22:31.1Z</time>
      </trkpt>
      <trkpt lat="45.80621" lon="4.30991">
        <ele>546</ele>
        <time>2017-04-13T15:22:34.1Z</time>
      </trkpt>
      <trkpt lat="45.80623" lon="4.30994">
        <ele>546</ele>
        <time>2017-04-13T15:22:36.1Z</time>
      </trkpt>
      <trkpt lat="45.80625" lon="4.30997">
        <ele>546</ele>
        <time>2017-04-13T15:22:38.1Z</time>
      </trkpt>
      <trkpt lat="45.80627" lon="4.31">
        <ele>546</ele>
        <time>2017-04-13T15:22:40.1Z</time>
      </trkpt>
      <trkpt lat="45.80629" lon="4.31003">
        <ele>546</ele>
        <time>2017-04-13T15:22:42.1Z</time>
      </trkpt>
      <trkpt lat="45.80632" lon="4.31006">
        <ele>546</ele>
        <time>2017-04-13T15:22:44.1Z</time>
      </trkpt>
      <trkpt lat="45.80636" lon="4.31011">
        <ele>546</ele>
        <time>2017-04-13T15:22:47.1Z</time>
      </trkpt>
      <trkpt lat="45.80639" lon="4.31013">
        <ele>546</ele>
        <time>2017-04-13T15:22:49.1Z</time>
      </trkpt>
      <trkpt lat="45.80643" lon="4.31018">
        <ele>546</ele>
        <time>2017-04-13T15:22:52.1Z</time>
      </trkpt>
      <trkpt lat="45.80645" lon="4.31022">
        <ele>546</ele>
        <time>2017-04-13T15:22:54.1Z</time>
      </trkpt>
      <trkpt lat="45.80648" lon="4.31025">
        <ele>545</ele>
        <time>2017-04-13T15:22:56.1Z</time>
      </trkpt>
      <trkpt lat="45.8065" lon="4.31028">
        <ele>545</ele>
        <time>2017-04-13T15:22:59.1Z</time>
      </trkpt>
      <trkpt lat="45.80654" lon="4.31032">
        <ele>545</ele>
        <time>2017-04-13T15:23:01.1Z</time>
      </trkpt>
      <trkpt lat="45.80658" lon="4.31036">
        <ele>545</ele>
        <time>2017-04-13T15:23:04.1Z</time>
      </trkpt>
      <trkpt lat="45.80661" lon="4.31038">
        <ele>544</ele>
        <time>2017-04-13T15:23:06.1Z</time>
      </trkpt>
      <trkpt lat="45.80664" lon="4.31039">
        <ele>544</ele>
        <time>2017-04-13T15:23:08.1Z</time>
      </trkpt>
      <trkpt lat="45.80667" lon="4.31041">
        <ele>543</ele>
        <time>2017-04-13T15:23:11.1Z</time>
      </trkpt>
      <trkpt lat="45.80671" lon="4.31043">
        <ele>542</ele>
        <time>2017-04-13T15:23:14.1Z</time>
      </trkpt>
      <trkpt lat="45.80674" lon="4.31044">
        <ele>542</ele>
        <time>2017-04-13T15:23:16.1Z</time>
      </trkpt>
      <trkpt lat="45.80677" lon="4.31045">
        <ele>541</ele>
        <time>2017-04-13T15:23:18.1Z</time>
      </trkpt>
      <trkpt lat="45.80681" lon="4.31047">
        <ele>541</ele>
        <time>2017-04-13T15:23:21.1Z</time>
      </trkpt>
      <trkpt lat="45.80684" lon="4.31049">
        <ele>540</ele>
        <time>2017-04-13T15:23:23.1Z</time>
      </trkpt>
      <trkpt lat="45.80687" lon="4.31049">
        <ele>540</ele>
        <time>2017-04-13T15:23:26.1Z</time>
      </trkpt>
      <trkpt lat="45.80691" lon="4.3105">
        <ele>540</ele>
        <time>2017-04-13T15:23:28.1Z</time>
      </trkpt>
      <trkpt lat="45.80694" lon="4.31051">
        <ele>539</ele>
        <time>2017-04-13T15:23:30.1Z</time>
      </trkpt>
      <trkpt lat="45.80699" lon="4.31053">
        <ele>539</ele>
        <time>2017-04-13T15:23:33.1Z</time>
      </trkpt>
      <trkpt lat="45.80702" lon="4.31053">
        <ele>538</ele>
        <time>2017-04-13T15:23:35.1Z</time>
      </trkpt>
      <trkpt lat="45.80707" lon="4.31054">
        <ele>538</ele>
        <time>2017-04-13T15:23:38.1Z</time>
      </trkpt>
      <trkpt lat="45.80712" lon="4.31057">
        <ele>538</ele>
        <time>2017-04-13T15:23:41.1Z</time>
      </trkpt>
      <trkpt lat="45.80716" lon="4.31058">
        <ele>538</ele>
        <time>2017-04-13T15:23:44.1Z</time>
      </trkpt>
      <trkpt lat="45.80719" lon="4.31059">
        <ele>538</ele>
        <time>2017-04-13T15:23:46.1Z</time>
      </trkpt>
      <trkpt lat="45.80721" lon="4.31059">
        <ele>537</ele>
        <time>2017-04-13T15:23:48.1Z</time>
      </trkpt>
      <trkpt lat="45.80725" lon="4.31061">
        <ele>537</ele>
        <time>2017-04-13T15:23:51.1Z</time>
      </trkpt>
      <trkpt lat="45.80728" lon="4.31061">
        <ele>537</ele>
        <time>2017-04-13T15:23:53.1Z</time>
      </trkpt>
      <trkpt lat="45.8073" lon="4.31062">
        <ele>536</ele>
        <time>2017-04-13T15:23:55.1Z</time>
      </trkpt>
      <trkpt lat="45.80733" lon="4.31062">
        <ele>536</ele>
        <time>2017-04-13T15:23:57.1Z</time>
      </trkpt>
      <trkpt lat="45.80737" lon="4.31063">
        <ele>536</ele>
        <time>2017-04-13T15:24:00.1Z</time>
      </trkpt>
      <trkpt lat="45.80742" lon="4.31063">
        <ele>535</ele>
        <time>2017-04-13T15:24:03.1Z</time>
      </trkpt>
      <trkpt lat="45.80745" lon="4.31063">
        <ele>535</ele>
        <time>2017-04-13T15:24:06.1Z</time>
      </trkpt>
      <trkpt lat="45.80748" lon="4.31063">
        <ele>535</ele>
        <time>2017-04-13T15:24:08.1Z</time>
      </trkpt>
      <trkpt lat="45.8075" lon="4.31063">
        <ele>534</ele>
        <time>2017-04-13T15:24:10.1Z</time>
      </trkpt>
      <trkpt lat="45.80754" lon="4.31065">
        <ele>534</ele>
        <time>2017-04-13T15:24:13.1Z</time>
      </trkpt>
      <trkpt lat="45.80757" lon="4.31066">
        <ele>533</ele>
        <time>2017-04-13T15:24:15.1Z</time>
      </trkpt>
      <trkpt lat="45.80761" lon="4.31069">
        <ele>533</ele>
        <time>2017-04-13T15:24:18.1Z</time>
      </trkpt>
      <trkpt lat="45.80765" lon="4.31071">
        <ele>533</ele>
        <time>2017-04-13T15:24:20.1Z</time>
      </trkpt>
      <trkpt lat="45.80769" lon="4.31074">
        <ele>532</ele>
        <time>2017-04-13T15:24:23.1Z</time>
      </trkpt>
      <trkpt lat="45.80772" lon="4.31076">
        <ele>532</ele>
        <time>2017-04-13T15:24:25.1Z</time>
      </trkpt>
      <trkpt lat="45.80775" lon="4.31079">
        <ele>532</ele>
        <time>2017-04-13T15:24:28.1Z</time>
      </trkpt>
      <trkpt lat="45.8078" lon="4.31083">
        <ele>532</ele>
        <time>2017-04-13T15:24:30.1Z</time>
      </trkpt>
      <trkpt lat="45.80782" lon="4.31085">
        <ele>532</ele>
        <time>2017-04-13T15:24:32.1Z</time>
      </trkpt>
      <trkpt lat="45.80785" lon="4.31089">
        <ele>532</ele>
        <time>2017-04-13T15:24:35.1Z</time>
      </trkpt>
      <trkpt lat="45.80788" lon="4.31093">
        <ele>532</ele>
        <time>2017-04-13T15:24:38.1Z</time>
      </trkpt>
      <trkpt lat="45.80788" lon="4.31094">
        <ele>532</ele>
        <time>2017-04-13T15:24:40.1Z</time>
      </trkpt>
      <trkpt lat="45.80788" lon="4.31095">
        <ele>532</ele>
        <time>2017-04-13T15:24:43.1Z</time>
      </trkpt>
      <trkpt lat="45.80788" lon="4.31095">
        <ele>532</ele>
        <time>2017-04-13T15:24:45.1Z</time>
      </trkpt>
      <trkpt lat="45.80788" lon="4.31096">
        <ele>531</ele>
        <time>2017-04-13T15:24:48.1Z</time>
      </trkpt>
      <trkpt lat="45.80788" lon="4.31097">
        <ele>532</ele>
        <time>2017-04-13T15:24:50.1Z</time>
      </trkpt>
      <trkpt lat="45.80789" lon="4.31098">
        <ele>531</ele>
        <time>2017-04-13T15:24:53.1Z</time>
      </trkpt>
      <trkpt lat="45.80791" lon="4.311">
        <ele>531</ele>
        <time>2017-04-13T15:24:55.1Z</time>
      </trkpt>
      <trkpt lat="45.80793" lon="4.31105">
        <ele>532</ele>
        <time>2017-04-13T15:24:58.1Z</time>
      </trkpt>
      <trkpt lat="45.80795" lon="4.3111">
        <ele>532</ele>
        <time>2017-04-13T15:25:01.1Z</time>
      </trkpt>
      <trkpt lat="45.80797" lon="4.31116">
        <ele>532</ele>
        <time>2017-04-13T15:25:04.1Z</time>
      </trkpt>
      <trkpt lat="45.80799" lon="4.31121">
        <ele>531</ele>
        <time>2017-04-13T15:25:07.1Z</time>
      </trkpt>
      <trkpt lat="45.808" lon="4.31125">
        <ele>531</ele>
        <time>2017-04-13T15:25:09.1Z</time>
      </trkpt>
      <trkpt lat="45.80801" lon="4.31129">
        <ele>531</ele>
        <time>2017-04-13T15:25:11.1Z</time>
      </trkpt>
      <trkpt lat="45.80802" lon="4.31133">
        <ele>531</ele>
        <time>2017-04-13T15:25:13.1Z</time>
      </trkpt>
      <trkpt lat="45.80802" lon="4.31137">
        <ele>532</ele>
        <time>2017-04-13T15:25:15.1Z</time>
      </trkpt>
      <trkpt lat="45.80803" lon="4.31141">
        <ele>532</ele>
        <time>2017-04-13T15:25:18.1Z</time>
      </trkpt>
      <trkpt lat="45.80804" lon="4.31147">
        <ele>531</ele>
        <time>2017-04-13T15:25:20.1Z</time>
      </trkpt>
      <trkpt lat="45.80805" lon="4.31151">
        <ele>531</ele>
        <time>2017-04-13T15:25:22.1Z</time>
      </trkpt>
      <trkpt lat="45.80806" lon="4.31155">
        <ele>531</ele>
        <time>2017-04-13T15:25:24.1Z</time>
      </trkpt>
      <trkpt lat="45.80807" lon="4.31159">
        <ele>532</ele>
        <time>2017-04-13T15:25:26.1Z</time>
      </trkpt>
      <trkpt lat="45.80808" lon="4.31164">
        <ele>532</ele>
        <time>2017-04-13T15:25:28.1Z</time>
      </trkpt>
      <trkpt lat="45.80809" lon="4.31168">
        <ele>532</ele>
        <time>2017-04-13T15:25:31.1Z</time>
      </trkpt>
      <trkpt lat="45.80811" lon="4.31174">
        <ele>532</ele>
        <time>2017-04-13T15:25:33.1Z</time>
      </trkpt>
      <trkpt lat="45.80812" lon="4.31179">
        <ele>532</ele>
        <time>2017-04-13T15:25:35.1Z</time>
      </trkpt>
      <trkpt lat="45.80813" lon="4.31183">
        <ele>532</ele>
        <time>2017-04-13T15:25:37.1Z</time>
      </trkpt>
      <trkpt lat="45.80814" lon="4.31187">
        <ele>532</ele>
        <time>2017-04-13T15:25:39.1Z</time>
      </trkpt>
      <trkpt lat="45.80814" lon="4.31192">
        <ele>532</ele>
        <time>2017-04-13T15:25:41.1Z</time>
      </trkpt>
      <trkpt lat="45.80815" lon="4.31196">
        <ele>532</ele>
        <time>2017-04-13T15:25:44.1Z</time>
      </trkpt>
      <trkpt lat="45.80816" lon="4.31204">
        <ele>532</ele>
        <time>2017-04-13T15:25:46.1Z</time>
      </trkpt>
      <trkpt lat="45.80817" lon="4.31208">
        <ele>532</ele>
        <time>2017-04-13T15:25:48.1Z</time>
      </trkpt>
      <trkpt lat="45.80818" lon="4.31213">
        <ele>532</ele>
        <time>2017-04-13T15:25:50.1Z</time>
      </trkpt>
      <trkpt lat="45.80819" lon="4.31219">
        <ele>532</ele>
        <time>2017-04-13T15:25:52.1Z</time>
      </trkpt>
      <trkpt lat="45.80819" lon="4.31225">
        <ele>532</ele>
        <time>2017-04-13T15:25:54.1Z</time>
      </trkpt>
      <trkpt lat="45.8082" lon="4.31231">
        <ele>532</ele>
        <time>2017-04-13T15:25:56.1Z</time>
      </trkpt>
      <trkpt lat="45.80821" lon="4.31239">
        <ele>532</ele>
        <time>2017-04-13T15:25:59.1Z</time>
      </trkpt>
      <trkpt lat="45.80822" lon="4.31244">
        <ele>532</ele>
        <time>2017-04-13T15:26:01.1Z</time>
      </trkpt>
      <trkpt lat="45.80823" lon="4.31249">
        <ele>532</ele>
        <time>2017-04-13T15:26:03.1Z</time>
      </trkpt>
      <trkpt lat="45.80823" lon="4.31253">
        <ele>531</ele>
        <time>2017-04-13T15:26:05.1Z</time>
      </trkpt>
      <trkpt lat="45.80824" lon="4.31258">
        <ele>531</ele>
        <time>2017-04-13T15:26:07.1Z</time>
      </trkpt>
      <trkpt lat="45.80825" lon="4.31262">
        <ele>531</ele>
        <time>2017-04-13T15:26:09.1Z</time>
      </trkpt>
      <trkpt lat="45.80826" lon="4.31265">
        <ele>531</ele>
        <time>2017-04-13T15:26:11.1Z</time>
      </trkpt>
      <trkpt lat="45.80827" lon="4.31272">
        <ele>531</ele>
        <time>2017-04-13T15:26:14.1Z</time>
      </trkpt>
      <trkpt lat="45.80828" lon="4.31276">
        <ele>531</ele>
        <time>2017-04-13T15:26:16.1Z</time>
      </trkpt>
      <trkpt lat="45.80829" lon="4.3128">
        <ele>530</ele>
        <time>2017-04-13T15:26:18.1Z</time>
      </trkpt>
      <trkpt lat="45.8083" lon="4.31283">
        <ele>530</ele>
        <time>2017-04-13T15:26:20.1Z</time>
      </trkpt>
      <trkpt lat="45.80831" lon="4.31286">
        <ele>530</ele>
        <time>2017-04-13T15:26:22.1Z</time>
      </trkpt>
      <trkpt lat="45.80833" lon="4.31291">
        <ele>529</ele>
        <time>2017-04-13T15:26:25.1Z</time>
      </trkpt>
      <trkpt lat="45.80834" lon="4.31295">
        <ele>529</ele>
        <time>2017-04-13T15:26:27.1Z</time>
      </trkpt>
      <trkpt lat="45.80835" lon="4.31298">
        <ele>529</ele>
        <time>2017-04-13T15:26:29.1Z</time>
      </trkpt>
      <trkpt lat="45.80836" lon="4.31301">
        <ele>529</ele>
        <time>2017-04-13T15:26:32.1Z</time>
      </trkpt>
      <trkpt lat="45.80838" lon="4.31305">
        <ele>529</ele>
        <time>2017-04-13T15:26:34.1Z</time>
      </trkpt>
      <trkpt lat="45.80839" lon="4.31307">
        <ele>528</ele>
        <time>2017-04-13T15:26:36.1Z</time>
      </trkpt>
      <trkpt lat="45.80841" lon="4.31311">
        <ele>528</ele>
        <time>2017-04-13T15:26:38.1Z</time>
      </trkpt>
      <trkpt lat="45.80842" lon="4.31315">
        <ele>527</ele>
        <time>2017-04-13T15:26:41.1Z</time>
      </trkpt>
      <trkpt lat="45.80843" lon="4.31318">
        <ele>527</ele>
        <time>2017-04-13T15:26:43.1Z</time>
      </trkpt>
      <trkpt lat="45.80845" lon="4.31321">
        <ele>526</ele>
        <time>2017-04-13T15:26:46.1Z</time>
      </trkpt>
      <trkpt lat="45.80846" lon="4.31323">
        <ele>526</ele>
        <time>2017-04-13T15:26:48.1Z</time>
      </trkpt>
      <trkpt lat="45.80849" lon="4.31328">
        <ele>525</ele>
        <time>2017-04-13T15:26:51.1Z</time>
      </trkpt>
      <trkpt lat="45.8085" lon="4.3133">
        <ele>525</ele>
        <time>2017-04-13T15:26:53.1Z</time>
      </trkpt>
      <trkpt lat="45.80851" lon="4.31333">
        <ele>525</ele>
        <time>2017-04-13T15:26:55.1Z</time>
      </trkpt>
      <trkpt lat="45.80853" lon="4.31336">
        <ele>524</ele>
        <time>2017-04-13T15:26:57.1Z</time>
      </trkpt>
      <trkpt lat="45.80855" lon="4.3134">
        <ele>524</ele>
        <time>2017-04-13T15:26:59.1Z</time>
      </trkpt>
      <trkpt lat="45.80856" lon="4.31343">
        <ele>524</ele>
        <time>2017-04-13T15:27:01.1Z</time>
      </trkpt>
      <trkpt lat="45.80857" lon="4.31347">
        <ele>524</ele>
        <time>2017-04-13T15:27:04.1Z</time>
      </trkpt>
      <trkpt lat="45.80858" lon="4.3135">
        <ele>524</ele>
        <time>2017-04-13T15:27:06.1Z</time>
      </trkpt>
      <trkpt lat="45.8086" lon="4.31352">
        <ele>523</ele>
        <time>2017-04-13T15:27:08.1Z</time>
      </trkpt>
      <trkpt lat="45.80862" lon="4.31355">
        <ele>523</ele>
        <time>2017-04-13T15:27:10.1Z</time>
      </trkpt>
      <trkpt lat="45.80865" lon="4.31361">
        <ele>522</ele>
        <time>2017-04-13T15:27:13.1Z</time>
      </trkpt>
      <trkpt lat="45.80867" lon="4.31364">
        <ele>522</ele>
        <time>2017-04-13T15:27:15.1Z</time>
      </trkpt>
      <trkpt lat="45.80871" lon="4.3137">
        <ele>521</ele>
        <time>2017-04-13T15:27:18.1Z</time>
      </trkpt>
      <trkpt lat="45.80874" lon="4.31375">
        <ele>521</ele>
        <time>2017-04-13T15:27:21.1Z</time>
      </trkpt>
      <trkpt lat="45.80876" lon="4.31378">
        <ele>520</ele>
        <time>2017-04-13T15:27:23.1Z</time>
      </trkpt>
      <trkpt lat="45.80878" lon="4.31381">
        <ele>520</ele>
        <time>2017-04-13T15:27:25.1Z</time>
      </trkpt>
      <trkpt lat="45.80881" lon="4.31385">
        <ele>520</ele>
        <time>2017-04-13T15:27:28.1Z</time>
      </trkpt>
      <trkpt lat="45.80883" lon="4.31388">
        <ele>519</ele>
        <time>2017-04-13T15:27:30.1Z</time>
      </trkpt>
      <trkpt lat="45.80886" lon="4.31391">
        <ele>519</ele>
        <time>2017-04-13T15:27:33.1Z</time>
      </trkpt>
      <trkpt lat="45.80889" lon="4.31395">
        <ele>518</ele>
        <time>2017-04-13T15:27:36.1Z</time>
      </trkpt>
      <trkpt lat="45.80891" lon="4.31397">
        <ele>518</ele>
        <time>2017-04-13T15:27:38.1Z</time>
      </trkpt>
      <trkpt lat="45.80893" lon="4.31399">
        <ele>518</ele>
        <time>2017-04-13T15:27:40.1Z</time>
      </trkpt>
      <trkpt lat="45.80897" lon="4.31403">
        <ele>517</ele>
        <time>2017-04-13T15:27:43.1Z</time>
      </trkpt>
      <trkpt lat="45.80899" lon="4.31406">
        <ele>517</ele>
        <time>2017-04-13T15:27:45.1Z</time>
      </trkpt>
      <trkpt lat="45.80903" lon="4.31411">
        <ele>516</ele>
        <time>2017-04-13T15:27:48.1Z</time>
      </trkpt>
      <trkpt lat="45.80905" lon="4.31413">
        <ele>516</ele>
        <time>2017-04-13T15:27:50.1Z</time>
      </trkpt>
      <trkpt lat="45.80908" lon="4.31417">
        <ele>516</ele>
        <time>2017-04-13T15:27:53.1Z</time>
      </trkpt>
      <trkpt lat="45.80911" lon="4.3142">
        <ele>515</ele>
        <time>2017-04-13T15:27:55.1Z</time>
      </trkpt>
      <trkpt lat="45.80914" lon="4.31425">
        <ele>515</ele>
        <time>2017-04-13T15:27:58.1Z</time>
      </trkpt>
      <trkpt lat="45.80915" lon="4.31426">
        <ele>515</ele>
        <time>2017-04-13T15:28:00.1Z</time>
      </trkpt>
      <trkpt lat="45.80916" lon="4.31428">
        <ele>514</ele>
        <time>2017-04-13T15:28:02.1Z</time>
      </trkpt>
      <trkpt lat="45.80916" lon="4.31428">
        <ele>514</ele>
        <time>2017-04-13T15:28:04.1Z</time>
      </trkpt>
      <trkpt lat="45.80917" lon="4.3143">
        <ele>514</ele>
        <time>2017-04-13T15:28:07.1Z</time>
      </trkpt>
      <trkpt lat="45.80918" lon="4.3143">
        <ele>514</ele>
        <time>2017-04-13T15:28:09.1Z</time>
      </trkpt>
      <trkpt lat="45.80918" lon="4.31431">
        <ele>514</ele>
        <time>2017-04-13T15:28:12.1Z</time>
      </trkpt>
      <trkpt lat="45.80919" lon="4.31432">
        <ele>514</ele>
        <time>2017-04-13T15:28:14.1Z</time>
      </trkpt>
      <trkpt lat="45.80919" lon="4.31433">
        <ele>514</ele>
        <time>2017-04-13T15:28:16.1Z</time>
      </trkpt>
      <trkpt lat="45.8092" lon="4.31434">
        <ele>514</ele>
        <time>2017-04-13T15:28:18.1Z</time>
      </trkpt>
      <trkpt lat="45.8092" lon="4.31434">
        <ele>514</ele>
        <time>2017-04-13T15:28:22.1Z</time>
      </trkpt>
      <trkpt lat="45.80921" lon="4.31435">
        <ele>514</ele>
        <time>2017-04-13T15:28:24.1Z</time>
      </trkpt>
      <trkpt lat="45.80921" lon="4.31435">
        <ele>514</ele>
        <time>2017-04-13T15:28:26.1Z</time>
      </trkpt>
      <trkpt lat="45.80922" lon="4.31435">
        <ele>515</ele>
        <time>2017-04-13T15:28:28.1Z</time>
      </trkpt>
      <trkpt lat="45.80922" lon="4.31436">
        <ele>514</ele>
        <time>2017-04-13T15:28:30.1Z</time>
      </trkpt>
      <trkpt lat="45.80923" lon="4.31437">
        <ele>514</ele>
        <time>2017-04-13T15:28:33.1Z</time>
      </trkpt>
      <trkpt lat="45.80923" lon="4.31437">
        <ele>514</ele>
        <time>2017-04-13T15:28:38.1Z</time>
      </trkpt>
      <trkpt lat="45.80924" lon="4.31438">
        <ele>514</ele>
        <time>2017-04-13T15:28:40.1Z</time>
      </trkpt>
      <trkpt lat="45.80924" lon="4.31439">
        <ele>514</ele>
        <time>2017-04-13T15:28:43.1Z</time>
      </trkpt>
      <trkpt lat="45.80927" lon="4.31442">
        <ele>514</ele>
        <time>2017-04-13T15:28:46.1Z</time>
      </trkpt>
      <trkpt lat="45.80934" lon="4.31446">
        <ele>514</ele>
        <time>2017-04-13T15:28:49.1Z</time>
      </trkpt>
      <trkpt lat="45.80942" lon="4.31451">
        <ele>513</ele>
        <time>2017-04-13T15:28:52.1Z</time>
      </trkpt>
      <trkpt lat="45.8095" lon="4.31461">
        <ele>513</ele>
        <time>2017-04-13T15:28:55.1Z</time>
      </trkpt>
      <trkpt lat="45.80955" lon="4.31468">
        <ele>513</ele>
        <time>2017-04-13T15:28:57.1Z</time>
      </trkpt>
      <trkpt lat="45.80959" lon="4.31485">
        <ele>513</ele>
        <time>2017-04-13T15:29:00.1Z</time>
      </trkpt>
      <trkpt lat="45.8096" lon="4.31497">
        <ele>513</ele>
        <time>2017-04-13T15:29:02.1Z</time>
      </trkpt>
      <trkpt lat="45.80962" lon="4.31515">
        <ele>512</ele>
        <time>2017-04-13T15:29:05.1Z</time>
      </trkpt>
      <trkpt lat="45.80962" lon="4.31528">
        <ele>512</ele>
        <time>2017-04-13T15:29:07.1Z</time>
      </trkpt>
      <trkpt lat="45.80962" lon="4.31543">
        <ele>513</ele>
        <time>2017-04-13T15:29:10.1Z</time>
      </trkpt>
      <trkpt lat="45.80962" lon="4.31558">
        <ele>513</ele>
        <time>2017-04-13T15:29:13.1Z</time>
      </trkpt>
      <trkpt lat="45.80962" lon="4.3157">
        <ele>514</ele>
        <time>2017-04-13T15:29:15.1Z</time>
      </trkpt>
      <trkpt lat="45.80962" lon="4.3158">
        <ele>515</ele>
        <time>2017-04-13T15:29:17.1Z</time>
      </trkpt>
      <trkpt lat="45.80964" lon="4.31595">
        <ele>516</ele>
        <time>2017-04-13T15:29:20.1Z</time>
      </trkpt>
      <trkpt lat="45.80965" lon="4.31607">
        <ele>517</ele>
        <time>2017-04-13T15:29:23.1Z</time>
      </trkpt>
      <trkpt lat="45.80965" lon="4.31615">
        <ele>518</ele>
        <time>2017-04-13T15:29:25.1Z</time>
      </trkpt>
      <trkpt lat="45.80967" lon="4.3162">
        <ele>519</ele>
        <time>2017-04-13T15:29:27.1Z</time>
      </trkpt>
      <trkpt lat="45.80966" lon="4.31622">
        <ele>519</ele>
        <time>2017-04-13T15:29:29.1Z</time>
      </trkpt>
      <trkpt lat="45.80966" lon="4.31623">
        <ele>520</ele>
        <time>2017-04-13T15:29:31.1Z</time>
      </trkpt>
      <trkpt lat="45.80967" lon="4.31628">
        <ele>520</ele>
        <time>2017-04-13T15:29:34.1Z</time>
      </trkpt>
      <trkpt lat="45.80968" lon="4.31633">
        <ele>521</ele>
        <time>2017-04-13T15:29:37.1Z</time>
      </trkpt>
      <trkpt lat="45.80968" lon="4.31638">
        <ele>522</ele>
        <time>2017-04-13T15:29:40.1Z</time>
      </trkpt>
      <trkpt lat="45.80968" lon="4.31641">
        <ele>522</ele>
        <time>2017-04-13T15:29:42.1Z</time>
      </trkpt>
      <trkpt lat="45.80966" lon="4.31643">
        <ele>522</ele>
        <time>2017-04-13T15:29:44.1Z</time>
      </trkpt>
      <trkpt lat="45.80963" lon="4.31643">
        <ele>522</ele>
        <time>2017-04-13T15:29:47.1Z</time>
      </trkpt>
      <trkpt lat="45.8096" lon="4.31644">
        <ele>521</ele>
        <time>2017-04-13T15:29:50.1Z</time>
      </trkpt>
      <trkpt lat="45.80957" lon="4.31643">
        <ele>521</ele>
        <time>2017-04-13T15:29:53.1Z</time>
      </trkpt>
      <trkpt lat="45.80955" lon="4.31644">
        <ele>520</ele>
        <time>2017-04-13T15:29:55.1Z</time>
      </trkpt>
      <trkpt lat="45.80953" lon="4.31644">
        <ele>519</ele>
        <time>2017-04-13T15:29:57.1Z</time>
      </trkpt>
      <trkpt lat="45.8095" lon="4.31644">
        <ele>519</ele>
        <time>2017-04-13T15:30:00.1Z</time>
      </trkpt>
      <trkpt lat="45.80948" lon="4.31644">
        <ele>518</ele>
        <time>2017-04-13T15:30:02.1Z</time>
      </trkpt>
      <trkpt lat="45.80944" lon="4.31645">
        <ele>517</ele>
        <time>2017-04-13T15:30:05.1Z</time>
      </trkpt>
      <trkpt lat="45.80941" lon="4.31645">
        <ele>517</ele>
        <time>2017-04-13T15:30:07.1Z</time>
      </trkpt>
      <trkpt lat="45.80938" lon="4.31645">
        <ele>516</ele>
        <time>2017-04-13T15:30:09.1Z</time>
      </trkpt>
      <trkpt lat="45.80935" lon="4.31646">
        <ele>515</ele>
        <time>2017-04-13T15:30:11.1Z</time>
      </trkpt>
      <trkpt lat="45.80931" lon="4.31647">
        <ele>515</ele>
        <time>2017-04-13T15:30:14.1Z</time>
      </trkpt>
      <trkpt lat="45.80928" lon="4.31647">
        <ele>514</ele>
        <time>2017-04-13T15:30:16.1Z</time>
      </trkpt>
      <trkpt lat="45.80926" lon="4.31648">
        <ele>514</ele>
        <time>2017-04-13T15:30:18.1Z</time>
      </trkpt>
      <trkpt lat="45.80923" lon="4.31648">
        <ele>513</ele>
        <time>2017-04-13T15:30:20.1Z</time>
      </trkpt>
      <trkpt lat="45.8092" lon="4.31649">
        <ele>513</ele>
        <time>2017-04-13T15:30:22.1Z</time>
      </trkpt>
      <trkpt lat="45.80917" lon="4.3165">
        <ele>513</ele>
        <time>2017-04-13T15:30:24.1Z</time>
      </trkpt>
      <trkpt lat="45.80914" lon="4.31651">
        <ele>512</ele>
        <time>2017-04-13T15:30:26.1Z</time>
      </trkpt>
      <trkpt lat="45.80909" lon="4.31652">
        <ele>511</ele>
        <time>2017-04-13T15:30:29.1Z</time>
      </trkpt>
      <trkpt lat="45.80905" lon="4.31652">
        <ele>510</ele>
        <time>2017-04-13T15:30:31.1Z</time>
      </trkpt>
      <trkpt lat="45.80902" lon="4.31652">
        <ele>510</ele>
        <time>2017-04-13T15:30:33.1Z</time>
      </trkpt>
      <trkpt lat="45.80899" lon="4.31653">
        <ele>509</ele>
        <time>2017-04-13T15:30:35.1Z</time>
      </trkpt>
      <trkpt lat="45.80896" lon="4.31653">
        <ele>509</ele>
        <time>2017-04-13T15:30:37.1Z</time>
      </trkpt>
      <trkpt lat="45.80893" lon="4.31654">
        <ele>508</ele>
        <time>2017-04-13T15:30:39.1Z</time>
      </trkpt>
      <trkpt lat="45.80888" lon="4.31655">
        <ele>508</ele>
        <time>2017-04-13T15:30:42.1Z</time>
      </trkpt>
      <trkpt lat="45.80885" lon="4.31656">
        <ele>507</ele>
        <time>2017-04-13T15:30:44.1Z</time>
      </trkpt>
      <trkpt lat="45.80882" lon="4.31657">
        <ele>507</ele>
        <time>2017-04-13T15:30:46.1Z</time>
      </trkpt>
      <trkpt lat="45.80879" lon="4.31658">
        <ele>506</ele>
        <time>2017-04-13T15:30:48.1Z</time>
      </trkpt>
      <trkpt lat="45.80876" lon="4.31659">
        <ele>505</ele>
        <time>2017-04-13T15:30:50.1Z</time>
      </trkpt>
      <trkpt lat="45.80873" lon="4.31659">
        <ele>505</ele>
        <time>2017-04-13T15:30:52.1Z</time>
      </trkpt>
      <trkpt lat="45.80868" lon="4.31661">
        <ele>505</ele>
        <time>2017-04-13T15:30:55.1Z</time>
      </trkpt>
      <trkpt lat="45.80865" lon="4.31662">
        <ele>504</ele>
        <time>2017-04-13T15:30:57.1Z</time>
      </trkpt>
      <trkpt lat="45.80861" lon="4.31664">
        <ele>503</ele>
        <time>2017-04-13T15:30:59.1Z</time>
      </trkpt>
      <trkpt lat="45.80858" lon="4.31666">
        <ele>503</ele>
        <time>2017-04-13T15:31:01.1Z</time>
      </trkpt>
      <trkpt lat="45.80855" lon="4.31667">
        <ele>502</ele>
        <time>2017-04-13T15:31:03.1Z</time>
      </trkpt>
      <trkpt lat="45.80852" lon="4.31669">
        <ele>502</ele>
        <time>2017-04-13T15:31:05.1Z</time>
      </trkpt>
      <trkpt lat="45.80849" lon="4.3167">
        <ele>502</ele>
        <time>2017-04-13T15:31:08.1Z</time>
      </trkpt>
      <trkpt lat="45.80847" lon="4.3167">
        <ele>501</ele>
        <time>2017-04-13T15:31:10.1Z</time>
      </trkpt>
      <trkpt lat="45.80845" lon="4.31672">
        <ele>501</ele>
        <time>2017-04-13T15:31:12.1Z</time>
      </trkpt>
      <trkpt lat="45.80842" lon="4.31673">
        <ele>500</ele>
        <time>2017-04-13T15:31:15.1Z</time>
      </trkpt>
      <trkpt lat="45.80839" lon="4.31674">
        <ele>500</ele>
        <time>2017-04-13T15:31:17.1Z</time>
      </trkpt>
      <trkpt lat="45.80836" lon="4.31676">
        <ele>500</ele>
        <time>2017-04-13T15:31:19.1Z</time>
      </trkpt>
      <trkpt lat="45.80833" lon="4.31678">
        <ele>499</ele>
        <time>2017-04-13T15:31:21.1Z</time>
      </trkpt>
      <trkpt lat="45.80828" lon="4.31681">
        <ele>499</ele>
        <time>2017-04-13T15:31:24.1Z</time>
      </trkpt>
      <trkpt lat="45.80823" lon="4.31684">
        <ele>498</ele>
        <time>2017-04-13T15:31:27.1Z</time>
      </trkpt>
      <trkpt lat="45.8082" lon="4.31686">
        <ele>498</ele>
        <time>2017-04-13T15:31:29.1Z</time>
      </trkpt>
      <trkpt lat="45.80817" lon="4.31688">
        <ele>497</ele>
        <time>2017-04-13T15:31:31.1Z</time>
      </trkpt>
      <trkpt lat="45.80812" lon="4.31691">
        <ele>497</ele>
        <time>2017-04-13T15:31:34.1Z</time>
      </trkpt>
      <trkpt lat="45.80809" lon="4.31693">
        <ele>496</ele>
        <time>2017-04-13T15:31:37.1Z</time>
      </trkpt>
      <trkpt lat="45.80807" lon="4.31695">
        <ele>496</ele>
        <time>2017-04-13T15:31:39.1Z</time>
      </trkpt>
      <trkpt lat="45.80804" lon="4.31696">
        <ele>496</ele>
        <time>2017-04-13T15:31:41.1Z</time>
      </trkpt>
      <trkpt lat="45.80801" lon="4.31698">
        <ele>495</ele>
        <time>2017-04-13T15:31:44.1Z</time>
      </trkpt>
      <trkpt lat="45.80798" lon="4.31699">
        <ele>495</ele>
        <time>2017-04-13T15:31:46.1Z</time>
      </trkpt>
      <trkpt lat="45.80796" lon="4.31701">
        <ele>494</ele>
        <time>2017-04-13T15:31:49.1Z</time>
      </trkpt>
      <trkpt lat="45.80793" lon="4.31701">
        <ele>494</ele>
        <time>2017-04-13T15:31:52.1Z</time>
      </trkpt>
      <trkpt lat="45.80791" lon="4.31703">
        <ele>494</ele>
        <time>2017-04-13T15:31:54.1Z</time>
      </trkpt>
      <trkpt lat="45.80787" lon="4.31705">
        <ele>493</ele>
        <time>2017-04-13T15:31:57.1Z</time>
      </trkpt>
      <trkpt lat="45.80785" lon="4.31706">
        <ele>493</ele>
        <time>2017-04-13T15:31:59.1Z</time>
      </trkpt>
      <trkpt lat="45.80782" lon="4.31708">
        <ele>492</ele>
        <time>2017-04-13T15:32:02.1Z</time>
      </trkpt>
      <trkpt lat="45.8078" lon="4.3171">
        <ele>491</ele>
        <time>2017-04-13T15:32:04.1Z</time>
      </trkpt>
      <trkpt lat="45.80778" lon="4.31712">
        <ele>491</ele>
        <time>2017-04-13T15:32:06.1Z</time>
      </trkpt>
      <trkpt lat="45.80774" lon="4.31716">
        <ele>490</ele>
        <time>2017-04-13T15:32:09.1Z</time>
      </trkpt>
      <trkpt lat="45.8077" lon="4.31719">
        <ele>490</ele>
        <time>2017-04-13T15:32:11.1Z</time>
      </trkpt>
      <trkpt lat="45.80767" lon="4.31722">
        <ele>489</ele>
        <time>2017-04-13T15:32:13.1Z</time>
      </trkpt>
      <trkpt lat="45.80765" lon="4.31725">
        <ele>489</ele>
        <time>2017-04-13T15:32:15.1Z</time>
      </trkpt>
      <trkpt lat="45.80761" lon="4.31727">
        <ele>488</ele>
        <time>2017-04-13T15:32:18.1Z</time>
      </trkpt>
      <trkpt lat="45.80759" lon="4.3173">
        <ele>488</ele>
        <time>2017-04-13T15:32:20.1Z</time>
      </trkpt>
      <trkpt lat="45.80754" lon="4.31732">
        <ele>487</ele>
        <time>2017-04-13T15:32:23.1Z</time>
      </trkpt>
      <trkpt lat="45.8075" lon="4.31733">
        <ele>486</ele>
        <time>2017-04-13T15:32:26.1Z</time>
      </trkpt>
      <trkpt lat="45.80745" lon="4.31737">
        <ele>486</ele>
        <time>2017-04-13T15:32:29.1Z</time>
      </trkpt>
      <trkpt lat="45.80743" lon="4.31738">
        <ele>485</ele>
        <time>2017-04-13T15:32:31.1Z</time>
      </trkpt>
      <trkpt lat="45.80739" lon="4.3174">
        <ele>485</ele>
        <time>2017-04-13T15:32:34.1Z</time>
      </trkpt>
      <trkpt lat="45.80736" lon="4.31742">
        <ele>485</ele>
        <time>2017-04-13T15:32:36.1Z</time>
      </trkpt>
      <trkpt lat="45.80734" lon="4.31744">
        <ele>484</ele>
        <time>2017-04-13T15:32:38.1Z</time>
      </trkpt>
      <trkpt lat="45.80729" lon="4.31747">
        <ele>484</ele>
        <time>2017-04-13T15:32:41.1Z</time>
      </trkpt>
      <trkpt lat="45.80726" lon="4.3175">
        <ele>483</ele>
        <time>2017-04-13T15:32:43.1Z</time>
      </trkpt>
      <trkpt lat="45.80723" lon="4.31752">
        <ele>483</ele>
        <time>2017-04-13T15:32:45.1Z</time>
      </trkpt>
      <trkpt lat="45.8072" lon="4.31755">
        <ele>483</ele>
        <time>2017-04-13T15:32:47.1Z</time>
      </trkpt>
      <trkpt lat="45.80717" lon="4.31758">
        <ele>482</ele>
        <time>2017-04-13T15:32:49.1Z</time>
      </trkpt>
      <trkpt lat="45.80713" lon="4.31762">
        <ele>482</ele>
        <time>2017-04-13T15:32:51.1Z</time>
      </trkpt>
      <trkpt lat="45.80708" lon="4.31766">
        <ele>482</ele>
        <time>2017-04-13T15:32:54.1Z</time>
      </trkpt>
      <trkpt lat="45.80705" lon="4.31769">
        <ele>482</ele>
        <time>2017-04-13T15:32:56.1Z</time>
      </trkpt>
      <trkpt lat="45.807" lon="4.31774">
        <ele>481</ele>
        <time>2017-04-13T15:32:59.1Z</time>
      </trkpt>
      <trkpt lat="45.80696" lon="4.31777">
        <ele>481</ele>
        <time>2017-04-13T15:33:01.1Z</time>
      </trkpt>
      <trkpt lat="45.80693" lon="4.3178">
        <ele>481</ele>
        <time>2017-04-13T15:33:03.1Z</time>
      </trkpt>
      <trkpt lat="45.80691" lon="4.31783">
        <ele>481</ele>
        <time>2017-04-13T15:33:05.1Z</time>
      </trkpt>
      <trkpt lat="45.80688" lon="4.31785">
        <ele>481</ele>
        <time>2017-04-13T15:33:07.1Z</time>
      </trkpt>
      <trkpt lat="45.80686" lon="4.31786">
        <ele>481</ele>
        <time>2017-04-13T15:33:09.1Z</time>
      </trkpt>
      <trkpt lat="45.80682" lon="4.31788">
        <ele>482</ele>
        <time>2017-04-13T15:33:12.1Z</time>
      </trkpt>
      <trkpt lat="45.80679" lon="4.31791">
        <ele>482</ele>
        <time>2017-04-13T15:33:14.1Z</time>
      </trkpt>
      <trkpt lat="45.80674" lon="4.31794">
        <ele>481</ele>
        <time>2017-04-13T15:33:17.1Z</time>
      </trkpt>
      <trkpt lat="45.80672" lon="4.31795">
        <ele>481</ele>
        <time>2017-04-13T15:33:19.1Z</time>
      </trkpt>
      <trkpt lat="45.80669" lon="4.31798">
        <ele>481</ele>
        <time>2017-04-13T15:33:21.1Z</time>
      </trkpt>
      <trkpt lat="45.80665" lon="4.31801">
        <ele>481</ele>
        <time>2017-04-13T15:33:24.1Z</time>
      </trkpt>
      <trkpt lat="45.80661" lon="4.31805">
        <ele>482</ele>
        <time>2017-04-13T15:33:27.1Z</time>
      </trkpt>
      <trkpt lat="45.80656" lon="4.31809">
        <ele>482</ele>
        <time>2017-04-13T15:33:30.1Z</time>
      </trkpt>
      <trkpt lat="45.80653" lon="4.31812">
        <ele>481</ele>
        <time>2017-04-13T15:33:32.1Z</time>
      </trkpt>
      <trkpt lat="45.80648" lon="4.31817">
        <ele>482</ele>
        <time>2017-04-13T15:33:35.1Z</time>
      </trkpt>
      <trkpt lat="45.80645" lon="4.31819">
        <ele>482</ele>
        <time>2017-04-13T15:33:37.1Z</time>
      </trkpt>
      <trkpt lat="45.8064" lon="4.3182">
        <ele>482</ele>
        <time>2017-04-13T15:33:40.1Z</time>
      </trkpt>
      <trkpt lat="45.80637" lon="4.3182">
        <ele>482</ele>
        <time>2017-04-13T15:33:42.1Z</time>
      </trkpt>
      <trkpt lat="45.8063" lon="4.31817">
        <ele>482</ele>
        <time>2017-04-13T15:33:45.1Z</time>
      </trkpt>
      <trkpt lat="45.80623" lon="4.31813">
        <ele>482</ele>
        <time>2017-04-13T15:33:47.1Z</time>
      </trkpt>
      <trkpt lat="45.80613" lon="4.31808">
        <ele>482</ele>
        <time>2017-04-13T15:33:50.1Z</time>
      </trkpt>
      <trkpt lat="45.80604" lon="4.31802">
        <ele>483</ele>
        <time>2017-04-13T15:33:52.1Z</time>
      </trkpt>
      <trkpt lat="45.80597" lon="4.31798">
        <ele>483</ele>
        <time>2017-04-13T15:33:54.1Z</time>
      </trkpt>
      <trkpt lat="45.80589" lon="4.31792">
        <ele>483</ele>
        <time>2017-04-13T15:33:56.1Z</time>
      </trkpt>
      <trkpt lat="45.80579" lon="4.31787">
        <ele>483</ele>
        <time>2017-04-13T15:33:59.1Z</time>
      </trkpt>
      <trkpt lat="45.80568" lon="4.31783">
        <ele>485</ele>
        <time>2017-04-13T15:34:02.1Z</time>
      </trkpt>
      <trkpt lat="45.80561" lon="4.31781">
        <ele>486</ele>
        <time>2017-04-13T15:34:04.1Z</time>
      </trkpt>
      <trkpt lat="45.80555" lon="4.3178">
        <ele>486</ele>
        <time>2017-04-13T15:34:06.1Z</time>
      </trkpt>
      <trkpt lat="45.80547" lon="4.31779">
        <ele>488</ele>
        <time>2017-04-13T15:34:09.1Z</time>
      </trkpt>
      <trkpt lat="45.8054" lon="4.31778">
        <ele>488</ele>
        <time>2017-04-13T15:34:11.1Z</time>
      </trkpt>
      <trkpt lat="45.80528" lon="4.31775">
        <ele>489</ele>
        <time>2017-04-13T15:34:14.1Z</time>
      </trkpt>
      <trkpt lat="45.80518" lon="4.31771">
        <ele>489</ele>
        <time>2017-04-13T15:34:16.1Z</time>
      </trkpt>
      <trkpt lat="45.80513" lon="4.31766">
        <ele>489</ele>
        <time>2017-04-13T15:34:18.1Z</time>
      </trkpt>
      <trkpt lat="45.80509" lon="4.31763">
        <ele>489</ele>
        <time>2017-04-13T15:34:21.1Z</time>
      </trkpt>
      <trkpt lat="45.80506" lon="4.31758">
        <ele>489</ele>
        <time>2017-04-13T15:34:24.1Z</time>
      </trkpt>
      <trkpt lat="45.80502" lon="4.31753">
        <ele>488</ele>
        <time>2017-04-13T15:34:27.1Z</time>
      </trkpt>
      <trkpt lat="45.80498" lon="4.31747">
        <ele>488</ele>
        <time>2017-04-13T15:34:30.1Z</time>
      </trkpt>
      <trkpt lat="45.80494" lon="4.3174">
        <ele>487</ele>
        <time>2017-04-13T15:34:33.1Z</time>
      </trkpt>
      <trkpt lat="45.80491" lon="4.31737">
        <ele>486</ele>
        <time>2017-04-13T15:34:35.1Z</time>
      </trkpt>
      <trkpt lat="45.80489" lon="4.31735">
        <ele>485</ele>
        <time>2017-04-13T15:34:37.1Z</time>
      </trkpt>
      <trkpt lat="45.80487" lon="4.31733">
        <ele>484</ele>
        <time>2017-04-13T15:34:39.1Z</time>
      </trkpt>
      <trkpt lat="45.80483" lon="4.31731">
        <ele>484</ele>
        <time>2017-04-13T15:34:42.1Z</time>
      </trkpt>
      <trkpt lat="45.8048" lon="4.31729">
        <ele>484</ele>
        <time>2017-04-13T15:34:45.1Z</time>
      </trkpt>
      <trkpt lat="45.80478" lon="4.31727">
        <ele>484</ele>
        <time>2017-04-13T15:34:47.1Z</time>
      </trkpt>
      <trkpt lat="45.80474" lon="4.31723">
        <ele>484</ele>
        <time>2017-04-13T15:34:50.1Z</time>
      </trkpt>
      <trkpt lat="45.80472" lon="4.31719">
        <ele>483</ele>
        <time>2017-04-13T15:34:52.1Z</time>
      </trkpt>
      <trkpt lat="45.80469" lon="4.31716">
        <ele>482</ele>
        <time>2017-04-13T15:34:55.1Z</time>
      </trkpt>
      <trkpt lat="45.80466" lon="4.31714">
        <ele>482</ele>
        <time>2017-04-13T15:34:57.1Z</time>
      </trkpt>
      <trkpt lat="45.80463" lon="4.31711">
        <ele>482</ele>
        <time>2017-04-13T15:35:00.1Z</time>
      </trkpt>
      <trkpt lat="45.80462" lon="4.31708">
        <ele>482</ele>
        <time>2017-04-13T15:35:03.1Z</time>
      </trkpt>
      <trkpt lat="45.8046" lon="4.31706">
        <ele>482</ele>
        <time>2017-04-13T15:35:05.1Z</time>
      </trkpt>
      <trkpt lat="45.80459" lon="4.31705">
        <ele>482</ele>
        <time>2017-04-13T15:35:07.1Z</time>
      </trkpt>
      <trkpt lat="45.80456" lon="4.31703">
        <ele>481</ele>
        <time>2017-04-13T15:35:10.1Z</time>
      </trkpt>
      <trkpt lat="45.80454" lon="4.31701">
        <ele>481</ele>
        <time>2017-04-13T15:35:12.1Z</time>
      </trkpt>
      <trkpt lat="45.80452" lon="4.317">
        <ele>481</ele>
        <time>2017-04-13T15:35:14.1Z</time>
      </trkpt>
      <trkpt lat="45.80452" lon="4.31698">
        <ele>480</ele>
        <time>2017-04-13T15:35:16.1Z</time>
      </trkpt>
      <trkpt lat="45.80451" lon="4.31695">
        <ele>480</ele>
        <time>2017-04-13T15:35:19.1Z</time>
      </trkpt>
      <trkpt lat="45.80451" lon="4.31693">
        <ele>480</ele>
        <time>2017-04-13T15:35:21.1Z</time>
      </trkpt>
      <trkpt lat="45.8045" lon="4.3169">
        <ele>480</ele>
        <time>2017-04-13T15:35:24.1Z</time>
      </trkpt>
      <trkpt lat="45.80451" lon="4.31686">
        <ele>479</ele>
        <time>2017-04-13T15:35:27.1Z</time>
      </trkpt>
      <trkpt lat="45.80452" lon="4.31684">
        <ele>479</ele>
        <time>2017-04-13T15:35:29.1Z</time>
      </trkpt>
      <trkpt lat="45.80452" lon="4.31682">
        <ele>479</ele>
        <time>2017-04-13T15:35:31.1Z</time>
      </trkpt>
      <trkpt lat="45.80453" lon="4.3168">
        <ele>479</ele>
        <time>2017-04-13T15:35:33.1Z</time>
      </trkpt>
      <trkpt lat="45.80454" lon="4.31676">
        <ele>478</ele>
        <time>2017-04-13T15:35:36.1Z</time>
      </trkpt>
      <trkpt lat="45.80455" lon="4.31672">
        <ele>478</ele>
        <time>2017-04-13T15:35:38.1Z</time>
      </trkpt>
      <trkpt lat="45.80456" lon="4.31671">
        <ele>477</ele>
        <time>2017-04-13T15:35:40.1Z</time>
      </trkpt>
      <trkpt lat="45.80458" lon="4.31666">
        <ele>477</ele>
        <time>2017-04-13T15:35:43.1Z</time>
      </trkpt>
      <trkpt lat="45.80459" lon="4.31662">
        <ele>476</ele>
        <time>2017-04-13T15:35:46.1Z</time>
      </trkpt>
      <trkpt lat="45.80459" lon="4.31659">
        <ele>476</ele>
        <time>2017-04-13T15:35:48.1Z</time>
      </trkpt>
      <trkpt lat="45.8046" lon="4.31654">
        <ele>476</ele>
        <time>2017-04-13T15:35:50.1Z</time>
      </trkpt>
      <trkpt lat="45.80461" lon="4.3165">
        <ele>476</ele>
        <time>2017-04-13T15:35:52.1Z</time>
      </trkpt>
      <trkpt lat="45.80462" lon="4.31645">
        <ele>476</ele>
        <time>2017-04-13T15:35:54.1Z</time>
      </trkpt>
      <trkpt lat="45.80464" lon="4.31639">
        <ele>476</ele>
        <time>2017-04-13T15:35:57.1Z</time>
      </trkpt>
      <trkpt lat="45.80466" lon="4.31636">
        <ele>475</ele>
        <time>2017-04-13T15:35:59.1Z</time>
      </trkpt>
      <trkpt lat="45.80468" lon="4.31632">
        <ele>475</ele>
        <time>2017-04-13T15:36:01.1Z</time>
      </trkpt>
      <trkpt lat="45.80468" lon="4.31628">
        <ele>475</ele>
        <time>2017-04-13T15:36:03.1Z</time>
      </trkpt>
      <trkpt lat="45.80469" lon="4.31624">
        <ele>475</ele>
        <time>2017-04-13T15:36:05.1Z</time>
      </trkpt>
      <trkpt lat="45.8047" lon="4.3162">
        <ele>476</ele>
        <time>2017-04-13T15:36:07.1Z</time>
      </trkpt>
      <trkpt lat="45.80471" lon="4.31617">
        <ele>476</ele>
        <time>2017-04-13T15:36:09.1Z</time>
      </trkpt>
      <trkpt lat="45.80474" lon="4.31612">
        <ele>476</ele>
        <time>2017-04-13T15:36:12.1Z</time>
      </trkpt>
      <trkpt lat="45.80474" lon="4.31608">
        <ele>476</ele>
        <time>2017-04-13T15:36:14.1Z</time>
      </trkpt>
      <trkpt lat="45.80474" lon="4.31606">
        <ele>476</ele>
        <time>2017-04-13T15:36:16.1Z</time>
      </trkpt>
      <trkpt lat="45.80475" lon="4.31601">
        <ele>476</ele>
        <time>2017-04-13T15:36:19.1Z</time>
      </trkpt>
      <trkpt lat="45.80476" lon="4.31597">
        <ele>476</ele>
        <time>2017-04-13T15:36:22.1Z</time>
      </trkpt>
      <trkpt lat="45.80476" lon="4.31595">
        <ele>476</ele>
        <time>2017-04-13T15:36:24.1Z</time>
      </trkpt>
      <trkpt lat="45.80476" lon="4.31593">
        <ele>476</ele>
        <time>2017-04-13T15:36:27.1Z</time>
      </trkpt>
      <trkpt lat="45.80476" lon="4.31591">
        <ele>476</ele>
        <time>2017-04-13T15:36:29.1Z</time>
      </trkpt>
      <trkpt lat="45.80476" lon="4.3159">
        <ele>476</ele>
        <time>2017-04-13T15:36:31.1Z</time>
      </trkpt>
      <trkpt lat="45.80476" lon="4.31588">
        <ele>476</ele>
        <time>2017-04-13T15:36:33.1Z</time>
      </trkpt>
      <trkpt lat="45.80476" lon="4.31586">
        <ele>476</ele>
        <time>2017-04-13T15:36:36.1Z</time>
      </trkpt>
      <trkpt lat="45.80476" lon="4.31585">
        <ele>475</ele>
        <time>2017-04-13T15:36:38.1Z</time>
      </trkpt>
      <trkpt lat="45.80477" lon="4.31584">
        <ele>475</ele>
        <time>2017-04-13T15:36:40.1Z</time>
      </trkpt>
      <trkpt lat="45.80477" lon="4.31583">
        <ele>475</ele>
        <time>2017-04-13T15:36:43.1Z</time>
      </trkpt>
      <trkpt lat="45.80476" lon="4.31581">
        <ele>475</ele>
        <time>2017-04-13T15:36:45.1Z</time>
      </trkpt>
      <trkpt lat="45.80476" lon="4.3158">
        <ele>475</ele>
        <time>2017-04-13T15:36:48.1Z</time>
      </trkpt>
      <trkpt lat="45.80476" lon="4.3158">
        <ele>475</ele>
        <time>2017-04-13T15:36:50.1Z</time>
      </trkpt>
      <trkpt lat="45.80476" lon="4.3158">
        <ele>475</ele>
        <time>2017-04-13T15:36:52.1Z</time>
      </trkpt>
      <trkpt lat="45.80477" lon="4.31581">
        <ele>475</ele>
        <time>2017-04-13T15:36:55.1Z</time>
      </trkpt>
      <trkpt lat="45.80478" lon="4.31582">
        <ele>476</ele>
        <time>2017-04-13T15:36:58.1Z</time>
      </trkpt>
      <trkpt lat="45.80478" lon="4.31583">
        <ele>476</ele>
        <time>2017-04-13T15:37:00.1Z</time>
      </trkpt>
      <trkpt lat="45.80479" lon="4.31584">
        <ele>476</ele>
        <time>2017-04-13T15:37:02.1Z</time>
      </trkpt>
      <trkpt lat="45.80478" lon="4.31584">
        <ele>477</ele>
        <time>2017-04-13T15:37:05.1Z</time>
      </trkpt>
      <trkpt lat="45.80478" lon="4.31583">
        <ele>476</ele>
        <time>2017-04-13T15:37:08.1Z</time>
      </trkpt>
      <trkpt lat="45.80477" lon="4.31583">
        <ele>476</ele>
        <time>2017-04-13T15:37:10.1Z</time>
      </trkpt>
      <trkpt lat="45.80476" lon="4.31581">
        <ele>476</ele>
        <time>2017-04-13T15:37:13.1Z</time>
      </trkpt>
      <trkpt lat="45.80477" lon="4.3158">
        <ele>476</ele>
        <time>2017-04-13T15:37:15.1Z</time>
      </trkpt>
      <trkpt lat="45.80477" lon="4.31579">
        <ele>476</ele>
        <time>2017-04-13T15:37:18.1Z</time>
      </trkpt>
      <trkpt lat="45.80478" lon="4.31578">
        <ele>476</ele>
        <time>2017-04-13T15:37:21.1Z</time>
      </trkpt>
      <trkpt lat="45.80478" lon="4.31577">
        <ele>476</ele>
        <time>2017-04-13T15:37:23.1Z</time>
      </trkpt>
      <trkpt lat="45.80477" lon="4.31575">
        <ele>476</ele>
        <time>2017-04-13T15:37:25.1Z</time>
      </trkpt>
      <trkpt lat="45.80476" lon="4.31572">
        <ele>476</ele>
        <time>2017-04-13T15:37:28.1Z</time>
      </trkpt>
      <trkpt lat="45.80478" lon="4.31571">
        <ele>476</ele>
        <time>2017-04-13T15:37:31.1Z</time>
      </trkpt>
      <trkpt lat="45.80479" lon="4.31569">
        <ele>476</ele>
        <time>2017-04-13T15:37:34.1Z</time>
      </trkpt>
      <trkpt lat="45.80481" lon="4.31566">
        <ele>477</ele>
        <time>2017-04-13T15:37:37.1Z</time>
      </trkpt>
      <trkpt lat="45.8048" lon="4.31565">
        <ele>476</ele>
        <time>2017-04-13T15:37:39.1Z</time>
      </trkpt>
      <trkpt lat="45.80476" lon="4.31558">
        <ele>476</ele>
        <time>2017-04-13T15:37:42.1Z</time>
      </trkpt>
      <trkpt lat="45.80471" lon="4.31554">
        <ele>476</ele>
        <time>2017-04-13T15:37:44.1Z</time>
      </trkpt>
      <trkpt lat="45.80466" lon="4.3155">
        <ele>476</ele>
        <time>2017-04-13T15:37:46.1Z</time>
      </trkpt>
      <trkpt lat="45.80458" lon="4.31544">
        <ele>476</ele>
        <time>2017-04-13T15:37:49.1Z</time>
      </trkpt>
      <trkpt lat="45.80449" lon="4.31538">
        <ele>477</ele>
        <time>2017-04-13T15:37:52.1Z</time>
      </trkpt>
      <trkpt lat="45.80441" lon="4.31533">
        <ele>477</ele>
        <time>2017-04-13T15:37:55.1Z</time>
      </trkpt>
      <trkpt lat="45.80436" lon="4.31532">
        <ele>478</ele>
        <time>2017-04-13T15:37:57.1Z</time>
      </trkpt>
      <trkpt lat="45.80431" lon="4.3153">
        <ele>478</ele>
        <time>2017-04-13T15:37:59.1Z</time>
      </trkpt>
      <trkpt lat="45.8042" lon="4.31527">
        <ele>478</ele>
        <time>2017-04-13T15:38:02.1Z</time>
      </trkpt>
      <trkpt lat="45.80413" lon="4.31524">
        <ele>478</ele>
        <time>2017-04-13T15:38:04.1Z</time>
      </trkpt>
      <trkpt lat="45.80403" lon="4.3152">
        <ele>478</ele>
        <time>2017-04-13T15:38:07.1Z</time>
      </trkpt>
      <trkpt lat="45.80392" lon="4.31515">
        <ele>478</ele>
        <time>2017-04-13T15:38:10.1Z</time>
      </trkpt>
      <trkpt lat="45.80386" lon="4.31512">
        <ele>478</ele>
        <time>2017-04-13T15:38:12.1Z</time>
      </trkpt>
      <trkpt lat="45.8038" lon="4.31508">
        <ele>479</ele>
        <time>2017-04-13T15:38:14.1Z</time>
      </trkpt>
      <trkpt lat="45.80374" lon="4.31505">
        <ele>478</ele>
        <time>2017-04-13T15:38:16.1Z</time>
      </trkpt>
      <trkpt lat="45.80365" lon="4.31503">
        <ele>479</ele>
        <time>2017-04-13T15:38:19.1Z</time>
      </trkpt>
      <trkpt lat="45.80358" lon="4.315">
        <ele>479</ele>
        <time>2017-04-13T15:38:21.1Z</time>
      </trkpt>
      <trkpt lat="45.80352" lon="4.31496">
        <ele>479</ele>
        <time>2017-04-13T15:38:23.1Z</time>
      </trkpt>
      <trkpt lat="45.80341" lon="4.31491">
        <ele>479</ele>
        <time>2017-04-13T15:38:26.1Z</time>
      </trkpt>
      <trkpt lat="45.80332" lon="4.31484">
        <ele>479</ele>
        <time>2017-04-13T15:38:29.1Z</time>
      </trkpt>
      <trkpt lat="45.80327" lon="4.31479">
        <ele>480</ele>
        <time>2017-04-13T15:38:31.1Z</time>
      </trkpt>
      <trkpt lat="45.8032" lon="4.31475">
        <ele>480</ele>
        <time>2017-04-13T15:38:33.1Z</time>
      </trkpt>
      <trkpt lat="45.80312" lon="4.3147">
        <ele>480</ele>
        <time>2017-04-13T15:38:36.1Z</time>
      </trkpt>
      <trkpt lat="45.80306" lon="4.31468">
        <ele>481</ele>
        <time>2017-04-13T15:38:38.1Z</time>
      </trkpt>
      <trkpt lat="45.80295" lon="4.31462">
        <ele>482</ele>
        <time>2017-04-13T15:38:41.1Z</time>
      </trkpt>
      <trkpt lat="45.80288" lon="4.31459">
        <ele>483</ele>
        <time>2017-04-13T15:38:43.1Z</time>
      </trkpt>
      <trkpt lat="45.80281" lon="4.31453">
        <ele>484</ele>
        <time>2017-04-13T15:38:45.1Z</time>
      </trkpt>
      <trkpt lat="45.80274" lon="4.31447">
        <ele>485</ele>
        <time>2017-04-13T15:38:47.1Z</time>
      </trkpt>
      <trkpt lat="45.80265" lon="4.31439">
        <ele>486</ele>
        <time>2017-04-13T15:38:50.1Z</time>
      </trkpt>
      <trkpt lat="45.80261" lon="4.31436">
        <ele>486</ele>
        <time>2017-04-13T15:38:52.1Z</time>
      </trkpt>
      <trkpt lat="45.80256" lon="4.3143">
        <ele>487</ele>
        <time>2017-04-13T15:38:55.1Z</time>
      </trkpt>
      <trkpt lat="45.80251" lon="4.31426">
        <ele>487</ele>
        <time>2017-04-13T15:38:58.1Z</time>
      </trkpt>
      <trkpt lat="45.80247" lon="4.31423">
        <ele>487</ele>
        <time>2017-04-13T15:39:00.1Z</time>
      </trkpt>
      <trkpt lat="45.80243" lon="4.3142">
        <ele>488</ele>
        <time>2017-04-13T15:39:02.1Z</time>
      </trkpt>
      <trkpt lat="45.80239" lon="4.31418">
        <ele>488</ele>
        <time>2017-04-13T15:39:04.1Z</time>
      </trkpt>
      <trkpt lat="45.80235" lon="4.31414">
        <ele>488</ele>
        <time>2017-04-13T15:39:07.1Z</time>
      </trkpt>
      <trkpt lat="45.80232" lon="4.31412">
        <ele>488</ele>
        <time>2017-04-13T15:39:09.1Z</time>
      </trkpt>
      <trkpt lat="45.80229" lon="4.31411">
        <ele>488</ele>
        <time>2017-04-13T15:39:11.1Z</time>
      </trkpt>
      <trkpt lat="45.80227" lon="4.31408">
        <ele>488</ele>
        <time>2017-04-13T15:39:13.1Z</time>
      </trkpt>
      <trkpt lat="45.80225" lon="4.31406">
        <ele>489</ele>
        <time>2017-04-13T15:39:15.1Z</time>
      </trkpt>
      <trkpt lat="45.8022" lon="4.31404">
        <ele>489</ele>
        <time>2017-04-13T15:39:18.1Z</time>
      </trkpt>
      <trkpt lat="45.80217" lon="4.31403">
        <ele>489</ele>
        <time>2017-04-13T15:39:20.1Z</time>
      </trkpt>
      <trkpt lat="45.80214" lon="4.314">
        <ele>490</ele>
        <time>2017-04-13T15:39:22.1Z</time>
      </trkpt>
      <trkpt lat="45.8021" lon="4.31397">
        <ele>490</ele>
        <time>2017-04-13T15:39:25.1Z</time>
      </trkpt>
      <trkpt lat="45.80206" lon="4.31395">
        <ele>491</ele>
        <time>2017-04-13T15:39:28.1Z</time>
      </trkpt>
      <trkpt lat="45.80202" lon="4.31392">
        <ele>490</ele>
        <time>2017-04-13T15:39:30.1Z</time>
      </trkpt>
      <trkpt lat="45.80198" lon="4.31389">
        <ele>491</ele>
        <time>2017-04-13T15:39:33.1Z</time>
      </trkpt>
      <trkpt lat="45.80194" lon="4.31385">
        <ele>491</ele>
        <time>2017-04-13T15:39:36.1Z</time>
      </trkpt>
      <trkpt lat="45.80191" lon="4.31383">
        <ele>492</ele>
        <time>2017-04-13T15:39:38.1Z</time>
      </trkpt>
      <trkpt lat="45.80189" lon="4.31381">
        <ele>492</ele>
        <time>2017-04-13T15:39:40.1Z</time>
      </trkpt>
      <trkpt lat="45.80185" lon="4.31378">
        <ele>493</ele>
        <time>2017-04-13T15:39:43.1Z</time>
      </trkpt>
      <trkpt lat="45.80182" lon="4.31376">
        <ele>493</ele>
        <time>2017-04-13T15:39:45.1Z</time>
      </trkpt>
      <trkpt lat="45.80178" lon="4.31372">
        <ele>493</ele>
        <time>2017-04-13T15:39:48.1Z</time>
      </trkpt>
      <trkpt lat="45.80175" lon="4.31369">
        <ele>494</ele>
        <time>2017-04-13T15:39:51.1Z</time>
      </trkpt>
      <trkpt lat="45.80172" lon="4.31366">
        <ele>494</ele>
        <time>2017-04-13T15:39:54.1Z</time>
      </trkpt>
      <trkpt lat="45.80168" lon="4.31363">
        <ele>495</ele>
        <time>2017-04-13T15:39:57.1Z</time>
      </trkpt>
      <trkpt lat="45.80167" lon="4.31361">
        <ele>495</ele>
        <time>2017-04-13T15:39:59.1Z</time>
      </trkpt>
      <trkpt lat="45.80164" lon="4.31357">
        <ele>495</ele>
        <time>2017-04-13T15:40:02.1Z</time>
      </trkpt>
      <trkpt lat="45.80163" lon="4.31355">
        <ele>496</ele>
        <time>2017-04-13T15:40:04.1Z</time>
      </trkpt>
      <trkpt lat="45.8016" lon="4.31351">
        <ele>496</ele>
        <time>2017-04-13T15:40:07.1Z</time>
      </trkpt>
      <trkpt lat="45.80159" lon="4.31346">
        <ele>497</ele>
        <time>2017-04-13T15:40:10.1Z</time>
      </trkpt>
      <trkpt lat="45.80157" lon="4.31342">
        <ele>497</ele>
        <time>2017-04-13T15:40:12.1Z</time>
      </trkpt>
      <trkpt lat="45.80156" lon="4.31337">
        <ele>498</ele>
        <time>2017-04-13T15:40:14.1Z</time>
      </trkpt>
      <trkpt lat="45.80156" lon="4.31333">
        <ele>498</ele>
        <time>2017-04-13T15:40:17.1Z</time>
      </trkpt>
      <trkpt lat="45.80156" lon="4.3133">
        <ele>498</ele>
        <time>2017-04-13T15:40:19.1Z</time>
      </trkpt>
      <trkpt lat="45.80156" lon="4.31324">
        <ele>499</ele>
        <time>2017-04-13T15:40:22.1Z</time>
      </trkpt>
      <trkpt lat="45.80156" lon="4.31319">
        <ele>499</ele>
        <time>2017-04-13T15:40:24.1Z</time>
      </trkpt>
      <trkpt lat="45.80156" lon="4.31315">
        <ele>499</ele>
        <time>2017-04-13T15:40:26.1Z</time>
      </trkpt>
      <trkpt lat="45.80157" lon="4.3131">
        <ele>499</ele>
        <time>2017-04-13T15:40:28.1Z</time>
      </trkpt>
      <trkpt lat="45.80157" lon="4.31304">
        <ele>499</ele>
        <time>2017-04-13T15:40:31.1Z</time>
      </trkpt>
      <trkpt lat="45.80157" lon="4.31299">
        <ele>499</ele>
        <time>2017-04-13T15:40:33.1Z</time>
      </trkpt>
      <trkpt lat="45.80158" lon="4.31293">
        <ele>500</ele>
        <time>2017-04-13T15:40:36.1Z</time>
      </trkpt>
      <trkpt lat="45.80159" lon="4.31288">
        <ele>500</ele>
        <time>2017-04-13T15:40:38.1Z</time>
      </trkpt>
      <trkpt lat="45.80161" lon="4.31284">
        <ele>500</ele>
        <time>2017-04-13T15:40:40.1Z</time>
      </trkpt>
      <trkpt lat="45.80162" lon="4.3128">
        <ele>500</ele>
        <time>2017-04-13T15:40:42.1Z</time>
      </trkpt>
      <trkpt lat="45.80163" lon="4.31275">
        <ele>500</ele>
        <time>2017-04-13T15:40:45.1Z</time>
      </trkpt>
      <trkpt lat="45.80165" lon="4.3127">
        <ele>500</ele>
        <time>2017-04-13T15:40:48.1Z</time>
      </trkpt>
      <trkpt lat="45.80166" lon="4.31263">
        <ele>500</ele>
        <time>2017-04-13T15:40:51.1Z</time>
      </trkpt>
      <trkpt lat="45.80167" lon="4.31259">
        <ele>500</ele>
        <time>2017-04-13T15:40:53.1Z</time>
      </trkpt>
      <trkpt lat="45.80166" lon="4.31256">
        <ele>500</ele>
        <time>2017-04-13T15:40:55.1Z</time>
      </trkpt>
      <trkpt lat="45.80166" lon="4.31251">
        <ele>500</ele>
        <time>2017-04-13T15:40:58.1Z</time>
      </trkpt>
      <trkpt lat="45.80164" lon="4.31246">
        <ele>501</ele>
        <time>2017-04-13T15:41:01.1Z</time>
      </trkpt>
      <trkpt lat="45.80163" lon="4.31243">
        <ele>501</ele>
        <time>2017-04-13T15:41:03.1Z</time>
      </trkpt>
      <trkpt lat="45.80161" lon="4.3124">
        <ele>501</ele>
        <time>2017-04-13T15:41:05.1Z</time>
      </trkpt>
      <trkpt lat="45.80159" lon="4.31238">
        <ele>501</ele>
        <time>2017-04-13T15:41:07.1Z</time>
      </trkpt>
      <trkpt lat="45.80157" lon="4.31236">
        <ele>502</ele>
        <time>2017-04-13T15:41:10.1Z</time>
      </trkpt>
      <trkpt lat="45.80153" lon="4.31234">
        <ele>503</ele>
        <time>2017-04-13T15:41:13.1Z</time>
      </trkpt>
      <trkpt lat="45.80151" lon="4.31233">
        <ele>503</ele>
        <time>2017-04-13T15:41:15.1Z</time>
      </trkpt>
      <trkpt lat="45.80146" lon="4.31232">
        <ele>503</ele>
        <time>2017-04-13T15:41:18.1Z</time>
      </trkpt>
      <trkpt lat="45.80144" lon="4.31231">
        <ele>503</ele>
        <time>2017-04-13T15:41:20.1Z</time>
      </trkpt>
      <trkpt lat="45.80141" lon="4.31231">
        <ele>504</ele>
        <time>2017-04-13T15:41:22.1Z</time>
      </trkpt>
      <trkpt lat="45.80136" lon="4.31229">
        <ele>505</ele>
        <time>2017-04-13T15:41:25.1Z</time>
      </trkpt>
      <trkpt lat="45.80134" lon="4.31229">
        <ele>505</ele>
        <time>2017-04-13T15:41:27.1Z</time>
      </trkpt>
      <trkpt lat="45.80132" lon="4.31228">
        <ele>506</ele>
        <time>2017-04-13T15:41:29.1Z</time>
      </trkpt>
      <trkpt lat="45.80128" lon="4.31227">
        <ele>506</ele>
        <time>2017-04-13T15:41:32.1Z</time>
      </trkpt>
      <trkpt lat="45.80125" lon="4.31227">
        <ele>507</ele>
        <time>2017-04-13T15:41:35.1Z</time>
      </trkpt>
      <trkpt lat="45.80121" lon="4.31227">
        <ele>507</ele>
        <time>2017-04-13T15:41:38.1Z</time>
      </trkpt>
      <trkpt lat="45.80119" lon="4.31227">
        <ele>508</ele>
        <time>2017-04-13T15:41:40.1Z</time>
      </trkpt>
      <trkpt lat="45.80116" lon="4.31226">
        <ele>508</ele>
        <time>2017-04-13T15:41:43.1Z</time>
      </trkpt>
      <trkpt lat="45.80113" lon="4.31226">
        <ele>509</ele>
        <time>2017-04-13T15:41:45.1Z</time>
      </trkpt>
      <trkpt lat="45.80109" lon="4.31225">
        <ele>509</ele>
        <time>2017-04-13T15:41:48.1Z</time>
      </trkpt>
      <trkpt lat="45.80106" lon="4.31226">
        <ele>509</ele>
        <time>2017-04-13T15:41:51.1Z</time>
      </trkpt>
      <trkpt lat="45.80104" lon="4.31226">
        <ele>510</ele>
        <time>2017-04-13T15:41:53.1Z</time>
      </trkpt>
      <trkpt lat="45.80101" lon="4.31226">
        <ele>510</ele>
        <time>2017-04-13T15:41:56.1Z</time>
      </trkpt>
      <trkpt lat="45.80098" lon="4.31225">
        <ele>510</ele>
        <time>2017-04-13T15:41:58.1Z</time>
      </trkpt>
      <trkpt lat="45.80096" lon="4.31226">
        <ele>511</ele>
        <time>2017-04-13T15:42:00.1Z</time>
      </trkpt>
      <trkpt lat="45.80093" lon="4.31225">
        <ele>511</ele>
        <time>2017-04-13T15:42:03.1Z</time>
      </trkpt>
      <trkpt lat="45.80091" lon="4.31224">
        <ele>511</ele>
        <time>2017-04-13T15:42:05.1Z</time>
      </trkpt>
      <trkpt lat="45.8009" lon="4.31224">
        <ele>512</ele>
        <time>2017-04-13T15:42:07.1Z</time>
      </trkpt>
      <trkpt lat="45.80088" lon="4.31222">
        <ele>512</ele>
        <time>2017-04-13T15:42:09.1Z</time>
      </trkpt>
      <trkpt lat="45.80085" lon="4.31222">
        <ele>512</ele>
        <time>2017-04-13T15:42:12.1Z</time>
      </trkpt>
      <trkpt lat="45.80083" lon="4.31222">
        <ele>513</ele>
        <time>2017-04-13T15:42:14.1Z</time>
      </trkpt>
      <trkpt lat="45.8008" lon="4.31223">
        <ele>512</ele>
        <time>2017-04-13T15:42:17.1Z</time>
      </trkpt>
      <trkpt lat="45.80077" lon="4.31224">
        <ele>512</ele>
        <time>2017-04-13T15:42:19.1Z</time>
      </trkpt>
      <trkpt lat="45.80073" lon="4.31225">
        <ele>512</ele>
        <time>2017-04-13T15:42:22.1Z</time>
      </trkpt>
      <trkpt lat="45.80069" lon="4.31225">
        <ele>511</ele>
        <time>2017-04-13T15:42:25.1Z</time>
      </trkpt>
      <trkpt lat="45.80066" lon="4.31226">
        <ele>511</ele>
        <time>2017-04-13T15:42:27.1Z</time>
      </trkpt>
      <trkpt lat="45.80063" lon="4.31227">
        <ele>510</ele>
        <time>2017-04-13T15:42:29.1Z</time>
      </trkpt>
      <trkpt lat="45.80061" lon="4.31228">
        <ele>509</ele>
        <time>2017-04-13T15:42:31.1Z</time>
      </trkpt>
      <trkpt lat="45.80057" lon="4.31229">
        <ele>509</ele>
        <time>2017-04-13T15:42:34.1Z</time>
      </trkpt>
      <trkpt lat="45.80054" lon="4.31229">
        <ele>509</ele>
        <time>2017-04-13T15:42:36.1Z</time>
      </trkpt>
      <trkpt lat="45.80052" lon="4.31229">
        <ele>508</ele>
        <time>2017-04-13T15:42:38.1Z</time>
      </trkpt>
      <trkpt lat="45.8005" lon="4.3123">
        <ele>508</ele>
        <time>2017-04-13T15:42:40.1Z</time>
      </trkpt>
      <trkpt lat="45.80047" lon="4.31231">
        <ele>508</ele>
        <time>2017-04-13T15:42:42.1Z</time>
      </trkpt>
      <trkpt lat="45.80045" lon="4.31231">
        <ele>507</ele>
        <time>2017-04-13T15:42:44.1Z</time>
      </trkpt>
      <trkpt lat="45.80042" lon="4.31231">
        <ele>507</ele>
        <time>2017-04-13T15:42:47.1Z</time>
      </trkpt>
      <trkpt lat="45.80037" lon="4.31233">
        <ele>507</ele>
        <time>2017-04-13T15:42:50.1Z</time>
      </trkpt>
      <trkpt lat="45.80035" lon="4.31234">
        <ele>507</ele>
        <time>2017-04-13T15:42:53.1Z</time>
      </trkpt>
      <trkpt lat="45.80032" lon="4.31235">
        <ele>506</ele>
        <time>2017-04-13T15:42:55.1Z</time>
      </trkpt>
      <trkpt lat="45.80029" lon="4.31236">
        <ele>506</ele>
        <time>2017-04-13T15:42:57.1Z</time>
      </trkpt>
      <trkpt lat="45.80027" lon="4.31237">
        <ele>506</ele>
        <time>2017-04-13T15:42:59.1Z</time>
      </trkpt>
      <trkpt lat="45.80021" lon="4.31239">
        <ele>506</ele>
        <time>2017-04-13T15:43:02.1Z</time>
      </trkpt>
      <trkpt lat="45.80019" lon="4.31239">
        <ele>506</ele>
        <time>2017-04-13T15:43:04.1Z</time>
      </trkpt>
      <trkpt lat="45.80016" lon="4.3124">
        <ele>505</ele>
        <time>2017-04-13T15:43:06.1Z</time>
      </trkpt>
      <trkpt lat="45.80012" lon="4.31242">
        <ele>505</ele>
        <time>2017-04-13T15:43:09.1Z</time>
      </trkpt>
      <trkpt lat="45.80009" lon="4.31242">
        <ele>505</ele>
        <time>2017-04-13T15:43:11.1Z</time>
      </trkpt>
      <trkpt lat="45.80006" lon="4.31244">
        <ele>505</ele>
        <time>2017-04-13T15:43:13.1Z</time>
      </trkpt>
      <trkpt lat="45.80003" lon="4.31246">
        <ele>505</ele>
        <time>2017-04-13T15:43:16.1Z</time>
      </trkpt>
      <trkpt lat="45.8" lon="4.31247">
        <ele>505</ele>
        <time>2017-04-13T15:43:18.1Z</time>
      </trkpt>
      <trkpt lat="45.79996" lon="4.31249">
        <ele>504</ele>
        <time>2017-04-13T15:43:21.1Z</time>
      </trkpt>
      <trkpt lat="45.79993" lon="4.31249">
        <ele>504</ele>
        <time>2017-04-13T15:43:23.1Z</time>
      </trkpt>
      <trkpt lat="45.7999" lon="4.31249">
        <ele>503</ele>
        <time>2017-04-13T15:43:25.1Z</time>
      </trkpt>
      <trkpt lat="45.79987" lon="4.3125">
        <ele>503</ele>
        <time>2017-04-13T15:43:27.1Z</time>
      </trkpt>
      <trkpt lat="45.79983" lon="4.3125">
        <ele>503</ele>
        <time>2017-04-13T15:43:30.1Z</time>
      </trkpt>
      <trkpt lat="45.79978" lon="4.31251">
        <ele>503</ele>
        <time>2017-04-13T15:43:33.1Z</time>
      </trkpt>
      <trkpt lat="45.79973" lon="4.3125">
        <ele>503</ele>
        <time>2017-04-13T15:43:36.1Z</time>
      </trkpt>
      <trkpt lat="45.79971" lon="4.3125">
        <ele>502</ele>
        <time>2017-04-13T15:43:38.1Z</time>
      </trkpt>
      <trkpt lat="45.79969" lon="4.31251">
        <ele>502</ele>
        <time>2017-04-13T15:43:40.1Z</time>
      </trkpt>
      <trkpt lat="45.79966" lon="4.31251">
        <ele>501</ele>
        <time>2017-04-13T15:43:43.1Z</time>
      </trkpt>
      <trkpt lat="45.79964" lon="4.31252">
        <ele>501</ele>
        <time>2017-04-13T15:43:45.1Z</time>
      </trkpt>
      <trkpt lat="45.79963" lon="4.31252">
        <ele>501</ele>
        <time>2017-04-13T15:43:47.1Z</time>
      </trkpt>
      <trkpt lat="45.79959" lon="4.31254">
        <ele>501</ele>
        <time>2017-04-13T15:43:50.1Z</time>
      </trkpt>
      <trkpt lat="45.79956" lon="4.31254">
        <ele>500</ele>
        <time>2017-04-13T15:43:52.1Z</time>
      </trkpt>
      <trkpt lat="45.79955" lon="4.31255">
        <ele>500</ele>
        <time>2017-04-13T15:43:55.1Z</time>
      </trkpt>
      <trkpt lat="45.79953" lon="4.31255">
        <ele>500</ele>
        <time>2017-04-13T15:43:57.1Z</time>
      </trkpt>
      <trkpt lat="45.79949" lon="4.31255">
        <ele>501</ele>
        <time>2017-04-13T15:44:00.1Z</time>
      </trkpt>
      <trkpt lat="45.79946" lon="4.31256">
        <ele>501</ele>
        <time>2017-04-13T15:44:02.1Z</time>
      </trkpt>
      <trkpt lat="45.79944" lon="4.31256">
        <ele>501</ele>
        <time>2017-04-13T15:44:04.1Z</time>
      </trkpt>
      <trkpt lat="45.79942" lon="4.31255">
        <ele>501</ele>
        <time>2017-04-13T15:44:06.1Z</time>
      </trkpt>
      <trkpt lat="45.7994" lon="4.31255">
        <ele>501</ele>
        <time>2017-04-13T15:44:08.1Z</time>
      </trkpt>
      <trkpt lat="45.7994" lon="4.31254">
        <ele>501</ele>
        <time>2017-04-13T15:44:10.1Z</time>
      </trkpt>
      <trkpt lat="45.79938" lon="4.31255">
        <ele>501</ele>
        <time>2017-04-13T15:44:13.1Z</time>
      </trkpt>
      <trkpt lat="45.79938" lon="4.31255">
        <ele>501</ele>
        <time>2017-04-13T15:44:15.1Z</time>
      </trkpt>
      <trkpt lat="45.79937" lon="4.31256">
        <ele>500</ele>
        <time>2017-04-13T15:44:17.1Z</time>
      </trkpt>
      <trkpt lat="45.79936" lon="4.31257">
        <ele>500</ele>
        <time>2017-04-13T15:44:20.1Z</time>
      </trkpt>
      <trkpt lat="45.79935" lon="4.31258">
        <ele>500</ele>
        <time>2017-04-13T15:44:22.1Z</time>
      </trkpt>
      <trkpt lat="45.79933" lon="4.31259">
        <ele>500</ele>
        <time>2017-04-13T15:44:25.1Z</time>
      </trkpt>
      <trkpt lat="45.79931" lon="4.3126">
        <ele>500</ele>
        <time>2017-04-13T15:44:27.1Z</time>
      </trkpt>
      <trkpt lat="45.79929" lon="4.31262">
        <ele>500</ele>
        <time>2017-04-13T15:44:29.1Z</time>
      </trkpt>
      <trkpt lat="45.79927" lon="4.31263">
        <ele>500</ele>
        <time>2017-04-13T15:44:31.1Z</time>
      </trkpt>
      <trkpt lat="45.79926" lon="4.31265">
        <ele>499</ele>
        <time>2017-04-13T15:44:33.1Z</time>
      </trkpt>
      <trkpt lat="45.79923" lon="4.31267">
        <ele>499</ele>
        <time>2017-04-13T15:44:36.1Z</time>
      </trkpt>
      <trkpt lat="45.79921" lon="4.31268">
        <ele>499</ele>
        <time>2017-04-13T15:44:38.1Z</time>
      </trkpt>
      <trkpt lat="45.79918" lon="4.31269">
        <ele>499</ele>
        <time>2017-04-13T15:44:40.1Z</time>
      </trkpt>
      <trkpt lat="45.79914" lon="4.31271">
        <ele>499</ele>
        <time>2017-04-13T15:44:43.1Z</time>
      </trkpt>
      <trkpt lat="45.79912" lon="4.31272">
        <ele>499</ele>
        <time>2017-04-13T15:44:45.1Z</time>
      </trkpt>
      <trkpt lat="45.7991" lon="4.31272">
        <ele>499</ele>
        <time>2017-04-13T15:44:47.1Z</time>
      </trkpt>
      <trkpt lat="45.79907" lon="4.31273">
        <ele>499</ele>
        <time>2017-04-13T15:44:49.1Z</time>
      </trkpt>
      <trkpt lat="45.79904" lon="4.31273">
        <ele>499</ele>
        <time>2017-04-13T15:44:52.1Z</time>
      </trkpt>
      <trkpt lat="45.79901" lon="4.31273">
        <ele>499</ele>
        <time>2017-04-13T15:44:54.1Z</time>
      </trkpt>
      <trkpt lat="45.79896" lon="4.31273">
        <ele>499</ele>
        <time>2017-04-13T15:44:57.1Z</time>
      </trkpt>
      <trkpt lat="45.79892" lon="4.31273">
        <ele>499</ele>
        <time>2017-04-13T15:44:59.1Z</time>
      </trkpt>
      <trkpt lat="45.79887" lon="4.31272">
        <ele>499</ele>
        <time>2017-04-13T15:45:02.1Z</time>
      </trkpt>
      <trkpt lat="45.79882" lon="4.31271">
        <ele>498</ele>
        <time>2017-04-13T15:45:05.1Z</time>
      </trkpt>
      <trkpt lat="45.79878" lon="4.31272">
        <ele>498</ele>
        <time>2017-04-13T15:45:07.1Z</time>
      </trkpt>
      <trkpt lat="45.79875" lon="4.31272">
        <ele>498</ele>
        <time>2017-04-13T15:45:09.1Z</time>
      </trkpt>
      <trkpt lat="45.79871" lon="4.31272">
        <ele>498</ele>
        <time>2017-04-13T15:45:12.1Z</time>
      </trkpt>
      <trkpt lat="45.79867" lon="4.31272">
        <ele>498</ele>
        <time>2017-04-13T15:45:14.1Z</time>
      </trkpt>
      <trkpt lat="45.79862" lon="4.31273">
        <ele>498</ele>
        <time>2017-04-13T15:45:17.1Z</time>
      </trkpt>
      <trkpt lat="45.79858" lon="4.31275">
        <ele>498</ele>
        <time>2017-04-13T15:45:19.1Z</time>
      </trkpt>
      <trkpt lat="45.79855" lon="4.31275">
        <ele>497</ele>
        <time>2017-04-13T15:45:21.1Z</time>
      </trkpt>
      <trkpt lat="45.79851" lon="4.31277">
        <ele>497</ele>
        <time>2017-04-13T15:45:24.1Z</time>
      </trkpt>
      <trkpt lat="45.79846" lon="4.31278">
        <ele>496</ele>
        <time>2017-04-13T15:45:27.1Z</time>
      </trkpt>
      <trkpt lat="45.79842" lon="4.3128">
        <ele>495</ele>
        <time>2017-04-13T15:45:30.1Z</time>
      </trkpt>
      <trkpt lat="45.79839" lon="4.3128">
        <ele>495</ele>
        <time>2017-04-13T15:45:32.1Z</time>
      </trkpt>
      <trkpt lat="45.79836" lon="4.3128">
        <ele>495</ele>
        <time>2017-04-13T15:45:34.1Z</time>
      </trkpt>
      <trkpt lat="45.79831" lon="4.3128">
        <ele>495</ele>
        <time>2017-04-13T15:45:37.1Z</time>
      </trkpt>
      <trkpt lat="45.79828" lon="4.31281">
        <ele>494</ele>
        <time>2017-04-13T15:45:39.1Z</time>
      </trkpt>
      <trkpt lat="45.79823" lon="4.31283">
        <ele>494</ele>
        <time>2017-04-13T15:45:42.1Z</time>
      </trkpt>
      <trkpt lat="45.79819" lon="4.31285">
        <ele>494</ele>
        <time>2017-04-13T15:45:45.1Z</time>
      </trkpt>
      <trkpt lat="45.79816" lon="4.31285">
        <ele>493</ele>
        <time>2017-04-13T15:45:47.1Z</time>
      </trkpt>
      <trkpt lat="45.79812" lon="4.31286">
        <ele>493</ele>
        <time>2017-04-13T15:45:49.1Z</time>
      </trkpt>
      <trkpt lat="45.79809" lon="4.31286">
        <ele>493</ele>
        <time>2017-04-13T15:45:51.1Z</time>
      </trkpt>
      <trkpt lat="45.79805" lon="4.31286">
        <ele>493</ele>
        <time>2017-04-13T15:45:54.1Z</time>
      </trkpt>
      <trkpt lat="45.798" lon="4.31287">
        <ele>492</ele>
        <time>2017-04-13T15:45:57.1Z</time>
      </trkpt>
      <trkpt lat="45.79796" lon="4.31288">
        <ele>492</ele>
        <time>2017-04-13T15:46:00.1Z</time>
      </trkpt>
      <trkpt lat="45.79791" lon="4.31288">
        <ele>492</ele>
        <time>2017-04-13T15:46:03.1Z</time>
      </trkpt>
      <trkpt lat="45.79788" lon="4.31288">
        <ele>492</ele>
        <time>2017-04-13T15:46:05.1Z</time>
      </trkpt>
      <trkpt lat="45.79786" lon="4.31288">
        <ele>492</ele>
        <time>2017-04-13T15:46:07.1Z</time>
      </trkpt>
      <trkpt lat="45.79783" lon="4.31288">
        <ele>492</ele>
        <time>2017-04-13T15:46:09.1Z</time>
      </trkpt>
      <trkpt lat="45.79779" lon="4.31288">
        <ele>492</ele>
        <time>2017-04-13T15:46:12.1Z</time>
      </trkpt>
      <trkpt lat="45.79776" lon="4.31288">
        <ele>492</ele>
        <time>2017-04-13T15:46:14.1Z</time>
      </trkpt>
      <trkpt lat="45.79773" lon="4.31287">
        <ele>492</ele>
        <time>2017-04-13T15:46:16.1Z</time>
      </trkpt>
      <trkpt lat="45.79768" lon="4.31287">
        <ele>493</ele>
        <time>2017-04-13T15:46:19.1Z</time>
      </trkpt>
      <trkpt lat="45.79764" lon="4.31286">
        <ele>493</ele>
        <time>2017-04-13T15:46:22.1Z</time>
      </trkpt>
      <trkpt lat="45.7976" lon="4.31285">
        <ele>493</ele>
        <time>2017-04-13T15:46:25.1Z</time>
      </trkpt>
      <trkpt lat="45.79757" lon="4.31285">
        <ele>493</ele>
        <time>2017-04-13T15:46:27.1Z</time>
      </trkpt>
      <trkpt lat="45.79753" lon="4.31285">
        <ele>493</ele>
        <time>2017-04-13T15:46:30.1Z</time>
      </trkpt>
      <trkpt lat="45.79749" lon="4.31286">
        <ele>492</ele>
        <time>2017-04-13T15:46:33.1Z</time>
      </trkpt>
      <trkpt lat="45.79745" lon="4.31287">
        <ele>492</ele>
        <time>2017-04-13T15:46:36.1Z</time>
      </trkpt>
      <trkpt lat="45.79741" lon="4.31288">
        <ele>492</ele>
        <time>2017-04-13T15:46:38.1Z</time>
      </trkpt>
      <trkpt lat="45.79736" lon="4.31288">
        <ele>493</ele>
        <time>2017-04-13T15:46:41.1Z</time>
      </trkpt>
      <trkpt lat="45.79734" lon="4.31288">
        <ele>493</ele>
        <time>2017-04-13T15:46:43.1Z</time>
      </trkpt>
      <trkpt lat="45.79731" lon="4.31289">
        <ele>493</ele>
        <time>2017-04-13T15:46:45.1Z</time>
      </trkpt>
      <trkpt lat="45.79728" lon="4.31289">
        <ele>493</ele>
        <time>2017-04-13T15:46:47.1Z</time>
      </trkpt>
      <trkpt lat="45.79726" lon="4.31289">
        <ele>494</ele>
        <time>2017-04-13T15:46:49.1Z</time>
      </trkpt>
      <trkpt lat="45.79722" lon="4.3129">
        <ele>494</ele>
        <time>2017-04-13T15:46:52.1Z</time>
      </trkpt>
      <trkpt lat="45.79719" lon="4.31292">
        <ele>494</ele>
        <time>2017-04-13T15:46:54.1Z</time>
      </trkpt>
      <trkpt lat="45.79716" lon="4.31292">
        <ele>494</ele>
        <time>2017-04-13T15:46:56.1Z</time>
      </trkpt>
      <trkpt lat="45.79713" lon="4.31293">
        <ele>494</ele>
        <time>2017-04-13T15:46:58.1Z</time>
      </trkpt>
      <trkpt lat="45.79711" lon="4.31293">
        <ele>494</ele>
        <time>2017-04-13T15:47:00.1Z</time>
      </trkpt>
      <trkpt lat="45.79707" lon="4.31294">
        <ele>494</ele>
        <time>2017-04-13T15:47:03.1Z</time>
      </trkpt>
      <trkpt lat="45.79704" lon="4.31294">
        <ele>494</ele>
        <time>2017-04-13T15:47:05.1Z</time>
      </trkpt>
      <trkpt lat="45.79702" lon="4.31296">
        <ele>494</ele>
        <time>2017-04-13T15:47:07.1Z</time>
      </trkpt>
      <trkpt lat="45.79697" lon="4.31297">
        <ele>494</ele>
        <time>2017-04-13T15:47:10.1Z</time>
      </trkpt>
      <trkpt lat="45.79695" lon="4.31297">
        <ele>494</ele>
        <time>2017-04-13T15:47:12.1Z</time>
      </trkpt>
      <trkpt lat="45.79692" lon="4.31298">
        <ele>494</ele>
        <time>2017-04-13T15:47:14.1Z</time>
      </trkpt>
      <trkpt lat="45.79689" lon="4.31299">
        <ele>494</ele>
        <time>2017-04-13T15:47:16.1Z</time>
      </trkpt>
      <trkpt lat="45.79685" lon="4.313">
        <ele>494</ele>
        <time>2017-04-13T15:47:18.1Z</time>
      </trkpt>
      <trkpt lat="45.79683" lon="4.31301">
        <ele>494</ele>
        <time>2017-04-13T15:47:20.1Z</time>
      </trkpt>
      <trkpt lat="45.7968" lon="4.31301">
        <ele>494</ele>
        <time>2017-04-13T15:47:22.1Z</time>
      </trkpt>
      <trkpt lat="45.79676" lon="4.31303">
        <ele>494</ele>
        <time>2017-04-13T15:47:25.1Z</time>
      </trkpt>
      <trkpt lat="45.79673" lon="4.31304">
        <ele>493</ele>
        <time>2017-04-13T15:47:27.1Z</time>
      </trkpt>
      <trkpt lat="45.79671" lon="4.31305">
        <ele>493</ele>
        <time>2017-04-13T15:47:29.1Z</time>
      </trkpt>
      <trkpt lat="45.79668" lon="4.31306">
        <ele>493</ele>
        <time>2017-04-13T15:47:31.1Z</time>
      </trkpt>
      <trkpt lat="45.79665" lon="4.31307">
        <ele>493</ele>
        <time>2017-04-13T15:47:33.1Z</time>
      </trkpt>
      <trkpt lat="45.79662" lon="4.31307">
        <ele>493</ele>
        <time>2017-04-13T15:47:35.1Z</time>
      </trkpt>
      <trkpt lat="45.7966" lon="4.31308">
        <ele>493</ele>
        <time>2017-04-13T15:47:37.1Z</time>
      </trkpt>
      <trkpt lat="45.79655" lon="4.3131">
        <ele>493</ele>
        <time>2017-04-13T15:47:40.1Z</time>
      </trkpt>
      <trkpt lat="45.79651" lon="4.31312">
        <ele>492</ele>
        <time>2017-04-13T15:47:43.1Z</time>
      </trkpt>
      <trkpt lat="45.79647" lon="4.31315">
        <ele>493</ele>
        <time>2017-04-13T15:47:46.1Z</time>
      </trkpt>
      <trkpt lat="45.79645" lon="4.31316">
        <ele>493</ele>
        <time>2017-04-13T15:47:48.1Z</time>
      </trkpt>
      <trkpt lat="45.79642" lon="4.31318">
        <ele>493</ele>
        <time>2017-04-13T15:47:50.1Z</time>
      </trkpt>
      <trkpt lat="45.79639" lon="4.31319">
        <ele>493</ele>
        <time>2017-04-13T15:47:53.1Z</time>
      </trkpt>
      <trkpt lat="45.79634" lon="4.31321">
        <ele>492</ele>
        <time>2017-04-13T15:47:56.1Z</time>
      </trkpt>
      <trkpt lat="45.79632" lon="4.31322">
        <ele>492</ele>
        <time>2017-04-13T15:47:58.1Z</time>
      </trkpt>
      <trkpt lat="45.79628" lon="4.31323">
        <ele>492</ele>
        <time>2017-04-13T15:48:01.1Z</time>
      </trkpt>
      <trkpt lat="45.79624" lon="4.31324">
        <ele>492</ele>
        <time>2017-04-13T15:48:04.1Z</time>
      </trkpt>
      <trkpt lat="45.79622" lon="4.31325">
        <ele>492</ele>
        <time>2017-04-13T15:48:06.1Z</time>
      </trkpt>
      <trkpt lat="45.79619" lon="4.31326">
        <ele>491</ele>
        <time>2017-04-13T15:48:09.1Z</time>
      </trkpt>
      <trkpt lat="45.79616" lon="4.31327">
        <ele>491</ele>
        <time>2017-04-13T15:48:11.1Z</time>
      </trkpt>
      <trkpt lat="45.79612" lon="4.31329">
        <ele>491</ele>
        <time>2017-04-13T15:48:14.1Z</time>
      </trkpt>
      <trkpt lat="45.7961" lon="4.31331">
        <ele>491</ele>
        <time>2017-04-13T15:48:16.1Z</time>
      </trkpt>
      <trkpt lat="45.79607" lon="4.31333">
        <ele>490</ele>
        <time>2017-04-13T15:48:18.1Z</time>
      </trkpt>
      <trkpt lat="45.79604" lon="4.31334">
        <ele>490</ele>
        <time>2017-04-13T15:48:20.1Z</time>
      </trkpt>
      <trkpt lat="45.79602" lon="4.31335">
        <ele>490</ele>
        <time>2017-04-13T15:48:22.1Z</time>
      </trkpt>
      <trkpt lat="45.79599" lon="4.31336">
        <ele>490</ele>
        <time>2017-04-13T15:48:24.1Z</time>
      </trkpt>
      <trkpt lat="45.79594" lon="4.31337">
        <ele>489</ele>
        <time>2017-04-13T15:48:27.1Z</time>
      </trkpt>
      <trkpt lat="45.79592" lon="4.31338">
        <ele>489</ele>
        <time>2017-04-13T15:48:29.1Z</time>
      </trkpt>
      <trkpt lat="45.79589" lon="4.31339">
        <ele>489</ele>
        <time>2017-04-13T15:48:31.1Z</time>
      </trkpt>
      <trkpt lat="45.79586" lon="4.3134">
        <ele>489</ele>
        <time>2017-04-13T15:48:33.1Z</time>
      </trkpt>
      <trkpt lat="45.79582" lon="4.31342">
        <ele>488</ele>
        <time>2017-04-13T15:48:36.1Z</time>
      </trkpt>
      <trkpt lat="45.79579" lon="4.31343">
        <ele>488</ele>
        <time>2017-04-13T15:48:38.1Z</time>
      </trkpt>
      <trkpt lat="45.79576" lon="4.31345">
        <ele>488</ele>
        <time>2017-04-13T15:48:40.1Z</time>
      </trkpt>
      <trkpt lat="45.79573" lon="4.31346">
        <ele>487</ele>
        <time>2017-04-13T15:48:43.1Z</time>
      </trkpt>
      <trkpt lat="45.79569" lon="4.31347">
        <ele>487</ele>
        <time>2017-04-13T15:48:46.1Z</time>
      </trkpt>
      <trkpt lat="45.79567" lon="4.31348">
        <ele>487</ele>
        <time>2017-04-13T15:48:48.1Z</time>
      </trkpt>
      <trkpt lat="45.79564" lon="4.31348">
        <ele>487</ele>
        <time>2017-04-13T15:48:50.1Z</time>
      </trkpt>
      <trkpt lat="45.7956" lon="4.31349">
        <ele>486</ele>
        <time>2017-04-13T15:48:53.1Z</time>
      </trkpt>
      <trkpt lat="45.79557" lon="4.3135">
        <ele>486</ele>
        <time>2017-04-13T15:48:55.1Z</time>
      </trkpt>
      <trkpt lat="45.79555" lon="4.3135">
        <ele>486</ele>
        <time>2017-04-13T15:48:57.1Z</time>
      </trkpt>
      <trkpt lat="45.79553" lon="4.31351">
        <ele>486</ele>
        <time>2017-04-13T15:48:59.1Z</time>
      </trkpt>
      <trkpt lat="45.79549" lon="4.31352">
        <ele>485</ele>
        <time>2017-04-13T15:49:02.1Z</time>
      </trkpt>
      <trkpt lat="45.79547" lon="4.31352">
        <ele>485</ele>
        <time>2017-04-13T15:49:04.1Z</time>
      </trkpt>
      <trkpt lat="45.79544" lon="4.31352">
        <ele>484</ele>
        <time>2017-04-13T15:49:07.1Z</time>
      </trkpt>
      <trkpt lat="45.79541" lon="4.31353">
        <ele>484</ele>
        <time>2017-04-13T15:49:10.1Z</time>
      </trkpt>
      <trkpt lat="45.79539" lon="4.31353">
        <ele>484</ele>
        <time>2017-04-13T15:49:12.1Z</time>
      </trkpt>
      <trkpt lat="45.79537" lon="4.31354">
        <ele>484</ele>
        <time>2017-04-13T15:49:14.1Z</time>
      </trkpt>
      <trkpt lat="45.79535" lon="4.31354">
        <ele>483</ele>
        <time>2017-04-13T15:49:16.1Z</time>
      </trkpt>
      <trkpt lat="45.79531" lon="4.31355">
        <ele>483</ele>
        <time>2017-04-13T15:49:19.1Z</time>
      </trkpt>
      <trkpt lat="45.79529" lon="4.31355">
        <ele>482</ele>
        <time>2017-04-13T15:49:21.1Z</time>
      </trkpt>
      <trkpt lat="45.79525" lon="4.31357">
        <ele>481</ele>
        <time>2017-04-13T15:49:24.1Z</time>
      </trkpt>
      <trkpt lat="45.79523" lon="4.31359">
        <ele>481</ele>
        <time>2017-04-13T15:49:26.1Z</time>
      </trkpt>
      <trkpt lat="45.7952" lon="4.3136">
        <ele>480</ele>
        <time>2017-04-13T15:49:28.1Z</time>
      </trkpt>
      <trkpt lat="45.79518" lon="4.31361">
        <ele>480</ele>
        <time>2017-04-13T15:49:30.1Z</time>
      </trkpt>
      <trkpt lat="45.79514" lon="4.31363">
        <ele>479</ele>
        <time>2017-04-13T15:49:33.1Z</time>
      </trkpt>
      <trkpt lat="45.7951" lon="4.31364">
        <ele>479</ele>
        <time>2017-04-13T15:49:36.1Z</time>
      </trkpt>
      <trkpt lat="45.79506" lon="4.31365">
        <ele>479</ele>
        <time>2017-04-13T15:49:39.1Z</time>
      </trkpt>
      <trkpt lat="45.79504" lon="4.31365">
        <ele>479</ele>
        <time>2017-04-13T15:49:41.1Z</time>
      </trkpt>
      <trkpt lat="45.79499" lon="4.31365">
        <ele>478</ele>
        <time>2017-04-13T15:49:44.1Z</time>
      </trkpt>
      <trkpt lat="45.79496" lon="4.31364">
        <ele>478</ele>
        <time>2017-04-13T15:49:47.1Z</time>
      </trkpt>
      <trkpt lat="45.79492" lon="4.31363">
        <ele>478</ele>
        <time>2017-04-13T15:49:50.1Z</time>
      </trkpt>
      <trkpt lat="45.79488" lon="4.31363">
        <ele>478</ele>
        <time>2017-04-13T15:49:53.1Z</time>
      </trkpt>
      <trkpt lat="45.79484" lon="4.31363">
        <ele>478</ele>
        <time>2017-04-13T15:49:56.1Z</time>
      </trkpt>
      <trkpt lat="45.79481" lon="4.31363">
        <ele>479</ele>
        <time>2017-04-13T15:49:58.1Z</time>
      </trkpt>
      <trkpt lat="45.79477" lon="4.31363">
        <ele>479</ele>
        <time>2017-04-13T15:50:01.1Z</time>
      </trkpt>
      <trkpt lat="45.79475" lon="4.31363">
        <ele>479</ele>
        <time>2017-04-13T15:50:03.1Z</time>
      </trkpt>
      <trkpt lat="45.79472" lon="4.31363">
        <ele>479</ele>
        <time>2017-04-13T15:50:05.1Z</time>
      </trkpt>
      <trkpt lat="45.79468" lon="4.31361">
        <ele>479</ele>
        <time>2017-04-13T15:50:08.1Z</time>
      </trkpt>
      <trkpt lat="45.79466" lon="4.3136">
        <ele>479</ele>
        <time>2017-04-13T15:50:10.1Z</time>
      </trkpt>
      <trkpt lat="45.79462" lon="4.31358">
        <ele>479</ele>
        <time>2017-04-13T15:50:13.1Z</time>
      </trkpt>
      <trkpt lat="45.7946" lon="4.31358">
        <ele>480</ele>
        <time>2017-04-13T15:50:15.1Z</time>
      </trkpt>
      <trkpt lat="45.79457" lon="4.31357">
        <ele>479</ele>
        <time>2017-04-13T15:50:17.1Z</time>
      </trkpt>
      <trkpt lat="45.79455" lon="4.31356">
        <ele>480</ele>
        <time>2017-04-13T15:50:19.1Z</time>
      </trkpt>
      <trkpt lat="45.79452" lon="4.31355">
        <ele>480</ele>
        <time>2017-04-13T15:50:21.1Z</time>
      </trkpt>
      <trkpt lat="45.79448" lon="4.31354">
        <ele>480</ele>
        <time>2017-04-13T15:50:24.1Z</time>
      </trkpt>
      <trkpt lat="45.79445" lon="4.31353">
        <ele>481</ele>
        <time>2017-04-13T15:50:26.1Z</time>
      </trkpt>
      <trkpt lat="45.79441" lon="4.31352">
        <ele>481</ele>
        <time>2017-04-13T15:50:29.1Z</time>
      </trkpt>
      <trkpt lat="45.79438" lon="4.3135">
        <ele>482</ele>
        <time>2017-04-13T15:50:32.1Z</time>
      </trkpt>
      <trkpt lat="45.79435" lon="4.31348">
        <ele>482</ele>
        <time>2017-04-13T15:50:35.1Z</time>
      </trkpt>
      <trkpt lat="45.79432" lon="4.31346">
        <ele>482</ele>
        <time>2017-04-13T15:50:38.1Z</time>
      </trkpt>
      <trkpt lat="45.7943" lon="4.31345">
        <ele>482</ele>
        <time>2017-04-13T15:50:40.1Z</time>
      </trkpt>
      <trkpt lat="45.79427" lon="4.31344">
        <ele>483</ele>
        <time>2017-04-13T15:50:43.1Z</time>
      </trkpt>
      <trkpt lat="45.79425" lon="4.31343">
        <ele>483</ele>
        <time>2017-04-13T15:50:45.1Z</time>
      </trkpt>
      <trkpt lat="45.79423" lon="4.31342">
        <ele>483</ele>
        <time>2017-04-13T15:50:47.1Z</time>
      </trkpt>
      <trkpt lat="45.7942" lon="4.31341">
        <ele>483</ele>
        <time>2017-04-13T15:50:50.1Z</time>
      </trkpt>
      <trkpt lat="45.79417" lon="4.31341">
        <ele>483</ele>
        <time>2017-04-13T15:50:53.1Z</time>
      </trkpt>
      <trkpt lat="45.79416" lon="4.31341">
        <ele>482</ele>
        <time>2017-04-13T15:50:55.1Z</time>
      </trkpt>
      <trkpt lat="45.79415" lon="4.3134">
        <ele>482</ele>
        <time>2017-04-13T15:50:57.1Z</time>
      </trkpt>
      <trkpt lat="45.79412" lon="4.31341">
        <ele>481</ele>
        <time>2017-04-13T15:51:00.1Z</time>
      </trkpt>
      <trkpt lat="45.79411" lon="4.31341">
        <ele>481</ele>
        <time>2017-04-13T15:51:02.1Z</time>
      </trkpt>
      <trkpt lat="45.7941" lon="4.31341">
        <ele>481</ele>
        <time>2017-04-13T15:51:04.1Z</time>
      </trkpt>
      <trkpt lat="45.79407" lon="4.31341">
        <ele>480</ele>
        <time>2017-04-13T15:51:07.1Z</time>
      </trkpt>
      <trkpt lat="45.79405" lon="4.3134">
        <ele>479</ele>
        <time>2017-04-13T15:51:10.1Z</time>
      </trkpt>
      <trkpt lat="45.79403" lon="4.31341">
        <ele>479</ele>
        <time>2017-04-13T15:51:12.1Z</time>
      </trkpt>
      <trkpt lat="45.79402" lon="4.31342">
        <ele>479</ele>
        <time>2017-04-13T15:51:14.1Z</time>
      </trkpt>
      <trkpt lat="45.79401" lon="4.31342">
        <ele>478</ele>
        <time>2017-04-13T15:51:16.1Z</time>
      </trkpt>
      <trkpt lat="45.79399" lon="4.31342">
        <ele>478</ele>
        <time>2017-04-13T15:51:18.1Z</time>
      </trkpt>
      <trkpt lat="45.79397" lon="4.31343">
        <ele>477</ele>
        <time>2017-04-13T15:51:21.1Z</time>
      </trkpt>
      <trkpt lat="45.79396" lon="4.31343">
        <ele>477</ele>
        <time>2017-04-13T15:51:23.1Z</time>
      </trkpt>
      <trkpt lat="45.79394" lon="4.31344">
        <ele>476</ele>
        <time>2017-04-13T15:51:26.1Z</time>
      </trkpt>
      <trkpt lat="45.79393" lon="4.31344">
        <ele>476</ele>
        <time>2017-04-13T15:51:28.1Z</time>
      </trkpt>
      <trkpt lat="45.79391" lon="4.31345">
        <ele>475</ele>
        <time>2017-04-13T15:51:31.1Z</time>
      </trkpt>
      <trkpt lat="45.7939" lon="4.31345">
        <ele>475</ele>
        <time>2017-04-13T15:51:34.1Z</time>
      </trkpt>
      <trkpt lat="45.79388" lon="4.31345">
        <ele>475</ele>
        <time>2017-04-13T15:51:36.1Z</time>
      </trkpt>
      <trkpt lat="45.79387" lon="4.31345">
        <ele>475</ele>
        <time>2017-04-13T15:51:38.1Z</time>
      </trkpt>
      <trkpt lat="45.79385" lon="4.31346">
        <ele>474</ele>
        <time>2017-04-13T15:51:41.1Z</time>
      </trkpt>
      <trkpt lat="45.79384" lon="4.31347">
        <ele>473</ele>
        <time>2017-04-13T15:51:43.1Z</time>
      </trkpt>
      <trkpt lat="45.79381" lon="4.31348">
        <ele>473</ele>
        <time>2017-04-13T15:51:46.1Z</time>
      </trkpt>
      <trkpt lat="45.79379" lon="4.31349">
        <ele>472</ele>
        <time>2017-04-13T15:51:49.1Z</time>
      </trkpt>
      <trkpt lat="45.79377" lon="4.31349">
        <ele>471</ele>
        <time>2017-04-13T15:51:51.1Z</time>
      </trkpt>
      <trkpt lat="45.79375" lon="4.3135">
        <ele>471</ele>
        <time>2017-04-13T15:51:53.1Z</time>
      </trkpt>
      <trkpt lat="45.79372" lon="4.31351">
        <ele>470</ele>
        <time>2017-04-13T15:51:56.1Z</time>
      </trkpt>
      <trkpt lat="45.7937" lon="4.31352">
        <ele>470</ele>
        <time>2017-04-13T15:51:58.1Z</time>
      </trkpt>
      <trkpt lat="45.79368" lon="4.31353">
        <ele>469</ele>
        <time>2017-04-13T15:52:01.1Z</time>
      </trkpt>
      <trkpt lat="45.79366" lon="4.31354">
        <ele>469</ele>
        <time>2017-04-13T15:52:03.1Z</time>
      </trkpt>
      <trkpt lat="45.79364" lon="4.31355">
        <ele>469</ele>
        <time>2017-04-13T15:52:05.1Z</time>
      </trkpt>
      <trkpt lat="45.79361" lon="4.31355">
        <ele>468</ele>
        <time>2017-04-13T15:52:07.1Z</time>
      </trkpt>
      <trkpt lat="45.79359" lon="4.31356">
        <ele>469</ele>
        <time>2017-04-13T15:52:10.1Z</time>
      </trkpt>
      <trkpt lat="45.79355" lon="4.31357">
        <ele>468</ele>
        <time>2017-04-13T15:52:13.1Z</time>
      </trkpt>
      <trkpt lat="45.79353" lon="4.31358">
        <ele>468</ele>
        <time>2017-04-13T15:52:15.1Z</time>
      </trkpt>
      <trkpt lat="45.7935" lon="4.31359">
        <ele>469</ele>
        <time>2017-04-13T15:52:18.1Z</time>
      </trkpt>
      <trkpt lat="45.79348" lon="4.31359">
        <ele>468</ele>
        <time>2017-04-13T15:52:20.1Z</time>
      </trkpt>
      <trkpt lat="45.79344" lon="4.3136">
        <ele>468</ele>
        <time>2017-04-13T15:52:23.1Z</time>
      </trkpt>
      <trkpt lat="45.7934" lon="4.31359">
        <ele>468</ele>
        <time>2017-04-13T15:52:25.1Z</time>
      </trkpt>
      <trkpt lat="45.79337" lon="4.31359">
        <ele>468</ele>
        <time>2017-04-13T15:52:27.1Z</time>
      </trkpt>
      <trkpt lat="45.79333" lon="4.3136">
        <ele>468</ele>
        <time>2017-04-13T15:52:30.1Z</time>
      </trkpt>
      <trkpt lat="45.79329" lon="4.31361">
        <ele>468</ele>
        <time>2017-04-13T15:52:33.1Z</time>
      </trkpt>
      <trkpt lat="45.79326" lon="4.31363">
        <ele>468</ele>
        <time>2017-04-13T15:52:35.1Z</time>
      </trkpt>
      <trkpt lat="45.79323" lon="4.31364">
        <ele>468</ele>
        <time>2017-04-13T15:52:37.1Z</time>
      </trkpt>
      <trkpt lat="45.79319" lon="4.31365">
        <ele>468</ele>
        <time>2017-04-13T15:52:40.1Z</time>
      </trkpt>
      <trkpt lat="45.79317" lon="4.31366">
        <ele>467</ele>
        <time>2017-04-13T15:52:42.1Z</time>
      </trkpt>
      <trkpt lat="45.79314" lon="4.31367">
        <ele>467</ele>
        <time>2017-04-13T15:52:44.1Z</time>
      </trkpt>
      <trkpt lat="45.79311" lon="4.31367">
        <ele>467</ele>
        <time>2017-04-13T15:52:46.1Z</time>
      </trkpt>
      <trkpt lat="45.79307" lon="4.31369">
        <ele>467</ele>
        <time>2017-04-13T15:52:49.1Z</time>
      </trkpt>
      <trkpt lat="45.79304" lon="4.31369">
        <ele>467</ele>
        <time>2017-04-13T15:52:51.1Z</time>
      </trkpt>
      <trkpt lat="45.79301" lon="4.3137">
        <ele>468</ele>
        <time>2017-04-13T15:52:53.1Z</time>
      </trkpt>
      <trkpt lat="45.79299" lon="4.3137">
        <ele>468</ele>
        <time>2017-04-13T15:52:55.1Z</time>
      </trkpt>
      <trkpt lat="45.79293" lon="4.3137">
        <ele>468</ele>
        <time>2017-04-13T15:52:58.1Z</time>
      </trkpt>
      <trkpt lat="45.79288" lon="4.31372">
        <ele>468</ele>
        <time>2017-04-13T15:53:01.1Z</time>
      </trkpt>
      <trkpt lat="45.79285" lon="4.31374">
        <ele>468</ele>
        <time>2017-04-13T15:53:03.1Z</time>
      </trkpt>
      <trkpt lat="45.79281" lon="4.31375">
        <ele>468</ele>
        <time>2017-04-13T15:53:06.1Z</time>
      </trkpt>
      <trkpt lat="45.79277" lon="4.31376">
        <ele>468</ele>
        <time>2017-04-13T15:53:09.1Z</time>
      </trkpt>
      <trkpt lat="45.79275" lon="4.31378">
        <ele>468</ele>
        <time>2017-04-13T15:53:11.1Z</time>
      </trkpt>
      <trkpt lat="45.79272" lon="4.31379">
        <ele>467</ele>
        <time>2017-04-13T15:53:13.1Z</time>
      </trkpt>
      <trkpt lat="45.79269" lon="4.31382">
        <ele>467</ele>
        <time>2017-04-13T15:53:16.1Z</time>
      </trkpt>
      <trkpt lat="45.79266" lon="4.31382">
        <ele>467</ele>
        <time>2017-04-13T15:53:18.1Z</time>
      </trkpt>
      <trkpt lat="45.79262" lon="4.31383">
        <ele>466</ele>
        <time>2017-04-13T15:53:21.1Z</time>
      </trkpt>
      <trkpt lat="45.79258" lon="4.31385">
        <ele>466</ele>
        <time>2017-04-13T15:53:24.1Z</time>
      </trkpt>
      <trkpt lat="45.79256" lon="4.31386">
        <ele>466</ele>
        <time>2017-04-13T15:53:26.1Z</time>
      </trkpt>
      <trkpt lat="45.79253" lon="4.31387">
        <ele>465</ele>
        <time>2017-04-13T15:53:29.1Z</time>
      </trkpt>
      <trkpt lat="45.79251" lon="4.31389">
        <ele>465</ele>
        <time>2017-04-13T15:53:31.1Z</time>
      </trkpt>
      <trkpt lat="45.79249" lon="4.31389">
        <ele>465</ele>
        <time>2017-04-13T15:53:33.1Z</time>
      </trkpt>
      <trkpt lat="45.79246" lon="4.31391">
        <ele>464</ele>
        <time>2017-04-13T15:53:36.1Z</time>
      </trkpt>
      <trkpt lat="45.79245" lon="4.31393">
        <ele>464</ele>
        <time>2017-04-13T15:53:38.1Z</time>
      </trkpt>
      <trkpt lat="45.79242" lon="4.31394">
        <ele>464</ele>
        <time>2017-04-13T15:53:40.1Z</time>
      </trkpt>
      <trkpt lat="45.7924" lon="4.31397">
        <ele>463</ele>
        <time>2017-04-13T15:53:43.1Z</time>
      </trkpt>
      <trkpt lat="45.79238" lon="4.31399">
        <ele>463</ele>
        <time>2017-04-13T15:53:45.1Z</time>
      </trkpt>
      <trkpt lat="45.79234" lon="4.31401">
        <ele>463</ele>
        <time>2017-04-13T15:53:48.1Z</time>
      </trkpt>
      <trkpt lat="45.79232" lon="4.31403">
        <ele>462</ele>
        <time>2017-04-13T15:53:51.1Z</time>
      </trkpt>
      <trkpt lat="45.79229" lon="4.31406">
        <ele>462</ele>
        <time>2017-04-13T15:53:53.1Z</time>
      </trkpt>
      <trkpt lat="45.79224" lon="4.31409">
        <ele>461</ele>
        <time>2017-04-13T15:53:56.1Z</time>
      </trkpt>
      <trkpt lat="45.79221" lon="4.31411">
        <ele>461</ele>
        <time>2017-04-13T15:53:58.1Z</time>
      </trkpt>
      <trkpt lat="45.79218" lon="4.31411">
        <ele>460</ele>
        <time>2017-04-13T15:54:00.1Z</time>
      </trkpt>
      <trkpt lat="45.79215" lon="4.31412">
        <ele>460</ele>
        <time>2017-04-13T15:54:02.1Z</time>
      </trkpt>
      <trkpt lat="45.79212" lon="4.31413">
        <ele>461</ele>
        <time>2017-04-13T15:54:04.1Z</time>
      </trkpt>
      <trkpt lat="45.79209" lon="4.31415">
        <ele>460</ele>
        <time>2017-04-13T15:54:07.1Z</time>
      </trkpt>
      <trkpt lat="45.79206" lon="4.31416">
        <ele>460</ele>
        <time>2017-04-13T15:54:09.1Z</time>
      </trkpt>
      <trkpt lat="45.79203" lon="4.31416">
        <ele>460</ele>
        <time>2017-04-13T15:54:12.1Z</time>
      </trkpt>
      <trkpt lat="45.792" lon="4.31416">
        <ele>460</ele>
        <time>2017-04-13T15:54:14.1Z</time>
      </trkpt>
      <trkpt lat="45.79197" lon="4.31416">
        <ele>460</ele>
        <time>2017-04-13T15:54:17.1Z</time>
      </trkpt>
      <trkpt lat="45.79193" lon="4.31414">
        <ele>460</ele>
        <time>2017-04-13T15:54:19.1Z</time>
      </trkpt>
      <trkpt lat="45.79185" lon="4.3141">
        <ele>461</ele>
        <time>2017-04-13T15:54:22.1Z</time>
      </trkpt>
      <trkpt lat="45.79179" lon="4.31409">
        <ele>461</ele>
        <time>2017-04-13T15:54:24.1Z</time>
      </trkpt>
      <trkpt lat="45.79173" lon="4.31406">
        <ele>462</ele>
        <time>2017-04-13T15:54:27.1Z</time>
      </trkpt>
      <trkpt lat="45.79169" lon="4.31405">
        <ele>463</ele>
        <time>2017-04-13T15:54:29.1Z</time>
      </trkpt>
      <trkpt lat="45.79163" lon="4.31401">
        <ele>463</ele>
        <time>2017-04-13T15:54:32.1Z</time>
      </trkpt>
      <trkpt lat="45.79155" lon="4.31398">
        <ele>464</ele>
        <time>2017-04-13T15:54:35.1Z</time>
      </trkpt>
      <trkpt lat="45.79146" lon="4.31399">
        <ele>464</ele>
        <time>2017-04-13T15:54:38.1Z</time>
      </trkpt>
      <trkpt lat="45.7914" lon="4.31399">
        <ele>464</ele>
        <time>2017-04-13T15:54:40.1Z</time>
      </trkpt>
      <trkpt lat="45.79133" lon="4.31398">
        <ele>464</ele>
        <time>2017-04-13T15:54:43.1Z</time>
      </trkpt>
      <trkpt lat="45.79127" lon="4.31398">
        <ele>464</ele>
        <time>2017-04-13T15:54:45.1Z</time>
      </trkpt>
      <trkpt lat="45.79121" lon="4.31398">
        <ele>464</ele>
        <time>2017-04-13T15:54:47.1Z</time>
      </trkpt>
      <trkpt lat="45.79115" lon="4.31398">
        <ele>464</ele>
        <time>2017-04-13T15:54:49.1Z</time>
      </trkpt>
      <trkpt lat="45.79107" lon="4.31398">
        <ele>464</ele>
        <time>2017-04-13T15:54:51.1Z</time>
      </trkpt>
      <trkpt lat="45.79097" lon="4.314">
        <ele>464</ele>
        <time>2017-04-13T15:54:54.1Z</time>
      </trkpt>
      <trkpt lat="45.79089" lon="4.31403">
        <ele>464</ele>
        <time>2017-04-13T15:54:56.1Z</time>
      </trkpt>
      <trkpt lat="45.79081" lon="4.31407">
        <ele>464</ele>
        <time>2017-04-13T15:54:58.1Z</time>
      </trkpt>
      <trkpt lat="45.79073" lon="4.3141">
        <ele>464</ele>
        <time>2017-04-13T15:55:00.1Z</time>
      </trkpt>
      <trkpt lat="45.79066" lon="4.31411">
        <ele>464</ele>
        <time>2017-04-13T15:55:02.1Z</time>
      </trkpt>
      <trkpt lat="45.79059" lon="4.31413">
        <ele>464</ele>
        <time>2017-04-13T15:55:04.1Z</time>
      </trkpt>
      <trkpt lat="45.79049" lon="4.31417">
        <ele>464</ele>
        <time>2017-04-13T15:55:07.1Z</time>
      </trkpt>
      <trkpt lat="45.79041" lon="4.3142">
        <ele>464</ele>
        <time>2017-04-13T15:55:10.1Z</time>
      </trkpt>
      <trkpt lat="45.79034" lon="4.31423">
        <ele>464</ele>
        <time>2017-04-13T15:55:12.1Z</time>
      </trkpt>
      <trkpt lat="45.79025" lon="4.31426">
        <ele>464</ele>
        <time>2017-04-13T15:55:14.1Z</time>
      </trkpt>
      <trkpt lat="45.79018" lon="4.31428">
        <ele>464</ele>
        <time>2017-04-13T15:55:16.1Z</time>
      </trkpt>
      <trkpt lat="45.7901" lon="4.3143">
        <ele>464</ele>
        <time>2017-04-13T15:55:18.1Z</time>
      </trkpt>
      <trkpt lat="45.78997" lon="4.31432">
        <ele>464</ele>
        <time>2017-04-13T15:55:21.1Z</time>
      </trkpt>
      <trkpt lat="45.78986" lon="4.31435">
        <ele>464</ele>
        <time>2017-04-13T15:55:24.1Z</time>
      </trkpt>
      <trkpt lat="45.78974" lon="4.31437">
        <ele>464</ele>
        <time>2017-04-13T15:55:27.1Z</time>
      </trkpt>
      <trkpt lat="45.78966" lon="4.31437">
        <ele>464</ele>
        <time>2017-04-13T15:55:29.1Z</time>
      </trkpt>
      <trkpt lat="45.78955" lon="4.31436">
        <ele>464</ele>
        <time>2017-04-13T15:55:32.1Z</time>
      </trkpt>
      <trkpt lat="45.78944" lon="4.31433">
        <ele>464</ele>
        <time>2017-04-13T15:55:35.1Z</time>
      </trkpt>
      <trkpt lat="45.78933" lon="4.31429">
        <ele>464</ele>
        <time>2017-04-13T15:55:38.1Z</time>
      </trkpt>
      <trkpt lat="45.78925" lon="4.31426">
        <ele>464</ele>
        <time>2017-04-13T15:55:40.1Z</time>
      </trkpt>
      <trkpt lat="45.78919" lon="4.31424">
        <ele>464</ele>
        <time>2017-04-13T15:55:42.1Z</time>
      </trkpt>
      <trkpt lat="45.78911" lon="4.31419">
        <ele>465</ele>
        <time>2017-04-13T15:55:45.1Z</time>
      </trkpt>
      <trkpt lat="45.78907" lon="4.31418">
        <ele>464</ele>
        <time>2017-04-13T15:55:47.1Z</time>
      </trkpt>
      <trkpt lat="45.78902" lon="4.31416">
        <ele>464</ele>
        <time>2017-04-13T15:55:49.1Z</time>
      </trkpt>
      <trkpt lat="45.78898" lon="4.31416">
        <ele>464</ele>
        <time>2017-04-13T15:55:51.1Z</time>
      </trkpt>
      <trkpt lat="45.78894" lon="4.31416">
        <ele>464</ele>
        <time>2017-04-13T15:55:53.1Z</time>
      </trkpt>
      <trkpt lat="45.78888" lon="4.31415">
        <ele>464</ele>
        <time>2017-04-13T15:55:56.1Z</time>
      </trkpt>
      <trkpt lat="45.78883" lon="4.31413">
        <ele>464</ele>
        <time>2017-04-13T15:55:59.1Z</time>
      </trkpt>
      <trkpt lat="45.78881" lon="4.31411">
        <ele>464</ele>
        <time>2017-04-13T15:56:01.1Z</time>
      </trkpt>
      <trkpt lat="45.78877" lon="4.31409">
        <ele>464</ele>
        <time>2017-04-13T15:56:04.1Z</time>
      </trkpt>
      <trkpt lat="45.78872" lon="4.31407">
        <ele>463</ele>
        <time>2017-04-13T15:56:07.1Z</time>
      </trkpt>
      <trkpt lat="45.78868" lon="4.31406">
        <ele>463</ele>
        <time>2017-04-13T15:56:09.1Z</time>
      </trkpt>
      <trkpt lat="45.78863" lon="4.31405">
        <ele>462</ele>
        <time>2017-04-13T15:56:11.1Z</time>
      </trkpt>
      <trkpt lat="45.7886" lon="4.31405">
        <ele>462</ele>
        <time>2017-04-13T15:56:13.1Z</time>
      </trkpt>
      <trkpt lat="45.78856" lon="4.31404">
        <ele>462</ele>
        <time>2017-04-13T15:56:16.1Z</time>
      </trkpt>
      <trkpt lat="45.78854" lon="4.31405">
        <ele>463</ele>
        <time>2017-04-13T15:56:18.1Z</time>
      </trkpt>
      <trkpt lat="45.78851" lon="4.31405">
        <ele>463</ele>
        <time>2017-04-13T15:56:20.1Z</time>
      </trkpt>
      <trkpt lat="45.78844" lon="4.31406">
        <ele>464</ele>
        <time>2017-04-13T15:56:23.1Z</time>
      </trkpt>
      <trkpt lat="45.78835" lon="4.31406">
        <ele>464</ele>
        <time>2017-04-13T15:56:26.1Z</time>
      </trkpt>
      <trkpt lat="45.78825" lon="4.31408">
        <ele>464</ele>
        <time>2017-04-13T15:56:29.1Z</time>
      </trkpt>
      <trkpt lat="45.78819" lon="4.3141">
        <ele>464</ele>
        <time>2017-04-13T15:56:31.1Z</time>
      </trkpt>
      <trkpt lat="45.78813" lon="4.31411">
        <ele>464</ele>
        <time>2017-04-13T15:56:33.1Z</time>
      </trkpt>
      <trkpt lat="45.78804" lon="4.3141">
        <ele>464</ele>
        <time>2017-04-13T15:56:36.1Z</time>
      </trkpt>
      <trkpt lat="45.78793" lon="4.31411">
        <ele>464</ele>
        <time>2017-04-13T15:56:39.1Z</time>
      </trkpt>
      <trkpt lat="45.78788" lon="4.3141">
        <ele>464</ele>
        <time>2017-04-13T15:56:41.1Z</time>
      </trkpt>
      <trkpt lat="45.78778" lon="4.3141">
        <ele>465</ele>
        <time>2017-04-13T15:56:44.1Z</time>
      </trkpt>
      <trkpt lat="45.78768" lon="4.31408">
        <ele>465</ele>
        <time>2017-04-13T15:56:47.1Z</time>
      </trkpt>
      <trkpt lat="45.78762" lon="4.31406">
        <ele>465</ele>
        <time>2017-04-13T15:56:49.1Z</time>
      </trkpt>
      <trkpt lat="45.78754" lon="4.31404">
        <ele>465</ele>
        <time>2017-04-13T15:56:52.1Z</time>
      </trkpt>
      <trkpt lat="45.78747" lon="4.31402">
        <ele>464</ele>
        <time>2017-04-13T15:56:54.1Z</time>
      </trkpt>
      <trkpt lat="45.78741" lon="4.31401">
        <ele>464</ele>
        <time>2017-04-13T15:56:56.1Z</time>
      </trkpt>
      <trkpt lat="45.7873" lon="4.31394">
        <ele>464</ele>
        <time>2017-04-13T15:56:59.1Z</time>
      </trkpt>
      <trkpt lat="45.78721" lon="4.31389">
        <ele>464</ele>
        <time>2017-04-13T15:57:02.1Z</time>
      </trkpt>
      <trkpt lat="45.78714" lon="4.31384">
        <ele>464</ele>
        <time>2017-04-13T15:57:05.1Z</time>
      </trkpt>
      <trkpt lat="45.78709" lon="4.31381">
        <ele>463</ele>
        <time>2017-04-13T15:57:07.1Z</time>
      </trkpt>
      <trkpt lat="45.78702" lon="4.31381">
        <ele>463</ele>
        <time>2017-04-13T15:57:09.1Z</time>
      </trkpt>
      <trkpt lat="45.78695" lon="4.31379">
        <ele>463</ele>
        <time>2017-04-13T15:57:11.1Z</time>
      </trkpt>
      <trkpt lat="45.78685" lon="4.31377">
        <ele>463</ele>
        <time>2017-04-13T15:57:14.1Z</time>
      </trkpt>
      <trkpt lat="45.78678" lon="4.31377">
        <ele>463</ele>
        <time>2017-04-13T15:57:16.1Z</time>
      </trkpt>
      <trkpt lat="45.78668" lon="4.31377">
        <ele>463</ele>
        <time>2017-04-13T15:57:19.1Z</time>
      </trkpt>
      <trkpt lat="45.78658" lon="4.31379">
        <ele>462</ele>
        <time>2017-04-13T15:57:22.1Z</time>
      </trkpt>
      <trkpt lat="45.78647" lon="4.31383">
        <ele>462</ele>
        <time>2017-04-13T15:57:25.1Z</time>
      </trkpt>
      <trkpt lat="45.7864" lon="4.31385">
        <ele>462</ele>
        <time>2017-04-13T15:57:27.1Z</time>
      </trkpt>
      <trkpt lat="45.78634" lon="4.3139">
        <ele>462</ele>
        <time>2017-04-13T15:57:29.1Z</time>
      </trkpt>
      <trkpt lat="45.78624" lon="4.31398">
        <ele>462</ele>
        <time>2017-04-13T15:57:32.1Z</time>
      </trkpt>
      <trkpt lat="45.78615" lon="4.31403">
        <ele>461</ele>
        <time>2017-04-13T15:57:35.1Z</time>
      </trkpt>
      <trkpt lat="45.78607" lon="4.31407">
        <ele>461</ele>
        <time>2017-04-13T15:57:37.1Z</time>
      </trkpt>
      <trkpt lat="45.78595" lon="4.31413">
        <ele>461</ele>
        <time>2017-04-13T15:57:40.1Z</time>
      </trkpt>
      <trkpt lat="45.78584" lon="4.31417">
        <ele>461</ele>
        <time>2017-04-13T15:57:43.1Z</time>
      </trkpt>
      <trkpt lat="45.78572" lon="4.31422">
        <ele>460</ele>
        <time>2017-04-13T15:57:46.1Z</time>
      </trkpt>
      <trkpt lat="45.78564" lon="4.31424">
        <ele>460</ele>
        <time>2017-04-13T15:57:48.1Z</time>
      </trkpt>
      <trkpt lat="45.78557" lon="4.31427">
        <ele>460</ele>
        <time>2017-04-13T15:57:50.1Z</time>
      </trkpt>
      <trkpt lat="45.78547" lon="4.31429">
        <ele>459</ele>
        <time>2017-04-13T15:57:53.1Z</time>
      </trkpt>
      <trkpt lat="45.78537" lon="4.31431">
        <ele>459</ele>
        <time>2017-04-13T15:57:56.1Z</time>
      </trkpt>
      <trkpt lat="45.7853" lon="4.31434">
        <ele>459</ele>
        <time>2017-04-13T15:57:58.1Z</time>
      </trkpt>
      <trkpt lat="45.78521" lon="4.3144">
        <ele>459</ele>
        <time>2017-04-13T15:58:01.1Z</time>
      </trkpt>
      <trkpt lat="45.78514" lon="4.31444">
        <ele>459</ele>
        <time>2017-04-13T15:58:03.1Z</time>
      </trkpt>
      <trkpt lat="45.78505" lon="4.31449">
        <ele>459</ele>
        <time>2017-04-13T15:58:06.1Z</time>
      </trkpt>
      <trkpt lat="45.78499" lon="4.31451">
        <ele>458</ele>
        <time>2017-04-13T15:58:08.1Z</time>
      </trkpt>
      <trkpt lat="45.78493" lon="4.31453">
        <ele>458</ele>
        <time>2017-04-13T15:58:10.1Z</time>
      </trkpt>
      <trkpt lat="45.78485" lon="4.31456">
        <ele>457</ele>
        <time>2017-04-13T15:58:13.1Z</time>
      </trkpt>
      <trkpt lat="45.78479" lon="4.31459">
        <ele>457</ele>
        <time>2017-04-13T15:58:15.1Z</time>
      </trkpt>
      <trkpt lat="45.78469" lon="4.31463">
        <ele>457</ele>
        <time>2017-04-13T15:58:18.1Z</time>
      </trkpt>
      <trkpt lat="45.78463" lon="4.31467">
        <ele>457</ele>
        <time>2017-04-13T15:58:20.1Z</time>
      </trkpt>
      <trkpt lat="45.78455" lon="4.31468">
        <ele>457</ele>
        <time>2017-04-13T15:58:23.1Z</time>
      </trkpt>
      <trkpt lat="45.78445" lon="4.3147">
        <ele>456</ele>
        <time>2017-04-13T15:58:26.1Z</time>
      </trkpt>
      <trkpt lat="45.78435" lon="4.31473">
        <ele>456</ele>
        <time>2017-04-13T15:58:29.1Z</time>
      </trkpt>
      <trkpt lat="45.78429" lon="4.31475">
        <ele>455</ele>
        <time>2017-04-13T15:58:31.1Z</time>
      </trkpt>
      <trkpt lat="45.78419" lon="4.31484">
        <ele>455</ele>
        <time>2017-04-13T15:58:34.1Z</time>
      </trkpt>
      <trkpt lat="45.78412" lon="4.31491">
        <ele>455</ele>
        <time>2017-04-13T15:58:36.1Z</time>
      </trkpt>
      <trkpt lat="45.78406" lon="4.31498">
        <ele>455</ele>
        <time>2017-04-13T15:58:38.1Z</time>
      </trkpt>
      <trkpt lat="45.784" lon="4.31505">
        <ele>455</ele>
        <time>2017-04-13T15:58:40.1Z</time>
      </trkpt>
      <trkpt lat="45.78393" lon="4.31514">
        <ele>455</ele>
        <time>2017-04-13T15:58:42.1Z</time>
      </trkpt>
      <trkpt lat="45.78385" lon="4.31524">
        <ele>454</ele>
        <time>2017-04-13T15:58:45.1Z</time>
      </trkpt>
      <trkpt lat="45.78379" lon="4.31531">
        <ele>454</ele>
        <time>2017-04-13T15:58:47.1Z</time>
      </trkpt>
      <trkpt lat="45.78376" lon="4.31538">
        <ele>454</ele>
        <time>2017-04-13T15:58:49.1Z</time>
      </trkpt>
      <trkpt lat="45.78372" lon="4.31542">
        <ele>454</ele>
        <time>2017-04-13T15:58:51.1Z</time>
      </trkpt>
      <trkpt lat="45.78368" lon="4.31545">
        <ele>454</ele>
        <time>2017-04-13T15:58:53.1Z</time>
      </trkpt>
      <trkpt lat="45.78365" lon="4.31547">
        <ele>454</ele>
        <time>2017-04-13T15:58:55.1Z</time>
      </trkpt>
      <trkpt lat="45.78359" lon="4.31549">
        <ele>453</ele>
        <time>2017-04-13T15:58:58.1Z</time>
      </trkpt>
      <trkpt lat="45.78355" lon="4.3155">
        <ele>453</ele>
        <time>2017-04-13T15:59:00.1Z</time>
      </trkpt>
      <trkpt lat="45.7835" lon="4.31552">
        <ele>454</ele>
        <time>2017-04-13T15:59:03.1Z</time>
      </trkpt>
      <trkpt lat="45.78345" lon="4.31553">
        <ele>453</ele>
        <time>2017-04-13T15:59:06.1Z</time>
      </trkpt>
      <trkpt lat="45.78343" lon="4.31554">
        <ele>454</ele>
        <time>2017-04-13T15:59:08.1Z</time>
      </trkpt>
      <trkpt lat="45.78339" lon="4.31554">
        <ele>453</ele>
        <time>2017-04-13T15:59:11.1Z</time>
      </trkpt>
      <trkpt lat="45.78335" lon="4.31554">
        <ele>453</ele>
        <time>2017-04-13T15:59:13.1Z</time>
      </trkpt>
      <trkpt lat="45.78332" lon="4.31554">
        <ele>453</ele>
        <time>2017-04-13T15:59:15.1Z</time>
      </trkpt>
      <trkpt lat="45.78328" lon="4.31555">
        <ele>453</ele>
        <time>2017-04-13T15:59:18.1Z</time>
      </trkpt>
      <trkpt lat="45.78323" lon="4.31554">
        <ele>453</ele>
        <time>2017-04-13T15:59:21.1Z</time>
      </trkpt>
      <trkpt lat="45.78321" lon="4.31555">
        <ele>453</ele>
        <time>2017-04-13T15:59:23.1Z</time>
      </trkpt>
      <trkpt lat="45.78316" lon="4.31554">
        <ele>453</ele>
        <time>2017-04-13T15:59:26.1Z</time>
      </trkpt>
      <trkpt lat="45.78313" lon="4.31553">
        <ele>452</ele>
        <time>2017-04-13T15:59:28.1Z</time>
      </trkpt>
      <trkpt lat="45.7831" lon="4.31552">
        <ele>453</ele>
        <time>2017-04-13T15:59:30.1Z</time>
      </trkpt>
      <trkpt lat="45.78307" lon="4.31551">
        <ele>453</ele>
        <time>2017-04-13T15:59:32.1Z</time>
      </trkpt>
      <trkpt lat="45.78304" lon="4.31551">
        <ele>453</ele>
        <time>2017-04-13T15:59:34.1Z</time>
      </trkpt>
      <trkpt lat="45.78299" lon="4.31548">
        <ele>453</ele>
        <time>2017-04-13T15:59:37.1Z</time>
      </trkpt>
      <trkpt lat="45.78295" lon="4.31545">
        <ele>452</ele>
        <time>2017-04-13T15:59:40.1Z</time>
      </trkpt>
      <trkpt lat="45.78293" lon="4.31543">
        <ele>452</ele>
        <time>2017-04-13T15:59:42.1Z</time>
      </trkpt>
      <trkpt lat="45.7829" lon="4.3154">
        <ele>451</ele>
        <time>2017-04-13T15:59:44.1Z</time>
      </trkpt>
      <trkpt lat="45.78288" lon="4.31537">
        <ele>451</ele>
        <time>2017-04-13T15:59:46.1Z</time>
      </trkpt>
      <trkpt lat="45.78286" lon="4.31534">
        <ele>451</ele>
        <time>2017-04-13T15:59:48.1Z</time>
      </trkpt>
      <trkpt lat="45.78283" lon="4.31531">
        <ele>452</ele>
        <time>2017-04-13T15:59:50.1Z</time>
      </trkpt>
      <trkpt lat="45.7828" lon="4.31526">
        <ele>452</ele>
        <time>2017-04-13T15:59:53.1Z</time>
      </trkpt>
      <trkpt lat="45.78278" lon="4.31523">
        <ele>451</ele>
        <time>2017-04-13T15:59:55.1Z</time>
      </trkpt>
      <trkpt lat="45.78275" lon="4.31522">
        <ele>451</ele>
        <time>2017-04-13T15:59:57.1Z</time>
      </trkpt>
      <trkpt lat="45.78273" lon="4.31519">
        <ele>451</ele>
        <time>2017-04-13T15:59:59.1Z</time>
      </trkpt>
      <trkpt lat="45.78271" lon="4.31516">
        <ele>451</ele>
        <time>2017-04-13T16:00:01.1Z</time>
      </trkpt>
      <trkpt lat="45.7827" lon="4.31513">
        <ele>452</ele>
        <time>2017-04-13T16:00:03.1Z</time>
      </trkpt>
      <trkpt lat="45.78268" lon="4.3151">
        <ele>452</ele>
        <time>2017-04-13T16:00:05.1Z</time>
      </trkpt>
      <trkpt lat="45.78266" lon="4.31507">
        <ele>452</ele>
        <time>2017-04-13T16:00:08.1Z</time>
      </trkpt>
      <trkpt lat="45.78265" lon="4.31505">
        <ele>452</ele>
        <time>2017-04-13T16:00:10.1Z</time>
      </trkpt>
      <trkpt lat="45.78263" lon="4.31502">
        <ele>451</ele>
        <time>2017-04-13T16:00:12.1Z</time>
      </trkpt>
      <trkpt lat="45.78261" lon="4.315">
        <ele>451</ele>
        <time>2017-04-13T16:00:14.1Z</time>
      </trkpt>
      <trkpt lat="45.7826" lon="4.31498">
        <ele>451</ele>
        <time>2017-04-13T16:00:16.1Z</time>
      </trkpt>
      <trkpt lat="45.78257" lon="4.31495">
        <ele>451</ele>
        <time>2017-04-13T16:00:18.1Z</time>
      </trkpt>
      <trkpt lat="45.78255" lon="4.31492">
        <ele>451</ele>
        <time>2017-04-13T16:00:21.1Z</time>
      </trkpt>
      <trkpt lat="45.78253" lon="4.31489">
        <ele>451</ele>
        <time>2017-04-13T16:00:23.1Z</time>
      </trkpt>
      <trkpt lat="45.78252" lon="4.31487">
        <ele>451</ele>
        <time>2017-04-13T16:00:25.1Z</time>
      </trkpt>
      <trkpt lat="45.7825" lon="4.31484">
        <ele>451</ele>
        <time>2017-04-13T16:00:27.1Z</time>
      </trkpt>
      <trkpt lat="45.78248" lon="4.31481">
        <ele>450</ele>
        <time>2017-04-13T16:00:29.1Z</time>
      </trkpt>
      <trkpt lat="45.78247" lon="4.31479">
        <ele>451</ele>
        <time>2017-04-13T16:00:31.1Z</time>
      </trkpt>
      <trkpt lat="45.78246" lon="4.31475">
        <ele>451</ele>
        <time>2017-04-13T16:00:34.1Z</time>
      </trkpt>
      <trkpt lat="45.78244" lon="4.31472">
        <ele>451</ele>
        <time>2017-04-13T16:00:36.1Z</time>
      </trkpt>
      <trkpt lat="45.78242" lon="4.31469">
        <ele>451</ele>
        <time>2017-04-13T16:00:38.1Z</time>
      </trkpt>
      <trkpt lat="45.78241" lon="4.31466">
        <ele>451</ele>
        <time>2017-04-13T16:00:40.1Z</time>
      </trkpt>
      <trkpt lat="45.78239" lon="4.31463">
        <ele>451</ele>
        <time>2017-04-13T16:00:42.1Z</time>
      </trkpt>
      <trkpt lat="45.78238" lon="4.3146">
        <ele>451</ele>
        <time>2017-04-13T16:00:44.1Z</time>
      </trkpt>
      <trkpt lat="45.78236" lon="4.31454">
        <ele>451</ele>
        <time>2017-04-13T16:00:47.1Z</time>
      </trkpt>
      <trkpt lat="45.78233" lon="4.31449">
        <ele>451</ele>
        <time>2017-04-13T16:00:50.1Z</time>
      </trkpt>
      <trkpt lat="45.78232" lon="4.31444">
        <ele>450</ele>
        <time>2017-04-13T16:00:52.1Z</time>
      </trkpt>
      <trkpt lat="45.7823" lon="4.31438">
        <ele>451</ele>
        <time>2017-04-13T16:00:55.1Z</time>
      </trkpt>
      <trkpt lat="45.78228" lon="4.31434">
        <ele>451</ele>
        <time>2017-04-13T16:00:57.1Z</time>
      </trkpt>
      <trkpt lat="45.78228" lon="4.31431">
        <ele>451</ele>
        <time>2017-04-13T16:00:59.1Z</time>
      </trkpt>
      <trkpt lat="45.78226" lon="4.31426">
        <ele>451</ele>
        <time>2017-04-13T16:01:02.1Z</time>
      </trkpt>
      <trkpt lat="45.78225" lon="4.31423">
        <ele>451</ele>
        <time>2017-04-13T16:01:04.1Z</time>
      </trkpt>
      <trkpt lat="45.78224" lon="4.3142">
        <ele>451</ele>
        <time>2017-04-13T16:01:06.1Z</time>
      </trkpt>
      <trkpt lat="45.78223" lon="4.31417">
        <ele>451</ele>
        <time>2017-04-13T16:01:08.1Z</time>
      </trkpt>
      <trkpt lat="45.78222" lon="4.31414">
        <ele>451</ele>
        <time>2017-04-13T16:01:10.1Z</time>
      </trkpt>
      <trkpt lat="45.78221" lon="4.31411">
        <ele>451</ele>
        <time>2017-04-13T16:01:12.1Z</time>
      </trkpt>
      <trkpt lat="45.7822" lon="4.31407">
        <ele>451</ele>
        <time>2017-04-13T16:01:14.1Z</time>
      </trkpt>
      <trkpt lat="45.78218" lon="4.31401">
        <ele>451</ele>
        <time>2017-04-13T16:01:17.1Z</time>
      </trkpt>
      <trkpt lat="45.78218" lon="4.31397">
        <ele>451</ele>
        <time>2017-04-13T16:01:19.1Z</time>
      </trkpt>
      <trkpt lat="45.78217" lon="4.31391">
        <ele>451</ele>
        <time>2017-04-13T16:01:22.1Z</time>
      </trkpt>
      <trkpt lat="45.78217" lon="4.31385">
        <ele>451</ele>
        <time>2017-04-13T16:01:25.1Z</time>
      </trkpt>
      <trkpt lat="45.78217" lon="4.31381">
        <ele>451</ele>
        <time>2017-04-13T16:01:27.1Z</time>
      </trkpt>
      <trkpt lat="45.78217" lon="4.31375">
        <ele>451</ele>
        <time>2017-04-13T16:01:30.1Z</time>
      </trkpt>
      <trkpt lat="45.78217" lon="4.31369">
        <ele>451</ele>
        <time>2017-04-13T16:01:33.1Z</time>
      </trkpt>
      <trkpt lat="45.78217" lon="4.31365">
        <ele>451</ele>
        <time>2017-04-13T16:01:35.1Z</time>
      </trkpt>
      <trkpt lat="45.78217" lon="4.31361">
        <ele>451</ele>
        <time>2017-04-13T16:01:37.1Z</time>
      </trkpt>
      <trkpt lat="45.78218" lon="4.31355">
        <ele>451</ele>
        <time>2017-04-13T16:01:40.1Z</time>
      </trkpt>
      <trkpt lat="45.78219" lon="4.3135">
        <ele>451</ele>
        <time>2017-04-13T16:01:43.1Z</time>
      </trkpt>
      <trkpt lat="45.7822" lon="4.31344">
        <ele>451</ele>
        <time>2017-04-13T16:01:46.1Z</time>
      </trkpt>
      <trkpt lat="45.7822" lon="4.31341">
        <ele>451</ele>
        <time>2017-04-13T16:01:48.1Z</time>
      </trkpt>
      <trkpt lat="45.78221" lon="4.31336">
        <ele>451</ele>
        <time>2017-04-13T16:01:51.1Z</time>
      </trkpt>
      <trkpt lat="45.78222" lon="4.3133">
        <ele>450</ele>
        <time>2017-04-13T16:01:54.1Z</time>
      </trkpt>
      <trkpt lat="45.78222" lon="4.31323">
        <ele>450</ele>
        <time>2017-04-13T16:01:57.1Z</time>
      </trkpt>
      <trkpt lat="45.78222" lon="4.31318">
        <ele>450</ele>
        <time>2017-04-13T16:02:00.1Z</time>
      </trkpt>
      <trkpt lat="45.78222" lon="4.31314">
        <ele>450</ele>
        <time>2017-04-13T16:02:02.1Z</time>
      </trkpt>
      <trkpt lat="45.78222" lon="4.31308">
        <ele>450</ele>
        <time>2017-04-13T16:02:05.1Z</time>
      </trkpt>
      <trkpt lat="45.78222" lon="4.31303">
        <ele>450</ele>
        <time>2017-04-13T16:02:07.1Z</time>
      </trkpt>
      <trkpt lat="45.78222" lon="4.31296">
        <ele>450</ele>
        <time>2017-04-13T16:02:10.1Z</time>
      </trkpt>
      <trkpt lat="45.78222" lon="4.31289">
        <ele>450</ele>
        <time>2017-04-13T16:02:13.1Z</time>
      </trkpt>
      <trkpt lat="45.78223" lon="4.31286">
        <ele>450</ele>
        <time>2017-04-13T16:02:15.1Z</time>
      </trkpt>
      <trkpt lat="45.78224" lon="4.31281">
        <ele>449</ele>
        <time>2017-04-13T16:02:18.1Z</time>
      </trkpt>
      <trkpt lat="45.78224" lon="4.31277">
        <ele>449</ele>
        <time>2017-04-13T16:02:20.1Z</time>
      </trkpt>
      <trkpt lat="45.78225" lon="4.31274">
        <ele>449</ele>
        <time>2017-04-13T16:02:22.1Z</time>
      </trkpt>
      <trkpt lat="45.78227" lon="4.31268">
        <ele>449</ele>
        <time>2017-04-13T16:02:25.1Z</time>
      </trkpt>
      <trkpt lat="45.78229" lon="4.31261">
        <ele>449</ele>
        <time>2017-04-13T16:02:28.1Z</time>
      </trkpt>
      <trkpt lat="45.7823" lon="4.31256">
        <ele>449</ele>
        <time>2017-04-13T16:02:30.1Z</time>
      </trkpt>
      <trkpt lat="45.78231" lon="4.31253">
        <ele>449</ele>
        <time>2017-04-13T16:02:32.1Z</time>
      </trkpt>
      <trkpt lat="45.78233" lon="4.31248">
        <ele>449</ele>
        <time>2017-04-13T16:02:34.1Z</time>
      </trkpt>
      <trkpt lat="45.78235" lon="4.31244">
        <ele>449</ele>
        <time>2017-04-13T16:02:36.1Z</time>
      </trkpt>
      <trkpt lat="45.78236" lon="4.31239">
        <ele>449</ele>
        <time>2017-04-13T16:02:39.1Z</time>
      </trkpt>
      <trkpt lat="45.78238" lon="4.31234">
        <ele>449</ele>
        <time>2017-04-13T16:02:42.1Z</time>
      </trkpt>
      <trkpt lat="45.78241" lon="4.3123">
        <ele>449</ele>
        <time>2017-04-13T16:02:45.1Z</time>
      </trkpt>
      <trkpt lat="45.78242" lon="4.31227">
        <ele>449</ele>
        <time>2017-04-13T16:02:47.1Z</time>
      </trkpt>
      <trkpt lat="45.78243" lon="4.31223">
        <ele>449</ele>
        <time>2017-04-13T16:02:49.1Z</time>
      </trkpt>
      <trkpt lat="45.78246" lon="4.31219">
        <ele>449</ele>
        <time>2017-04-13T16:02:51.1Z</time>
      </trkpt>
      <trkpt lat="45.78248" lon="4.31213">
        <ele>449</ele>
        <time>2017-04-13T16:02:54.1Z</time>
      </trkpt>
      <trkpt lat="45.7825" lon="4.31208">
        <ele>449</ele>
        <time>2017-04-13T16:02:56.1Z</time>
      </trkpt>
      <trkpt lat="45.78252" lon="4.31203">
        <ele>448</ele>
        <time>2017-04-13T16:02:58.1Z</time>
      </trkpt>
      <trkpt lat="45.78254" lon="4.31199">
        <ele>448</ele>
        <time>2017-04-13T16:03:00.1Z</time>
      </trkpt>
      <trkpt lat="45.78255" lon="4.31195">
        <ele>449</ele>
        <time>2017-04-13T16:03:02.1Z</time>
      </trkpt>
      <trkpt lat="45.78256" lon="4.31192">
        <ele>449</ele>
        <time>2017-04-13T16:03:04.1Z</time>
      </trkpt>
      <trkpt lat="45.78258" lon="4.31186">
        <ele>448</ele>
        <time>2017-04-13T16:03:07.1Z</time>
      </trkpt>
      <trkpt lat="45.78259" lon="4.31182">
        <ele>448</ele>
        <time>2017-04-13T16:03:09.1Z</time>
      </trkpt>
      <trkpt lat="45.78261" lon="4.31178">
        <ele>448</ele>
        <time>2017-04-13T16:03:11.1Z</time>
      </trkpt>
      <trkpt lat="45.78261" lon="4.31176">
        <ele>448</ele>
        <time>2017-04-13T16:03:13.1Z</time>
      </trkpt>
      <trkpt lat="45.78262" lon="4.31172">
        <ele>448</ele>
        <time>2017-04-13T16:03:15.1Z</time>
      </trkpt>
      <trkpt lat="45.78263" lon="4.31169">
        <ele>447</ele>
        <time>2017-04-13T16:03:17.1Z</time>
      </trkpt>
      <trkpt lat="45.78265" lon="4.31166">
        <ele>447</ele>
        <time>2017-04-13T16:03:19.1Z</time>
      </trkpt>
      <trkpt lat="45.78266" lon="4.31161">
        <ele>447</ele>
        <time>2017-04-13T16:03:22.1Z</time>
      </trkpt>
      <trkpt lat="45.78266" lon="4.31157">
        <ele>447</ele>
        <time>2017-04-13T16:03:24.1Z</time>
      </trkpt>
      <trkpt lat="45.78267" lon="4.31154">
        <ele>447</ele>
        <time>2017-04-13T16:03:26.1Z</time>
      </trkpt>
      <trkpt lat="45.78269" lon="4.31151">
        <ele>446</ele>
        <time>2017-04-13T16:03:28.1Z</time>
      </trkpt>
      <trkpt lat="45.7827" lon="4.31147">
        <ele>446</ele>
        <time>2017-04-13T16:03:30.1Z</time>
      </trkpt>
      <trkpt lat="45.78271" lon="4.31143">
        <ele>446</ele>
        <time>2017-04-13T16:03:32.1Z</time>
      </trkpt>
      <trkpt lat="45.78272" lon="4.31139">
        <ele>446</ele>
        <time>2017-04-13T16:03:34.1Z</time>
      </trkpt>
      <trkpt lat="45.78273" lon="4.31133">
        <ele>447</ele>
        <time>2017-04-13T16:03:37.1Z</time>
      </trkpt>
      <trkpt lat="45.78274" lon="4.3113">
        <ele>447</ele>
        <time>2017-04-13T16:03:39.1Z</time>
      </trkpt>
      <trkpt lat="45.78276" lon="4.31126">
        <ele>446</ele>
        <time>2017-04-13T16:03:41.1Z</time>
      </trkpt>
      <trkpt lat="45.78277" lon="4.31122">
        <ele>446</ele>
        <time>2017-04-13T16:03:43.1Z</time>
      </trkpt>
      <trkpt lat="45.78278" lon="4.31119">
        <ele>446</ele>
        <time>2017-04-13T16:03:45.1Z</time>
      </trkpt>
      <trkpt lat="45.78279" lon="4.31114">
        <ele>446</ele>
        <time>2017-04-13T16:03:47.1Z</time>
      </trkpt>
      <trkpt lat="45.7828" lon="4.3111">
        <ele>446</ele>
        <time>2017-04-13T16:03:49.1Z</time>
      </trkpt>
      <trkpt lat="45.78282" lon="4.31103">
        <ele>446</ele>
        <time>2017-04-13T16:03:52.1Z</time>
      </trkpt>
      <trkpt lat="45.78283" lon="4.31099">
        <ele>445</ele>
        <time>2017-04-13T16:03:54.1Z</time>
      </trkpt>
      <trkpt lat="45.78284" lon="4.31094">
        <ele>445</ele>
        <time>2017-04-13T16:03:56.1Z</time>
      </trkpt>
      <trkpt lat="45.78286" lon="4.3109">
        <ele>445</ele>
        <time>2017-04-13T16:03:58.1Z</time>
      </trkpt>
      <trkpt lat="45.78286" lon="4.31086">
        <ele>445</ele>
        <time>2017-04-13T16:04:00.1Z</time>
      </trkpt>
      <trkpt lat="45.78288" lon="4.31082">
        <ele>445</ele>
        <time>2017-04-13T16:04:02.1Z</time>
      </trkpt>
      <trkpt lat="45.78289" lon="4.31076">
        <ele>445</ele>
        <time>2017-04-13T16:04:05.1Z</time>
      </trkpt>
      <trkpt lat="45.78291" lon="4.3107">
        <ele>445</ele>
        <time>2017-04-13T16:04:08.1Z</time>
      </trkpt>
      <trkpt lat="45.78292" lon="4.31066">
        <ele>445</ele>
        <time>2017-04-13T16:04:10.1Z</time>
      </trkpt>
      <trkpt lat="45.78292" lon="4.31062">
        <ele>446</ele>
        <time>2017-04-13T16:04:12.1Z</time>
      </trkpt>
      <trkpt lat="45.78293" lon="4.31058">
        <ele>446</ele>
        <time>2017-04-13T16:04:14.1Z</time>
      </trkpt>
      <trkpt lat="45.78294" lon="4.31055">
        <ele>446</ele>
        <time>2017-04-13T16:04:16.1Z</time>
      </trkpt>
      <trkpt lat="45.78294" lon="4.31049">
        <ele>446</ele>
        <time>2017-04-13T16:04:19.1Z</time>
      </trkpt>
      <trkpt lat="45.78295" lon="4.31046">
        <ele>446</ele>
        <time>2017-04-13T16:04:21.1Z</time>
      </trkpt>
      <trkpt lat="45.78295" lon="4.31041">
        <ele>446</ele>
        <time>2017-04-13T16:04:23.1Z</time>
      </trkpt>
      <trkpt lat="45.78296" lon="4.31037">
        <ele>446</ele>
        <time>2017-04-13T16:04:25.1Z</time>
      </trkpt>
      <trkpt lat="45.78296" lon="4.31033">
        <ele>446</ele>
        <time>2017-04-13T16:04:27.1Z</time>
      </trkpt>
      <trkpt lat="45.78296" lon="4.31029">
        <ele>445</ele>
        <time>2017-04-13T16:04:29.1Z</time>
      </trkpt>
      <trkpt lat="45.78296" lon="4.31025">
        <ele>445</ele>
        <time>2017-04-13T16:04:31.1Z</time>
      </trkpt>
      <trkpt lat="45.78297" lon="4.31018">
        <ele>445</ele>
        <time>2017-04-13T16:04:34.1Z</time>
      </trkpt>
      <trkpt lat="45.78299" lon="4.31014">
        <ele>445</ele>
        <time>2017-04-13T16:04:36.1Z</time>
      </trkpt>
      <trkpt lat="45.783" lon="4.31007">
        <ele>445</ele>
        <time>2017-04-13T16:04:39.1Z</time>
      </trkpt>
      <trkpt lat="45.78301" lon="4.31003">
        <ele>445</ele>
        <time>2017-04-13T16:04:41.1Z</time>
      </trkpt>
      <trkpt lat="45.78302" lon="4.30998">
        <ele>446</ele>
        <time>2017-04-13T16:04:43.1Z</time>
      </trkpt>
      <trkpt lat="45.78303" lon="4.30994">
        <ele>445</ele>
        <time>2017-04-13T16:04:45.1Z</time>
      </trkpt>
      <trkpt lat="45.78305" lon="4.30989">
        <ele>445</ele>
        <time>2017-04-13T16:04:48.1Z</time>
      </trkpt>
      <trkpt lat="45.78307" lon="4.30985">
        <ele>445</ele>
        <time>2017-04-13T16:04:50.1Z</time>
      </trkpt>
      <trkpt lat="45.78308" lon="4.30981">
        <ele>445</ele>
        <time>2017-04-13T16:04:52.1Z</time>
      </trkpt>
      <trkpt lat="45.78308" lon="4.30977">
        <ele>445</ele>
        <time>2017-04-13T16:04:54.1Z</time>
      </trkpt>
      <trkpt lat="45.78309" lon="4.30972">
        <ele>445</ele>
        <time>2017-04-13T16:04:56.1Z</time>
      </trkpt>
      <trkpt lat="45.78309" lon="4.30968">
        <ele>445</ele>
        <time>2017-04-13T16:04:58.1Z</time>
      </trkpt>
      <trkpt lat="45.7831" lon="4.3096">
        <ele>445</ele>
        <time>2017-04-13T16:05:01.1Z</time>
      </trkpt>
      <trkpt lat="45.7831" lon="4.30957">
        <ele>445</ele>
        <time>2017-04-13T16:05:03.1Z</time>
      </trkpt>
      <trkpt lat="45.7831" lon="4.30953">
        <ele>444</ele>
        <time>2017-04-13T16:05:05.1Z</time>
      </trkpt>
      <trkpt lat="45.7831" lon="4.30949">
        <ele>444</ele>
        <time>2017-04-13T16:05:07.1Z</time>
      </trkpt>
      <trkpt lat="45.7831" lon="4.30944">
        <ele>444</ele>
        <time>2017-04-13T16:05:10.1Z</time>
      </trkpt>
      <trkpt lat="45.78308" lon="4.30941">
        <ele>443</ele>
        <time>2017-04-13T16:05:12.1Z</time>
      </trkpt>
      <trkpt lat="45.78307" lon="4.30941">
        <ele>443</ele>
        <time>2017-04-13T16:05:14.1Z</time>
      </trkpt>
      <trkpt lat="45.78305" lon="4.3094">
        <ele>443</ele>
        <time>2017-04-13T16:05:17.1Z</time>
      </trkpt>
      <trkpt lat="45.78302" lon="4.30941">
        <ele>442</ele>
        <time>2017-04-13T16:05:20.1Z</time>
      </trkpt>
      <trkpt lat="45.78302" lon="4.30941">
        <ele>442</ele>
        <time>2017-04-13T16:05:22.1Z</time>
      </trkpt>
      <trkpt lat="45.78298" lon="4.30942">
        <ele>441</ele>
        <time>2017-04-13T16:05:25.1Z</time>
      </trkpt>
      <trkpt lat="45.78294" lon="4.3094">
        <ele>440</ele>
        <time>2017-04-13T16:05:28.1Z</time>
      </trkpt>
      <trkpt lat="45.78291" lon="4.30939">
        <ele>440</ele>
        <time>2017-04-13T16:05:30.1Z</time>
      </trkpt>
      <trkpt lat="45.78287" lon="4.30939">
        <ele>440</ele>
        <time>2017-04-13T16:05:33.1Z</time>
      </trkpt>
      <trkpt lat="45.78284" lon="4.30939">
        <ele>440</ele>
        <time>2017-04-13T16:05:35.1Z</time>
      </trkpt>
      <trkpt lat="45.78281" lon="4.3094">
        <ele>440</ele>
        <time>2017-04-13T16:05:37.1Z</time>
      </trkpt>
      <trkpt lat="45.78279" lon="4.3094">
        <ele>440</ele>
        <time>2017-04-13T16:05:39.1Z</time>
      </trkpt>
      <trkpt lat="45.78276" lon="4.3094">
        <ele>440</ele>
        <time>2017-04-13T16:05:41.1Z</time>
      </trkpt>
      <trkpt lat="45.78273" lon="4.30939">
        <ele>441</ele>
        <time>2017-04-13T16:05:43.1Z</time>
      </trkpt>
      <trkpt lat="45.7827" lon="4.30939">
        <ele>441</ele>
        <time>2017-04-13T16:05:45.1Z</time>
      </trkpt>
      <trkpt lat="45.78266" lon="4.30938">
        <ele>442</ele>
        <time>2017-04-13T16:05:48.1Z</time>
      </trkpt>
      <trkpt lat="45.78265" lon="4.30938">
        <ele>442</ele>
        <time>2017-04-13T16:05:50.1Z</time>
      </trkpt>
      <trkpt lat="45.78262" lon="4.30936">
        <ele>442</ele>
        <time>2017-04-13T16:05:52.1Z</time>
      </trkpt>
      <trkpt lat="45.78259" lon="4.30933">
        <ele>443</ele>
        <time>2017-04-13T16:05:55.1Z</time>
      </trkpt>
      <trkpt lat="45.78255" lon="4.30931">
        <ele>444</ele>
        <time>2017-04-13T16:05:58.1Z</time>
      </trkpt>
      <trkpt lat="45.78252" lon="4.30929">
        <ele>444</ele>
        <time>2017-04-13T16:06:01.1Z</time>
      </trkpt>
      <trkpt lat="45.78249" lon="4.30927">
        <ele>445</ele>
        <time>2017-04-13T16:06:03.1Z</time>
      </trkpt>
      <trkpt lat="45.78245" lon="4.30926">
        <ele>446</ele>
        <time>2017-04-13T16:06:06.1Z</time>
      </trkpt>
      <trkpt lat="45.78243" lon="4.30925">
        <ele>446</ele>
        <time>2017-04-13T16:06:08.1Z</time>
      </trkpt>
      <trkpt lat="45.7824" lon="4.30926">
        <ele>447</ele>
        <time>2017-04-13T16:06:10.1Z</time>
      </trkpt>
      <trkpt lat="45.78237" lon="4.30926">
        <ele>447</ele>
        <time>2017-04-13T16:06:13.1Z</time>
      </trkpt>
      <trkpt lat="45.78233" lon="4.30926">
        <ele>448</ele>
        <time>2017-04-13T16:06:16.1Z</time>
      </trkpt>
      <trkpt lat="45.78231" lon="4.30927">
        <ele>449</ele>
        <time>2017-04-13T16:06:18.1Z</time>
      </trkpt>
      <trkpt lat="45.78227" lon="4.30928">
        <ele>449</ele>
        <time>2017-04-13T16:06:21.1Z</time>
      </trkpt>
      <trkpt lat="45.78225" lon="4.30928">
        <ele>449</ele>
        <time>2017-04-13T16:06:23.1Z</time>
      </trkpt>
      <trkpt lat="45.78222" lon="4.3093">
        <ele>450</ele>
        <time>2017-04-13T16:06:26.1Z</time>
      </trkpt>
      <trkpt lat="45.78218" lon="4.30932">
        <ele>451</ele>
        <time>2017-04-13T16:06:29.1Z</time>
      </trkpt>
      <trkpt lat="45.78216" lon="4.30933">
        <ele>452</ele>
        <time>2017-04-13T16:06:31.1Z</time>
      </trkpt>
      <trkpt lat="45.78212" lon="4.30936">
        <ele>452</ele>
        <time>2017-04-13T16:06:34.1Z</time>
      </trkpt>
      <trkpt lat="45.78208" lon="4.30937">
        <ele>453</ele>
        <time>2017-04-13T16:06:37.1Z</time>
      </trkpt>
      <trkpt lat="45.78204" lon="4.3094">
        <ele>454</ele>
        <time>2017-04-13T16:06:40.1Z</time>
      </trkpt>
      <trkpt lat="45.78202" lon="4.30941">
        <ele>454</ele>
        <time>2017-04-13T16:06:42.1Z</time>
      </trkpt>
      <trkpt lat="45.782" lon="4.30942">
        <ele>454</ele>
        <time>2017-04-13T16:06:44.1Z</time>
      </trkpt>
      <trkpt lat="45.78196" lon="4.30943">
        <ele>455</ele>
        <time>2017-04-13T16:06:47.1Z</time>
      </trkpt>
      <trkpt lat="45.78194" lon="4.30944">
        <ele>455</ele>
        <time>2017-04-13T16:06:49.1Z</time>
      </trkpt>
      <trkpt lat="45.78191" lon="4.30946">
        <ele>455</ele>
        <time>2017-04-13T16:06:51.1Z</time>
      </trkpt>
      <trkpt lat="45.78188" lon="4.30946">
        <ele>456</ele>
        <time>2017-04-13T16:06:53.1Z</time>
      </trkpt>
      <trkpt lat="45.78185" lon="4.30947">
        <ele>456</ele>
        <time>2017-04-13T16:06:55.1Z</time>
      </trkpt>
      <trkpt lat="45.78183" lon="4.30948">
        <ele>456</ele>
        <time>2017-04-13T16:06:57.1Z</time>
      </trkpt>
      <trkpt lat="45.78181" lon="4.30949">
        <ele>457</ele>
        <time>2017-04-13T16:06:59.1Z</time>
      </trkpt>
      <trkpt lat="45.78177" lon="4.30951">
        <ele>457</ele>
        <time>2017-04-13T16:07:02.1Z</time>
      </trkpt>
      <trkpt lat="45.78175" lon="4.30953">
        <ele>457</ele>
        <time>2017-04-13T16:07:04.1Z</time>
      </trkpt>
      <trkpt lat="45.78173" lon="4.30955">
        <ele>458</ele>
        <time>2017-04-13T16:07:06.1Z</time>
      </trkpt>
      <trkpt lat="45.7817" lon="4.30956">
        <ele>458</ele>
        <time>2017-04-13T16:07:08.1Z</time>
      </trkpt>
      <trkpt lat="45.78168" lon="4.30957">
        <ele>458</ele>
        <time>2017-04-13T16:07:10.1Z</time>
      </trkpt>
      <trkpt lat="45.78165" lon="4.30958">
        <ele>459</ele>
        <time>2017-04-13T16:07:12.1Z</time>
      </trkpt>
      <trkpt lat="45.78163" lon="4.30959">
        <ele>460</ele>
        <time>2017-04-13T16:07:14.1Z</time>
      </trkpt>
      <trkpt lat="45.78159" lon="4.30961">
        <ele>460</ele>
        <time>2017-04-13T16:07:17.1Z</time>
      </trkpt>
      <trkpt lat="45.78157" lon="4.30962">
        <ele>461</ele>
        <time>2017-04-13T16:07:19.1Z</time>
      </trkpt>
      <trkpt lat="45.78155" lon="4.30964">
        <ele>461</ele>
        <time>2017-04-13T16:07:21.1Z</time>
      </trkpt>
      <trkpt lat="45.78153" lon="4.30965">
        <ele>462</ele>
        <time>2017-04-13T16:07:23.1Z</time>
      </trkpt>
      <trkpt lat="45.78151" lon="4.30966">
        <ele>462</ele>
        <time>2017-04-13T16:07:25.1Z</time>
      </trkpt>
      <trkpt lat="45.78149" lon="4.30967">
        <ele>463</ele>
        <time>2017-04-13T16:07:27.1Z</time>
      </trkpt>
      <trkpt lat="45.78146" lon="4.3097">
        <ele>463</ele>
        <time>2017-04-13T16:07:30.1Z</time>
      </trkpt>
      <trkpt lat="45.78145" lon="4.30972">
        <ele>463</ele>
        <time>2017-04-13T16:07:32.1Z</time>
      </trkpt>
      <trkpt lat="45.78143" lon="4.30973">
        <ele>464</ele>
        <time>2017-04-13T16:07:34.1Z</time>
      </trkpt>
      <trkpt lat="45.7814" lon="4.30974">
        <ele>464</ele>
        <time>2017-04-13T16:07:36.1Z</time>
      </trkpt>
      <trkpt lat="45.78137" lon="4.30976">
        <ele>465</ele>
        <time>2017-04-13T16:07:39.1Z</time>
      </trkpt>
      <trkpt lat="45.78136" lon="4.30978">
        <ele>465</ele>
        <time>2017-04-13T16:07:41.1Z</time>
      </trkpt>
      <trkpt lat="45.78132" lon="4.30981">
        <ele>466</ele>
        <time>2017-04-13T16:07:44.1Z</time>
      </trkpt>
      <trkpt lat="45.7813" lon="4.30983">
        <ele>466</ele>
        <time>2017-04-13T16:07:46.1Z</time>
      </trkpt>
      <trkpt lat="45.78127" lon="4.30986">
        <ele>466</ele>
        <time>2017-04-13T16:07:49.1Z</time>
      </trkpt>
      <trkpt lat="45.78125" lon="4.30987">
        <ele>467</ele>
        <time>2017-04-13T16:07:51.1Z</time>
      </trkpt>
      <trkpt lat="45.78122" lon="4.30989">
        <ele>467</ele>
        <time>2017-04-13T16:07:53.1Z</time>
      </trkpt>
      <trkpt lat="45.78119" lon="4.30992">
        <ele>467</ele>
        <time>2017-04-13T16:07:55.1Z</time>
      </trkpt>
      <trkpt lat="45.78116" lon="4.30994">
        <ele>468</ele>
        <time>2017-04-13T16:07:58.1Z</time>
      </trkpt>
      <trkpt lat="45.78114" lon="4.30996">
        <ele>468</ele>
        <time>2017-04-13T16:08:00.1Z</time>
      </trkpt>
      <trkpt lat="45.78112" lon="4.30998">
        <ele>468</ele>
        <time>2017-04-13T16:08:02.1Z</time>
      </trkpt>
      <trkpt lat="45.78109" lon="4.31">
        <ele>469</ele>
        <time>2017-04-13T16:08:05.1Z</time>
      </trkpt>
      <trkpt lat="45.78106" lon="4.31002">
        <ele>469</ele>
        <time>2017-04-13T16:08:07.1Z</time>
      </trkpt>
      <trkpt lat="45.78103" lon="4.31004">
        <ele>469</ele>
        <time>2017-04-13T16:08:10.1Z</time>
      </trkpt>
      <trkpt lat="45.781" lon="4.31006">
        <ele>470</ele>
        <time>2017-04-13T16:08:13.1Z</time>
      </trkpt>
      <trkpt lat="45.78096" lon="4.31007">
        <ele>471</ele>
        <time>2017-04-13T16:08:15.1Z</time>
      </trkpt>
      <trkpt lat="45.78092" lon="4.31008">
        <ele>472</ele>
        <time>2017-04-13T16:08:18.1Z</time>
      </trkpt>
      <trkpt lat="45.7809" lon="4.31009">
        <ele>472</ele>
        <time>2017-04-13T16:08:20.1Z</time>
      </trkpt>
      <trkpt lat="45.78089" lon="4.31011">
        <ele>473</ele>
        <time>2017-04-13T16:08:22.1Z</time>
      </trkpt>
      <trkpt lat="45.78085" lon="4.31012">
        <ele>473</ele>
        <time>2017-04-13T16:08:25.1Z</time>
      </trkpt>
      <trkpt lat="45.78079" lon="4.31013">
        <ele>474</ele>
        <time>2017-04-13T16:08:28.1Z</time>
      </trkpt>
      <trkpt lat="45.78076" lon="4.31013">
        <ele>474</ele>
        <time>2017-04-13T16:08:30.1Z</time>
      </trkpt>
      <trkpt lat="45.78072" lon="4.31014">
        <ele>474</ele>
        <time>2017-04-13T16:08:33.1Z</time>
      </trkpt>
      <trkpt lat="45.78069" lon="4.31014">
        <ele>474</ele>
        <time>2017-04-13T16:08:35.1Z</time>
      </trkpt>
      <trkpt lat="45.78065" lon="4.31015">
        <ele>474</ele>
        <time>2017-04-13T16:08:38.1Z</time>
      </trkpt>
      <trkpt lat="45.78061" lon="4.31016">
        <ele>474</ele>
        <time>2017-04-13T16:08:41.1Z</time>
      </trkpt>
      <trkpt lat="45.78058" lon="4.31017">
        <ele>474</ele>
        <time>2017-04-13T16:08:44.1Z</time>
      </trkpt>
      <trkpt lat="45.78054" lon="4.31018">
        <ele>474</ele>
        <time>2017-04-13T16:08:47.1Z</time>
      </trkpt>
      <trkpt lat="45.78049" lon="4.31018">
        <ele>474</ele>
        <time>2017-04-13T16:08:50.1Z</time>
      </trkpt>
      <trkpt lat="45.78045" lon="4.31019">
        <ele>474</ele>
        <time>2017-04-13T16:08:53.1Z</time>
      </trkpt>
      <trkpt lat="45.78043" lon="4.31019">
        <ele>474</ele>
        <time>2017-04-13T16:08:55.1Z</time>
      </trkpt>
      <trkpt lat="45.78039" lon="4.3102">
        <ele>475</ele>
        <time>2017-04-13T16:08:58.1Z</time>
      </trkpt>
      <trkpt lat="45.78036" lon="4.31021">
        <ele>475</ele>
        <time>2017-04-13T16:09:00.1Z</time>
      </trkpt>
      <trkpt lat="45.78034" lon="4.31022">
        <ele>475</ele>
        <time>2017-04-13T16:09:02.1Z</time>
      </trkpt>
      <trkpt lat="45.78032" lon="4.31023">
        <ele>475</ele>
        <time>2017-04-13T16:09:04.1Z</time>
      </trkpt>
      <trkpt lat="45.78029" lon="4.31023">
        <ele>475</ele>
        <time>2017-04-13T16:09:06.1Z</time>
      </trkpt>
      <trkpt lat="45.78025" lon="4.31022">
        <ele>476</ele>
        <time>2017-04-13T16:09:09.1Z</time>
      </trkpt>
      <trkpt lat="45.78022" lon="4.31021">
        <ele>476</ele>
        <time>2017-04-13T16:09:11.1Z</time>
      </trkpt>
      <trkpt lat="45.78019" lon="4.31019">
        <ele>476</ele>
        <time>2017-04-13T16:09:13.1Z</time>
      </trkpt>
      <trkpt lat="45.78015" lon="4.31018">
        <ele>476</ele>
        <time>2017-04-13T16:09:16.1Z</time>
      </trkpt>
      <trkpt lat="45.7801" lon="4.31016">
        <ele>476</ele>
        <time>2017-04-13T16:09:19.1Z</time>
      </trkpt>
      <trkpt lat="45.78007" lon="4.31015">
        <ele>476</ele>
        <time>2017-04-13T16:09:21.1Z</time>
      </trkpt>
      <trkpt lat="45.78003" lon="4.31015">
        <ele>476</ele>
        <time>2017-04-13T16:09:24.1Z</time>
      </trkpt>
      <trkpt lat="45.77999" lon="4.31015">
        <ele>476</ele>
        <time>2017-04-13T16:09:26.1Z</time>
      </trkpt>
      <trkpt lat="45.77997" lon="4.31016">
        <ele>476</ele>
        <time>2017-04-13T16:09:28.1Z</time>
      </trkpt>
      <trkpt lat="45.77993" lon="4.31017">
        <ele>476</ele>
        <time>2017-04-13T16:09:31.1Z</time>
      </trkpt>
      <trkpt lat="45.77991" lon="4.31018">
        <ele>476</ele>
        <time>2017-04-13T16:09:33.1Z</time>
      </trkpt>
      <trkpt lat="45.77989" lon="4.31021">
        <ele>476</ele>
        <time>2017-04-13T16:09:35.1Z</time>
      </trkpt>
      <trkpt lat="45.77988" lon="4.31024">
        <ele>477</ele>
        <time>2017-04-13T16:09:37.1Z</time>
      </trkpt>
      <trkpt lat="45.77986" lon="4.31027">
        <ele>477</ele>
        <time>2017-04-13T16:09:39.1Z</time>
      </trkpt>
      <trkpt lat="45.77984" lon="4.31027">
        <ele>478</ele>
        <time>2017-04-13T16:09:41.1Z</time>
      </trkpt>
      <trkpt lat="45.77983" lon="4.31028">
        <ele>478</ele>
        <time>2017-04-13T16:09:43.1Z</time>
      </trkpt>
      <trkpt lat="45.77981" lon="4.31028">
        <ele>478</ele>
        <time>2017-04-13T16:09:46.1Z</time>
      </trkpt>
      <trkpt lat="45.7798" lon="4.31032">
        <ele>478</ele>
        <time>2017-04-13T16:09:49.1Z</time>
      </trkpt>
      <trkpt lat="45.77978" lon="4.31036">
        <ele>479</ele>
        <time>2017-04-13T16:09:51.1Z</time>
      </trkpt>
      <trkpt lat="45.77977" lon="4.31041">
        <ele>480</ele>
        <time>2017-04-13T16:09:53.1Z</time>
      </trkpt>
      <trkpt lat="45.77977" lon="4.31046">
        <ele>481</ele>
        <time>2017-04-13T16:09:55.1Z</time>
      </trkpt>
      <trkpt lat="45.77977" lon="4.31052">
        <ele>483</ele>
        <time>2017-04-13T16:09:58.1Z</time>
      </trkpt>
      <trkpt lat="45.77975" lon="4.31056">
        <ele>484</ele>
        <time>2017-04-13T16:10:00.1Z</time>
      </trkpt>
      <trkpt lat="45.77973" lon="4.31061">
        <ele>485</ele>
        <time>2017-04-13T16:10:03.1Z</time>
      </trkpt>
      <trkpt lat="45.77973" lon="4.31065">
        <ele>486</ele>
        <time>2017-04-13T16:10:06.1Z</time>
      </trkpt>
      <trkpt lat="45.77972" lon="4.31069">
        <ele>488</ele>
        <time>2017-04-13T16:10:09.1Z</time>
      </trkpt>
      <trkpt lat="45.77971" lon="4.31071">
        <ele>489</ele>
        <time>2017-04-13T16:10:11.1Z</time>
      </trkpt>
      <trkpt lat="45.7797" lon="4.31074">
        <ele>490</ele>
        <time>2017-04-13T16:10:13.1Z</time>
      </trkpt>
      <trkpt lat="45.77969" lon="4.3108">
        <ele>491</ele>
        <time>2017-04-13T16:10:16.1Z</time>
      </trkpt>
      <trkpt lat="45.77967" lon="4.31083">
        <ele>492</ele>
        <time>2017-04-13T16:10:18.1Z</time>
      </trkpt>
      <trkpt lat="45.77967" lon="4.31088">
        <ele>493</ele>
        <time>2017-04-13T16:10:20.1Z</time>
      </trkpt>
      <trkpt lat="45.77967" lon="4.31091">
        <ele>494</ele>
        <time>2017-04-13T16:10:22.1Z</time>
      </trkpt>
      <trkpt lat="45.77966" lon="4.31095">
        <ele>495</ele>
        <time>2017-04-13T16:10:24.1Z</time>
      </trkpt>
      <trkpt lat="45.77966" lon="4.31097">
        <ele>496</ele>
        <time>2017-04-13T16:10:26.1Z</time>
      </trkpt>
      <trkpt lat="45.77965" lon="4.311">
        <ele>497</ele>
        <time>2017-04-13T16:10:28.1Z</time>
      </trkpt>
      <trkpt lat="45.77964" lon="4.31105">
        <ele>498</ele>
        <time>2017-04-13T16:10:31.1Z</time>
      </trkpt>
      <trkpt lat="45.77962" lon="4.31107">
        <ele>499</ele>
        <time>2017-04-13T16:10:33.1Z</time>
      </trkpt>
      <trkpt lat="45.77961" lon="4.31109">
        <ele>500</ele>
        <time>2017-04-13T16:10:35.1Z</time>
      </trkpt>
      <trkpt lat="45.77959" lon="4.31113">
        <ele>500</ele>
        <time>2017-04-13T16:10:37.1Z</time>
      </trkpt>
      <trkpt lat="45.77958" lon="4.31116">
        <ele>501</ele>
        <time>2017-04-13T16:10:39.1Z</time>
      </trkpt>
      <trkpt lat="45.77957" lon="4.31118">
        <ele>502</ele>
        <time>2017-04-13T16:10:41.1Z</time>
      </trkpt>
      <trkpt lat="45.77955" lon="4.31124">
        <ele>502</ele>
        <time>2017-04-13T16:10:44.1Z</time>
      </trkpt>
      <trkpt lat="45.77954" lon="4.31127">
        <ele>503</ele>
        <time>2017-04-13T16:10:46.1Z</time>
      </trkpt>
      <trkpt lat="45.77954" lon="4.3113">
        <ele>503</ele>
        <time>2017-04-13T16:10:48.1Z</time>
      </trkpt>
      <trkpt lat="45.77954" lon="4.31132">
        <ele>504</ele>
        <time>2017-04-13T16:10:50.1Z</time>
      </trkpt>
      <trkpt lat="45.77954" lon="4.31135">
        <ele>504</ele>
        <time>2017-04-13T16:10:53.1Z</time>
      </trkpt>
      <trkpt lat="45.77954" lon="4.3114">
        <ele>504</ele>
        <time>2017-04-13T16:10:55.1Z</time>
      </trkpt>
      <trkpt lat="45.77953" lon="4.31146">
        <ele>504</ele>
        <time>2017-04-13T16:10:58.1Z</time>
      </trkpt>
      <trkpt lat="45.77952" lon="4.31152">
        <ele>505</ele>
        <time>2017-04-13T16:11:01.1Z</time>
      </trkpt>
      <trkpt lat="45.77951" lon="4.31155">
        <ele>506</ele>
        <time>2017-04-13T16:11:03.1Z</time>
      </trkpt>
      <trkpt lat="45.7795" lon="4.31158">
        <ele>507</ele>
        <time>2017-04-13T16:11:05.1Z</time>
      </trkpt>
      <trkpt lat="45.77949" lon="4.31162">
        <ele>507</ele>
        <time>2017-04-13T16:11:07.1Z</time>
      </trkpt>
      <trkpt lat="45.77948" lon="4.31166">
        <ele>508</ele>
        <time>2017-04-13T16:11:09.1Z</time>
      </trkpt>
      <trkpt lat="45.77947" lon="4.31172">
        <ele>508</ele>
        <time>2017-04-13T16:11:12.1Z</time>
      </trkpt>
      <trkpt lat="45.77947" lon="4.31176">
        <ele>509</ele>
        <time>2017-04-13T16:11:14.1Z</time>
      </trkpt>
      <trkpt lat="45.77946" lon="4.3118">
        <ele>509</ele>
        <time>2017-04-13T16:11:16.1Z</time>
      </trkpt>
      <trkpt lat="45.77945" lon="4.31183">
        <ele>509</ele>
        <time>2017-04-13T16:11:18.1Z</time>
      </trkpt>
      <trkpt lat="45.77944" lon="4.31187">
        <ele>510</ele>
        <time>2017-04-13T16:11:20.1Z</time>
      </trkpt>
      <trkpt lat="45.77944" lon="4.31191">
        <ele>510</ele>
        <time>2017-04-13T16:11:22.1Z</time>
      </trkpt>
      <trkpt lat="45.77944" lon="4.31194">
        <ele>511</ele>
        <time>2017-04-13T16:11:24.1Z</time>
      </trkpt>
      <trkpt lat="45.77943" lon="4.31199">
        <ele>511</ele>
        <time>2017-04-13T16:11:27.1Z</time>
      </trkpt>
      <trkpt lat="45.77943" lon="4.31203">
        <ele>512</ele>
        <time>2017-04-13T16:11:29.1Z</time>
      </trkpt>
      <trkpt lat="45.77943" lon="4.31207">
        <ele>512</ele>
        <time>2017-04-13T16:11:31.1Z</time>
      </trkpt>
      <trkpt lat="45.77943" lon="4.31211">
        <ele>512</ele>
        <time>2017-04-13T16:11:33.1Z</time>
      </trkpt>
      <trkpt lat="45.77944" lon="4.31214">
        <ele>512</ele>
        <time>2017-04-13T16:11:35.1Z</time>
      </trkpt>
      <trkpt lat="45.77944" lon="4.31218">
        <ele>513</ele>
        <time>2017-04-13T16:11:37.1Z</time>
      </trkpt>
      <trkpt lat="45.77944" lon="4.31223">
        <ele>513</ele>
        <time>2017-04-13T16:11:40.1Z</time>
      </trkpt>
      <trkpt lat="45.77943" lon="4.31227">
        <ele>514</ele>
        <time>2017-04-13T16:11:42.1Z</time>
      </trkpt>
      <trkpt lat="45.77942" lon="4.3123">
        <ele>513</ele>
        <time>2017-04-13T16:11:44.1Z</time>
      </trkpt>
      <trkpt lat="45.77942" lon="4.31235">
        <ele>514</ele>
        <time>2017-04-13T16:11:46.1Z</time>
      </trkpt>
      <trkpt lat="45.77941" lon="4.31238">
        <ele>514</ele>
        <time>2017-04-13T16:11:48.1Z</time>
      </trkpt>
      <trkpt lat="45.77941" lon="4.31242">
        <ele>514</ele>
        <time>2017-04-13T16:11:50.1Z</time>
      </trkpt>
      <trkpt lat="45.77939" lon="4.31247">
        <ele>514</ele>
        <time>2017-04-13T16:11:53.1Z</time>
      </trkpt>
      <trkpt lat="45.77936" lon="4.31251">
        <ele>514</ele>
        <time>2017-04-13T16:11:56.1Z</time>
      </trkpt>
      <trkpt lat="45.77934" lon="4.31253">
        <ele>514</ele>
        <time>2017-04-13T16:11:58.1Z</time>
      </trkpt>
      <trkpt lat="45.77932" lon="4.31256">
        <ele>514</ele>
        <time>2017-04-13T16:12:00.1Z</time>
      </trkpt>
      <trkpt lat="45.7793" lon="4.31258">
        <ele>514</ele>
        <time>2017-04-13T16:12:02.1Z</time>
      </trkpt>
      <trkpt lat="45.77927" lon="4.3126">
        <ele>514</ele>
        <time>2017-04-13T16:12:04.1Z</time>
      </trkpt>
      <trkpt lat="45.77924" lon="4.31262">
        <ele>514</ele>
        <time>2017-04-13T16:12:07.1Z</time>
      </trkpt>
      <trkpt lat="45.77921" lon="4.31264">
        <ele>514</ele>
        <time>2017-04-13T16:12:09.1Z</time>
      </trkpt>
      <trkpt lat="45.77919" lon="4.31265">
        <ele>514</ele>
        <time>2017-04-13T16:12:11.1Z</time>
      </trkpt>
      <trkpt lat="45.77917" lon="4.31267">
        <ele>514</ele>
        <time>2017-04-13T16:12:13.1Z</time>
      </trkpt>
      <trkpt lat="45.77914" lon="4.31269">
        <ele>514</ele>
        <time>2017-04-13T16:12:15.1Z</time>
      </trkpt>
      <trkpt lat="45.77912" lon="4.31271">
        <ele>513</ele>
        <time>2017-04-13T16:12:17.1Z</time>
      </trkpt>
      <trkpt lat="45.7791" lon="4.31273">
        <ele>513</ele>
        <time>2017-04-13T16:12:19.1Z</time>
      </trkpt>
      <trkpt lat="45.77907" lon="4.31276">
        <ele>513</ele>
        <time>2017-04-13T16:12:22.1Z</time>
      </trkpt>
      <trkpt lat="45.77905" lon="4.31278">
        <ele>513</ele>
        <time>2017-04-13T16:12:24.1Z</time>
      </trkpt>
      <trkpt lat="45.77903" lon="4.3128">
        <ele>513</ele>
        <time>2017-04-13T16:12:26.1Z</time>
      </trkpt>
      <trkpt lat="45.779" lon="4.31282">
        <ele>513</ele>
        <time>2017-04-13T16:12:28.1Z</time>
      </trkpt>
      <trkpt lat="45.77898" lon="4.31285">
        <ele>512</ele>
        <time>2017-04-13T16:12:30.1Z</time>
      </trkpt>
      <trkpt lat="45.77896" lon="4.31288">
        <ele>512</ele>
        <time>2017-04-13T16:12:32.1Z</time>
      </trkpt>
      <trkpt lat="45.77893" lon="4.31292">
        <ele>512</ele>
        <time>2017-04-13T16:12:35.1Z</time>
      </trkpt>
      <trkpt lat="45.77892" lon="4.31294">
        <ele>512</ele>
        <time>2017-04-13T16:12:37.1Z</time>
      </trkpt>
      <trkpt lat="45.7789" lon="4.31297">
        <ele>512</ele>
        <time>2017-04-13T16:12:39.1Z</time>
      </trkpt>
      <trkpt lat="45.77888" lon="4.31299">
        <ele>512</ele>
        <time>2017-04-13T16:12:41.1Z</time>
      </trkpt>
      <trkpt lat="45.77886" lon="4.31301">
        <ele>513</ele>
        <time>2017-04-13T16:12:43.1Z</time>
      </trkpt>
      <trkpt lat="45.77884" lon="4.31304">
        <ele>514</ele>
        <time>2017-04-13T16:12:45.1Z</time>
      </trkpt>
      <trkpt lat="45.7788" lon="4.31307">
        <ele>513</ele>
        <time>2017-04-13T16:12:48.1Z</time>
      </trkpt>
      <trkpt lat="45.77878" lon="4.31309">
        <ele>513</ele>
        <time>2017-04-13T16:12:50.1Z</time>
      </trkpt>
      <trkpt lat="45.77876" lon="4.31311">
        <ele>513</ele>
        <time>2017-04-13T16:12:52.1Z</time>
      </trkpt>
      <trkpt lat="45.77874" lon="4.31313">
        <ele>513</ele>
        <time>2017-04-13T16:12:54.1Z</time>
      </trkpt>
      <trkpt lat="45.77871" lon="4.31315">
        <ele>513</ele>
        <time>2017-04-13T16:12:56.1Z</time>
      </trkpt>
      <trkpt lat="45.77869" lon="4.31316">
        <ele>513</ele>
        <time>2017-04-13T16:12:58.1Z</time>
      </trkpt>
      <trkpt lat="45.77866" lon="4.31319">
        <ele>513</ele>
        <time>2017-04-13T16:13:01.1Z</time>
      </trkpt>
      <trkpt lat="45.77863" lon="4.31321">
        <ele>513</ele>
        <time>2017-04-13T16:13:03.1Z</time>
      </trkpt>
      <trkpt lat="45.77861" lon="4.31323">
        <ele>513</ele>
        <time>2017-04-13T16:13:05.1Z</time>
      </trkpt>
      <trkpt lat="45.77858" lon="4.31325">
        <ele>513</ele>
        <time>2017-04-13T16:13:07.1Z</time>
      </trkpt>
      <trkpt lat="45.77855" lon="4.31328">
        <ele>513</ele>
        <time>2017-04-13T16:13:10.1Z</time>
      </trkpt>
      <trkpt lat="45.77852" lon="4.3133">
        <ele>513</ele>
        <time>2017-04-13T16:13:12.1Z</time>
      </trkpt>
      <trkpt lat="45.77849" lon="4.31333">
        <ele>513</ele>
        <time>2017-04-13T16:13:15.1Z</time>
      </trkpt>
      <trkpt lat="45.77846" lon="4.31334">
        <ele>513</ele>
        <time>2017-04-13T16:13:17.1Z</time>
      </trkpt>
      <trkpt lat="45.77844" lon="4.31336">
        <ele>513</ele>
        <time>2017-04-13T16:13:19.1Z</time>
      </trkpt>
      <trkpt lat="45.77842" lon="4.31337">
        <ele>513</ele>
        <time>2017-04-13T16:13:21.1Z</time>
      </trkpt>
      <trkpt lat="45.77839" lon="4.31339">
        <ele>513</ele>
        <time>2017-04-13T16:13:23.1Z</time>
      </trkpt>
      <trkpt lat="45.77837" lon="4.3134">
        <ele>514</ele>
        <time>2017-04-13T16:13:25.1Z</time>
      </trkpt>
      <trkpt lat="45.77834" lon="4.31341">
        <ele>514</ele>
        <time>2017-04-13T16:13:27.1Z</time>
      </trkpt>
      <trkpt lat="45.77832" lon="4.31342">
        <ele>513</ele>
        <time>2017-04-13T16:13:29.1Z</time>
      </trkpt>
      <trkpt lat="45.77828" lon="4.31343">
        <ele>514</ele>
        <time>2017-04-13T16:13:32.1Z</time>
      </trkpt>
      <trkpt lat="45.77824" lon="4.31344">
        <ele>514</ele>
        <time>2017-04-13T16:13:35.1Z</time>
      </trkpt>
      <trkpt lat="45.77822" lon="4.31345">
        <ele>514</ele>
        <time>2017-04-13T16:13:37.1Z</time>
      </trkpt>
      <trkpt lat="45.77819" lon="4.31345">
        <ele>516</ele>
        <time>2017-04-13T16:13:39.1Z</time>
      </trkpt>
      <trkpt lat="45.77816" lon="4.31346">
        <ele>515</ele>
        <time>2017-04-13T16:13:41.1Z</time>
      </trkpt>
      <trkpt lat="45.77812" lon="4.31348">
        <ele>515</ele>
        <time>2017-04-13T16:13:44.1Z</time>
      </trkpt>
      <trkpt lat="45.7781" lon="4.31349">
        <ele>515</ele>
        <time>2017-04-13T16:13:46.1Z</time>
      </trkpt>
      <trkpt lat="45.77806" lon="4.3135">
        <ele>515</ele>
        <time>2017-04-13T16:13:49.1Z</time>
      </trkpt>
      <trkpt lat="45.77804" lon="4.31351">
        <ele>515</ele>
        <time>2017-04-13T16:13:51.1Z</time>
      </trkpt>
      <trkpt lat="45.778" lon="4.31352">
        <ele>516</ele>
        <time>2017-04-13T16:13:54.1Z</time>
      </trkpt>
      <trkpt lat="45.77797" lon="4.31352">
        <ele>516</ele>
        <time>2017-04-13T16:13:56.1Z</time>
      </trkpt>
      <trkpt lat="45.77793" lon="4.31353">
        <ele>516</ele>
        <time>2017-04-13T16:13:59.1Z</time>
      </trkpt>
      <trkpt lat="45.7779" lon="4.31353">
        <ele>516</ele>
        <time>2017-04-13T16:14:01.1Z</time>
      </trkpt>
      <trkpt lat="45.77787" lon="4.31353">
        <ele>516</ele>
        <time>2017-04-13T16:14:03.1Z</time>
      </trkpt>
      <trkpt lat="45.77785" lon="4.31352">
        <ele>517</ele>
        <time>2017-04-13T16:14:05.1Z</time>
      </trkpt>
      <trkpt lat="45.77781" lon="4.31352">
        <ele>517</ele>
        <time>2017-04-13T16:14:08.1Z</time>
      </trkpt>
      <trkpt lat="45.77778" lon="4.31351">
        <ele>517</ele>
        <time>2017-04-13T16:14:10.1Z</time>
      </trkpt>
      <trkpt lat="45.77776" lon="4.3135">
        <ele>518</ele>
        <time>2017-04-13T16:14:12.1Z</time>
      </trkpt>
      <trkpt lat="45.77773" lon="4.31349">
        <ele>518</ele>
        <time>2017-04-13T16:14:14.1Z</time>
      </trkpt>
      <trkpt lat="45.7777" lon="4.31348">
        <ele>518</ele>
        <time>2017-04-13T16:14:17.1Z</time>
      </trkpt>
      <trkpt lat="45.77767" lon="4.31347">
        <ele>518</ele>
        <time>2017-04-13T16:14:19.1Z</time>
      </trkpt>
      <trkpt lat="45.77763" lon="4.31345">
        <ele>518</ele>
        <time>2017-04-13T16:14:22.1Z</time>
      </trkpt>
      <trkpt lat="45.77761" lon="4.31343">
        <ele>519</ele>
        <time>2017-04-13T16:14:24.1Z</time>
      </trkpt>
      <trkpt lat="45.77758" lon="4.31342">
        <ele>519</ele>
        <time>2017-04-13T16:14:26.1Z</time>
      </trkpt>
      <trkpt lat="45.77755" lon="4.3134">
        <ele>519</ele>
        <time>2017-04-13T16:14:29.1Z</time>
      </trkpt>
      <trkpt lat="45.77752" lon="4.31338">
        <ele>519</ele>
        <time>2017-04-13T16:14:31.1Z</time>
      </trkpt>
      <trkpt lat="45.77748" lon="4.31335">
        <ele>520</ele>
        <time>2017-04-13T16:14:34.1Z</time>
      </trkpt>
      <trkpt lat="45.77745" lon="4.31331">
        <ele>519</ele>
        <time>2017-04-13T16:14:37.1Z</time>
      </trkpt>
      <trkpt lat="45.77742" lon="4.31328">
        <ele>520</ele>
        <time>2017-04-13T16:14:40.1Z</time>
      </trkpt>
      <trkpt lat="45.77739" lon="4.31326">
        <ele>520</ele>
        <time>2017-04-13T16:14:42.1Z</time>
      </trkpt>
      <trkpt lat="45.77737" lon="4.31325">
        <ele>520</ele>
        <time>2017-04-13T16:14:44.1Z</time>
      </trkpt>
      <trkpt lat="45.77736" lon="4.31325">
        <ele>521</ele>
        <time>2017-04-13T16:14:46.1Z</time>
      </trkpt>
      <trkpt lat="45.77736" lon="4.31325">
        <ele>521</ele>
        <time>2017-04-13T16:14:49.1Z</time>
      </trkpt>
      <trkpt lat="45.77736" lon="4.31325">
        <ele>521</ele>
        <time>2017-04-13T16:14:52.1Z</time>
      </trkpt>
      <trkpt lat="45.77735" lon="4.31324">
        <ele>522</ele>
        <time>2017-04-13T16:14:55.1Z</time>
      </trkpt>
      <trkpt lat="45.77734" lon="4.31324">
        <ele>522</ele>
        <time>2017-04-13T16:14:58.1Z</time>
      </trkpt>
      <trkpt lat="45.77734" lon="4.31325">
        <ele>522</ele>
        <time>2017-04-13T16:15:00.1Z</time>
      </trkpt>
      <trkpt lat="45.77734" lon="4.31325">
        <ele>522</ele>
        <time>2017-04-13T16:15:04.1Z</time>
      </trkpt>
      <trkpt lat="45.77735" lon="4.31324">
        <ele>522</ele>
        <time>2017-04-13T16:15:07.1Z</time>
      </trkpt>
      <trkpt lat="45.77735" lon="4.31324">
        <ele>522</ele>
        <time>2017-04-13T16:15:11.1Z</time>
      </trkpt>
      <trkpt lat="45.77734" lon="4.31323">
        <ele>522</ele>
        <time>2017-04-13T16:15:16.1Z</time>
      </trkpt>
      <trkpt lat="45.77734" lon="4.31323">
        <ele>522</ele>
        <time>2017-04-13T16:15:18.1Z</time>
      </trkpt>
      <trkpt lat="45.77734" lon="4.31322">
        <ele>522</ele>
        <time>2017-04-13T16:15:20.1Z</time>
      </trkpt>
      <trkpt lat="45.77734" lon="4.31322">
        <ele>522</ele>
        <time>2017-04-13T16:15:23.1Z</time>
      </trkpt>
      <trkpt lat="45.77734" lon="4.31322">
        <ele>522</ele>
        <time>2017-04-13T16:15:26.1Z</time>
      </trkpt>
      <trkpt lat="45.77734" lon="4.31321">
        <ele>522</ele>
        <time>2017-04-13T16:15:28.1Z</time>
      </trkpt>
      <trkpt lat="45.77734" lon="4.31321">
        <ele>522</ele>
        <time>2017-04-13T16:15:30.1Z</time>
      </trkpt>
      <trkpt lat="45.77734" lon="4.31321">
        <ele>522</ele>
        <time>2017-04-13T16:15:33.1Z</time>
      </trkpt>
      <trkpt lat="45.77732" lon="4.31322">
        <ele>522</ele>
        <time>2017-04-13T16:15:35.1Z</time>
      </trkpt>
      <trkpt lat="45.77729" lon="4.31324">
        <ele>522</ele>
        <time>2017-04-13T16:15:38.1Z</time>
      </trkpt>
      <trkpt lat="45.77727" lon="4.31326">
        <ele>521</ele>
        <time>2017-04-13T16:15:40.1Z</time>
      </trkpt>
      <trkpt lat="45.77726" lon="4.31331">
        <ele>522</ele>
        <time>2017-04-13T16:15:43.1Z</time>
      </trkpt>
      <trkpt lat="45.77725" lon="4.31337">
        <ele>522</ele>
        <time>2017-04-13T16:15:46.1Z</time>
      </trkpt>
      <trkpt lat="45.77724" lon="4.31341">
        <ele>522</ele>
        <time>2017-04-13T16:15:48.1Z</time>
      </trkpt>
      <trkpt lat="45.77724" lon="4.31344">
        <ele>522</ele>
        <time>2017-04-13T16:15:50.1Z</time>
      </trkpt>
      <trkpt lat="45.77724" lon="4.31348">
        <ele>522</ele>
        <time>2017-04-13T16:15:52.1Z</time>
      </trkpt>
      <trkpt lat="45.77723" lon="4.31352">
        <ele>521</ele>
        <time>2017-04-13T16:15:54.1Z</time>
      </trkpt>
      <trkpt lat="45.77723" lon="4.31357">
        <ele>521</ele>
        <time>2017-04-13T16:15:56.1Z</time>
      </trkpt>
      <trkpt lat="45.77723" lon="4.31363">
        <ele>521</ele>
        <time>2017-04-13T16:15:59.1Z</time>
      </trkpt>
      <trkpt lat="45.77722" lon="4.31369">
        <ele>521</ele>
        <time>2017-04-13T16:16:02.1Z</time>
      </trkpt>
      <trkpt lat="45.77722" lon="4.31372">
        <ele>521</ele>
        <time>2017-04-13T16:16:04.1Z</time>
      </trkpt>
      <trkpt lat="45.77722" lon="4.31376">
        <ele>521</ele>
        <time>2017-04-13T16:16:06.1Z</time>
      </trkpt>
      <trkpt lat="45.77722" lon="4.31379">
        <ele>521</ele>
        <time>2017-04-13T16:16:08.1Z</time>
      </trkpt>
      <trkpt lat="45.77722" lon="4.31383">
        <ele>521</ele>
        <time>2017-04-13T16:16:10.1Z</time>
      </trkpt>
      <trkpt lat="45.77721" lon="4.31388">
        <ele>520</ele>
        <time>2017-04-13T16:16:13.1Z</time>
      </trkpt>
      <trkpt lat="45.77721" lon="4.31393">
        <ele>520</ele>
        <time>2017-04-13T16:16:16.1Z</time>
      </trkpt>
      <trkpt lat="45.7772" lon="4.31397">
        <ele>520</ele>
        <time>2017-04-13T16:16:18.1Z</time>
      </trkpt>
      <trkpt lat="45.77719" lon="4.31401">
        <ele>520</ele>
        <time>2017-04-13T16:16:20.1Z</time>
      </trkpt>
      <trkpt lat="45.77718" lon="4.31404">
        <ele>520</ele>
        <time>2017-04-13T16:16:22.1Z</time>
      </trkpt>
      <trkpt lat="45.77717" lon="4.31408">
        <ele>520</ele>
        <time>2017-04-13T16:16:24.1Z</time>
      </trkpt>
      <trkpt lat="45.77716" lon="4.31414">
        <ele>520</ele>
        <time>2017-04-13T16:16:27.1Z</time>
      </trkpt>
      <trkpt lat="45.77715" lon="4.31417">
        <ele>520</ele>
        <time>2017-04-13T16:16:29.1Z</time>
      </trkpt>
      <trkpt lat="45.77713" lon="4.31421">
        <ele>519</ele>
        <time>2017-04-13T16:16:31.1Z</time>
      </trkpt>
      <trkpt lat="45.77712" lon="4.31424">
        <ele>519</ele>
        <time>2017-04-13T16:16:33.1Z</time>
      </trkpt>
      <trkpt lat="45.77711" lon="4.31427">
        <ele>519</ele>
        <time>2017-04-13T16:16:35.1Z</time>
      </trkpt>
      <trkpt lat="45.7771" lon="4.31431">
        <ele>519</ele>
        <time>2017-04-13T16:16:37.1Z</time>
      </trkpt>
      <trkpt lat="45.77708" lon="4.31436">
        <ele>518</ele>
        <time>2017-04-13T16:16:40.1Z</time>
      </trkpt>
      <trkpt lat="45.77708" lon="4.3144">
        <ele>518</ele>
        <time>2017-04-13T16:16:42.1Z</time>
      </trkpt>
      <trkpt lat="45.77707" lon="4.31444">
        <ele>518</ele>
        <time>2017-04-13T16:16:44.1Z</time>
      </trkpt>
      <trkpt lat="45.77706" lon="4.31448">
        <ele>517</ele>
        <time>2017-04-13T16:16:46.1Z</time>
      </trkpt>
      <trkpt lat="45.77705" lon="4.31451">
        <ele>517</ele>
        <time>2017-04-13T16:16:48.1Z</time>
      </trkpt>
      <trkpt lat="45.77704" lon="4.31454">
        <ele>517</ele>
        <time>2017-04-13T16:16:50.1Z</time>
      </trkpt>
      <trkpt lat="45.77703" lon="4.31459">
        <ele>517</ele>
        <time>2017-04-13T16:16:53.1Z</time>
      </trkpt>
      <trkpt lat="45.77702" lon="4.31464">
        <ele>517</ele>
        <time>2017-04-13T16:16:56.1Z</time>
      </trkpt>
      <trkpt lat="45.77702" lon="4.31468">
        <ele>517</ele>
        <time>2017-04-13T16:16:58.1Z</time>
      </trkpt>
      <trkpt lat="45.77701" lon="4.31472">
        <ele>516</ele>
        <time>2017-04-13T16:17:00.1Z</time>
      </trkpt>
      <trkpt lat="45.77701" lon="4.31475">
        <ele>516</ele>
        <time>2017-04-13T16:17:02.1Z</time>
      </trkpt>
      <trkpt lat="45.77701" lon="4.3148">
        <ele>516</ele>
        <time>2017-04-13T16:17:04.1Z</time>
      </trkpt>
      <trkpt lat="45.777" lon="4.31486">
        <ele>516</ele>
        <time>2017-04-13T16:17:07.1Z</time>
      </trkpt>
      <trkpt lat="45.777" lon="4.31491">
        <ele>515</ele>
        <time>2017-04-13T16:17:09.1Z</time>
      </trkpt>
      <trkpt lat="45.777" lon="4.31495">
        <ele>515</ele>
        <time>2017-04-13T16:17:11.1Z</time>
      </trkpt>
      <trkpt lat="45.777" lon="4.315">
        <ele>515</ele>
        <time>2017-04-13T16:17:13.1Z</time>
      </trkpt>
      <trkpt lat="45.777" lon="4.31504">
        <ele>515</ele>
        <time>2017-04-13T16:17:15.1Z</time>
      </trkpt>
      <trkpt lat="45.777" lon="4.31509">
        <ele>515</ele>
        <time>2017-04-13T16:17:17.1Z</time>
      </trkpt>
      <trkpt lat="45.777" lon="4.31514">
        <ele>515</ele>
        <time>2017-04-13T16:17:19.1Z</time>
      </trkpt>
      <trkpt lat="45.777" lon="4.31521">
        <ele>515</ele>
        <time>2017-04-13T16:17:22.1Z</time>
      </trkpt>
      <trkpt lat="45.777" lon="4.31526">
        <ele>515</ele>
        <time>2017-04-13T16:17:24.1Z</time>
      </trkpt>
      <trkpt lat="45.777" lon="4.3153">
        <ele>514</ele>
        <time>2017-04-13T16:17:26.1Z</time>
      </trkpt>
      <trkpt lat="45.77701" lon="4.31535">
        <ele>514</ele>
        <time>2017-04-13T16:17:28.1Z</time>
      </trkpt>
      <trkpt lat="45.77701" lon="4.31539">
        <ele>514</ele>
        <time>2017-04-13T16:17:30.1Z</time>
      </trkpt>
      <trkpt lat="45.77701" lon="4.31543">
        <ele>514</ele>
        <time>2017-04-13T16:17:32.1Z</time>
      </trkpt>
      <trkpt lat="45.77701" lon="4.31548">
        <ele>514</ele>
        <time>2017-04-13T16:17:34.1Z</time>
      </trkpt>
      <trkpt lat="45.77702" lon="4.31555">
        <ele>514</ele>
        <time>2017-04-13T16:17:37.1Z</time>
      </trkpt>
      <trkpt lat="45.77702" lon="4.3156">
        <ele>514</ele>
        <time>2017-04-13T16:17:39.1Z</time>
      </trkpt>
      <trkpt lat="45.77702" lon="4.31564">
        <ele>513</ele>
        <time>2017-04-13T16:17:41.1Z</time>
      </trkpt>
      <trkpt lat="45.77703" lon="4.31568">
        <ele>513</ele>
        <time>2017-04-13T16:17:43.1Z</time>
      </trkpt>
      <trkpt lat="45.77703" lon="4.31572">
        <ele>513</ele>
        <time>2017-04-13T16:17:45.1Z</time>
      </trkpt>
      <trkpt lat="45.77704" lon="4.31576">
        <ele>513</ele>
        <time>2017-04-13T16:17:47.1Z</time>
      </trkpt>
      <trkpt lat="45.77705" lon="4.31582">
        <ele>513</ele>
        <time>2017-04-13T16:17:50.1Z</time>
      </trkpt>
      <trkpt lat="45.77706" lon="4.31587">
        <ele>513</ele>
        <time>2017-04-13T16:17:52.1Z</time>
      </trkpt>
      <trkpt lat="45.77706" lon="4.3159">
        <ele>512</ele>
        <time>2017-04-13T16:17:54.1Z</time>
      </trkpt>
      <trkpt lat="45.77707" lon="4.31595">
        <ele>512</ele>
        <time>2017-04-13T16:17:56.1Z</time>
      </trkpt>
      <trkpt lat="45.77708" lon="4.31598">
        <ele>512</ele>
        <time>2017-04-13T16:17:58.1Z</time>
      </trkpt>
      <trkpt lat="45.77709" lon="4.31601">
        <ele>513</ele>
        <time>2017-04-13T16:18:00.1Z</time>
      </trkpt>
      <trkpt lat="45.7771" lon="4.31607">
        <ele>513</ele>
        <time>2017-04-13T16:18:03.1Z</time>
      </trkpt>
      <trkpt lat="45.77712" lon="4.31611">
        <ele>513</ele>
        <time>2017-04-13T16:18:05.1Z</time>
      </trkpt>
      <trkpt lat="45.77713" lon="4.31615">
        <ele>513</ele>
        <time>2017-04-13T16:18:07.1Z</time>
      </trkpt>
      <trkpt lat="45.77715" lon="4.31619">
        <ele>513</ele>
        <time>2017-04-13T16:18:09.1Z</time>
      </trkpt>
      <trkpt lat="45.77716" lon="4.31623">
        <ele>513</ele>
        <time>2017-04-13T16:18:11.1Z</time>
      </trkpt>
      <trkpt lat="45.77718" lon="4.31627">
        <ele>512</ele>
        <time>2017-04-13T16:18:13.1Z</time>
      </trkpt>
      <trkpt lat="45.7772" lon="4.31632">
        <ele>512</ele>
        <time>2017-04-13T16:18:16.1Z</time>
      </trkpt>
      <trkpt lat="45.77722" lon="4.31635">
        <ele>512</ele>
        <time>2017-04-13T16:18:18.1Z</time>
      </trkpt>
      <trkpt lat="45.77723" lon="4.31639">
        <ele>512</ele>
        <time>2017-04-13T16:18:20.1Z</time>
      </trkpt>
      <trkpt lat="45.77724" lon="4.31642">
        <ele>512</ele>
        <time>2017-04-13T16:18:22.1Z</time>
      </trkpt>
      <trkpt lat="45.77726" lon="4.31645">
        <ele>512</ele>
        <time>2017-04-13T16:18:24.1Z</time>
      </trkpt>
      <trkpt lat="45.77728" lon="4.31649">
        <ele>513</ele>
        <time>2017-04-13T16:18:26.1Z</time>
      </trkpt>
      <trkpt lat="45.77731" lon="4.31655">
        <ele>513</ele>
        <time>2017-04-13T16:18:29.1Z</time>
      </trkpt>
      <trkpt lat="45.77733" lon="4.31658">
        <ele>513</ele>
        <time>2017-04-13T16:18:32.1Z</time>
      </trkpt>
      <trkpt lat="45.77735" lon="4.31661">
        <ele>513</ele>
        <time>2017-04-13T16:18:34.1Z</time>
      </trkpt>
      <trkpt lat="45.77736" lon="4.31663">
        <ele>513</ele>
        <time>2017-04-13T16:18:36.1Z</time>
      </trkpt>
      <trkpt lat="45.77738" lon="4.31666">
        <ele>513</ele>
        <time>2017-04-13T16:18:38.1Z</time>
      </trkpt>
      <trkpt lat="45.7774" lon="4.31669">
        <ele>513</ele>
        <time>2017-04-13T16:18:40.1Z</time>
      </trkpt>
      <trkpt lat="45.77742" lon="4.31673">
        <ele>513</ele>
        <time>2017-04-13T16:18:43.1Z</time>
      </trkpt>
      <trkpt lat="45.77745" lon="4.31677">
        <ele>513</ele>
        <time>2017-04-13T16:18:46.1Z</time>
      </trkpt>
      <trkpt lat="45.77747" lon="4.3168">
        <ele>513</ele>
        <time>2017-04-13T16:18:48.1Z</time>
      </trkpt>
      <trkpt lat="45.77749" lon="4.31682">
        <ele>514</ele>
        <time>2017-04-13T16:18:50.1Z</time>
      </trkpt>
      <trkpt lat="45.77752" lon="4.31686">
        <ele>514</ele>
        <time>2017-04-13T16:18:53.1Z</time>
      </trkpt>
      <trkpt lat="45.77754" lon="4.31689">
        <ele>514</ele>
        <time>2017-04-13T16:18:55.1Z</time>
      </trkpt>
      <trkpt lat="45.77757" lon="4.31694">
        <ele>514</ele>
        <time>2017-04-13T16:18:58.1Z</time>
      </trkpt>
      <trkpt lat="45.77758" lon="4.31697">
        <ele>514</ele>
        <time>2017-04-13T16:19:00.1Z</time>
      </trkpt>
      <trkpt lat="45.77761" lon="4.31701">
        <ele>515</ele>
        <time>2017-04-13T16:19:03.1Z</time>
      </trkpt>
      <trkpt lat="45.77764" lon="4.31706">
        <ele>515</ele>
        <time>2017-04-13T16:19:06.1Z</time>
      </trkpt>
      <trkpt lat="45.77766" lon="4.31709">
        <ele>515</ele>
        <time>2017-04-13T16:19:08.1Z</time>
      </trkpt>
      <trkpt lat="45.77768" lon="4.31713">
        <ele>515</ele>
        <time>2017-04-13T16:19:11.1Z</time>
      </trkpt>
      <trkpt lat="45.7777" lon="4.31717">
        <ele>516</ele>
        <time>2017-04-13T16:19:13.1Z</time>
      </trkpt>
      <trkpt lat="45.77774" lon="4.31722">
        <ele>516</ele>
        <time>2017-04-13T16:19:16.1Z</time>
      </trkpt>
      <trkpt lat="45.77776" lon="4.31725">
        <ele>517</ele>
        <time>2017-04-13T16:19:18.1Z</time>
      </trkpt>
      <trkpt lat="45.77777" lon="4.31728">
        <ele>517</ele>
        <time>2017-04-13T16:19:20.1Z</time>
      </trkpt>
      <trkpt lat="45.7778" lon="4.31732">
        <ele>517</ele>
        <time>2017-04-13T16:19:23.1Z</time>
      </trkpt>
      <trkpt lat="45.77783" lon="4.31737">
        <ele>517</ele>
        <time>2017-04-13T16:19:26.1Z</time>
      </trkpt>
      <trkpt lat="45.77786" lon="4.31741">
        <ele>518</ele>
        <time>2017-04-13T16:19:29.1Z</time>
      </trkpt>
      <trkpt lat="45.77787" lon="4.31744">
        <ele>518</ele>
        <time>2017-04-13T16:19:31.1Z</time>
      </trkpt>
      <trkpt lat="45.7779" lon="4.31748">
        <ele>518</ele>
        <time>2017-04-13T16:19:34.1Z</time>
      </trkpt>
      <trkpt lat="45.77792" lon="4.3175">
        <ele>518</ele>
        <time>2017-04-13T16:19:36.1Z</time>
      </trkpt>
      <trkpt lat="45.77794" lon="4.31753">
        <ele>519</ele>
        <time>2017-04-13T16:19:38.1Z</time>
      </trkpt>
      <trkpt lat="45.77797" lon="4.31758">
        <ele>519</ele>
        <time>2017-04-13T16:19:41.1Z</time>
      </trkpt>
      <trkpt lat="45.778" lon="4.31761">
        <ele>519</ele>
        <time>2017-04-13T16:19:43.1Z</time>
      </trkpt>
      <trkpt lat="45.77803" lon="4.31766">
        <ele>519</ele>
        <time>2017-04-13T16:19:46.1Z</time>
      </trkpt>
      <trkpt lat="45.77805" lon="4.31768">
        <ele>519</ele>
        <time>2017-04-13T16:19:48.1Z</time>
      </trkpt>
      <trkpt lat="45.77806" lon="4.31772">
        <ele>519</ele>
        <time>2017-04-13T16:19:50.1Z</time>
      </trkpt>
      <trkpt lat="45.7781" lon="4.31776">
        <ele>519</ele>
        <time>2017-04-13T16:19:53.1Z</time>
      </trkpt>
      <trkpt lat="45.77811" lon="4.31779">
        <ele>519</ele>
        <time>2017-04-13T16:19:55.1Z</time>
      </trkpt>
      <trkpt lat="45.77814" lon="4.31784">
        <ele>519</ele>
        <time>2017-04-13T16:19:58.1Z</time>
      </trkpt>
      <trkpt lat="45.77816" lon="4.31787">
        <ele>520</ele>
        <time>2017-04-13T16:20:00.1Z</time>
      </trkpt>
      <trkpt lat="45.77818" lon="4.31791">
        <ele>520</ele>
        <time>2017-04-13T16:20:02.1Z</time>
      </trkpt>
      <trkpt lat="45.77819" lon="4.31794">
        <ele>520</ele>
        <time>2017-04-13T16:20:04.1Z</time>
      </trkpt>
      <trkpt lat="45.77822" lon="4.31799">
        <ele>521</ele>
        <time>2017-04-13T16:20:07.1Z</time>
      </trkpt>
      <trkpt lat="45.77824" lon="4.31804">
        <ele>521</ele>
        <time>2017-04-13T16:20:10.1Z</time>
      </trkpt>
      <trkpt lat="45.77827" lon="4.3181">
        <ele>521</ele>
        <time>2017-04-13T16:20:13.1Z</time>
      </trkpt>
      <trkpt lat="45.77828" lon="4.31813">
        <ele>521</ele>
        <time>2017-04-13T16:20:15.1Z</time>
      </trkpt>
      <trkpt lat="45.7783" lon="4.31816">
        <ele>521</ele>
        <time>2017-04-13T16:20:17.1Z</time>
      </trkpt>
      <trkpt lat="45.77832" lon="4.31821">
        <ele>521</ele>
        <time>2017-04-13T16:20:20.1Z</time>
      </trkpt>
      <trkpt lat="45.77834" lon="4.31824">
        <ele>521</ele>
        <time>2017-04-13T16:20:22.1Z</time>
      </trkpt>
      <trkpt lat="45.77836" lon="4.31828">
        <ele>521</ele>
        <time>2017-04-13T16:20:25.1Z</time>
      </trkpt>
      <trkpt lat="45.77837" lon="4.31831">
        <ele>521</ele>
        <time>2017-04-13T16:20:27.1Z</time>
      </trkpt>
      <trkpt lat="45.77838" lon="4.31835">
        <ele>521</ele>
        <time>2017-04-13T16:20:29.1Z</time>
      </trkpt>
      <trkpt lat="45.7784" lon="4.31838">
        <ele>521</ele>
        <time>2017-04-13T16:20:31.1Z</time>
      </trkpt>
      <trkpt lat="45.77842" lon="4.31843">
        <ele>521</ele>
        <time>2017-04-13T16:20:34.1Z</time>
      </trkpt>
      <trkpt lat="45.77843" lon="4.31847">
        <ele>521</ele>
        <time>2017-04-13T16:20:36.1Z</time>
      </trkpt>
      <trkpt lat="45.77844" lon="4.3185">
        <ele>521</ele>
        <time>2017-04-13T16:20:38.1Z</time>
      </trkpt>
      <trkpt lat="45.77846" lon="4.31853">
        <ele>521</ele>
        <time>2017-04-13T16:20:40.1Z</time>
      </trkpt>
      <trkpt lat="45.77847" lon="4.31858">
        <ele>521</ele>
        <time>2017-04-13T16:20:42.1Z</time>
      </trkpt>
      <trkpt lat="45.77848" lon="4.31861">
        <ele>521</ele>
        <time>2017-04-13T16:20:44.1Z</time>
      </trkpt>
      <trkpt lat="45.7785" lon="4.31865">
        <ele>521</ele>
        <time>2017-04-13T16:20:47.1Z</time>
      </trkpt>
      <trkpt lat="45.77852" lon="4.31869">
        <ele>521</ele>
        <time>2017-04-13T16:20:50.1Z</time>
      </trkpt>
      <trkpt lat="45.77853" lon="4.31872">
        <ele>521</ele>
        <time>2017-04-13T16:20:52.1Z</time>
      </trkpt>
      <trkpt lat="45.77854" lon="4.31876">
        <ele>521</ele>
        <time>2017-04-13T16:20:54.1Z</time>
      </trkpt>
      <trkpt lat="45.77855" lon="4.31879">
        <ele>521</ele>
        <time>2017-04-13T16:20:56.1Z</time>
      </trkpt>
      <trkpt lat="45.77853" lon="4.31882">
        <ele>521</ele>
        <time>2017-04-13T16:20:58.1Z</time>
      </trkpt>
      <trkpt lat="45.77853" lon="4.31882">
        <ele>521</ele>
        <time>2017-04-13T16:21:00.1Z</time>
      </trkpt>
      <trkpt lat="45.77853" lon="4.31883">
        <ele>521</ele>
        <time>2017-04-13T16:21:03.1Z</time>
      </trkpt>
      <trkpt lat="45.77854" lon="4.31883">
        <ele>521</ele>
        <time>2017-04-13T16:21:05.1Z</time>
      </trkpt>
      <trkpt lat="45.77854" lon="4.31884">
        <ele>521</ele>
        <time>2017-04-13T16:21:08.1Z</time>
      </trkpt>
      <trkpt lat="45.77854" lon="4.31884">
        <ele>521</ele>
        <time>2017-04-13T16:21:10.1Z</time>
      </trkpt>
      <trkpt lat="45.77854" lon="4.31884">
        <ele>521</ele>
        <time>2017-04-13T16:21:12.1Z</time>
      </trkpt>
      <trkpt lat="45.77854" lon="4.31884">
        <ele>521</ele>
        <time>2017-04-13T16:21:14.1Z</time>
      </trkpt>
      <trkpt lat="45.77854" lon="4.31884">
        <ele>521</ele>
        <time>2017-04-13T16:21:17.1Z</time>
      </trkpt>
      <trkpt lat="45.77855" lon="4.31884">
        <ele>522</ele>
        <time>2017-04-13T16:21:20.1Z</time>
      </trkpt>
      <trkpt lat="45.77855" lon="4.31885">
        <ele>522</ele>
        <time>2017-04-13T16:21:23.1Z</time>
      </trkpt>
      <trkpt lat="45.77854" lon="4.31885">
        <ele>522</ele>
        <time>2017-04-13T16:21:25.1Z</time>
      </trkpt>
      <trkpt lat="45.77851" lon="4.31884">
        <ele>521</ele>
        <time>2017-04-13T16:21:28.1Z</time>
      </trkpt>
      <trkpt lat="45.77849" lon="4.31883">
        <ele>521</ele>
        <time>2017-04-13T16:21:30.1Z</time>
      </trkpt>
      <trkpt lat="45.77846" lon="4.31882">
        <ele>521</ele>
        <time>2017-04-13T16:21:32.1Z</time>
      </trkpt>
      <trkpt lat="45.77844" lon="4.31881">
        <ele>521</ele>
        <time>2017-04-13T16:21:34.1Z</time>
      </trkpt>
      <trkpt lat="45.77843" lon="4.31879">
        <ele>521</ele>
        <time>2017-04-13T16:21:36.1Z</time>
      </trkpt>
      <trkpt lat="45.77841" lon="4.31878">
        <ele>521</ele>
        <time>2017-04-13T16:21:38.1Z</time>
      </trkpt>
      <trkpt lat="45.77837" lon="4.31876">
        <ele>521</ele>
        <time>2017-04-13T16:21:41.1Z</time>
      </trkpt>
      <trkpt lat="45.77836" lon="4.31874">
        <ele>521</ele>
        <time>2017-04-13T16:21:43.1Z</time>
      </trkpt>
      <trkpt lat="45.77832" lon="4.31872">
        <ele>521</ele>
        <time>2017-04-13T16:21:46.1Z</time>
      </trkpt>
      <trkpt lat="45.7783" lon="4.31871">
        <ele>521</ele>
        <time>2017-04-13T16:21:48.1Z</time>
      </trkpt>
      <trkpt lat="45.77828" lon="4.3187">
        <ele>521</ele>
        <time>2017-04-13T16:21:50.1Z</time>
      </trkpt>
      <trkpt lat="45.77825" lon="4.31868">
        <ele>521</ele>
        <time>2017-04-13T16:21:52.1Z</time>
      </trkpt>
      <trkpt lat="45.77822" lon="4.31867">
        <ele>521</ele>
        <time>2017-04-13T16:21:54.1Z</time>
      </trkpt>
      <trkpt lat="45.77819" lon="4.31865">
        <ele>521</ele>
        <time>2017-04-13T16:21:57.1Z</time>
      </trkpt>
      <trkpt lat="45.77816" lon="4.31863">
        <ele>521</ele>
        <time>2017-04-13T16:21:59.1Z</time>
      </trkpt>
      <trkpt lat="45.77813" lon="4.31862">
        <ele>521</ele>
        <time>2017-04-13T16:22:01.1Z</time>
      </trkpt>
      <trkpt lat="45.7781" lon="4.3186">
        <ele>521</ele>
        <time>2017-04-13T16:22:03.1Z</time>
      </trkpt>
      <trkpt lat="45.77806" lon="4.31857">
        <ele>521</ele>
        <time>2017-04-13T16:22:06.1Z</time>
      </trkpt>
      <trkpt lat="45.77802" lon="4.31855">
        <ele>521</ele>
        <time>2017-04-13T16:22:08.1Z</time>
      </trkpt>
      <trkpt lat="45.77799" lon="4.31854">
        <ele>521</ele>
        <time>2017-04-13T16:22:10.1Z</time>
      </trkpt>
      <trkpt lat="45.77795" lon="4.31851">
        <ele>521</ele>
        <time>2017-04-13T16:22:13.1Z</time>
      </trkpt>
      <trkpt lat="45.77792" lon="4.31849">
        <ele>521</ele>
        <time>2017-04-13T16:22:15.1Z</time>
      </trkpt>
      <trkpt lat="45.7779" lon="4.31848">
        <ele>521</ele>
        <time>2017-04-13T16:22:17.1Z</time>
      </trkpt>
      <trkpt lat="45.77787" lon="4.31846">
        <ele>521</ele>
        <time>2017-04-13T16:22:19.1Z</time>
      </trkpt>
      <trkpt lat="45.77784" lon="4.31845">
        <ele>521</ele>
        <time>2017-04-13T16:22:21.1Z</time>
      </trkpt>
      <trkpt lat="45.77782" lon="4.31843">
        <ele>521</ele>
        <time>2017-04-13T16:22:23.1Z</time>
      </trkpt>
      <trkpt lat="45.77779" lon="4.31842">
        <ele>521</ele>
        <time>2017-04-13T16:22:25.1Z</time>
      </trkpt>
      <trkpt lat="45.77775" lon="4.31839">
        <ele>521</ele>
        <time>2017-04-13T16:22:28.1Z</time>
      </trkpt>
      <trkpt lat="45.77772" lon="4.31838">
        <ele>521</ele>
        <time>2017-04-13T16:22:30.1Z</time>
      </trkpt>
      <trkpt lat="45.77769" lon="4.31836">
        <ele>521</ele>
        <time>2017-04-13T16:22:32.1Z</time>
      </trkpt>
      <trkpt lat="45.77765" lon="4.31834">
        <ele>521</ele>
        <time>2017-04-13T16:22:35.1Z</time>
      </trkpt>
      <trkpt lat="45.77762" lon="4.31832">
        <ele>521</ele>
        <time>2017-04-13T16:22:37.1Z</time>
      </trkpt>
      <trkpt lat="45.77759" lon="4.31831">
        <ele>520</ele>
        <time>2017-04-13T16:22:39.1Z</time>
      </trkpt>
      <trkpt lat="45.77756" lon="4.31828">
        <ele>521</ele>
        <time>2017-04-13T16:22:42.1Z</time>
      </trkpt>
      <trkpt lat="45.77753" lon="4.31826">
        <ele>521</ele>
        <time>2017-04-13T16:22:44.1Z</time>
      </trkpt>
      <trkpt lat="45.77751" lon="4.31824">
        <ele>521</ele>
        <time>2017-04-13T16:22:46.1Z</time>
      </trkpt>
      <trkpt lat="45.77748" lon="4.31822">
        <ele>521</ele>
        <time>2017-04-13T16:22:48.1Z</time>
      </trkpt>
      <trkpt lat="45.77746" lon="4.31821">
        <ele>520</ele>
        <time>2017-04-13T16:22:50.1Z</time>
      </trkpt>
      <trkpt lat="45.77744" lon="4.31819">
        <ele>520</ele>
        <time>2017-04-13T16:22:52.1Z</time>
      </trkpt>
      <trkpt lat="45.7774" lon="4.31817">
        <ele>520</ele>
        <time>2017-04-13T16:22:55.1Z</time>
      </trkpt>
      <trkpt lat="45.77737" lon="4.31815">
        <ele>520</ele>
        <time>2017-04-13T16:22:57.1Z</time>
      </trkpt>
      <trkpt lat="45.77734" lon="4.31813">
        <ele>520</ele>
        <time>2017-04-13T16:23:00.1Z</time>
      </trkpt>
      <trkpt lat="45.77731" lon="4.31811">
        <ele>520</ele>
        <time>2017-04-13T16:23:02.1Z</time>
      </trkpt>
      <trkpt lat="45.77727" lon="4.31809">
        <ele>520</ele>
        <time>2017-04-13T16:23:05.1Z</time>
      </trkpt>
      <trkpt lat="45.77724" lon="4.31808">
        <ele>520</ele>
        <time>2017-04-13T16:23:07.1Z</time>
      </trkpt>
      <trkpt lat="45.77721" lon="4.31805">
        <ele>519</ele>
        <time>2017-04-13T16:23:10.1Z</time>
      </trkpt>
      <trkpt lat="45.77717" lon="4.31803">
        <ele>519</ele>
        <time>2017-04-13T16:23:13.1Z</time>
      </trkpt>
      <trkpt lat="45.77715" lon="4.31802">
        <ele>519</ele>
        <time>2017-04-13T16:23:15.1Z</time>
      </trkpt>
      <trkpt lat="45.77711" lon="4.31801">
        <ele>518</ele>
        <time>2017-04-13T16:23:18.1Z</time>
      </trkpt>
      <trkpt lat="45.77708" lon="4.318">
        <ele>518</ele>
        <time>2017-04-13T16:23:20.1Z</time>
      </trkpt>
      <trkpt lat="45.77704" lon="4.31798">
        <ele>518</ele>
        <time>2017-04-13T16:23:23.1Z</time>
      </trkpt>
      <trkpt lat="45.77701" lon="4.31795">
        <ele>518</ele>
        <time>2017-04-13T16:23:26.1Z</time>
      </trkpt>
      <trkpt lat="45.77699" lon="4.31794">
        <ele>517</ele>
        <time>2017-04-13T16:23:28.1Z</time>
      </trkpt>
      <trkpt lat="45.77697" lon="4.31793">
        <ele>517</ele>
        <time>2017-04-13T16:23:30.1Z</time>
      </trkpt>
      <trkpt lat="45.77695" lon="4.31792">
        <ele>517</ele>
        <time>2017-04-13T16:23:32.1Z</time>
      </trkpt>
      <trkpt lat="45.77691" lon="4.3179">
        <ele>517</ele>
        <time>2017-04-13T16:23:35.1Z</time>
      </trkpt>
      <trkpt lat="45.77688" lon="4.31788">
        <ele>516</ele>
        <time>2017-04-13T16:23:37.1Z</time>
      </trkpt>
      <trkpt lat="45.77686" lon="4.31787">
        <ele>516</ele>
        <time>2017-04-13T16:23:39.1Z</time>
      </trkpt>
      <trkpt lat="45.77683" lon="4.31785">
        <ele>516</ele>
        <time>2017-04-13T16:23:41.1Z</time>
      </trkpt>
      <trkpt lat="45.7768" lon="4.31781">
        <ele>516</ele>
        <time>2017-04-13T16:23:44.1Z</time>
      </trkpt>
      <trkpt lat="45.77677" lon="4.3178">
        <ele>516</ele>
        <time>2017-04-13T16:23:46.1Z</time>
      </trkpt>
      <trkpt lat="45.77674" lon="4.31778">
        <ele>516</ele>
        <time>2017-04-13T16:23:49.1Z</time>
      </trkpt>
      <trkpt lat="45.77671" lon="4.31776">
        <ele>515</ele>
        <time>2017-04-13T16:23:51.1Z</time>
      </trkpt>
      <trkpt lat="45.77669" lon="4.31775">
        <ele>515</ele>
        <time>2017-04-13T16:23:53.1Z</time>
      </trkpt>
      <trkpt lat="45.77666" lon="4.31773">
        <ele>514</ele>
        <time>2017-04-13T16:23:55.1Z</time>
      </trkpt>
      <trkpt lat="45.77664" lon="4.31771">
        <ele>514</ele>
        <time>2017-04-13T16:23:57.1Z</time>
      </trkpt>
      <trkpt lat="45.77662" lon="4.31769">
        <ele>514</ele>
        <time>2017-04-13T16:23:59.1Z</time>
      </trkpt>
      <trkpt lat="45.77659" lon="4.31768">
        <ele>514</ele>
        <time>2017-04-13T16:24:02.1Z</time>
      </trkpt>
      <trkpt lat="45.77656" lon="4.31766">
        <ele>514</ele>
        <time>2017-04-13T16:24:05.1Z</time>
      </trkpt>
      <trkpt lat="45.77653" lon="4.31764">
        <ele>513</ele>
        <time>2017-04-13T16:24:08.1Z</time>
      </trkpt>
      <trkpt lat="45.7765" lon="4.31762">
        <ele>512</ele>
        <time>2017-04-13T16:24:10.1Z</time>
      </trkpt>
      <trkpt lat="45.77647" lon="4.31762">
        <ele>512</ele>
        <time>2017-04-13T16:24:12.1Z</time>
      </trkpt>
      <trkpt lat="45.77645" lon="4.3176">
        <ele>512</ele>
        <time>2017-04-13T16:24:14.1Z</time>
      </trkpt>
      <trkpt lat="45.77642" lon="4.31758">
        <ele>511</ele>
        <time>2017-04-13T16:24:17.1Z</time>
      </trkpt>
      <trkpt lat="45.77639" lon="4.31757">
        <ele>511</ele>
        <time>2017-04-13T16:24:19.1Z</time>
      </trkpt>
      <trkpt lat="45.77636" lon="4.31756">
        <ele>510</ele>
        <time>2017-04-13T16:24:21.1Z</time>
      </trkpt>
      <trkpt lat="45.77634" lon="4.31754">
        <ele>510</ele>
        <time>2017-04-13T16:24:23.1Z</time>
      </trkpt>
      <trkpt lat="45.77632" lon="4.31752">
        <ele>510</ele>
        <time>2017-04-13T16:24:25.1Z</time>
      </trkpt>
      <trkpt lat="45.77629" lon="4.31751">
        <ele>509</ele>
        <time>2017-04-13T16:24:27.1Z</time>
      </trkpt>
      <trkpt lat="45.77625" lon="4.31747">
        <ele>509</ele>
        <time>2017-04-13T16:24:30.1Z</time>
      </trkpt>
      <trkpt lat="45.77623" lon="4.31746">
        <ele>509</ele>
        <time>2017-04-13T16:24:32.1Z</time>
      </trkpt>
      <trkpt lat="45.77619" lon="4.31744">
        <ele>509</ele>
        <time>2017-04-13T16:24:34.1Z</time>
      </trkpt>
      <trkpt lat="45.77616" lon="4.31742">
        <ele>509</ele>
        <time>2017-04-13T16:24:36.1Z</time>
      </trkpt>
      <trkpt lat="45.77613" lon="4.3174">
        <ele>508</ele>
        <time>2017-04-13T16:24:38.1Z</time>
      </trkpt>
      <trkpt lat="45.7761" lon="4.31739">
        <ele>508</ele>
        <time>2017-04-13T16:24:40.1Z</time>
      </trkpt>
      <trkpt lat="45.77606" lon="4.31735">
        <ele>507</ele>
        <time>2017-04-13T16:24:43.1Z</time>
      </trkpt>
      <trkpt lat="45.77602" lon="4.31732">
        <ele>507</ele>
        <time>2017-04-13T16:24:46.1Z</time>
      </trkpt>
      <trkpt lat="45.77599" lon="4.3173">
        <ele>507</ele>
        <time>2017-04-13T16:24:48.1Z</time>
      </trkpt>
      <trkpt lat="45.77596" lon="4.31727">
        <ele>507</ele>
        <time>2017-04-13T16:24:50.1Z</time>
      </trkpt>
      <trkpt lat="45.77594" lon="4.31726">
        <ele>506</ele>
        <time>2017-04-13T16:24:52.1Z</time>
      </trkpt>
      <trkpt lat="45.7759" lon="4.31724">
        <ele>506</ele>
        <time>2017-04-13T16:24:54.1Z</time>
      </trkpt>
      <trkpt lat="45.77586" lon="4.3172">
        <ele>506</ele>
        <time>2017-04-13T16:24:57.1Z</time>
      </trkpt>
      <trkpt lat="45.77583" lon="4.31718">
        <ele>505</ele>
        <time>2017-04-13T16:24:59.1Z</time>
      </trkpt>
      <trkpt lat="45.77581" lon="4.31716">
        <ele>505</ele>
        <time>2017-04-13T16:25:01.1Z</time>
      </trkpt>
      <trkpt lat="45.77578" lon="4.31714">
        <ele>505</ele>
        <time>2017-04-13T16:25:03.1Z</time>
      </trkpt>
      <trkpt lat="45.77575" lon="4.31711">
        <ele>504</ele>
        <time>2017-04-13T16:25:05.1Z</time>
      </trkpt>
      <trkpt lat="45.77572" lon="4.31709">
        <ele>504</ele>
        <time>2017-04-13T16:25:07.1Z</time>
      </trkpt>
      <trkpt lat="45.77569" lon="4.31707">
        <ele>503</ele>
        <time>2017-04-13T16:25:09.1Z</time>
      </trkpt>
      <trkpt lat="45.77565" lon="4.31704">
        <ele>503</ele>
        <time>2017-04-13T16:25:12.1Z</time>
      </trkpt>
      <trkpt lat="45.77562" lon="4.31702">
        <ele>503</ele>
        <time>2017-04-13T16:25:14.1Z</time>
      </trkpt>
      <trkpt lat="45.77559" lon="4.317">
        <ele>503</ele>
        <time>2017-04-13T16:25:16.1Z</time>
      </trkpt>
      <trkpt lat="45.77557" lon="4.31698">
        <ele>503</ele>
        <time>2017-04-13T16:25:18.1Z</time>
      </trkpt>
      <trkpt lat="45.77554" lon="4.31696">
        <ele>502</ele>
        <time>2017-04-13T16:25:20.1Z</time>
      </trkpt>
      <trkpt lat="45.77552" lon="4.31694">
        <ele>502</ele>
        <time>2017-04-13T16:25:22.1Z</time>
      </trkpt>
      <trkpt lat="45.77548" lon="4.31692">
        <ele>501</ele>
        <time>2017-04-13T16:25:25.1Z</time>
      </trkpt>
      <trkpt lat="45.77545" lon="4.31689">
        <ele>501</ele>
        <time>2017-04-13T16:25:28.1Z</time>
      </trkpt>
      <trkpt lat="45.77542" lon="4.31688">
        <ele>501</ele>
        <time>2017-04-13T16:25:30.1Z</time>
      </trkpt>
      <trkpt lat="45.7754" lon="4.31685">
        <ele>501</ele>
        <time>2017-04-13T16:25:32.1Z</time>
      </trkpt>
      <trkpt lat="45.77538" lon="4.31684">
        <ele>500</ele>
        <time>2017-04-13T16:25:34.1Z</time>
      </trkpt>
      <trkpt lat="45.77537" lon="4.31683">
        <ele>500</ele>
        <time>2017-04-13T16:25:36.1Z</time>
      </trkpt>
      <trkpt lat="45.77534" lon="4.3168">
        <ele>499</ele>
        <time>2017-04-13T16:25:39.1Z</time>
      </trkpt>
      <trkpt lat="45.77531" lon="4.31679">
        <ele>499</ele>
        <time>2017-04-13T16:25:41.1Z</time>
      </trkpt>
      <trkpt lat="45.77529" lon="4.31678">
        <ele>499</ele>
        <time>2017-04-13T16:25:43.1Z</time>
      </trkpt>
      <trkpt lat="45.77526" lon="4.31676">
        <ele>498</ele>
        <time>2017-04-13T16:25:45.1Z</time>
      </trkpt>
      <trkpt lat="45.77524" lon="4.31675">
        <ele>498</ele>
        <time>2017-04-13T16:25:47.1Z</time>
      </trkpt>
      <trkpt lat="45.77522" lon="4.31673">
        <ele>498</ele>
        <time>2017-04-13T16:25:49.1Z</time>
      </trkpt>
      <trkpt lat="45.77519" lon="4.31671">
        <ele>497</ele>
        <time>2017-04-13T16:25:52.1Z</time>
      </trkpt>
      <trkpt lat="45.77517" lon="4.3167">
        <ele>497</ele>
        <time>2017-04-13T16:25:54.1Z</time>
      </trkpt>
      <trkpt lat="45.77515" lon="4.31667">
        <ele>497</ele>
        <time>2017-04-13T16:25:56.1Z</time>
      </trkpt>
      <trkpt lat="45.77512" lon="4.31665">
        <ele>497</ele>
        <time>2017-04-13T16:25:58.1Z</time>
      </trkpt>
      <trkpt lat="45.77509" lon="4.31663">
        <ele>496</ele>
        <time>2017-04-13T16:26:00.1Z</time>
      </trkpt>
      <trkpt lat="45.77506" lon="4.31662">
        <ele>496</ele>
        <time>2017-04-13T16:26:02.1Z</time>
      </trkpt>
      <trkpt lat="45.77504" lon="4.31661">
        <ele>496</ele>
        <time>2017-04-13T16:26:04.1Z</time>
      </trkpt>
      <trkpt lat="45.77501" lon="4.31659">
        <ele>496</ele>
        <time>2017-04-13T16:26:07.1Z</time>
      </trkpt>
      <trkpt lat="45.77498" lon="4.31658">
        <ele>495</ele>
        <time>2017-04-13T16:26:10.1Z</time>
      </trkpt>
      <trkpt lat="45.77494" lon="4.31657">
        <ele>494</ele>
        <time>2017-04-13T16:26:13.1Z</time>
      </trkpt>
      <trkpt lat="45.77489" lon="4.31656">
        <ele>494</ele>
        <time>2017-04-13T16:26:16.1Z</time>
      </trkpt>
      <trkpt lat="45.77485" lon="4.31656">
        <ele>493</ele>
        <time>2017-04-13T16:26:19.1Z</time>
      </trkpt>
      <trkpt lat="45.77481" lon="4.31656">
        <ele>493</ele>
        <time>2017-04-13T16:26:21.1Z</time>
      </trkpt>
      <trkpt lat="45.77477" lon="4.31657">
        <ele>492</ele>
        <time>2017-04-13T16:26:24.1Z</time>
      </trkpt>
      <trkpt lat="45.77475" lon="4.31658">
        <ele>491</ele>
        <time>2017-04-13T16:26:26.1Z</time>
      </trkpt>
      <trkpt lat="45.7747" lon="4.31661">
        <ele>491</ele>
        <time>2017-04-13T16:26:29.1Z</time>
      </trkpt>
      <trkpt lat="45.77467" lon="4.31664">
        <ele>490</ele>
        <time>2017-04-13T16:26:31.1Z</time>
      </trkpt>
      <trkpt lat="45.77464" lon="4.31667">
        <ele>490</ele>
        <time>2017-04-13T16:26:33.1Z</time>
      </trkpt>
      <trkpt lat="45.77462" lon="4.3167">
        <ele>490</ele>
        <time>2017-04-13T16:26:35.1Z</time>
      </trkpt>
      <trkpt lat="45.77459" lon="4.31673">
        <ele>489</ele>
        <time>2017-04-13T16:26:37.1Z</time>
      </trkpt>
      <trkpt lat="45.77455" lon="4.31678">
        <ele>489</ele>
        <time>2017-04-13T16:26:40.1Z</time>
      </trkpt>
      <trkpt lat="45.77453" lon="4.31681">
        <ele>489</ele>
        <time>2017-04-13T16:26:42.1Z</time>
      </trkpt>
      <trkpt lat="45.77452" lon="4.31684">
        <ele>489</ele>
        <time>2017-04-13T16:26:44.1Z</time>
      </trkpt>
      <trkpt lat="45.7745" lon="4.31687">
        <ele>489</ele>
        <time>2017-04-13T16:26:46.1Z</time>
      </trkpt>
      <trkpt lat="45.77448" lon="4.31692">
        <ele>489</ele>
        <time>2017-04-13T16:26:48.1Z</time>
      </trkpt>
      <trkpt lat="45.77446" lon="4.31696">
        <ele>488</ele>
        <time>2017-04-13T16:26:50.1Z</time>
      </trkpt>
      <trkpt lat="45.77442" lon="4.31698">
        <ele>489</ele>
        <time>2017-04-13T16:26:52.1Z</time>
      </trkpt>
      <trkpt lat="45.77437" lon="4.317">
        <ele>488</ele>
        <time>2017-04-13T16:26:55.1Z</time>
      </trkpt>
      <trkpt lat="45.77432" lon="4.31702">
        <ele>489</ele>
        <time>2017-04-13T16:26:58.1Z</time>
      </trkpt>
      <trkpt lat="45.77429" lon="4.31702">
        <ele>489</ele>
        <time>2017-04-13T16:27:00.1Z</time>
      </trkpt>
      <trkpt lat="45.77424" lon="4.31702">
        <ele>488</ele>
        <time>2017-04-13T16:27:03.1Z</time>
      </trkpt>
      <trkpt lat="45.7742" lon="4.31702">
        <ele>488</ele>
        <time>2017-04-13T16:27:06.1Z</time>
      </trkpt>
      <trkpt lat="45.77417" lon="4.31702">
        <ele>488</ele>
        <time>2017-04-13T16:27:09.1Z</time>
      </trkpt>
      <trkpt lat="45.77413" lon="4.317">
        <ele>488</ele>
        <time>2017-04-13T16:27:12.1Z</time>
      </trkpt>
      <trkpt lat="45.77409" lon="4.31699">
        <ele>488</ele>
        <time>2017-04-13T16:27:15.1Z</time>
      </trkpt>
      <trkpt lat="45.77405" lon="4.31697">
        <ele>489</ele>
        <time>2017-04-13T16:27:18.1Z</time>
      </trkpt>
      <trkpt lat="45.77402" lon="4.31695">
        <ele>489</ele>
        <time>2017-04-13T16:27:20.1Z</time>
      </trkpt>
      <trkpt lat="45.77399" lon="4.31693">
        <ele>489</ele>
        <time>2017-04-13T16:27:22.1Z</time>
      </trkpt>
      <trkpt lat="45.77396" lon="4.3169">
        <ele>489</ele>
        <time>2017-04-13T16:27:24.1Z</time>
      </trkpt>
      <trkpt lat="45.77393" lon="4.31687">
        <ele>489</ele>
        <time>2017-04-13T16:27:26.1Z</time>
      </trkpt>
      <trkpt lat="45.77388" lon="4.31684">
        <ele>489</ele>
        <time>2017-04-13T16:27:29.1Z</time>
      </trkpt>
      <trkpt lat="45.77384" lon="4.31681">
        <ele>490</ele>
        <time>2017-04-13T16:27:31.1Z</time>
      </trkpt>
      <trkpt lat="45.77381" lon="4.31679">
        <ele>490</ele>
        <time>2017-04-13T16:27:33.1Z</time>
      </trkpt>
      <trkpt lat="45.77378" lon="4.31676">
        <ele>490</ele>
        <time>2017-04-13T16:27:35.1Z</time>
      </trkpt>
      <trkpt lat="45.77375" lon="4.31673">
        <ele>490</ele>
        <time>2017-04-13T16:27:37.1Z</time>
      </trkpt>
      <trkpt lat="45.77372" lon="4.31671">
        <ele>490</ele>
        <time>2017-04-13T16:27:39.1Z</time>
      </trkpt>
      <trkpt lat="45.77368" lon="4.31668">
        <ele>491</ele>
        <time>2017-04-13T16:27:42.1Z</time>
      </trkpt>
      <trkpt lat="45.77364" lon="4.31665">
        <ele>491</ele>
        <time>2017-04-13T16:27:45.1Z</time>
      </trkpt>
      <trkpt lat="45.7736" lon="4.31663">
        <ele>491</ele>
        <time>2017-04-13T16:27:47.1Z</time>
      </trkpt>
      <trkpt lat="45.77357" lon="4.3166">
        <ele>491</ele>
        <time>2017-04-13T16:27:49.1Z</time>
      </trkpt>
      <trkpt lat="45.77351" lon="4.31657">
        <ele>491</ele>
        <time>2017-04-13T16:27:52.1Z</time>
      </trkpt>
      <trkpt lat="45.77348" lon="4.31655">
        <ele>491</ele>
        <time>2017-04-13T16:27:54.1Z</time>
      </trkpt>
      <trkpt lat="45.77342" lon="4.31652">
        <ele>491</ele>
        <time>2017-04-13T16:27:57.1Z</time>
      </trkpt>
      <trkpt lat="45.77337" lon="4.3165">
        <ele>491</ele>
        <time>2017-04-13T16:28:00.1Z</time>
      </trkpt>
      <trkpt lat="45.77333" lon="4.31648">
        <ele>491</ele>
        <time>2017-04-13T16:28:02.1Z</time>
      </trkpt>
      <trkpt lat="45.77329" lon="4.31648">
        <ele>491</ele>
        <time>2017-04-13T16:28:04.1Z</time>
      </trkpt>
      <trkpt lat="45.77326" lon="4.31647">
        <ele>491</ele>
        <time>2017-04-13T16:28:06.1Z</time>
      </trkpt>
      <trkpt lat="45.77322" lon="4.31647">
        <ele>491</ele>
        <time>2017-04-13T16:28:08.1Z</time>
      </trkpt>
      <trkpt lat="45.77319" lon="4.31648">
        <ele>491</ele>
        <time>2017-04-13T16:28:10.1Z</time>
      </trkpt>
      <trkpt lat="45.77314" lon="4.31648">
        <ele>491</ele>
        <time>2017-04-13T16:28:13.1Z</time>
      </trkpt>
      <trkpt lat="45.77311" lon="4.31649">
        <ele>491</ele>
        <time>2017-04-13T16:28:15.1Z</time>
      </trkpt>
      <trkpt lat="45.77307" lon="4.3165">
        <ele>491</ele>
        <time>2017-04-13T16:28:17.1Z</time>
      </trkpt>
      <trkpt lat="45.77304" lon="4.3165">
        <ele>491</ele>
        <time>2017-04-13T16:28:19.1Z</time>
      </trkpt>
      <trkpt lat="45.77301" lon="4.31651">
        <ele>491</ele>
        <time>2017-04-13T16:28:21.1Z</time>
      </trkpt>
      <trkpt lat="45.77298" lon="4.31652">
        <ele>491</ele>
        <time>2017-04-13T16:28:23.1Z</time>
      </trkpt>
      <trkpt lat="45.77293" lon="4.31653">
        <ele>491</ele>
        <time>2017-04-13T16:28:26.1Z</time>
      </trkpt>
      <trkpt lat="45.7729" lon="4.31654">
        <ele>491</ele>
        <time>2017-04-13T16:28:28.1Z</time>
      </trkpt>
      <trkpt lat="45.77286" lon="4.31655">
        <ele>492</ele>
        <time>2017-04-13T16:28:30.1Z</time>
      </trkpt>
      <trkpt lat="45.77282" lon="4.31657">
        <ele>492</ele>
        <time>2017-04-13T16:28:33.1Z</time>
      </trkpt>
      <trkpt lat="45.77279" lon="4.31659">
        <ele>492</ele>
        <time>2017-04-13T16:28:35.1Z</time>
      </trkpt>
      <trkpt lat="45.77275" lon="4.31661">
        <ele>492</ele>
        <time>2017-04-13T16:28:38.1Z</time>
      </trkpt>
      <trkpt lat="45.77271" lon="4.31664">
        <ele>492</ele>
        <time>2017-04-13T16:28:41.1Z</time>
      </trkpt>
      <trkpt lat="45.77268" lon="4.31666">
        <ele>492</ele>
        <time>2017-04-13T16:28:43.1Z</time>
      </trkpt>
      <trkpt lat="45.77266" lon="4.31668">
        <ele>492</ele>
        <time>2017-04-13T16:28:45.1Z</time>
      </trkpt>
      <trkpt lat="45.77263" lon="4.31669">
        <ele>492</ele>
        <time>2017-04-13T16:28:47.1Z</time>
      </trkpt>
      <trkpt lat="45.7726" lon="4.3167">
        <ele>493</ele>
        <time>2017-04-13T16:28:49.1Z</time>
      </trkpt>
      <trkpt lat="45.77257" lon="4.3167">
        <ele>493</ele>
        <time>2017-04-13T16:28:51.1Z</time>
      </trkpt>
      <trkpt lat="45.77253" lon="4.31671">
        <ele>493</ele>
        <time>2017-04-13T16:28:53.1Z</time>
      </trkpt>
      <trkpt lat="45.77248" lon="4.31673">
        <ele>494</ele>
        <time>2017-04-13T16:28:56.1Z</time>
      </trkpt>
      <trkpt lat="45.77245" lon="4.31674">
        <ele>494</ele>
        <time>2017-04-13T16:28:58.1Z</time>
      </trkpt>
      <trkpt lat="45.77242" lon="4.31675">
        <ele>493</ele>
        <time>2017-04-13T16:29:00.1Z</time>
      </trkpt>
      <trkpt lat="45.77237" lon="4.31677">
        <ele>494</ele>
        <time>2017-04-13T16:29:03.1Z</time>
      </trkpt>
      <trkpt lat="45.77234" lon="4.31678">
        <ele>494</ele>
        <time>2017-04-13T16:29:05.1Z</time>
      </trkpt>
      <trkpt lat="45.7723" lon="4.31678">
        <ele>494</ele>
        <time>2017-04-13T16:29:07.1Z</time>
      </trkpt>
      <trkpt lat="45.77227" lon="4.31679">
        <ele>494</ele>
        <time>2017-04-13T16:29:09.1Z</time>
      </trkpt>
      <trkpt lat="45.77223" lon="4.3168">
        <ele>495</ele>
        <time>2017-04-13T16:29:11.1Z</time>
      </trkpt>
      <trkpt lat="45.7722" lon="4.3168">
        <ele>495</ele>
        <time>2017-04-13T16:29:13.1Z</time>
      </trkpt>
      <trkpt lat="45.77215" lon="4.31681">
        <ele>495</ele>
        <time>2017-04-13T16:29:16.1Z</time>
      </trkpt>
      <trkpt lat="45.77211" lon="4.31682">
        <ele>495</ele>
        <time>2017-04-13T16:29:18.1Z</time>
      </trkpt>
      <trkpt lat="45.77206" lon="4.31683">
        <ele>496</ele>
        <time>2017-04-13T16:29:21.1Z</time>
      </trkpt>
      <trkpt lat="45.77201" lon="4.31684">
        <ele>496</ele>
        <time>2017-04-13T16:29:24.1Z</time>
      </trkpt>
      <trkpt lat="45.77196" lon="4.31684">
        <ele>496</ele>
        <time>2017-04-13T16:29:27.1Z</time>
      </trkpt>
      <trkpt lat="45.77193" lon="4.31683">
        <ele>496</ele>
        <time>2017-04-13T16:29:29.1Z</time>
      </trkpt>
      <trkpt lat="45.77188" lon="4.31683">
        <ele>497</ele>
        <time>2017-04-13T16:29:32.1Z</time>
      </trkpt>
      <trkpt lat="45.77185" lon="4.31684">
        <ele>497</ele>
        <time>2017-04-13T16:29:34.1Z</time>
      </trkpt>
      <trkpt lat="45.77182" lon="4.31685">
        <ele>497</ele>
        <time>2017-04-13T16:29:36.1Z</time>
      </trkpt>
      <trkpt lat="45.77177" lon="4.31687">
        <ele>497</ele>
        <time>2017-04-13T16:29:39.1Z</time>
      </trkpt>
      <trkpt lat="45.77174" lon="4.31688">
        <ele>497</ele>
        <time>2017-04-13T16:29:41.1Z</time>
      </trkpt>
      <trkpt lat="45.77169" lon="4.3169">
        <ele>497</ele>
        <time>2017-04-13T16:29:44.1Z</time>
      </trkpt>
      <trkpt lat="45.77165" lon="4.31691">
        <ele>497</ele>
        <time>2017-04-13T16:29:46.1Z</time>
      </trkpt>
      <trkpt lat="45.77162" lon="4.31692">
        <ele>497</ele>
        <time>2017-04-13T16:29:48.1Z</time>
      </trkpt>
      <trkpt lat="45.7716" lon="4.31691">
        <ele>497</ele>
        <time>2017-04-13T16:29:50.1Z</time>
      </trkpt>
      <trkpt lat="45.77154" lon="4.31692">
        <ele>497</ele>
        <time>2017-04-13T16:29:53.1Z</time>
      </trkpt>
      <trkpt lat="45.7715" lon="4.31693">
        <ele>498</ele>
        <time>2017-04-13T16:29:55.1Z</time>
      </trkpt>
      <trkpt lat="45.77145" lon="4.31694">
        <ele>498</ele>
        <time>2017-04-13T16:29:58.1Z</time>
      </trkpt>
      <trkpt lat="45.7714" lon="4.31696">
        <ele>498</ele>
        <time>2017-04-13T16:30:01.1Z</time>
      </trkpt>
      <trkpt lat="45.77137" lon="4.31698">
        <ele>499</ele>
        <time>2017-04-13T16:30:03.1Z</time>
      </trkpt>
      <trkpt lat="45.77134" lon="4.31699">
        <ele>499</ele>
        <time>2017-04-13T16:30:05.1Z</time>
      </trkpt>
      <trkpt lat="45.77131" lon="4.317">
        <ele>499</ele>
        <time>2017-04-13T16:30:07.1Z</time>
      </trkpt>
      <trkpt lat="45.77127" lon="4.31702">
        <ele>500</ele>
        <time>2017-04-13T16:30:10.1Z</time>
      </trkpt>
      <trkpt lat="45.77124" lon="4.31703">
        <ele>500</ele>
        <time>2017-04-13T16:30:12.1Z</time>
      </trkpt>
      <trkpt lat="45.77121" lon="4.31704">
        <ele>500</ele>
        <time>2017-04-13T16:30:14.1Z</time>
      </trkpt>
      <trkpt lat="45.77117" lon="4.31706">
        <ele>500</ele>
        <time>2017-04-13T16:30:17.1Z</time>
      </trkpt>
      <trkpt lat="45.77113" lon="4.31707">
        <ele>501</ele>
        <time>2017-04-13T16:30:20.1Z</time>
      </trkpt>
      <trkpt lat="45.77111" lon="4.31708">
        <ele>502</ele>
        <time>2017-04-13T16:30:22.1Z</time>
      </trkpt>
      <trkpt lat="45.77108" lon="4.31709">
        <ele>502</ele>
        <time>2017-04-13T16:30:25.1Z</time>
      </trkpt>
      <trkpt lat="45.77105" lon="4.3171">
        <ele>503</ele>
        <time>2017-04-13T16:30:28.1Z</time>
      </trkpt>
      <trkpt lat="45.77102" lon="4.31711">
        <ele>503</ele>
        <time>2017-04-13T16:30:30.1Z</time>
      </trkpt>
      <trkpt lat="45.771" lon="4.31712">
        <ele>503</ele>
        <time>2017-04-13T16:30:32.1Z</time>
      </trkpt>
      <trkpt lat="45.77097" lon="4.31714">
        <ele>503</ele>
        <time>2017-04-13T16:30:35.1Z</time>
      </trkpt>
      <trkpt lat="45.77094" lon="4.31715">
        <ele>504</ele>
        <time>2017-04-13T16:30:37.1Z</time>
      </trkpt>
      <trkpt lat="45.7709" lon="4.31717">
        <ele>504</ele>
        <time>2017-04-13T16:30:40.1Z</time>
      </trkpt>
      <trkpt lat="45.77087" lon="4.31718">
        <ele>503</ele>
        <time>2017-04-13T16:30:42.1Z</time>
      </trkpt>
      <trkpt lat="45.77084" lon="4.31719">
        <ele>504</ele>
        <time>2017-04-13T16:30:44.1Z</time>
      </trkpt>
      <trkpt lat="45.7708" lon="4.3172">
        <ele>505</ele>
        <time>2017-04-13T16:30:47.1Z</time>
      </trkpt>
      <trkpt lat="45.77077" lon="4.31721">
        <ele>506</ele>
        <time>2017-04-13T16:30:50.1Z</time>
      </trkpt>
      <trkpt lat="45.77074" lon="4.31722">
        <ele>506</ele>
        <time>2017-04-13T16:30:52.1Z</time>
      </trkpt>
      <trkpt lat="45.77072" lon="4.31722">
        <ele>506</ele>
        <time>2017-04-13T16:30:54.1Z</time>
      </trkpt>
      <trkpt lat="45.77069" lon="4.31722">
        <ele>506</ele>
        <time>2017-04-13T16:30:56.1Z</time>
      </trkpt>
      <trkpt lat="45.77065" lon="4.31722">
        <ele>506</ele>
        <time>2017-04-13T16:30:59.1Z</time>
      </trkpt>
      <trkpt lat="45.77062" lon="4.31721">
        <ele>506</ele>
        <time>2017-04-13T16:31:01.1Z</time>
      </trkpt>
      <trkpt lat="45.77058" lon="4.31719">
        <ele>506</ele>
        <time>2017-04-13T16:31:04.1Z</time>
      </trkpt>
      <trkpt lat="45.77055" lon="4.31718">
        <ele>507</ele>
        <time>2017-04-13T16:31:07.1Z</time>
      </trkpt>
      <trkpt lat="45.77052" lon="4.31716">
        <ele>507</ele>
        <time>2017-04-13T16:31:09.1Z</time>
      </trkpt>
      <trkpt lat="45.7705" lon="4.31715">
        <ele>507</ele>
        <time>2017-04-13T16:31:11.1Z</time>
      </trkpt>
      <trkpt lat="45.77047" lon="4.31712">
        <ele>508</ele>
        <time>2017-04-13T16:31:14.1Z</time>
      </trkpt>
      <trkpt lat="45.77045" lon="4.3171">
        <ele>508</ele>
        <time>2017-04-13T16:31:16.1Z</time>
      </trkpt>
      <trkpt lat="45.77042" lon="4.31707">
        <ele>508</ele>
        <time>2017-04-13T16:31:18.1Z</time>
      </trkpt>
      <trkpt lat="45.77041" lon="4.31704">
        <ele>509</ele>
        <time>2017-04-13T16:31:20.1Z</time>
      </trkpt>
      <trkpt lat="45.77039" lon="4.31701">
        <ele>509</ele>
        <time>2017-04-13T16:31:22.1Z</time>
      </trkpt>
      <trkpt lat="45.77036" lon="4.31698">
        <ele>509</ele>
        <time>2017-04-13T16:31:24.1Z</time>
      </trkpt>
      <trkpt lat="45.77032" lon="4.31694">
        <ele>509</ele>
        <time>2017-04-13T16:31:27.1Z</time>
      </trkpt>
      <trkpt lat="45.7703" lon="4.31692">
        <ele>510</ele>
        <time>2017-04-13T16:31:29.1Z</time>
      </trkpt>
      <trkpt lat="45.77027" lon="4.31691">
        <ele>510</ele>
        <time>2017-04-13T16:31:31.1Z</time>
      </trkpt>
      <trkpt lat="45.77024" lon="4.31688">
        <ele>511</ele>
        <time>2017-04-13T16:31:34.1Z</time>
      </trkpt>
      <trkpt lat="45.7702" lon="4.31687">
        <ele>512</ele>
        <time>2017-04-13T16:31:37.1Z</time>
      </trkpt>
      <trkpt lat="45.77017" lon="4.31686">
        <ele>512</ele>
        <time>2017-04-13T16:31:39.1Z</time>
      </trkpt>
      <trkpt lat="45.77013" lon="4.31685">
        <ele>512</ele>
        <time>2017-04-13T16:31:42.1Z</time>
      </trkpt>
      <trkpt lat="45.77009" lon="4.31684">
        <ele>512</ele>
        <time>2017-04-13T16:31:45.1Z</time>
      </trkpt>
      <trkpt lat="45.77007" lon="4.31684">
        <ele>513</ele>
        <time>2017-04-13T16:31:47.1Z</time>
      </trkpt>
      <trkpt lat="45.77002" lon="4.31683">
        <ele>513</ele>
        <time>2017-04-13T16:31:50.1Z</time>
      </trkpt>
      <trkpt lat="45.77" lon="4.31683">
        <ele>513</ele>
        <time>2017-04-13T16:31:52.1Z</time>
      </trkpt>
      <trkpt lat="45.76997" lon="4.31683">
        <ele>512</ele>
        <time>2017-04-13T16:31:54.1Z</time>
      </trkpt>
      <trkpt lat="45.76994" lon="4.31682">
        <ele>513</ele>
        <time>2017-04-13T16:31:56.1Z</time>
      </trkpt>
      <trkpt lat="45.76991" lon="4.31682">
        <ele>513</ele>
        <time>2017-04-13T16:31:58.1Z</time>
      </trkpt>
      <trkpt lat="45.76989" lon="4.31681">
        <ele>513</ele>
        <time>2017-04-13T16:32:00.1Z</time>
      </trkpt>
      <trkpt lat="45.76984" lon="4.31681">
        <ele>513</ele>
        <time>2017-04-13T16:32:03.1Z</time>
      </trkpt>
      <trkpt lat="45.76981" lon="4.31681">
        <ele>513</ele>
        <time>2017-04-13T16:32:05.1Z</time>
      </trkpt>
      <trkpt lat="45.76978" lon="4.3168">
        <ele>513</ele>
        <time>2017-04-13T16:32:07.1Z</time>
      </trkpt>
      <trkpt lat="45.76974" lon="4.3168">
        <ele>513</ele>
        <time>2017-04-13T16:32:10.1Z</time>
      </trkpt>
      <trkpt lat="45.76973" lon="4.31679">
        <ele>513</ele>
        <time>2017-04-13T16:32:13.1Z</time>
      </trkpt>
      <trkpt lat="45.76973" lon="4.31679">
        <ele>513</ele>
        <time>2017-04-13T16:32:16.1Z</time>
      </trkpt>
      <trkpt lat="45.76971" lon="4.31678">
        <ele>513</ele>
        <time>2017-04-13T16:32:18.1Z</time>
      </trkpt>
      <trkpt lat="45.76969" lon="4.31679">
        <ele>513</ele>
        <time>2017-04-13T16:32:20.1Z</time>
      </trkpt>
      <trkpt lat="45.76965" lon="4.31682">
        <ele>513</ele>
        <time>2017-04-13T16:32:22.1Z</time>
      </trkpt>
      <trkpt lat="45.7696" lon="4.3169">
        <ele>513</ele>
        <time>2017-04-13T16:32:25.1Z</time>
      </trkpt>
      <trkpt lat="45.76958" lon="4.317">
        <ele>513</ele>
        <time>2017-04-13T16:32:28.1Z</time>
      </trkpt>
      <trkpt lat="45.76957" lon="4.31704">
        <ele>513</ele>
        <time>2017-04-13T16:32:30.1Z</time>
      </trkpt>
      <trkpt lat="45.76957" lon="4.31708">
        <ele>513</ele>
        <time>2017-04-13T16:32:32.1Z</time>
      </trkpt>
      <trkpt lat="45.76956" lon="4.31713">
        <ele>513</ele>
        <time>2017-04-13T16:32:34.1Z</time>
      </trkpt>
      <trkpt lat="45.76955" lon="4.31717">
        <ele>513</ele>
        <time>2017-04-13T16:32:36.1Z</time>
      </trkpt>
      <trkpt lat="45.76955" lon="4.31723">
        <ele>514</ele>
        <time>2017-04-13T16:32:39.1Z</time>
      </trkpt>
      <trkpt lat="45.76954" lon="4.31726">
        <ele>514</ele>
        <time>2017-04-13T16:32:41.1Z</time>
      </trkpt>
      <trkpt lat="45.76954" lon="4.31729">
        <ele>514</ele>
        <time>2017-04-13T16:32:43.1Z</time>
      </trkpt>
      <trkpt lat="45.76954" lon="4.31733">
        <ele>514</ele>
        <time>2017-04-13T16:32:45.1Z</time>
      </trkpt>
      <trkpt lat="45.76953" lon="4.31739">
        <ele>515</ele>
        <time>2017-04-13T16:32:48.1Z</time>
      </trkpt>
      <trkpt lat="45.76952" lon="4.31744">
        <ele>515</ele>
        <time>2017-04-13T16:32:50.1Z</time>
      </trkpt>
      <trkpt lat="45.76952" lon="4.3175">
        <ele>515</ele>
        <time>2017-04-13T16:32:53.1Z</time>
      </trkpt>
      <trkpt lat="45.76952" lon="4.31757">
        <ele>515</ele>
        <time>2017-04-13T16:32:56.1Z</time>
      </trkpt>
      <trkpt lat="45.76951" lon="4.31764">
        <ele>515</ele>
        <time>2017-04-13T16:32:59.1Z</time>
      </trkpt>
      <trkpt lat="45.76951" lon="4.31769">
        <ele>516</ele>
        <time>2017-04-13T16:33:01.1Z</time>
      </trkpt>
      <trkpt lat="45.7695" lon="4.31775">
        <ele>516</ele>
        <time>2017-04-13T16:33:04.1Z</time>
      </trkpt>
      <trkpt lat="45.7695" lon="4.3178">
        <ele>516</ele>
        <time>2017-04-13T16:33:06.1Z</time>
      </trkpt>
      <trkpt lat="45.76949" lon="4.31787">
        <ele>517</ele>
        <time>2017-04-13T16:33:09.1Z</time>
      </trkpt>
      <trkpt lat="45.76949" lon="4.3179">
        <ele>517</ele>
        <time>2017-04-13T16:33:11.1Z</time>
      </trkpt>
      <trkpt lat="45.76949" lon="4.31795">
        <ele>517</ele>
        <time>2017-04-13T16:33:13.1Z</time>
      </trkpt>
      <trkpt lat="45.76949" lon="4.31801">
        <ele>517</ele>
        <time>2017-04-13T16:33:16.1Z</time>
      </trkpt>
      <trkpt lat="45.76949" lon="4.31805">
        <ele>518</ele>
        <time>2017-04-13T16:33:18.1Z</time>
      </trkpt>
      <trkpt lat="45.76949" lon="4.31811">
        <ele>518</ele>
        <time>2017-04-13T16:33:21.1Z</time>
      </trkpt>
      <trkpt lat="45.76948" lon="4.31815">
        <ele>518</ele>
        <time>2017-04-13T16:33:23.1Z</time>
      </trkpt>
      <trkpt lat="45.76948" lon="4.31819">
        <ele>518</ele>
        <time>2017-04-13T16:33:25.1Z</time>
      </trkpt>
      <trkpt lat="45.76948" lon="4.31825">
        <ele>518</ele>
        <time>2017-04-13T16:33:28.1Z</time>
      </trkpt>
      <trkpt lat="45.76947" lon="4.3183">
        <ele>519</ele>
        <time>2017-04-13T16:33:30.1Z</time>
      </trkpt>
      <trkpt lat="45.76947" lon="4.31834">
        <ele>519</ele>
        <time>2017-04-13T16:33:32.1Z</time>
      </trkpt>
      <trkpt lat="45.76947" lon="4.31838">
        <ele>519</ele>
        <time>2017-04-13T16:33:34.1Z</time>
      </trkpt>
      <trkpt lat="45.76947" lon="4.31843">
        <ele>519</ele>
        <time>2017-04-13T16:33:37.1Z</time>
      </trkpt>
      <trkpt lat="45.76947" lon="4.31847">
        <ele>519</ele>
        <time>2017-04-13T16:33:39.1Z</time>
      </trkpt>
      <trkpt lat="45.76946" lon="4.31854">
        <ele>519</ele>
        <time>2017-04-13T16:33:42.1Z</time>
      </trkpt>
      <trkpt lat="45.76946" lon="4.31859">
        <ele>519</ele>
        <time>2017-04-13T16:33:44.1Z</time>
      </trkpt>
      <trkpt lat="45.76946" lon="4.31864">
        <ele>519</ele>
        <time>2017-04-13T16:33:46.1Z</time>
      </trkpt>
      <trkpt lat="45.76943" lon="4.31871">
        <ele>520</ele>
        <time>2017-04-13T16:33:49.1Z</time>
      </trkpt>
      <trkpt lat="45.76942" lon="4.31875">
        <ele>520</ele>
        <time>2017-04-13T16:33:51.1Z</time>
      </trkpt>
      <trkpt lat="45.76941" lon="4.31881">
        <ele>521</ele>
        <time>2017-04-13T16:33:54.1Z</time>
      </trkpt>
      <trkpt lat="45.7694" lon="4.31885">
        <ele>521</ele>
        <time>2017-04-13T16:33:56.1Z</time>
      </trkpt>
      <trkpt lat="45.76939" lon="4.31892">
        <ele>520</ele>
        <time>2017-04-13T16:33:59.1Z</time>
      </trkpt>
      <trkpt lat="45.76939" lon="4.31895">
        <ele>521</ele>
        <time>2017-04-13T16:34:01.1Z</time>
      </trkpt>
      <trkpt lat="45.76938" lon="4.319">
        <ele>520</ele>
        <time>2017-04-13T16:34:03.1Z</time>
      </trkpt>
      <trkpt lat="45.76938" lon="4.31905">
        <ele>521</ele>
        <time>2017-04-13T16:34:06.1Z</time>
      </trkpt>
      <trkpt lat="45.76938" lon="4.31909">
        <ele>521</ele>
        <time>2017-04-13T16:34:08.1Z</time>
      </trkpt>
      <trkpt lat="45.76938" lon="4.31913">
        <ele>521</ele>
        <time>2017-04-13T16:34:10.1Z</time>
      </trkpt>
      <trkpt lat="45.76937" lon="4.31916">
        <ele>521</ele>
        <time>2017-04-13T16:34:12.1Z</time>
      </trkpt>
      <trkpt lat="45.76937" lon="4.31921">
        <ele>522</ele>
        <time>2017-04-13T16:34:15.1Z</time>
      </trkpt>
      <trkpt lat="45.76937" lon="4.31925">
        <ele>523</ele>
        <time>2017-04-13T16:34:17.1Z</time>
      </trkpt>
      <trkpt lat="45.76936" lon="4.31931">
        <ele>523</ele>
        <time>2017-04-13T16:34:20.1Z</time>
      </trkpt>
      <trkpt lat="45.76936" lon="4.31935">
        <ele>524</ele>
        <time>2017-04-13T16:34:22.1Z</time>
      </trkpt>
      <trkpt lat="45.76936" lon="4.31941">
        <ele>524</ele>
        <time>2017-04-13T16:34:25.1Z</time>
      </trkpt>
      <trkpt lat="45.76936" lon="4.31945">
        <ele>524</ele>
        <time>2017-04-13T16:34:27.1Z</time>
      </trkpt>
      <trkpt lat="45.76936" lon="4.31949">
        <ele>524</ele>
        <time>2017-04-13T16:34:29.1Z</time>
      </trkpt>
      <trkpt lat="45.76935" lon="4.31955">
        <ele>524</ele>
        <time>2017-04-13T16:34:32.1Z</time>
      </trkpt>
      <trkpt lat="45.76934" lon="4.31961">
        <ele>525</ele>
        <time>2017-04-13T16:34:35.1Z</time>
      </trkpt>
      <trkpt lat="45.76934" lon="4.31965">
        <ele>526</ele>
        <time>2017-04-13T16:34:37.1Z</time>
      </trkpt>
      <trkpt lat="45.76934" lon="4.31969">
        <ele>526</ele>
        <time>2017-04-13T16:34:39.1Z</time>
      </trkpt>
      <trkpt lat="45.76934" lon="4.31975">
        <ele>527</ele>
        <time>2017-04-13T16:34:42.1Z</time>
      </trkpt>
      <trkpt lat="45.76934" lon="4.31979">
        <ele>527</ele>
        <time>2017-04-13T16:34:44.1Z</time>
      </trkpt>
      <trkpt lat="45.76934" lon="4.31985">
        <ele>528</ele>
        <time>2017-04-13T16:34:47.1Z</time>
      </trkpt>
      <trkpt lat="45.76934" lon="4.3199">
        <ele>528</ele>
        <time>2017-04-13T16:34:50.1Z</time>
      </trkpt>
      <trkpt lat="45.76934" lon="4.31996">
        <ele>528</ele>
        <time>2017-04-13T16:34:53.1Z</time>
      </trkpt>
      <trkpt lat="45.76934" lon="4.32">
        <ele>529</ele>
        <time>2017-04-13T16:34:55.1Z</time>
      </trkpt>
      <trkpt lat="45.76934" lon="4.32004">
        <ele>528</ele>
        <time>2017-04-13T16:34:57.1Z</time>
      </trkpt>
      <trkpt lat="45.76935" lon="4.32009">
        <ele>529</ele>
        <time>2017-04-13T16:35:00.1Z</time>
      </trkpt>
      <trkpt lat="45.76936" lon="4.32015">
        <ele>529</ele>
        <time>2017-04-13T16:35:03.1Z</time>
      </trkpt>
      <trkpt lat="45.76936" lon="4.32019">
        <ele>530</ele>
        <time>2017-04-13T16:35:05.1Z</time>
      </trkpt>
      <trkpt lat="45.76936" lon="4.32023">
        <ele>530</ele>
        <time>2017-04-13T16:35:07.1Z</time>
      </trkpt>
      <trkpt lat="45.76937" lon="4.32028">
        <ele>530</ele>
        <time>2017-04-13T16:35:10.1Z</time>
      </trkpt>
      <trkpt lat="45.76937" lon="4.32031">
        <ele>531</ele>
        <time>2017-04-13T16:35:12.1Z</time>
      </trkpt>
      <trkpt lat="45.76938" lon="4.32037">
        <ele>531</ele>
        <time>2017-04-13T16:35:15.1Z</time>
      </trkpt>
      <trkpt lat="45.76938" lon="4.32042">
        <ele>531</ele>
        <time>2017-04-13T16:35:17.1Z</time>
      </trkpt>
      <trkpt lat="45.76938" lon="4.32048">
        <ele>531</ele>
        <time>2017-04-13T16:35:20.1Z</time>
      </trkpt>
      <trkpt lat="45.76939" lon="4.32054">
        <ele>532</ele>
        <time>2017-04-13T16:35:23.1Z</time>
      </trkpt>
      <trkpt lat="45.76939" lon="4.32058">
        <ele>532</ele>
        <time>2017-04-13T16:35:25.1Z</time>
      </trkpt>
      <trkpt lat="45.76939" lon="4.32065">
        <ele>532</ele>
        <time>2017-04-13T16:35:28.1Z</time>
      </trkpt>
      <trkpt lat="45.76939" lon="4.32069">
        <ele>532</ele>
        <time>2017-04-13T16:35:30.1Z</time>
      </trkpt>
      <trkpt lat="45.7694" lon="4.32074">
        <ele>532</ele>
        <time>2017-04-13T16:35:33.1Z</time>
      </trkpt>
      <trkpt lat="45.7694" lon="4.32078">
        <ele>533</ele>
        <time>2017-04-13T16:35:35.1Z</time>
      </trkpt>
      <trkpt lat="45.7694" lon="4.32082">
        <ele>533</ele>
        <time>2017-04-13T16:35:37.1Z</time>
      </trkpt>
      <trkpt lat="45.7694" lon="4.32085">
        <ele>533</ele>
        <time>2017-04-13T16:35:39.1Z</time>
      </trkpt>
      <trkpt lat="45.7694" lon="4.3209">
        <ele>534</ele>
        <time>2017-04-13T16:35:42.1Z</time>
      </trkpt>
      <trkpt lat="45.7694" lon="4.32096">
        <ele>534</ele>
        <time>2017-04-13T16:35:45.1Z</time>
      </trkpt>
      <trkpt lat="45.76939" lon="4.32099">
        <ele>534</ele>
        <time>2017-04-13T16:35:47.1Z</time>
      </trkpt>
      <trkpt lat="45.76939" lon="4.32105">
        <ele>535</ele>
        <time>2017-04-13T16:35:50.1Z</time>
      </trkpt>
      <trkpt lat="45.76938" lon="4.32108">
        <ele>535</ele>
        <time>2017-04-13T16:35:52.1Z</time>
      </trkpt>
      <trkpt lat="45.76937" lon="4.32115">
        <ele>535</ele>
        <time>2017-04-13T16:35:55.1Z</time>
      </trkpt>
      <trkpt lat="45.76938" lon="4.32119">
        <ele>535</ele>
        <time>2017-04-13T16:35:57.1Z</time>
      </trkpt>
      <trkpt lat="45.7694" lon="4.32126">
        <ele>536</ele>
        <time>2017-04-13T16:36:00.1Z</time>
      </trkpt>
      <trkpt lat="45.76941" lon="4.3213">
        <ele>536</ele>
        <time>2017-04-13T16:36:02.1Z</time>
      </trkpt>
      <trkpt lat="45.76944" lon="4.32135">
        <ele>536</ele>
        <time>2017-04-13T16:36:05.1Z</time>
      </trkpt>
      <trkpt lat="45.76947" lon="4.3214">
        <ele>536</ele>
        <time>2017-04-13T16:36:08.1Z</time>
      </trkpt>
      <trkpt lat="45.76949" lon="4.32143">
        <ele>537</ele>
        <time>2017-04-13T16:36:10.1Z</time>
      </trkpt>
      <trkpt lat="45.7695" lon="4.32146">
        <ele>537</ele>
        <time>2017-04-13T16:36:12.1Z</time>
      </trkpt>
      <trkpt lat="45.76952" lon="4.32149">
        <ele>537</ele>
        <time>2017-04-13T16:36:14.1Z</time>
      </trkpt>
      <trkpt lat="45.76954" lon="4.32152">
        <ele>537</ele>
        <time>2017-04-13T16:36:16.1Z</time>
      </trkpt>
      <trkpt lat="45.76957" lon="4.32156">
        <ele>538</ele>
        <time>2017-04-13T16:36:19.1Z</time>
      </trkpt>
      <trkpt lat="45.76961" lon="4.3216">
        <ele>538</ele>
        <time>2017-04-13T16:36:22.1Z</time>
      </trkpt>
      <trkpt lat="45.76963" lon="4.32162">
        <ele>538</ele>
        <time>2017-04-13T16:36:24.1Z</time>
      </trkpt>
      <trkpt lat="45.76966" lon="4.32165">
        <ele>538</ele>
        <time>2017-04-13T16:36:27.1Z</time>
      </trkpt>
      <trkpt lat="45.76968" lon="4.32168">
        <ele>538</ele>
        <time>2017-04-13T16:36:29.1Z</time>
      </trkpt>
      <trkpt lat="45.76972" lon="4.32171">
        <ele>538</ele>
        <time>2017-04-13T16:36:32.1Z</time>
      </trkpt>
      <trkpt lat="45.76974" lon="4.32173">
        <ele>539</ele>
        <time>2017-04-13T16:36:34.1Z</time>
      </trkpt>
      <trkpt lat="45.76977" lon="4.32175">
        <ele>539</ele>
        <time>2017-04-13T16:36:36.1Z</time>
      </trkpt>
      <trkpt lat="45.76979" lon="4.32178">
        <ele>539</ele>
        <time>2017-04-13T16:36:38.1Z</time>
      </trkpt>
      <trkpt lat="45.76981" lon="4.3218">
        <ele>539</ele>
        <time>2017-04-13T16:36:40.1Z</time>
      </trkpt>
      <trkpt lat="45.76984" lon="4.32183">
        <ele>539</ele>
        <time>2017-04-13T16:36:42.1Z</time>
      </trkpt>
      <trkpt lat="45.76987" lon="4.32186">
        <ele>539</ele>
        <time>2017-04-13T16:36:45.1Z</time>
      </trkpt>
      <trkpt lat="45.76989" lon="4.32188">
        <ele>540</ele>
        <time>2017-04-13T16:36:47.1Z</time>
      </trkpt>
      <trkpt lat="45.76992" lon="4.3219">
        <ele>540</ele>
        <time>2017-04-13T16:36:49.1Z</time>
      </trkpt>
      <trkpt lat="45.76996" lon="4.32193">
        <ele>540</ele>
        <time>2017-04-13T16:36:52.1Z</time>
      </trkpt>
      <trkpt lat="45.77" lon="4.32195">
        <ele>540</ele>
        <time>2017-04-13T16:36:55.1Z</time>
      </trkpt>
      <trkpt lat="45.77004" lon="4.32199">
        <ele>540</ele>
        <time>2017-04-13T16:36:58.1Z</time>
      </trkpt>
      <trkpt lat="45.77006" lon="4.32201">
        <ele>540</ele>
        <time>2017-04-13T16:37:00.1Z</time>
      </trkpt>
      <trkpt lat="45.77009" lon="4.32204">
        <ele>540</ele>
        <time>2017-04-13T16:37:02.1Z</time>
      </trkpt>
      <trkpt lat="45.77013" lon="4.32207">
        <ele>540</ele>
        <time>2017-04-13T16:37:05.1Z</time>
      </trkpt>
      <trkpt lat="45.77015" lon="4.32209">
        <ele>541</ele>
        <time>2017-04-13T16:37:07.1Z</time>
      </trkpt>
      <trkpt lat="45.77018" lon="4.32211">
        <ele>541</ele>
        <time>2017-04-13T16:37:09.1Z</time>
      </trkpt>
      <trkpt lat="45.77021" lon="4.32215">
        <ele>541</ele>
        <time>2017-04-13T16:37:12.1Z</time>
      </trkpt>
      <trkpt lat="45.77024" lon="4.32217">
        <ele>541</ele>
        <time>2017-04-13T16:37:14.1Z</time>
      </trkpt>
      <trkpt lat="45.77026" lon="4.3222">
        <ele>541</ele>
        <time>2017-04-13T16:37:16.1Z</time>
      </trkpt>
      <trkpt lat="45.77028" lon="4.32222">
        <ele>541</ele>
        <time>2017-04-13T16:37:18.1Z</time>
      </trkpt>
      <trkpt lat="45.77031" lon="4.32225">
        <ele>541</ele>
        <time>2017-04-13T16:37:21.1Z</time>
      </trkpt>
      <trkpt lat="45.77033" lon="4.32228">
        <ele>541</ele>
        <time>2017-04-13T16:37:23.1Z</time>
      </trkpt>
      <trkpt lat="45.77036" lon="4.32231">
        <ele>541</ele>
        <time>2017-04-13T16:37:26.1Z</time>
      </trkpt>
      <trkpt lat="45.77038" lon="4.32233">
        <ele>542</ele>
        <time>2017-04-13T16:37:28.1Z</time>
      </trkpt>
      <trkpt lat="45.7704" lon="4.32235">
        <ele>542</ele>
        <time>2017-04-13T16:37:30.1Z</time>
      </trkpt>
      <trkpt lat="45.77042" lon="4.32238">
        <ele>542</ele>
        <time>2017-04-13T16:37:32.1Z</time>
      </trkpt>
      <trkpt lat="45.77044" lon="4.32241">
        <ele>543</ele>
        <time>2017-04-13T16:37:34.1Z</time>
      </trkpt>
      <trkpt lat="45.77046" lon="4.32244">
        <ele>543</ele>
        <time>2017-04-13T16:37:36.1Z</time>
      </trkpt>
      <trkpt lat="45.77048" lon="4.32248">
        <ele>543</ele>
        <time>2017-04-13T16:37:39.1Z</time>
      </trkpt>
      <trkpt lat="45.7705" lon="4.32252">
        <ele>544</ele>
        <time>2017-04-13T16:37:41.1Z</time>
      </trkpt>
      <trkpt lat="45.77053" lon="4.32255">
        <ele>544</ele>
        <time>2017-04-13T16:37:43.1Z</time>
      </trkpt>
      <trkpt lat="45.77055" lon="4.32258">
        <ele>544</ele>
        <time>2017-04-13T16:37:45.1Z</time>
      </trkpt>
      <trkpt lat="45.77057" lon="4.32261">
        <ele>544</ele>
        <time>2017-04-13T16:37:47.1Z</time>
      </trkpt>
      <trkpt lat="45.77058" lon="4.32264">
        <ele>545</ele>
        <time>2017-04-13T16:37:49.1Z</time>
      </trkpt>
      <trkpt lat="45.7706" lon="4.32267">
        <ele>545</ele>
        <time>2017-04-13T16:37:51.1Z</time>
      </trkpt>
      <trkpt lat="45.77063" lon="4.32272">
        <ele>545</ele>
        <time>2017-04-13T16:37:54.1Z</time>
      </trkpt>
      <trkpt lat="45.77065" lon="4.32275">
        <ele>546</ele>
        <time>2017-04-13T16:37:56.1Z</time>
      </trkpt>
      <trkpt lat="45.77067" lon="4.32278">
        <ele>546</ele>
        <time>2017-04-13T16:37:58.1Z</time>
      </trkpt>
      <trkpt lat="45.77069" lon="4.3228">
        <ele>546</ele>
        <time>2017-04-13T16:38:00.1Z</time>
      </trkpt>
      <trkpt lat="45.7707" lon="4.32283">
        <ele>546</ele>
        <time>2017-04-13T16:38:02.1Z</time>
      </trkpt>
      <trkpt lat="45.77072" lon="4.32285">
        <ele>546</ele>
        <time>2017-04-13T16:38:04.1Z</time>
      </trkpt>
      <trkpt lat="45.77075" lon="4.32289">
        <ele>546</ele>
        <time>2017-04-13T16:38:07.1Z</time>
      </trkpt>
      <trkpt lat="45.77077" lon="4.32291">
        <ele>547</ele>
        <time>2017-04-13T16:38:09.1Z</time>
      </trkpt>
      <trkpt lat="45.77079" lon="4.32294">
        <ele>547</ele>
        <time>2017-04-13T16:38:11.1Z</time>
      </trkpt>
      <trkpt lat="45.77081" lon="4.32298">
        <ele>547</ele>
        <time>2017-04-13T16:38:14.1Z</time>
      </trkpt>
      <trkpt lat="45.77084" lon="4.32303">
        <ele>548</ele>
        <time>2017-04-13T16:38:17.1Z</time>
      </trkpt>
      <trkpt lat="45.77086" lon="4.32306">
        <ele>548</ele>
        <time>2017-04-13T16:38:19.1Z</time>
      </trkpt>
      <trkpt lat="45.77089" lon="4.32311">
        <ele>548</ele>
        <time>2017-04-13T16:38:22.1Z</time>
      </trkpt>
      <trkpt lat="45.77091" lon="4.32315">
        <ele>549</ele>
        <time>2017-04-13T16:38:25.1Z</time>
      </trkpt>
      <trkpt lat="45.77093" lon="4.32317">
        <ele>550</ele>
        <time>2017-04-13T16:38:27.1Z</time>
      </trkpt>
      <trkpt lat="45.77095" lon="4.3232">
        <ele>550</ele>
        <time>2017-04-13T16:38:29.1Z</time>
      </trkpt>
      <trkpt lat="45.77096" lon="4.32323">
        <ele>550</ele>
        <time>2017-04-13T16:38:31.1Z</time>
      </trkpt>
      <trkpt lat="45.77098" lon="4.32326">
        <ele>550</ele>
        <time>2017-04-13T16:38:33.1Z</time>
      </trkpt>
      <trkpt lat="45.771" lon="4.32328">
        <ele>550</ele>
        <time>2017-04-13T16:38:35.1Z</time>
      </trkpt>
      <trkpt lat="45.77102" lon="4.32331">
        <ele>551</ele>
        <time>2017-04-13T16:38:38.1Z</time>
      </trkpt>
      <trkpt lat="45.77105" lon="4.32335">
        <ele>551</ele>
        <time>2017-04-13T16:38:41.1Z</time>
      </trkpt>
      <trkpt lat="45.77106" lon="4.32338">
        <ele>551</ele>
        <time>2017-04-13T16:38:43.1Z</time>
      </trkpt>
      <trkpt lat="45.77108" lon="4.32341">
        <ele>551</ele>
        <time>2017-04-13T16:38:45.1Z</time>
      </trkpt>
      <trkpt lat="45.77109" lon="4.32344">
        <ele>552</ele>
        <time>2017-04-13T16:38:47.1Z</time>
      </trkpt>
      <trkpt lat="45.7711" lon="4.3235">
        <ele>552</ele>
        <time>2017-04-13T16:38:50.1Z</time>
      </trkpt>
      <trkpt lat="45.7711" lon="4.32354">
        <ele>552</ele>
        <time>2017-04-13T16:38:52.1Z</time>
      </trkpt>
      <trkpt lat="45.77108" lon="4.3236">
        <ele>552</ele>
        <time>2017-04-13T16:38:55.1Z</time>
      </trkpt>
      <trkpt lat="45.77106" lon="4.32364">
        <ele>552</ele>
        <time>2017-04-13T16:38:57.1Z</time>
      </trkpt>
      <trkpt lat="45.77104" lon="4.32367">
        <ele>553</ele>
        <time>2017-04-13T16:38:59.1Z</time>
      </trkpt>
      <trkpt lat="45.77102" lon="4.32371">
        <ele>553</ele>
        <time>2017-04-13T16:39:01.1Z</time>
      </trkpt>
      <trkpt lat="45.771" lon="4.32374">
        <ele>553</ele>
        <time>2017-04-13T16:39:03.1Z</time>
      </trkpt>
      <trkpt lat="45.77098" lon="4.32377">
        <ele>553</ele>
        <time>2017-04-13T16:39:05.1Z</time>
      </trkpt>
      <trkpt lat="45.77096" lon="4.32382">
        <ele>553</ele>
        <time>2017-04-13T16:39:08.1Z</time>
      </trkpt>
      <trkpt lat="45.77094" lon="4.32386">
        <ele>553</ele>
        <time>2017-04-13T16:39:10.1Z</time>
      </trkpt>
      <trkpt lat="45.77093" lon="4.32389">
        <ele>553</ele>
        <time>2017-04-13T16:39:12.1Z</time>
      </trkpt>
      <trkpt lat="45.77092" lon="4.32393">
        <ele>553</ele>
        <time>2017-04-13T16:39:14.1Z</time>
      </trkpt>
      <trkpt lat="45.7709" lon="4.32396">
        <ele>553</ele>
        <time>2017-04-13T16:39:16.1Z</time>
      </trkpt>
      <trkpt lat="45.77089" lon="4.324">
        <ele>553</ele>
        <time>2017-04-13T16:39:18.1Z</time>
      </trkpt>
      <trkpt lat="45.77087" lon="4.32403">
        <ele>553</ele>
        <time>2017-04-13T16:39:20.1Z</time>
      </trkpt>
      <trkpt lat="45.77085" lon="4.32408">
        <ele>553</ele>
        <time>2017-04-13T16:39:23.1Z</time>
      </trkpt>
      <trkpt lat="45.77083" lon="4.32411">
        <ele>552</ele>
        <time>2017-04-13T16:39:25.1Z</time>
      </trkpt>
      <trkpt lat="45.77081" lon="4.32415">
        <ele>552</ele>
        <time>2017-04-13T16:39:27.1Z</time>
      </trkpt>
      <trkpt lat="45.77079" lon="4.32418">
        <ele>552</ele>
        <time>2017-04-13T16:39:29.1Z</time>
      </trkpt>
      <trkpt lat="45.77078" lon="4.32422">
        <ele>553</ele>
        <time>2017-04-13T16:39:31.1Z</time>
      </trkpt>
      <trkpt lat="45.77076" lon="4.32426">
        <ele>553</ele>
        <time>2017-04-13T16:39:33.1Z</time>
      </trkpt>
      <trkpt lat="45.77075" lon="4.32429">
        <ele>553</ele>
        <time>2017-04-13T16:39:35.1Z</time>
      </trkpt>
      <trkpt lat="45.77073" lon="4.32435">
        <ele>553</ele>
        <time>2017-04-13T16:39:38.1Z</time>
      </trkpt>
      <trkpt lat="45.77071" lon="4.32439">
        <ele>553</ele>
        <time>2017-04-13T16:39:40.1Z</time>
      </trkpt>
      <trkpt lat="45.77069" lon="4.32442">
        <ele>553</ele>
        <time>2017-04-13T16:39:42.1Z</time>
      </trkpt>
      <trkpt lat="45.77068" lon="4.32445">
        <ele>553</ele>
        <time>2017-04-13T16:39:44.1Z</time>
      </trkpt>
      <trkpt lat="45.77066" lon="4.32448">
        <ele>553</ele>
        <time>2017-04-13T16:39:46.1Z</time>
      </trkpt>
      <trkpt lat="45.77065" lon="4.32452">
        <ele>553</ele>
        <time>2017-04-13T16:39:48.1Z</time>
      </trkpt>
      <trkpt lat="45.77063" lon="4.32456">
        <ele>553</ele>
        <time>2017-04-13T16:39:51.1Z</time>
      </trkpt>
      <trkpt lat="45.77061" lon="4.32459">
        <ele>553</ele>
        <time>2017-04-13T16:39:53.1Z</time>
      </trkpt>
      <trkpt lat="45.7706" lon="4.32462">
        <ele>554</ele>
        <time>2017-04-13T16:39:55.1Z</time>
      </trkpt>
      <trkpt lat="45.77059" lon="4.32465">
        <ele>554</ele>
        <time>2017-04-13T16:39:57.1Z</time>
      </trkpt>
      <trkpt lat="45.77058" lon="4.32469">
        <ele>554</ele>
        <time>2017-04-13T16:39:59.1Z</time>
      </trkpt>
      <trkpt lat="45.77056" lon="4.32472">
        <ele>554</ele>
        <time>2017-04-13T16:40:01.1Z</time>
      </trkpt>
      <trkpt lat="45.77054" lon="4.32477">
        <ele>553</ele>
        <time>2017-04-13T16:40:04.1Z</time>
      </trkpt>
      <trkpt lat="45.77052" lon="4.3248">
        <ele>553</ele>
        <time>2017-04-13T16:40:06.1Z</time>
      </trkpt>
      <trkpt lat="45.77051" lon="4.32483">
        <ele>553</ele>
        <time>2017-04-13T16:40:08.1Z</time>
      </trkpt>
      <trkpt lat="45.77049" lon="4.32487">
        <ele>554</ele>
        <time>2017-04-13T16:40:10.1Z</time>
      </trkpt>
      <trkpt lat="45.77046" lon="4.32491">
        <ele>554</ele>
        <time>2017-04-13T16:40:13.1Z</time>
      </trkpt>
      <trkpt lat="45.77043" lon="4.32496">
        <ele>554</ele>
        <time>2017-04-13T16:40:16.1Z</time>
      </trkpt>
      <trkpt lat="45.7704" lon="4.32501">
        <ele>554</ele>
        <time>2017-04-13T16:40:19.1Z</time>
      </trkpt>
      <trkpt lat="45.77037" lon="4.32504">
        <ele>554</ele>
        <time>2017-04-13T16:40:22.1Z</time>
      </trkpt>
      <trkpt lat="45.77034" lon="4.32507">
        <ele>554</ele>
        <time>2017-04-13T16:40:24.1Z</time>
      </trkpt>
      <trkpt lat="45.77032" lon="4.32509">
        <ele>554</ele>
        <time>2017-04-13T16:40:26.1Z</time>
      </trkpt>
      <trkpt lat="45.77029" lon="4.32511">
        <ele>554</ele>
        <time>2017-04-13T16:40:28.1Z</time>
      </trkpt>
      <trkpt lat="45.77026" lon="4.32513">
        <ele>554</ele>
        <time>2017-04-13T16:40:30.1Z</time>
      </trkpt>
      <trkpt lat="45.77022" lon="4.32515">
        <ele>554</ele>
        <time>2017-04-13T16:40:33.1Z</time>
      </trkpt>
      <trkpt lat="45.77018" lon="4.32518">
        <ele>554</ele>
        <time>2017-04-13T16:40:36.1Z</time>
      </trkpt>
      <trkpt lat="45.77016" lon="4.32519">
        <ele>554</ele>
        <time>2017-04-13T16:40:38.1Z</time>
      </trkpt>
      <trkpt lat="45.77012" lon="4.32521">
        <ele>554</ele>
        <time>2017-04-13T16:40:41.1Z</time>
      </trkpt>
      <trkpt lat="45.77009" lon="4.32523">
        <ele>554</ele>
        <time>2017-04-13T16:40:43.1Z</time>
      </trkpt>
      <trkpt lat="45.77006" lon="4.32524">
        <ele>553</ele>
        <time>2017-04-13T16:40:45.1Z</time>
      </trkpt>
      <trkpt lat="45.77002" lon="4.32526">
        <ele>553</ele>
        <time>2017-04-13T16:40:48.1Z</time>
      </trkpt>
      <trkpt lat="45.76998" lon="4.32528">
        <ele>553</ele>
        <time>2017-04-13T16:40:51.1Z</time>
      </trkpt>
      <trkpt lat="45.76995" lon="4.32529">
        <ele>552</ele>
        <time>2017-04-13T16:40:53.1Z</time>
      </trkpt>
      <trkpt lat="45.76993" lon="4.32531">
        <ele>552</ele>
        <time>2017-04-13T16:40:55.1Z</time>
      </trkpt>
      <trkpt lat="45.76991" lon="4.32533">
        <ele>552</ele>
        <time>2017-04-13T16:40:57.1Z</time>
      </trkpt>
      <trkpt lat="45.76988" lon="4.32534">
        <ele>552</ele>
        <time>2017-04-13T16:40:59.1Z</time>
      </trkpt>
      <trkpt lat="45.76984" lon="4.32535">
        <ele>552</ele>
        <time>2017-04-13T16:41:02.1Z</time>
      </trkpt>
      <trkpt lat="45.76979" lon="4.32537">
        <ele>551</ele>
        <time>2017-04-13T16:41:05.1Z</time>
      </trkpt>
      <trkpt lat="45.76976" lon="4.32538">
        <ele>551</ele>
        <time>2017-04-13T16:41:07.1Z</time>
      </trkpt>
      <trkpt lat="45.76973" lon="4.32539">
        <ele>551</ele>
        <time>2017-04-13T16:41:09.1Z</time>
      </trkpt>
      <trkpt lat="45.7697" lon="4.3254">
        <ele>551</ele>
        <time>2017-04-13T16:41:11.1Z</time>
      </trkpt>
      <trkpt lat="45.76968" lon="4.32541">
        <ele>551</ele>
        <time>2017-04-13T16:41:13.1Z</time>
      </trkpt>
      <trkpt lat="45.76965" lon="4.32543">
        <ele>551</ele>
        <time>2017-04-13T16:41:15.1Z</time>
      </trkpt>
      <trkpt lat="45.76961" lon="4.32545">
        <ele>551</ele>
        <time>2017-04-13T16:41:18.1Z</time>
      </trkpt>
      <trkpt lat="45.76958" lon="4.32547">
        <ele>550</ele>
        <time>2017-04-13T16:41:21.1Z</time>
      </trkpt>
      <trkpt lat="45.76956" lon="4.32549">
        <ele>550</ele>
        <time>2017-04-13T16:41:23.1Z</time>
      </trkpt>
      <trkpt lat="45.76954" lon="4.3255">
        <ele>550</ele>
        <time>2017-04-13T16:41:25.1Z</time>
      </trkpt>
      <trkpt lat="45.76949" lon="4.32551">
        <ele>550</ele>
        <time>2017-04-13T16:41:28.1Z</time>
      </trkpt>
      <trkpt lat="45.76947" lon="4.32552">
        <ele>550</ele>
        <time>2017-04-13T16:41:30.1Z</time>
      </trkpt>
      <trkpt lat="45.76942" lon="4.32553">
        <ele>550</ele>
        <time>2017-04-13T16:41:33.1Z</time>
      </trkpt>
      <trkpt lat="45.76939" lon="4.32554">
        <ele>550</ele>
        <time>2017-04-13T16:41:35.1Z</time>
      </trkpt>
      <trkpt lat="45.76936" lon="4.32554">
        <ele>549</ele>
        <time>2017-04-13T16:41:37.1Z</time>
      </trkpt>
      <trkpt lat="45.76933" lon="4.32555">
        <ele>549</ele>
        <time>2017-04-13T16:41:39.1Z</time>
      </trkpt>
      <trkpt lat="45.76929" lon="4.32555">
        <ele>548</ele>
        <time>2017-04-13T16:41:41.1Z</time>
      </trkpt>
      <trkpt lat="45.76925" lon="4.32557">
        <ele>548</ele>
        <time>2017-04-13T16:41:44.1Z</time>
      </trkpt>
      <trkpt lat="45.76921" lon="4.32557">
        <ele>548</ele>
        <time>2017-04-13T16:41:47.1Z</time>
      </trkpt>
      <trkpt lat="45.76917" lon="4.32558">
        <ele>548</ele>
        <time>2017-04-13T16:41:50.1Z</time>
      </trkpt>
      <trkpt lat="45.76914" lon="4.32559">
        <ele>548</ele>
        <time>2017-04-13T16:41:52.1Z</time>
      </trkpt>
      <trkpt lat="45.76911" lon="4.3256">
        <ele>548</ele>
        <time>2017-04-13T16:41:54.1Z</time>
      </trkpt>
      <trkpt lat="45.76908" lon="4.32561">
        <ele>548</ele>
        <time>2017-04-13T16:41:56.1Z</time>
      </trkpt>
      <trkpt lat="45.76905" lon="4.32561">
        <ele>548</ele>
        <time>2017-04-13T16:41:58.1Z</time>
      </trkpt>
      <trkpt lat="45.76901" lon="4.32562">
        <ele>548</ele>
        <time>2017-04-13T16:42:01.1Z</time>
      </trkpt>
      <trkpt lat="45.76898" lon="4.32562">
        <ele>547</ele>
        <time>2017-04-13T16:42:03.1Z</time>
      </trkpt>
      <trkpt lat="45.76895" lon="4.32562">
        <ele>547</ele>
        <time>2017-04-13T16:42:05.1Z</time>
      </trkpt>
      <trkpt lat="45.76893" lon="4.32563">
        <ele>547</ele>
        <time>2017-04-13T16:42:07.1Z</time>
      </trkpt>
      <trkpt lat="45.7689" lon="4.32563">
        <ele>547</ele>
        <time>2017-04-13T16:42:09.1Z</time>
      </trkpt>
      <trkpt lat="45.76887" lon="4.32563">
        <ele>547</ele>
        <time>2017-04-13T16:42:11.1Z</time>
      </trkpt>
      <trkpt lat="45.76883" lon="4.32562">
        <ele>547</ele>
        <time>2017-04-13T16:42:14.1Z</time>
      </trkpt>
      <trkpt lat="45.7688" lon="4.32561">
        <ele>547</ele>
        <time>2017-04-13T16:42:16.1Z</time>
      </trkpt>
      <trkpt lat="45.76878" lon="4.32561">
        <ele>547</ele>
        <time>2017-04-13T16:42:18.1Z</time>
      </trkpt>
      <trkpt lat="45.76875" lon="4.32561">
        <ele>547</ele>
        <time>2017-04-13T16:42:20.1Z</time>
      </trkpt>
      <trkpt lat="45.76873" lon="4.3256">
        <ele>546</ele>
        <time>2017-04-13T16:42:22.1Z</time>
      </trkpt>
      <trkpt lat="45.7687" lon="4.3256">
        <ele>546</ele>
        <time>2017-04-13T16:42:24.1Z</time>
      </trkpt>
      <trkpt lat="45.76867" lon="4.32559">
        <ele>546</ele>
        <time>2017-04-13T16:42:26.1Z</time>
      </trkpt>
      <trkpt lat="45.76862" lon="4.32557">
        <ele>545</ele>
        <time>2017-04-13T16:42:29.1Z</time>
      </trkpt>
      <trkpt lat="45.76859" lon="4.32556">
        <ele>545</ele>
        <time>2017-04-13T16:42:31.1Z</time>
      </trkpt>
      <trkpt lat="45.76856" lon="4.32556">
        <ele>545</ele>
        <time>2017-04-13T16:42:33.1Z</time>
      </trkpt>
      <trkpt lat="45.76853" lon="4.32555">
        <ele>545</ele>
        <time>2017-04-13T16:42:35.1Z</time>
      </trkpt>
      <trkpt lat="45.7685" lon="4.32554">
        <ele>545</ele>
        <time>2017-04-13T16:42:37.1Z</time>
      </trkpt>
      <trkpt lat="45.76847" lon="4.32553">
        <ele>545</ele>
        <time>2017-04-13T16:42:39.1Z</time>
      </trkpt>
      <trkpt lat="45.76844" lon="4.32552">
        <ele>545</ele>
        <time>2017-04-13T16:42:41.1Z</time>
      </trkpt>
      <trkpt lat="45.76839" lon="4.32552">
        <ele>545</ele>
        <time>2017-04-13T16:42:44.1Z</time>
      </trkpt>
      <trkpt lat="45.76836" lon="4.32551">
        <ele>545</ele>
        <time>2017-04-13T16:42:46.1Z</time>
      </trkpt>
      <trkpt lat="45.76833" lon="4.3255">
        <ele>545</ele>
        <time>2017-04-13T16:42:48.1Z</time>
      </trkpt>
      <trkpt lat="45.7683" lon="4.3255">
        <ele>546</ele>
        <time>2017-04-13T16:42:50.1Z</time>
      </trkpt>
      <trkpt lat="45.76827" lon="4.32549">
        <ele>546</ele>
        <time>2017-04-13T16:42:52.1Z</time>
      </trkpt>
      <trkpt lat="45.76824" lon="4.32547">
        <ele>546</ele>
        <time>2017-04-13T16:42:54.1Z</time>
      </trkpt>
      <trkpt lat="45.7682" lon="4.32545">
        <ele>546</ele>
        <time>2017-04-13T16:42:57.1Z</time>
      </trkpt>
      <trkpt lat="45.76816" lon="4.32544">
        <ele>545</ele>
        <time>2017-04-13T16:42:59.1Z</time>
      </trkpt>
      <trkpt lat="45.76813" lon="4.32542">
        <ele>545</ele>
        <time>2017-04-13T16:43:01.1Z</time>
      </trkpt>
      <trkpt lat="45.76809" lon="4.32541">
        <ele>544</ele>
        <time>2017-04-13T16:43:03.1Z</time>
      </trkpt>
      <trkpt lat="45.76806" lon="4.3254">
        <ele>544</ele>
        <time>2017-04-13T16:43:05.1Z</time>
      </trkpt>
      <trkpt lat="45.76803" lon="4.32538">
        <ele>544</ele>
        <time>2017-04-13T16:43:07.1Z</time>
      </trkpt>
      <trkpt lat="45.768" lon="4.32536">
        <ele>544</ele>
        <time>2017-04-13T16:43:09.1Z</time>
      </trkpt>
      <trkpt lat="45.76796" lon="4.32534">
        <ele>544</ele>
        <time>2017-04-13T16:43:12.1Z</time>
      </trkpt>
      <trkpt lat="45.76793" lon="4.32532">
        <ele>543</ele>
        <time>2017-04-13T16:43:14.1Z</time>
      </trkpt>
      <trkpt lat="45.7679" lon="4.3253">
        <ele>542</ele>
        <time>2017-04-13T16:43:16.1Z</time>
      </trkpt>
      <trkpt lat="45.76787" lon="4.32529">
        <ele>541</ele>
        <time>2017-04-13T16:43:18.1Z</time>
      </trkpt>
      <trkpt lat="45.76785" lon="4.32528">
        <ele>541</ele>
        <time>2017-04-13T16:43:20.1Z</time>
      </trkpt>
      <trkpt lat="45.76781" lon="4.32526">
        <ele>541</ele>
        <time>2017-04-13T16:43:22.1Z</time>
      </trkpt>
      <trkpt lat="45.76778" lon="4.32524">
        <ele>541</ele>
        <time>2017-04-13T16:43:25.1Z</time>
      </trkpt>
      <trkpt lat="45.76775" lon="4.32522">
        <ele>541</ele>
        <time>2017-04-13T16:43:27.1Z</time>
      </trkpt>
      <trkpt lat="45.76772" lon="4.32522">
        <ele>541</ele>
        <time>2017-04-13T16:43:29.1Z</time>
      </trkpt>
      <trkpt lat="45.7677" lon="4.32521">
        <ele>541</ele>
        <time>2017-04-13T16:43:31.1Z</time>
      </trkpt>
      <trkpt lat="45.76767" lon="4.32519">
        <ele>541</ele>
        <time>2017-04-13T16:43:33.1Z</time>
      </trkpt>
      <trkpt lat="45.76764" lon="4.32518">
        <ele>540</ele>
        <time>2017-04-13T16:43:35.1Z</time>
      </trkpt>
      <trkpt lat="45.76761" lon="4.32517">
        <ele>540</ele>
        <time>2017-04-13T16:43:37.1Z</time>
      </trkpt>
      <trkpt lat="45.76757" lon="4.32515">
        <ele>540</ele>
        <time>2017-04-13T16:43:40.1Z</time>
      </trkpt>
      <trkpt lat="45.76753" lon="4.32514">
        <ele>539</ele>
        <time>2017-04-13T16:43:42.1Z</time>
      </trkpt>
      <trkpt lat="45.76751" lon="4.32513">
        <ele>539</ele>
        <time>2017-04-13T16:43:44.1Z</time>
      </trkpt>
      <trkpt lat="45.76748" lon="4.32512">
        <ele>539</ele>
        <time>2017-04-13T16:43:46.1Z</time>
      </trkpt>
      <trkpt lat="45.76744" lon="4.3251">
        <ele>538</ele>
        <time>2017-04-13T16:43:48.1Z</time>
      </trkpt>
      <trkpt lat="45.76741" lon="4.32509">
        <ele>538</ele>
        <time>2017-04-13T16:43:50.1Z</time>
      </trkpt>
      <trkpt lat="45.76736" lon="4.32506">
        <ele>538</ele>
        <time>2017-04-13T16:43:53.1Z</time>
      </trkpt>
      <trkpt lat="45.76733" lon="4.32504">
        <ele>537</ele>
        <time>2017-04-13T16:43:55.1Z</time>
      </trkpt>
      <trkpt lat="45.7673" lon="4.32503">
        <ele>537</ele>
        <time>2017-04-13T16:43:57.1Z</time>
      </trkpt>
      <trkpt lat="45.76727" lon="4.32502">
        <ele>536</ele>
        <time>2017-04-13T16:43:59.1Z</time>
      </trkpt>
      <trkpt lat="45.76724" lon="4.32501">
        <ele>536</ele>
        <time>2017-04-13T16:44:01.1Z</time>
      </trkpt>
      <trkpt lat="45.76721" lon="4.32499">
        <ele>536</ele>
        <time>2017-04-13T16:44:03.1Z</time>
      </trkpt>
      <trkpt lat="45.76717" lon="4.32497">
        <ele>535</ele>
        <time>2017-04-13T16:44:06.1Z</time>
      </trkpt>
      <trkpt lat="45.76714" lon="4.32496">
        <ele>535</ele>
        <time>2017-04-13T16:44:08.1Z</time>
      </trkpt>
      <trkpt lat="45.76711" lon="4.32495">
        <ele>535</ele>
        <time>2017-04-13T16:44:10.1Z</time>
      </trkpt>
      <trkpt lat="45.76708" lon="4.32493">
        <ele>535</ele>
        <time>2017-04-13T16:44:12.1Z</time>
      </trkpt>
      <trkpt lat="45.76705" lon="4.32492">
        <ele>535</ele>
        <time>2017-04-13T16:44:14.1Z</time>
      </trkpt>
      <trkpt lat="45.76702" lon="4.3249">
        <ele>535</ele>
        <time>2017-04-13T16:44:16.1Z</time>
      </trkpt>
      <trkpt lat="45.76697" lon="4.32488">
        <ele>535</ele>
        <time>2017-04-13T16:44:19.1Z</time>
      </trkpt>
      <trkpt lat="45.76694" lon="4.32486">
        <ele>535</ele>
        <time>2017-04-13T16:44:21.1Z</time>
      </trkpt>
      <trkpt lat="45.76691" lon="4.32485">
        <ele>535</ele>
        <time>2017-04-13T16:44:23.1Z</time>
      </trkpt>
      <trkpt lat="45.76688" lon="4.32483">
        <ele>534</ele>
        <time>2017-04-13T16:44:25.1Z</time>
      </trkpt>
      <trkpt lat="45.76685" lon="4.32481">
        <ele>534</ele>
        <time>2017-04-13T16:44:27.1Z</time>
      </trkpt>
      <trkpt lat="45.76683" lon="4.32479">
        <ele>534</ele>
        <time>2017-04-13T16:44:29.1Z</time>
      </trkpt>
      <trkpt lat="45.76678" lon="4.32477">
        <ele>534</ele>
        <time>2017-04-13T16:44:32.1Z</time>
      </trkpt>
      <trkpt lat="45.76675" lon="4.32476">
        <ele>534</ele>
        <time>2017-04-13T16:44:34.1Z</time>
      </trkpt>
      <trkpt lat="45.76672" lon="4.32474">
        <ele>533</ele>
        <time>2017-04-13T16:44:36.1Z</time>
      </trkpt>
      <trkpt lat="45.76669" lon="4.32473">
        <ele>533</ele>
        <time>2017-04-13T16:44:38.1Z</time>
      </trkpt>
      <trkpt lat="45.76666" lon="4.32472">
        <ele>533</ele>
        <time>2017-04-13T16:44:40.1Z</time>
      </trkpt>
      <trkpt lat="45.76663" lon="4.3247">
        <ele>533</ele>
        <time>2017-04-13T16:44:42.1Z</time>
      </trkpt>
      <trkpt lat="45.7666" lon="4.32468">
        <ele>533</ele>
        <time>2017-04-13T16:44:44.1Z</time>
      </trkpt>
      <trkpt lat="45.76656" lon="4.32466">
        <ele>533</ele>
        <time>2017-04-13T16:44:47.1Z</time>
      </trkpt>
      <trkpt lat="45.76653" lon="4.32465">
        <ele>532</ele>
        <time>2017-04-13T16:44:49.1Z</time>
      </trkpt>
      <trkpt lat="45.7665" lon="4.32463">
        <ele>532</ele>
        <time>2017-04-13T16:44:51.1Z</time>
      </trkpt>
      <trkpt lat="45.76647" lon="4.32462">
        <ele>532</ele>
        <time>2017-04-13T16:44:53.1Z</time>
      </trkpt>
      <trkpt lat="45.76645" lon="4.3246">
        <ele>532</ele>
        <time>2017-04-13T16:44:55.1Z</time>
      </trkpt>
      <trkpt lat="45.76642" lon="4.32459">
        <ele>532</ele>
        <time>2017-04-13T16:44:57.1Z</time>
      </trkpt>
      <trkpt lat="45.76639" lon="4.32457">
        <ele>532</ele>
        <time>2017-04-13T16:44:59.1Z</time>
      </trkpt>
      <trkpt lat="45.76636" lon="4.32456">
        <ele>532</ele>
        <time>2017-04-13T16:45:01.1Z</time>
      </trkpt>
      <trkpt lat="45.76632" lon="4.32455">
        <ele>532</ele>
        <time>2017-04-13T16:45:04.1Z</time>
      </trkpt>
      <trkpt lat="45.76629" lon="4.32454">
        <ele>532</ele>
        <time>2017-04-13T16:45:06.1Z</time>
      </trkpt>
      <trkpt lat="45.76625" lon="4.32452">
        <ele>531</ele>
        <time>2017-04-13T16:45:09.1Z</time>
      </trkpt>
      <trkpt lat="45.76621" lon="4.32451">
        <ele>531</ele>
        <time>2017-04-13T16:45:11.1Z</time>
      </trkpt>
      <trkpt lat="45.76618" lon="4.3245">
        <ele>531</ele>
        <time>2017-04-13T16:45:13.1Z</time>
      </trkpt>
      <trkpt lat="45.76613" lon="4.32448">
        <ele>530</ele>
        <time>2017-04-13T16:45:16.1Z</time>
      </trkpt>
      <trkpt lat="45.7661" lon="4.32446">
        <ele>530</ele>
        <time>2017-04-13T16:45:18.1Z</time>
      </trkpt>
      <trkpt lat="45.76606" lon="4.32444">
        <ele>530</ele>
        <time>2017-04-13T16:45:21.1Z</time>
      </trkpt>
      <trkpt lat="45.76603" lon="4.32443">
        <ele>530</ele>
        <time>2017-04-13T16:45:23.1Z</time>
      </trkpt>
      <trkpt lat="45.76598" lon="4.32442">
        <ele>529</ele>
        <time>2017-04-13T16:45:26.1Z</time>
      </trkpt>
      <trkpt lat="45.76595" lon="4.3244">
        <ele>529</ele>
        <time>2017-04-13T16:45:28.1Z</time>
      </trkpt>
      <trkpt lat="45.76593" lon="4.32439">
        <ele>529</ele>
        <time>2017-04-13T16:45:30.1Z</time>
      </trkpt>
      <trkpt lat="45.76588" lon="4.32436">
        <ele>529</ele>
        <time>2017-04-13T16:45:33.1Z</time>
      </trkpt>
      <trkpt lat="45.76584" lon="4.32434">
        <ele>529</ele>
        <time>2017-04-13T16:45:36.1Z</time>
      </trkpt>
      <trkpt lat="45.76582" lon="4.32432">
        <ele>528</ele>
        <time>2017-04-13T16:45:38.1Z</time>
      </trkpt>
      <trkpt lat="45.76579" lon="4.32431">
        <ele>527</ele>
        <time>2017-04-13T16:45:40.1Z</time>
      </trkpt>
      <trkpt lat="45.76575" lon="4.32429">
        <ele>527</ele>
        <time>2017-04-13T16:45:43.1Z</time>
      </trkpt>
      <trkpt lat="45.76572" lon="4.32428">
        <ele>527</ele>
        <time>2017-04-13T16:45:45.1Z</time>
      </trkpt>
      <trkpt lat="45.76569" lon="4.32427">
        <ele>526</ele>
        <time>2017-04-13T16:45:48.1Z</time>
      </trkpt>
      <trkpt lat="45.76566" lon="4.32427">
        <ele>526</ele>
        <time>2017-04-13T16:45:50.1Z</time>
      </trkpt>
      <trkpt lat="45.76564" lon="4.32427">
        <ele>526</ele>
        <time>2017-04-13T16:45:52.1Z</time>
      </trkpt>
      <trkpt lat="45.7656" lon="4.32426">
        <ele>525</ele>
        <time>2017-04-13T16:45:55.1Z</time>
      </trkpt>
      <trkpt lat="45.76557" lon="4.32426">
        <ele>525</ele>
        <time>2017-04-13T16:45:57.1Z</time>
      </trkpt>
      <trkpt lat="45.76554" lon="4.32425">
        <ele>524</ele>
        <time>2017-04-13T16:46:00.1Z</time>
      </trkpt>
      <trkpt lat="45.76551" lon="4.32424">
        <ele>524</ele>
        <time>2017-04-13T16:46:02.1Z</time>
      </trkpt>
      <trkpt lat="45.76548" lon="4.32423">
        <ele>524</ele>
        <time>2017-04-13T16:46:04.1Z</time>
      </trkpt>
      <trkpt lat="45.76544" lon="4.32421">
        <ele>523</ele>
        <time>2017-04-13T16:46:07.1Z</time>
      </trkpt>
      <trkpt lat="45.76542" lon="4.3242">
        <ele>523</ele>
        <time>2017-04-13T16:46:09.1Z</time>
      </trkpt>
      <trkpt lat="45.76538" lon="4.32419">
        <ele>522</ele>
        <time>2017-04-13T16:46:11.1Z</time>
      </trkpt>
      <trkpt lat="45.76534" lon="4.32417">
        <ele>522</ele>
        <time>2017-04-13T16:46:14.1Z</time>
      </trkpt>
      <trkpt lat="45.7653" lon="4.32415">
        <ele>521</ele>
        <time>2017-04-13T16:46:17.1Z</time>
      </trkpt>
      <trkpt lat="45.76527" lon="4.32414">
        <ele>521</ele>
        <time>2017-04-13T16:46:19.1Z</time>
      </trkpt>
      <trkpt lat="45.76524" lon="4.32414">
        <ele>520</ele>
        <time>2017-04-13T16:46:21.1Z</time>
      </trkpt>
      <trkpt lat="45.76522" lon="4.32412">
        <ele>520</ele>
        <time>2017-04-13T16:46:23.1Z</time>
      </trkpt>
      <trkpt lat="45.76519" lon="4.32412">
        <ele>519</ele>
        <time>2017-04-13T16:46:25.1Z</time>
      </trkpt>
      <trkpt lat="45.76516" lon="4.32411">
        <ele>519</ele>
        <time>2017-04-13T16:46:28.1Z</time>
      </trkpt>
      <trkpt lat="45.76513" lon="4.32411">
        <ele>518</ele>
        <time>2017-04-13T16:46:30.1Z</time>
      </trkpt>
      <trkpt lat="45.7651" lon="4.32412">
        <ele>517</ele>
        <time>2017-04-13T16:46:32.1Z</time>
      </trkpt>
      <trkpt lat="45.76506" lon="4.32412">
        <ele>517</ele>
        <time>2017-04-13T16:46:35.1Z</time>
      </trkpt>
      <trkpt lat="45.76504" lon="4.32412">
        <ele>517</ele>
        <time>2017-04-13T16:46:37.1Z</time>
      </trkpt>
      <trkpt lat="45.76501" lon="4.32412">
        <ele>516</ele>
        <time>2017-04-13T16:46:39.1Z</time>
      </trkpt>
      <trkpt lat="45.76498" lon="4.32413">
        <ele>516</ele>
        <time>2017-04-13T16:46:42.1Z</time>
      </trkpt>
      <trkpt lat="45.76496" lon="4.32414">
        <ele>516</ele>
        <time>2017-04-13T16:46:44.1Z</time>
      </trkpt>
      <trkpt lat="45.76494" lon="4.32414">
        <ele>515</ele>
        <time>2017-04-13T16:46:46.1Z</time>
      </trkpt>
      <trkpt lat="45.7649" lon="4.32415">
        <ele>514</ele>
        <time>2017-04-13T16:46:49.1Z</time>
      </trkpt>
      <trkpt lat="45.76487" lon="4.32416">
        <ele>514</ele>
        <time>2017-04-13T16:46:51.1Z</time>
      </trkpt>
      <trkpt lat="45.76483" lon="4.32415">
        <ele>513</ele>
        <time>2017-04-13T16:46:54.1Z</time>
      </trkpt>
      <trkpt lat="45.7648" lon="4.32415">
        <ele>512</ele>
        <time>2017-04-13T16:46:56.1Z</time>
      </trkpt>
      <trkpt lat="45.76477" lon="4.32415">
        <ele>512</ele>
        <time>2017-04-13T16:46:58.1Z</time>
      </trkpt>
      <trkpt lat="45.76474" lon="4.32414">
        <ele>511</ele>
        <time>2017-04-13T16:47:00.1Z</time>
      </trkpt>
      <trkpt lat="45.76471" lon="4.32414">
        <ele>511</ele>
        <time>2017-04-13T16:47:02.1Z</time>
      </trkpt>
      <trkpt lat="45.76469" lon="4.32413">
        <ele>510</ele>
        <time>2017-04-13T16:47:04.1Z</time>
      </trkpt>
      <trkpt lat="45.76465" lon="4.32411">
        <ele>509</ele>
        <time>2017-04-13T16:47:07.1Z</time>
      </trkpt>
      <trkpt lat="45.76462" lon="4.32411">
        <ele>509</ele>
        <time>2017-04-13T16:47:09.1Z</time>
      </trkpt>
      <trkpt lat="45.7646" lon="4.3241">
        <ele>509</ele>
        <time>2017-04-13T16:47:11.1Z</time>
      </trkpt>
      <trkpt lat="45.76456" lon="4.32409">
        <ele>508</ele>
        <time>2017-04-13T16:47:14.1Z</time>
      </trkpt>
      <trkpt lat="45.76454" lon="4.32407">
        <ele>507</ele>
        <time>2017-04-13T16:47:16.1Z</time>
      </trkpt>
      <trkpt lat="45.7645" lon="4.32406">
        <ele>506</ele>
        <time>2017-04-13T16:47:19.1Z</time>
      </trkpt>
      <trkpt lat="45.76448" lon="4.32406">
        <ele>505</ele>
        <time>2017-04-13T16:47:21.1Z</time>
      </trkpt>
      <trkpt lat="45.76446" lon="4.32405">
        <ele>505</ele>
        <time>2017-04-13T16:47:23.1Z</time>
      </trkpt>
      <trkpt lat="45.76444" lon="4.32405">
        <ele>505</ele>
        <time>2017-04-13T16:47:25.1Z</time>
      </trkpt>
      <trkpt lat="45.76442" lon="4.32404">
        <ele>505</ele>
        <time>2017-04-13T16:47:27.1Z</time>
      </trkpt>
      <trkpt lat="45.76439" lon="4.32404">
        <ele>504</ele>
        <time>2017-04-13T16:47:29.1Z</time>
      </trkpt>
      <trkpt lat="45.76436" lon="4.32404">
        <ele>503</ele>
        <time>2017-04-13T16:47:32.1Z</time>
      </trkpt>
      <trkpt lat="45.76433" lon="4.32403">
        <ele>502</ele>
        <time>2017-04-13T16:47:34.1Z</time>
      </trkpt>
      <trkpt lat="45.76429" lon="4.32402">
        <ele>502</ele>
        <time>2017-04-13T16:47:37.1Z</time>
      </trkpt>
      <trkpt lat="45.76427" lon="4.32402">
        <ele>501</ele>
        <time>2017-04-13T16:47:39.1Z</time>
      </trkpt>
      <trkpt lat="45.76424" lon="4.32401">
        <ele>501</ele>
        <time>2017-04-13T16:47:41.1Z</time>
      </trkpt>
      <trkpt lat="45.76422" lon="4.324">
        <ele>500</ele>
        <time>2017-04-13T16:47:43.1Z</time>
      </trkpt>
      <trkpt lat="45.7642" lon="4.324">
        <ele>500</ele>
        <time>2017-04-13T16:47:45.1Z</time>
      </trkpt>
      <trkpt lat="45.76416" lon="4.324">
        <ele>499</ele>
        <time>2017-04-13T16:47:48.1Z</time>
      </trkpt>
      <trkpt lat="45.76413" lon="4.324">
        <ele>498</ele>
        <time>2017-04-13T16:47:50.1Z</time>
      </trkpt>
      <trkpt lat="45.76409" lon="4.324">
        <ele>497</ele>
        <time>2017-04-13T16:47:53.1Z</time>
      </trkpt>
      <trkpt lat="45.76407" lon="4.32399">
        <ele>497</ele>
        <time>2017-04-13T16:47:55.1Z</time>
      </trkpt>
      <trkpt lat="45.76405" lon="4.32399">
        <ele>496</ele>
        <time>2017-04-13T16:47:57.1Z</time>
      </trkpt>
      <trkpt lat="45.76403" lon="4.32398">
        <ele>496</ele>
        <time>2017-04-13T16:47:59.1Z</time>
      </trkpt>
      <trkpt lat="45.76401" lon="4.32398">
        <ele>495</ele>
        <time>2017-04-13T16:48:01.1Z</time>
      </trkpt>
      <trkpt lat="45.76398" lon="4.32398">
        <ele>495</ele>
        <time>2017-04-13T16:48:03.1Z</time>
      </trkpt>
      <trkpt lat="45.76395" lon="4.32397">
        <ele>494</ele>
        <time>2017-04-13T16:48:06.1Z</time>
      </trkpt>
      <trkpt lat="45.76392" lon="4.32397">
        <ele>494</ele>
        <time>2017-04-13T16:48:08.1Z</time>
      </trkpt>
      <trkpt lat="45.76387" lon="4.32397">
        <ele>493</ele>
        <time>2017-04-13T16:48:11.1Z</time>
      </trkpt>
      <trkpt lat="45.76384" lon="4.32396">
        <ele>492</ele>
        <time>2017-04-13T16:48:13.1Z</time>
      </trkpt>
      <trkpt lat="45.76381" lon="4.32396">
        <ele>491</ele>
        <time>2017-04-13T16:48:15.1Z</time>
      </trkpt>
      <trkpt lat="45.76378" lon="4.32396">
        <ele>491</ele>
        <time>2017-04-13T16:48:17.1Z</time>
      </trkpt>
      <trkpt lat="45.76375" lon="4.32394">
        <ele>490</ele>
        <time>2017-04-13T16:48:20.1Z</time>
      </trkpt>
      <trkpt lat="45.76372" lon="4.32394">
        <ele>489</ele>
        <time>2017-04-13T16:48:22.1Z</time>
      </trkpt>
      <trkpt lat="45.7637" lon="4.32393">
        <ele>489</ele>
        <time>2017-04-13T16:48:24.1Z</time>
      </trkpt>
      <trkpt lat="45.76368" lon="4.32393">
        <ele>489</ele>
        <time>2017-04-13T16:48:26.1Z</time>
      </trkpt>
      <trkpt lat="45.76365" lon="4.32392">
        <ele>488</ele>
        <time>2017-04-13T16:48:29.1Z</time>
      </trkpt>
      <trkpt lat="45.76363" lon="4.32391">
        <ele>487</ele>
        <time>2017-04-13T16:48:31.1Z</time>
      </trkpt>
      <trkpt lat="45.76361" lon="4.32391">
        <ele>487</ele>
        <time>2017-04-13T16:48:33.1Z</time>
      </trkpt>
      <trkpt lat="45.76359" lon="4.32391">
        <ele>486</ele>
        <time>2017-04-13T16:48:35.1Z</time>
      </trkpt>
      <trkpt lat="45.76355" lon="4.3239">
        <ele>486</ele>
        <time>2017-04-13T16:48:38.1Z</time>
      </trkpt>
      <trkpt lat="45.76353" lon="4.3239">
        <ele>485</ele>
        <time>2017-04-13T16:48:40.1Z</time>
      </trkpt>
      <trkpt lat="45.7635" lon="4.3239">
        <ele>485</ele>
        <time>2017-04-13T16:48:42.1Z</time>
      </trkpt>
      <trkpt lat="45.76348" lon="4.3239">
        <ele>484</ele>
        <time>2017-04-13T16:48:44.1Z</time>
      </trkpt>
      <trkpt lat="45.76345" lon="4.32389">
        <ele>483</ele>
        <time>2017-04-13T16:48:47.1Z</time>
      </trkpt>
      <trkpt lat="45.76342" lon="4.32389">
        <ele>483</ele>
        <time>2017-04-13T16:48:49.1Z</time>
      </trkpt>
      <trkpt lat="45.76339" lon="4.32388">
        <ele>482</ele>
        <time>2017-04-13T16:48:52.1Z</time>
      </trkpt>
      <trkpt lat="45.76336" lon="4.32388">
        <ele>482</ele>
        <time>2017-04-13T16:48:54.1Z</time>
      </trkpt>
      <trkpt lat="45.76334" lon="4.32387">
        <ele>482</ele>
        <time>2017-04-13T16:48:56.1Z</time>
      </trkpt>
      <trkpt lat="45.76331" lon="4.32387">
        <ele>481</ele>
        <time>2017-04-13T16:48:58.1Z</time>
      </trkpt>
      <trkpt lat="45.76328" lon="4.32387">
        <ele>481</ele>
        <time>2017-04-13T16:49:00.1Z</time>
      </trkpt>
      <trkpt lat="45.76325" lon="4.32387">
        <ele>480</ele>
        <time>2017-04-13T16:49:03.1Z</time>
      </trkpt>
      <trkpt lat="45.76322" lon="4.32387">
        <ele>480</ele>
        <time>2017-04-13T16:49:06.1Z</time>
      </trkpt>
      <trkpt lat="45.76321" lon="4.32387">
        <ele>479</ele>
        <time>2017-04-13T16:49:08.1Z</time>
      </trkpt>
      <trkpt lat="45.76317" lon="4.32387">
        <ele>478</ele>
        <time>2017-04-13T16:49:11.1Z</time>
      </trkpt>
      <trkpt lat="45.76314" lon="4.32385">
        <ele>478</ele>
        <time>2017-04-13T16:49:13.1Z</time>
      </trkpt>
      <trkpt lat="45.76311" lon="4.32384">
        <ele>477</ele>
        <time>2017-04-13T16:49:15.1Z</time>
      </trkpt>
      <trkpt lat="45.76309" lon="4.32383">
        <ele>477</ele>
        <time>2017-04-13T16:49:17.1Z</time>
      </trkpt>
      <trkpt lat="45.76305" lon="4.3238">
        <ele>477</ele>
        <time>2017-04-13T16:49:19.1Z</time>
      </trkpt>
      <trkpt lat="45.76302" lon="4.32375">
        <ele>477</ele>
        <time>2017-04-13T16:49:21.1Z</time>
      </trkpt>
      <trkpt lat="45.76299" lon="4.32369">
        <ele>476</ele>
        <time>2017-04-13T16:49:24.1Z</time>
      </trkpt>
      <trkpt lat="45.76296" lon="4.32364">
        <ele>476</ele>
        <time>2017-04-13T16:49:27.1Z</time>
      </trkpt>
      <trkpt lat="45.76294" lon="4.32361">
        <ele>475</ele>
        <time>2017-04-13T16:49:29.1Z</time>
      </trkpt>
      <trkpt lat="45.76292" lon="4.32355">
        <ele>475</ele>
        <time>2017-04-13T16:49:32.1Z</time>
      </trkpt>
      <trkpt lat="45.76289" lon="4.3235">
        <ele>474</ele>
        <time>2017-04-13T16:49:35.1Z</time>
      </trkpt>
      <trkpt lat="45.76288" lon="4.32347">
        <ele>474</ele>
        <time>2017-04-13T16:49:37.1Z</time>
      </trkpt>
      <trkpt lat="45.76286" lon="4.32345">
        <ele>473</ele>
        <time>2017-04-13T16:49:39.1Z</time>
      </trkpt>
      <trkpt lat="45.76284" lon="4.3234">
        <ele>473</ele>
        <time>2017-04-13T16:49:42.1Z</time>
      </trkpt>
      <trkpt lat="45.76283" lon="4.32338">
        <ele>472</ele>
        <time>2017-04-13T16:49:44.1Z</time>
      </trkpt>
      <trkpt lat="45.76282" lon="4.32335">
        <ele>472</ele>
        <time>2017-04-13T16:49:46.1Z</time>
      </trkpt>
      <trkpt lat="45.76279" lon="4.32331">
        <ele>471</ele>
        <time>2017-04-13T16:49:49.1Z</time>
      </trkpt>
      <trkpt lat="45.76277" lon="4.32327">
        <ele>471</ele>
        <time>2017-04-13T16:49:51.1Z</time>
      </trkpt>
      <trkpt lat="45.76275" lon="4.32324">
        <ele>470</ele>
        <time>2017-04-13T16:49:54.1Z</time>
      </trkpt>
      <trkpt lat="45.76274" lon="4.32324">
        <ele>469</ele>
        <time>2017-04-13T16:49:56.1Z</time>
      </trkpt>
      <trkpt lat="45.76273" lon="4.32324">
        <ele>469</ele>
        <time>2017-04-13T16:49:59.1Z</time>
      </trkpt>
      <trkpt lat="45.76272" lon="4.32325">
        <ele>469</ele>
        <time>2017-04-13T16:50:01.1Z</time>
      </trkpt>
      <trkpt lat="45.76271" lon="4.32326">
        <ele>469</ele>
        <time>2017-04-13T16:50:03.1Z</time>
      </trkpt>
      <trkpt lat="45.76269" lon="4.32327">
        <ele>469</ele>
        <time>2017-04-13T16:50:06.1Z</time>
      </trkpt>
      <trkpt lat="45.76269" lon="4.32329">
        <ele>468</ele>
        <time>2017-04-13T16:50:08.1Z</time>
      </trkpt>
      <trkpt lat="45.76267" lon="4.32332">
        <ele>468</ele>
        <time>2017-04-13T16:50:11.1Z</time>
      </trkpt>
      <trkpt lat="45.76265" lon="4.32333">
        <ele>468</ele>
        <time>2017-04-13T16:50:13.1Z</time>
      </trkpt>
      <trkpt lat="45.76264" lon="4.32334">
        <ele>468</ele>
        <time>2017-04-13T16:50:15.1Z</time>
      </trkpt>
      <trkpt lat="45.76263" lon="4.32335">
        <ele>468</ele>
        <time>2017-04-13T16:50:17.1Z</time>
      </trkpt>
      <trkpt lat="45.76262" lon="4.32336">
        <ele>468</ele>
        <time>2017-04-13T16:50:19.1Z</time>
      </trkpt>
      <trkpt lat="45.7626" lon="4.32336">
        <ele>468</ele>
        <time>2017-04-13T16:50:21.1Z</time>
      </trkpt>
      <trkpt lat="45.76258" lon="4.32337">
        <ele>468</ele>
        <time>2017-04-13T16:50:24.1Z</time>
      </trkpt>
      <trkpt lat="45.76257" lon="4.32338">
        <ele>468</ele>
        <time>2017-04-13T16:50:26.1Z</time>
      </trkpt>
      <trkpt lat="45.76255" lon="4.3234">
        <ele>468</ele>
        <time>2017-04-13T16:50:28.1Z</time>
      </trkpt>
      <trkpt lat="45.76254" lon="4.32341">
        <ele>468</ele>
        <time>2017-04-13T16:50:30.1Z</time>
      </trkpt>
      <trkpt lat="45.76253" lon="4.32342">
        <ele>468</ele>
        <time>2017-04-13T16:50:32.1Z</time>
      </trkpt>
      <trkpt lat="45.76251" lon="4.32345">
        <ele>468</ele>
        <time>2017-04-13T16:50:35.1Z</time>
      </trkpt>
      <trkpt lat="45.7625" lon="4.32346">
        <ele>468</ele>
        <time>2017-04-13T16:50:37.1Z</time>
      </trkpt>
      <trkpt lat="45.76249" lon="4.32347">
        <ele>468</ele>
        <time>2017-04-13T16:50:40.1Z</time>
      </trkpt>
      <trkpt lat="45.76249" lon="4.32349">
        <ele>467</ele>
        <time>2017-04-13T16:50:42.1Z</time>
      </trkpt>
      <trkpt lat="45.76248" lon="4.32351">
        <ele>468</ele>
        <time>2017-04-13T16:50:44.1Z</time>
      </trkpt>
      <trkpt lat="45.76246" lon="4.32353">
        <ele>467</ele>
        <time>2017-04-13T16:50:46.1Z</time>
      </trkpt>
      <trkpt lat="45.76245" lon="4.32353">
        <ele>467</ele>
        <time>2017-04-13T16:50:48.1Z</time>
      </trkpt>
      <trkpt lat="45.76241" lon="4.32347">
        <ele>467</ele>
        <time>2017-04-13T16:50:51.1Z</time>
      </trkpt>
      <trkpt lat="45.76236" lon="4.3234">
        <ele>467</ele>
        <time>2017-04-13T16:50:53.1Z</time>
      </trkpt>
      <trkpt lat="45.76229" lon="4.3233">
        <ele>467</ele>
        <time>2017-04-13T16:50:56.1Z</time>
      </trkpt>
      <trkpt lat="45.76219" lon="4.32325">
        <ele>466</ele>
        <time>2017-04-13T16:50:59.1Z</time>
      </trkpt>
      <trkpt lat="45.76214" lon="4.32323">
        <ele>466</ele>
        <time>2017-04-13T16:51:02.1Z</time>
      </trkpt>
      <trkpt lat="45.76211" lon="4.32319">
        <ele>467</ele>
        <time>2017-04-13T16:51:05.1Z</time>
      </trkpt>
      <trkpt lat="45.76208" lon="4.32317">
        <ele>467</ele>
        <time>2017-04-13T16:51:07.1Z</time>
      </trkpt>
      <trkpt lat="45.76207" lon="4.32314">
        <ele>468</ele>
        <time>2017-04-13T16:51:10.1Z</time>
      </trkpt>
      <trkpt lat="45.76206" lon="4.32311">
        <ele>469</ele>
        <time>2017-04-13T16:51:12.1Z</time>
      </trkpt>
      <trkpt lat="45.76204" lon="4.32306">
        <ele>469</ele>
        <time>2017-04-13T16:51:15.1Z</time>
      </trkpt>
      <trkpt lat="45.76204" lon="4.32304">
        <ele>470</ele>
        <time>2017-04-13T16:51:17.1Z</time>
      </trkpt>
      <trkpt lat="45.76203" lon="4.32302">
        <ele>470</ele>
        <time>2017-04-13T16:51:19.1Z</time>
      </trkpt>
      <trkpt lat="45.76203" lon="4.32299">
        <ele>471</ele>
        <time>2017-04-13T16:51:21.1Z</time>
      </trkpt>
      <trkpt lat="45.76202" lon="4.32295">
        <ele>471</ele>
        <time>2017-04-13T16:51:23.1Z</time>
      </trkpt>
      <trkpt lat="45.762" lon="4.32293">
        <ele>472</ele>
        <time>2017-04-13T16:51:25.1Z</time>
      </trkpt>
      <trkpt lat="45.76198" lon="4.3229">
        <ele>472</ele>
        <time>2017-04-13T16:51:27.1Z</time>
      </trkpt>
      <trkpt lat="45.76195" lon="4.32286">
        <ele>473</ele>
        <time>2017-04-13T16:51:30.1Z</time>
      </trkpt>
      <trkpt lat="45.76194" lon="4.32284">
        <ele>473</ele>
        <time>2017-04-13T16:51:32.1Z</time>
      </trkpt>
      <trkpt lat="45.76192" lon="4.32282">
        <ele>473</ele>
        <time>2017-04-13T16:51:34.1Z</time>
      </trkpt>
      <trkpt lat="45.7619" lon="4.3228">
        <ele>474</ele>
        <time>2017-04-13T16:51:36.1Z</time>
      </trkpt>
      <trkpt lat="45.76187" lon="4.32278">
        <ele>474</ele>
        <time>2017-04-13T16:51:38.1Z</time>
      </trkpt>
      <trkpt lat="45.76183" lon="4.32275">
        <ele>474</ele>
        <time>2017-04-13T16:51:41.1Z</time>
      </trkpt>
      <trkpt lat="45.76179" lon="4.32271">
        <ele>474</ele>
        <time>2017-04-13T16:51:44.1Z</time>
      </trkpt>
      <trkpt lat="45.76176" lon="4.32268">
        <ele>474</ele>
        <time>2017-04-13T16:51:46.1Z</time>
      </trkpt>
      <trkpt lat="45.76173" lon="4.32264">
        <ele>475</ele>
        <time>2017-04-13T16:51:49.1Z</time>
      </trkpt>
      <trkpt lat="45.7617" lon="4.32261">
        <ele>475</ele>
        <time>2017-04-13T16:51:51.1Z</time>
      </trkpt>
      <trkpt lat="45.76165" lon="4.32257">
        <ele>475</ele>
        <time>2017-04-13T16:51:54.1Z</time>
      </trkpt>
      <trkpt lat="45.76163" lon="4.32254">
        <ele>475</ele>
        <time>2017-04-13T16:51:56.1Z</time>
      </trkpt>
      <trkpt lat="45.7616" lon="4.32252">
        <ele>476</ele>
        <time>2017-04-13T16:51:58.1Z</time>
      </trkpt>
      <trkpt lat="45.76156" lon="4.32248">
        <ele>476</ele>
        <time>2017-04-13T16:52:01.1Z</time>
      </trkpt>
      <trkpt lat="45.76152" lon="4.32244">
        <ele>477</ele>
        <time>2017-04-13T16:52:04.1Z</time>
      </trkpt>
      <trkpt lat="45.7615" lon="4.32241">
        <ele>477</ele>
        <time>2017-04-13T16:52:06.1Z</time>
      </trkpt>
      <trkpt lat="45.76148" lon="4.32239">
        <ele>478</ele>
        <time>2017-04-13T16:52:08.1Z</time>
      </trkpt>
      <trkpt lat="45.76145" lon="4.32236">
        <ele>478</ele>
        <time>2017-04-13T16:52:10.1Z</time>
      </trkpt>
      <trkpt lat="45.76141" lon="4.32232">
        <ele>478</ele>
        <time>2017-04-13T16:52:13.1Z</time>
      </trkpt>
      <trkpt lat="45.76138" lon="4.32228">
        <ele>479</ele>
        <time>2017-04-13T16:52:16.1Z</time>
      </trkpt>
      <trkpt lat="45.76134" lon="4.32225">
        <ele>479</ele>
        <time>2017-04-13T16:52:19.1Z</time>
      </trkpt>
      <trkpt lat="45.76131" lon="4.32223">
        <ele>479</ele>
        <time>2017-04-13T16:52:21.1Z</time>
      </trkpt>
      <trkpt lat="45.76129" lon="4.3222">
        <ele>479</ele>
        <time>2017-04-13T16:52:23.1Z</time>
      </trkpt>
      <trkpt lat="45.76126" lon="4.32217">
        <ele>479</ele>
        <time>2017-04-13T16:52:26.1Z</time>
      </trkpt>
      <trkpt lat="45.76122" lon="4.32213">
        <ele>480</ele>
        <time>2017-04-13T16:52:29.1Z</time>
      </trkpt>
      <trkpt lat="45.76118" lon="4.32211">
        <ele>481</ele>
        <time>2017-04-13T16:52:32.1Z</time>
      </trkpt>
      <trkpt lat="45.76114" lon="4.32208">
        <ele>481</ele>
        <time>2017-04-13T16:52:35.1Z</time>
      </trkpt>
      <trkpt lat="45.76112" lon="4.32206">
        <ele>481</ele>
        <time>2017-04-13T16:52:37.1Z</time>
      </trkpt>
      <trkpt lat="45.76108" lon="4.32204">
        <ele>481</ele>
        <time>2017-04-13T16:52:40.1Z</time>
      </trkpt>
      <trkpt lat="45.76105" lon="4.32201">
        <ele>481</ele>
        <time>2017-04-13T16:52:43.1Z</time>
      </trkpt>
      <trkpt lat="45.761" lon="4.32198">
        <ele>482</ele>
        <time>2017-04-13T16:52:46.1Z</time>
      </trkpt>
      <trkpt lat="45.76098" lon="4.32196">
        <ele>482</ele>
        <time>2017-04-13T16:52:48.1Z</time>
      </trkpt>
      <trkpt lat="45.76095" lon="4.32195">
        <ele>482</ele>
        <time>2017-04-13T16:52:50.1Z</time>
      </trkpt>
      <trkpt lat="45.76091" lon="4.32194">
        <ele>482</ele>
        <time>2017-04-13T16:52:53.1Z</time>
      </trkpt>
      <trkpt lat="45.76087" lon="4.32193">
        <ele>483</ele>
        <time>2017-04-13T16:52:55.1Z</time>
      </trkpt>
      <trkpt lat="45.76083" lon="4.32191">
        <ele>484</ele>
        <time>2017-04-13T16:52:58.1Z</time>
      </trkpt>
      <trkpt lat="45.7608" lon="4.3219">
        <ele>484</ele>
        <time>2017-04-13T16:53:00.1Z</time>
      </trkpt>
      <trkpt lat="45.76076" lon="4.32188">
        <ele>485</ele>
        <time>2017-04-13T16:53:03.1Z</time>
      </trkpt>
      <trkpt lat="45.76073" lon="4.32188">
        <ele>485</ele>
        <time>2017-04-13T16:53:05.1Z</time>
      </trkpt>
      <trkpt lat="45.76069" lon="4.32187">
        <ele>486</ele>
        <time>2017-04-13T16:53:08.1Z</time>
      </trkpt>
      <trkpt lat="45.76066" lon="4.32185">
        <ele>486</ele>
        <time>2017-04-13T16:53:10.1Z</time>
      </trkpt>
      <trkpt lat="45.76062" lon="4.32184">
        <ele>486</ele>
        <time>2017-04-13T16:53:12.1Z</time>
      </trkpt>
      <trkpt lat="45.76058" lon="4.32183">
        <ele>486</ele>
        <time>2017-04-13T16:53:15.1Z</time>
      </trkpt>
      <trkpt lat="45.76056" lon="4.32182">
        <ele>486</ele>
        <time>2017-04-13T16:53:17.1Z</time>
      </trkpt>
      <trkpt lat="45.76051" lon="4.3218">
        <ele>487</ele>
        <time>2017-04-13T16:53:20.1Z</time>
      </trkpt>
      <trkpt lat="45.76048" lon="4.3218">
        <ele>487</ele>
        <time>2017-04-13T16:53:22.1Z</time>
      </trkpt>
      <trkpt lat="45.76045" lon="4.3218">
        <ele>488</ele>
        <time>2017-04-13T16:53:24.1Z</time>
      </trkpt>
      <trkpt lat="45.76041" lon="4.32181">
        <ele>488</ele>
        <time>2017-04-13T16:53:27.1Z</time>
      </trkpt>
      <trkpt lat="45.76038" lon="4.32182">
        <ele>488</ele>
        <time>2017-04-13T16:53:29.1Z</time>
      </trkpt>
      <trkpt lat="45.76036" lon="4.32183">
        <ele>489</ele>
        <time>2017-04-13T16:53:31.1Z</time>
      </trkpt>
      <trkpt lat="45.76034" lon="4.32186">
        <ele>489</ele>
        <time>2017-04-13T16:53:33.1Z</time>
      </trkpt>
      <trkpt lat="45.76033" lon="4.3219">
        <ele>490</ele>
        <time>2017-04-13T16:53:35.1Z</time>
      </trkpt>
      <trkpt lat="45.76031" lon="4.32194">
        <ele>490</ele>
        <time>2017-04-13T16:53:37.1Z</time>
      </trkpt>
      <trkpt lat="45.76028" lon="4.32197">
        <ele>491</ele>
        <time>2017-04-13T16:53:39.1Z</time>
      </trkpt>
      <trkpt lat="45.76023" lon="4.32199">
        <ele>491</ele>
        <time>2017-04-13T16:53:42.1Z</time>
      </trkpt>
      <trkpt lat="45.7602" lon="4.32198">
        <ele>492</ele>
        <time>2017-04-13T16:53:44.1Z</time>
      </trkpt>
      <trkpt lat="45.76017" lon="4.32198">
        <ele>492</ele>
        <time>2017-04-13T16:53:46.1Z</time>
      </trkpt>
      <trkpt lat="45.76013" lon="4.32196">
        <ele>493</ele>
        <time>2017-04-13T16:53:49.1Z</time>
      </trkpt>
      <trkpt lat="45.76011" lon="4.32194">
        <ele>493</ele>
        <time>2017-04-13T16:53:51.1Z</time>
      </trkpt>
      <trkpt lat="45.76009" lon="4.32192">
        <ele>492</ele>
        <time>2017-04-13T16:53:53.1Z</time>
      </trkpt>
      <trkpt lat="45.76007" lon="4.32191">
        <ele>493</ele>
        <time>2017-04-13T16:53:55.1Z</time>
      </trkpt>
      <trkpt lat="45.76005" lon="4.3219">
        <ele>493</ele>
        <time>2017-04-13T16:53:57.1Z</time>
      </trkpt>
      <trkpt lat="45.76001" lon="4.32188">
        <ele>493</ele>
        <time>2017-04-13T16:54:00.1Z</time>
      </trkpt>
      <trkpt lat="45.75999" lon="4.32188">
        <ele>493</ele>
        <time>2017-04-13T16:54:02.1Z</time>
      </trkpt>
      <trkpt lat="45.75995" lon="4.32187">
        <ele>493</ele>
        <time>2017-04-13T16:54:05.1Z</time>
      </trkpt>
      <trkpt lat="45.75991" lon="4.32186">
        <ele>493</ele>
        <time>2017-04-13T16:54:08.1Z</time>
      </trkpt>
      <trkpt lat="45.75987" lon="4.32185">
        <ele>493</ele>
        <time>2017-04-13T16:54:11.1Z</time>
      </trkpt>
      <trkpt lat="45.75983" lon="4.32184">
        <ele>494</ele>
        <time>2017-04-13T16:54:13.1Z</time>
      </trkpt>
      <trkpt lat="45.7598" lon="4.32184">
        <ele>494</ele>
        <time>2017-04-13T16:54:15.1Z</time>
      </trkpt>
      <trkpt lat="45.75976" lon="4.32183">
        <ele>494</ele>
        <time>2017-04-13T16:54:17.1Z</time>
      </trkpt>
      <trkpt lat="45.75973" lon="4.32183">
        <ele>493</ele>
        <time>2017-04-13T16:54:19.1Z</time>
      </trkpt>
      <trkpt lat="45.75967" lon="4.32181">
        <ele>493</ele>
        <time>2017-04-13T16:54:22.1Z</time>
      </trkpt>
      <trkpt lat="45.75964" lon="4.32181">
        <ele>494</ele>
        <time>2017-04-13T16:54:24.1Z</time>
      </trkpt>
      <trkpt lat="45.7596" lon="4.32181">
        <ele>494</ele>
        <time>2017-04-13T16:54:26.1Z</time>
      </trkpt>
      <trkpt lat="45.75957" lon="4.3218">
        <ele>494</ele>
        <time>2017-04-13T16:54:28.1Z</time>
      </trkpt>
      <trkpt lat="45.75954" lon="4.3218">
        <ele>495</ele>
        <time>2017-04-13T16:54:30.1Z</time>
      </trkpt>
      <trkpt lat="45.7595" lon="4.3218">
        <ele>495</ele>
        <time>2017-04-13T16:54:32.1Z</time>
      </trkpt>
      <trkpt lat="45.75947" lon="4.3218">
        <ele>495</ele>
        <time>2017-04-13T16:54:34.1Z</time>
      </trkpt>
      <trkpt lat="45.75943" lon="4.32179">
        <ele>494</ele>
        <time>2017-04-13T16:54:37.1Z</time>
      </trkpt>
      <trkpt lat="45.75938" lon="4.3218">
        <ele>494</ele>
        <time>2017-04-13T16:54:40.1Z</time>
      </trkpt>
      <trkpt lat="45.75936" lon="4.3218">
        <ele>494</ele>
        <time>2017-04-13T16:54:42.1Z</time>
      </trkpt>
      <trkpt lat="45.75934" lon="4.32181">
        <ele>494</ele>
        <time>2017-04-13T16:54:44.1Z</time>
      </trkpt>
      <trkpt lat="45.75932" lon="4.32181">
        <ele>494</ele>
        <time>2017-04-13T16:54:46.1Z</time>
      </trkpt>
      <trkpt lat="45.75929" lon="4.32182">
        <ele>494</ele>
        <time>2017-04-13T16:54:48.1Z</time>
      </trkpt>
      <trkpt lat="45.75926" lon="4.32182">
        <ele>494</ele>
        <time>2017-04-13T16:54:50.1Z</time>
      </trkpt>
      <trkpt lat="45.75924" lon="4.32183">
        <ele>495</ele>
        <time>2017-04-13T16:54:52.1Z</time>
      </trkpt>
      <trkpt lat="45.75919" lon="4.32185">
        <ele>495</ele>
        <time>2017-04-13T16:54:55.1Z</time>
      </trkpt>
      <trkpt lat="45.75915" lon="4.32185">
        <ele>495</ele>
        <time>2017-04-13T16:54:57.1Z</time>
      </trkpt>
      <trkpt lat="45.75911" lon="4.32187">
        <ele>495</ele>
        <time>2017-04-13T16:54:59.1Z</time>
      </trkpt>
      <trkpt lat="45.75908" lon="4.32189">
        <ele>495</ele>
        <time>2017-04-13T16:55:01.1Z</time>
      </trkpt>
      <trkpt lat="45.75904" lon="4.32191">
        <ele>495</ele>
        <time>2017-04-13T16:55:03.1Z</time>
      </trkpt>
      <trkpt lat="45.75901" lon="4.32193">
        <ele>495</ele>
        <time>2017-04-13T16:55:05.1Z</time>
      </trkpt>
      <trkpt lat="45.75896" lon="4.32197">
        <ele>495</ele>
        <time>2017-04-13T16:55:08.1Z</time>
      </trkpt>
      <trkpt lat="45.75893" lon="4.322">
        <ele>495</ele>
        <time>2017-04-13T16:55:10.1Z</time>
      </trkpt>
      <trkpt lat="45.75891" lon="4.32204">
        <ele>495</ele>
        <time>2017-04-13T16:55:12.1Z</time>
      </trkpt>
      <trkpt lat="45.75889" lon="4.32207">
        <ele>495</ele>
        <time>2017-04-13T16:55:14.1Z</time>
      </trkpt>
      <trkpt lat="45.75887" lon="4.32211">
        <ele>496</ele>
        <time>2017-04-13T16:55:16.1Z</time>
      </trkpt>
      <trkpt lat="45.75885" lon="4.32215">
        <ele>496</ele>
        <time>2017-04-13T16:55:18.1Z</time>
      </trkpt>
      <trkpt lat="45.75883" lon="4.32218">
        <ele>496</ele>
        <time>2017-04-13T16:55:20.1Z</time>
      </trkpt>
      <trkpt lat="45.75879" lon="4.32224">
        <ele>497</ele>
        <time>2017-04-13T16:55:23.1Z</time>
      </trkpt>
      <trkpt lat="45.75877" lon="4.32228">
        <ele>497</ele>
        <time>2017-04-13T16:55:25.1Z</time>
      </trkpt>
      <trkpt lat="45.75875" lon="4.32232">
        <ele>498</ele>
        <time>2017-04-13T16:55:27.1Z</time>
      </trkpt>
      <trkpt lat="45.75873" lon="4.32235">
        <ele>498</ele>
        <time>2017-04-13T16:55:29.1Z</time>
      </trkpt>
      <trkpt lat="45.75871" lon="4.32239">
        <ele>499</ele>
        <time>2017-04-13T16:55:31.1Z</time>
      </trkpt>
      <trkpt lat="45.75869" lon="4.32243">
        <ele>499</ele>
        <time>2017-04-13T16:55:33.1Z</time>
      </trkpt>
      <trkpt lat="45.75867" lon="4.32247">
        <ele>499</ele>
        <time>2017-04-13T16:55:35.1Z</time>
      </trkpt>
      <trkpt lat="45.75864" lon="4.32254">
        <ele>500</ele>
        <time>2017-04-13T16:55:38.1Z</time>
      </trkpt>
      <trkpt lat="45.75862" lon="4.32258">
        <ele>500</ele>
        <time>2017-04-13T16:55:40.1Z</time>
      </trkpt>
      <trkpt lat="45.7586" lon="4.32262">
        <ele>500</ele>
        <time>2017-04-13T16:55:42.1Z</time>
      </trkpt>
      <trkpt lat="45.75859" lon="4.32266">
        <ele>500</ele>
        <time>2017-04-13T16:55:44.1Z</time>
      </trkpt>
      <trkpt lat="45.75857" lon="4.32269">
        <ele>500</ele>
        <time>2017-04-13T16:55:46.1Z</time>
      </trkpt>
      <trkpt lat="45.75856" lon="4.32273">
        <ele>500</ele>
        <time>2017-04-13T16:55:48.1Z</time>
      </trkpt>
      <trkpt lat="45.75854" lon="4.32278">
        <ele>500</ele>
        <time>2017-04-13T16:55:50.1Z</time>
      </trkpt>
      <trkpt lat="45.75853" lon="4.32281">
        <ele>500</ele>
        <time>2017-04-13T16:55:53.1Z</time>
      </trkpt>
      <trkpt lat="45.75851" lon="4.32285">
        <ele>500</ele>
        <time>2017-04-13T16:55:55.1Z</time>
      </trkpt>
      <trkpt lat="45.75849" lon="4.32288">
        <ele>500</ele>
        <time>2017-04-13T16:55:57.1Z</time>
      </trkpt>
      <trkpt lat="45.75848" lon="4.32292">
        <ele>500</ele>
        <time>2017-04-13T16:55:59.1Z</time>
      </trkpt>
      <trkpt lat="45.75846" lon="4.32295">
        <ele>500</ele>
        <time>2017-04-13T16:56:01.1Z</time>
      </trkpt>
      <trkpt lat="45.75845" lon="4.32299">
        <ele>500</ele>
        <time>2017-04-13T16:56:03.1Z</time>
      </trkpt>
      <trkpt lat="45.75843" lon="4.32305">
        <ele>500</ele>
        <time>2017-04-13T16:56:05.1Z</time>
      </trkpt>
      <trkpt lat="45.75842" lon="4.32309">
        <ele>500</ele>
        <time>2017-04-13T16:56:08.1Z</time>
      </trkpt>
      <trkpt lat="45.7584" lon="4.32313">
        <ele>500</ele>
        <time>2017-04-13T16:56:10.1Z</time>
      </trkpt>
      <trkpt lat="45.75839" lon="4.32317">
        <ele>500</ele>
        <time>2017-04-13T16:56:12.1Z</time>
      </trkpt>
      <trkpt lat="45.75838" lon="4.32321">
        <ele>500</ele>
        <time>2017-04-13T16:56:14.1Z</time>
      </trkpt>
      <trkpt lat="45.75837" lon="4.32325">
        <ele>500</ele>
        <time>2017-04-13T16:56:16.1Z</time>
      </trkpt>
      <trkpt lat="45.75835" lon="4.32332">
        <ele>500</ele>
        <time>2017-04-13T16:56:18.1Z</time>
      </trkpt>
      <trkpt lat="45.75834" lon="4.32336">
        <ele>499</ele>
        <time>2017-04-13T16:56:21.1Z</time>
      </trkpt>
      <trkpt lat="45.75832" lon="4.3234">
        <ele>499</ele>
        <time>2017-04-13T16:56:23.1Z</time>
      </trkpt>
      <trkpt lat="45.75831" lon="4.32343">
        <ele>499</ele>
        <time>2017-04-13T16:56:25.1Z</time>
      </trkpt>
      <trkpt lat="45.7583" lon="4.32347">
        <ele>499</ele>
        <time>2017-04-13T16:56:27.1Z</time>
      </trkpt>
      <trkpt lat="45.75828" lon="4.32351">
        <ele>499</ele>
        <time>2017-04-13T16:56:29.1Z</time>
      </trkpt>
      <trkpt lat="45.75827" lon="4.32356">
        <ele>499</ele>
        <time>2017-04-13T16:56:31.1Z</time>
      </trkpt>
      <trkpt lat="45.7583" lon="4.32358">
        <ele>498</ele>
        <time>2017-04-13T16:56:34.1Z</time>
      </trkpt>
      <trkpt lat="45.75834" lon="4.32357">
        <ele>498</ele>
        <time>2017-04-13T16:56:37.1Z</time>
      </trkpt>
      <trkpt lat="45.75838" lon="4.32356">
        <ele>499</ele>
        <time>2017-04-13T16:56:40.1Z</time>
      </trkpt>
      <trkpt lat="45.75843" lon="4.32355">
        <ele>499</ele>
        <time>2017-04-13T16:56:42.1Z</time>
      </trkpt>
      <trkpt lat="45.75846" lon="4.32356">
        <ele>499</ele>
        <time>2017-04-13T16:56:44.1Z</time>
      </trkpt>
      <trkpt lat="45.7585" lon="4.32356">
        <ele>500</ele>
        <time>2017-04-13T16:56:46.1Z</time>
      </trkpt>
      <trkpt lat="45.75853" lon="4.32357">
        <ele>500</ele>
        <time>2017-04-13T16:56:49.1Z</time>
      </trkpt>
      <trkpt lat="45.75856" lon="4.32357">
        <ele>501</ele>
        <time>2017-04-13T16:56:51.1Z</time>
      </trkpt>
      <trkpt lat="45.7586" lon="4.32358">
        <ele>502</ele>
        <time>2017-04-13T16:56:54.1Z</time>
      </trkpt>
      <trkpt lat="45.75863" lon="4.32359">
        <ele>502</ele>
        <time>2017-04-13T16:56:56.1Z</time>
      </trkpt>
      <trkpt lat="45.75866" lon="4.3236">
        <ele>502</ele>
        <time>2017-04-13T16:56:58.1Z</time>
      </trkpt>
      <trkpt lat="45.75871" lon="4.3236">
        <ele>502</ele>
        <time>2017-04-13T16:57:00.1Z</time>
      </trkpt>
      <trkpt lat="45.75873" lon="4.32361">
        <ele>503</ele>
        <time>2017-04-13T16:57:02.1Z</time>
      </trkpt>
      <trkpt lat="45.75876" lon="4.32361">
        <ele>503</ele>
        <time>2017-04-13T16:57:04.1Z</time>
      </trkpt>
      <trkpt lat="45.75879" lon="4.32361">
        <ele>503</ele>
        <time>2017-04-13T16:57:07.1Z</time>
      </trkpt>
      <trkpt lat="45.75884" lon="4.32362">
        <ele>503</ele>
        <time>2017-04-13T16:57:10.1Z</time>
      </trkpt>
      <trkpt lat="45.75887" lon="4.32363">
        <ele>503</ele>
        <time>2017-04-13T16:57:12.1Z</time>
      </trkpt>
      <trkpt lat="45.75891" lon="4.32364">
        <ele>504</ele>
        <time>2017-04-13T16:57:14.1Z</time>
      </trkpt>
      <trkpt lat="45.75894" lon="4.32365">
        <ele>505</ele>
        <time>2017-04-13T16:57:16.1Z</time>
      </trkpt>
      <trkpt lat="45.75897" lon="4.32365">
        <ele>505</ele>
        <time>2017-04-13T16:57:19.1Z</time>
      </trkpt>
      <trkpt lat="45.75899" lon="4.32365">
        <ele>505</ele>
        <time>2017-04-13T16:57:21.1Z</time>
      </trkpt>
      <trkpt lat="45.75903" lon="4.32367">
        <ele>506</ele>
        <time>2017-04-13T16:57:24.1Z</time>
      </trkpt>
      <trkpt lat="45.75905" lon="4.32369">
        <ele>506</ele>
        <time>2017-04-13T16:57:26.1Z</time>
      </trkpt>
      <trkpt lat="45.75908" lon="4.3237">
        <ele>507</ele>
        <time>2017-04-13T16:57:28.1Z</time>
      </trkpt>
      <trkpt lat="45.75911" lon="4.32373">
        <ele>507</ele>
        <time>2017-04-13T16:57:31.1Z</time>
      </trkpt>
      <trkpt lat="45.75914" lon="4.32374">
        <ele>507</ele>
        <time>2017-04-13T16:57:33.1Z</time>
      </trkpt>
      <trkpt lat="45.75918" lon="4.32376">
        <ele>507</ele>
        <time>2017-04-13T16:57:36.1Z</time>
      </trkpt>
      <trkpt lat="45.75922" lon="4.32378">
        <ele>507</ele>
        <time>2017-04-13T16:57:38.1Z</time>
      </trkpt>
      <trkpt lat="45.75924" lon="4.32379">
        <ele>507</ele>
        <time>2017-04-13T16:57:40.1Z</time>
      </trkpt>
      <trkpt lat="45.75927" lon="4.32381">
        <ele>507</ele>
        <time>2017-04-13T16:57:43.1Z</time>
      </trkpt>
      <trkpt lat="45.7593" lon="4.32384">
        <ele>507</ele>
        <time>2017-04-13T16:57:45.1Z</time>
      </trkpt>
      <trkpt lat="45.75933" lon="4.32385">
        <ele>507</ele>
        <time>2017-04-13T16:57:47.1Z</time>
      </trkpt>
      <trkpt lat="45.75938" lon="4.32388">
        <ele>507</ele>
        <time>2017-04-13T16:57:49.1Z</time>
      </trkpt>
      <trkpt lat="45.75942" lon="4.32389">
        <ele>507</ele>
        <time>2017-04-13T16:57:52.1Z</time>
      </trkpt>
      <trkpt lat="45.75944" lon="4.32391">
        <ele>507</ele>
        <time>2017-04-13T16:57:54.1Z</time>
      </trkpt>
      <trkpt lat="45.75947" lon="4.32393">
        <ele>507</ele>
        <time>2017-04-13T16:57:56.1Z</time>
      </trkpt>
      <trkpt lat="45.75951" lon="4.32395">
        <ele>507</ele>
        <time>2017-04-13T16:57:58.1Z</time>
      </trkpt>
      <trkpt lat="45.75953" lon="4.32397">
        <ele>507</ele>
        <time>2017-04-13T16:58:00.1Z</time>
      </trkpt>
      <trkpt lat="45.75956" lon="4.32399">
        <ele>507</ele>
        <time>2017-04-13T16:58:03.1Z</time>
      </trkpt>
      <trkpt lat="45.7596" lon="4.32402">
        <ele>507</ele>
        <time>2017-04-13T16:58:06.1Z</time>
      </trkpt>
      <trkpt lat="45.75964" lon="4.32405">
        <ele>508</ele>
        <time>2017-04-13T16:58:08.1Z</time>
      </trkpt>
      <trkpt lat="45.75966" lon="4.32407">
        <ele>508</ele>
        <time>2017-04-13T16:58:10.1Z</time>
      </trkpt>
      <trkpt lat="45.75968" lon="4.32408">
        <ele>508</ele>
        <time>2017-04-13T16:58:13.1Z</time>
      </trkpt>
      <trkpt lat="45.75971" lon="4.3241">
        <ele>508</ele>
        <time>2017-04-13T16:58:15.1Z</time>
      </trkpt>
      <trkpt lat="45.75975" lon="4.32414">
        <ele>507</ele>
        <time>2017-04-13T16:58:17.1Z</time>
      </trkpt>
      <trkpt lat="45.75977" lon="4.32416">
        <ele>507</ele>
        <time>2017-04-13T16:58:19.1Z</time>
      </trkpt>
      <trkpt lat="45.7598" lon="4.32419">
        <ele>507</ele>
        <time>2017-04-13T16:58:22.1Z</time>
      </trkpt>
      <trkpt lat="45.75982" lon="4.32421">
        <ele>507</ele>
        <time>2017-04-13T16:58:24.1Z</time>
      </trkpt>
      <trkpt lat="45.75985" lon="4.32424">
        <ele>508</ele>
        <time>2017-04-13T16:58:26.1Z</time>
      </trkpt>
      <trkpt lat="45.75987" lon="4.32427">
        <ele>507</ele>
        <time>2017-04-13T16:58:28.1Z</time>
      </trkpt>
      <trkpt lat="45.75991" lon="4.32431">
        <ele>507</ele>
        <time>2017-04-13T16:58:30.1Z</time>
      </trkpt>
      <trkpt lat="45.75994" lon="4.32433">
        <ele>507</ele>
        <time>2017-04-13T16:58:33.1Z</time>
      </trkpt>
      <trkpt lat="45.75996" lon="4.32436">
        <ele>507</ele>
        <time>2017-04-13T16:58:35.1Z</time>
      </trkpt>
      <trkpt lat="45.75999" lon="4.32438">
        <ele>508</ele>
        <time>2017-04-13T16:58:37.1Z</time>
      </trkpt>
      <trkpt lat="45.76001" lon="4.3244">
        <ele>508</ele>
        <time>2017-04-13T16:58:39.1Z</time>
      </trkpt>
      <trkpt lat="45.76003" lon="4.32443">
        <ele>508</ele>
        <time>2017-04-13T16:58:41.1Z</time>
      </trkpt>
      <trkpt lat="45.76006" lon="4.32447">
        <ele>508</ele>
        <time>2017-04-13T16:58:43.1Z</time>
      </trkpt>
      <trkpt lat="45.76008" lon="4.32449">
        <ele>508</ele>
        <time>2017-04-13T16:58:45.1Z</time>
      </trkpt>
      <trkpt lat="45.76011" lon="4.32451">
        <ele>508</ele>
        <time>2017-04-13T16:58:48.1Z</time>
      </trkpt>
      <trkpt lat="45.76013" lon="4.32454">
        <ele>508</ele>
        <time>2017-04-13T16:58:50.1Z</time>
      </trkpt>
      <trkpt lat="45.76016" lon="4.32457">
        <ele>508</ele>
        <time>2017-04-13T16:58:52.1Z</time>
      </trkpt>
      <trkpt lat="45.76019" lon="4.32459">
        <ele>508</ele>
        <time>2017-04-13T16:58:54.1Z</time>
      </trkpt>
      <trkpt lat="45.76022" lon="4.32462">
        <ele>508</ele>
        <time>2017-04-13T16:58:56.1Z</time>
      </trkpt>
      <trkpt lat="45.76026" lon="4.32466">
        <ele>508</ele>
        <time>2017-04-13T16:58:58.1Z</time>
      </trkpt>
      <trkpt lat="45.76028" lon="4.32469">
        <ele>508</ele>
        <time>2017-04-13T16:59:00.1Z</time>
      </trkpt>
      <trkpt lat="45.7603" lon="4.32471">
        <ele>507</ele>
        <time>2017-04-13T16:59:03.1Z</time>
      </trkpt>
      <trkpt lat="45.76033" lon="4.32473">
        <ele>508</ele>
        <time>2017-04-13T16:59:05.1Z</time>
      </trkpt>
      <trkpt lat="45.76035" lon="4.32475">
        <ele>508</ele>
        <time>2017-04-13T16:59:07.1Z</time>
      </trkpt>
      <trkpt lat="45.76037" lon="4.32478">
        <ele>508</ele>
        <time>2017-04-13T16:59:09.1Z</time>
      </trkpt>
      <trkpt lat="45.76041" lon="4.32482">
        <ele>508</ele>
        <time>2017-04-13T16:59:11.1Z</time>
      </trkpt>
      <trkpt lat="45.76043" lon="4.32485">
        <ele>508</ele>
        <time>2017-04-13T16:59:13.1Z</time>
      </trkpt>
      <trkpt lat="45.76045" lon="4.32489">
        <ele>508</ele>
        <time>2017-04-13T16:59:15.1Z</time>
      </trkpt>
      <trkpt lat="45.76048" lon="4.32492">
        <ele>507</ele>
        <time>2017-04-13T16:59:17.1Z</time>
      </trkpt>
      <trkpt lat="45.76051" lon="4.32496">
        <ele>508</ele>
        <time>2017-04-13T16:59:19.1Z</time>
      </trkpt>
      <trkpt lat="45.76053" lon="4.32499">
        <ele>508</ele>
        <time>2017-04-13T16:59:22.1Z</time>
      </trkpt>
      <trkpt lat="45.76056" lon="4.32506">
        <ele>508</ele>
        <time>2017-04-13T16:59:24.1Z</time>
      </trkpt>
      <trkpt lat="45.76058" lon="4.32509">
        <ele>508</ele>
        <time>2017-04-13T16:59:26.1Z</time>
      </trkpt>
      <trkpt lat="45.7606" lon="4.32513">
        <ele>508</ele>
        <time>2017-04-13T16:59:28.1Z</time>
      </trkpt>
      <trkpt lat="45.76062" lon="4.32516">
        <ele>508</ele>
        <time>2017-04-13T16:59:30.1Z</time>
      </trkpt>
      <trkpt lat="45.76064" lon="4.3252">
        <ele>508</ele>
        <time>2017-04-13T16:59:32.1Z</time>
      </trkpt>
      <trkpt lat="45.76065" lon="4.32524">
        <ele>508</ele>
        <time>2017-04-13T16:59:34.1Z</time>
      </trkpt>
      <trkpt lat="45.76068" lon="4.32528">
        <ele>508</ele>
        <time>2017-04-13T16:59:37.1Z</time>
      </trkpt>
      <trkpt lat="45.7607" lon="4.32534">
        <ele>508</ele>
        <time>2017-04-13T16:59:39.1Z</time>
      </trkpt>
      <trkpt lat="45.76071" lon="4.32538">
        <ele>509</ele>
        <time>2017-04-13T16:59:41.1Z</time>
      </trkpt>
      <trkpt lat="45.76072" lon="4.32542">
        <ele>509</ele>
        <time>2017-04-13T16:59:43.1Z</time>
      </trkpt>
      <trkpt lat="45.76072" lon="4.32545">
        <ele>510</ele>
        <time>2017-04-13T16:59:45.1Z</time>
      </trkpt>
      <trkpt lat="45.76075" lon="4.32549">
        <ele>510</ele>
        <time>2017-04-13T16:59:47.1Z</time>
      </trkpt>
      <trkpt lat="45.76076" lon="4.32552">
        <ele>510</ele>
        <time>2017-04-13T16:59:50.1Z</time>
      </trkpt>
      <trkpt lat="45.76079" lon="4.32558">
        <ele>510</ele>
        <time>2017-04-13T16:59:52.1Z</time>
      </trkpt>
      <trkpt lat="45.76081" lon="4.32562">
        <ele>511</ele>
        <time>2017-04-13T16:59:54.1Z</time>
      </trkpt>
      <trkpt lat="45.76083" lon="4.32565">
        <ele>511</ele>
        <time>2017-04-13T16:59:56.1Z</time>
      </trkpt>
      <trkpt lat="45.76084" lon="4.32568">
        <ele>512</ele>
        <time>2017-04-13T16:59:58.1Z</time>
      </trkpt>
      <trkpt lat="45.76085" lon="4.32572">
        <ele>512</ele>
        <time>2017-04-13T17:00:00.1Z</time>
      </trkpt>
      <trkpt lat="45.76086" lon="4.32576">
        <ele>512</ele>
        <time>2017-04-13T17:00:03.1Z</time>
      </trkpt>
      <trkpt lat="45.76088" lon="4.32581">
        <ele>513</ele>
        <time>2017-04-13T17:00:05.1Z</time>
      </trkpt>
      <trkpt lat="45.76089" lon="4.32584">
        <ele>513</ele>
        <time>2017-04-13T17:00:07.1Z</time>
      </trkpt>
      <trkpt lat="45.76091" lon="4.32587">
        <ele>513</ele>
        <time>2017-04-13T17:00:09.1Z</time>
      </trkpt>
      <trkpt lat="45.76093" lon="4.3259">
        <ele>514</ele>
        <time>2017-04-13T17:00:11.1Z</time>
      </trkpt>
      <trkpt lat="45.76094" lon="4.32594">
        <ele>514</ele>
        <time>2017-04-13T17:00:13.1Z</time>
      </trkpt>
      <trkpt lat="45.76096" lon="4.32597">
        <ele>514</ele>
        <time>2017-04-13T17:00:15.1Z</time>
      </trkpt>
      <trkpt lat="45.76098" lon="4.32601">
        <ele>515</ele>
        <time>2017-04-13T17:00:18.1Z</time>
      </trkpt>
      <trkpt lat="45.76101" lon="4.32607">
        <ele>515</ele>
        <time>2017-04-13T17:00:20.1Z</time>
      </trkpt>
      <trkpt lat="45.76102" lon="4.32611">
        <ele>516</ele>
        <time>2017-04-13T17:00:22.1Z</time>
      </trkpt>
      <trkpt lat="45.76104" lon="4.32615">
        <ele>516</ele>
        <time>2017-04-13T17:00:24.1Z</time>
      </trkpt>
      <trkpt lat="45.76105" lon="4.32618">
        <ele>517</ele>
        <time>2017-04-13T17:00:26.1Z</time>
      </trkpt>
      <trkpt lat="45.76106" lon="4.32622">
        <ele>518</ele>
        <time>2017-04-13T17:00:28.1Z</time>
      </trkpt>
      <trkpt lat="45.76107" lon="4.32626">
        <ele>518</ele>
        <time>2017-04-13T17:00:30.1Z</time>
      </trkpt>
      <trkpt lat="45.76108" lon="4.32629">
        <ele>518</ele>
        <time>2017-04-13T17:00:33.1Z</time>
      </trkpt>
      <trkpt lat="45.76109" lon="4.32635">
        <ele>519</ele>
        <time>2017-04-13T17:00:35.1Z</time>
      </trkpt>
      <trkpt lat="45.7611" lon="4.32639">
        <ele>519</ele>
        <time>2017-04-13T17:00:37.1Z</time>
      </trkpt>
      <trkpt lat="45.76111" lon="4.32642">
        <ele>520</ele>
        <time>2017-04-13T17:00:39.1Z</time>
      </trkpt>
      <trkpt lat="45.76111" lon="4.32645">
        <ele>520</ele>
        <time>2017-04-13T17:00:41.1Z</time>
      </trkpt>
      <trkpt lat="45.76112" lon="4.32649">
        <ele>520</ele>
        <time>2017-04-13T17:00:43.1Z</time>
      </trkpt>
      <trkpt lat="45.76112" lon="4.32652">
        <ele>521</ele>
        <time>2017-04-13T17:00:46.1Z</time>
      </trkpt>
      <trkpt lat="45.76113" lon="4.32658">
        <ele>522</ele>
        <time>2017-04-13T17:00:48.1Z</time>
      </trkpt>
      <trkpt lat="45.76113" lon="4.32662">
        <ele>522</ele>
        <time>2017-04-13T17:00:50.1Z</time>
      </trkpt>
      <trkpt lat="45.76113" lon="4.32666">
        <ele>522</ele>
        <time>2017-04-13T17:00:52.1Z</time>
      </trkpt>
      <trkpt lat="45.76114" lon="4.3267">
        <ele>522</ele>
        <time>2017-04-13T17:00:54.1Z</time>
      </trkpt>
      <trkpt lat="45.76114" lon="4.32673">
        <ele>522</ele>
        <time>2017-04-13T17:00:56.1Z</time>
      </trkpt>
      <trkpt lat="45.76114" lon="4.32677">
        <ele>522</ele>
        <time>2017-04-13T17:00:58.1Z</time>
      </trkpt>
      <trkpt lat="45.76115" lon="4.32683">
        <ele>523</ele>
        <time>2017-04-13T17:01:01.1Z</time>
      </trkpt>
      <trkpt lat="45.76115" lon="4.32687">
        <ele>522</ele>
        <time>2017-04-13T17:01:03.1Z</time>
      </trkpt>
      <trkpt lat="45.76116" lon="4.32691">
        <ele>522</ele>
        <time>2017-04-13T17:01:05.1Z</time>
      </trkpt>
      <trkpt lat="45.76116" lon="4.32695">
        <ele>522</ele>
        <time>2017-04-13T17:01:07.1Z</time>
      </trkpt>
      <trkpt lat="45.76117" lon="4.32699">
        <ele>521</ele>
        <time>2017-04-13T17:01:09.1Z</time>
      </trkpt>
      <trkpt lat="45.76117" lon="4.32703">
        <ele>521</ele>
        <time>2017-04-13T17:01:11.1Z</time>
      </trkpt>
      <trkpt lat="45.76117" lon="4.32706">
        <ele>521</ele>
        <time>2017-04-13T17:01:14.1Z</time>
      </trkpt>
      <trkpt lat="45.76117" lon="4.32711">
        <ele>521</ele>
        <time>2017-04-13T17:01:16.1Z</time>
      </trkpt>
      <trkpt lat="45.76117" lon="4.32715">
        <ele>521</ele>
        <time>2017-04-13T17:01:18.1Z</time>
      </trkpt>
      <trkpt lat="45.76117" lon="4.32718">
        <ele>520</ele>
        <time>2017-04-13T17:01:20.1Z</time>
      </trkpt>
      <trkpt lat="45.76117" lon="4.32722">
        <ele>520</ele>
        <time>2017-04-13T17:01:22.1Z</time>
      </trkpt>
      <trkpt lat="45.76117" lon="4.32726">
        <ele>519</ele>
        <time>2017-04-13T17:01:24.1Z</time>
      </trkpt>
      <trkpt lat="45.76116" lon="4.32733">
        <ele>519</ele>
        <time>2017-04-13T17:01:27.1Z</time>
      </trkpt>
      <trkpt lat="45.76115" lon="4.32737">
        <ele>519</ele>
        <time>2017-04-13T17:01:29.1Z</time>
      </trkpt>
      <trkpt lat="45.76115" lon="4.32742">
        <ele>519</ele>
        <time>2017-04-13T17:01:31.1Z</time>
      </trkpt>
      <trkpt lat="45.76114" lon="4.32749">
        <ele>518</ele>
        <time>2017-04-13T17:01:33.1Z</time>
      </trkpt>
      <trkpt lat="45.76113" lon="4.32754">
        <ele>518</ele>
        <time>2017-04-13T17:01:35.1Z</time>
      </trkpt>
      <trkpt lat="45.76112" lon="4.3276">
        <ele>518</ele>
        <time>2017-04-13T17:01:37.1Z</time>
      </trkpt>
      <trkpt lat="45.76112" lon="4.32768">
        <ele>517</ele>
        <time>2017-04-13T17:01:40.1Z</time>
      </trkpt>
      <trkpt lat="45.76111" lon="4.32773">
        <ele>517</ele>
        <time>2017-04-13T17:01:42.1Z</time>
      </trkpt>
      <trkpt lat="45.7611" lon="4.32777">
        <ele>516</ele>
        <time>2017-04-13T17:01:44.1Z</time>
      </trkpt>
      <trkpt lat="45.7611" lon="4.32783">
        <ele>516</ele>
        <time>2017-04-13T17:01:46.1Z</time>
      </trkpt>
      <trkpt lat="45.76109" lon="4.32788">
        <ele>516</ele>
        <time>2017-04-13T17:01:49.1Z</time>
      </trkpt>
      <trkpt lat="45.76108" lon="4.32793">
        <ele>515</ele>
        <time>2017-04-13T17:01:51.1Z</time>
      </trkpt>
      <trkpt lat="45.76107" lon="4.32799">
        <ele>514</ele>
        <time>2017-04-13T17:01:53.1Z</time>
      </trkpt>
      <trkpt lat="45.76107" lon="4.32804">
        <ele>514</ele>
        <time>2017-04-13T17:01:55.1Z</time>
      </trkpt>
      <trkpt lat="45.76107" lon="4.32811">
        <ele>514</ele>
        <time>2017-04-13T17:01:57.1Z</time>
      </trkpt>
      <trkpt lat="45.76107" lon="4.32817">
        <ele>513</ele>
        <time>2017-04-13T17:01:59.1Z</time>
      </trkpt>
      <trkpt lat="45.76107" lon="4.32824">
        <ele>513</ele>
        <time>2017-04-13T17:02:01.1Z</time>
      </trkpt>
      <trkpt lat="45.76106" lon="4.32831">
        <ele>512</ele>
        <time>2017-04-13T17:02:03.1Z</time>
      </trkpt>
      <trkpt lat="45.76103" lon="4.32838">
        <ele>512</ele>
        <time>2017-04-13T17:02:06.1Z</time>
      </trkpt>
      <trkpt lat="45.76102" lon="4.32845">
        <ele>511</ele>
        <time>2017-04-13T17:02:09.1Z</time>
      </trkpt>
      <trkpt lat="45.76101" lon="4.3285">
        <ele>511</ele>
        <time>2017-04-13T17:02:11.1Z</time>
      </trkpt>
      <trkpt lat="45.761" lon="4.32854">
        <ele>511</ele>
        <time>2017-04-13T17:02:14.1Z</time>
      </trkpt>
      <trkpt lat="45.76098" lon="4.32861">
        <ele>511</ele>
        <time>2017-04-13T17:02:16.1Z</time>
      </trkpt>
      <trkpt lat="45.76096" lon="4.32866">
        <ele>511</ele>
        <time>2017-04-13T17:02:18.1Z</time>
      </trkpt>
      <trkpt lat="45.76095" lon="4.3287">
        <ele>510</ele>
        <time>2017-04-13T17:02:20.1Z</time>
      </trkpt>
      <trkpt lat="45.76094" lon="4.32875">
        <ele>511</ele>
        <time>2017-04-13T17:02:22.1Z</time>
      </trkpt>
      <trkpt lat="45.76092" lon="4.32882">
        <ele>511</ele>
        <time>2017-04-13T17:02:25.1Z</time>
      </trkpt>
      <trkpt lat="45.7609" lon="4.32891">
        <ele>511</ele>
        <time>2017-04-13T17:02:28.1Z</time>
      </trkpt>
      <trkpt lat="45.76089" lon="4.32896">
        <ele>511</ele>
        <time>2017-04-13T17:02:30.1Z</time>
      </trkpt>
      <trkpt lat="45.76089" lon="4.32901">
        <ele>510</ele>
        <time>2017-04-13T17:02:32.1Z</time>
      </trkpt>
      <trkpt lat="45.76089" lon="4.32904">
        <ele>511</ele>
        <time>2017-04-13T17:02:35.1Z</time>
      </trkpt>
      <trkpt lat="45.76089" lon="4.32911">
        <ele>511</ele>
        <time>2017-04-13T17:02:38.1Z</time>
      </trkpt>
      <trkpt lat="45.7609" lon="4.32918">
        <ele>511</ele>
        <time>2017-04-13T17:02:40.1Z</time>
      </trkpt>
      <trkpt lat="45.7609" lon="4.32923">
        <ele>511</ele>
        <time>2017-04-13T17:02:42.1Z</time>
      </trkpt>
      <trkpt lat="45.7609" lon="4.32927">
        <ele>511</ele>
        <time>2017-04-13T17:02:44.1Z</time>
      </trkpt>
      <trkpt lat="45.7609" lon="4.32932">
        <ele>511</ele>
        <time>2017-04-13T17:02:47.1Z</time>
      </trkpt>
      <trkpt lat="45.76091" lon="4.32938">
        <ele>511</ele>
        <time>2017-04-13T17:02:49.1Z</time>
      </trkpt>
      <trkpt lat="45.76091" lon="4.32942">
        <ele>511</ele>
        <time>2017-04-13T17:02:51.1Z</time>
      </trkpt>
      <trkpt lat="45.76091" lon="4.32946">
        <ele>511</ele>
        <time>2017-04-13T17:02:53.1Z</time>
      </trkpt>
      <trkpt lat="45.76092" lon="4.32949">
        <ele>511</ele>
        <time>2017-04-13T17:02:55.1Z</time>
      </trkpt>
      <trkpt lat="45.76092" lon="4.32954">
        <ele>511</ele>
        <time>2017-04-13T17:02:57.1Z</time>
      </trkpt>
      <trkpt lat="45.76093" lon="4.32959">
        <ele>511</ele>
        <time>2017-04-13T17:02:59.1Z</time>
      </trkpt>
      <trkpt lat="45.76094" lon="4.32964">
        <ele>511</ele>
        <time>2017-04-13T17:03:01.1Z</time>
      </trkpt>
      <trkpt lat="45.76094" lon="4.32969">
        <ele>511</ele>
        <time>2017-04-13T17:03:04.1Z</time>
      </trkpt>
      <trkpt lat="45.76096" lon="4.32976">
        <ele>511</ele>
        <time>2017-04-13T17:03:06.1Z</time>
      </trkpt>
      <trkpt lat="45.76097" lon="4.32981">
        <ele>511</ele>
        <time>2017-04-13T17:03:08.1Z</time>
      </trkpt>
      <trkpt lat="45.76098" lon="4.32985">
        <ele>511</ele>
        <time>2017-04-13T17:03:10.1Z</time>
      </trkpt>
      <trkpt lat="45.76099" lon="4.3299">
        <ele>512</ele>
        <time>2017-04-13T17:03:12.1Z</time>
      </trkpt>
      <trkpt lat="45.761" lon="4.32994">
        <ele>512</ele>
        <time>2017-04-13T17:03:14.1Z</time>
      </trkpt>
      <trkpt lat="45.76102" lon="4.32999">
        <ele>512</ele>
        <time>2017-04-13T17:03:16.1Z</time>
      </trkpt>
      <trkpt lat="45.76103" lon="4.33003">
        <ele>513</ele>
        <time>2017-04-13T17:03:19.1Z</time>
      </trkpt>
      <trkpt lat="45.76105" lon="4.33009">
        <ele>513</ele>
        <time>2017-04-13T17:03:22.1Z</time>
      </trkpt>
      <trkpt lat="45.76108" lon="4.33015">
        <ele>513</ele>
        <time>2017-04-13T17:03:24.1Z</time>
      </trkpt>
      <trkpt lat="45.7611" lon="4.33019">
        <ele>513</ele>
        <time>2017-04-13T17:03:26.1Z</time>
      </trkpt>
      <trkpt lat="45.76112" lon="4.33023">
        <ele>513</ele>
        <time>2017-04-13T17:03:28.1Z</time>
      </trkpt>
      <trkpt lat="45.76114" lon="4.33027">
        <ele>513</ele>
        <time>2017-04-13T17:03:31.1Z</time>
      </trkpt>
      <trkpt lat="45.76117" lon="4.33032">
        <ele>513</ele>
        <time>2017-04-13T17:03:34.1Z</time>
      </trkpt>
      <trkpt lat="45.76119" lon="4.33035">
        <ele>513</ele>
        <time>2017-04-13T17:03:36.1Z</time>
      </trkpt>
      <trkpt lat="45.76121" lon="4.33039">
        <ele>514</ele>
        <time>2017-04-13T17:03:38.1Z</time>
      </trkpt>
      <trkpt lat="45.76123" lon="4.33042">
        <ele>514</ele>
        <time>2017-04-13T17:03:40.1Z</time>
      </trkpt>
      <trkpt lat="45.76126" lon="4.33048">
        <ele>514</ele>
        <time>2017-04-13T17:03:42.1Z</time>
      </trkpt>
      <trkpt lat="45.76128" lon="4.33051">
        <ele>514</ele>
        <time>2017-04-13T17:03:45.1Z</time>
      </trkpt>
      <trkpt lat="45.76131" lon="4.33057">
        <ele>514</ele>
        <time>2017-04-13T17:03:47.1Z</time>
      </trkpt>
    </trkseg>
  </trk>
</gpx>